<?xml version='1.0' encoding='UTF-8'?><gpx version="1.1" creator="JPX - https://github.com/jenetics/jpx" xmlns="http://www.topografix.com/GPX/1/1"><trk><trkseg><trkpt lat="45.6099675" lon="9.4269859"><ele>202.0</ele><time>2026-04-24T09:54:11.941Z</time></trkpt><trkpt lat="45.610093" lon="9.426933"><ele>202.0</ele><time>2026-04-24T09:54:12.909Z</time></trkpt><trkpt lat="45.6100422" lon="9.4270864"><ele>202.0</ele><time>2026-04-24T09:54:14.918Z</time></trkpt><trkpt lat="45.6100093" lon="9.4271805"><ele>202.0</ele><time>2026-04-24T09:54:17.022Z</time></trkpt><trkpt lat="45.6100229" lon="9.4270261"><ele>202.0</ele><time>2026-04-24T09:59:09.981Z</time></trkpt><trkpt lat="45.6100052" lon="9.426855"><ele>201.99999999999997</ele><time>2026-04-24T09:59:11.982Z</time></trkpt><trkpt lat="45.609932" lon="9.4267536"><ele>202.0</ele><time>2026-04-24T09:59:13.982Z</time></trkpt><trkpt lat="45.6098533" lon="9.4266946"><ele>202.0</ele><time>2026-04-24T09:59:15.981Z</time></trkpt><trkpt lat="45.609797" lon="9.4266509"><ele>202.0</ele><time>2026-04-24T09:59:17.981Z</time></trkpt><trkpt lat="45.6097668" lon="9.4265493"><ele>201.99999999999997</ele><time>2026-04-24T09:59:20.982Z</time></trkpt><trkpt lat="45.6097633" lon="9.4264494"><ele>202.0</ele><time>2026-04-24T09:59:22.981Z</time></trkpt><trkpt lat="45.609773" lon="9.4263299"><ele>202.0</ele><time>2026-04-24T09:59:24.981Z</time></trkpt><trkpt lat="45.6097724" lon="9.4262204"><ele>202.0</ele><time>2026-04-24T09:59:26.982Z</time></trkpt><trkpt lat="45.6097477" lon="9.426126"><ele>202.0</ele><time>2026-04-24T09:59:28.982Z</time></trkpt><trkpt lat="45.6097003" lon="9.4260623"><ele>202.0</ele><time>2026-04-24T09:59:32.981Z</time></trkpt><trkpt lat="45.6096313" lon="9.4260418"><ele>202.0</ele><time>2026-04-24T09:59:41.981Z</time></trkpt><trkpt lat="45.6095556" lon="9.4260526"><ele>202.0</ele><time>2026-04-24T09:59:43.981Z</time></trkpt><trkpt lat="45.6094681" lon="9.4260629"><ele>202.0</ele><time>2026-04-24T09:59:45.982Z</time></trkpt><trkpt lat="45.6093777" lon="9.426062"><ele>201.39999999999998</ele><time>2026-04-24T09:59:47.981Z</time></trkpt><trkpt lat="45.6092819" lon="9.4260546"><ele>200.79999999999998</ele><time>2026-04-24T09:59:49.981Z</time></trkpt><trkpt lat="45.6091866" lon="9.4260499"><ele>200.2</ele><time>2026-04-24T09:59:51.982Z</time></trkpt><trkpt lat="45.6090853" lon="9.4260346"><ele>199.6</ele><time>2026-04-24T09:59:53.981Z</time></trkpt><trkpt lat="45.6089861" lon="9.426036"><ele>199.0</ele><time>2026-04-24T09:59:55.981Z</time></trkpt><trkpt lat="45.6088783" lon="9.4260405"><ele>199.0</ele><time>2026-04-24T09:59:57.981Z</time></trkpt><trkpt lat="45.6087731" lon="9.4260338"><ele>199.0</ele><time>2026-04-24T09:59:59.981Z</time></trkpt><trkpt lat="45.6086669" lon="9.4260288"><ele>199.0</ele><time>2026-04-24T10:00:01.982Z</time></trkpt><trkpt lat="45.6085702" lon="9.4260224"><ele>199.0</ele><time>2026-04-24T10:00:03.982Z</time></trkpt><trkpt lat="45.6084724" lon="9.4260252"><ele>199.0</ele><time>2026-04-24T10:00:05.981Z</time></trkpt><trkpt lat="45.6083734" lon="9.4260282"><ele>198.39999999999998</ele><time>2026-04-24T10:00:07.982Z</time></trkpt><trkpt lat="45.6082781" lon="9.4260279"><ele>197.8</ele><time>2026-04-24T10:00:09.981Z</time></trkpt><trkpt lat="45.6081694" lon="9.426016"><ele>197.2</ele><time>2026-04-24T10:00:11.981Z</time></trkpt><trkpt lat="45.6080819" lon="9.4259996"><ele>196.60000000000002</ele><time>2026-04-24T10:00:13.982Z</time></trkpt><trkpt lat="45.6079926" lon="9.4259946"><ele>196.0</ele><time>2026-04-24T10:00:15.981Z</time></trkpt><trkpt lat="45.6078949" lon="9.4259868"><ele>195.8</ele><time>2026-04-24T10:00:17.981Z</time></trkpt><trkpt lat="45.6077893" lon="9.4259793"><ele>195.60000000000002</ele><time>2026-04-24T10:00:19.981Z</time></trkpt><trkpt lat="45.6076863" lon="9.4259712"><ele>195.4</ele><time>2026-04-24T10:00:21.982Z</time></trkpt><trkpt lat="45.6075832" lon="9.4259611"><ele>195.2</ele><time>2026-04-24T10:00:23.981Z</time></trkpt><trkpt lat="45.6075093" lon="9.4260156"><ele>195.0</ele><time>2026-04-24T10:00:25.981Z</time></trkpt><trkpt lat="45.6074613" lon="9.4261041"><ele>195.0</ele><time>2026-04-24T10:00:27.981Z</time></trkpt><trkpt lat="45.6074524" lon="9.426212"><ele>195.0</ele><time>2026-04-24T10:00:29.981Z</time></trkpt><trkpt lat="45.6074516" lon="9.4263332"><ele>195.0</ele><time>2026-04-24T10:00:31.981Z</time></trkpt><trkpt lat="45.6074439" lon="9.4264609"><ele>195.0</ele><time>2026-04-24T10:00:33.982Z</time></trkpt><trkpt lat="45.6074388" lon="9.4265871"><ele>195.0</ele><time>2026-04-24T10:00:35.982Z</time></trkpt><trkpt lat="45.6074432" lon="9.4267195"><ele>195.0</ele><time>2026-04-24T10:00:37.982Z</time></trkpt><trkpt lat="45.6074364" lon="9.4268546"><ele>195.0</ele><time>2026-04-24T10:00:39.981Z</time></trkpt><trkpt lat="45.6074238" lon="9.4270024"><ele>195.0</ele><time>2026-04-24T10:00:41.982Z</time></trkpt><trkpt lat="45.6074206" lon="9.4271473"><ele>195.0</ele><time>2026-04-24T10:00:43.981Z</time></trkpt><trkpt lat="45.607401" lon="9.4272651"><ele>195.0</ele><time>2026-04-24T10:00:45.981Z</time></trkpt><trkpt lat="45.6073764" lon="9.4274009"><ele>195.0</ele><time>2026-04-24T10:00:47.981Z</time></trkpt><trkpt lat="45.6073609" lon="9.427528"><ele>195.0</ele><time>2026-04-24T10:00:49.981Z</time></trkpt><trkpt lat="45.6073392" lon="9.4276894"><ele>195.0</ele><time>2026-04-24T10:00:51.981Z</time></trkpt><trkpt lat="45.6073373" lon="9.4278184"><ele>195.0</ele><time>2026-04-24T10:00:53.981Z</time></trkpt><trkpt lat="45.6073342" lon="9.4279778"><ele>195.0</ele><time>2026-04-24T10:00:55.981Z</time></trkpt><trkpt lat="45.6073252" lon="9.4281286"><ele>195.0</ele><time>2026-04-24T10:00:57.981Z</time></trkpt><trkpt lat="45.6073259" lon="9.4282553"><ele>195.0</ele><time>2026-04-24T10:00:59.981Z</time></trkpt><trkpt lat="45.6073239" lon="9.4283594"><ele>195.0</ele><time>2026-04-24T10:01:01.981Z</time></trkpt><trkpt lat="45.6073217" lon="9.4284539"><ele>195.0</ele><time>2026-04-24T10:01:03.981Z</time></trkpt><trkpt lat="45.6073178" lon="9.4285844"><ele>195.0</ele><time>2026-04-24T10:01:05.981Z</time></trkpt><trkpt lat="45.6073166" lon="9.4287146"><ele>195.0</ele><time>2026-04-24T10:01:07.981Z</time></trkpt><trkpt lat="45.6073144" lon="9.428842"><ele>195.0</ele><time>2026-04-24T10:01:09.981Z</time></trkpt><trkpt lat="45.607302" lon="9.4290399"><ele>195.0</ele><time>2026-04-24T10:01:11.981Z</time></trkpt><trkpt lat="45.6072895" lon="9.4291852"><ele>195.0</ele><time>2026-04-24T10:01:13.982Z</time></trkpt><trkpt lat="45.6072855" lon="9.4292946"><ele>195.0</ele><time>2026-04-24T10:01:14.981Z</time></trkpt><trkpt lat="45.607293" lon="9.4294511"><ele>195.0</ele><time>2026-04-24T10:01:16.981Z</time></trkpt><trkpt lat="45.6072701" lon="9.4296364"><ele>195.0</ele><time>2026-04-24T10:01:18.981Z</time></trkpt><trkpt lat="45.6072511" lon="9.4298016"><ele>195.2</ele><time>2026-04-24T10:01:20.982Z</time></trkpt><trkpt lat="45.6072228" lon="9.4299731"><ele>195.4</ele><time>2026-04-24T10:01:22.981Z</time></trkpt><trkpt lat="45.6071947" lon="9.4300564"><ele>195.60000000000002</ele><time>2026-04-24T10:01:23.981Z</time></trkpt><trkpt lat="45.6071383" lon="9.4301581"><ele>195.8</ele><time>2026-04-24T10:01:25.981Z</time></trkpt><trkpt lat="45.6070953" lon="9.4302504"><ele>196.0</ele><time>2026-04-24T10:01:27.982Z</time></trkpt><trkpt lat="45.6070781" lon="9.4304372"><ele>196.16666666666666</ele><time>2026-04-24T10:01:29.981Z</time></trkpt><trkpt lat="45.6070759" lon="9.4305499"><ele>196.33333333333331</ele><time>2026-04-24T10:01:30.982Z</time></trkpt><trkpt lat="45.607065" lon="9.430643"><ele>196.5</ele><time>2026-04-24T10:01:31.982Z</time></trkpt><trkpt lat="45.6070491" lon="9.4307453"><ele>196.66666666666669</ele><time>2026-04-24T10:01:32.981Z</time></trkpt><trkpt lat="45.607009" lon="9.4308836"><ele>196.83333333333334</ele><time>2026-04-24T10:01:34.981Z</time></trkpt><trkpt lat="45.6069966" lon="9.4310156"><ele>197.0</ele><time>2026-04-24T10:01:36.982Z</time></trkpt><trkpt lat="45.6070082" lon="9.4311339"><ele>197.0</ele><time>2026-04-24T10:01:38.981Z</time></trkpt><trkpt lat="45.6070697" lon="9.4311992"><ele>197.0</ele><time>2026-04-24T10:01:40.982Z</time></trkpt><trkpt lat="45.6071468" lon="9.4312583"><ele>197.0</ele><time>2026-04-24T10:01:42.981Z</time></trkpt><trkpt lat="45.6072518" lon="9.4313128"><ele>197.0</ele><time>2026-04-24T10:01:44.981Z</time></trkpt><trkpt lat="45.6073225" lon="9.4314023"><ele>197.0</ele><time>2026-04-24T10:01:46.981Z</time></trkpt><trkpt lat="45.6073357" lon="9.4315402"><ele>197.0</ele><time>2026-04-24T10:01:48.981Z</time></trkpt><trkpt lat="45.6073195" lon="9.4316537"><ele>197.0</ele><time>2026-04-24T10:01:50.982Z</time></trkpt><trkpt lat="45.6073388" lon="9.4317536"><ele>197.0</ele><time>2026-04-24T10:01:52.981Z</time></trkpt><trkpt lat="45.6074425" lon="9.431855"><ele>197.0</ele><time>2026-04-24T10:01:54.982Z</time></trkpt><trkpt lat="45.6075601" lon="9.4319023"><ele>197.0</ele><time>2026-04-24T10:01:56.982Z</time></trkpt><trkpt lat="45.6076552" lon="9.4319407"><ele>197.0</ele><time>2026-04-24T10:01:58.981Z</time></trkpt><trkpt lat="45.6077565" lon="9.4319691"><ele>197.0</ele><time>2026-04-24T10:02:00.982Z</time></trkpt><trkpt lat="45.6078592" lon="9.4319944"><ele>197.0</ele><time>2026-04-24T10:02:02.981Z</time></trkpt><trkpt lat="45.6079608" lon="9.4320253"><ele>197.0</ele><time>2026-04-24T10:02:04.982Z</time></trkpt><trkpt lat="45.608073" lon="9.4320128"><ele>197.0</ele><time>2026-04-24T10:02:06.981Z</time></trkpt><trkpt lat="45.6081743" lon="9.4319407"><ele>197.2</ele><time>2026-04-24T10:02:08.981Z</time></trkpt><trkpt lat="45.6082856" lon="9.4318659"><ele>197.39999999999998</ele><time>2026-04-24T10:02:10.981Z</time></trkpt><trkpt lat="45.6083539" lon="9.4318347"><ele>197.60000000000002</ele><time>2026-04-24T10:02:11.981Z</time></trkpt><trkpt lat="45.608429" lon="9.4318384"><ele>197.8</ele><time>2026-04-24T10:02:12.981Z</time></trkpt><trkpt lat="45.6085054" lon="9.4318355"><ele>198.0</ele><time>2026-04-24T10:02:13.981Z</time></trkpt><trkpt lat="45.6086153" lon="9.4318276"><ele>197.4</ele><time>2026-04-24T10:02:15.982Z</time></trkpt><trkpt lat="45.6087178" lon="9.4318542"><ele>196.8</ele><time>2026-04-24T10:02:17.981Z</time></trkpt><trkpt lat="45.6088213" lon="9.4318825"><ele>196.2</ele><time>2026-04-24T10:02:19.981Z</time></trkpt><trkpt lat="45.6089222" lon="9.4319291"><ele>195.6</ele><time>2026-04-24T10:02:21.981Z</time></trkpt><trkpt lat="45.6090201" lon="9.4319702"><ele>195.0</ele><time>2026-04-24T10:02:23.981Z</time></trkpt><trkpt lat="45.609123" lon="9.432021"><ele>195.0</ele><time>2026-04-24T10:02:25.982Z</time></trkpt><trkpt lat="45.6092286" lon="9.4320657"><ele>195.0</ele><time>2026-04-24T10:02:27.981Z</time></trkpt><trkpt lat="45.6092883" lon="9.4320943"><ele>195.0</ele><time>2026-04-24T10:02:28.982Z</time></trkpt><trkpt lat="45.6093983" lon="9.4321493"><ele>195.0</ele><time>2026-04-24T10:02:30.981Z</time></trkpt><trkpt lat="45.6095064" lon="9.4321943"><ele>195.0</ele><time>2026-04-24T10:02:32.981Z</time></trkpt><trkpt lat="45.6096115" lon="9.4322193"><ele>195.2</ele><time>2026-04-24T10:02:34.982Z</time></trkpt><trkpt lat="45.609724" lon="9.432266"><ele>195.4</ele><time>2026-04-24T10:02:36.981Z</time></trkpt><trkpt lat="45.6098353" lon="9.432297"><ele>195.60000000000002</ele><time>2026-04-24T10:02:38.981Z</time></trkpt><trkpt lat="45.6099498" lon="9.432278"><ele>195.8</ele><time>2026-04-24T10:02:40.981Z</time></trkpt><trkpt lat="45.6100474" lon="9.4322369"><ele>196.0</ele><time>2026-04-24T10:02:42.981Z</time></trkpt><trkpt lat="45.6101476" lon="9.4322528"><ele>196.0</ele><time>2026-04-24T10:02:44.982Z</time></trkpt><trkpt lat="45.6102598" lon="9.4322604"><ele>196.0</ele><time>2026-04-24T10:02:46.981Z</time></trkpt><trkpt lat="45.6103496" lon="9.4321803"><ele>196.0</ele><time>2026-04-24T10:02:48.981Z</time></trkpt><trkpt lat="45.6104414" lon="9.4320826"><ele>196.0</ele><time>2026-04-24T10:02:50.982Z</time></trkpt><trkpt lat="45.6105257" lon="9.4320004"><ele>196.0</ele><time>2026-04-24T10:02:52.981Z</time></trkpt><trkpt lat="45.6106224" lon="9.4319454"><ele>196.60000000000002</ele><time>2026-04-24T10:02:54.981Z</time></trkpt><trkpt lat="45.6107263" lon="9.431913"><ele>197.2</ele><time>2026-04-24T10:02:56.981Z</time></trkpt><trkpt lat="45.6108318" lon="9.4319131"><ele>197.8</ele><time>2026-04-24T10:02:58.981Z</time></trkpt><trkpt lat="45.6109347" lon="9.4319379"><ele>198.39999999999998</ele><time>2026-04-24T10:03:00.982Z</time></trkpt><trkpt lat="45.6110463" lon="9.4319507"><ele>199.0</ele><time>2026-04-24T10:03:02.981Z</time></trkpt><trkpt lat="45.6111843" lon="9.4319634"><ele>199.49999999999997</ele><time>2026-04-24T10:03:05.981Z</time></trkpt><trkpt lat="45.6112491" lon="9.431954"><ele>200.0</ele><time>2026-04-24T10:03:06.982Z</time></trkpt><trkpt lat="45.6113476" lon="9.4319628"><ele>200.5</ele><time>2026-04-24T10:03:08.981Z</time></trkpt><trkpt lat="45.6114359" lon="9.4319617"><ele>201.0</ele><time>2026-04-24T10:03:10.981Z</time></trkpt><trkpt lat="45.6114962" lon="9.4319974"><ele>201.49999999999997</ele><time>2026-04-24T10:03:12.982Z</time></trkpt><trkpt lat="45.6115624" lon="9.4320271"><ele>202.0</ele><time>2026-04-24T10:03:13.981Z</time></trkpt><trkpt lat="45.6116573" lon="9.4320899"><ele>201.99999999999997</ele><time>2026-04-24T10:03:15.981Z</time></trkpt><trkpt lat="45.6117055" lon="9.4321611"><ele>202.0</ele><time>2026-04-24T10:03:16.981Z</time></trkpt><trkpt lat="45.6118195" lon="9.432241"><ele>202.0</ele><time>2026-04-24T10:03:18.982Z</time></trkpt><trkpt lat="45.6118892" lon="9.4322696"><ele>202.0</ele><time>2026-04-24T10:03:19.981Z</time></trkpt><trkpt lat="45.6119523" lon="9.4322709"><ele>201.99999999999997</ele><time>2026-04-24T10:03:20.981Z</time></trkpt><trkpt lat="45.6120182" lon="9.4322827"><ele>202.0</ele><time>2026-04-24T10:03:21.982Z</time></trkpt><trkpt lat="45.6121352" lon="9.4322928"><ele>202.25</ele><time>2026-04-24T10:03:23.982Z</time></trkpt><trkpt lat="45.612257" lon="9.4323068"><ele>202.5</ele><time>2026-04-24T10:03:25.981Z</time></trkpt><trkpt lat="45.6123798" lon="9.4323312"><ele>202.75</ele><time>2026-04-24T10:03:27.982Z</time></trkpt><trkpt lat="45.6124975" lon="9.4323452"><ele>203.0</ele><time>2026-04-24T10:03:29.981Z</time></trkpt><trkpt lat="45.6126022" lon="9.4323642"><ele>203.0</ele><time>2026-04-24T10:03:31.982Z</time></trkpt><trkpt lat="45.612718" lon="9.4323913"><ele>203.0</ele><time>2026-04-24T10:03:33.981Z</time></trkpt><trkpt lat="45.6128355" lon="9.4324226"><ele>203.0</ele><time>2026-04-24T10:03:35.981Z</time></trkpt><trkpt lat="45.6129407" lon="9.4324788"><ele>203.0</ele><time>2026-04-24T10:03:37.982Z</time></trkpt><trkpt lat="45.6130501" lon="9.4325389"><ele>203.0</ele><time>2026-04-24T10:03:39.981Z</time></trkpt><trkpt lat="45.6131542" lon="9.4326029"><ele>203.0</ele><time>2026-04-24T10:03:41.982Z</time></trkpt><trkpt lat="45.613268" lon="9.4326605"><ele>203.0</ele><time>2026-04-24T10:03:43.982Z</time></trkpt><trkpt lat="45.61338" lon="9.4327072"><ele>203.0</ele><time>2026-04-24T10:03:45.981Z</time></trkpt><trkpt lat="45.6134949" lon="9.4327693"><ele>203.0</ele><time>2026-04-24T10:03:47.981Z</time></trkpt><trkpt lat="45.6136056" lon="9.432807"><ele>203.0</ele><time>2026-04-24T10:03:49.982Z</time></trkpt><trkpt lat="45.6136672" lon="9.4328379"><ele>203.0</ele><time>2026-04-24T10:03:50.981Z</time></trkpt><trkpt lat="45.6137813" lon="9.4328391"><ele>203.0</ele><time>2026-04-24T10:03:52.981Z</time></trkpt><trkpt lat="45.6138757" lon="9.4327868"><ele>203.0</ele><time>2026-04-24T10:03:54.981Z</time></trkpt><trkpt lat="45.6139831" lon="9.4327457"><ele>203.0</ele><time>2026-04-24T10:03:56.982Z</time></trkpt><trkpt lat="45.6140877" lon="9.4327865"><ele>203.0</ele><time>2026-04-24T10:03:58.981Z</time></trkpt><trkpt lat="45.6141923" lon="9.4328531"><ele>203.0</ele><time>2026-04-24T10:04:00.981Z</time></trkpt><trkpt lat="45.6143042" lon="9.4329096"><ele>203.0</ele><time>2026-04-24T10:04:02.981Z</time></trkpt><trkpt lat="45.6144068" lon="9.4329597"><ele>203.4</ele><time>2026-04-24T10:04:04.981Z</time></trkpt><trkpt lat="45.6145112" lon="9.433011"><ele>203.8</ele><time>2026-04-24T10:04:06.982Z</time></trkpt><trkpt lat="45.6146116" lon="9.4330665"><ele>204.2</ele><time>2026-04-24T10:04:08.981Z</time></trkpt><trkpt lat="45.614719" lon="9.4331132"><ele>204.6</ele><time>2026-04-24T10:04:10.981Z</time></trkpt><trkpt lat="45.6148115" lon="9.4331725"><ele>205.0</ele><time>2026-04-24T10:04:12.982Z</time></trkpt><trkpt lat="45.6148804" lon="9.4332051"><ele>205.0</ele><time>2026-04-24T10:04:14.982Z</time></trkpt><trkpt lat="45.6149543" lon="9.4332343"><ele>205.0</ele><time>2026-04-24T10:04:16.982Z</time></trkpt><trkpt lat="45.6150351" lon="9.4332757"><ele>205.0</ele><time>2026-04-24T10:04:18.981Z</time></trkpt><trkpt lat="45.6151329" lon="9.4333168"><ele>205.0</ele><time>2026-04-24T10:04:20.981Z</time></trkpt><trkpt lat="45.6152323" lon="9.4333487"><ele>205.0</ele><time>2026-04-24T10:04:22.982Z</time></trkpt><trkpt lat="45.6153361" lon="9.4333948"><ele>204.8</ele><time>2026-04-24T10:04:24.982Z</time></trkpt><trkpt lat="45.615438" lon="9.43345"><ele>204.6</ele><time>2026-04-24T10:04:26.981Z</time></trkpt><trkpt lat="45.6155333" lon="9.4334901"><ele>204.39999999999998</ele><time>2026-04-24T10:04:28.981Z</time></trkpt><trkpt lat="45.6156166" lon="9.4334683"><ele>204.2</ele><time>2026-04-24T10:04:30.982Z</time></trkpt><trkpt lat="45.6156375" lon="9.4333673"><ele>204.0</ele><time>2026-04-24T10:04:32.981Z</time></trkpt><trkpt lat="45.6156275" lon="9.4332212"><ele>204.0</ele><time>2026-04-24T10:04:34.981Z</time></trkpt><trkpt lat="45.6156331" lon="9.4330897"><ele>204.0</ele><time>2026-04-24T10:04:36.981Z</time></trkpt><trkpt lat="45.615673" lon="9.4329915"><ele>204.0</ele><time>2026-04-24T10:04:38.981Z</time></trkpt><trkpt lat="45.6158129" lon="9.4327365"><ele>204.0</ele><time>2026-04-24T10:04:46.984Z</time></trkpt><trkpt lat="45.6158403" lon="9.4326299"><ele>204.0</ele><time>2026-04-24T10:04:47.981Z</time></trkpt><trkpt lat="45.6158591" lon="9.4325337"><ele>204.0</ele><time>2026-04-24T10:04:48.99Z</time></trkpt><trkpt lat="45.615896" lon="9.4323953"><ele>204.0</ele><time>2026-04-24T10:04:49.992Z</time></trkpt><trkpt lat="45.6159487" lon="9.4322868"><ele>204.0</ele><time>2026-04-24T10:04:51.99Z</time></trkpt><trkpt lat="45.6159636" lon="9.4321651"><ele>204.0</ele><time>2026-04-24T10:04:53.99Z</time></trkpt><trkpt lat="45.6159826" lon="9.4320561"><ele>204.0</ele><time>2026-04-24T10:04:55.99Z</time></trkpt><trkpt lat="45.6160506" lon="9.4320135"><ele>204.16666666666666</ele><time>2026-04-24T10:04:57.99Z</time></trkpt><trkpt lat="45.6161192" lon="9.4320286"><ele>204.33333333333331</ele><time>2026-04-24T10:04:59.99Z</time></trkpt><trkpt lat="45.6161526" lon="9.4321128"><ele>204.5</ele><time>2026-04-24T10:05:01.99Z</time></trkpt><trkpt lat="45.6161563" lon="9.4322312"><ele>204.66666666666666</ele><time>2026-04-24T10:05:03.99Z</time></trkpt><trkpt lat="45.6161649" lon="9.4323518"><ele>204.83333333333331</ele><time>2026-04-24T10:05:05.99Z</time></trkpt><trkpt lat="45.6161712" lon="9.4324769"><ele>205.0</ele><time>2026-04-24T10:05:07.991Z</time></trkpt><trkpt lat="45.6161743" lon="9.432609"><ele>205.0</ele><time>2026-04-24T10:05:09.99Z</time></trkpt><trkpt lat="45.6161916" lon="9.4327636"><ele>205.0</ele><time>2026-04-24T10:05:11.99Z</time></trkpt><trkpt lat="45.6162088" lon="9.4329061"><ele>205.0</ele><time>2026-04-24T10:05:13.99Z</time></trkpt><trkpt lat="45.6162264" lon="9.4330642"><ele>205.0</ele><time>2026-04-24T10:05:15.99Z</time></trkpt><trkpt lat="45.6162439" lon="9.4332287"><ele>205.0</ele><time>2026-04-24T10:05:17.99Z</time></trkpt><trkpt lat="45.6162577" lon="9.4333169"><ele>205.0</ele><time>2026-04-24T10:05:18.991Z</time></trkpt><trkpt lat="45.6163063" lon="9.4334715"><ele>205.0</ele><time>2026-04-24T10:05:20.991Z</time></trkpt><trkpt lat="45.6163326" lon="9.433555"><ele>205.0</ele><time>2026-04-24T10:05:21.99Z</time></trkpt><trkpt lat="45.616396" lon="9.4336998"><ele>205.0</ele><time>2026-04-24T10:05:23.99Z</time></trkpt><trkpt lat="45.616485" lon="9.4338091"><ele>205.0</ele><time>2026-04-24T10:05:25.991Z</time></trkpt><trkpt lat="45.6165917" lon="9.4338594"><ele>205.0</ele><time>2026-04-24T10:05:27.99Z</time></trkpt><trkpt lat="45.6167044" lon="9.4338133"><ele>205.0</ele><time>2026-04-24T10:05:29.99Z</time></trkpt><trkpt lat="45.61679" lon="9.4337195"><ele>205.0</ele><time>2026-04-24T10:05:31.99Z</time></trkpt><trkpt lat="45.6168771" lon="9.4336136"><ele>205.0</ele><time>2026-04-24T10:05:33.991Z</time></trkpt><trkpt lat="45.6169183" lon="9.4335416"><ele>205.0</ele><time>2026-04-24T10:05:34.99Z</time></trkpt><trkpt lat="45.6170046" lon="9.4334261"><ele>205.25</ele><time>2026-04-24T10:05:36.99Z</time></trkpt><trkpt lat="45.6170882" lon="9.4333044"><ele>205.5</ele><time>2026-04-24T10:05:38.991Z</time></trkpt><trkpt lat="45.6171665" lon="9.43318"><ele>205.75</ele><time>2026-04-24T10:05:40.991Z</time></trkpt><trkpt lat="45.61725" lon="9.433045"><ele>206.0</ele><time>2026-04-24T10:05:42.99Z</time></trkpt><trkpt lat="45.6173295" lon="9.4329219"><ele>206.0</ele><time>2026-04-24T10:05:44.991Z</time></trkpt><trkpt lat="45.6174076" lon="9.4327932"><ele>206.0</ele><time>2026-04-24T10:05:46.99Z</time></trkpt><trkpt lat="45.6174911" lon="9.4326588"><ele>206.0</ele><time>2026-04-24T10:05:48.99Z</time></trkpt><trkpt lat="45.6175663" lon="9.4325247"><ele>206.0</ele><time>2026-04-24T10:05:50.99Z</time></trkpt><trkpt lat="45.6176338" lon="9.4323769"><ele>206.0</ele><time>2026-04-24T10:05:52.991Z</time></trkpt><trkpt lat="45.6176941" lon="9.4322266"><ele>206.0</ele><time>2026-04-24T10:05:54.991Z</time></trkpt><trkpt lat="45.6177392" lon="9.4320811"><ele>206.0</ele><time>2026-04-24T10:05:56.99Z</time></trkpt><trkpt lat="45.6177912" lon="9.431941"><ele>206.0</ele><time>2026-04-24T10:05:58.99Z</time></trkpt><trkpt lat="45.6178272" lon="9.4318588"><ele>206.0</ele><time>2026-04-24T10:05:59.99Z</time></trkpt><trkpt lat="45.617882" lon="9.4317154"><ele>206.25</ele><time>2026-04-24T10:06:01.99Z</time></trkpt><trkpt lat="45.617939" lon="9.4315615"><ele>206.5</ele><time>2026-04-24T10:06:03.99Z</time></trkpt><trkpt lat="45.617994" lon="9.4314058"><ele>206.75</ele><time>2026-04-24T10:06:05.99Z</time></trkpt><trkpt lat="45.6180511" lon="9.4312495"><ele>207.0</ele><time>2026-04-24T10:06:07.991Z</time></trkpt><trkpt lat="45.6181124" lon="9.4310929"><ele>207.2</ele><time>2026-04-24T10:06:09.99Z</time></trkpt><trkpt lat="45.618155" lon="9.431009"><ele>207.39999999999998</ele><time>2026-04-24T10:06:10.991Z</time></trkpt><trkpt lat="45.6181951" lon="9.4309354"><ele>207.60000000000002</ele><time>2026-04-24T10:06:11.99Z</time></trkpt><trkpt lat="45.6182792" lon="9.430799"><ele>207.8</ele><time>2026-04-24T10:06:13.991Z</time></trkpt><trkpt lat="45.618339" lon="9.4307295"><ele>208.0</ele><time>2026-04-24T10:06:14.99Z</time></trkpt><trkpt lat="45.6184485" lon="9.430647"><ele>207.99999999999997</ele><time>2026-04-24T10:06:16.99Z</time></trkpt><trkpt lat="45.6185125" lon="9.4306177"><ele>208.0</ele><time>2026-04-24T10:06:17.991Z</time></trkpt><trkpt lat="45.6186213" lon="9.4305683"><ele>208.0</ele><time>2026-04-24T10:06:19.99Z</time></trkpt><trkpt lat="45.6186866" lon="9.4305348"><ele>208.0</ele><time>2026-04-24T10:06:20.99Z</time></trkpt><trkpt lat="45.6187934" lon="9.4304884"><ele>207.99999999999997</ele><time>2026-04-24T10:06:22.991Z</time></trkpt><trkpt lat="45.6188567" lon="9.4304567"><ele>208.0</ele><time>2026-04-24T10:06:23.991Z</time></trkpt><trkpt lat="45.6189192" lon="9.4304232"><ele>208.0</ele><time>2026-04-24T10:06:24.99Z</time></trkpt><trkpt lat="45.6190378" lon="9.4303755"><ele>208.0</ele><time>2026-04-24T10:06:26.991Z</time></trkpt><trkpt lat="45.6191024" lon="9.4303563"><ele>208.0</ele><time>2026-04-24T10:06:27.991Z</time></trkpt><trkpt lat="45.6192142" lon="9.4303588"><ele>208.0</ele><time>2026-04-24T10:06:29.99Z</time></trkpt><trkpt lat="45.6193261" lon="9.4303792"><ele>208.0</ele><time>2026-04-24T10:06:31.99Z</time></trkpt><trkpt lat="45.6194366" lon="9.4304036"><ele>208.5</ele><time>2026-04-24T10:06:33.99Z</time></trkpt><trkpt lat="45.6195466" lon="9.4304275"><ele>209.0</ele><time>2026-04-24T10:06:35.991Z</time></trkpt><trkpt lat="45.6196655" lon="9.4304543"><ele>209.5</ele><time>2026-04-24T10:06:37.991Z</time></trkpt><trkpt lat="45.6197866" lon="9.4304688"><ele>210.0</ele><time>2026-04-24T10:06:39.991Z</time></trkpt><trkpt lat="45.6198978" lon="9.4304904"><ele>210.0</ele><time>2026-04-24T10:06:41.99Z</time></trkpt><trkpt lat="45.6200093" lon="9.4305131"><ele>210.0</ele><time>2026-04-24T10:06:43.991Z</time></trkpt><trkpt lat="45.620127" lon="9.4305223"><ele>210.0</ele><time>2026-04-24T10:06:45.99Z</time></trkpt><trkpt lat="45.6201919" lon="9.4305319"><ele>210.0</ele><time>2026-04-24T10:06:46.99Z</time></trkpt><trkpt lat="45.6202582" lon="9.430539"><ele>210.0</ele><time>2026-04-24T10:06:47.99Z</time></trkpt><trkpt lat="45.6203713" lon="9.4305637"><ele>210.0</ele><time>2026-04-24T10:06:49.99Z</time></trkpt><trkpt lat="45.6204897" lon="9.4305868"><ele>210.0</ele><time>2026-04-24T10:06:51.99Z</time></trkpt><trkpt lat="45.6206028" lon="9.4306004"><ele>210.0</ele><time>2026-04-24T10:06:53.991Z</time></trkpt><trkpt lat="45.6207203" lon="9.4306178"><ele>210.0</ele><time>2026-04-24T10:06:55.99Z</time></trkpt><trkpt lat="45.6208223" lon="9.4306545"><ele>210.0</ele><time>2026-04-24T10:06:57.99Z</time></trkpt><trkpt lat="45.6208699" lon="9.4307777"><ele>210.0</ele><time>2026-04-24T10:06:59.99Z</time></trkpt><trkpt lat="45.6208557" lon="9.4309212"><ele>210.0</ele><time>2026-04-24T10:07:01.99Z</time></trkpt><trkpt lat="45.6208279" lon="9.4310738"><ele>210.0</ele><time>2026-04-24T10:07:03.991Z</time></trkpt><trkpt lat="45.6208078" lon="9.4312302"><ele>210.0</ele><time>2026-04-24T10:07:05.991Z</time></trkpt><trkpt lat="45.6207785" lon="9.4313935"><ele>210.25</ele><time>2026-04-24T10:07:07.99Z</time></trkpt><trkpt lat="45.6207581" lon="9.4315609"><ele>210.5</ele><time>2026-04-24T10:07:09.991Z</time></trkpt><trkpt lat="45.6207403" lon="9.4317257"><ele>210.75</ele><time>2026-04-24T10:07:11.99Z</time></trkpt><trkpt lat="45.6207188" lon="9.4318912"><ele>211.0</ele><time>2026-04-24T10:07:13.991Z</time></trkpt><trkpt lat="45.620692" lon="9.4320524"><ele>211.20000000000002</ele><time>2026-04-24T10:07:15.99Z</time></trkpt><trkpt lat="45.6206763" lon="9.4321401"><ele>211.4</ele><time>2026-04-24T10:07:16.991Z</time></trkpt><trkpt lat="45.6206475" lon="9.4323187"><ele>211.6</ele><time>2026-04-24T10:07:18.99Z</time></trkpt><trkpt lat="45.6206239" lon="9.432496"><ele>211.8</ele><time>2026-04-24T10:07:20.99Z</time></trkpt><trkpt lat="45.6206057" lon="9.4325889"><ele>212.0</ele><time>2026-04-24T10:07:21.99Z</time></trkpt><trkpt lat="45.6205762" lon="9.4327619"><ele>212.0</ele><time>2026-04-24T10:07:23.991Z</time></trkpt><trkpt lat="45.6205519" lon="9.4329285"><ele>212.0</ele><time>2026-04-24T10:07:25.99Z</time></trkpt><trkpt lat="45.620525" lon="9.4330982"><ele>212.0</ele><time>2026-04-24T10:07:27.99Z</time></trkpt><trkpt lat="45.6204879" lon="9.4332745"><ele>212.0</ele><time>2026-04-24T10:07:29.99Z</time></trkpt><trkpt lat="45.620467" lon="9.4333596"><ele>212.0</ele><time>2026-04-24T10:07:30.99Z</time></trkpt><trkpt lat="45.6204469" lon="9.4334467"><ele>212.0</ele><time>2026-04-24T10:07:31.99Z</time></trkpt><trkpt lat="45.6204121" lon="9.4336233"><ele>212.0</ele><time>2026-04-24T10:07:33.99Z</time></trkpt><trkpt lat="45.6203872" lon="9.4337972"><ele>212.0</ele><time>2026-04-24T10:07:35.99Z</time></trkpt><trkpt lat="45.6203735" lon="9.4338938"><ele>212.0</ele><time>2026-04-24T10:07:36.991Z</time></trkpt><trkpt lat="45.6203424" lon="9.4340619"><ele>212.0</ele><time>2026-04-24T10:07:38.99Z</time></trkpt><trkpt lat="45.6203208" lon="9.4342327"><ele>211.6</ele><time>2026-04-24T10:07:40.99Z</time></trkpt><trkpt lat="45.6203068" lon="9.4343313"><ele>211.2</ele><time>2026-04-24T10:07:41.99Z</time></trkpt><trkpt lat="45.6202814" lon="9.4344956"><ele>210.8</ele><time>2026-04-24T10:07:43.991Z</time></trkpt><trkpt lat="45.6202802" lon="9.4346566"><ele>210.4</ele><time>2026-04-24T10:07:45.991Z</time></trkpt><trkpt lat="45.6203452" lon="9.434807"><ele>210.0</ele><time>2026-04-24T10:07:47.99Z</time></trkpt><trkpt lat="45.6204363" lon="9.4348926"><ele>210.57142857142858</ele><time>2026-04-24T10:07:49.99Z</time></trkpt><trkpt lat="45.6205521" lon="9.4349415"><ele>211.14285714285714</ele><time>2026-04-24T10:07:51.99Z</time></trkpt><trkpt lat="45.6206171" lon="9.4349592"><ele>211.71428571428572</ele><time>2026-04-24T10:07:52.99Z</time></trkpt><trkpt lat="45.6206789" lon="9.4349822"><ele>212.28571428571428</ele><time>2026-04-24T10:07:53.99Z</time></trkpt><trkpt lat="45.6207414" lon="9.4350028"><ele>212.85714285714286</ele><time>2026-04-24T10:07:54.99Z</time></trkpt><trkpt lat="45.6208054" lon="9.4350275"><ele>213.42857142857144</ele><time>2026-04-24T10:07:55.99Z</time></trkpt><trkpt lat="45.6208678" lon="9.4350475"><ele>214.0</ele><time>2026-04-24T10:07:56.99Z</time></trkpt><trkpt lat="45.6209857" lon="9.4350811"><ele>214.0</ele><time>2026-04-24T10:07:58.99Z</time></trkpt><trkpt lat="45.621101" lon="9.4351239"><ele>214.0</ele><time>2026-04-24T10:08:00.99Z</time></trkpt><trkpt lat="45.6212121" lon="9.4351593"><ele>214.0</ele><time>2026-04-24T10:08:02.99Z</time></trkpt><trkpt lat="45.6213221" lon="9.4351983"><ele>214.0</ele><time>2026-04-24T10:08:04.99Z</time></trkpt><trkpt lat="45.6214259" lon="9.4352334"><ele>213.39999999999998</ele><time>2026-04-24T10:08:06.991Z</time></trkpt><trkpt lat="45.6215366" lon="9.435277"><ele>212.79999999999998</ele><time>2026-04-24T10:08:08.99Z</time></trkpt><trkpt lat="45.6216529" lon="9.4353174"><ele>212.2</ele><time>2026-04-24T10:08:10.99Z</time></trkpt><trkpt lat="45.6217478" lon="9.4353441"><ele>211.60000000000002</ele><time>2026-04-24T10:08:12.99Z</time></trkpt><trkpt lat="45.6218499" lon="9.4353883"><ele>211.0</ele><time>2026-04-24T10:08:14.99Z</time></trkpt><trkpt lat="45.6219434" lon="9.435437"><ele>211.60000000000002</ele><time>2026-04-24T10:08:16.99Z</time></trkpt><trkpt lat="45.6220145" lon="9.4354777"><ele>212.2</ele><time>2026-04-24T10:08:18.99Z</time></trkpt><trkpt lat="45.6220581" lon="9.4355756"><ele>212.79999999999998</ele><time>2026-04-24T10:08:20.99Z</time></trkpt><trkpt lat="45.6220504" lon="9.4356891"><ele>213.39999999999998</ele><time>2026-04-24T10:08:22.99Z</time></trkpt><trkpt lat="45.6220318" lon="9.4358359"><ele>214.0</ele><time>2026-04-24T10:08:24.99Z</time></trkpt><trkpt lat="45.6220069" lon="9.4359911"><ele>213.39999999999998</ele><time>2026-04-24T10:08:26.991Z</time></trkpt><trkpt lat="45.6219714" lon="9.4361572"><ele>212.79999999999998</ele><time>2026-04-24T10:08:28.99Z</time></trkpt><trkpt lat="45.6219504" lon="9.4363248"><ele>212.2</ele><time>2026-04-24T10:08:30.991Z</time></trkpt><trkpt lat="45.6219332" lon="9.4364193"><ele>211.60000000000002</ele><time>2026-04-24T10:08:31.99Z</time></trkpt><trkpt lat="45.6219007" lon="9.4365904"><ele>211.0</ele><time>2026-04-24T10:08:33.99Z</time></trkpt><trkpt lat="45.6218728" lon="9.4367612"><ele>210.99999999999997</ele><time>2026-04-24T10:08:35.99Z</time></trkpt><trkpt lat="45.621862" lon="9.4368504"><ele>211.0</ele><time>2026-04-24T10:08:36.991Z</time></trkpt><trkpt lat="45.6218356" lon="9.4370198"><ele>211.0</ele><time>2026-04-24T10:08:38.99Z</time></trkpt><trkpt lat="45.6218168" lon="9.4371066"><ele>211.0</ele><time>2026-04-24T10:08:39.991Z</time></trkpt><trkpt lat="45.6217863" lon="9.4372681"><ele>210.99999999999997</ele><time>2026-04-24T10:08:41.99Z</time></trkpt><trkpt lat="45.6217744" lon="9.4373634"><ele>211.0</ele><time>2026-04-24T10:08:42.99Z</time></trkpt><trkpt lat="45.6217601" lon="9.437513"><ele>211.0</ele><time>2026-04-24T10:08:44.99Z</time></trkpt><trkpt lat="45.6217422" lon="9.4376079"><ele>211.0</ele><time>2026-04-24T10:08:45.99Z</time></trkpt><trkpt lat="45.6217219" lon="9.4376972"><ele>211.0</ele><time>2026-04-24T10:08:46.99Z</time></trkpt><trkpt lat="45.6216952" lon="9.4378452"><ele>211.0</ele><time>2026-04-24T10:08:48.99Z</time></trkpt><trkpt lat="45.6216712" lon="9.4380077"><ele>211.0</ele><time>2026-04-24T10:08:50.99Z</time></trkpt><trkpt lat="45.6216486" lon="9.4381583"><ele>211.20000000000002</ele><time>2026-04-24T10:08:52.99Z</time></trkpt><trkpt lat="45.62163" lon="9.4382957"><ele>211.4</ele><time>2026-04-24T10:08:54.99Z</time></trkpt><trkpt lat="45.6216341" lon="9.4384338"><ele>211.6</ele><time>2026-04-24T10:08:56.99Z</time></trkpt><trkpt lat="45.6216745" lon="9.4385262"><ele>211.8</ele><time>2026-04-24T10:08:58.991Z</time></trkpt><trkpt lat="45.621668" lon="9.4386581"><ele>212.0</ele><time>2026-04-24T10:09:00.99Z</time></trkpt><trkpt lat="45.6216307" lon="9.4387999"><ele>212.0</ele><time>2026-04-24T10:09:02.99Z</time></trkpt><trkpt lat="45.6216044" lon="9.4389511"><ele>212.0</ele><time>2026-04-24T10:09:04.99Z</time></trkpt><trkpt lat="45.6215794" lon="9.4391171"><ele>212.0</ele><time>2026-04-24T10:09:06.99Z</time></trkpt><trkpt lat="45.6215457" lon="9.4392829"><ele>212.0</ele><time>2026-04-24T10:09:08.991Z</time></trkpt><trkpt lat="45.6215214" lon="9.4394391"><ele>212.0</ele><time>2026-04-24T10:09:10.991Z</time></trkpt><trkpt lat="45.6215039" lon="9.4395256"><ele>212.0</ele><time>2026-04-24T10:09:11.99Z</time></trkpt><trkpt lat="45.6214786" lon="9.4396909"><ele>212.0</ele><time>2026-04-24T10:09:13.99Z</time></trkpt><trkpt lat="45.6214379" lon="9.4398178"><ele>212.0</ele><time>2026-04-24T10:09:15.991Z</time></trkpt><trkpt lat="45.6213833" lon="9.439932"><ele>212.0</ele><time>2026-04-24T10:09:18.99Z</time></trkpt><trkpt lat="45.6213411" lon="9.4400587"><ele>212.0</ele><time>2026-04-24T10:09:20.991Z</time></trkpt><trkpt lat="45.6213507" lon="9.4401952"><ele>212.0</ele><time>2026-04-24T10:09:22.99Z</time></trkpt><trkpt lat="45.6214514" lon="9.4402384"><ele>212.0</ele><time>2026-04-24T10:09:24.991Z</time></trkpt><trkpt lat="45.6215628" lon="9.4402154"><ele>212.0</ele><time>2026-04-24T10:09:26.99Z</time></trkpt><trkpt lat="45.6216826" lon="9.4402282"><ele>212.0</ele><time>2026-04-24T10:09:28.991Z</time></trkpt><trkpt lat="45.6217465" lon="9.4402393"><ele>212.0</ele><time>2026-04-24T10:09:29.99Z</time></trkpt><trkpt lat="45.6218633" lon="9.4402834"><ele>212.0</ele><time>2026-04-24T10:09:31.991Z</time></trkpt><trkpt lat="45.6219834" lon="9.440316"><ele>212.0</ele><time>2026-04-24T10:09:33.99Z</time></trkpt><trkpt lat="45.622107" lon="9.4403574"><ele>212.0</ele><time>2026-04-24T10:09:35.99Z</time></trkpt><trkpt lat="45.6222207" lon="9.4403985"><ele>212.00000000000003</ele><time>2026-04-24T10:09:37.99Z</time></trkpt><trkpt lat="45.6222825" lon="9.4404178"><ele>212.0</ele><time>2026-04-24T10:09:38.99Z</time></trkpt><trkpt lat="45.6223484" lon="9.4404398"><ele>212.0</ele><time>2026-04-24T10:09:39.99Z</time></trkpt><trkpt lat="45.6224694" lon="9.440469"><ele>212.0</ele><time>2026-04-24T10:09:41.991Z</time></trkpt><trkpt lat="45.6225778" lon="9.4405073"><ele>212.00000000000003</ele><time>2026-04-24T10:09:43.99Z</time></trkpt><trkpt lat="45.6226388" lon="9.4405436"><ele>212.0</ele><time>2026-04-24T10:09:44.991Z</time></trkpt><trkpt lat="45.6227045" lon="9.4405537"><ele>212.0</ele><time>2026-04-24T10:09:45.99Z</time></trkpt><trkpt lat="45.6228318" lon="9.4405998"><ele>212.0</ele><time>2026-04-24T10:09:47.99Z</time></trkpt><trkpt lat="45.6228999" lon="9.4406167"><ele>212.0</ele><time>2026-04-24T10:09:48.99Z</time></trkpt><trkpt lat="45.6230335" lon="9.4406521"><ele>212.0</ele><time>2026-04-24T10:09:50.991Z</time></trkpt><trkpt lat="45.6231561" lon="9.4406924"><ele>212.00000000000003</ele><time>2026-04-24T10:09:52.99Z</time></trkpt><trkpt lat="45.62322" lon="9.4407092"><ele>212.0</ele><time>2026-04-24T10:09:53.99Z</time></trkpt><trkpt lat="45.6233416" lon="9.4407257"><ele>212.0</ele><time>2026-04-24T10:09:55.991Z</time></trkpt><trkpt lat="45.6234027" lon="9.4407558"><ele>212.0</ele><time>2026-04-24T10:09:56.99Z</time></trkpt><trkpt lat="45.6234619" lon="9.4407874"><ele>212.00000000000003</ele><time>2026-04-24T10:09:57.99Z</time></trkpt><trkpt lat="45.623583" lon="9.4408214"><ele>212.0</ele><time>2026-04-24T10:09:59.99Z</time></trkpt><trkpt lat="45.6237044" lon="9.4408455"><ele>212.39999999999998</ele><time>2026-04-24T10:10:01.99Z</time></trkpt><trkpt lat="45.6238274" lon="9.4408732"><ele>212.79999999999998</ele><time>2026-04-24T10:10:03.99Z</time></trkpt><trkpt lat="45.6239418" lon="9.4409072"><ele>213.2</ele><time>2026-04-24T10:10:05.99Z</time></trkpt><trkpt lat="45.6240045" lon="9.4409182"><ele>213.6</ele><time>2026-04-24T10:10:06.991Z</time></trkpt><trkpt lat="45.624116" lon="9.440948"><ele>214.0</ele><time>2026-04-24T10:10:08.99Z</time></trkpt><trkpt lat="45.6242378" lon="9.4409794"><ele>213.99999999999997</ele><time>2026-04-24T10:10:10.991Z</time></trkpt><trkpt lat="45.624348" lon="9.4410183"><ele>214.0</ele><time>2026-04-24T10:10:12.99Z</time></trkpt><trkpt lat="45.6244097" lon="9.4410519"><ele>214.0</ele><time>2026-04-24T10:10:13.991Z</time></trkpt><trkpt lat="45.6244733" lon="9.4411002"><ele>214.0</ele><time>2026-04-24T10:10:14.991Z</time></trkpt><trkpt lat="45.6245297" lon="9.4411454"><ele>213.99999999999997</ele><time>2026-04-24T10:10:15.99Z</time></trkpt><trkpt lat="45.6245847" lon="9.4411973"><ele>214.0</ele><time>2026-04-24T10:10:16.99Z</time></trkpt><trkpt lat="45.624684" lon="9.4413101"><ele>214.39999999999998</ele><time>2026-04-24T10:10:18.99Z</time></trkpt><trkpt lat="45.6247809" lon="9.4414417"><ele>214.79999999999998</ele><time>2026-04-24T10:10:20.99Z</time></trkpt><trkpt lat="45.6248354" lon="9.4414927"><ele>215.20000000000002</ele><time>2026-04-24T10:10:21.991Z</time></trkpt><trkpt lat="45.6248977" lon="9.4415382"><ele>215.60000000000002</ele><time>2026-04-24T10:10:22.99Z</time></trkpt><trkpt lat="45.6250065" lon="9.4416046"><ele>216.0</ele><time>2026-04-24T10:10:24.99Z</time></trkpt><trkpt lat="45.6250822" lon="9.4416223"><ele>216.0</ele><time>2026-04-24T10:10:25.99Z</time></trkpt><trkpt lat="45.6251535" lon="9.4416457"><ele>216.0</ele><time>2026-04-24T10:10:26.991Z</time></trkpt><trkpt lat="45.6252209" lon="9.4416597"><ele>216.0</ele><time>2026-04-24T10:10:27.99Z</time></trkpt><trkpt lat="45.6252861" lon="9.4416754"><ele>216.0</ele><time>2026-04-24T10:10:28.99Z</time></trkpt><trkpt lat="45.6253819" lon="9.4417823"><ele>216.0</ele><time>2026-04-24T10:10:30.991Z</time></trkpt><trkpt lat="45.6254008" lon="9.4418701"><ele>216.0</ele><time>2026-04-24T10:10:31.99Z</time></trkpt><trkpt lat="45.6253722" lon="9.4420226"><ele>216.25</ele><time>2026-04-24T10:10:33.991Z</time></trkpt><trkpt lat="45.6253367" lon="9.4421745"><ele>216.5</ele><time>2026-04-24T10:10:35.99Z</time></trkpt><trkpt lat="45.6253111" lon="9.4423395"><ele>216.75</ele><time>2026-04-24T10:10:37.991Z</time></trkpt><trkpt lat="45.6252803" lon="9.4424937"><ele>217.0</ele><time>2026-04-24T10:10:39.99Z</time></trkpt><trkpt lat="45.6252572" lon="9.4426742"><ele>216.83333333333331</ele><time>2026-04-24T10:10:41.99Z</time></trkpt><trkpt lat="45.6252385" lon="9.4427658"><ele>216.66666666666666</ele><time>2026-04-24T10:10:42.99Z</time></trkpt><trkpt lat="45.625225" lon="9.4428582"><ele>216.5</ele><time>2026-04-24T10:10:43.99Z</time></trkpt><trkpt lat="45.6252016" lon="9.4430281"><ele>216.33333333333331</ele><time>2026-04-24T10:10:45.99Z</time></trkpt><trkpt lat="45.6251871" lon="9.4431231"><ele>216.16666666666666</ele><time>2026-04-24T10:10:46.99Z</time></trkpt><trkpt lat="45.6251598" lon="9.4432947"><ele>216.0</ele><time>2026-04-24T10:10:48.99Z</time></trkpt><trkpt lat="45.6252188" lon="9.4434289"><ele>216.4</ele><time>2026-04-24T10:10:50.991Z</time></trkpt><trkpt lat="45.6253214" lon="9.4434979"><ele>216.8</ele><time>2026-04-24T10:10:52.991Z</time></trkpt><trkpt lat="45.6254321" lon="9.4435387"><ele>217.20000000000002</ele><time>2026-04-24T10:10:54.99Z</time></trkpt><trkpt lat="45.6254961" lon="9.4435615"><ele>217.60000000000002</ele><time>2026-04-24T10:10:55.99Z</time></trkpt><trkpt lat="45.625617" lon="9.4436017"><ele>218.0</ele><time>2026-04-24T10:10:57.991Z</time></trkpt><trkpt lat="45.6257364" lon="9.443648"><ele>218.00000000000003</ele><time>2026-04-24T10:10:59.99Z</time></trkpt><trkpt lat="45.6258526" lon="9.4436911"><ele>218.0</ele><time>2026-04-24T10:11:01.99Z</time></trkpt><trkpt lat="45.6259198" lon="9.4437178"><ele>218.0</ele><time>2026-04-24T10:11:02.99Z</time></trkpt><trkpt lat="45.626021" lon="9.4437678"><ele>218.0</ele><time>2026-04-24T10:11:04.991Z</time></trkpt><trkpt lat="45.6260926" lon="9.4437816"><ele>218.00000000000003</ele><time>2026-04-24T10:11:05.99Z</time></trkpt><trkpt lat="45.6261571" lon="9.4437942"><ele>218.0</ele><time>2026-04-24T10:11:06.99Z</time></trkpt><trkpt lat="45.6262591" lon="9.4438274"><ele>218.0</ele><time>2026-04-24T10:11:08.99Z</time></trkpt><trkpt lat="45.6263589" lon="9.4438545"><ele>218.0</ele><time>2026-04-24T10:11:10.99Z</time></trkpt><trkpt lat="45.6264395" lon="9.4439336"><ele>218.0</ele><time>2026-04-24T10:11:12.99Z</time></trkpt><trkpt lat="45.6264358" lon="9.4440747"><ele>218.0</ele><time>2026-04-24T10:11:14.991Z</time></trkpt><trkpt lat="45.6264056" lon="9.4442264"><ele>218.0</ele><time>2026-04-24T10:11:16.99Z</time></trkpt><trkpt lat="45.6263784" lon="9.4443862"><ele>218.0</ele><time>2026-04-24T10:11:18.99Z</time></trkpt><trkpt lat="45.6263894" lon="9.4445765"><ele>218.0</ele><time>2026-04-24T10:11:20.99Z</time></trkpt><trkpt lat="45.6263497" lon="9.4447549"><ele>218.0</ele><time>2026-04-24T10:11:22.99Z</time></trkpt><trkpt lat="45.626331" lon="9.4449252"><ele>218.0</ele><time>2026-04-24T10:11:24.99Z</time></trkpt><trkpt lat="45.6263159" lon="9.4450223"><ele>218.00000000000003</ele><time>2026-04-24T10:11:25.99Z</time></trkpt><trkpt lat="45.6263041" lon="9.4451189"><ele>218.0</ele><time>2026-04-24T10:11:26.991Z</time></trkpt><trkpt lat="45.62629" lon="9.4452937"><ele>218.0</ele><time>2026-04-24T10:11:28.99Z</time></trkpt><trkpt lat="45.6262805" lon="9.4453852"><ele>218.0</ele><time>2026-04-24T10:11:29.99Z</time></trkpt><trkpt lat="45.6262262" lon="9.4455029"><ele>218.00000000000003</ele><time>2026-04-24T10:11:31.99Z</time></trkpt><trkpt lat="45.6261398" lon="9.4455377"><ele>218.0</ele><time>2026-04-24T10:11:33.99Z</time></trkpt><trkpt lat="45.6260346" lon="9.4455136"><ele>217.75</ele><time>2026-04-24T10:11:35.99Z</time></trkpt><trkpt lat="45.6259271" lon="9.4454963"><ele>217.5</ele><time>2026-04-24T10:11:37.99Z</time></trkpt><trkpt lat="45.625815" lon="9.4454737"><ele>217.25</ele><time>2026-04-24T10:11:39.99Z</time></trkpt><trkpt lat="45.6257059" lon="9.4454475"><ele>217.0</ele><time>2026-04-24T10:11:41.99Z</time></trkpt><trkpt lat="45.6255865" lon="9.4454174"><ele>217.0</ele><time>2026-04-24T10:11:43.991Z</time></trkpt><trkpt lat="45.6254847" lon="9.4454564"><ele>217.0</ele><time>2026-04-24T10:11:45.99Z</time></trkpt><trkpt lat="45.6254427" lon="9.4455776"><ele>217.0</ele><time>2026-04-24T10:11:47.991Z</time></trkpt><trkpt lat="45.6254225" lon="9.4457216"><ele>217.0</ele><time>2026-04-24T10:11:49.99Z</time></trkpt><trkpt lat="45.6254077" lon="9.4458734"><ele>217.0</ele><time>2026-04-24T10:11:51.99Z</time></trkpt><trkpt lat="45.6253816" lon="9.4461096"><ele>216.75</ele><time>2026-04-24T10:11:54.99Z</time></trkpt><trkpt lat="45.6253622" lon="9.4462689"><ele>216.5</ele><time>2026-04-24T10:11:56.99Z</time></trkpt><trkpt lat="45.6253505" lon="9.4464231"><ele>216.25</ele><time>2026-04-24T10:11:58.99Z</time></trkpt><trkpt lat="45.6253297" lon="9.4465767"><ele>216.0</ele><time>2026-04-24T10:12:00.99Z</time></trkpt><trkpt lat="45.6253177" lon="9.4467482"><ele>215.8</ele><time>2026-04-24T10:12:02.99Z</time></trkpt><trkpt lat="45.6253142" lon="9.4469083"><ele>215.60000000000002</ele><time>2026-04-24T10:12:04.991Z</time></trkpt><trkpt lat="45.6253029" lon="9.4470508"><ele>215.4</ele><time>2026-04-24T10:12:06.991Z</time></trkpt><trkpt lat="45.6252962" lon="9.447167"><ele>215.2</ele><time>2026-04-24T10:12:08.991Z</time></trkpt><trkpt lat="45.6252929" lon="9.4472934"><ele>215.0</ele><time>2026-04-24T10:12:10.991Z</time></trkpt><trkpt lat="45.6252915" lon="9.4474362"><ele>215.0</ele><time>2026-04-24T10:12:12.99Z</time></trkpt><trkpt lat="45.6252692" lon="9.4475789"><ele>215.0</ele><time>2026-04-24T10:12:14.99Z</time></trkpt><trkpt lat="45.6252573" lon="9.4477189"><ele>215.0</ele><time>2026-04-24T10:12:16.991Z</time></trkpt><trkpt lat="45.6252428" lon="9.4478621"><ele>215.0</ele><time>2026-04-24T10:12:18.99Z</time></trkpt><trkpt lat="45.6252356" lon="9.4480054"><ele>215.0</ele><time>2026-04-24T10:12:20.99Z</time></trkpt><trkpt lat="45.6252251" lon="9.4481446"><ele>215.16666666666669</ele><time>2026-04-24T10:12:22.99Z</time></trkpt><trkpt lat="45.6252097" lon="9.4482734"><ele>215.33333333333334</ele><time>2026-04-24T10:12:24.99Z</time></trkpt><trkpt lat="45.6252009" lon="9.4484045"><ele>215.5</ele><time>2026-04-24T10:12:26.991Z</time></trkpt><trkpt lat="45.6251899" lon="9.4485291"><ele>215.66666666666669</ele><time>2026-04-24T10:12:28.99Z</time></trkpt><trkpt lat="45.6251717" lon="9.4486431"><ele>215.83333333333334</ele><time>2026-04-24T10:12:30.991Z</time></trkpt><trkpt lat="45.625149" lon="9.4487709"><ele>216.0</ele><time>2026-04-24T10:12:32.99Z</time></trkpt><trkpt lat="45.6251308" lon="9.4489268"><ele>216.0</ele><time>2026-04-24T10:12:34.99Z</time></trkpt><trkpt lat="45.6251146" lon="9.4490846"><ele>216.00000000000003</ele><time>2026-04-24T10:12:36.991Z</time></trkpt><trkpt lat="45.625108" lon="9.4492418"><ele>216.00000000000003</ele><time>2026-04-24T10:12:38.991Z</time></trkpt><trkpt lat="45.6251031" lon="9.4493925"><ele>216.0</ele><time>2026-04-24T10:12:40.99Z</time></trkpt><trkpt lat="45.6251008" lon="9.449556"><ele>216.0</ele><time>2026-04-24T10:12:42.99Z</time></trkpt><trkpt lat="45.6250808" lon="9.4497043"><ele>215.5</ele><time>2026-04-24T10:12:44.99Z</time></trkpt><trkpt lat="45.6250473" lon="9.4498526"><ele>215.0</ele><time>2026-04-24T10:12:46.99Z</time></trkpt><trkpt lat="45.6250194" lon="9.4500166"><ele>214.5</ele><time>2026-04-24T10:12:48.991Z</time></trkpt><trkpt lat="45.625027" lon="9.4501757"><ele>214.0</ele><time>2026-04-24T10:12:50.99Z</time></trkpt><trkpt lat="45.6250721" lon="9.4503231"><ele>213.99999999999997</ele><time>2026-04-24T10:12:52.991Z</time></trkpt><trkpt lat="45.6250766" lon="9.4504501"><ele>214.0</ele><time>2026-04-24T10:12:54.99Z</time></trkpt><trkpt lat="45.6250919" lon="9.4505539"><ele>214.0</ele><time>2026-04-24T10:12:56.99Z</time></trkpt><trkpt lat="45.625164" lon="9.4506054"><ele>214.0</ele><time>2026-04-24T10:12:59.99Z</time></trkpt><trkpt lat="45.6252463" lon="9.450553"><ele>213.99999999999997</ele><time>2026-04-24T10:13:03.991Z</time></trkpt><trkpt lat="45.6253366" lon="9.4505005"><ele>214.0</ele><time>2026-04-24T10:13:06.99Z</time></trkpt><trkpt lat="45.625443" lon="9.4504707"><ele>213.99999999999997</ele><time>2026-04-24T10:13:07.99Z</time></trkpt><trkpt lat="45.6255323" lon="9.4504411"><ele>214.0</ele><time>2026-04-24T10:13:09.99Z</time></trkpt><trkpt lat="45.6256063" lon="9.450358"><ele>214.0</ele><time>2026-04-24T10:13:12.991Z</time></trkpt><trkpt lat="45.6256698" lon="9.450323"><ele>214.0</ele><time>2026-04-24T10:13:14.991Z</time></trkpt><trkpt lat="45.6257629" lon="9.4502798"><ele>213.99999999999997</ele><time>2026-04-24T10:13:16.99Z</time></trkpt><trkpt lat="45.6258517" lon="9.4502635"><ele>214.0</ele><time>2026-04-24T10:13:18.991Z</time></trkpt><trkpt lat="45.6259421" lon="9.4502623"><ele>214.0</ele><time>2026-04-24T10:13:20.99Z</time></trkpt><trkpt lat="45.6260095" lon="9.4502418"><ele>213.99999999999997</ele><time>2026-04-24T10:13:21.99Z</time></trkpt><trkpt lat="45.6261031" lon="9.4502587"><ele>213.99999999999997</ele><time>2026-04-24T10:13:23.99Z</time></trkpt><trkpt lat="45.6262014" lon="9.4503185"><ele>214.0</ele><time>2026-04-24T10:13:25.99Z</time></trkpt><trkpt lat="45.62629" lon="9.4503438"><ele>214.0</ele><time>2026-04-24T10:13:27.99Z</time></trkpt><trkpt lat="45.6263813" lon="9.4503756"><ele>214.16666666666666</ele><time>2026-04-24T10:13:29.99Z</time></trkpt><trkpt lat="45.6264753" lon="9.450406"><ele>214.33333333333331</ele><time>2026-04-24T10:13:31.99Z</time></trkpt><trkpt lat="45.6265716" lon="9.4504404"><ele>214.5</ele><time>2026-04-24T10:13:33.99Z</time></trkpt><trkpt lat="45.6266476" lon="9.4504691"><ele>214.66666666666669</ele><time>2026-04-24T10:13:35.99Z</time></trkpt><trkpt lat="45.6267173" lon="9.4505011"><ele>214.83333333333334</ele><time>2026-04-24T10:13:37.991Z</time></trkpt><trkpt lat="45.6268091" lon="9.4505309"><ele>215.0</ele><time>2026-04-24T10:13:40.99Z</time></trkpt><trkpt lat="45.6268934" lon="9.4505814"><ele>215.6</ele><time>2026-04-24T10:13:42.99Z</time></trkpt><trkpt lat="45.6269995" lon="9.4506238"><ele>216.2</ele><time>2026-04-24T10:13:44.99Z</time></trkpt><trkpt lat="45.6270888" lon="9.4506638"><ele>216.8</ele><time>2026-04-24T10:13:46.99Z</time></trkpt><trkpt lat="45.6271869" lon="9.450709"><ele>217.4</ele><time>2026-04-24T10:13:48.991Z</time></trkpt><trkpt lat="45.6272838" lon="9.4507613"><ele>218.0</ele><time>2026-04-24T10:13:50.99Z</time></trkpt><trkpt lat="45.6273768" lon="9.4508104"><ele>218.0</ele><time>2026-04-24T10:13:52.99Z</time></trkpt><trkpt lat="45.6274736" lon="9.4508472"><ele>218.0</ele><time>2026-04-24T10:13:54.99Z</time></trkpt><trkpt lat="45.6275703" lon="9.4508719"><ele>218.0</ele><time>2026-04-24T10:13:56.99Z</time></trkpt><trkpt lat="45.6276569" lon="9.4508929"><ele>218.0</ele><time>2026-04-24T10:13:58.99Z</time></trkpt><trkpt lat="45.6277598" lon="9.4509244"><ele>218.0</ele><time>2026-04-24T10:14:00.99Z</time></trkpt><trkpt lat="45.6278351" lon="9.4510341"><ele>218.33333333333334</ele><time>2026-04-24T10:14:02.99Z</time></trkpt><trkpt lat="45.627879" lon="9.4511269"><ele>218.66666666666669</ele><time>2026-04-24T10:14:04.99Z</time></trkpt><trkpt lat="45.627912" lon="9.4512112"><ele>219.0</ele><time>2026-04-24T10:14:05.991Z</time></trkpt><trkpt lat="45.6279348" lon="9.4512999"><ele>219.33333333333331</ele><time>2026-04-24T10:14:06.99Z</time></trkpt><trkpt lat="45.6279825" lon="9.4514204"><ele>219.66666666666666</ele><time>2026-04-24T10:14:08.991Z</time></trkpt><trkpt lat="45.6280685" lon="9.451473"><ele>220.0</ele><time>2026-04-24T10:14:10.99Z</time></trkpt><trkpt lat="45.628116" lon="9.4515365"><ele>219.99999999999997</ele><time>2026-04-24T10:14:12.99Z</time></trkpt><trkpt lat="45.628181" lon="9.4515453"><ele>220.0</ele><time>2026-04-24T10:14:16.991Z</time></trkpt><trkpt lat="45.628247" lon="9.451554"><ele>220.0</ele><time>2026-04-24T10:14:18.991Z</time></trkpt><trkpt lat="45.6283306" lon="9.4515584"><ele>220.0</ele><time>2026-04-24T10:14:21.991Z</time></trkpt><trkpt lat="45.6284179" lon="9.451561"><ele>219.99999999999997</ele><time>2026-04-24T10:14:24.99Z</time></trkpt><trkpt lat="45.6284912" lon="9.4515853"><ele>220.0</ele><time>2026-04-24T10:14:26.99Z</time></trkpt><trkpt lat="45.6287077" lon="9.451598"><ele>220.8</ele><time>2026-04-24T10:14:32.99Z</time></trkpt><trkpt lat="45.6287929" lon="9.4516173"><ele>221.6</ele><time>2026-04-24T10:14:34.99Z</time></trkpt><trkpt lat="45.628866" lon="9.4516318"><ele>222.39999999999998</ele><time>2026-04-24T10:14:36.991Z</time></trkpt><trkpt lat="45.6289475" lon="9.4516428"><ele>223.2</ele><time>2026-04-24T10:14:38.991Z</time></trkpt><trkpt lat="45.6290292" lon="9.4516676"><ele>224.0</ele><time>2026-04-24T10:14:40.99Z</time></trkpt><trkpt lat="45.6292387" lon="9.4516793"><ele>224.0</ele><time>2026-04-24T10:14:45.99Z</time></trkpt><trkpt lat="45.6293368" lon="9.451685"><ele>223.99999999999997</ele><time>2026-04-24T10:14:47.99Z</time></trkpt><trkpt lat="45.6294296" lon="9.451694"><ele>223.99999999999997</ele><time>2026-04-24T10:14:49.99Z</time></trkpt><trkpt lat="45.629516" lon="9.4517068"><ele>224.0</ele><time>2026-04-24T10:14:51.991Z</time></trkpt><trkpt lat="45.6296003" lon="9.4517175"><ele>224.0</ele><time>2026-04-24T10:14:53.99Z</time></trkpt><trkpt lat="45.6296864" lon="9.4517617"><ele>223.6</ele><time>2026-04-24T10:14:55.99Z</time></trkpt><trkpt lat="45.6297651" lon="9.4517959"><ele>223.2</ele><time>2026-04-24T10:14:57.99Z</time></trkpt><trkpt lat="45.6298668" lon="9.45184"><ele>222.79999999999998</ele><time>2026-04-24T10:14:59.99Z</time></trkpt><trkpt lat="45.6299685" lon="9.4518545"><ele>222.39999999999998</ele><time>2026-04-24T10:15:01.991Z</time></trkpt><trkpt lat="45.6300505" lon="9.4518701"><ele>222.0</ele><time>2026-04-24T10:15:03.99Z</time></trkpt><trkpt lat="45.6301365" lon="9.4519072"><ele>222.0</ele><time>2026-04-24T10:15:05.99Z</time></trkpt><trkpt lat="45.6302253" lon="9.4519473"><ele>222.0</ele><time>2026-04-24T10:15:07.991Z</time></trkpt><trkpt lat="45.6303158" lon="9.4519647"><ele>222.0</ele><time>2026-04-24T10:15:09.99Z</time></trkpt><trkpt lat="45.6303966" lon="9.4519643"><ele>222.0</ele><time>2026-04-24T10:15:11.99Z</time></trkpt><trkpt lat="45.63048" lon="9.4520813"><ele>222.0</ele><time>2026-04-24T10:15:13.991Z</time></trkpt><trkpt lat="45.6305001" lon="9.4521931"><ele>222.0</ele><time>2026-04-24T10:15:16.99Z</time></trkpt><trkpt lat="45.6305079" lon="9.4523246"><ele>222.0</ele><time>2026-04-24T10:15:18.991Z</time></trkpt><trkpt lat="45.6305052" lon="9.4524586"><ele>222.0</ele><time>2026-04-24T10:15:20.99Z</time></trkpt><trkpt lat="45.6305175" lon="9.4525664"><ele>222.0</ele><time>2026-04-24T10:15:21.991Z</time></trkpt><trkpt lat="45.6304945" lon="9.4527129"><ele>222.0</ele><time>2026-04-24T10:15:23.99Z</time></trkpt><trkpt lat="45.6304701" lon="9.4528076"><ele>222.0</ele><time>2026-04-24T10:15:24.99Z</time></trkpt><trkpt lat="45.6303991" lon="9.4529455"><ele>222.0</ele><time>2026-04-24T10:15:26.99Z</time></trkpt><trkpt lat="45.6303395" lon="9.4530564"><ele>222.0</ele><time>2026-04-24T10:15:28.99Z</time></trkpt><trkpt lat="45.6303542" lon="9.4531714"><ele>222.0</ele><time>2026-04-24T10:15:30.99Z</time></trkpt><trkpt lat="45.6303969" lon="9.4532646"><ele>222.0</ele><time>2026-04-24T10:15:32.991Z</time></trkpt><trkpt lat="45.6304305" lon="9.4533774"><ele>222.0</ele><time>2026-04-24T10:15:34.99Z</time></trkpt><trkpt lat="45.6304889" lon="9.4535093"><ele>222.0</ele><time>2026-04-24T10:15:36.991Z</time></trkpt><trkpt lat="45.6305619" lon="9.4535825"><ele>222.0</ele><time>2026-04-24T10:15:39.99Z</time></trkpt><trkpt lat="45.6306022" lon="9.4536662"><ele>222.0</ele><time>2026-04-24T10:15:41.99Z</time></trkpt><trkpt lat="45.6306117" lon="9.4537748"><ele>222.0</ele><time>2026-04-24T10:15:43.991Z</time></trkpt><trkpt lat="45.6306114" lon="9.4538704"><ele>222.0</ele><time>2026-04-24T10:15:45.99Z</time></trkpt><trkpt lat="45.6306052" lon="9.4539629"><ele>222.0</ele><time>2026-04-24T10:15:47.99Z</time></trkpt><trkpt lat="45.6305917" lon="9.4540682"><ele>222.0</ele><time>2026-04-24T10:15:50.99Z</time></trkpt><trkpt lat="45.6305635" lon="9.4541614"><ele>221.83333333333334</ele><time>2026-04-24T10:15:53.991Z</time></trkpt><trkpt lat="45.6305472" lon="9.4542528"><ele>221.66666666666669</ele><time>2026-04-24T10:15:55.991Z</time></trkpt><trkpt lat="45.6305514" lon="9.4543512"><ele>221.5</ele><time>2026-04-24T10:15:57.99Z</time></trkpt><trkpt lat="45.6305674" lon="9.4544508"><ele>221.33333333333334</ele><time>2026-04-24T10:15:59.99Z</time></trkpt><trkpt lat="45.6306157" lon="9.4545386"><ele>221.16666666666669</ele><time>2026-04-24T10:16:01.99Z</time></trkpt><trkpt lat="45.6306797" lon="9.454614"><ele>221.0</ele><time>2026-04-24T10:16:03.99Z</time></trkpt><trkpt lat="45.6307606" lon="9.4546518"><ele>221.2857142857143</ele><time>2026-04-24T10:16:05.991Z</time></trkpt><trkpt lat="45.630823" lon="9.4546853"><ele>221.57142857142858</ele><time>2026-04-24T10:16:07.99Z</time></trkpt><trkpt lat="45.6308875" lon="9.454718"><ele>221.85714285714286</ele><time>2026-04-24T10:16:09.99Z</time></trkpt><trkpt lat="45.6309462" lon="9.4547566"><ele>222.14285714285717</ele><time>2026-04-24T10:16:11.99Z</time></trkpt><trkpt lat="45.6310095" lon="9.4548373"><ele>222.42857142857142</ele><time>2026-04-24T10:16:13.991Z</time></trkpt><trkpt lat="45.631067" lon="9.4549103"><ele>222.71428571428572</ele><time>2026-04-24T10:16:15.99Z</time></trkpt><trkpt lat="45.6311421" lon="9.4549676"><ele>223.0</ele><time>2026-04-24T10:16:17.99Z</time></trkpt><trkpt lat="45.6312122" lon="9.4550407"><ele>223.0</ele><time>2026-04-24T10:16:19.991Z</time></trkpt><trkpt lat="45.6312914" lon="9.4551255"><ele>223.0</ele><time>2026-04-24T10:16:21.991Z</time></trkpt><trkpt lat="45.6313767" lon="9.4551878"><ele>223.0</ele><time>2026-04-24T10:16:23.99Z</time></trkpt><trkpt lat="45.6314701" lon="9.4552228"><ele>223.0</ele><time>2026-04-24T10:16:25.99Z</time></trkpt><trkpt lat="45.6316091" lon="9.4552228"><ele>223.0</ele><time>2026-04-24T10:16:28.991Z</time></trkpt><trkpt lat="45.6316699" lon="9.4552821"><ele>223.0</ele><time>2026-04-24T10:16:29.99Z</time></trkpt><trkpt lat="45.6317629" lon="9.4553469"><ele>223.0</ele><time>2026-04-24T10:16:31.99Z</time></trkpt><trkpt lat="45.6318424" lon="9.4554991"><ele>223.0</ele><time>2026-04-24T10:16:33.99Z</time></trkpt><trkpt lat="45.6318472" lon="9.4556203"><ele>223.0</ele><time>2026-04-24T10:16:35.991Z</time></trkpt><trkpt lat="45.6319379" lon="9.4556417"><ele>223.0</ele><time>2026-04-24T10:16:39.991Z</time></trkpt><trkpt lat="45.6320127" lon="9.455656"><ele>223.4</ele><time>2026-04-24T10:16:42.99Z</time></trkpt><trkpt lat="45.6320782" lon="9.4556852"><ele>223.8</ele><time>2026-04-24T10:16:44.99Z</time></trkpt><trkpt lat="45.6321848" lon="9.4557347"><ele>224.2</ele><time>2026-04-24T10:16:46.99Z</time></trkpt><trkpt lat="45.6322914" lon="9.4557759"><ele>224.6</ele><time>2026-04-24T10:16:48.991Z</time></trkpt><trkpt lat="45.6323971" lon="9.4558228"><ele>225.0</ele><time>2026-04-24T10:16:50.99Z</time></trkpt><trkpt lat="45.6325206" lon="9.4558761"><ele>225.0</ele><time>2026-04-24T10:16:52.991Z</time></trkpt><trkpt lat="45.6326219" lon="9.4559055"><ele>225.0</ele><time>2026-04-24T10:16:54.99Z</time></trkpt><trkpt lat="45.6327162" lon="9.4559254"><ele>225.0</ele><time>2026-04-24T10:16:56.99Z</time></trkpt><trkpt lat="45.6328048" lon="9.4559562"><ele>225.0</ele><time>2026-04-24T10:16:58.991Z</time></trkpt><trkpt lat="45.6328885" lon="9.4559994"><ele>225.0</ele><time>2026-04-24T10:17:00.99Z</time></trkpt><trkpt lat="45.6329752" lon="9.4560638"><ele>224.8</ele><time>2026-04-24T10:17:02.99Z</time></trkpt><trkpt lat="45.633069" lon="9.4561281"><ele>224.6</ele><time>2026-04-24T10:17:04.991Z</time></trkpt><trkpt lat="45.6331476" lon="9.456194"><ele>224.39999999999998</ele><time>2026-04-24T10:17:06.99Z</time></trkpt><trkpt lat="45.633227" lon="9.4562594"><ele>224.2</ele><time>2026-04-24T10:17:08.99Z</time></trkpt><trkpt lat="45.6333021" lon="9.4563287"><ele>224.0</ele><time>2026-04-24T10:17:10.99Z</time></trkpt><trkpt lat="45.6333721" lon="9.456395"><ele>224.39999999999998</ele><time>2026-04-24T10:17:12.99Z</time></trkpt><trkpt lat="45.6334447" lon="9.4564536"><ele>224.79999999999998</ele><time>2026-04-24T10:17:14.99Z</time></trkpt><trkpt lat="45.6335276" lon="9.4565202"><ele>225.20000000000002</ele><time>2026-04-24T10:17:16.99Z</time></trkpt><trkpt lat="45.6336053" lon="9.4565919"><ele>225.60000000000002</ele><time>2026-04-24T10:17:18.991Z</time></trkpt><trkpt lat="45.6336836" lon="9.4566604"><ele>226.0</ele><time>2026-04-24T10:17:20.99Z</time></trkpt><trkpt lat="45.6337646" lon="9.456723"><ele>226.4</ele><time>2026-04-24T10:17:22.99Z</time></trkpt><trkpt lat="45.6338446" lon="9.4567769"><ele>226.8</ele><time>2026-04-24T10:17:24.99Z</time></trkpt><trkpt lat="45.6339201" lon="9.4568328"><ele>227.20000000000002</ele><time>2026-04-24T10:17:26.99Z</time></trkpt><trkpt lat="45.6340244" lon="9.456895"><ele>227.60000000000002</ele><time>2026-04-24T10:17:28.99Z</time></trkpt><trkpt lat="45.6341074" lon="9.4569612"><ele>228.0</ele><time>2026-04-24T10:17:30.99Z</time></trkpt><trkpt lat="45.6341898" lon="9.4570188"><ele>228.0</ele><time>2026-04-24T10:17:32.99Z</time></trkpt><trkpt lat="45.6342728" lon="9.4570848"><ele>228.0</ele><time>2026-04-24T10:17:34.99Z</time></trkpt><trkpt lat="45.6343547" lon="9.4571459"><ele>228.0</ele><time>2026-04-24T10:17:36.99Z</time></trkpt><trkpt lat="45.6344206" lon="9.4572028"><ele>228.0</ele><time>2026-04-24T10:17:38.99Z</time></trkpt><trkpt lat="45.6344857" lon="9.4572599"><ele>228.0</ele><time>2026-04-24T10:17:40.99Z</time></trkpt><trkpt lat="45.6345547" lon="9.4572852"><ele>228.0</ele><time>2026-04-24T10:17:42.991Z</time></trkpt><trkpt lat="45.6346172" lon="9.4573091"><ele>228.2</ele><time>2026-04-24T10:17:44.99Z</time></trkpt><trkpt lat="45.6346756" lon="9.4573679"><ele>228.4</ele><time>2026-04-24T10:17:46.99Z</time></trkpt><trkpt lat="45.6347484" lon="9.4574364"><ele>228.59999999999997</ele><time>2026-04-24T10:17:48.99Z</time></trkpt><trkpt lat="45.634761" lon="9.4575944"><ele>228.79999999999998</ele><time>2026-04-24T10:17:52.99Z</time></trkpt><trkpt lat="45.6348258" lon="9.4577068"><ele>229.0</ele><time>2026-04-24T10:17:53.99Z</time></trkpt><trkpt lat="45.6346332" lon="9.4576684"><ele>229.0</ele><time>2026-04-24T10:17:55.99Z</time></trkpt><trkpt lat="45.6346046" lon="9.4577982"><ele>228.99999999999997</ele><time>2026-04-24T10:17:57.99Z</time></trkpt><trkpt lat="45.6345669" lon="9.4579485"><ele>228.99999999999997</ele><time>2026-04-24T10:17:59.991Z</time></trkpt><trkpt lat="45.6345288" lon="9.4580859"><ele>229.0</ele><time>2026-04-24T10:18:01.99Z</time></trkpt><trkpt lat="45.6344954" lon="9.4582474"><ele>229.0</ele><time>2026-04-24T10:18:03.99Z</time></trkpt><trkpt lat="45.6344536" lon="9.4583946"><ele>228.39999999999998</ele><time>2026-04-24T10:18:05.99Z</time></trkpt><trkpt lat="45.6344146" lon="9.4585455"><ele>227.79999999999998</ele><time>2026-04-24T10:18:07.991Z</time></trkpt><trkpt lat="45.6343999" lon="9.4586335"><ele>227.20000000000002</ele><time>2026-04-24T10:18:08.99Z</time></trkpt><trkpt lat="45.6343608" lon="9.458794"><ele>226.60000000000002</ele><time>2026-04-24T10:18:10.99Z</time></trkpt><trkpt lat="45.6343169" lon="9.4589519"><ele>226.0</ele><time>2026-04-24T10:18:12.99Z</time></trkpt><trkpt lat="45.6342744" lon="9.4591178"><ele>226.0</ele><time>2026-04-24T10:18:14.99Z</time></trkpt><trkpt lat="45.6342526" lon="9.4592059"><ele>226.00000000000003</ele><time>2026-04-24T10:18:15.991Z</time></trkpt><trkpt lat="45.6342136" lon="9.4593646"><ele>226.00000000000003</ele><time>2026-04-24T10:18:17.99Z</time></trkpt><trkpt lat="45.634188" lon="9.4594529"><ele>226.0</ele><time>2026-04-24T10:18:18.99Z</time></trkpt><trkpt lat="45.6341489" lon="9.4596242"><ele>226.0</ele><time>2026-04-24T10:18:20.991Z</time></trkpt><trkpt lat="45.6341022" lon="9.4598024"><ele>226.16666666666666</ele><time>2026-04-24T10:18:22.99Z</time></trkpt><trkpt lat="45.6340784" lon="9.4598925"><ele>226.33333333333331</ele><time>2026-04-24T10:18:23.991Z</time></trkpt><trkpt lat="45.6340295" lon="9.4600649"><ele>226.5</ele><time>2026-04-24T10:18:25.991Z</time></trkpt><trkpt lat="45.6340007" lon="9.4601613"><ele>226.66666666666669</ele><time>2026-04-24T10:18:26.99Z</time></trkpt><trkpt lat="45.6339782" lon="9.4602521"><ele>226.83333333333334</ele><time>2026-04-24T10:18:27.99Z</time></trkpt><trkpt lat="45.6339538" lon="9.4603362"><ele>227.0</ele><time>2026-04-24T10:18:28.991Z</time></trkpt><trkpt lat="45.6339302" lon="9.460421"><ele>227.00000000000003</ele><time>2026-04-24T10:18:29.99Z</time></trkpt><trkpt lat="45.633903" lon="9.4605048"><ele>227.0</ele><time>2026-04-24T10:18:30.99Z</time></trkpt><trkpt lat="45.6338786" lon="9.4605975"><ele>227.0</ele><time>2026-04-24T10:18:31.991Z</time></trkpt><trkpt lat="45.6338533" lon="9.4606828"><ele>227.0</ele><time>2026-04-24T10:18:32.99Z</time></trkpt><trkpt lat="45.6338163" lon="9.4608522"><ele>227.00000000000003</ele><time>2026-04-24T10:18:34.99Z</time></trkpt><trkpt lat="45.6337952" lon="9.4609404"><ele>227.0</ele><time>2026-04-24T10:18:35.991Z</time></trkpt><trkpt lat="45.6337734" lon="9.4610306"><ele>227.00000000000003</ele><time>2026-04-24T10:18:36.991Z</time></trkpt><trkpt lat="45.6337392" lon="9.4611128"><ele>227.0</ele><time>2026-04-24T10:18:37.991Z</time></trkpt><trkpt lat="45.6337012" lon="9.4612171"><ele>227.0</ele><time>2026-04-24T10:18:38.99Z</time></trkpt><trkpt lat="45.6336528" lon="9.4612843"><ele>227.0</ele><time>2026-04-24T10:18:39.99Z</time></trkpt><trkpt lat="45.6335944" lon="9.4613535"><ele>227.00000000000003</ele><time>2026-04-24T10:18:40.99Z</time></trkpt><trkpt lat="45.6335438" lon="9.4614205"><ele>227.0</ele><time>2026-04-24T10:18:41.99Z</time></trkpt><trkpt lat="45.6334816" lon="9.4615793"><ele>227.0</ele><time>2026-04-24T10:18:43.99Z</time></trkpt><trkpt lat="45.6334643" lon="9.4616709"><ele>227.00000000000003</ele><time>2026-04-24T10:18:44.99Z</time></trkpt><trkpt lat="45.6334581" lon="9.4617707"><ele>227.0</ele><time>2026-04-24T10:18:45.99Z</time></trkpt><trkpt lat="45.633459" lon="9.4618637"><ele>227.0</ele><time>2026-04-24T10:18:46.99Z</time></trkpt><trkpt lat="45.6334602" lon="9.4619597"><ele>227.00000000000003</ele><time>2026-04-24T10:18:47.99Z</time></trkpt><trkpt lat="45.6334562" lon="9.4620601"><ele>227.0</ele><time>2026-04-24T10:18:48.99Z</time></trkpt><trkpt lat="45.6334534" lon="9.4621541"><ele>227.0</ele><time>2026-04-24T10:18:49.991Z</time></trkpt><trkpt lat="45.633441" lon="9.462245"><ele>227.0</ele><time>2026-04-24T10:18:50.99Z</time></trkpt><trkpt lat="45.6334278" lon="9.4623349"><ele>227.00000000000003</ele><time>2026-04-24T10:18:51.99Z</time></trkpt><trkpt lat="45.6334039" lon="9.4624223"><ele>227.0</ele><time>2026-04-24T10:18:52.99Z</time></trkpt><trkpt lat="45.6333776" lon="9.462508"><ele>227.0</ele><time>2026-04-24T10:18:53.99Z</time></trkpt><trkpt lat="45.6333517" lon="9.4626004"><ele>227.00000000000003</ele><time>2026-04-24T10:18:54.99Z</time></trkpt><trkpt lat="45.633328" lon="9.4626916"><ele>227.0</ele><time>2026-04-24T10:18:55.99Z</time></trkpt><trkpt lat="45.6333078" lon="9.4627808"><ele>227.0</ele><time>2026-04-24T10:18:56.991Z</time></trkpt><trkpt lat="45.6332805" lon="9.4628734"><ele>227.2857142857143</ele><time>2026-04-24T10:18:57.991Z</time></trkpt><trkpt lat="45.6332578" lon="9.4629614"><ele>227.5714285714286</ele><time>2026-04-24T10:18:58.99Z</time></trkpt><trkpt lat="45.6332328" lon="9.4630515"><ele>227.85714285714286</ele><time>2026-04-24T10:18:59.991Z</time></trkpt><trkpt lat="45.6332071" lon="9.4631448"><ele>228.14285714285717</ele><time>2026-04-24T10:19:00.99Z</time></trkpt><trkpt lat="45.6331883" lon="9.4632332"><ele>228.42857142857144</ele><time>2026-04-24T10:19:01.99Z</time></trkpt><trkpt lat="45.6331699" lon="9.4633211"><ele>228.71428571428572</ele><time>2026-04-24T10:19:02.991Z</time></trkpt><trkpt lat="45.6331433" lon="9.4634092"><ele>229.0</ele><time>2026-04-24T10:19:03.991Z</time></trkpt><trkpt lat="45.6331025" lon="9.463576"><ele>228.99999999999997</ele><time>2026-04-24T10:19:05.99Z</time></trkpt><trkpt lat="45.6330761" lon="9.4636656"><ele>229.0</ele><time>2026-04-24T10:19:06.99Z</time></trkpt><trkpt lat="45.6330553" lon="9.4637546"><ele>229.0</ele><time>2026-04-24T10:19:07.99Z</time></trkpt><trkpt lat="45.6330137" lon="9.4639226"><ele>229.0</ele><time>2026-04-24T10:19:09.991Z</time></trkpt><trkpt lat="45.6329881" lon="9.4640079"><ele>228.99999999999997</ele><time>2026-04-24T10:19:10.99Z</time></trkpt><trkpt lat="45.6329688" lon="9.4641001"><ele>229.0</ele><time>2026-04-24T10:19:11.99Z</time></trkpt><trkpt lat="45.6329237" lon="9.4642598"><ele>228.99999999999997</ele><time>2026-04-24T10:19:13.99Z</time></trkpt><trkpt lat="45.6329031" lon="9.464351"><ele>229.0</ele><time>2026-04-24T10:19:14.99Z</time></trkpt><trkpt lat="45.6328799" lon="9.4644473"><ele>229.0</ele><time>2026-04-24T10:19:15.99Z</time></trkpt><trkpt lat="45.6328577" lon="9.4645383"><ele>229.0</ele><time>2026-04-24T10:19:16.99Z</time></trkpt><trkpt lat="45.6328126" lon="9.4647204"><ele>228.99999999999997</ele><time>2026-04-24T10:19:18.991Z</time></trkpt><trkpt lat="45.6327935" lon="9.4648067"><ele>229.0</ele><time>2026-04-24T10:19:19.99Z</time></trkpt><trkpt lat="45.6327709" lon="9.4648978"><ele>229.0</ele><time>2026-04-24T10:19:20.99Z</time></trkpt><trkpt lat="45.632745" lon="9.4649841"><ele>229.0</ele><time>2026-04-24T10:19:21.99Z</time></trkpt><trkpt lat="45.6327147" lon="9.4650676"><ele>229.0</ele><time>2026-04-24T10:19:22.99Z</time></trkpt><trkpt lat="45.6326902" lon="9.4651509"><ele>229.0</ele><time>2026-04-24T10:19:23.99Z</time></trkpt><trkpt lat="45.6326683" lon="9.4652471"><ele>229.0</ele><time>2026-04-24T10:19:24.991Z</time></trkpt><trkpt lat="45.6326441" lon="9.4653437"><ele>229.0</ele><time>2026-04-24T10:19:25.991Z</time></trkpt><trkpt lat="45.6326202" lon="9.4654405"><ele>229.0</ele><time>2026-04-24T10:19:26.991Z</time></trkpt><trkpt lat="45.6325991" lon="9.4655398"><ele>229.16666666666666</ele><time>2026-04-24T10:19:27.99Z</time></trkpt><trkpt lat="45.6325754" lon="9.4656282"><ele>229.33333333333331</ele><time>2026-04-24T10:19:28.99Z</time></trkpt><trkpt lat="45.6325566" lon="9.465725"><ele>229.5</ele><time>2026-04-24T10:19:29.99Z</time></trkpt><trkpt lat="45.6325319" lon="9.4658215"><ele>229.66666666666669</ele><time>2026-04-24T10:19:30.991Z</time></trkpt><trkpt lat="45.6325117" lon="9.465921"><ele>229.83333333333334</ele><time>2026-04-24T10:19:31.99Z</time></trkpt><trkpt lat="45.63249" lon="9.4660187"><ele>230.0</ele><time>2026-04-24T10:19:32.99Z</time></trkpt><trkpt lat="45.6324471" lon="9.4661993"><ele>229.71428571428567</ele><time>2026-04-24T10:19:34.991Z</time></trkpt><trkpt lat="45.6324251" lon="9.4662965"><ele>229.42857142857142</ele><time>2026-04-24T10:19:35.991Z</time></trkpt><trkpt lat="45.6323987" lon="9.466396"><ele>229.1428571428571</ele><time>2026-04-24T10:19:36.99Z</time></trkpt><trkpt lat="45.6323773" lon="9.4664935"><ele>228.85714285714283</ele><time>2026-04-24T10:19:37.991Z</time></trkpt><trkpt lat="45.6323537" lon="9.4665879"><ele>228.57142857142856</ele><time>2026-04-24T10:19:38.99Z</time></trkpt><trkpt lat="45.6323313" lon="9.4666875"><ele>228.28571428571428</ele><time>2026-04-24T10:19:39.991Z</time></trkpt><trkpt lat="45.6323017" lon="9.4667753"><ele>228.0</ele><time>2026-04-24T10:19:40.99Z</time></trkpt><trkpt lat="45.6322663" lon="9.4668866"><ele>228.0</ele><time>2026-04-24T10:19:41.99Z</time></trkpt><trkpt lat="45.6322534" lon="9.4669843"><ele>227.99999999999997</ele><time>2026-04-24T10:19:42.99Z</time></trkpt><trkpt lat="45.6322177" lon="9.4670876"><ele>228.0</ele><time>2026-04-24T10:19:43.99Z</time></trkpt><trkpt lat="45.6321927" lon="9.4671971"><ele>228.0</ele><time>2026-04-24T10:19:44.99Z</time></trkpt><trkpt lat="45.6321686" lon="9.4672978"><ele>227.99999999999997</ele><time>2026-04-24T10:19:45.99Z</time></trkpt><trkpt lat="45.632146" lon="9.4673936"><ele>228.0</ele><time>2026-04-24T10:19:46.99Z</time></trkpt><trkpt lat="45.6321207" lon="9.4674839"><ele>228.0</ele><time>2026-04-24T10:19:47.989Z</time></trkpt><trkpt lat="45.6320966" lon="9.4675722"><ele>227.83333333333334</ele><time>2026-04-24T10:19:48.99Z</time></trkpt><trkpt lat="45.6320571" lon="9.467751"><ele>227.66666666666669</ele><time>2026-04-24T10:19:50.99Z</time></trkpt><trkpt lat="45.6320323" lon="9.4678496"><ele>227.5</ele><time>2026-04-24T10:19:51.99Z</time></trkpt><trkpt lat="45.6319972" lon="9.4679526"><ele>227.33333333333334</ele><time>2026-04-24T10:19:52.99Z</time></trkpt><trkpt lat="45.6319738" lon="9.4680511"><ele>227.16666666666669</ele><time>2026-04-24T10:19:53.991Z</time></trkpt><trkpt lat="45.6319476" lon="9.4681408"><ele>227.0</ele><time>2026-04-24T10:19:54.99Z</time></trkpt><trkpt lat="45.6319251" lon="9.468236"><ele>227.0</ele><time>2026-04-24T10:19:55.99Z</time></trkpt><trkpt lat="45.6319093" lon="9.4683376"><ele>227.00000000000003</ele><time>2026-04-24T10:19:56.99Z</time></trkpt><trkpt lat="45.631889" lon="9.4684321"><ele>227.0</ele><time>2026-04-24T10:19:57.99Z</time></trkpt><trkpt lat="45.6318574" lon="9.4685322"><ele>227.0</ele><time>2026-04-24T10:19:58.991Z</time></trkpt><trkpt lat="45.6318303" lon="9.4686232"><ele>227.00000000000003</ele><time>2026-04-24T10:19:59.99Z</time></trkpt><trkpt lat="45.6318051" lon="9.4687278"><ele>227.0</ele><time>2026-04-24T10:20:00.99Z</time></trkpt><trkpt lat="45.63178" lon="9.4688282"><ele>227.0</ele><time>2026-04-24T10:20:01.99Z</time></trkpt><trkpt lat="45.6317509" lon="9.4689252"><ele>226.66666666666669</ele><time>2026-04-24T10:20:02.99Z</time></trkpt><trkpt lat="45.6317239" lon="9.4690361"><ele>226.33333333333334</ele><time>2026-04-24T10:20:03.991Z</time></trkpt><trkpt lat="45.6316956" lon="9.4691468"><ele>226.0</ele><time>2026-04-24T10:20:04.99Z</time></trkpt><trkpt lat="45.6316657" lon="9.4692538"><ele>225.66666666666669</ele><time>2026-04-24T10:20:05.99Z</time></trkpt><trkpt lat="45.6316349" lon="9.4693497"><ele>225.33333333333334</ele><time>2026-04-24T10:20:06.99Z</time></trkpt><trkpt lat="45.6315996" lon="9.4694398"><ele>225.0</ele><time>2026-04-24T10:20:07.99Z</time></trkpt><trkpt lat="45.631568" lon="9.4695408"><ele>225.0</ele><time>2026-04-24T10:20:08.99Z</time></trkpt><trkpt lat="45.6315382" lon="9.4696363"><ele>225.0</ele><time>2026-04-24T10:20:09.99Z</time></trkpt><trkpt lat="45.6315121" lon="9.4697298"><ele>225.0</ele><time>2026-04-24T10:20:10.991Z</time></trkpt><trkpt lat="45.6314771" lon="9.4698235"><ele>225.0</ele><time>2026-04-24T10:20:11.99Z</time></trkpt><trkpt lat="45.631445" lon="9.4699189"><ele>225.0</ele><time>2026-04-24T10:20:12.99Z</time></trkpt><trkpt lat="45.6314146" lon="9.4700088"><ele>225.0</ele><time>2026-04-24T10:20:13.991Z</time></trkpt><trkpt lat="45.6313675" lon="9.4701546"><ele>225.0</ele><time>2026-04-24T10:20:15.99Z</time></trkpt><trkpt lat="45.6313239" lon="9.4702466"><ele>225.0</ele><time>2026-04-24T10:20:17.991Z</time></trkpt><trkpt lat="45.6312702" lon="9.4702988"><ele>225.0</ele><time>2026-04-24T10:20:19.991Z</time></trkpt><trkpt lat="45.6311875" lon="9.4702744"><ele>225.0</ele><time>2026-04-24T10:20:21.99Z</time></trkpt><trkpt lat="45.6311003" lon="9.4701958"><ele>225.0</ele><time>2026-04-24T10:20:23.99Z</time></trkpt><trkpt lat="45.6310088" lon="9.4701206"><ele>225.0</ele><time>2026-04-24T10:20:25.991Z</time></trkpt><trkpt lat="45.630906" lon="9.4700687"><ele>224.5</ele><time>2026-04-24T10:20:27.99Z</time></trkpt><trkpt lat="45.6307865" lon="9.4700719"><ele>224.0</ele><time>2026-04-24T10:20:29.99Z</time></trkpt><trkpt lat="45.6306745" lon="9.4701138"><ele>223.5</ele><time>2026-04-24T10:20:31.991Z</time></trkpt><trkpt lat="45.6305778" lon="9.4702078"><ele>223.0</ele><time>2026-04-24T10:20:33.991Z</time></trkpt><trkpt lat="45.6304944" lon="9.4703375"><ele>223.0</ele><time>2026-04-24T10:20:35.991Z</time></trkpt><trkpt lat="45.6304558" lon="9.4704744"><ele>223.0</ele><time>2026-04-24T10:20:37.991Z</time></trkpt><trkpt lat="45.6304251" lon="9.4706258"><ele>223.0</ele><time>2026-04-24T10:20:39.991Z</time></trkpt><trkpt lat="45.6304172" lon="9.4707627"><ele>223.0</ele><time>2026-04-24T10:20:41.99Z</time></trkpt><trkpt lat="45.6304181" lon="9.4708603"><ele>223.0</ele><time>2026-04-24T10:20:43.99Z</time></trkpt><trkpt lat="45.6303959" lon="9.4709788"><ele>222.99999999999997</ele><time>2026-04-24T10:20:45.991Z</time></trkpt><trkpt lat="45.6303756" lon="9.4711048"><ele>223.0</ele><time>2026-04-24T10:20:47.991Z</time></trkpt><trkpt lat="45.6303755" lon="9.471234"><ele>223.0</ele><time>2026-04-24T10:20:49.99Z</time></trkpt><trkpt lat="45.6303823" lon="9.4713348"><ele>223.0</ele><time>2026-04-24T10:20:50.99Z</time></trkpt><trkpt lat="45.6304015" lon="9.4714755"><ele>222.99999999999997</ele><time>2026-04-24T10:20:52.991Z</time></trkpt><trkpt lat="45.6303996" lon="9.4715669"><ele>223.0</ele><time>2026-04-24T10:20:53.99Z</time></trkpt><trkpt lat="45.6304019" lon="9.4716574"><ele>223.2</ele><time>2026-04-24T10:20:54.99Z</time></trkpt><trkpt lat="45.6303826" lon="9.4718093"><ele>223.4</ele><time>2026-04-24T10:20:56.991Z</time></trkpt><trkpt lat="45.6303402" lon="9.4719538"><ele>223.59999999999997</ele><time>2026-04-24T10:20:58.99Z</time></trkpt><trkpt lat="45.6303081" lon="9.4720756"><ele>223.79999999999998</ele><time>2026-04-24T10:21:00.99Z</time></trkpt><trkpt lat="45.6303" lon="9.4721827"><ele>224.0</ele><time>2026-04-24T10:21:02.99Z</time></trkpt><trkpt lat="45.6303292" lon="9.4723246"><ele>224.0</ele><time>2026-04-24T10:21:04.99Z</time></trkpt><trkpt lat="45.6304047" lon="9.472443"><ele>223.99999999999997</ele><time>2026-04-24T10:21:06.99Z</time></trkpt><trkpt lat="45.6304801" lon="9.4725974"><ele>223.99999999999997</ele><time>2026-04-24T10:21:08.99Z</time></trkpt><trkpt lat="45.6305005" lon="9.4727536"><ele>224.0</ele><time>2026-04-24T10:21:10.991Z</time></trkpt><trkpt lat="45.6304881" lon="9.4728781"><ele>224.0</ele><time>2026-04-24T10:21:11.991Z</time></trkpt><trkpt lat="45.6304608" lon="9.4729614"><ele>223.79999999999998</ele><time>2026-04-24T10:21:12.99Z</time></trkpt><trkpt lat="45.6304357" lon="9.4730475"><ele>223.59999999999997</ele><time>2026-04-24T10:21:13.99Z</time></trkpt><trkpt lat="45.6303598" lon="9.473175"><ele>223.4</ele><time>2026-04-24T10:21:15.991Z</time></trkpt><trkpt lat="45.6303155" lon="9.4732493"><ele>223.2</ele><time>2026-04-24T10:21:16.99Z</time></trkpt><trkpt lat="45.6302317" lon="9.4733815"><ele>223.0</ele><time>2026-04-24T10:21:18.99Z</time></trkpt><trkpt lat="45.6301557" lon="9.4735123"><ele>223.0</ele><time>2026-04-24T10:21:20.991Z</time></trkpt><trkpt lat="45.6300808" lon="9.4736611"><ele>223.0</ele><time>2026-04-24T10:21:22.99Z</time></trkpt><trkpt lat="45.6300186" lon="9.4737869"><ele>223.0</ele><time>2026-04-24T10:21:24.991Z</time></trkpt><trkpt lat="45.6299441" lon="9.4739105"><ele>223.0</ele><time>2026-04-24T10:21:26.99Z</time></trkpt><trkpt lat="45.6298656" lon="9.4740314"><ele>223.75</ele><time>2026-04-24T10:21:28.991Z</time></trkpt><trkpt lat="45.6297789" lon="9.4741543"><ele>224.5</ele><time>2026-04-24T10:21:30.99Z</time></trkpt><trkpt lat="45.6297094" lon="9.4742785"><ele>225.25</ele><time>2026-04-24T10:21:32.99Z</time></trkpt><trkpt lat="45.6296402" lon="9.4744203"><ele>226.0</ele><time>2026-04-24T10:21:34.991Z</time></trkpt><trkpt lat="45.6295862" lon="9.4745574"><ele>225.83333333333331</ele><time>2026-04-24T10:21:36.99Z</time></trkpt><trkpt lat="45.6295551" lon="9.474707"><ele>225.66666666666666</ele><time>2026-04-24T10:21:38.99Z</time></trkpt><trkpt lat="45.6295122" lon="9.474855"><ele>225.5</ele><time>2026-04-24T10:21:40.991Z</time></trkpt><trkpt lat="45.6294835" lon="9.4749359"><ele>225.33333333333331</ele><time>2026-04-24T10:21:41.991Z</time></trkpt><trkpt lat="45.6294575" lon="9.4750281"><ele>225.16666666666666</ele><time>2026-04-24T10:21:42.99Z</time></trkpt><trkpt lat="45.6294306" lon="9.4751098"><ele>225.0</ele><time>2026-04-24T10:21:43.99Z</time></trkpt><trkpt lat="45.6294064" lon="9.4751938"><ele>225.00000000000003</ele><time>2026-04-24T10:21:44.99Z</time></trkpt><trkpt lat="45.6293797" lon="9.4752802"><ele>225.0</ele><time>2026-04-24T10:21:45.99Z</time></trkpt><trkpt lat="45.6293566" lon="9.4753858"><ele>225.00000000000003</ele><time>2026-04-24T10:21:46.991Z</time></trkpt><trkpt lat="45.6293294" lon="9.4754706"><ele>225.00000000000003</ele><time>2026-04-24T10:21:47.99Z</time></trkpt><trkpt lat="45.62931" lon="9.4755586"><ele>225.0</ele><time>2026-04-24T10:21:48.991Z</time></trkpt><trkpt lat="45.6292935" lon="9.4756511"><ele>225.00000000000003</ele><time>2026-04-24T10:21:49.99Z</time></trkpt><trkpt lat="45.6292684" lon="9.4757478"><ele>225.00000000000003</ele><time>2026-04-24T10:21:50.99Z</time></trkpt><trkpt lat="45.6292475" lon="9.4758487"><ele>225.28571428571433</ele><time>2026-04-24T10:21:51.99Z</time></trkpt><trkpt lat="45.6292252" lon="9.4759425"><ele>225.57142857142858</ele><time>2026-04-24T10:21:52.991Z</time></trkpt><trkpt lat="45.6292052" lon="9.476034"><ele>225.8571428571429</ele><time>2026-04-24T10:21:53.991Z</time></trkpt><trkpt lat="45.6291839" lon="9.476145"><ele>226.14285714285717</ele><time>2026-04-24T10:21:54.991Z</time></trkpt><trkpt lat="45.6291582" lon="9.4762442"><ele>226.42857142857144</ele><time>2026-04-24T10:21:55.99Z</time></trkpt><trkpt lat="45.6291349" lon="9.4763446"><ele>226.71428571428572</ele><time>2026-04-24T10:21:56.991Z</time></trkpt><trkpt lat="45.6291077" lon="9.4764362"><ele>227.0</ele><time>2026-04-24T10:21:57.99Z</time></trkpt><trkpt lat="45.6290736" lon="9.4765274"><ele>227.16666666666669</ele><time>2026-04-24T10:21:58.99Z</time></trkpt><trkpt lat="45.6290456" lon="9.4766266"><ele>227.33333333333334</ele><time>2026-04-24T10:21:59.99Z</time></trkpt><trkpt lat="45.6290237" lon="9.476722"><ele>227.5</ele><time>2026-04-24T10:22:00.99Z</time></trkpt><trkpt lat="45.6289977" lon="9.4768142"><ele>227.66666666666669</ele><time>2026-04-24T10:22:01.99Z</time></trkpt><trkpt lat="45.6289397" lon="9.4769882"><ele>227.83333333333334</ele><time>2026-04-24T10:22:03.99Z</time></trkpt><trkpt lat="45.6289147" lon="9.4770876"><ele>228.0</ele><time>2026-04-24T10:22:04.99Z</time></trkpt><trkpt lat="45.6288935" lon="9.4771805"><ele>228.0</ele><time>2026-04-24T10:22:05.99Z</time></trkpt><trkpt lat="45.6288637" lon="9.4772737"><ele>228.0</ele><time>2026-04-24T10:22:06.991Z</time></trkpt><trkpt lat="45.628838" lon="9.4773755"><ele>228.0</ele><time>2026-04-24T10:22:07.99Z</time></trkpt><trkpt lat="45.6287754" lon="9.4775224"><ele>228.0</ele><time>2026-04-24T10:22:09.99Z</time></trkpt><trkpt lat="45.6287365" lon="9.4776099"><ele>228.0</ele><time>2026-04-24T10:22:10.991Z</time></trkpt><trkpt lat="45.6287054" lon="9.4777018"><ele>228.0</ele><time>2026-04-24T10:22:11.991Z</time></trkpt><trkpt lat="45.6286662" lon="9.4777949"><ele>226.83333333333334</ele><time>2026-04-24T10:22:12.99Z</time></trkpt><trkpt lat="45.6286296" lon="9.477887"><ele>225.66666666666669</ele><time>2026-04-24T10:22:13.99Z</time></trkpt><trkpt lat="45.6285961" lon="9.4779757"><ele>224.5</ele><time>2026-04-24T10:22:14.99Z</time></trkpt><trkpt lat="45.6285715" lon="9.4780698"><ele>223.33333333333334</ele><time>2026-04-24T10:22:15.991Z</time></trkpt><trkpt lat="45.6285298" lon="9.4781536"><ele>222.16666666666669</ele><time>2026-04-24T10:22:16.99Z</time></trkpt><trkpt lat="45.6284684" lon="9.4783238"><ele>221.0</ele><time>2026-04-24T10:22:18.99Z</time></trkpt><trkpt lat="45.6284193" lon="9.4784155"><ele>220.71428571428572</ele><time>2026-04-24T10:22:19.99Z</time></trkpt><trkpt lat="45.6283787" lon="9.4784903"><ele>220.42857142857144</ele><time>2026-04-24T10:22:20.991Z</time></trkpt><trkpt lat="45.6283478" lon="9.4785903"><ele>220.14285714285717</ele><time>2026-04-24T10:22:21.991Z</time></trkpt><trkpt lat="45.6283079" lon="9.4786801"><ele>219.85714285714286</ele><time>2026-04-24T10:22:22.99Z</time></trkpt><trkpt lat="45.6282778" lon="9.4787708"><ele>219.57142857142856</ele><time>2026-04-24T10:22:23.99Z</time></trkpt><trkpt lat="45.628247" lon="9.4788778"><ele>219.2857142857143</ele><time>2026-04-24T10:22:24.991Z</time></trkpt><trkpt lat="45.6282088" lon="9.4789752"><ele>219.0</ele><time>2026-04-24T10:22:25.991Z</time></trkpt><trkpt lat="45.6281719" lon="9.4790668"><ele>219.0</ele><time>2026-04-24T10:22:26.99Z</time></trkpt><trkpt lat="45.628139" lon="9.4791531"><ele>219.0</ele><time>2026-04-24T10:22:27.991Z</time></trkpt><trkpt lat="45.628103" lon="9.4792496"><ele>219.0</ele><time>2026-04-24T10:22:28.991Z</time></trkpt><trkpt lat="45.6280734" lon="9.4793411"><ele>219.0</ele><time>2026-04-24T10:22:29.99Z</time></trkpt><trkpt lat="45.6280407" lon="9.479426"><ele>219.0</ele><time>2026-04-24T10:22:30.99Z</time></trkpt><trkpt lat="45.6280088" lon="9.4795116"><ele>219.0</ele><time>2026-04-24T10:22:31.99Z</time></trkpt><trkpt lat="45.6279768" lon="9.4796043"><ele>219.0</ele><time>2026-04-24T10:22:32.99Z</time></trkpt><trkpt lat="45.6279507" lon="9.4797041"><ele>219.14285714285714</ele><time>2026-04-24T10:22:33.99Z</time></trkpt><trkpt lat="45.6279216" lon="9.4797963"><ele>219.28571428571428</ele><time>2026-04-24T10:22:34.99Z</time></trkpt><trkpt lat="45.6278907" lon="9.4798838"><ele>219.42857142857142</ele><time>2026-04-24T10:22:35.99Z</time></trkpt><trkpt lat="45.6278585" lon="9.4799753"><ele>219.57142857142856</ele><time>2026-04-24T10:22:36.991Z</time></trkpt><trkpt lat="45.6278245" lon="9.4800612"><ele>219.71428571428572</ele><time>2026-04-24T10:22:37.99Z</time></trkpt><trkpt lat="45.6277969" lon="9.4801636"><ele>219.85714285714283</ele><time>2026-04-24T10:22:38.99Z</time></trkpt><trkpt lat="45.6277656" lon="9.4802571"><ele>220.0</ele><time>2026-04-24T10:22:39.99Z</time></trkpt><trkpt lat="45.6277309" lon="9.4803501"><ele>219.85714285714283</ele><time>2026-04-24T10:22:40.991Z</time></trkpt><trkpt lat="45.6277012" lon="9.4804455"><ele>219.71428571428572</ele><time>2026-04-24T10:22:41.99Z</time></trkpt><trkpt lat="45.6276565" lon="9.4805432"><ele>219.57142857142856</ele><time>2026-04-24T10:22:42.991Z</time></trkpt><trkpt lat="45.6276273" lon="9.4806284"><ele>219.42857142857142</ele><time>2026-04-24T10:22:43.99Z</time></trkpt><trkpt lat="45.6275941" lon="9.4807318"><ele>219.28571428571428</ele><time>2026-04-24T10:22:44.99Z</time></trkpt><trkpt lat="45.6275568" lon="9.48082"><ele>219.14285714285714</ele><time>2026-04-24T10:22:45.99Z</time></trkpt><trkpt lat="45.6275192" lon="9.4809089"><ele>219.0</ele><time>2026-04-24T10:22:46.99Z</time></trkpt><trkpt lat="45.6274933" lon="9.4810041"><ele>219.0</ele><time>2026-04-24T10:22:47.99Z</time></trkpt><trkpt lat="45.6274618" lon="9.4810916"><ele>219.0</ele><time>2026-04-24T10:22:48.991Z</time></trkpt><trkpt lat="45.6274175" lon="9.4811814"><ele>219.0</ele><time>2026-04-24T10:22:49.99Z</time></trkpt><trkpt lat="45.6273784" lon="9.4812776"><ele>219.0</ele><time>2026-04-24T10:22:50.991Z</time></trkpt><trkpt lat="45.6273431" lon="9.4813683"><ele>219.0</ele><time>2026-04-24T10:22:51.99Z</time></trkpt><trkpt lat="45.6273092" lon="9.4814471"><ele>219.0</ele><time>2026-04-24T10:22:52.991Z</time></trkpt><trkpt lat="45.6272786" lon="9.4815345"><ele>219.0</ele><time>2026-04-24T10:22:53.99Z</time></trkpt><trkpt lat="45.6272421" lon="9.4816251"><ele>219.0</ele><time>2026-04-24T10:22:54.99Z</time></trkpt><trkpt lat="45.6272083" lon="9.4817122"><ele>219.0</ele><time>2026-04-24T10:22:55.991Z</time></trkpt><trkpt lat="45.6271641" lon="9.4817949"><ele>219.0</ele><time>2026-04-24T10:22:56.99Z</time></trkpt><trkpt lat="45.6271221" lon="9.4818841"><ele>219.0</ele><time>2026-04-24T10:22:57.99Z</time></trkpt><trkpt lat="45.6270983" lon="9.4819913"><ele>219.0</ele><time>2026-04-24T10:22:58.99Z</time></trkpt><trkpt lat="45.6270615" lon="9.4820853"><ele>219.0</ele><time>2026-04-24T10:22:59.99Z</time></trkpt><trkpt lat="45.6270376" lon="9.4821808"><ele>219.0</ele><time>2026-04-24T10:23:00.99Z</time></trkpt><trkpt lat="45.6270116" lon="9.4822653"><ele>219.0</ele><time>2026-04-24T10:23:01.991Z</time></trkpt><trkpt lat="45.626985" lon="9.4823594"><ele>219.0</ele><time>2026-04-24T10:23:02.99Z</time></trkpt><trkpt lat="45.6269555" lon="9.4824598"><ele>219.0</ele><time>2026-04-24T10:23:03.99Z</time></trkpt><trkpt lat="45.6269207" lon="9.4825555"><ele>219.0</ele><time>2026-04-24T10:23:04.99Z</time></trkpt><trkpt lat="45.6268903" lon="9.4826533"><ele>219.0</ele><time>2026-04-24T10:23:05.99Z</time></trkpt><trkpt lat="45.62686" lon="9.4827535"><ele>219.0</ele><time>2026-04-24T10:23:06.99Z</time></trkpt><trkpt lat="45.6268295" lon="9.4828492"><ele>219.0</ele><time>2026-04-24T10:23:07.99Z</time></trkpt><trkpt lat="45.626797" lon="9.4829445"><ele>219.0</ele><time>2026-04-24T10:23:08.99Z</time></trkpt><trkpt lat="45.6267599" lon="9.4830293"><ele>219.0</ele><time>2026-04-24T10:23:09.99Z</time></trkpt><trkpt lat="45.6267284" lon="9.483128"><ele>219.0</ele><time>2026-04-24T10:23:10.991Z</time></trkpt><trkpt lat="45.6266924" lon="9.4832181"><ele>219.0</ele><time>2026-04-24T10:23:11.991Z</time></trkpt><trkpt lat="45.6266631" lon="9.4833121"><ele>219.0</ele><time>2026-04-24T10:23:12.991Z</time></trkpt><trkpt lat="45.6266255" lon="9.4834136"><ele>219.0</ele><time>2026-04-24T10:23:13.99Z</time></trkpt><trkpt lat="45.6265997" lon="9.4835019"><ele>219.0</ele><time>2026-04-24T10:23:14.99Z</time></trkpt><trkpt lat="45.6265594" lon="9.4835965"><ele>219.0</ele><time>2026-04-24T10:23:15.99Z</time></trkpt><trkpt lat="45.6265337" lon="9.4836877"><ele>219.0</ele><time>2026-04-24T10:23:16.991Z</time></trkpt><trkpt lat="45.6264995" lon="9.4837834"><ele>219.0</ele><time>2026-04-24T10:23:17.99Z</time></trkpt><trkpt lat="45.6264653" lon="9.4838802"><ele>219.0</ele><time>2026-04-24T10:23:18.99Z</time></trkpt><trkpt lat="45.6264306" lon="9.4839733"><ele>219.0</ele><time>2026-04-24T10:23:19.991Z</time></trkpt><trkpt lat="45.6264019" lon="9.4840606"><ele>219.0</ele><time>2026-04-24T10:23:20.99Z</time></trkpt><trkpt lat="45.6263671" lon="9.484159"><ele>219.0</ele><time>2026-04-24T10:23:21.991Z</time></trkpt><trkpt lat="45.6263414" lon="9.4842528"><ele>219.0</ele><time>2026-04-24T10:23:22.99Z</time></trkpt><trkpt lat="45.6263084" lon="9.4843369"><ele>219.0</ele><time>2026-04-24T10:23:23.99Z</time></trkpt><trkpt lat="45.6262779" lon="9.484427"><ele>219.0</ele><time>2026-04-24T10:23:24.99Z</time></trkpt><trkpt lat="45.6262446" lon="9.4845248"><ele>219.0</ele><time>2026-04-24T10:23:25.99Z</time></trkpt><trkpt lat="45.6261995" lon="9.4846299"><ele>219.0</ele><time>2026-04-24T10:23:26.99Z</time></trkpt><trkpt lat="45.626166" lon="9.484719"><ele>219.0</ele><time>2026-04-24T10:23:27.99Z</time></trkpt><trkpt lat="45.6261288" lon="9.4847999"><ele>219.0</ele><time>2026-04-24T10:23:28.99Z</time></trkpt><trkpt lat="45.6260996" lon="9.4849177"><ele>218.71428571428572</ele><time>2026-04-24T10:23:29.99Z</time></trkpt><trkpt lat="45.6260649" lon="9.4850062"><ele>218.42857142857142</ele><time>2026-04-24T10:23:30.99Z</time></trkpt><trkpt lat="45.6260354" lon="9.4851014"><ele>218.14285714285714</ele><time>2026-04-24T10:23:31.991Z</time></trkpt><trkpt lat="45.6259993" lon="9.4852017"><ele>217.85714285714286</ele><time>2026-04-24T10:23:32.99Z</time></trkpt><trkpt lat="45.6259655" lon="9.4853032"><ele>217.57142857142856</ele><time>2026-04-24T10:23:33.99Z</time></trkpt><trkpt lat="45.6259265" lon="9.4853967"><ele>217.28571428571428</ele><time>2026-04-24T10:23:34.991Z</time></trkpt><trkpt lat="45.6258933" lon="9.4854879"><ele>217.0</ele><time>2026-04-24T10:23:35.991Z</time></trkpt><trkpt lat="45.6258648" lon="9.4855879"><ele>217.0</ele><time>2026-04-24T10:23:36.99Z</time></trkpt><trkpt lat="45.6258335" lon="9.4856809"><ele>217.0</ele><time>2026-04-24T10:23:37.99Z</time></trkpt><trkpt lat="45.6258004" lon="9.4857848"><ele>217.0</ele><time>2026-04-24T10:23:38.99Z</time></trkpt><trkpt lat="45.625771" lon="9.485871"><ele>217.0</ele><time>2026-04-24T10:23:39.99Z</time></trkpt><trkpt lat="45.6257414" lon="9.4859686"><ele>217.0</ele><time>2026-04-24T10:23:40.99Z</time></trkpt><trkpt lat="45.6257049" lon="9.4860615"><ele>217.0</ele><time>2026-04-24T10:23:41.99Z</time></trkpt><trkpt lat="45.6256627" lon="9.4861492"><ele>217.0</ele><time>2026-04-24T10:23:42.99Z</time></trkpt><trkpt lat="45.625633" lon="9.4862427"><ele>216.85714285714286</ele><time>2026-04-24T10:23:43.99Z</time></trkpt><trkpt lat="45.6255996" lon="9.4863372"><ele>216.71428571428572</ele><time>2026-04-24T10:23:44.99Z</time></trkpt><trkpt lat="45.6255621" lon="9.4864252"><ele>216.57142857142856</ele><time>2026-04-24T10:23:45.99Z</time></trkpt><trkpt lat="45.6255296" lon="9.4865187"><ele>216.42857142857144</ele><time>2026-04-24T10:23:46.991Z</time></trkpt><trkpt lat="45.6254962" lon="9.4866072"><ele>216.28571428571428</ele><time>2026-04-24T10:23:47.99Z</time></trkpt><trkpt lat="45.6254545" lon="9.4866959"><ele>216.14285714285714</ele><time>2026-04-24T10:23:48.991Z</time></trkpt><trkpt lat="45.6254116" lon="9.4867796"><ele>216.0</ele><time>2026-04-24T10:23:49.99Z</time></trkpt><trkpt lat="45.6253634" lon="9.4868617"><ele>216.0</ele><time>2026-04-24T10:23:50.99Z</time></trkpt><trkpt lat="45.6253244" lon="9.4869539"><ele>216.0</ele><time>2026-04-24T10:23:51.99Z</time></trkpt><trkpt lat="45.6252725" lon="9.4870475"><ele>216.0</ele><time>2026-04-24T10:23:52.99Z</time></trkpt><trkpt lat="45.6252307" lon="9.4871383"><ele>216.0</ele><time>2026-04-24T10:23:53.991Z</time></trkpt><trkpt lat="45.6251739" lon="9.4872381"><ele>216.0</ele><time>2026-04-24T10:23:54.99Z</time></trkpt><trkpt lat="45.6251367" lon="9.4873214"><ele>216.0</ele><time>2026-04-24T10:23:55.99Z</time></trkpt><trkpt lat="45.6250891" lon="9.4874107"><ele>216.0</ele><time>2026-04-24T10:23:56.99Z</time></trkpt><trkpt lat="45.6250555" lon="9.4874886"><ele>216.0</ele><time>2026-04-24T10:23:57.99Z</time></trkpt><trkpt lat="45.6250125" lon="9.4875852"><ele>216.0</ele><time>2026-04-24T10:23:58.99Z</time></trkpt><trkpt lat="45.6249613" lon="9.4876767"><ele>216.0</ele><time>2026-04-24T10:23:59.99Z</time></trkpt><trkpt lat="45.6249289" lon="9.4877946"><ele>216.0</ele><time>2026-04-24T10:24:00.99Z</time></trkpt><trkpt lat="45.6249005" lon="9.4878804"><ele>216.0</ele><time>2026-04-24T10:24:01.99Z</time></trkpt><trkpt lat="45.6248708" lon="9.4879704"><ele>216.0</ele><time>2026-04-24T10:24:02.99Z</time></trkpt><trkpt lat="45.6248374" lon="9.4880638"><ele>216.0</ele><time>2026-04-24T10:24:03.99Z</time></trkpt><trkpt lat="45.624809" lon="9.4881523"><ele>216.0</ele><time>2026-04-24T10:24:04.991Z</time></trkpt><trkpt lat="45.6247693" lon="9.4882521"><ele>216.0</ele><time>2026-04-24T10:24:05.991Z</time></trkpt><trkpt lat="45.6247335" lon="9.4883444"><ele>216.0</ele><time>2026-04-24T10:24:06.99Z</time></trkpt><trkpt lat="45.62471" lon="9.4884343"><ele>216.0</ele><time>2026-04-24T10:24:07.99Z</time></trkpt><trkpt lat="45.6246818" lon="9.4885192"><ele>216.0</ele><time>2026-04-24T10:24:08.99Z</time></trkpt><trkpt lat="45.6246407" lon="9.4886042"><ele>216.0</ele><time>2026-04-24T10:24:09.99Z</time></trkpt><trkpt lat="45.6245869" lon="9.4887442"><ele>216.0</ele><time>2026-04-24T10:24:11.99Z</time></trkpt><trkpt lat="45.624551" lon="9.4888621"><ele>216.0</ele><time>2026-04-24T10:24:13.99Z</time></trkpt><trkpt lat="45.6246762" lon="9.4890879"><ele>216.0</ele><time>2026-04-24T10:24:24.99Z</time></trkpt><trkpt lat="45.6247627" lon="9.4891559"><ele>215.75</ele><time>2026-04-24T10:24:26.99Z</time></trkpt><trkpt lat="45.6248593" lon="9.4892232"><ele>215.5</ele><time>2026-04-24T10:24:28.99Z</time></trkpt><trkpt lat="45.624958" lon="9.4892966"><ele>215.25</ele><time>2026-04-24T10:24:30.99Z</time></trkpt><trkpt lat="45.625063" lon="9.4893653"><ele>215.0</ele><time>2026-04-24T10:24:32.99Z</time></trkpt><trkpt lat="45.625168" lon="9.4894467"><ele>215.0</ele><time>2026-04-24T10:24:34.991Z</time></trkpt><trkpt lat="45.6252773" lon="9.4895208"><ele>215.0</ele><time>2026-04-24T10:24:36.99Z</time></trkpt><trkpt lat="45.6253866" lon="9.4895896"><ele>215.0</ele><time>2026-04-24T10:24:38.99Z</time></trkpt><trkpt lat="45.6254957" lon="9.4896616"><ele>215.0</ele><time>2026-04-24T10:24:40.99Z</time></trkpt><trkpt lat="45.6256051" lon="9.4897394"><ele>216.0</ele><time>2026-04-24T10:24:42.99Z</time></trkpt><trkpt lat="45.6257077" lon="9.4898146"><ele>217.0</ele><time>2026-04-24T10:24:44.991Z</time></trkpt><trkpt lat="45.6258126" lon="9.4898884"><ele>218.0</ele><time>2026-04-24T10:24:46.99Z</time></trkpt><trkpt lat="45.6258713" lon="9.4899218"><ele>219.0</ele><time>2026-04-24T10:24:47.99Z</time></trkpt><trkpt lat="45.6259289" lon="9.4899619"><ele>220.0</ele><time>2026-04-24T10:24:48.99Z</time></trkpt><trkpt lat="45.6260107" lon="9.4900558"><ele>220.0</ele><time>2026-04-24T10:24:50.99Z</time></trkpt><trkpt lat="45.626034" lon="9.4902014"><ele>220.0</ele><time>2026-04-24T10:24:52.991Z</time></trkpt><trkpt lat="45.6260111" lon="9.4903544"><ele>220.0</ele><time>2026-04-24T10:24:54.99Z</time></trkpt><trkpt lat="45.6259587" lon="9.4904767"><ele>220.0</ele><time>2026-04-24T10:24:56.99Z</time></trkpt><trkpt lat="45.625885" lon="9.4905994"><ele>220.0</ele><time>2026-04-24T10:24:58.991Z</time></trkpt><trkpt lat="45.6258081" lon="9.490704"><ele>219.2</ele><time>2026-04-24T10:25:00.99Z</time></trkpt><trkpt lat="45.6257294" lon="9.4908183"><ele>218.4</ele><time>2026-04-24T10:25:02.99Z</time></trkpt><trkpt lat="45.6256801" lon="9.490886"><ele>217.60000000000002</ele><time>2026-04-24T10:25:03.991Z</time></trkpt><trkpt lat="45.6256044" lon="9.4910099"><ele>216.8</ele><time>2026-04-24T10:25:05.99Z</time></trkpt><trkpt lat="45.6255353" lon="9.4911387"><ele>216.0</ele><time>2026-04-24T10:25:07.99Z</time></trkpt><trkpt lat="45.6255146" lon="9.4912405"><ele>216.0</ele><time>2026-04-24T10:25:08.99Z</time></trkpt><trkpt lat="45.6254537" lon="9.4913781"><ele>216.00000000000003</ele><time>2026-04-24T10:25:10.99Z</time></trkpt><trkpt lat="45.6254003" lon="9.4915061"><ele>216.00000000000003</ele><time>2026-04-24T10:25:12.99Z</time></trkpt><trkpt lat="45.6253443" lon="9.4916473"><ele>216.0</ele><time>2026-04-24T10:25:14.99Z</time></trkpt><trkpt lat="45.6252983" lon="9.4917699"><ele>216.0</ele><time>2026-04-24T10:25:16.99Z</time></trkpt><trkpt lat="45.6252352" lon="9.4919105"><ele>215.8</ele><time>2026-04-24T10:25:18.99Z</time></trkpt><trkpt lat="45.625177" lon="9.4920252"><ele>215.60000000000002</ele><time>2026-04-24T10:25:20.99Z</time></trkpt><trkpt lat="45.6251251" lon="9.4921593"><ele>215.4</ele><time>2026-04-24T10:25:22.99Z</time></trkpt><trkpt lat="45.625059" lon="9.4922927"><ele>215.2</ele><time>2026-04-24T10:25:24.991Z</time></trkpt><trkpt lat="45.6250155" lon="9.4924226"><ele>215.0</ele><time>2026-04-24T10:25:26.99Z</time></trkpt><trkpt lat="45.6250034" lon="9.4925457"><ele>215.0</ele><time>2026-04-24T10:25:28.99Z</time></trkpt><trkpt lat="45.6250539" lon="9.4926362"><ele>215.0</ele><time>2026-04-24T10:25:30.991Z</time></trkpt><trkpt lat="45.6251285" lon="9.4926903"><ele>215.0</ele><time>2026-04-24T10:25:32.991Z</time></trkpt><trkpt lat="45.6252037" lon="9.4927701"><ele>215.0</ele><time>2026-04-24T10:25:34.99Z</time></trkpt><trkpt lat="45.6252916" lon="9.4928483"><ele>215.0</ele><time>2026-04-24T10:25:36.99Z</time></trkpt><trkpt lat="45.6253763" lon="9.4929331"><ele>215.4</ele><time>2026-04-24T10:25:38.99Z</time></trkpt><trkpt lat="45.6254626" lon="9.4930139"><ele>215.8</ele><time>2026-04-24T10:25:40.991Z</time></trkpt><trkpt lat="45.6255524" lon="9.4931038"><ele>216.2</ele><time>2026-04-24T10:25:42.99Z</time></trkpt><trkpt lat="45.6256382" lon="9.4931906"><ele>216.6</ele><time>2026-04-24T10:25:44.99Z</time></trkpt><trkpt lat="45.6257362" lon="9.493274"><ele>217.0</ele><time>2026-04-24T10:25:46.99Z</time></trkpt><trkpt lat="45.6258284" lon="9.4933707"><ele>217.0</ele><time>2026-04-24T10:25:48.99Z</time></trkpt><trkpt lat="45.6259071" lon="9.493491"><ele>217.0</ele><time>2026-04-24T10:25:50.99Z</time></trkpt><trkpt lat="45.6259867" lon="9.4936072"><ele>217.0</ele><time>2026-04-24T10:25:52.99Z</time></trkpt><trkpt lat="45.6260682" lon="9.4936946"><ele>217.0</ele><time>2026-04-24T10:25:54.991Z</time></trkpt><trkpt lat="45.6261467" lon="9.4937966"><ele>217.0</ele><time>2026-04-24T10:25:56.991Z</time></trkpt><trkpt lat="45.6262267" lon="9.493901"><ele>217.2</ele><time>2026-04-24T10:25:58.99Z</time></trkpt><trkpt lat="45.6263115" lon="9.4939947"><ele>217.39999999999998</ele><time>2026-04-24T10:26:00.99Z</time></trkpt><trkpt lat="45.6263981" lon="9.4940962"><ele>217.60000000000002</ele><time>2026-04-24T10:26:02.991Z</time></trkpt><trkpt lat="45.6264732" lon="9.4941524"><ele>217.8</ele><time>2026-04-24T10:26:03.99Z</time></trkpt><trkpt lat="45.6265424" lon="9.4942565"><ele>218.0</ele><time>2026-04-24T10:26:05.99Z</time></trkpt><trkpt lat="45.6266211" lon="9.4943597"><ele>218.0</ele><time>2026-04-24T10:26:07.99Z</time></trkpt><trkpt lat="45.626698" lon="9.4944682"><ele>218.0</ele><time>2026-04-24T10:26:09.991Z</time></trkpt><trkpt lat="45.6267712" lon="9.4945933"><ele>218.0</ele><time>2026-04-24T10:26:11.991Z</time></trkpt><trkpt lat="45.6268059" lon="9.4947447"><ele>218.0</ele><time>2026-04-24T10:26:13.99Z</time></trkpt><trkpt lat="45.6267961" lon="9.4949017"><ele>218.0</ele><time>2026-04-24T10:26:15.99Z</time></trkpt><trkpt lat="45.6267401" lon="9.4950491"><ele>217.75</ele><time>2026-04-24T10:26:17.99Z</time></trkpt><trkpt lat="45.6266897" lon="9.4951823"><ele>217.5</ele><time>2026-04-24T10:26:19.991Z</time></trkpt><trkpt lat="45.6266284" lon="9.4953102"><ele>217.25</ele><time>2026-04-24T10:26:21.99Z</time></trkpt><trkpt lat="45.6265633" lon="9.495453"><ele>217.0</ele><time>2026-04-24T10:26:23.99Z</time></trkpt><trkpt lat="45.6264923" lon="9.495594"><ele>216.83333333333331</ele><time>2026-04-24T10:26:25.991Z</time></trkpt><trkpt lat="45.6264634" lon="9.4956745"><ele>216.66666666666666</ele><time>2026-04-24T10:26:26.99Z</time></trkpt><trkpt lat="45.6264239" lon="9.4957451"><ele>216.5</ele><time>2026-04-24T10:26:27.991Z</time></trkpt><trkpt lat="45.6263729" lon="9.4958582"><ele>216.33333333333331</ele><time>2026-04-24T10:26:29.99Z</time></trkpt><trkpt lat="45.6263076" lon="9.4959755"><ele>216.16666666666666</ele><time>2026-04-24T10:26:31.99Z</time></trkpt><trkpt lat="45.6262476" lon="9.4961303"><ele>216.0</ele><time>2026-04-24T10:26:33.991Z</time></trkpt><trkpt lat="45.6261892" lon="9.4962746"><ele>216.0</ele><time>2026-04-24T10:26:35.991Z</time></trkpt><trkpt lat="45.6261301" lon="9.4964101"><ele>216.00000000000003</ele><time>2026-04-24T10:26:37.99Z</time></trkpt><trkpt lat="45.6260453" lon="9.4965278"><ele>216.00000000000003</ele><time>2026-04-24T10:26:39.991Z</time></trkpt><trkpt lat="45.6259966" lon="9.4965872"><ele>216.0</ele><time>2026-04-24T10:26:40.99Z</time></trkpt><trkpt lat="45.6259072" lon="9.4967227"><ele>216.0</ele><time>2026-04-24T10:26:42.99Z</time></trkpt><trkpt lat="45.6258084" lon="9.4968202"><ele>216.0</ele><time>2026-04-24T10:26:44.99Z</time></trkpt><trkpt lat="45.6257528" lon="9.4968643"><ele>216.00000000000003</ele><time>2026-04-24T10:26:45.991Z</time></trkpt><trkpt lat="45.6256651" lon="9.4969475"><ele>216.00000000000003</ele><time>2026-04-24T10:26:47.99Z</time></trkpt><trkpt lat="45.6255925" lon="9.4970322"><ele>216.0</ele><time>2026-04-24T10:26:49.99Z</time></trkpt><trkpt lat="45.6255279" lon="9.4971354"><ele>216.0</ele><time>2026-04-24T10:26:51.99Z</time></trkpt><trkpt lat="45.6254499" lon="9.4972355"><ele>216.4</ele><time>2026-04-24T10:26:53.99Z</time></trkpt><trkpt lat="45.6253769" lon="9.4973159"><ele>216.8</ele><time>2026-04-24T10:26:55.99Z</time></trkpt><trkpt lat="45.6253025" lon="9.4973883"><ele>217.20000000000002</ele><time>2026-04-24T10:26:57.99Z</time></trkpt><trkpt lat="45.6252169" lon="9.4974848"><ele>217.60000000000002</ele><time>2026-04-24T10:26:59.991Z</time></trkpt><trkpt lat="45.6251462" lon="9.4975598"><ele>218.0</ele><time>2026-04-24T10:27:01.991Z</time></trkpt><trkpt lat="45.6251019" lon="9.4976649"><ele>218.0</ele><time>2026-04-24T10:27:03.991Z</time></trkpt><trkpt lat="45.6250431" lon="9.4977526"><ele>218.0</ele><time>2026-04-24T10:27:05.99Z</time></trkpt><trkpt lat="45.6249542" lon="9.4978553"><ele>218.0</ele><time>2026-04-24T10:27:07.99Z</time></trkpt><trkpt lat="45.6248974" lon="9.4979805"><ele>218.0</ele><time>2026-04-24T10:27:09.99Z</time></trkpt><trkpt lat="45.6248046" lon="9.4981081"><ele>218.0</ele><time>2026-04-24T10:27:11.99Z</time></trkpt><trkpt lat="45.6247093" lon="9.4982377"><ele>218.2</ele><time>2026-04-24T10:27:13.99Z</time></trkpt><trkpt lat="45.6246578" lon="9.4983046"><ele>218.4</ele><time>2026-04-24T10:27:14.991Z</time></trkpt><trkpt lat="45.62459" lon="9.4984272"><ele>218.59999999999997</ele><time>2026-04-24T10:27:16.991Z</time></trkpt><trkpt lat="45.6244996" lon="9.4985293"><ele>218.79999999999998</ele><time>2026-04-24T10:27:18.99Z</time></trkpt><trkpt lat="45.6244382" lon="9.4985687"><ele>219.0</ele><time>2026-04-24T10:27:19.99Z</time></trkpt><trkpt lat="45.6243661" lon="9.4986414"><ele>218.39999999999998</ele><time>2026-04-24T10:27:21.991Z</time></trkpt><trkpt lat="45.62432" lon="9.4987038"><ele>217.79999999999998</ele><time>2026-04-24T10:27:22.99Z</time></trkpt><trkpt lat="45.6242522" lon="9.4988133"><ele>217.20000000000002</ele><time>2026-04-24T10:27:24.99Z</time></trkpt><trkpt lat="45.6241623" lon="9.4989129"><ele>216.60000000000002</ele><time>2026-04-24T10:27:26.99Z</time></trkpt><trkpt lat="45.624077" lon="9.4990129"><ele>216.0</ele><time>2026-04-24T10:27:28.991Z</time></trkpt><trkpt lat="45.6240088" lon="9.4991267"><ele>216.0</ele><time>2026-04-24T10:27:30.991Z</time></trkpt><trkpt lat="45.6239169" lon="9.4992425"><ele>216.0</ele><time>2026-04-24T10:27:32.991Z</time></trkpt><trkpt lat="45.6238424" lon="9.4993599"><ele>216.0</ele><time>2026-04-24T10:27:34.99Z</time></trkpt><trkpt lat="45.6237658" lon="9.4994795"><ele>216.0</ele><time>2026-04-24T10:27:36.99Z</time></trkpt><trkpt lat="45.6236878" lon="9.4995916"><ele>216.0</ele><time>2026-04-24T10:27:38.99Z</time></trkpt><trkpt lat="45.6236536" lon="9.4996904"><ele>216.0</ele><time>2026-04-24T10:27:40.99Z</time></trkpt><trkpt lat="45.6236147" lon="9.4997654"><ele>216.0</ele><time>2026-04-24T10:27:41.99Z</time></trkpt><trkpt lat="45.6235532" lon="9.4998548"><ele>216.0</ele><time>2026-04-24T10:27:43.99Z</time></trkpt><trkpt lat="45.623476" lon="9.4999781"><ele>216.0</ele><time>2026-04-24T10:27:45.991Z</time></trkpt><trkpt lat="45.6234142" lon="9.5000437"><ele>216.0</ele><time>2026-04-24T10:27:46.991Z</time></trkpt><trkpt lat="45.6233585" lon="9.5001106"><ele>216.0</ele><time>2026-04-24T10:27:47.99Z</time></trkpt><trkpt lat="45.6233031" lon="9.5001544"><ele>216.0</ele><time>2026-04-24T10:27:48.991Z</time></trkpt><trkpt lat="45.6232454" lon="9.5002128"><ele>216.0</ele><time>2026-04-24T10:27:49.991Z</time></trkpt><trkpt lat="45.6231778" lon="9.5003251"><ele>216.0</ele><time>2026-04-24T10:27:51.99Z</time></trkpt><trkpt lat="45.6231232" lon="9.5004453"><ele>216.0</ele><time>2026-04-24T10:27:53.99Z</time></trkpt><trkpt lat="45.6231637" lon="9.5005919"><ele>216.0</ele><time>2026-04-24T10:27:56.99Z</time></trkpt><trkpt lat="45.6231836" lon="9.5007444"><ele>216.0</ele><time>2026-04-24T10:27:58.991Z</time></trkpt><trkpt lat="45.6231398" lon="9.5008762"><ele>216.00000000000003</ele><time>2026-04-24T10:28:00.99Z</time></trkpt><trkpt lat="45.623104" lon="9.5010324"><ele>216.00000000000003</ele><time>2026-04-24T10:28:02.991Z</time></trkpt><trkpt lat="45.6230504" lon="9.5011593"><ele>216.0</ele><time>2026-04-24T10:28:04.99Z</time></trkpt><trkpt lat="45.6229787" lon="9.5012921"><ele>216.0</ele><time>2026-04-24T10:28:06.99Z</time></trkpt><trkpt lat="45.6229447" lon="9.5013896"><ele>215.60000000000002</ele><time>2026-04-24T10:28:07.99Z</time></trkpt><trkpt lat="45.6228943" lon="9.5015199"><ele>215.20000000000002</ele><time>2026-04-24T10:28:09.99Z</time></trkpt><trkpt lat="45.6228548" lon="9.5016098"><ele>214.79999999999998</ele><time>2026-04-24T10:28:10.99Z</time></trkpt><trkpt lat="45.6227826" lon="9.5017275"><ele>214.39999999999998</ele><time>2026-04-24T10:28:12.99Z</time></trkpt><trkpt lat="45.622694" lon="9.5018497"><ele>214.0</ele><time>2026-04-24T10:28:14.991Z</time></trkpt><trkpt lat="45.622605" lon="9.5019692"><ele>213.83333333333331</ele><time>2026-04-24T10:28:16.99Z</time></trkpt><trkpt lat="45.6225414" lon="9.5020863"><ele>213.66666666666666</ele><time>2026-04-24T10:28:18.991Z</time></trkpt><trkpt lat="45.6224778" lon="9.5021444"><ele>213.5</ele><time>2026-04-24T10:28:19.99Z</time></trkpt><trkpt lat="45.6224253" lon="9.5021961"><ele>213.33333333333331</ele><time>2026-04-24T10:28:20.991Z</time></trkpt><trkpt lat="45.6223524" lon="9.5022581"><ele>213.16666666666666</ele><time>2026-04-24T10:28:21.99Z</time></trkpt><trkpt lat="45.6222907" lon="9.5023142"><ele>213.0</ele><time>2026-04-24T10:28:22.99Z</time></trkpt><trkpt lat="45.6222297" lon="9.5024373"><ele>213.0</ele><time>2026-04-24T10:28:24.99Z</time></trkpt><trkpt lat="45.6221906" lon="9.5025408"><ele>213.0</ele><time>2026-04-24T10:28:26.99Z</time></trkpt><trkpt lat="45.6222514" lon="9.5026327"><ele>213.0</ele><time>2026-04-24T10:28:28.99Z</time></trkpt><trkpt lat="45.6222468" lon="9.5027321"><ele>213.0</ele><time>2026-04-24T10:28:30.99Z</time></trkpt><trkpt lat="45.6221966" lon="9.5028197"><ele>213.0</ele><time>2026-04-24T10:28:32.991Z</time></trkpt><trkpt lat="45.6221382" lon="9.5029569"><ele>213.0</ele><time>2026-04-24T10:28:34.991Z</time></trkpt><trkpt lat="45.6220558" lon="9.5030524"><ele>213.0</ele><time>2026-04-24T10:28:36.991Z</time></trkpt><trkpt lat="45.6219838" lon="9.5031651"><ele>213.0</ele><time>2026-04-24T10:28:38.991Z</time></trkpt><trkpt lat="45.6218927" lon="9.5033015"><ele>213.0</ele><time>2026-04-24T10:28:40.99Z</time></trkpt><trkpt lat="45.6218095" lon="9.5034274"><ele>213.0</ele><time>2026-04-24T10:28:42.991Z</time></trkpt><trkpt lat="45.6217302" lon="9.5035545"><ele>213.0</ele><time>2026-04-24T10:28:44.99Z</time></trkpt><trkpt lat="45.6216331" lon="9.503684"><ele>213.0</ele><time>2026-04-24T10:28:46.99Z</time></trkpt><trkpt lat="45.62155" lon="9.5038183"><ele>213.0</ele><time>2026-04-24T10:28:48.99Z</time></trkpt><trkpt lat="45.6214925" lon="9.5038905"><ele>213.0</ele><time>2026-04-24T10:28:49.99Z</time></trkpt><trkpt lat="45.6214518" lon="9.5039599"><ele>213.0</ele><time>2026-04-24T10:28:50.99Z</time></trkpt><trkpt lat="45.621414" lon="9.504037"><ele>213.0</ele><time>2026-04-24T10:28:51.99Z</time></trkpt><trkpt lat="45.6213707" lon="9.5041151"><ele>213.0</ele><time>2026-04-24T10:28:52.99Z</time></trkpt><trkpt lat="45.6213287" lon="9.5041949"><ele>213.0</ele><time>2026-04-24T10:28:53.99Z</time></trkpt><trkpt lat="45.6212382" lon="9.5043215"><ele>213.0</ele><time>2026-04-24T10:28:55.99Z</time></trkpt><trkpt lat="45.6211922" lon="9.5043969"><ele>213.0</ele><time>2026-04-24T10:28:56.99Z</time></trkpt><trkpt lat="45.6211425" lon="9.5044605"><ele>213.0</ele><time>2026-04-24T10:28:57.99Z</time></trkpt><trkpt lat="45.6210683" lon="9.5045787"><ele>212.83333333333334</ele><time>2026-04-24T10:28:59.991Z</time></trkpt><trkpt lat="45.6210038" lon="9.5046989"><ele>212.66666666666669</ele><time>2026-04-24T10:29:01.99Z</time></trkpt><trkpt lat="45.620992" lon="9.5048091"><ele>212.5</ele><time>2026-04-24T10:29:03.99Z</time></trkpt><trkpt lat="45.6210432" lon="9.5049131"><ele>212.33333333333334</ele><time>2026-04-24T10:29:05.991Z</time></trkpt><trkpt lat="45.6211242" lon="9.5050179"><ele>212.16666666666669</ele><time>2026-04-24T10:29:07.99Z</time></trkpt><trkpt lat="45.6211645" lon="9.5050897"><ele>212.0</ele><time>2026-04-24T10:29:08.99Z</time></trkpt><trkpt lat="45.6212507" lon="9.5051956"><ele>212.0</ele><time>2026-04-24T10:29:10.99Z</time></trkpt><trkpt lat="45.6213319" lon="9.5053156"><ele>212.0</ele><time>2026-04-24T10:29:12.99Z</time></trkpt><trkpt lat="45.62142" lon="9.505438"><ele>212.0</ele><time>2026-04-24T10:29:14.991Z</time></trkpt><trkpt lat="45.6214645" lon="9.5055066"><ele>212.0</ele><time>2026-04-24T10:29:15.99Z</time></trkpt><trkpt lat="45.6215091" lon="9.5056391"><ele>212.0</ele><time>2026-04-24T10:29:17.991Z</time></trkpt><trkpt lat="45.6214583" lon="9.5057265"><ele>212.0</ele><time>2026-04-24T10:29:19.99Z</time></trkpt><trkpt lat="45.6214" lon="9.505846"><ele>212.0</ele><time>2026-04-24T10:29:21.99Z</time></trkpt><trkpt lat="45.6213379" lon="9.5059619"><ele>212.0</ele><time>2026-04-24T10:29:23.991Z</time></trkpt><trkpt lat="45.6212526" lon="9.5060779"><ele>212.0</ele><time>2026-04-24T10:29:25.991Z</time></trkpt><trkpt lat="45.6211743" lon="9.5061783"><ele>212.0</ele><time>2026-04-24T10:29:27.991Z</time></trkpt><trkpt lat="45.6211191" lon="9.506247"><ele>211.6</ele><time>2026-04-24T10:29:28.99Z</time></trkpt><trkpt lat="45.6210687" lon="9.5063059"><ele>211.2</ele><time>2026-04-24T10:29:29.99Z</time></trkpt><trkpt lat="45.6209949" lon="9.5063929"><ele>210.8</ele><time>2026-04-24T10:29:31.991Z</time></trkpt><trkpt lat="45.6209" lon="9.5064931"><ele>210.4</ele><time>2026-04-24T10:29:33.99Z</time></trkpt><trkpt lat="45.6208131" lon="9.5065669"><ele>210.0</ele><time>2026-04-24T10:29:35.99Z</time></trkpt><trkpt lat="45.6207274" lon="9.5066298"><ele>210.0</ele><time>2026-04-24T10:29:37.991Z</time></trkpt><trkpt lat="45.6206655" lon="9.506665"><ele>210.0</ele><time>2026-04-24T10:29:38.99Z</time></trkpt><trkpt lat="45.6205738" lon="9.5067024"><ele>210.0</ele><time>2026-04-24T10:29:40.99Z</time></trkpt><trkpt lat="45.6205094" lon="9.5067515"><ele>210.0</ele><time>2026-04-24T10:29:41.99Z</time></trkpt><trkpt lat="45.620431" lon="9.5067662"><ele>210.0</ele><time>2026-04-24T10:29:42.99Z</time></trkpt><trkpt lat="45.6202799" lon="9.5068553"><ele>209.8</ele><time>2026-04-24T10:29:44.99Z</time></trkpt><trkpt lat="45.6201108" lon="9.5069443"><ele>209.6</ele><time>2026-04-24T10:29:46.99Z</time></trkpt><trkpt lat="45.6200395" lon="9.5070049"><ele>209.39999999999998</ele><time>2026-04-24T10:29:47.991Z</time></trkpt><trkpt lat="45.6199778" lon="9.5070509"><ele>209.2</ele><time>2026-04-24T10:29:48.99Z</time></trkpt><trkpt lat="45.6198926" lon="9.5070869"><ele>209.0</ele><time>2026-04-24T10:29:49.99Z</time></trkpt><trkpt lat="45.619822" lon="9.5071201"><ele>209.0</ele><time>2026-04-24T10:29:50.991Z</time></trkpt><trkpt lat="45.6197582" lon="9.5071595"><ele>209.0</ele><time>2026-04-24T10:29:51.99Z</time></trkpt><trkpt lat="45.6196799" lon="9.5072002"><ele>209.0</ele><time>2026-04-24T10:29:52.99Z</time></trkpt><trkpt lat="45.6196211" lon="9.5072452"><ele>209.0</ele><time>2026-04-24T10:29:53.99Z</time></trkpt><trkpt lat="45.6195505" lon="9.5072822"><ele>209.0</ele><time>2026-04-24T10:29:54.99Z</time></trkpt><trkpt lat="45.6194856" lon="9.5073433"><ele>209.0</ele><time>2026-04-24T10:29:55.99Z</time></trkpt><trkpt lat="45.6194274" lon="9.5074134"><ele>209.0</ele><time>2026-04-24T10:29:56.99Z</time></trkpt><trkpt lat="45.619382" lon="9.5074852"><ele>208.83333333333334</ele><time>2026-04-24T10:29:57.99Z</time></trkpt><trkpt lat="45.6193014" lon="9.5075167"><ele>208.66666666666669</ele><time>2026-04-24T10:29:58.99Z</time></trkpt><trkpt lat="45.6192009" lon="9.5075649"><ele>208.5</ele><time>2026-04-24T10:29:59.99Z</time></trkpt><trkpt lat="45.6191484" lon="9.5076182"><ele>208.33333333333331</ele><time>2026-04-24T10:30:00.991Z</time></trkpt><trkpt lat="45.6190748" lon="9.507694"><ele>208.16666666666666</ele><time>2026-04-24T10:30:01.99Z</time></trkpt><trkpt lat="45.6190105" lon="9.5077768"><ele>208.0</ele><time>2026-04-24T10:30:02.99Z</time></trkpt><trkpt lat="45.618936" lon="9.5078372"><ele>207.49999999999997</ele><time>2026-04-24T10:30:03.991Z</time></trkpt><trkpt lat="45.6188949" lon="9.5079248"><ele>207.0</ele><time>2026-04-24T10:30:04.99Z</time></trkpt><trkpt lat="45.6188514" lon="9.5080069"><ele>206.5</ele><time>2026-04-24T10:30:05.99Z</time></trkpt><trkpt lat="45.618789" lon="9.5080909"><ele>206.0</ele><time>2026-04-24T10:30:06.99Z</time></trkpt><trkpt lat="45.6187216" lon="9.5081553"><ele>205.49999999999997</ele><time>2026-04-24T10:30:07.99Z</time></trkpt><trkpt lat="45.6186291" lon="9.5082176"><ele>205.0</ele><time>2026-04-24T10:30:08.99Z</time></trkpt><trkpt lat="45.6185434" lon="9.5083321"><ele>205.0</ele><time>2026-04-24T10:30:10.99Z</time></trkpt><trkpt lat="45.6184714" lon="9.5084009"><ele>205.0</ele><time>2026-04-24T10:30:11.991Z</time></trkpt><trkpt lat="45.6183986" lon="9.5084668"><ele>205.0</ele><time>2026-04-24T10:30:12.991Z</time></trkpt><trkpt lat="45.6183191" lon="9.5086256"><ele>205.0</ele><time>2026-04-24T10:30:14.99Z</time></trkpt><trkpt lat="45.6182435" lon="9.5087273"><ele>205.0</ele><time>2026-04-24T10:30:16.991Z</time></trkpt><trkpt lat="45.6181798" lon="9.5087996"><ele>204.66666666666666</ele><time>2026-04-24T10:30:17.991Z</time></trkpt><trkpt lat="45.6181404" lon="9.5088778"><ele>204.33333333333331</ele><time>2026-04-24T10:30:18.991Z</time></trkpt><trkpt lat="45.618063" lon="9.5089487"><ele>204.0</ele><time>2026-04-24T10:30:19.991Z</time></trkpt><trkpt lat="45.6180135" lon="9.5090148"><ele>203.66666666666669</ele><time>2026-04-24T10:30:20.991Z</time></trkpt><trkpt lat="45.617924" lon="9.5091069"><ele>203.33333333333334</ele><time>2026-04-24T10:30:22.99Z</time></trkpt><trkpt lat="45.6178539" lon="9.5091677"><ele>203.0</ele><time>2026-04-24T10:30:23.99Z</time></trkpt><trkpt lat="45.6177808" lon="9.5092278"><ele>203.00000000000003</ele><time>2026-04-24T10:30:24.991Z</time></trkpt><trkpt lat="45.617726" lon="9.5092739"><ele>203.0</ele><time>2026-04-24T10:30:25.991Z</time></trkpt><trkpt lat="45.6176616" lon="9.5093265"><ele>203.0</ele><time>2026-04-24T10:30:26.991Z</time></trkpt><trkpt lat="45.6175398" lon="9.5094263"><ele>203.0</ele><time>2026-04-24T10:30:28.99Z</time></trkpt><trkpt lat="45.6174856" lon="9.5094793"><ele>203.00000000000003</ele><time>2026-04-24T10:30:29.99Z</time></trkpt><trkpt lat="45.6174271" lon="9.5095388"><ele>203.0</ele><time>2026-04-24T10:30:30.991Z</time></trkpt><trkpt lat="45.6173183" lon="9.509638"><ele>202.4</ele><time>2026-04-24T10:30:32.99Z</time></trkpt><trkpt lat="45.617215" lon="9.5097445"><ele>201.8</ele><time>2026-04-24T10:30:34.99Z</time></trkpt><trkpt lat="45.617166" lon="9.5098126"><ele>201.2</ele><time>2026-04-24T10:30:35.99Z</time></trkpt><trkpt lat="45.6170991" lon="9.5098602"><ele>200.6</ele><time>2026-04-24T10:30:36.99Z</time></trkpt><trkpt lat="45.6169937" lon="9.509929"><ele>200.0</ele><time>2026-04-24T10:30:38.99Z</time></trkpt><trkpt lat="45.6168634" lon="9.5100124"><ele>200.00000000000003</ele><time>2026-04-24T10:30:40.99Z</time></trkpt><trkpt lat="45.6167966" lon="9.5100571"><ele>200.0</ele><time>2026-04-24T10:30:41.99Z</time></trkpt><trkpt lat="45.616717" lon="9.5101136"><ele>200.0</ele><time>2026-04-24T10:30:42.991Z</time></trkpt><trkpt lat="45.6166543" lon="9.5101866"><ele>200.0</ele><time>2026-04-24T10:30:43.99Z</time></trkpt><trkpt lat="45.6165775" lon="9.5102052"><ele>200.00000000000003</ele><time>2026-04-24T10:30:44.991Z</time></trkpt><trkpt lat="45.6164952" lon="9.510249"><ele>200.0</ele><time>2026-04-24T10:30:45.99Z</time></trkpt><trkpt lat="45.616425" lon="9.5102898"><ele>200.00000000000003</ele><time>2026-04-24T10:30:46.99Z</time></trkpt><trkpt lat="45.6163613" lon="9.5102917"><ele>200.0</ele><time>2026-04-24T10:30:47.991Z</time></trkpt><trkpt lat="45.6162746" lon="9.5103376"><ele>200.0</ele><time>2026-04-24T10:30:48.99Z</time></trkpt><trkpt lat="45.6161897" lon="9.5103373"><ele>200.0</ele><time>2026-04-24T10:30:49.99Z</time></trkpt><trkpt lat="45.6161094" lon="9.51036"><ele>200.00000000000003</ele><time>2026-04-24T10:30:50.99Z</time></trkpt><trkpt lat="45.616036" lon="9.5104034"><ele>200.0</ele><time>2026-04-24T10:30:51.99Z</time></trkpt><trkpt lat="45.6159901" lon="9.5104801"><ele>199.00000000000003</ele><time>2026-04-24T10:30:52.991Z</time></trkpt><trkpt lat="45.6159283" lon="9.5105532"><ele>198.0</ele><time>2026-04-24T10:30:53.991Z</time></trkpt><trkpt lat="45.6159025" lon="9.5106385"><ele>197.0</ele><time>2026-04-24T10:30:54.99Z</time></trkpt><trkpt lat="45.6158796" lon="9.5107259"><ele>196.0</ele><time>2026-04-24T10:30:55.991Z</time></trkpt><trkpt lat="45.6158409" lon="9.5108129"><ele>195.0</ele><time>2026-04-24T10:30:56.99Z</time></trkpt><trkpt lat="45.6158121" lon="9.5108979"><ele>194.00000000000003</ele><time>2026-04-24T10:30:57.991Z</time></trkpt><trkpt lat="45.6157669" lon="9.5109845"><ele>193.0</ele><time>2026-04-24T10:30:58.99Z</time></trkpt><trkpt lat="45.6157115" lon="9.511049"><ele>193.0</ele><time>2026-04-24T10:30:59.99Z</time></trkpt><trkpt lat="45.6156245" lon="9.5111451"><ele>193.0</ele><time>2026-04-24T10:31:01.99Z</time></trkpt><trkpt lat="45.6155573" lon="9.5112973"><ele>193.0</ele><time>2026-04-24T10:31:03.99Z</time></trkpt><trkpt lat="45.6155228" lon="9.5113983"><ele>193.0</ele><time>2026-04-24T10:31:04.99Z</time></trkpt><trkpt lat="45.6154549" lon="9.5114716"><ele>193.0</ele><time>2026-04-24T10:31:05.99Z</time></trkpt><trkpt lat="45.6153607" lon="9.511642"><ele>192.66666666666666</ele><time>2026-04-24T10:31:07.99Z</time></trkpt><trkpt lat="45.6153326" lon="9.5117411"><ele>192.33333333333331</ele><time>2026-04-24T10:31:08.99Z</time></trkpt><trkpt lat="45.615311" lon="9.51183"><ele>192.0</ele><time>2026-04-24T10:31:09.99Z</time></trkpt><trkpt lat="45.6152707" lon="9.5119111"><ele>191.66666666666666</ele><time>2026-04-24T10:31:10.991Z</time></trkpt><trkpt lat="45.6152621" lon="9.5120173"><ele>191.33333333333331</ele><time>2026-04-24T10:31:11.99Z</time></trkpt><trkpt lat="45.6152431" lon="9.5122336"><ele>191.0</ele><time>2026-04-24T10:31:13.99Z</time></trkpt><trkpt lat="45.6152243" lon="9.5123323"><ele>190.5</ele><time>2026-04-24T10:31:14.99Z</time></trkpt><trkpt lat="45.6152092" lon="9.5124382"><ele>190.0</ele><time>2026-04-24T10:31:15.991Z</time></trkpt><trkpt lat="45.6152048" lon="9.5125594"><ele>189.5</ele><time>2026-04-24T10:31:16.99Z</time></trkpt><trkpt lat="45.6151625" lon="9.5127266"><ele>189.0</ele><time>2026-04-24T10:31:18.99Z</time></trkpt><trkpt lat="45.6151464" lon="9.5128211"><ele>188.5</ele><time>2026-04-24T10:31:19.99Z</time></trkpt><trkpt lat="45.6151154" lon="9.5129236"><ele>188.0</ele><time>2026-04-24T10:31:20.99Z</time></trkpt><trkpt lat="45.615102" lon="9.5130163"><ele>188.0</ele><time>2026-04-24T10:31:21.991Z</time></trkpt><trkpt lat="45.6150874" lon="9.5131179"><ele>188.0</ele><time>2026-04-24T10:31:22.991Z</time></trkpt><trkpt lat="45.6150707" lon="9.5132198"><ele>188.0</ele><time>2026-04-24T10:31:23.991Z</time></trkpt><trkpt lat="45.6150469" lon="9.5133266"><ele>188.0</ele><time>2026-04-24T10:31:24.99Z</time></trkpt><trkpt lat="45.6150367" lon="9.5134228"><ele>188.0</ele><time>2026-04-24T10:31:25.991Z</time></trkpt><trkpt lat="45.6150104" lon="9.5136038"><ele>188.0</ele><time>2026-04-24T10:31:27.99Z</time></trkpt><trkpt lat="45.614989" lon="9.5137085"><ele>187.33333333333331</ele><time>2026-04-24T10:31:28.99Z</time></trkpt><trkpt lat="45.6149793" lon="9.5138097"><ele>186.66666666666666</ele><time>2026-04-24T10:31:29.99Z</time></trkpt><trkpt lat="45.6149606" lon="9.5139026"><ele>186.0</ele><time>2026-04-24T10:31:30.99Z</time></trkpt><trkpt lat="45.6149159" lon="9.5140884"><ele>185.33333333333334</ele><time>2026-04-24T10:31:32.99Z</time></trkpt><trkpt lat="45.6148987" lon="9.5141898"><ele>184.66666666666669</ele><time>2026-04-24T10:31:33.99Z</time></trkpt><trkpt lat="45.6148699" lon="9.5142895"><ele>184.0</ele><time>2026-04-24T10:31:34.991Z</time></trkpt><trkpt lat="45.6148138" lon="9.5144588"><ele>184.0</ele><time>2026-04-24T10:31:36.99Z</time></trkpt><trkpt lat="45.6147893" lon="9.5145533"><ele>184.0</ele><time>2026-04-24T10:31:37.99Z</time></trkpt><trkpt lat="45.6147462" lon="9.5146497"><ele>184.0</ele><time>2026-04-24T10:31:38.99Z</time></trkpt><trkpt lat="45.6147069" lon="9.5147433"><ele>184.0</ele><time>2026-04-24T10:31:39.99Z</time></trkpt><trkpt lat="45.6146129" lon="9.5148539"><ele>184.0</ele><time>2026-04-24T10:31:41.991Z</time></trkpt><trkpt lat="45.6145178" lon="9.5149347"><ele>184.6</ele><time>2026-04-24T10:31:43.99Z</time></trkpt><trkpt lat="45.6144142" lon="9.5150309"><ele>185.2</ele><time>2026-04-24T10:31:45.99Z</time></trkpt><trkpt lat="45.6144493" lon="9.5151344"><ele>185.79999999999998</ele><time>2026-04-24T10:31:48.991Z</time></trkpt><trkpt lat="45.6145337" lon="9.515086"><ele>186.39999999999998</ele><time>2026-04-24T10:31:50.99Z</time></trkpt><trkpt lat="45.6146318" lon="9.5150364"><ele>187.0</ele><time>2026-04-24T10:31:52.991Z</time></trkpt><trkpt lat="45.6146897" lon="9.514992"><ele>186.5</ele><time>2026-04-24T10:31:53.99Z</time></trkpt><trkpt lat="45.6147855" lon="9.5149069"><ele>186.0</ele><time>2026-04-24T10:31:55.99Z</time></trkpt><trkpt lat="45.6148737" lon="9.5147925"><ele>185.5</ele><time>2026-04-24T10:31:57.99Z</time></trkpt><trkpt lat="45.6149197" lon="9.5147126"><ele>185.0</ele><time>2026-04-24T10:31:58.99Z</time></trkpt><trkpt lat="45.6149696" lon="9.514648"><ele>184.5</ele><time>2026-04-24T10:31:59.99Z</time></trkpt><trkpt lat="45.615014" lon="9.5145724"><ele>184.0</ele><time>2026-04-24T10:32:00.99Z</time></trkpt><trkpt lat="45.615087" lon="9.5143995"><ele>184.0</ele><time>2026-04-24T10:32:02.991Z</time></trkpt><trkpt lat="45.6151439" lon="9.5141681"><ele>184.0</ele><time>2026-04-24T10:32:03.99Z</time></trkpt><trkpt lat="45.6151816" lon="9.5140338"><ele>184.0</ele><time>2026-04-24T10:32:04.991Z</time></trkpt><trkpt lat="45.615191" lon="9.5138953"><ele>184.0</ele><time>2026-04-24T10:32:05.99Z</time></trkpt><trkpt lat="45.6151977" lon="9.5137872"><ele>184.0</ele><time>2026-04-24T10:32:06.991Z</time></trkpt><trkpt lat="45.6152145" lon="9.5136695"><ele>184.66666666666669</ele><time>2026-04-24T10:32:07.991Z</time></trkpt><trkpt lat="45.615242" lon="9.5135758"><ele>185.33333333333334</ele><time>2026-04-24T10:32:08.991Z</time></trkpt><trkpt lat="45.6152688" lon="9.5134519"><ele>186.0</ele><time>2026-04-24T10:32:09.99Z</time></trkpt><trkpt lat="45.6152946" lon="9.5133572"><ele>186.66666666666666</ele><time>2026-04-24T10:32:10.99Z</time></trkpt><trkpt lat="45.615327" lon="9.5132754"><ele>187.33333333333331</ele><time>2026-04-24T10:32:11.991Z</time></trkpt><trkpt lat="45.6153632" lon="9.5133942"><ele>188.0</ele><time>2026-04-24T10:32:16.99Z</time></trkpt><trkpt lat="45.6153279" lon="9.5135387"><ele>188.0</ele><time>2026-04-24T10:32:18.991Z</time></trkpt><trkpt lat="45.6153026" lon="9.5136789"><ele>188.0</ele><time>2026-04-24T10:32:20.991Z</time></trkpt><trkpt lat="45.6152887" lon="9.5137899"><ele>188.0</ele><time>2026-04-24T10:32:22.991Z</time></trkpt><trkpt lat="45.615297" lon="9.513912"><ele>188.0</ele><time>2026-04-24T10:32:24.991Z</time></trkpt><trkpt lat="45.6152822" lon="9.5140408"><ele>188.0</ele><time>2026-04-24T10:32:26.99Z</time></trkpt><trkpt lat="45.6152887" lon="9.5142093"><ele>187.2</ele><time>2026-04-24T10:32:28.99Z</time></trkpt><trkpt lat="45.6152802" lon="9.5143781"><ele>186.4</ele><time>2026-04-24T10:32:30.99Z</time></trkpt><trkpt lat="45.6152636" lon="9.5145667"><ele>185.6</ele><time>2026-04-24T10:32:32.99Z</time></trkpt><trkpt lat="45.6152623" lon="9.5146711"><ele>184.79999999999998</ele><time>2026-04-24T10:32:33.991Z</time></trkpt><trkpt lat="45.615266" lon="9.5147726"><ele>184.0</ele><time>2026-04-24T10:32:34.99Z</time></trkpt><trkpt lat="45.6152654" lon="9.5148881"><ele>182.42857142857144</ele><time>2026-04-24T10:32:35.99Z</time></trkpt><trkpt lat="45.6152559" lon="9.5149806"><ele>180.85714285714283</ele><time>2026-04-24T10:32:36.99Z</time></trkpt><trkpt lat="45.6152472" lon="9.5150753"><ele>179.28571428571428</ele><time>2026-04-24T10:32:37.99Z</time></trkpt><trkpt lat="45.6152369" lon="9.5151765"><ele>177.71428571428572</ele><time>2026-04-24T10:32:38.99Z</time></trkpt><trkpt lat="45.6152391" lon="9.5152771"><ele>176.14285714285717</ele><time>2026-04-24T10:32:39.99Z</time></trkpt><trkpt lat="45.6152243" lon="9.5153954"><ele>174.57142857142856</ele><time>2026-04-24T10:32:40.991Z</time></trkpt><trkpt lat="45.6152132" lon="9.5154943"><ele>173.0</ele><time>2026-04-24T10:32:41.99Z</time></trkpt><trkpt lat="45.6151987" lon="9.5156591"><ele>170.0</ele><time>2026-04-24T10:32:43.99Z</time></trkpt><trkpt lat="45.6151798" lon="9.5157911"><ele>167.0</ele><time>2026-04-24T10:32:45.99Z</time></trkpt><trkpt lat="45.6151441" lon="9.5158853"><ele>164.0</ele><time>2026-04-24T10:32:47.99Z</time></trkpt><trkpt lat="45.6150255" lon="9.5158998"><ele>161.0</ele><time>2026-04-24T10:32:49.991Z</time></trkpt><trkpt lat="45.6149497" lon="9.5158996"><ele>158.0</ele><time>2026-04-24T10:32:50.991Z</time></trkpt><trkpt lat="45.6148324" lon="9.5159026"><ele>158.0</ele><time>2026-04-24T10:32:52.99Z</time></trkpt><trkpt lat="45.6147327" lon="9.5159169"><ele>158.0</ele><time>2026-04-24T10:32:54.991Z</time></trkpt><trkpt lat="45.6146562" lon="9.5159411"><ele>158.0</ele><time>2026-04-24T10:32:55.99Z</time></trkpt><trkpt lat="45.6145442" lon="9.5159917"><ele>158.0</ele><time>2026-04-24T10:32:57.991Z</time></trkpt><trkpt lat="45.6144295" lon="9.5160051"><ele>158.0</ele><time>2026-04-24T10:32:59.99Z</time></trkpt><trkpt lat="45.6143125" lon="9.5160377"><ele>157.20000000000002</ele><time>2026-04-24T10:33:01.99Z</time></trkpt><trkpt lat="45.6142466" lon="9.5160638"><ele>156.4</ele><time>2026-04-24T10:33:02.99Z</time></trkpt><trkpt lat="45.6141359" lon="9.5161051"><ele>155.60000000000002</ele><time>2026-04-24T10:33:04.99Z</time></trkpt><trkpt lat="45.6140263" lon="9.5161673"><ele>154.8</ele><time>2026-04-24T10:33:06.99Z</time></trkpt><trkpt lat="45.613958" lon="9.51619"><ele>154.0</ele><time>2026-04-24T10:33:07.99Z</time></trkpt><trkpt lat="45.6138424" lon="9.516252"><ele>154.0</ele><time>2026-04-24T10:33:09.991Z</time></trkpt><trkpt lat="45.6137479" lon="9.5163032"><ele>154.0</ele><time>2026-04-24T10:33:11.991Z</time></trkpt><trkpt lat="45.6136352" lon="9.5163682"><ele>154.0</ele><time>2026-04-24T10:33:13.99Z</time></trkpt><trkpt lat="45.6135408" lon="9.5164304"><ele>154.0</ele><time>2026-04-24T10:33:15.991Z</time></trkpt><trkpt lat="45.6134465" lon="9.516522"><ele>154.0</ele><time>2026-04-24T10:33:17.991Z</time></trkpt><trkpt lat="45.6133925" lon="9.5165703"><ele>155.66666666666669</ele><time>2026-04-24T10:33:18.99Z</time></trkpt><trkpt lat="45.6133277" lon="9.5166025"><ele>157.33333333333334</ele><time>2026-04-24T10:33:19.991Z</time></trkpt><trkpt lat="45.613236" lon="9.5166663"><ele>159.0</ele><time>2026-04-24T10:33:21.99Z</time></trkpt><trkpt lat="45.6131525" lon="9.5167606"><ele>160.66666666666666</ele><time>2026-04-24T10:33:23.991Z</time></trkpt><trkpt lat="45.613109" lon="9.5168318"><ele>162.33333333333331</ele><time>2026-04-24T10:33:24.99Z</time></trkpt><trkpt lat="45.6130522" lon="9.5169039"><ele>164.0</ele><time>2026-04-24T10:33:25.99Z</time></trkpt><trkpt lat="45.6129981" lon="9.5169662"><ele>164.0</ele><time>2026-04-24T10:33:26.99Z</time></trkpt><trkpt lat="45.6129443" lon="9.5170272"><ele>164.0</ele><time>2026-04-24T10:33:27.99Z</time></trkpt><trkpt lat="45.6128405" lon="9.517099"><ele>164.0</ele><time>2026-04-24T10:33:29.99Z</time></trkpt><trkpt lat="45.61276" lon="9.5172216"><ele>164.0</ele><time>2026-04-24T10:33:31.99Z</time></trkpt><trkpt lat="45.6126746" lon="9.5173477"><ele>164.0</ele><time>2026-04-24T10:33:33.99Z</time></trkpt><trkpt lat="45.6125819" lon="9.5174612"><ele>161.5</ele><time>2026-04-24T10:33:35.991Z</time></trkpt><trkpt lat="45.6124877" lon="9.5176031"><ele>159.0</ele><time>2026-04-24T10:33:37.99Z</time></trkpt><trkpt lat="45.61244" lon="9.5176767"><ele>156.5</ele><time>2026-04-24T10:33:38.991Z</time></trkpt><trkpt lat="45.6123725" lon="9.5178253"><ele>154.0</ele><time>2026-04-24T10:33:40.99Z</time></trkpt><trkpt lat="45.6123206" lon="9.5179842"><ele>153.16666666666669</ele><time>2026-04-24T10:33:42.99Z</time></trkpt><trkpt lat="45.6122956" lon="9.5180669"><ele>152.33333333333334</ele><time>2026-04-24T10:33:43.991Z</time></trkpt><trkpt lat="45.6122341" lon="9.5182174"><ele>151.5</ele><time>2026-04-24T10:33:45.99Z</time></trkpt><trkpt lat="45.6121974" lon="9.5183375"><ele>150.66666666666666</ele><time>2026-04-24T10:33:47.99Z</time></trkpt><trkpt lat="45.6121832" lon="9.5184299"><ele>149.83333333333331</ele><time>2026-04-24T10:33:49.99Z</time></trkpt><trkpt lat="45.6121604" lon="9.5185483"><ele>149.0</ele><time>2026-04-24T10:33:51.99Z</time></trkpt><trkpt lat="45.6121339" lon="9.5186745"><ele>149.0</ele><time>2026-04-24T10:33:53.99Z</time></trkpt><trkpt lat="45.6121099" lon="9.5188094"><ele>149.0</ele><time>2026-04-24T10:33:55.99Z</time></trkpt><trkpt lat="45.6120824" lon="9.5189627"><ele>149.0</ele><time>2026-04-24T10:33:57.99Z</time></trkpt><trkpt lat="45.6120332" lon="9.5191156"><ele>149.0</ele><time>2026-04-24T10:33:59.99Z</time></trkpt><trkpt lat="45.6119956" lon="9.5192504"><ele>149.0</ele><time>2026-04-24T10:34:01.991Z</time></trkpt><trkpt lat="45.6119522" lon="9.5193996"><ele>151.2</ele><time>2026-04-24T10:34:03.991Z</time></trkpt><trkpt lat="45.6119086" lon="9.5195612"><ele>153.4</ele><time>2026-04-24T10:34:05.99Z</time></trkpt><trkpt lat="45.6118671" lon="9.5197176"><ele>155.6</ele><time>2026-04-24T10:34:07.99Z</time></trkpt><trkpt lat="45.6118496" lon="9.51981"><ele>157.8</ele><time>2026-04-24T10:34:08.99Z</time></trkpt><trkpt lat="45.6117987" lon="9.5199244"><ele>160.0</ele><time>2026-04-24T10:34:10.991Z</time></trkpt><trkpt lat="45.6117526" lon="9.5200115"><ele>160.0</ele><time>2026-04-24T10:34:12.99Z</time></trkpt><trkpt lat="45.6116983" lon="9.5200897"><ele>160.0</ele><time>2026-04-24T10:34:14.991Z</time></trkpt><trkpt lat="45.6116468" lon="9.5201784"><ele>160.0</ele><time>2026-04-24T10:34:16.991Z</time></trkpt><trkpt lat="45.6116017" lon="9.5202455"><ele>160.0</ele><time>2026-04-24T10:34:18.99Z</time></trkpt><trkpt lat="45.6115485" lon="9.5203288"><ele>160.0</ele><time>2026-04-24T10:34:21.991Z</time></trkpt><trkpt lat="45.6114995" lon="9.5204237"><ele>160.0</ele><time>2026-04-24T10:34:24.99Z</time></trkpt><trkpt lat="45.6114455" lon="9.5205091"><ele>159.33333333333334</ele><time>2026-04-24T10:34:27.99Z</time></trkpt><trkpt lat="45.6113878" lon="9.5206041"><ele>158.66666666666669</ele><time>2026-04-24T10:34:30.99Z</time></trkpt><trkpt lat="45.6113199" lon="9.5206906"><ele>158.0</ele><time>2026-04-24T10:34:33.99Z</time></trkpt><trkpt lat="45.6112627" lon="9.5207558"><ele>157.33333333333334</ele><time>2026-04-24T10:34:36.99Z</time></trkpt><trkpt lat="45.6112291" lon="9.5208536"><ele>156.66666666666666</ele><time>2026-04-24T10:34:41.991Z</time></trkpt><trkpt lat="45.611169" lon="9.5209434"><ele>156.0</ele><time>2026-04-24T10:34:45.991Z</time></trkpt><trkpt lat="45.6111112" lon="9.5209941"><ele>159.16666666666666</ele><time>2026-04-24T10:34:47.991Z</time></trkpt><trkpt lat="45.6110375" lon="9.5210575"><ele>162.33333333333334</ele><time>2026-04-24T10:34:50.99Z</time></trkpt><trkpt lat="45.6109822" lon="9.5211046"><ele>165.5</ele><time>2026-04-24T10:34:52.99Z</time></trkpt><trkpt lat="45.6108996" lon="9.52115"><ele>168.66666666666669</ele><time>2026-04-24T10:34:55.99Z</time></trkpt><trkpt lat="45.6108367" lon="9.5212369"><ele>171.83333333333334</ele><time>2026-04-24T10:34:58.99Z</time></trkpt><trkpt lat="45.6108083" lon="9.5213532"><ele>175.0</ele><time>2026-04-24T10:35:01.99Z</time></trkpt><trkpt lat="45.6107801" lon="9.5214671"><ele>175.0</ele><time>2026-04-24T10:35:04.991Z</time></trkpt><trkpt lat="45.6107528" lon="9.5215933"><ele>175.0</ele><time>2026-04-24T10:35:07.99Z</time></trkpt><trkpt lat="45.6107297" lon="9.5217105"><ele>175.0</ele><time>2026-04-24T10:35:10.99Z</time></trkpt><trkpt lat="45.6107052" lon="9.5218332"><ele>175.0</ele><time>2026-04-24T10:35:13.991Z</time></trkpt><trkpt lat="45.6107134" lon="9.5219576"><ele>175.0</ele><time>2026-04-24T10:35:16.99Z</time></trkpt><trkpt lat="45.6107582" lon="9.5220477"><ele>175.0</ele><time>2026-04-24T10:35:19.99Z</time></trkpt><trkpt lat="45.6108428" lon="9.5220908"><ele>175.16666666666669</ele><time>2026-04-24T10:35:22.99Z</time></trkpt><trkpt lat="45.6109024" lon="9.5221417"><ele>175.33333333333334</ele><time>2026-04-24T10:35:24.991Z</time></trkpt><trkpt lat="45.6109456" lon="9.5222242"><ele>175.5</ele><time>2026-04-24T10:35:26.99Z</time></trkpt><trkpt lat="45.6109548" lon="9.522328"><ele>175.66666666666666</ele><time>2026-04-24T10:35:28.99Z</time></trkpt><trkpt lat="45.6109637" lon="9.522431"><ele>175.83333333333331</ele><time>2026-04-24T10:35:30.99Z</time></trkpt><trkpt lat="45.6109796" lon="9.522548"><ele>176.0</ele><time>2026-04-24T10:35:32.99Z</time></trkpt><trkpt lat="45.6109828" lon="9.5226911"><ele>176.0</ele><time>2026-04-24T10:35:34.99Z</time></trkpt><trkpt lat="45.6109906" lon="9.5228295"><ele>176.0</ele><time>2026-04-24T10:35:36.99Z</time></trkpt><trkpt lat="45.6110399" lon="9.5229342"><ele>176.0</ele><time>2026-04-24T10:35:38.99Z</time></trkpt><trkpt lat="45.6111245" lon="9.522928"><ele>176.0</ele><time>2026-04-24T10:35:40.99Z</time></trkpt><trkpt lat="45.6112032" lon="9.5228908"><ele>176.0</ele><time>2026-04-24T10:35:42.99Z</time></trkpt><trkpt lat="45.6113103" lon="9.5228531"><ele>174.4</ele><time>2026-04-24T10:35:44.991Z</time></trkpt><trkpt lat="45.6113929" lon="9.5228161"><ele>172.8</ele><time>2026-04-24T10:35:46.99Z</time></trkpt><trkpt lat="45.6113323" lon="9.5229222"><ele>171.20000000000002</ele><time>2026-04-24T10:35:54.99Z</time></trkpt><trkpt lat="45.6112354" lon="9.5229554"><ele>169.60000000000002</ele><time>2026-04-24T10:35:56.99Z</time></trkpt><trkpt lat="45.6111357" lon="9.5229969"><ele>168.0</ele><time>2026-04-24T10:35:58.991Z</time></trkpt><trkpt lat="45.6110525" lon="9.5230467"><ele>166.4</ele><time>2026-04-24T10:36:00.991Z</time></trkpt><trkpt lat="45.6110008" lon="9.52311"><ele>164.8</ele><time>2026-04-24T10:36:03.99Z</time></trkpt><trkpt lat="45.6111025" lon="9.5231147"><ele>163.2</ele><time>2026-04-24T10:36:04.99Z</time></trkpt><trkpt lat="45.6111903" lon="9.5230587"><ele>161.6</ele><time>2026-04-24T10:36:06.991Z</time></trkpt><trkpt lat="45.6112922" lon="9.5230194"><ele>160.0</ele><time>2026-04-24T10:36:08.99Z</time></trkpt><trkpt lat="45.6114228" lon="9.5229825"><ele>158.83333333333334</ele><time>2026-04-24T10:36:10.99Z</time></trkpt><trkpt lat="45.611484" lon="9.5229582"><ele>157.66666666666669</ele><time>2026-04-24T10:36:11.99Z</time></trkpt><trkpt lat="45.6115444" lon="9.5229287"><ele>156.5</ele><time>2026-04-24T10:36:12.991Z</time></trkpt><trkpt lat="45.6116401" lon="9.5229072"><ele>155.33333333333334</ele><time>2026-04-24T10:36:14.991Z</time></trkpt><trkpt lat="45.6115354" lon="9.5230018"><ele>154.16666666666666</ele><time>2026-04-24T10:36:20.99Z</time></trkpt><trkpt lat="45.6114723" lon="9.5230278"><ele>153.0</ele><time>2026-04-24T10:36:21.991Z</time></trkpt><trkpt lat="45.6114079" lon="9.5230644"><ele>153.0</ele><time>2026-04-24T10:36:22.99Z</time></trkpt><trkpt lat="45.6113445" lon="9.5231018"><ele>153.0</ele><time>2026-04-24T10:36:23.99Z</time></trkpt><trkpt lat="45.6112731" lon="9.5231449"><ele>153.0</ele><time>2026-04-24T10:36:24.99Z</time></trkpt><trkpt lat="45.6112011" lon="9.5231917"><ele>153.0</ele><time>2026-04-24T10:36:25.99Z</time></trkpt><trkpt lat="45.6111218" lon="9.5232372"><ele>153.0</ele><time>2026-04-24T10:36:26.99Z</time></trkpt><trkpt lat="45.6110456" lon="9.5232807"><ele>153.0</ele><time>2026-04-24T10:36:27.99Z</time></trkpt><trkpt lat="45.6109576" lon="9.5233317"><ele>154.16666666666666</ele><time>2026-04-24T10:36:28.99Z</time></trkpt><trkpt lat="45.6108743" lon="9.5233798"><ele>155.33333333333334</ele><time>2026-04-24T10:36:29.99Z</time></trkpt><trkpt lat="45.6107917" lon="9.5234301"><ele>156.5</ele><time>2026-04-24T10:36:30.991Z</time></trkpt><trkpt lat="45.6107092" lon="9.5234814"><ele>157.66666666666669</ele><time>2026-04-24T10:36:31.99Z</time></trkpt><trkpt lat="45.61063" lon="9.5235241"><ele>158.83333333333334</ele><time>2026-04-24T10:36:32.99Z</time></trkpt><trkpt lat="45.610555" lon="9.5235718"><ele>160.0</ele><time>2026-04-24T10:36:33.991Z</time></trkpt><trkpt lat="45.610431" lon="9.5236246"><ele>160.0</ele><time>2026-04-24T10:36:35.991Z</time></trkpt><trkpt lat="45.6103685" lon="9.5236509"><ele>160.0</ele><time>2026-04-24T10:36:36.99Z</time></trkpt><trkpt lat="45.6103088" lon="9.5236822"><ele>160.0</ele><time>2026-04-24T10:36:37.99Z</time></trkpt><trkpt lat="45.6101992" lon="9.5237598"><ele>160.0</ele><time>2026-04-24T10:36:39.99Z</time></trkpt><trkpt lat="45.6101209" lon="9.5237925"><ele>160.0</ele><time>2026-04-24T10:36:41.99Z</time></trkpt><trkpt lat="45.6100716" lon="9.5239084"><ele>160.0</ele><time>2026-04-24T10:36:43.99Z</time></trkpt><trkpt lat="45.6099984" lon="9.5239755"><ele>159.4</ele><time>2026-04-24T10:36:45.991Z</time></trkpt><trkpt lat="45.6099261" lon="9.5240428"><ele>158.8</ele><time>2026-04-24T10:36:47.99Z</time></trkpt><trkpt lat="45.6098519" lon="9.5241055"><ele>158.2</ele><time>2026-04-24T10:36:49.99Z</time></trkpt><trkpt lat="45.6097684" lon="9.5241338"><ele>157.6</ele><time>2026-04-24T10:36:51.991Z</time></trkpt><trkpt lat="45.609657" lon="9.5242088"><ele>157.0</ele><time>2026-04-24T10:36:53.99Z</time></trkpt><trkpt lat="45.6095889" lon="9.5242385"><ele>157.0</ele><time>2026-04-24T10:36:54.99Z</time></trkpt><trkpt lat="45.6095185" lon="9.5242778"><ele>157.0</ele><time>2026-04-24T10:36:56.99Z</time></trkpt><trkpt lat="45.6094111" lon="9.5243398"><ele>157.0</ele><time>2026-04-24T10:36:58.991Z</time></trkpt><trkpt lat="45.6093162" lon="9.5244"><ele>157.0</ele><time>2026-04-24T10:37:00.99Z</time></trkpt><trkpt lat="45.609246" lon="9.5245068"><ele>157.0</ele><time>2026-04-24T10:37:02.99Z</time></trkpt><trkpt lat="45.609146" lon="9.5245796"><ele>155.6</ele><time>2026-04-24T10:37:04.991Z</time></trkpt><trkpt lat="45.6090774" lon="9.5246647"><ele>154.2</ele><time>2026-04-24T10:37:06.99Z</time></trkpt><trkpt lat="45.6090038" lon="9.5247615"><ele>152.8</ele><time>2026-04-24T10:37:08.99Z</time></trkpt><trkpt lat="45.608944" lon="9.5247954"><ele>151.4</ele><time>2026-04-24T10:37:09.99Z</time></trkpt><trkpt lat="45.6088139" lon="9.524883"><ele>150.0</ele><time>2026-04-24T10:37:11.99Z</time></trkpt><trkpt lat="45.6087038" lon="9.5249444"><ele>153.6</ele><time>2026-04-24T10:37:13.99Z</time></trkpt><trkpt lat="45.6086003" lon="9.5250393"><ele>157.2</ele><time>2026-04-24T10:37:15.991Z</time></trkpt><trkpt lat="45.608517" lon="9.525129"><ele>160.8</ele><time>2026-04-24T10:37:17.99Z</time></trkpt><trkpt lat="45.6084502" lon="9.5251733"><ele>164.4</ele><time>2026-04-24T10:37:18.99Z</time></trkpt><trkpt lat="45.608339" lon="9.5252492"><ele>168.0</ele><time>2026-04-24T10:37:20.99Z</time></trkpt><trkpt lat="45.608238" lon="9.5253398"><ele>165.4</ele><time>2026-04-24T10:37:22.991Z</time></trkpt><trkpt lat="45.6081896" lon="9.5253999"><ele>162.8</ele><time>2026-04-24T10:37:24.99Z</time></trkpt><trkpt lat="45.6081361" lon="9.525465"><ele>160.2</ele><time>2026-04-24T10:37:25.99Z</time></trkpt><trkpt lat="45.6080591" lon="9.5255793"><ele>157.6</ele><time>2026-04-24T10:37:27.991Z</time></trkpt><trkpt lat="45.6079276" lon="9.5257182"><ele>155.0</ele><time>2026-04-24T10:37:29.991Z</time></trkpt><trkpt lat="45.6078578" lon="9.5257692"><ele>157.0</ele><time>2026-04-24T10:37:30.991Z</time></trkpt><trkpt lat="45.6078028" lon="9.5258444"><ele>159.0</ele><time>2026-04-24T10:37:31.99Z</time></trkpt><trkpt lat="45.6077236" lon="9.5258964"><ele>161.0</ele><time>2026-04-24T10:37:32.991Z</time></trkpt><trkpt lat="45.6075985" lon="9.5259669"><ele>163.0</ele><time>2026-04-24T10:37:34.99Z</time></trkpt><trkpt lat="45.6075362" lon="9.5260254"><ele>165.0</ele><time>2026-04-24T10:37:35.988Z</time></trkpt><trkpt lat="45.607462" lon="9.5260811"><ele>165.0</ele><time>2026-04-24T10:37:36.99Z</time></trkpt><trkpt lat="45.6074043" lon="9.5261314"><ele>165.0</ele><time>2026-04-24T10:37:37.99Z</time></trkpt><trkpt lat="45.6073459" lon="9.5261892"><ele>165.0</ele><time>2026-04-24T10:37:38.99Z</time></trkpt><trkpt lat="45.6072556" lon="9.5262764"><ele>165.0</ele><time>2026-04-24T10:37:40.991Z</time></trkpt><trkpt lat="45.6071696" lon="9.5263744"><ele>165.0</ele><time>2026-04-24T10:37:42.991Z</time></trkpt><trkpt lat="45.6070975" lon="9.5264227"><ele>165.0</ele><time>2026-04-24T10:37:43.99Z</time></trkpt><trkpt lat="45.6070083" lon="9.5265135"><ele>164.0</ele><time>2026-04-24T10:37:45.99Z</time></trkpt><trkpt lat="45.6069314" lon="9.5265483"><ele>163.0</ele><time>2026-04-24T10:37:46.991Z</time></trkpt><trkpt lat="45.6068659" lon="9.5265791"><ele>162.0</ele><time>2026-04-24T10:37:47.991Z</time></trkpt><trkpt lat="45.6067652" lon="9.5266322"><ele>161.0</ele><time>2026-04-24T10:37:49.99Z</time></trkpt><trkpt lat="45.6066944" lon="9.5266847"><ele>160.0</ele><time>2026-04-24T10:37:51.991Z</time></trkpt><trkpt lat="45.6065997" lon="9.5267512"><ele>159.0</ele><time>2026-04-24T10:37:53.99Z</time></trkpt><trkpt lat="45.6065193" lon="9.5268275"><ele>159.0</ele><time>2026-04-24T10:37:55.99Z</time></trkpt><trkpt lat="45.6064174" lon="9.5268968"><ele>159.0</ele><time>2026-04-24T10:37:57.99Z</time></trkpt><trkpt lat="45.606308" lon="9.5269753"><ele>159.0</ele><time>2026-04-24T10:37:59.991Z</time></trkpt><trkpt lat="45.6062461" lon="9.5270158"><ele>159.0</ele><time>2026-04-24T10:38:00.99Z</time></trkpt><trkpt lat="45.6061854" lon="9.5270563"><ele>159.0</ele><time>2026-04-24T10:38:01.99Z</time></trkpt><trkpt lat="45.6061298" lon="9.5271042"><ele>159.0</ele><time>2026-04-24T10:38:02.991Z</time></trkpt><trkpt lat="45.6060655" lon="9.5271379"><ele>160.5</ele><time>2026-04-24T10:38:03.991Z</time></trkpt><trkpt lat="45.6059926" lon="9.5271796"><ele>162.0</ele><time>2026-04-24T10:38:04.99Z</time></trkpt><trkpt lat="45.6058989" lon="9.5272219"><ele>163.5</ele><time>2026-04-24T10:38:05.99Z</time></trkpt><trkpt lat="45.605839" lon="9.5272624"><ele>165.0</ele><time>2026-04-24T10:38:06.99Z</time></trkpt><trkpt lat="45.6057763" lon="9.5273086"><ele>166.5</ele><time>2026-04-24T10:38:07.991Z</time></trkpt><trkpt lat="45.6056754" lon="9.5273476"><ele>168.0</ele><time>2026-04-24T10:38:09.99Z</time></trkpt><trkpt lat="45.6055429" lon="9.5274002"><ele>168.0</ele><time>2026-04-24T10:38:11.99Z</time></trkpt><trkpt lat="45.605466" lon="9.5274205"><ele>168.0</ele><time>2026-04-24T10:38:12.99Z</time></trkpt><trkpt lat="45.6053455" lon="9.5274671"><ele>168.0</ele><time>2026-04-24T10:38:14.99Z</time></trkpt><trkpt lat="45.6052428" lon="9.5275371"><ele>168.0</ele><time>2026-04-24T10:38:16.99Z</time></trkpt><trkpt lat="45.6051399" lon="9.5275907"><ele>168.0</ele><time>2026-04-24T10:38:18.991Z</time></trkpt><trkpt lat="45.6050476" lon="9.5276785"><ele>167.0</ele><time>2026-04-24T10:38:20.991Z</time></trkpt><trkpt lat="45.6049574" lon="9.5277652"><ele>166.0</ele><time>2026-04-24T10:38:22.99Z</time></trkpt><trkpt lat="45.604837" lon="9.5278175"><ele>165.0</ele><time>2026-04-24T10:38:24.99Z</time></trkpt><trkpt lat="45.6047418" lon="9.5278897"><ele>164.0</ele><time>2026-04-24T10:38:26.99Z</time></trkpt><trkpt lat="45.604647" lon="9.5279463"><ele>163.0</ele><time>2026-04-24T10:38:27.991Z</time></trkpt><trkpt lat="45.6045915" lon="9.5280456"><ele>160.4</ele><time>2026-04-24T10:38:29.99Z</time></trkpt><trkpt lat="45.6045754" lon="9.5282041"><ele>157.8</ele><time>2026-04-24T10:38:31.99Z</time></trkpt><trkpt lat="45.6044751" lon="9.5281797"><ele>155.2</ele><time>2026-04-24T10:38:33.991Z</time></trkpt><trkpt lat="45.6043826" lon="9.5281918"><ele>152.6</ele><time>2026-04-24T10:38:35.991Z</time></trkpt><trkpt lat="45.6042625" lon="9.528235"><ele>150.0</ele><time>2026-04-24T10:38:37.99Z</time></trkpt><trkpt lat="45.6041987" lon="9.5282506"><ele>149.66666666666666</ele><time>2026-04-24T10:38:38.99Z</time></trkpt><trkpt lat="45.6041255" lon="9.5282411"><ele>149.33333333333334</ele><time>2026-04-24T10:38:39.99Z</time></trkpt><trkpt lat="45.6040639" lon="9.5282851"><ele>149.0</ele><time>2026-04-24T10:38:40.99Z</time></trkpt><trkpt lat="45.604003" lon="9.5283343"><ele>148.66666666666669</ele><time>2026-04-24T10:38:41.99Z</time></trkpt><trkpt lat="45.6038826" lon="9.5284009"><ele>148.33333333333334</ele><time>2026-04-24T10:38:43.99Z</time></trkpt><trkpt lat="45.6038112" lon="9.5284407"><ele>148.0</ele><time>2026-04-24T10:38:44.99Z</time></trkpt><trkpt lat="45.6036965" lon="9.528513"><ele>147.42857142857144</ele><time>2026-04-24T10:38:46.99Z</time></trkpt><trkpt lat="45.6036376" lon="9.5285509"><ele>146.85714285714286</ele><time>2026-04-24T10:38:47.991Z</time></trkpt><trkpt lat="45.6035735" lon="9.528591"><ele>146.28571428571428</ele><time>2026-04-24T10:38:48.991Z</time></trkpt><trkpt lat="45.6035079" lon="9.5286261"><ele>145.71428571428572</ele><time>2026-04-24T10:38:49.99Z</time></trkpt><trkpt lat="45.6034496" lon="9.5286756"><ele>145.14285714285714</ele><time>2026-04-24T10:38:51.99Z</time></trkpt><trkpt lat="45.6033962" lon="9.5287539"><ele>144.57142857142858</ele><time>2026-04-24T10:38:53.99Z</time></trkpt><trkpt lat="45.6033516" lon="9.5288332"><ele>144.0</ele><time>2026-04-24T10:38:55.991Z</time></trkpt><trkpt lat="45.603282" lon="9.5289136"><ele>144.0</ele><time>2026-04-24T10:38:57.991Z</time></trkpt><trkpt lat="45.6031709" lon="9.5289781"><ele>144.0</ele><time>2026-04-24T10:38:59.991Z</time></trkpt><trkpt lat="45.6031075" lon="9.5290024"><ele>144.0</ele><time>2026-04-24T10:39:00.99Z</time></trkpt><trkpt lat="45.6030123" lon="9.5290508"><ele>144.0</ele><time>2026-04-24T10:39:02.99Z</time></trkpt><trkpt lat="45.6029059" lon="9.529073"><ele>144.0</ele><time>2026-04-24T10:39:04.99Z</time></trkpt><trkpt lat="45.6028035" lon="9.5291121"><ele>144.4</ele><time>2026-04-24T10:39:06.99Z</time></trkpt><trkpt lat="45.6027002" lon="9.5291525"><ele>144.8</ele><time>2026-04-24T10:39:08.99Z</time></trkpt><trkpt lat="45.6025911" lon="9.529203"><ele>145.2</ele><time>2026-04-24T10:39:10.99Z</time></trkpt><trkpt lat="45.602496" lon="9.5292271"><ele>145.6</ele><time>2026-04-24T10:39:12.99Z</time></trkpt><trkpt lat="45.6023919" lon="9.5292401"><ele>146.0</ele><time>2026-04-24T10:39:14.99Z</time></trkpt><trkpt lat="45.6022961" lon="9.5292569"><ele>146.0</ele><time>2026-04-24T10:39:16.99Z</time></trkpt><trkpt lat="45.6022417" lon="9.5293471"><ele>146.0</ele><time>2026-04-24T10:39:19.991Z</time></trkpt><trkpt lat="45.6022259" lon="9.5294389"><ele>146.0</ele><time>2026-04-24T10:39:22.991Z</time></trkpt><trkpt lat="45.6023022" lon="9.529458"><ele>146.0</ele><time>2026-04-24T10:39:25.99Z</time></trkpt><trkpt lat="45.6023167" lon="9.529548"><ele>146.0</ele><time>2026-04-24T10:39:38.99Z</time></trkpt><trkpt lat="45.6023142" lon="9.5296503"><ele>146.0</ele><time>2026-04-24T10:39:42.991Z</time></trkpt><trkpt lat="45.60235" lon="9.5297647"><ele>144.16666666666666</ele><time>2026-04-24T10:39:44.991Z</time></trkpt><trkpt lat="45.6023742" lon="9.5298803"><ele>142.33333333333331</ele><time>2026-04-24T10:39:46.99Z</time></trkpt><trkpt lat="45.6024013" lon="9.5299985"><ele>140.5</ele><time>2026-04-24T10:39:48.99Z</time></trkpt><trkpt lat="45.602425" lon="9.5301023"><ele>138.66666666666666</ele><time>2026-04-24T10:39:50.99Z</time></trkpt><trkpt lat="45.6024468" lon="9.5302"><ele>136.83333333333334</ele><time>2026-04-24T10:39:52.99Z</time></trkpt><trkpt lat="45.6024352" lon="9.5302938"><ele>135.0</ele><time>2026-04-24T10:39:55.991Z</time></trkpt><trkpt lat="45.6023693" lon="9.5303726"><ele>137.28571428571428</ele><time>2026-04-24T10:39:58.991Z</time></trkpt><trkpt lat="45.6023548" lon="9.5304676"><ele>139.57142857142856</ele><time>2026-04-24T10:40:02.99Z</time></trkpt><trkpt lat="45.6023665" lon="9.530562"><ele>141.85714285714286</ele><time>2026-04-24T10:40:05.99Z</time></trkpt><trkpt lat="45.6023625" lon="9.5306545"><ele>144.14285714285714</ele><time>2026-04-24T10:40:07.991Z</time></trkpt><trkpt lat="45.6023162" lon="9.5307197"><ele>146.42857142857144</ele><time>2026-04-24T10:40:09.991Z</time></trkpt><trkpt lat="45.6022533" lon="9.5307696"><ele>148.71428571428572</ele><time>2026-04-24T10:40:11.991Z</time></trkpt><trkpt lat="45.6021932" lon="9.5308152"><ele>151.0</ele><time>2026-04-24T10:40:13.99Z</time></trkpt><trkpt lat="45.6021172" lon="9.5308661"><ele>151.0</ele><time>2026-04-24T10:40:15.99Z</time></trkpt><trkpt lat="45.6020321" lon="9.5309239"><ele>151.0</ele><time>2026-04-24T10:40:17.99Z</time></trkpt><trkpt lat="45.6019793" lon="9.530973"><ele>151.0</ele><time>2026-04-24T10:40:18.99Z</time></trkpt><trkpt lat="45.6018809" lon="9.5310317"><ele>151.0</ele><time>2026-04-24T10:40:20.991Z</time></trkpt><trkpt lat="45.6017803" lon="9.5310978"><ele>151.0</ele><time>2026-04-24T10:40:22.99Z</time></trkpt><trkpt lat="45.601683" lon="9.5311754"><ele>152.6</ele><time>2026-04-24T10:40:24.99Z</time></trkpt><trkpt lat="45.6015836" lon="9.5312511"><ele>154.2</ele><time>2026-04-24T10:40:26.99Z</time></trkpt><trkpt lat="45.6014868" lon="9.5313013"><ele>155.8</ele><time>2026-04-24T10:40:28.99Z</time></trkpt><trkpt lat="45.6013992" lon="9.5313771"><ele>157.4</ele><time>2026-04-24T10:40:30.991Z</time></trkpt><trkpt lat="45.6013132" lon="9.5314459"><ele>159.0</ele><time>2026-04-24T10:40:32.99Z</time></trkpt><trkpt lat="45.601228" lon="9.5315235"><ele>156.2</ele><time>2026-04-24T10:40:34.991Z</time></trkpt><trkpt lat="45.6011608" lon="9.5316098"><ele>153.4</ele><time>2026-04-24T10:40:36.99Z</time></trkpt><trkpt lat="45.60109" lon="9.5316859"><ele>150.6</ele><time>2026-04-24T10:40:38.991Z</time></trkpt><trkpt lat="45.6010007" lon="9.5317445"><ele>147.8</ele><time>2026-04-24T10:40:40.99Z</time></trkpt><trkpt lat="45.600901" lon="9.5318142"><ele>145.0</ele><time>2026-04-24T10:40:42.991Z</time></trkpt><trkpt lat="45.6008115" lon="9.5318705"><ele>145.0</ele><time>2026-04-24T10:40:44.99Z</time></trkpt><trkpt lat="45.6007281" lon="9.5319299"><ele>145.0</ele><time>2026-04-24T10:40:46.99Z</time></trkpt><trkpt lat="45.6006444" lon="9.5319995"><ele>145.0</ele><time>2026-04-24T10:40:49.991Z</time></trkpt><trkpt lat="45.6005601" lon="9.532063"><ele>145.0</ele><time>2026-04-24T10:40:51.99Z</time></trkpt><trkpt lat="45.6004723" lon="9.5321273"><ele>145.0</ele><time>2026-04-24T10:40:53.99Z</time></trkpt><trkpt lat="45.6003692" lon="9.5321734"><ele>145.2</ele><time>2026-04-24T10:40:55.99Z</time></trkpt><trkpt lat="45.600266" lon="9.532253"><ele>145.4</ele><time>2026-04-24T10:40:57.991Z</time></trkpt><trkpt lat="45.6001946" lon="9.5323295"><ele>145.6</ele><time>2026-04-24T10:40:59.99Z</time></trkpt><trkpt lat="45.6001205" lon="9.5324058"><ele>145.8</ele><time>2026-04-24T10:41:01.99Z</time></trkpt><trkpt lat="45.6000361" lon="9.5324606"><ele>146.0</ele><time>2026-04-24T10:41:03.99Z</time></trkpt><trkpt lat="45.5999451" lon="9.5324982"><ele>146.0</ele><time>2026-04-24T10:41:05.991Z</time></trkpt><trkpt lat="45.5998395" lon="9.5325311"><ele>146.0</ele><time>2026-04-24T10:41:07.99Z</time></trkpt><trkpt lat="45.5997291" lon="9.532557"><ele>146.0</ele><time>2026-04-24T10:41:09.991Z</time></trkpt><trkpt lat="45.5996623" lon="9.5325729"><ele>146.0</ele><time>2026-04-24T10:41:10.99Z</time></trkpt><trkpt lat="45.5995378" lon="9.5326082"><ele>146.0</ele><time>2026-04-24T10:41:12.99Z</time></trkpt><trkpt lat="45.5994674" lon="9.532625"><ele>145.66666666666666</ele><time>2026-04-24T10:41:13.991Z</time></trkpt><trkpt lat="45.599398" lon="9.5326419"><ele>145.33333333333331</ele><time>2026-04-24T10:41:14.99Z</time></trkpt><trkpt lat="45.599327" lon="9.532665"><ele>145.0</ele><time>2026-04-24T10:41:15.99Z</time></trkpt><trkpt lat="45.5992211" lon="9.5327555"><ele>144.66666666666666</ele><time>2026-04-24T10:41:17.99Z</time></trkpt><trkpt lat="45.5991808" lon="9.5328306"><ele>144.33333333333334</ele><time>2026-04-24T10:41:18.991Z</time></trkpt><trkpt lat="45.5991585" lon="9.5329157"><ele>144.0</ele><time>2026-04-24T10:41:19.99Z</time></trkpt><trkpt lat="45.5991458" lon="9.5330675"><ele>144.8</ele><time>2026-04-24T10:41:21.99Z</time></trkpt><trkpt lat="45.5991365" lon="9.533187"><ele>145.60000000000002</ele><time>2026-04-24T10:41:23.99Z</time></trkpt><trkpt lat="45.5991277" lon="9.5333055"><ele>146.4</ele><time>2026-04-24T10:41:25.99Z</time></trkpt><trkpt lat="45.5991265" lon="9.5334312"><ele>147.20000000000002</ele><time>2026-04-24T10:41:27.991Z</time></trkpt><trkpt lat="45.5991442" lon="9.5335684"><ele>148.0</ele><time>2026-04-24T10:41:29.991Z</time></trkpt><trkpt lat="45.5991561" lon="9.533719"><ele>148.6</ele><time>2026-04-24T10:41:31.99Z</time></trkpt><trkpt lat="45.5991691" lon="9.5338765"><ele>149.20000000000002</ele><time>2026-04-24T10:41:33.991Z</time></trkpt><trkpt lat="45.5991924" lon="9.5339986"><ele>149.8</ele><time>2026-04-24T10:41:35.991Z</time></trkpt><trkpt lat="45.5991998" lon="9.5341092"><ele>150.4</ele><time>2026-04-24T10:41:37.99Z</time></trkpt><trkpt lat="45.5991667" lon="9.5342143"><ele>151.0</ele><time>2026-04-24T10:41:39.99Z</time></trkpt><trkpt lat="45.5990809" lon="9.5342609"><ele>151.0</ele><time>2026-04-24T10:41:41.99Z</time></trkpt><trkpt lat="45.5989758" lon="9.5342801"><ele>151.0</ele><time>2026-04-24T10:41:43.99Z</time></trkpt><trkpt lat="45.5988666" lon="9.5343083"><ele>151.0</ele><time>2026-04-24T10:41:45.99Z</time></trkpt><trkpt lat="45.5987885" lon="9.5343484"><ele>151.0</ele><time>2026-04-24T10:41:47.99Z</time></trkpt><trkpt lat="45.5987497" lon="9.5344923"><ele>151.0</ele><time>2026-04-24T10:41:49.991Z</time></trkpt><trkpt lat="45.5987361" lon="9.5346234"><ele>151.6</ele><time>2026-04-24T10:41:51.99Z</time></trkpt><trkpt lat="45.5987232" lon="9.5347485"><ele>152.2</ele><time>2026-04-24T10:41:53.99Z</time></trkpt><trkpt lat="45.5986855" lon="9.5348596"><ele>152.8</ele><time>2026-04-24T10:41:55.991Z</time></trkpt><trkpt lat="45.5985772" lon="9.5349009"><ele>153.4</ele><time>2026-04-24T10:41:57.991Z</time></trkpt><trkpt lat="45.5984762" lon="9.5349284"><ele>154.0</ele><time>2026-04-24T10:41:59.99Z</time></trkpt><trkpt lat="45.598367" lon="9.5349494"><ele>154.0</ele><time>2026-04-24T10:42:01.99Z</time></trkpt><trkpt lat="45.5982572" lon="9.5349735"><ele>154.0</ele><time>2026-04-24T10:42:03.991Z</time></trkpt><trkpt lat="45.5980441" lon="9.5349726"><ele>154.0</ele><time>2026-04-24T10:42:05.99Z</time></trkpt><trkpt lat="45.5979269" lon="9.5349991"><ele>154.0</ele><time>2026-04-24T10:42:07.99Z</time></trkpt><trkpt lat="45.5978528" lon="9.5350246"><ele>153.2</ele><time>2026-04-24T10:42:09.99Z</time></trkpt><trkpt lat="45.5977685" lon="9.53506"><ele>152.4</ele><time>2026-04-24T10:42:11.99Z</time></trkpt><trkpt lat="45.5976513" lon="9.5350909"><ele>151.6</ele><time>2026-04-24T10:42:13.991Z</time></trkpt><trkpt lat="45.5975465" lon="9.5351049"><ele>150.8</ele><time>2026-04-24T10:42:15.991Z</time></trkpt><trkpt lat="45.5974822" lon="9.5351139"><ele>150.0</ele><time>2026-04-24T10:42:16.99Z</time></trkpt><trkpt lat="45.5974045" lon="9.5351368"><ele>150.0</ele><time>2026-04-24T10:42:17.99Z</time></trkpt><trkpt lat="45.5973408" lon="9.5351548"><ele>150.0</ele><time>2026-04-24T10:42:18.99Z</time></trkpt><trkpt lat="45.5972746" lon="9.5351554"><ele>150.0</ele><time>2026-04-24T10:42:19.99Z</time></trkpt><trkpt lat="45.5972092" lon="9.5351725"><ele>150.0</ele><time>2026-04-24T10:42:20.99Z</time></trkpt><trkpt lat="45.5971308" lon="9.5351839"><ele>150.0</ele><time>2026-04-24T10:42:21.991Z</time></trkpt><trkpt lat="45.5970116" lon="9.5352083"><ele>150.0</ele><time>2026-04-24T10:42:23.991Z</time></trkpt><trkpt lat="45.5968891" lon="9.5352375"><ele>149.99999999999997</ele><time>2026-04-24T10:42:25.99Z</time></trkpt><trkpt lat="45.5968224" lon="9.5352227"><ele>150.0</ele><time>2026-04-24T10:42:26.991Z</time></trkpt><trkpt lat="45.5967546" lon="9.5352564"><ele>150.0</ele><time>2026-04-24T10:42:27.99Z</time></trkpt><trkpt lat="45.5966777" lon="9.5352861"><ele>150.0</ele><time>2026-04-24T10:42:28.991Z</time></trkpt><trkpt lat="45.596607" lon="9.5353193"><ele>150.0</ele><time>2026-04-24T10:42:29.99Z</time></trkpt><trkpt lat="45.5965433" lon="9.5353541"><ele>149.99999999999997</ele><time>2026-04-24T10:42:30.991Z</time></trkpt><trkpt lat="45.5964769" lon="9.5353755"><ele>150.0</ele><time>2026-04-24T10:42:31.991Z</time></trkpt><trkpt lat="45.5963377" lon="9.5354046"><ele>150.0</ele><time>2026-04-24T10:42:33.99Z</time></trkpt><trkpt lat="45.5962736" lon="9.5354075"><ele>150.0</ele><time>2026-04-24T10:42:34.99Z</time></trkpt><trkpt lat="45.5961508" lon="9.5354286"><ele>150.0</ele><time>2026-04-24T10:42:36.991Z</time></trkpt><trkpt lat="45.5960403" lon="9.5354507"><ele>150.0</ele><time>2026-04-24T10:42:38.99Z</time></trkpt><trkpt lat="45.5959265" lon="9.5354976"><ele>150.0</ele><time>2026-04-24T10:42:40.99Z</time></trkpt><trkpt lat="45.595861" lon="9.5355072"><ele>150.0</ele><time>2026-04-24T10:42:41.991Z</time></trkpt><trkpt lat="45.5957953" lon="9.5355102"><ele>150.0</ele><time>2026-04-24T10:42:42.99Z</time></trkpt><trkpt lat="45.5957262" lon="9.5355139"><ele>150.0</ele><time>2026-04-24T10:42:43.99Z</time></trkpt><trkpt lat="45.595658" lon="9.5355175"><ele>150.0</ele><time>2026-04-24T10:42:44.99Z</time></trkpt><trkpt lat="45.5955447" lon="9.5355487"><ele>150.0</ele><time>2026-04-24T10:42:46.991Z</time></trkpt><trkpt lat="45.5954803" lon="9.5355579"><ele>150.0</ele><time>2026-04-24T10:42:47.99Z</time></trkpt><trkpt lat="45.5953616" lon="9.5355854"><ele>150.2</ele><time>2026-04-24T10:42:49.991Z</time></trkpt><trkpt lat="45.5952886" lon="9.535606"><ele>150.4</ele><time>2026-04-24T10:42:50.99Z</time></trkpt><trkpt lat="45.5951559" lon="9.5356383"><ele>150.6</ele><time>2026-04-24T10:42:52.99Z</time></trkpt><trkpt lat="45.595033" lon="9.5356586"><ele>150.8</ele><time>2026-04-24T10:42:54.99Z</time></trkpt><trkpt lat="45.5949652" lon="9.535669"><ele>151.0</ele><time>2026-04-24T10:42:55.99Z</time></trkpt><trkpt lat="45.5948978" lon="9.5356727"><ele>151.0</ele><time>2026-04-24T10:42:56.99Z</time></trkpt><trkpt lat="45.5948255" lon="9.5356867"><ele>151.0</ele><time>2026-04-24T10:42:57.99Z</time></trkpt><trkpt lat="45.5947012" lon="9.5357"><ele>151.0</ele><time>2026-04-24T10:42:59.99Z</time></trkpt><trkpt lat="45.5945854" lon="9.535731"><ele>151.0</ele><time>2026-04-24T10:43:01.99Z</time></trkpt><trkpt lat="45.5944629" lon="9.5357646"><ele>151.0</ele><time>2026-04-24T10:43:03.991Z</time></trkpt><trkpt lat="45.5943913" lon="9.5357815"><ele>151.00000000000003</ele><time>2026-04-24T10:43:04.991Z</time></trkpt><trkpt lat="45.5943222" lon="9.5357949"><ele>151.0</ele><time>2026-04-24T10:43:05.991Z</time></trkpt><trkpt lat="45.5942494" lon="9.5358179"><ele>151.0</ele><time>2026-04-24T10:43:06.99Z</time></trkpt><trkpt lat="45.594175" lon="9.5358345"><ele>151.0</ele><time>2026-04-24T10:43:07.99Z</time></trkpt><trkpt lat="45.5940989" lon="9.5358524"><ele>151.0</ele><time>2026-04-24T10:43:08.99Z</time></trkpt><trkpt lat="45.5940362" lon="9.535868"><ele>151.00000000000003</ele><time>2026-04-24T10:43:09.99Z</time></trkpt><trkpt lat="45.593973" lon="9.5358715"><ele>151.0</ele><time>2026-04-24T10:43:10.99Z</time></trkpt><trkpt lat="45.5938502" lon="9.5359025"><ele>151.0</ele><time>2026-04-24T10:43:12.99Z</time></trkpt><trkpt lat="45.593784" lon="9.5359113"><ele>151.0</ele><time>2026-04-24T10:43:13.991Z</time></trkpt><trkpt lat="45.5937162" lon="9.5359123"><ele>151.0</ele><time>2026-04-24T10:43:14.99Z</time></trkpt><trkpt lat="45.593648" lon="9.5359368"><ele>151.0</ele><time>2026-04-24T10:43:15.991Z</time></trkpt><trkpt lat="45.5935698" lon="9.5359483"><ele>151.0</ele><time>2026-04-24T10:43:16.991Z</time></trkpt><trkpt lat="45.5934622" lon="9.5359814"><ele>151.0</ele><time>2026-04-24T10:43:18.99Z</time></trkpt><trkpt lat="45.5933916" lon="9.5360062"><ele>151.0</ele><time>2026-04-24T10:43:19.99Z</time></trkpt><trkpt lat="45.5932785" lon="9.5360422"><ele>151.0</ele><time>2026-04-24T10:43:21.99Z</time></trkpt><trkpt lat="45.5932067" lon="9.5360522"><ele>151.0</ele><time>2026-04-24T10:43:22.99Z</time></trkpt><trkpt lat="45.5930775" lon="9.5360656"><ele>151.0</ele><time>2026-04-24T10:43:24.99Z</time></trkpt><trkpt lat="45.5929696" lon="9.5360871"><ele>151.0</ele><time>2026-04-24T10:43:26.99Z</time></trkpt><trkpt lat="45.5928549" lon="9.5361064"><ele>151.16666666666669</ele><time>2026-04-24T10:43:28.99Z</time></trkpt><trkpt lat="45.5927865" lon="9.5361033"><ele>151.33333333333334</ele><time>2026-04-24T10:43:29.99Z</time></trkpt><trkpt lat="45.5927184" lon="9.5361221"><ele>151.5</ele><time>2026-04-24T10:43:30.99Z</time></trkpt><trkpt lat="45.5926324" lon="9.5361454"><ele>151.66666666666666</ele><time>2026-04-24T10:43:31.99Z</time></trkpt><trkpt lat="45.5925214" lon="9.536179"><ele>151.83333333333331</ele><time>2026-04-24T10:43:33.99Z</time></trkpt><trkpt lat="45.5924224" lon="9.5361826"><ele>152.0</ele><time>2026-04-24T10:43:35.99Z</time></trkpt><trkpt lat="45.5923141" lon="9.5362006"><ele>152.16666666666666</ele><time>2026-04-24T10:43:37.99Z</time></trkpt><trkpt lat="45.592243" lon="9.536229"><ele>152.33333333333331</ele><time>2026-04-24T10:43:38.991Z</time></trkpt><trkpt lat="45.5921517" lon="9.5362316"><ele>152.5</ele><time>2026-04-24T10:43:39.99Z</time></trkpt><trkpt lat="45.5920522" lon="9.536238"><ele>152.66666666666666</ele><time>2026-04-24T10:43:40.99Z</time></trkpt><trkpt lat="45.5919843" lon="9.536256"><ele>152.83333333333334</ele><time>2026-04-24T10:43:41.99Z</time></trkpt><trkpt lat="45.5919109" lon="9.536271"><ele>153.0</ele><time>2026-04-24T10:43:42.99Z</time></trkpt><trkpt lat="45.5918305" lon="9.5363002"><ele>152.66666666666666</ele><time>2026-04-24T10:43:43.991Z</time></trkpt><trkpt lat="45.591751" lon="9.5363148"><ele>152.33333333333334</ele><time>2026-04-24T10:43:44.99Z</time></trkpt><trkpt lat="45.5916704" lon="9.5363382"><ele>152.0</ele><time>2026-04-24T10:43:45.99Z</time></trkpt><trkpt lat="45.5915779" lon="9.5363546"><ele>151.66666666666669</ele><time>2026-04-24T10:43:46.99Z</time></trkpt><trkpt lat="45.591493" lon="9.5363627"><ele>151.33333333333334</ele><time>2026-04-24T10:43:47.991Z</time></trkpt><trkpt lat="45.5914229" lon="9.5363754"><ele>151.0</ele><time>2026-04-24T10:43:48.99Z</time></trkpt><trkpt lat="45.5913572" lon="9.5363823"><ele>151.0</ele><time>2026-04-24T10:43:49.99Z</time></trkpt><trkpt lat="45.5912864" lon="9.5364126"><ele>151.0</ele><time>2026-04-24T10:43:50.99Z</time></trkpt><trkpt lat="45.5912137" lon="9.5364329"><ele>151.0</ele><time>2026-04-24T10:43:51.99Z</time></trkpt><trkpt lat="45.5910914" lon="9.5364639"><ele>151.0</ele><time>2026-04-24T10:43:53.99Z</time></trkpt><trkpt lat="45.5910215" lon="9.5364696"><ele>151.0</ele><time>2026-04-24T10:43:54.99Z</time></trkpt><trkpt lat="45.5909046" lon="9.5364765"><ele>149.25</ele><time>2026-04-24T10:43:56.991Z</time></trkpt><trkpt lat="45.5907821" lon="9.5365212"><ele>147.5</ele><time>2026-04-24T10:43:58.99Z</time></trkpt><trkpt lat="45.5906835" lon="9.5365479"><ele>145.75</ele><time>2026-04-24T10:43:59.99Z</time></trkpt><trkpt lat="45.590549" lon="9.536578"><ele>144.0</ele><time>2026-04-24T10:44:01.99Z</time></trkpt><trkpt lat="45.5904318" lon="9.5366231"><ele>144.0</ele><time>2026-04-24T10:44:03.99Z</time></trkpt><trkpt lat="45.590345" lon="9.5366784"><ele>144.0</ele><time>2026-04-24T10:44:05.99Z</time></trkpt><trkpt lat="45.5903006" lon="9.5367845"><ele>144.0</ele><time>2026-04-24T10:44:07.99Z</time></trkpt><trkpt lat="45.5902338" lon="9.5369258"><ele>144.0</ele><time>2026-04-24T10:44:09.99Z</time></trkpt><trkpt lat="45.5902314" lon="9.5370907"><ele>144.0</ele><time>2026-04-24T10:44:11.99Z</time></trkpt><trkpt lat="45.5902591" lon="9.5372118"><ele>144.0</ele><time>2026-04-24T10:44:15.99Z</time></trkpt><trkpt lat="45.590279" lon="9.5373034"><ele>144.0</ele><time>2026-04-24T10:44:19.991Z</time></trkpt><trkpt lat="45.5901919" lon="9.537341"><ele>144.0</ele><time>2026-04-24T10:44:22.991Z</time></trkpt><trkpt lat="45.5901093" lon="9.5373624"><ele>144.0</ele><time>2026-04-24T10:44:24.99Z</time></trkpt><trkpt lat="45.5900161" lon="9.5373955"><ele>144.0</ele><time>2026-04-24T10:44:26.99Z</time></trkpt><trkpt lat="45.5899081" lon="9.5374495"><ele>144.0</ele><time>2026-04-24T10:44:28.99Z</time></trkpt><trkpt lat="45.5898265" lon="9.5375007"><ele>144.0</ele><time>2026-04-24T10:44:30.99Z</time></trkpt><trkpt lat="45.5897866" lon="9.5376235"><ele>144.0</ele><time>2026-04-24T10:44:32.99Z</time></trkpt><trkpt lat="45.5898232" lon="9.5377658"><ele>144.0</ele><time>2026-04-24T10:44:34.99Z</time></trkpt><trkpt lat="45.5898161" lon="9.5379195"><ele>144.0</ele><time>2026-04-24T10:44:36.99Z</time></trkpt><trkpt lat="45.5898698" lon="9.538097"><ele>143.2</ele><time>2026-04-24T10:44:38.99Z</time></trkpt><trkpt lat="45.5898763" lon="9.5382487"><ele>142.4</ele><time>2026-04-24T10:44:40.99Z</time></trkpt><trkpt lat="45.5899115" lon="9.5384086"><ele>141.6</ele><time>2026-04-24T10:44:42.99Z</time></trkpt><trkpt lat="45.5899446" lon="9.5385128"><ele>140.8</ele><time>2026-04-24T10:44:44.99Z</time></trkpt><trkpt lat="45.5899711" lon="9.5386281"><ele>140.0</ele><time>2026-04-24T10:44:46.99Z</time></trkpt><trkpt lat="45.5900413" lon="9.5387628"><ele>139.66666666666666</ele><time>2026-04-24T10:44:48.991Z</time></trkpt><trkpt lat="45.5900748" lon="9.5388402"><ele>139.33333333333331</ele><time>2026-04-24T10:44:49.99Z</time></trkpt><trkpt lat="45.5901234" lon="9.5390071"><ele>139.0</ele><time>2026-04-24T10:44:51.99Z</time></trkpt><trkpt lat="45.5901416" lon="9.5391311"><ele>138.66666666666666</ele><time>2026-04-24T10:44:52.99Z</time></trkpt><trkpt lat="45.5901504" lon="9.539227"><ele>138.33333333333334</ele><time>2026-04-24T10:44:53.99Z</time></trkpt><trkpt lat="45.5901706" lon="9.53932"><ele>138.0</ele><time>2026-04-24T10:44:54.99Z</time></trkpt><trkpt lat="45.5902149" lon="9.5394747"><ele>137.6</ele><time>2026-04-24T10:44:56.99Z</time></trkpt><trkpt lat="45.5902432" lon="9.5396204"><ele>137.20000000000002</ele><time>2026-04-24T10:44:58.99Z</time></trkpt><trkpt lat="45.5902078" lon="9.5397467"><ele>136.8</ele><time>2026-04-24T10:45:00.99Z</time></trkpt><trkpt lat="45.5901235" lon="9.5398506"><ele>136.4</ele><time>2026-04-24T10:45:02.99Z</time></trkpt><trkpt lat="45.5900117" lon="9.5398529"><ele>136.0</ele><time>2026-04-24T10:45:04.991Z</time></trkpt><trkpt lat="45.5899143" lon="9.539812"><ele>136.0</ele><time>2026-04-24T10:45:06.99Z</time></trkpt><trkpt lat="45.5898607" lon="9.5397588"><ele>136.0</ele><time>2026-04-24T10:45:07.99Z</time></trkpt><trkpt lat="45.5897753" lon="9.5396351"><ele>136.0</ele><time>2026-04-24T10:45:09.99Z</time></trkpt><trkpt lat="45.5897214" lon="9.539573"><ele>136.0</ele><time>2026-04-24T10:45:10.99Z</time></trkpt><trkpt lat="45.5896372" lon="9.5394678"><ele>136.0</ele><time>2026-04-24T10:45:12.991Z</time></trkpt><trkpt lat="45.5895259" lon="9.5394422"><ele>136.0</ele><time>2026-04-24T10:45:14.991Z</time></trkpt><trkpt lat="45.5894387" lon="9.5394716"><ele>136.0</ele><time>2026-04-24T10:45:16.99Z</time></trkpt><trkpt lat="45.5893426" lon="9.5395358"><ele>136.0</ele><time>2026-04-24T10:45:18.991Z</time></trkpt><trkpt lat="45.5892363" lon="9.5395925"><ele>136.0</ele><time>2026-04-24T10:45:20.99Z</time></trkpt><trkpt lat="45.589138" lon="9.5396222"><ele>136.0</ele><time>2026-04-24T10:45:22.99Z</time></trkpt><trkpt lat="45.5890461" lon="9.5397037"><ele>136.2</ele><time>2026-04-24T10:45:24.99Z</time></trkpt><trkpt lat="45.5889558" lon="9.5397458"><ele>136.39999999999998</ele><time>2026-04-24T10:45:26.99Z</time></trkpt><trkpt lat="45.5888678" lon="9.5398192"><ele>136.6</ele><time>2026-04-24T10:45:28.99Z</time></trkpt><trkpt lat="45.5887903" lon="9.5399147"><ele>136.79999999999998</ele><time>2026-04-24T10:45:30.991Z</time></trkpt><trkpt lat="45.5886733" lon="9.5399565"><ele>137.0</ele><time>2026-04-24T10:45:32.99Z</time></trkpt><trkpt lat="45.5886136" lon="9.5400023"><ele>136.5</ele><time>2026-04-24T10:45:33.99Z</time></trkpt><trkpt lat="45.588553" lon="9.5400651"><ele>136.0</ele><time>2026-04-24T10:45:34.99Z</time></trkpt><trkpt lat="45.5884887" lon="9.5402"><ele>135.5</ele><time>2026-04-24T10:45:36.99Z</time></trkpt><trkpt lat="45.5884484" lon="9.5402753"><ele>135.0</ele><time>2026-04-24T10:45:37.991Z</time></trkpt><trkpt lat="45.58837" lon="9.5403532"><ele>134.5</ele><time>2026-04-24T10:45:39.991Z</time></trkpt><trkpt lat="45.5883046" lon="9.5404138"><ele>134.0</ele><time>2026-04-24T10:45:40.99Z</time></trkpt><trkpt lat="45.5882541" lon="9.540524"><ele>134.0</ele><time>2026-04-24T10:45:42.99Z</time></trkpt><trkpt lat="45.5882475" lon="9.54064"><ele>134.0</ele><time>2026-04-24T10:45:44.99Z</time></trkpt><trkpt lat="45.5882341" lon="9.5407583"><ele>134.0</ele><time>2026-04-24T10:45:46.99Z</time></trkpt><trkpt lat="45.5882479" lon="9.5408892"><ele>134.0</ele><time>2026-04-24T10:45:48.99Z</time></trkpt><trkpt lat="45.5882465" lon="9.540995"><ele>134.0</ele><time>2026-04-24T10:45:50.991Z</time></trkpt><trkpt lat="45.588303" lon="9.5410942"><ele>134.0</ele><time>2026-04-24T10:45:52.991Z</time></trkpt><trkpt lat="45.5883686" lon="9.5412394"><ele>134.0</ele><time>2026-04-24T10:45:54.99Z</time></trkpt><trkpt lat="45.5884174" lon="9.541388"><ele>134.0</ele><time>2026-04-24T10:45:56.99Z</time></trkpt><trkpt lat="45.5884718" lon="9.5415145"><ele>134.0</ele><time>2026-04-24T10:45:58.99Z</time></trkpt><trkpt lat="45.5885009" lon="9.5415962"><ele>134.0</ele><time>2026-04-24T10:45:59.99Z</time></trkpt><trkpt lat="45.5885513" lon="9.5417523"><ele>134.0</ele><time>2026-04-24T10:46:01.991Z</time></trkpt><trkpt lat="45.5885923" lon="9.5419054"><ele>134.0</ele><time>2026-04-24T10:46:03.99Z</time></trkpt><trkpt lat="45.588642" lon="9.5420666"><ele>134.0</ele><time>2026-04-24T10:46:05.99Z</time></trkpt><trkpt lat="45.5886992" lon="9.5422236"><ele>134.0</ele><time>2026-04-24T10:46:07.99Z</time></trkpt><trkpt lat="45.5887314" lon="9.5423018"><ele>134.0</ele><time>2026-04-24T10:46:08.99Z</time></trkpt><trkpt lat="45.5887796" lon="9.5424911"><ele>134.0</ele><time>2026-04-24T10:46:10.99Z</time></trkpt><trkpt lat="45.5888119" lon="9.5425899"><ele>134.0</ele><time>2026-04-24T10:46:11.99Z</time></trkpt><trkpt lat="45.5888624" lon="9.5427485"><ele>134.0</ele><time>2026-04-24T10:46:13.99Z</time></trkpt><trkpt lat="45.5889149" lon="9.5429043"><ele>134.0</ele><time>2026-04-24T10:46:15.99Z</time></trkpt><trkpt lat="45.5889643" lon="9.5430456"><ele>134.0</ele><time>2026-04-24T10:46:17.99Z</time></trkpt><trkpt lat="45.5890197" lon="9.5431763"><ele>133.5</ele><time>2026-04-24T10:46:19.99Z</time></trkpt><trkpt lat="45.5890605" lon="9.5433421"><ele>133.0</ele><time>2026-04-24T10:46:21.99Z</time></trkpt><trkpt lat="45.589105" lon="9.5434961"><ele>132.5</ele><time>2026-04-24T10:46:23.99Z</time></trkpt><trkpt lat="45.589154" lon="9.54365"><ele>132.0</ele><time>2026-04-24T10:46:25.99Z</time></trkpt><trkpt lat="45.5892077" lon="9.543808"><ele>132.79999999999998</ele><time>2026-04-24T10:46:27.99Z</time></trkpt><trkpt lat="45.5892679" lon="9.5439549"><ele>133.6</ele><time>2026-04-24T10:46:29.991Z</time></trkpt><trkpt lat="45.5893243" lon="9.5440876"><ele>134.39999999999998</ele><time>2026-04-24T10:46:31.99Z</time></trkpt><trkpt lat="45.5893504" lon="9.5441759"><ele>135.2</ele><time>2026-04-24T10:46:32.99Z</time></trkpt><trkpt lat="45.5893857" lon="9.5443048"><ele>136.0</ele><time>2026-04-24T10:46:34.99Z</time></trkpt><trkpt lat="45.589424" lon="9.5444476"><ele>136.2</ele><time>2026-04-24T10:46:36.99Z</time></trkpt><trkpt lat="45.5894618" lon="9.5445862"><ele>136.39999999999998</ele><time>2026-04-24T10:46:38.991Z</time></trkpt><trkpt lat="45.5894752" lon="9.5446943"><ele>136.6</ele><time>2026-04-24T10:46:39.991Z</time></trkpt><trkpt lat="45.5895168" lon="9.5448313"><ele>136.79999999999998</ele><time>2026-04-24T10:46:41.99Z</time></trkpt><trkpt lat="45.5895434" lon="9.5449172"><ele>137.0</ele><time>2026-04-24T10:46:42.99Z</time></trkpt><trkpt lat="45.5896237" lon="9.5450513"><ele>137.0</ele><time>2026-04-24T10:46:44.99Z</time></trkpt><trkpt lat="45.5897113" lon="9.5451661"><ele>137.0</ele><time>2026-04-24T10:46:46.99Z</time></trkpt><trkpt lat="45.589761" lon="9.5452915"><ele>137.0</ele><time>2026-04-24T10:46:48.991Z</time></trkpt><trkpt lat="45.5898163" lon="9.5454394"><ele>137.0</ele><time>2026-04-24T10:46:50.99Z</time></trkpt><trkpt lat="45.5898314" lon="9.5455344"><ele>137.0</ele><time>2026-04-24T10:46:51.991Z</time></trkpt><trkpt lat="45.5898628" lon="9.545689"><ele>137.2</ele><time>2026-04-24T10:46:53.99Z</time></trkpt><trkpt lat="45.5898905" lon="9.5458647"><ele>137.39999999999998</ele><time>2026-04-24T10:46:55.99Z</time></trkpt><trkpt lat="45.5899118" lon="9.5459533"><ele>137.60000000000002</ele><time>2026-04-24T10:46:56.991Z</time></trkpt><trkpt lat="45.5899338" lon="9.5461329"><ele>137.8</ele><time>2026-04-24T10:46:58.991Z</time></trkpt><trkpt lat="45.5899469" lon="9.5462217"><ele>138.0</ele><time>2026-04-24T10:46:59.99Z</time></trkpt><trkpt lat="45.5899666" lon="9.5463229"><ele>138.20000000000002</ele><time>2026-04-24T10:47:00.991Z</time></trkpt><trkpt lat="45.5900051" lon="9.5464871"><ele>138.4</ele><time>2026-04-24T10:47:02.991Z</time></trkpt><trkpt lat="45.590036" lon="9.5466513"><ele>138.60000000000002</ele><time>2026-04-24T10:47:04.99Z</time></trkpt><trkpt lat="45.5900524" lon="9.5467393"><ele>138.8</ele><time>2026-04-24T10:47:05.99Z</time></trkpt><trkpt lat="45.5900692" lon="9.54684"><ele>139.0</ele><time>2026-04-24T10:47:06.99Z</time></trkpt><trkpt lat="45.5901003" lon="9.5470265"><ele>138.8</ele><time>2026-04-24T10:47:08.991Z</time></trkpt><trkpt lat="45.5901343" lon="9.5471963"><ele>138.60000000000002</ele><time>2026-04-24T10:47:10.99Z</time></trkpt><trkpt lat="45.5901569" lon="9.5472907"><ele>138.4</ele><time>2026-04-24T10:47:11.99Z</time></trkpt><trkpt lat="45.5901901" lon="9.5473856"><ele>138.20000000000002</ele><time>2026-04-24T10:47:12.99Z</time></trkpt><trkpt lat="45.5902385" lon="9.5475362"><ele>138.0</ele><time>2026-04-24T10:47:14.99Z</time></trkpt><trkpt lat="45.5902462" lon="9.5476973"><ele>138.0</ele><time>2026-04-24T10:47:16.991Z</time></trkpt><trkpt lat="45.5902407" lon="9.547845"><ele>138.0</ele><time>2026-04-24T10:47:18.991Z</time></trkpt><trkpt lat="45.5902469" lon="9.5480132"><ele>138.0</ele><time>2026-04-24T10:47:20.99Z</time></trkpt><trkpt lat="45.5902572" lon="9.5481666"><ele>138.0</ele><time>2026-04-24T10:47:22.991Z</time></trkpt><trkpt lat="45.590269" lon="9.5483147"><ele>138.0</ele><time>2026-04-24T10:47:24.991Z</time></trkpt><trkpt lat="45.5902659" lon="9.5484064"><ele>137.8</ele><time>2026-04-24T10:47:25.991Z</time></trkpt><trkpt lat="45.5902841" lon="9.548564"><ele>137.60000000000002</ele><time>2026-04-24T10:47:27.99Z</time></trkpt><trkpt lat="45.5903148" lon="9.5487306"><ele>137.39999999999998</ele><time>2026-04-24T10:47:29.99Z</time></trkpt><trkpt lat="45.5903336" lon="9.5488836"><ele>137.2</ele><time>2026-04-24T10:47:31.991Z</time></trkpt><trkpt lat="45.590324" lon="9.5490275"><ele>137.0</ele><time>2026-04-24T10:47:33.991Z</time></trkpt><trkpt lat="45.5903196" lon="9.5491854"><ele>137.0</ele><time>2026-04-24T10:47:35.991Z</time></trkpt><trkpt lat="45.5903306" lon="9.5493445"><ele>137.0</ele><time>2026-04-24T10:47:37.991Z</time></trkpt><trkpt lat="45.5903592" lon="9.5495059"><ele>137.0</ele><time>2026-04-24T10:47:39.99Z</time></trkpt><trkpt lat="45.5903956" lon="9.5496621"><ele>137.0</ele><time>2026-04-24T10:47:41.991Z</time></trkpt><trkpt lat="45.5904304" lon="9.5497723"><ele>137.0</ele><time>2026-04-24T10:47:43.991Z</time></trkpt><trkpt lat="45.5904445" lon="9.5498676"><ele>137.33333333333331</ele><time>2026-04-24T10:47:45.99Z</time></trkpt><trkpt lat="45.5904774" lon="9.5499744"><ele>137.66666666666666</ele><time>2026-04-24T10:47:47.99Z</time></trkpt><trkpt lat="45.5905181" lon="9.5501002"><ele>138.0</ele><time>2026-04-24T10:47:49.99Z</time></trkpt><trkpt lat="45.5905629" lon="9.5502418"><ele>138.33333333333334</ele><time>2026-04-24T10:47:51.99Z</time></trkpt><trkpt lat="45.5906029" lon="9.5503544"><ele>138.66666666666669</ele><time>2026-04-24T10:47:52.991Z</time></trkpt><trkpt lat="45.5906306" lon="9.5504385"><ele>139.0</ele><time>2026-04-24T10:47:53.99Z</time></trkpt><trkpt lat="45.5906544" lon="9.5505244"><ele>139.0</ele><time>2026-04-24T10:47:54.99Z</time></trkpt><trkpt lat="45.5907007" lon="9.5506349"><ele>139.0</ele><time>2026-04-24T10:47:56.99Z</time></trkpt><trkpt lat="45.5907382" lon="9.5507625"><ele>139.0</ele><time>2026-04-24T10:47:58.99Z</time></trkpt><trkpt lat="45.5907802" lon="9.5509237"><ele>139.0</ele><time>2026-04-24T10:48:00.991Z</time></trkpt><trkpt lat="45.5907801" lon="9.5510205"><ele>139.0</ele><time>2026-04-24T10:48:01.99Z</time></trkpt><trkpt lat="45.5907919" lon="9.5511138"><ele>139.0</ele><time>2026-04-24T10:48:02.99Z</time></trkpt><trkpt lat="45.5908184" lon="9.5512812"><ele>139.0</ele><time>2026-04-24T10:48:04.99Z</time></trkpt><trkpt lat="45.5908312" lon="9.5513757"><ele>139.0</ele><time>2026-04-24T10:48:05.99Z</time></trkpt><trkpt lat="45.5909055" lon="9.5514849"><ele>139.0</ele><time>2026-04-24T10:48:07.99Z</time></trkpt><trkpt lat="45.5909473" lon="9.5515746"><ele>139.0</ele><time>2026-04-24T10:48:08.99Z</time></trkpt><trkpt lat="45.5910134" lon="9.5517236"><ele>139.0</ele><time>2026-04-24T10:48:10.99Z</time></trkpt><trkpt lat="45.5910889" lon="9.5518698"><ele>139.0</ele><time>2026-04-24T10:48:12.991Z</time></trkpt><trkpt lat="45.5911911" lon="9.5519624"><ele>139.0</ele><time>2026-04-24T10:48:14.991Z</time></trkpt><trkpt lat="45.5912623" lon="9.5520824"><ele>139.0</ele><time>2026-04-24T10:48:16.99Z</time></trkpt><trkpt lat="45.5913296" lon="9.5522079"><ele>139.0</ele><time>2026-04-24T10:48:18.991Z</time></trkpt><trkpt lat="45.5914146" lon="9.5522792"><ele>139.0</ele><time>2026-04-24T10:48:20.99Z</time></trkpt><trkpt lat="45.5914822" lon="9.5522972"><ele>139.0</ele><time>2026-04-24T10:48:21.99Z</time></trkpt><trkpt lat="45.5915525" lon="9.5523147"><ele>139.0</ele><time>2026-04-24T10:48:22.991Z</time></trkpt><trkpt lat="45.5916836" lon="9.5524018"><ele>139.0</ele><time>2026-04-24T10:48:24.991Z</time></trkpt><trkpt lat="45.5917574" lon="9.5524632"><ele>139.0</ele><time>2026-04-24T10:48:25.99Z</time></trkpt><trkpt lat="45.5918081" lon="9.5525184"><ele>139.0</ele><time>2026-04-24T10:48:26.99Z</time></trkpt><trkpt lat="45.5918776" lon="9.5525464"><ele>139.0</ele><time>2026-04-24T10:48:27.99Z</time></trkpt><trkpt lat="45.5921199" lon="9.5525008"><ele>139.2</ele><time>2026-04-24T10:48:33.99Z</time></trkpt><trkpt lat="45.5922075" lon="9.5525555"><ele>139.4</ele><time>2026-04-24T10:48:35.991Z</time></trkpt><trkpt lat="45.592311" lon="9.5526361"><ele>139.6</ele><time>2026-04-24T10:48:37.99Z</time></trkpt><trkpt lat="45.5924228" lon="9.5526864"><ele>139.8</ele><time>2026-04-24T10:48:39.99Z</time></trkpt><trkpt lat="45.5925329" lon="9.5527413"><ele>140.0</ele><time>2026-04-24T10:48:41.99Z</time></trkpt><trkpt lat="45.5925934" lon="9.5527765"><ele>140.0</ele><time>2026-04-24T10:48:42.99Z</time></trkpt><trkpt lat="45.5926514" lon="9.5528269"><ele>140.0</ele><time>2026-04-24T10:48:43.99Z</time></trkpt><trkpt lat="45.5927271" lon="9.5528884"><ele>140.0</ele><time>2026-04-24T10:48:44.991Z</time></trkpt><trkpt lat="45.5928294" lon="9.5529385"><ele>140.0</ele><time>2026-04-24T10:48:46.99Z</time></trkpt><trkpt lat="45.5929338" lon="9.552993"><ele>140.0</ele><time>2026-04-24T10:48:48.99Z</time></trkpt><trkpt lat="45.5930465" lon="9.5530562"><ele>140.0</ele><time>2026-04-24T10:48:50.99Z</time></trkpt><trkpt lat="45.5931518" lon="9.5531007"><ele>140.0</ele><time>2026-04-24T10:48:52.991Z</time></trkpt><trkpt lat="45.5932173" lon="9.5531157"><ele>140.0</ele><time>2026-04-24T10:48:53.99Z</time></trkpt><trkpt lat="45.5933343" lon="9.5531469"><ele>140.0</ele><time>2026-04-24T10:48:55.99Z</time></trkpt><trkpt lat="45.5933947" lon="9.5531782"><ele>140.0</ele><time>2026-04-24T10:48:56.991Z</time></trkpt><trkpt lat="45.5935066" lon="9.5531939"><ele>140.0</ele><time>2026-04-24T10:48:58.99Z</time></trkpt><trkpt lat="45.5936033" lon="9.5531554"><ele>140.0</ele><time>2026-04-24T10:49:00.99Z</time></trkpt><trkpt lat="45.5936636" lon="9.5531174"><ele>140.0</ele><time>2026-04-24T10:49:01.991Z</time></trkpt><trkpt lat="45.5937685" lon="9.5530979"><ele>140.0</ele><time>2026-04-24T10:49:03.99Z</time></trkpt><trkpt lat="45.5938799" lon="9.5531174"><ele>140.0</ele><time>2026-04-24T10:49:05.991Z</time></trkpt><trkpt lat="45.593995" lon="9.553137"><ele>139.8</ele><time>2026-04-24T10:49:07.991Z</time></trkpt><trkpt lat="45.5940751" lon="9.5531718"><ele>139.6</ele><time>2026-04-24T10:49:09.99Z</time></trkpt><trkpt lat="45.5941455" lon="9.553156"><ele>139.4</ele><time>2026-04-24T10:49:11.99Z</time></trkpt><trkpt lat="45.5942371" lon="9.5532098"><ele>139.2</ele><time>2026-04-24T10:49:13.99Z</time></trkpt><trkpt lat="45.5943151" lon="9.5532923"><ele>139.0</ele><time>2026-04-24T10:49:15.99Z</time></trkpt><trkpt lat="45.5944275" lon="9.5533064"><ele>139.0</ele><time>2026-04-24T10:49:17.99Z</time></trkpt><trkpt lat="45.5944907" lon="9.5533274"><ele>139.0</ele><time>2026-04-24T10:49:18.99Z</time></trkpt><trkpt lat="45.5945965" lon="9.553355"><ele>139.0</ele><time>2026-04-24T10:49:20.99Z</time></trkpt><trkpt lat="45.5947272" lon="9.5533405"><ele>139.0</ele><time>2026-04-24T10:49:22.991Z</time></trkpt><trkpt lat="45.5948501" lon="9.5533775"><ele>139.0</ele><time>2026-04-24T10:49:24.991Z</time></trkpt><trkpt lat="45.5949739" lon="9.5533938"><ele>139.0</ele><time>2026-04-24T10:49:26.99Z</time></trkpt><trkpt lat="45.595085" lon="9.5533934"><ele>139.0</ele><time>2026-04-24T10:49:28.99Z</time></trkpt><trkpt lat="45.5951484" lon="9.5533979"><ele>139.0</ele><time>2026-04-24T10:49:29.991Z</time></trkpt><trkpt lat="45.5952147" lon="9.5534112"><ele>139.0</ele><time>2026-04-24T10:49:30.991Z</time></trkpt><trkpt lat="45.5953251" lon="9.5534084"><ele>139.0</ele><time>2026-04-24T10:49:32.99Z</time></trkpt><trkpt lat="45.5954048" lon="9.5533543"><ele>139.0</ele><time>2026-04-24T10:49:34.991Z</time></trkpt><trkpt lat="45.5954113" lon="9.553235"><ele>139.6</ele><time>2026-04-24T10:49:35.991Z</time></trkpt><trkpt lat="45.595489" lon="9.5531276"><ele>140.2</ele><time>2026-04-24T10:49:37.991Z</time></trkpt><trkpt lat="45.5955549" lon="9.5530781"><ele>140.79999999999998</ele><time>2026-04-24T10:49:39.991Z</time></trkpt><trkpt lat="45.595724" lon="9.5531516"><ele>141.4</ele><time>2026-04-24T10:49:44.99Z</time></trkpt><trkpt lat="45.5957961" lon="9.5531096"><ele>142.0</ele><time>2026-04-24T10:49:47.99Z</time></trkpt><trkpt lat="45.5958634" lon="9.5530242"><ele>142.0</ele><time>2026-04-24T10:49:49.99Z</time></trkpt><trkpt lat="45.5959429" lon="9.5530087"><ele>142.0</ele><time>2026-04-24T10:49:51.99Z</time></trkpt><trkpt lat="45.5960055" lon="9.5530713"><ele>142.0</ele><time>2026-04-24T10:49:53.991Z</time></trkpt><trkpt lat="45.596061" lon="9.5531374"><ele>142.0</ele><time>2026-04-24T10:49:55.991Z</time></trkpt><trkpt lat="45.59613" lon="9.5532103"><ele>142.0</ele><time>2026-04-24T10:49:57.99Z</time></trkpt><trkpt lat="45.596211" lon="9.5533032"><ele>142.0</ele><time>2026-04-24T10:49:59.99Z</time></trkpt><trkpt lat="45.5962961" lon="9.5533876"><ele>142.6</ele><time>2026-04-24T10:50:01.99Z</time></trkpt><trkpt lat="45.5963837" lon="9.5534539"><ele>143.2</ele><time>2026-04-24T10:50:03.99Z</time></trkpt><trkpt lat="45.5964803" lon="9.5534867"><ele>143.8</ele><time>2026-04-24T10:50:05.99Z</time></trkpt><trkpt lat="45.5965692" lon="9.553474"><ele>144.4</ele><time>2026-04-24T10:50:07.991Z</time></trkpt><trkpt lat="45.5966566" lon="9.5534378"><ele>145.0</ele><time>2026-04-24T10:50:09.99Z</time></trkpt><trkpt lat="45.5967413" lon="9.5534176"><ele>145.0</ele><time>2026-04-24T10:50:11.99Z</time></trkpt><trkpt lat="45.5968096" lon="9.5534056"><ele>145.0</ele><time>2026-04-24T10:50:13.99Z</time></trkpt><trkpt lat="45.5968761" lon="9.5534011"><ele>145.0</ele><time>2026-04-24T10:50:15.99Z</time></trkpt><trkpt lat="45.5969551" lon="9.5533923"><ele>145.0</ele><time>2026-04-24T10:50:18.99Z</time></trkpt><trkpt lat="45.5970453" lon="9.5533854"><ele>145.0</ele><time>2026-04-24T10:50:21.99Z</time></trkpt><trkpt lat="45.5971081" lon="9.5533689"><ele>145.0</ele><time>2026-04-24T10:50:25.99Z</time></trkpt><trkpt lat="45.597184" lon="9.5533843"><ele>145.0</ele><time>2026-04-24T10:50:29.991Z</time></trkpt><trkpt lat="45.5972422" lon="9.5534361"><ele>146.0</ele><time>2026-04-24T10:50:32.99Z</time></trkpt><trkpt lat="45.5972943" lon="9.5534893"><ele>147.0</ele><time>2026-04-24T10:50:34.991Z</time></trkpt><trkpt lat="45.5973417" lon="9.5535505"><ele>148.0</ele><time>2026-04-24T10:50:36.99Z</time></trkpt><trkpt lat="45.5973947" lon="9.5536541"><ele>149.0</ele><time>2026-04-24T10:50:38.99Z</time></trkpt><trkpt lat="45.597458" lon="9.5537553"><ele>150.0</ele><time>2026-04-24T10:50:40.99Z</time></trkpt><trkpt lat="45.5975271" lon="9.5538489"><ele>151.0</ele><time>2026-04-24T10:50:42.99Z</time></trkpt><trkpt lat="45.5976064" lon="9.5539346"><ele>151.0</ele><time>2026-04-24T10:50:44.99Z</time></trkpt><trkpt lat="45.5976784" lon="9.5540228"><ele>151.0</ele><time>2026-04-24T10:50:46.99Z</time></trkpt><trkpt lat="45.5977598" lon="9.5541034"><ele>151.0</ele><time>2026-04-24T10:50:48.99Z</time></trkpt><trkpt lat="45.597844" lon="9.5541698"><ele>151.0</ele><time>2026-04-24T10:50:50.991Z</time></trkpt><trkpt lat="45.5979259" lon="9.5542235"><ele>151.0</ele><time>2026-04-24T10:50:52.99Z</time></trkpt><trkpt lat="45.5980083" lon="9.5542602"><ele>151.33333333333334</ele><time>2026-04-24T10:50:54.99Z</time></trkpt><trkpt lat="45.59808" lon="9.5542908"><ele>151.66666666666669</ele><time>2026-04-24T10:50:56.991Z</time></trkpt><trkpt lat="45.5981535" lon="9.5543524"><ele>152.0</ele><time>2026-04-24T10:50:58.99Z</time></trkpt><trkpt lat="45.5982384" lon="9.5544175"><ele>152.33333333333334</ele><time>2026-04-24T10:51:00.99Z</time></trkpt><trkpt lat="45.5983126" lon="9.5544706"><ele>152.66666666666666</ele><time>2026-04-24T10:51:02.99Z</time></trkpt><trkpt lat="45.5983798" lon="9.5545194"><ele>153.0</ele><time>2026-04-24T10:51:04.99Z</time></trkpt><trkpt lat="45.5984512" lon="9.5545591"><ele>153.0</ele><time>2026-04-24T10:51:07.99Z</time></trkpt><trkpt lat="45.5985299" lon="9.554622"><ele>153.0</ele><time>2026-04-24T10:51:10.991Z</time></trkpt><trkpt lat="45.5985985" lon="9.5546975"><ele>153.0</ele><time>2026-04-24T10:51:13.99Z</time></trkpt><trkpt lat="45.5986735" lon="9.5547483"><ele>153.0</ele><time>2026-04-24T10:51:16.991Z</time></trkpt><trkpt lat="45.5987633" lon="9.5547995"><ele>153.0</ele><time>2026-04-24T10:51:22.569Z</time></trkpt><trkpt lat="45.5988288" lon="9.5548332"><ele>153.0</ele><time>2026-04-24T10:51:25.724Z</time></trkpt><trkpt lat="45.598897" lon="9.5548711"><ele>154.5</ele><time>2026-04-24T10:51:28.907Z</time></trkpt><trkpt lat="45.5989858" lon="9.5549233"><ele>156.0</ele><time>2026-04-24T10:51:31.93Z</time></trkpt><trkpt lat="45.5990593" lon="9.5549536"><ele>157.5</ele><time>2026-04-24T10:51:33.984Z</time></trkpt><trkpt lat="45.5991596" lon="9.5550053"><ele>159.0</ele><time>2026-04-24T10:51:36.984Z</time></trkpt><trkpt lat="45.5992248" lon="9.5550265"><ele>160.5</ele><time>2026-04-24T10:51:37.984Z</time></trkpt><trkpt lat="45.5992885" lon="9.5550482"><ele>162.0</ele><time>2026-04-24T10:51:39.984Z</time></trkpt><trkpt lat="45.5993633" lon="9.5550747"><ele>162.0</ele><time>2026-04-24T10:51:41.957Z</time></trkpt><trkpt lat="45.5994505" lon="9.5550802"><ele>162.0</ele><time>2026-04-24T10:51:43.984Z</time></trkpt><trkpt lat="45.5995326" lon="9.5550911"><ele>162.0</ele><time>2026-04-24T10:51:45.985Z</time></trkpt><trkpt lat="45.599608" lon="9.5551033"><ele>162.0</ele><time>2026-04-24T10:51:47.833Z</time></trkpt><trkpt lat="45.5996981" lon="9.5551202"><ele>162.0</ele><time>2026-04-24T10:51:49.984Z</time></trkpt><trkpt lat="45.5997752" lon="9.5551458"><ele>162.0</ele><time>2026-04-24T10:51:51.984Z</time></trkpt><trkpt lat="45.5998538" lon="9.5551734"><ele>163.0</ele><time>2026-04-24T10:51:53.984Z</time></trkpt><trkpt lat="45.5999283" lon="9.5551935"><ele>164.0</ele><time>2026-04-24T10:51:55.985Z</time></trkpt><trkpt lat="45.6000093" lon="9.555216"><ele>165.0</ele><time>2026-04-24T10:51:57.984Z</time></trkpt><trkpt lat="45.6000919" lon="9.5552467"><ele>166.0</ele><time>2026-04-24T10:51:59.985Z</time></trkpt><trkpt lat="45.6001774" lon="9.5552818"><ele>167.0</ele><time>2026-04-24T10:52:01.984Z</time></trkpt><trkpt lat="45.6002717" lon="9.5553292"><ele>168.0</ele><time>2026-04-24T10:52:03.984Z</time></trkpt><trkpt lat="45.6003697" lon="9.5553772"><ele>168.0</ele><time>2026-04-24T10:52:05.984Z</time></trkpt><trkpt lat="45.60046" lon="9.5554351"><ele>168.0</ele><time>2026-04-24T10:52:07.984Z</time></trkpt><trkpt lat="45.6005397" lon="9.5554759"><ele>168.0</ele><time>2026-04-24T10:52:09.984Z</time></trkpt><trkpt lat="45.6006193" lon="9.5555226"><ele>168.0</ele><time>2026-04-24T10:52:11.985Z</time></trkpt><trkpt lat="45.600706" lon="9.5555752"><ele>168.0</ele><time>2026-04-24T10:52:13.984Z</time></trkpt><trkpt lat="45.6007976" lon="9.5556263"><ele>168.0</ele><time>2026-04-24T10:52:15.985Z</time></trkpt><trkpt lat="45.6009056" lon="9.555662"><ele>168.0</ele><time>2026-04-24T10:52:17.984Z</time></trkpt><trkpt lat="45.6010197" lon="9.5557152"><ele>168.0</ele><time>2026-04-24T10:52:19.984Z</time></trkpt><trkpt lat="45.601126" lon="9.555761"><ele>168.0</ele><time>2026-04-24T10:52:21.985Z</time></trkpt><trkpt lat="45.6012239" lon="9.5558009"><ele>168.0</ele><time>2026-04-24T10:52:23.984Z</time></trkpt><trkpt lat="45.6013151" lon="9.5558451"><ele>168.4</ele><time>2026-04-24T10:52:25.984Z</time></trkpt><trkpt lat="45.6014142" lon="9.5558883"><ele>168.8</ele><time>2026-04-24T10:52:27.984Z</time></trkpt><trkpt lat="45.6015117" lon="9.5559364"><ele>169.2</ele><time>2026-04-24T10:52:29.984Z</time></trkpt><trkpt lat="45.6016165" lon="9.5559835"><ele>169.6</ele><time>2026-04-24T10:52:31.985Z</time></trkpt><trkpt lat="45.6017205" lon="9.5560215"><ele>170.0</ele><time>2026-04-24T10:52:33.984Z</time></trkpt><trkpt lat="45.6018148" lon="9.5560375"><ele>170.0</ele><time>2026-04-24T10:52:35.985Z</time></trkpt><trkpt lat="45.6018916" lon="9.5560203"><ele>170.0</ele><time>2026-04-24T10:52:37.985Z</time></trkpt><trkpt lat="45.6019583" lon="9.5559853"><ele>170.0</ele><time>2026-04-24T10:52:38.985Z</time></trkpt><trkpt lat="45.6020581" lon="9.5559157"><ele>170.0</ele><time>2026-04-24T10:52:40.984Z</time></trkpt><trkpt lat="45.6021635" lon="9.5558505"><ele>170.0</ele><time>2026-04-24T10:52:42.984Z</time></trkpt><trkpt lat="45.6022968" lon="9.5558148"><ele>170.66666666666666</ele><time>2026-04-24T10:52:44.984Z</time></trkpt><trkpt lat="45.6023811" lon="9.5557791"><ele>171.33333333333331</ele><time>2026-04-24T10:52:46.985Z</time></trkpt><trkpt lat="45.6024703" lon="9.5556997"><ele>172.0</ele><time>2026-04-24T10:52:48.984Z</time></trkpt><trkpt lat="45.6025329" lon="9.5556598"><ele>172.66666666666666</ele><time>2026-04-24T10:52:49.985Z</time></trkpt><trkpt lat="45.6026104" lon="9.5556119"><ele>173.33333333333334</ele><time>2026-04-24T10:52:51.984Z</time></trkpt><trkpt lat="45.6026597" lon="9.5555526"><ele>174.0</ele><time>2026-04-24T10:52:53.984Z</time></trkpt><trkpt lat="45.6026685" lon="9.5554236"><ele>174.2</ele><time>2026-04-24T10:52:55.984Z</time></trkpt><trkpt lat="45.6026543" lon="9.5552927"><ele>174.39999999999998</ele><time>2026-04-24T10:52:57.984Z</time></trkpt><trkpt lat="45.602644" lon="9.5551601"><ele>174.6</ele><time>2026-04-24T10:52:59.984Z</time></trkpt><trkpt lat="45.6026301" lon="9.5550252"><ele>174.8</ele><time>2026-04-24T10:53:01.984Z</time></trkpt><trkpt lat="45.6026206" lon="9.5548741"><ele>175.0</ele><time>2026-04-24T10:53:03.985Z</time></trkpt><trkpt lat="45.6025895" lon="9.5547722"><ele>175.0</ele><time>2026-04-24T10:53:05.984Z</time></trkpt><trkpt lat="45.60262" lon="9.5546464"><ele>175.0</ele><time>2026-04-24T10:53:06.984Z</time></trkpt><trkpt lat="45.6025632" lon="9.5545912"><ele>175.0</ele><time>2026-04-24T10:53:09.984Z</time></trkpt><trkpt lat="45.6025296" lon="9.5544919"><ele>175.0</ele><time>2026-04-24T10:53:13.984Z</time></trkpt><trkpt lat="45.6025732" lon="9.554382"><ele>175.0</ele><time>2026-04-24T10:53:17.984Z</time></trkpt><trkpt lat="45.6025937" lon="9.5542523"><ele>175.0</ele><time>2026-04-24T10:53:19.984Z</time></trkpt><trkpt lat="45.6026235" lon="9.5541099"><ele>175.0</ele><time>2026-04-24T10:53:21.985Z</time></trkpt><trkpt lat="45.6026622" lon="9.5540139"><ele>175.0</ele><time>2026-04-24T10:53:23.984Z</time></trkpt><trkpt lat="45.6027355" lon="9.5539483"><ele>175.0</ele><time>2026-04-24T10:53:25.984Z</time></trkpt><trkpt lat="45.6028159" lon="9.5539103"><ele>175.0</ele><time>2026-04-24T10:53:27.985Z</time></trkpt><trkpt lat="45.6029008" lon="9.5538919"><ele>175.0</ele><time>2026-04-24T10:53:29.984Z</time></trkpt><trkpt lat="45.6029943" lon="9.5538616"><ele>175.0</ele><time>2026-04-24T10:53:31.985Z</time></trkpt><trkpt lat="45.6030805" lon="9.5538266"><ele>175.0</ele><time>2026-04-24T10:53:33.984Z</time></trkpt><trkpt lat="45.6031644" lon="9.5538134"><ele>175.0</ele><time>2026-04-24T10:53:35.984Z</time></trkpt><trkpt lat="45.6032372" lon="9.5538557"><ele>175.0</ele><time>2026-04-24T10:53:37.984Z</time></trkpt><trkpt lat="45.6032773" lon="9.5539633"><ele>175.0</ele><time>2026-04-24T10:53:39.984Z</time></trkpt><trkpt lat="45.6033013" lon="9.5540831"><ele>175.0</ele><time>2026-04-24T10:53:41.984Z</time></trkpt><trkpt lat="45.6033199" lon="9.5542199"><ele>175.0</ele><time>2026-04-24T10:53:43.984Z</time></trkpt><trkpt lat="45.6033502" lon="9.5543734"><ele>175.0</ele><time>2026-04-24T10:53:45.984Z</time></trkpt><trkpt lat="45.6033859" lon="9.5545337"><ele>175.0</ele><time>2026-04-24T10:53:47.985Z</time></trkpt><trkpt lat="45.6034154" lon="9.5546972"><ele>175.0</ele><time>2026-04-24T10:53:49.984Z</time></trkpt><trkpt lat="45.6034456" lon="9.5548434"><ele>175.0</ele><time>2026-04-24T10:53:51.984Z</time></trkpt><trkpt lat="45.6034678" lon="9.5549347"><ele>175.0</ele><time>2026-04-24T10:53:53.984Z</time></trkpt><trkpt lat="45.6034995" lon="9.5550273"><ele>175.0</ele><time>2026-04-24T10:53:56.984Z</time></trkpt><trkpt lat="45.6035161" lon="9.5551193"><ele>175.0</ele><time>2026-04-24T10:54:49.984Z</time></trkpt><trkpt lat="45.6035763" lon="9.5551522"><ele>175.0</ele><time>2026-04-24T10:54:58.983Z</time></trkpt><trkpt lat="45.6035122" lon="9.5551243"><ele>175.0</ele><time>2026-04-24T10:57:24.984Z</time></trkpt><trkpt lat="45.6034067" lon="9.5551272"><ele>175.0</ele><time>2026-04-24T10:57:40.984Z</time></trkpt><trkpt lat="45.6034401" lon="9.5552295"><ele>175.0</ele><time>2026-04-24T10:57:46.984Z</time></trkpt><trkpt lat="45.6034845" lon="9.5553468"><ele>175.2</ele><time>2026-04-24T10:57:48.984Z</time></trkpt><trkpt lat="45.6035379" lon="9.5554818"><ele>175.4</ele><time>2026-04-24T10:57:50.985Z</time></trkpt><trkpt lat="45.6035732" lon="9.5555918"><ele>175.60000000000002</ele><time>2026-04-24T10:57:52.985Z</time></trkpt><trkpt lat="45.6036006" lon="9.555697"><ele>175.8</ele><time>2026-04-24T10:57:54.985Z</time></trkpt><trkpt lat="45.6037671" lon="9.5557387"><ele>176.0</ele><time>2026-04-24T10:57:59.985Z</time></trkpt><trkpt lat="45.6038477" lon="9.5557425"><ele>175.33333333333331</ele><time>2026-04-24T10:58:01.984Z</time></trkpt><trkpt lat="45.6039148" lon="9.555783"><ele>174.66666666666666</ele><time>2026-04-24T10:58:03.984Z</time></trkpt><trkpt lat="45.6039771" lon="9.5558755"><ele>174.0</ele><time>2026-04-24T10:58:05.984Z</time></trkpt><trkpt lat="45.6040057" lon="9.5559629"><ele>173.33333333333334</ele><time>2026-04-24T10:58:06.984Z</time></trkpt><trkpt lat="45.6040408" lon="9.5560991"><ele>172.66666666666669</ele><time>2026-04-24T10:58:08.984Z</time></trkpt><trkpt lat="45.6040969" lon="9.5562357"><ele>172.0</ele><time>2026-04-24T10:58:10.984Z</time></trkpt><trkpt lat="45.6041336" lon="9.5563095"><ele>171.39999999999998</ele><time>2026-04-24T10:58:11.985Z</time></trkpt><trkpt lat="45.6042084" lon="9.5564439"><ele>170.79999999999998</ele><time>2026-04-24T10:58:13.985Z</time></trkpt><trkpt lat="45.6042473" lon="9.5565183"><ele>170.2</ele><time>2026-04-24T10:58:14.984Z</time></trkpt><trkpt lat="45.6042859" lon="9.5566009"><ele>169.6</ele><time>2026-04-24T10:58:15.985Z</time></trkpt><trkpt lat="45.604355" lon="9.5567427"><ele>169.0</ele><time>2026-04-24T10:58:17.985Z</time></trkpt><trkpt lat="45.6043998" lon="9.5568299"><ele>169.0</ele><time>2026-04-24T10:58:18.984Z</time></trkpt><trkpt lat="45.604437" lon="9.5569274"><ele>169.0</ele><time>2026-04-24T10:58:19.984Z</time></trkpt><trkpt lat="45.604474" lon="9.5570154"><ele>169.0</ele><time>2026-04-24T10:58:20.985Z</time></trkpt><trkpt lat="45.6045188" lon="9.5571019"><ele>169.0</ele><time>2026-04-24T10:58:21.984Z</time></trkpt><trkpt lat="45.604566" lon="9.557203"><ele>169.0</ele><time>2026-04-24T10:58:22.984Z</time></trkpt><trkpt lat="45.60461" lon="9.5573023"><ele>169.0</ele><time>2026-04-24T10:58:23.985Z</time></trkpt><trkpt lat="45.6046459" lon="9.5573865"><ele>168.66666666666669</ele><time>2026-04-24T10:58:24.984Z</time></trkpt><trkpt lat="45.6046911" lon="9.5574704"><ele>168.33333333333334</ele><time>2026-04-24T10:58:25.985Z</time></trkpt><trkpt lat="45.6047346" lon="9.5575577"><ele>168.0</ele><time>2026-04-24T10:58:26.984Z</time></trkpt><trkpt lat="45.6047654" lon="9.5576528"><ele>167.66666666666666</ele><time>2026-04-24T10:58:27.984Z</time></trkpt><trkpt lat="45.604793" lon="9.5577552"><ele>167.33333333333331</ele><time>2026-04-24T10:58:28.984Z</time></trkpt><trkpt lat="45.6047999" lon="9.5578539"><ele>167.0</ele><time>2026-04-24T10:58:29.984Z</time></trkpt><trkpt lat="45.6047687" lon="9.558026"><ele>165.42857142857142</ele><time>2026-04-24T10:58:31.984Z</time></trkpt><trkpt lat="45.6047417" lon="9.5581118"><ele>163.85714285714286</ele><time>2026-04-24T10:58:32.984Z</time></trkpt><trkpt lat="45.6047093" lon="9.5582055"><ele>162.28571428571428</ele><time>2026-04-24T10:58:33.984Z</time></trkpt><trkpt lat="45.6046843" lon="9.5582942"><ele>160.71428571428572</ele><time>2026-04-24T10:58:34.985Z</time></trkpt><trkpt lat="45.6046603" lon="9.558381"><ele>159.14285714285714</ele><time>2026-04-24T10:58:35.985Z</time></trkpt><trkpt lat="45.6046375" lon="9.5584843"><ele>157.57142857142858</ele><time>2026-04-24T10:58:36.984Z</time></trkpt><trkpt lat="45.6046153" lon="9.558582"><ele>156.0</ele><time>2026-04-24T10:58:37.984Z</time></trkpt><trkpt lat="45.6045866" lon="9.5586671"><ele>156.42857142857144</ele><time>2026-04-24T10:58:38.985Z</time></trkpt><trkpt lat="45.604557" lon="9.5587661"><ele>156.85714285714283</ele><time>2026-04-24T10:58:39.985Z</time></trkpt><trkpt lat="45.6045273" lon="9.5588559"><ele>157.28571428571428</ele><time>2026-04-24T10:58:40.985Z</time></trkpt><trkpt lat="45.6044926" lon="9.5589505"><ele>157.71428571428572</ele><time>2026-04-24T10:58:41.984Z</time></trkpt><trkpt lat="45.6044687" lon="9.5590491"><ele>158.14285714285717</ele><time>2026-04-24T10:58:42.984Z</time></trkpt><trkpt lat="45.6044305" lon="9.5591344"><ele>158.57142857142856</ele><time>2026-04-24T10:58:43.984Z</time></trkpt><trkpt lat="45.6043958" lon="9.5592319"><ele>159.0</ele><time>2026-04-24T10:58:44.984Z</time></trkpt><trkpt lat="45.6043637" lon="9.559328"><ele>159.16666666666666</ele><time>2026-04-24T10:58:45.984Z</time></trkpt><trkpt lat="45.6043328" lon="9.5594305"><ele>159.33333333333334</ele><time>2026-04-24T10:58:46.984Z</time></trkpt><trkpt lat="45.6043118" lon="9.5595268"><ele>159.5</ele><time>2026-04-24T10:58:47.984Z</time></trkpt><trkpt lat="45.6042827" lon="9.5596875"><ele>159.66666666666669</ele><time>2026-04-24T10:58:49.984Z</time></trkpt><trkpt lat="45.6042901" lon="9.5597949"><ele>159.83333333333334</ele><time>2026-04-24T10:58:50.984Z</time></trkpt><trkpt lat="45.6042934" lon="9.5599069"><ele>160.0</ele><time>2026-04-24T10:58:51.985Z</time></trkpt><trkpt lat="45.6043034" lon="9.5600091"><ele>160.66666666666669</ele><time>2026-04-24T10:58:52.985Z</time></trkpt><trkpt lat="45.604312" lon="9.5601037"><ele>161.33333333333334</ele><time>2026-04-24T10:58:53.984Z</time></trkpt><trkpt lat="45.6043316" lon="9.5601965"><ele>162.0</ele><time>2026-04-24T10:58:54.985Z</time></trkpt><trkpt lat="45.6043495" lon="9.5602896"><ele>162.66666666666666</ele><time>2026-04-24T10:58:55.984Z</time></trkpt><trkpt lat="45.6043729" lon="9.5603815"><ele>163.33333333333331</ele><time>2026-04-24T10:58:56.984Z</time></trkpt><trkpt lat="45.6043906" lon="9.5604746"><ele>164.0</ele><time>2026-04-24T10:58:57.984Z</time></trkpt><trkpt lat="45.6044229" lon="9.5606415"><ele>164.0</ele><time>2026-04-24T10:58:59.984Z</time></trkpt><trkpt lat="45.6044749" lon="9.560755"><ele>164.0</ele><time>2026-04-24T10:59:01.984Z</time></trkpt><trkpt lat="45.6045511" lon="9.5607111"><ele>164.0</ele><time>2026-04-24T10:59:03.984Z</time></trkpt><trkpt lat="45.6046264" lon="9.5606199"><ele>164.0</ele><time>2026-04-24T10:59:05.984Z</time></trkpt><trkpt lat="45.6047258" lon="9.5605373"><ele>164.0</ele><time>2026-04-24T10:59:07.984Z</time></trkpt><trkpt lat="45.6048427" lon="9.5605108"><ele>163.83333333333331</ele><time>2026-04-24T10:59:09.984Z</time></trkpt><trkpt lat="45.6049613" lon="9.5605083"><ele>163.66666666666666</ele><time>2026-04-24T10:59:11.984Z</time></trkpt><trkpt lat="45.6050261" lon="9.5605098"><ele>163.5</ele><time>2026-04-24T10:59:12.984Z</time></trkpt><trkpt lat="45.6051341" lon="9.5605062"><ele>163.33333333333334</ele><time>2026-04-24T10:59:14.984Z</time></trkpt><trkpt lat="45.6051999" lon="9.5605"><ele>163.16666666666669</ele><time>2026-04-24T10:59:15.984Z</time></trkpt><trkpt lat="45.6052659" lon="9.5604829"><ele>163.0</ele><time>2026-04-24T10:59:16.984Z</time></trkpt><trkpt lat="45.605342" lon="9.5604588"><ele>163.0</ele><time>2026-04-24T10:59:17.984Z</time></trkpt><trkpt lat="45.605416" lon="9.5604469"><ele>163.0</ele><time>2026-04-24T10:59:18.984Z</time></trkpt><trkpt lat="45.6054839" lon="9.5604623"><ele>163.0</ele><time>2026-04-24T10:59:19.985Z</time></trkpt><trkpt lat="45.6055519" lon="9.5604822"><ele>163.0</ele><time>2026-04-24T10:59:20.985Z</time></trkpt><trkpt lat="45.6056258" lon="9.5605158"><ele>163.0</ele><time>2026-04-24T10:59:21.984Z</time></trkpt><trkpt lat="45.6057116" lon="9.5605571"><ele>163.0</ele><time>2026-04-24T10:59:22.985Z</time></trkpt><trkpt lat="45.6057825" lon="9.5606067"><ele>163.0</ele><time>2026-04-24T10:59:23.984Z</time></trkpt><trkpt lat="45.6058513" lon="9.5606624"><ele>163.0</ele><time>2026-04-24T10:59:24.984Z</time></trkpt><trkpt lat="45.6059192" lon="9.5607211"><ele>163.0</ele><time>2026-04-24T10:59:25.984Z</time></trkpt><trkpt lat="45.6059815" lon="9.5607835"><ele>163.0</ele><time>2026-04-24T10:59:26.985Z</time></trkpt><trkpt lat="45.6060413" lon="9.5608345"><ele>163.0</ele><time>2026-04-24T10:59:27.985Z</time></trkpt><trkpt lat="45.6061148" lon="9.5608872"><ele>163.0</ele><time>2026-04-24T10:59:28.985Z</time></trkpt><trkpt lat="45.6061867" lon="9.5609517"><ele>162.33333333333334</ele><time>2026-04-24T10:59:29.984Z</time></trkpt><trkpt lat="45.6062573" lon="9.5610198"><ele>161.66666666666669</ele><time>2026-04-24T10:59:30.984Z</time></trkpt><trkpt lat="45.6063258" lon="9.5610856"><ele>161.0</ele><time>2026-04-24T10:59:31.985Z</time></trkpt><trkpt lat="45.6063914" lon="9.5611492"><ele>160.33333333333334</ele><time>2026-04-24T10:59:32.984Z</time></trkpt><trkpt lat="45.6064523" lon="9.5612068"><ele>159.66666666666666</ele><time>2026-04-24T10:59:33.985Z</time></trkpt><trkpt lat="45.6065113" lon="9.5612763"><ele>159.0</ele><time>2026-04-24T10:59:34.984Z</time></trkpt><trkpt lat="45.6065604" lon="9.5613762"><ele>159.0</ele><time>2026-04-24T10:59:35.984Z</time></trkpt><trkpt lat="45.6065954" lon="9.5614663"><ele>159.0</ele><time>2026-04-24T10:59:36.984Z</time></trkpt><trkpt lat="45.6066228" lon="9.5615484"><ele>159.0</ele><time>2026-04-24T10:59:37.984Z</time></trkpt><trkpt lat="45.6066592" lon="9.5616982"><ele>159.0</ele><time>2026-04-24T10:59:39.985Z</time></trkpt><trkpt lat="45.6066808" lon="9.5618187"><ele>159.0</ele><time>2026-04-24T10:59:41.984Z</time></trkpt><trkpt lat="45.6067016" lon="9.5619258"><ele>159.0</ele><time>2026-04-24T10:59:43.984Z</time></trkpt><trkpt lat="45.6067276" lon="9.562045"><ele>159.66666666666666</ele><time>2026-04-24T10:59:45.984Z</time></trkpt><trkpt lat="45.6067576" lon="9.5621447"><ele>160.33333333333334</ele><time>2026-04-24T10:59:47.984Z</time></trkpt><trkpt lat="45.6067803" lon="9.5622374"><ele>161.0</ele><time>2026-04-24T10:59:49.984Z</time></trkpt><trkpt lat="45.6068016" lon="9.5623377"><ele>161.66666666666669</ele><time>2026-04-24T10:59:51.984Z</time></trkpt><trkpt lat="45.606828" lon="9.5624437"><ele>162.33333333333334</ele><time>2026-04-24T10:59:53.985Z</time></trkpt><trkpt lat="45.6068728" lon="9.5625349"><ele>163.0</ele><time>2026-04-24T10:59:55.984Z</time></trkpt><trkpt lat="45.6069429" lon="9.5625751"><ele>162.83333333333334</ele><time>2026-04-24T10:59:57.985Z</time></trkpt><trkpt lat="45.6070239" lon="9.5626072"><ele>162.66666666666669</ele><time>2026-04-24T10:59:59.984Z</time></trkpt><trkpt lat="45.6071052" lon="9.5626608"><ele>162.5</ele><time>2026-04-24T11:00:01.984Z</time></trkpt><trkpt lat="45.6071957" lon="9.5627204"><ele>162.33333333333334</ele><time>2026-04-24T11:00:03.984Z</time></trkpt><trkpt lat="45.607289" lon="9.5627611"><ele>162.16666666666666</ele><time>2026-04-24T11:00:05.985Z</time></trkpt><trkpt lat="45.6073656" lon="9.5627825"><ele>162.0</ele><time>2026-04-24T11:00:07.984Z</time></trkpt><trkpt lat="45.6074434" lon="9.5627946"><ele>162.0</ele><time>2026-04-24T11:00:09.984Z</time></trkpt><trkpt lat="45.6075305" lon="9.5628083"><ele>162.0</ele><time>2026-04-24T11:00:11.984Z</time></trkpt><trkpt lat="45.6076294" lon="9.5627954"><ele>162.0</ele><time>2026-04-24T11:00:13.985Z</time></trkpt><trkpt lat="45.6077421" lon="9.5627927"><ele>162.0</ele><time>2026-04-24T11:00:15.984Z</time></trkpt><trkpt lat="45.6078455" lon="9.562792"><ele>162.0</ele><time>2026-04-24T11:00:17.984Z</time></trkpt><trkpt lat="45.6079547" lon="9.5627959"><ele>161.8</ele><time>2026-04-24T11:00:19.984Z</time></trkpt><trkpt lat="45.608055" lon="9.5628131"><ele>161.6</ele><time>2026-04-24T11:00:21.984Z</time></trkpt><trkpt lat="45.608154" lon="9.5628395"><ele>161.4</ele><time>2026-04-24T11:00:23.984Z</time></trkpt><trkpt lat="45.6082525" lon="9.5628706"><ele>161.20000000000002</ele><time>2026-04-24T11:00:25.985Z</time></trkpt><trkpt lat="45.6083493" lon="9.5628803"><ele>161.0</ele><time>2026-04-24T11:00:27.984Z</time></trkpt><trkpt lat="45.6084182" lon="9.5628783"><ele>161.0</ele><time>2026-04-24T11:00:29.984Z</time></trkpt><trkpt lat="45.6084954" lon="9.5628704"><ele>161.0</ele><time>2026-04-24T11:00:32.985Z</time></trkpt><trkpt lat="45.6085576" lon="9.562855"><ele>161.0</ele><time>2026-04-24T11:00:34.985Z</time></trkpt><trkpt lat="45.608637" lon="9.562867"><ele>161.0</ele><time>2026-04-24T11:00:36.984Z</time></trkpt><trkpt lat="45.6087437" lon="9.5628884"><ele>161.0</ele><time>2026-04-24T11:00:38.984Z</time></trkpt><trkpt lat="45.6088373" lon="9.5628922"><ele>161.0</ele><time>2026-04-24T11:00:40.984Z</time></trkpt><trkpt lat="45.6089305" lon="9.562905"><ele>161.0</ele><time>2026-04-24T11:00:42.985Z</time></trkpt><trkpt lat="45.6090407" lon="9.5629197"><ele>161.0</ele><time>2026-04-24T11:00:44.984Z</time></trkpt><trkpt lat="45.609151" lon="9.5628611"><ele>161.0</ele><time>2026-04-24T11:00:46.985Z</time></trkpt><trkpt lat="45.6092251" lon="9.5627498"><ele>161.0</ele><time>2026-04-24T11:00:48.984Z</time></trkpt><trkpt lat="45.6092807" lon="9.5626216"><ele>161.0</ele><time>2026-04-24T11:00:50.984Z</time></trkpt><trkpt lat="45.6095032" lon="9.562585"><ele>161.25</ele><time>2026-04-24T11:00:53.984Z</time></trkpt><trkpt lat="45.6095997" lon="9.5625546"><ele>161.5</ele><time>2026-04-24T11:00:55.984Z</time></trkpt><trkpt lat="45.6096922" lon="9.5625412"><ele>161.75</ele><time>2026-04-24T11:00:57.984Z</time></trkpt><trkpt lat="45.6099356" lon="9.5624983"><ele>162.0</ele><time>2026-04-24T11:01:07.984Z</time></trkpt><trkpt lat="45.6100035" lon="9.562479"><ele>162.0</ele><time>2026-04-24T11:01:09.984Z</time></trkpt><trkpt lat="45.6100932" lon="9.5624626"><ele>162.0</ele><time>2026-04-24T11:01:11.985Z</time></trkpt><trkpt lat="45.6101891" lon="9.5624607"><ele>162.0</ele><time>2026-04-24T11:01:13.984Z</time></trkpt><trkpt lat="45.6102645" lon="9.5624732"><ele>162.0</ele><time>2026-04-24T11:01:15.984Z</time></trkpt><trkpt lat="45.6103663" lon="9.5624897"><ele>162.0</ele><time>2026-04-24T11:01:17.984Z</time></trkpt><trkpt lat="45.6104734" lon="9.5624584"><ele>162.2</ele><time>2026-04-24T11:01:19.985Z</time></trkpt><trkpt lat="45.6105813" lon="9.5624079"><ele>162.39999999999998</ele><time>2026-04-24T11:01:21.984Z</time></trkpt><trkpt lat="45.6106746" lon="9.5623536"><ele>162.60000000000002</ele><time>2026-04-24T11:01:23.984Z</time></trkpt><trkpt lat="45.6107578" lon="9.5622835"><ele>162.8</ele><time>2026-04-24T11:01:25.984Z</time></trkpt><trkpt lat="45.6108376" lon="9.5622095"><ele>163.0</ele><time>2026-04-24T11:01:27.984Z</time></trkpt><trkpt lat="45.6109191" lon="9.5621495"><ele>163.0</ele><time>2026-04-24T11:01:29.985Z</time></trkpt><trkpt lat="45.6110038" lon="9.5620834"><ele>163.0</ele><time>2026-04-24T11:01:31.984Z</time></trkpt><trkpt lat="45.6110962" lon="9.5620297"><ele>163.0</ele><time>2026-04-24T11:01:33.984Z</time></trkpt><trkpt lat="45.6111796" lon="9.5619794"><ele>163.0</ele><time>2026-04-24T11:01:35.984Z</time></trkpt><trkpt lat="45.6112656" lon="9.5619214"><ele>163.0</ele><time>2026-04-24T11:01:37.984Z</time></trkpt><trkpt lat="45.6113632" lon="9.5618874"><ele>162.20000000000002</ele><time>2026-04-24T11:01:39.984Z</time></trkpt><trkpt lat="45.6114699" lon="9.5618485"><ele>161.4</ele><time>2026-04-24T11:01:41.985Z</time></trkpt><trkpt lat="45.6115597" lon="9.5618072"><ele>160.60000000000002</ele><time>2026-04-24T11:01:43.985Z</time></trkpt><trkpt lat="45.6116555" lon="9.5617626"><ele>159.8</ele><time>2026-04-24T11:01:45.985Z</time></trkpt><trkpt lat="45.6117658" lon="9.5617354"><ele>159.0</ele><time>2026-04-24T11:01:47.984Z</time></trkpt><trkpt lat="45.6118834" lon="9.5616873"><ele>159.0</ele><time>2026-04-24T11:01:49.984Z</time></trkpt><trkpt lat="45.6119847" lon="9.5616278"><ele>159.0</ele><time>2026-04-24T11:01:51.984Z</time></trkpt><trkpt lat="45.6120932" lon="9.5615465"><ele>159.0</ele><time>2026-04-24T11:01:53.984Z</time></trkpt><trkpt lat="45.6121579" lon="9.5615115"><ele>159.0</ele><time>2026-04-24T11:01:54.984Z</time></trkpt><trkpt lat="45.6122154" lon="9.5614698"><ele>159.0</ele><time>2026-04-24T11:01:55.985Z</time></trkpt><trkpt lat="45.6123683" lon="9.5614107"><ele>159.4</ele><time>2026-04-24T11:01:57.985Z</time></trkpt><trkpt lat="45.6124358" lon="9.5613438"><ele>159.8</ele><time>2026-04-24T11:01:59.985Z</time></trkpt><trkpt lat="45.612508" lon="9.5613035"><ele>160.20000000000002</ele><time>2026-04-24T11:02:00.984Z</time></trkpt><trkpt lat="45.6125754" lon="9.5612723"><ele>160.60000000000002</ele><time>2026-04-24T11:02:01.984Z</time></trkpt><trkpt lat="45.6126796" lon="9.561188"><ele>161.0</ele><time>2026-04-24T11:02:03.984Z</time></trkpt><trkpt lat="45.6127983" lon="9.5611188"><ele>162.4</ele><time>2026-04-24T11:02:05.984Z</time></trkpt><trkpt lat="45.6129093" lon="9.561053"><ele>163.8</ele><time>2026-04-24T11:02:07.984Z</time></trkpt><trkpt lat="45.6129677" lon="9.5610116"><ele>165.20000000000002</ele><time>2026-04-24T11:02:08.984Z</time></trkpt><trkpt lat="45.6130697" lon="9.5609205"><ele>166.60000000000002</ele><time>2026-04-24T11:02:10.984Z</time></trkpt><trkpt lat="45.6131812" lon="9.5608481"><ele>168.0</ele><time>2026-04-24T11:02:12.984Z</time></trkpt><trkpt lat="45.6132459" lon="9.5608138"><ele>168.0</ele><time>2026-04-24T11:02:13.984Z</time></trkpt><trkpt lat="45.6133673" lon="9.560745"><ele>168.0</ele><time>2026-04-24T11:02:15.984Z</time></trkpt><trkpt lat="45.6134885" lon="9.5606704"><ele>168.0</ele><time>2026-04-24T11:02:17.984Z</time></trkpt><trkpt lat="45.6135533" lon="9.5606414"><ele>168.0</ele><time>2026-04-24T11:02:18.984Z</time></trkpt><trkpt lat="45.6136259" lon="9.5606045"><ele>168.0</ele><time>2026-04-24T11:02:20.985Z</time></trkpt><trkpt lat="45.6137071" lon="9.5605635"><ele>168.2</ele><time>2026-04-24T11:02:22.984Z</time></trkpt><trkpt lat="45.613839" lon="9.5605644"><ele>168.4</ele><time>2026-04-24T11:02:24.985Z</time></trkpt><trkpt lat="45.6139031" lon="9.5605359"><ele>168.6</ele><time>2026-04-24T11:02:25.984Z</time></trkpt><trkpt lat="45.6140195" lon="9.5604955"><ele>168.79999999999998</ele><time>2026-04-24T11:02:27.984Z</time></trkpt><trkpt lat="45.6141316" lon="9.5604592"><ele>169.0</ele><time>2026-04-24T11:02:29.984Z</time></trkpt><trkpt lat="45.6142071" lon="9.5604433"><ele>169.0</ele><time>2026-04-24T11:02:30.984Z</time></trkpt><trkpt lat="45.6143163" lon="9.560405"><ele>169.0</ele><time>2026-04-24T11:02:32.984Z</time></trkpt><trkpt lat="45.6144169" lon="9.5603741"><ele>169.0</ele><time>2026-04-24T11:02:34.984Z</time></trkpt><trkpt lat="45.6145431" lon="9.5603986"><ele>169.0</ele><time>2026-04-24T11:02:36.984Z</time></trkpt><trkpt lat="45.6146353" lon="9.5604189"><ele>169.0</ele><time>2026-04-24T11:02:38.984Z</time></trkpt><trkpt lat="45.614725" lon="9.5604548"><ele>169.2</ele><time>2026-04-24T11:02:40.985Z</time></trkpt><trkpt lat="45.6147907" lon="9.5603858"><ele>169.39999999999998</ele><time>2026-04-24T11:02:42.984Z</time></trkpt><trkpt lat="45.6148604" lon="9.5603128"><ele>169.6</ele><time>2026-04-24T11:02:44.984Z</time></trkpt><trkpt lat="45.614952" lon="9.5602453"><ele>169.8</ele><time>2026-04-24T11:02:46.984Z</time></trkpt><trkpt lat="45.6150067" lon="9.5602"><ele>170.0</ele><time>2026-04-24T11:02:47.984Z</time></trkpt><trkpt lat="45.615114" lon="9.560139"><ele>170.16666666666666</ele><time>2026-04-24T11:02:49.984Z</time></trkpt><trkpt lat="45.6152067" lon="9.5601018"><ele>170.33333333333331</ele><time>2026-04-24T11:02:51.984Z</time></trkpt><trkpt lat="45.6152637" lon="9.5600597"><ele>170.5</ele><time>2026-04-24T11:02:53.984Z</time></trkpt><trkpt lat="45.6153263" lon="9.5600246"><ele>170.66666666666666</ele><time>2026-04-24T11:02:57.984Z</time></trkpt><trkpt lat="45.6153996" lon="9.559973"><ele>170.83333333333334</ele><time>2026-04-24T11:03:00.984Z</time></trkpt><trkpt lat="45.6154784" lon="9.5599367"><ele>171.0</ele><time>2026-04-24T11:03:03.984Z</time></trkpt><trkpt lat="45.6158793" lon="9.5601209"><ele>170.99999999999997</ele><time>2026-04-24T11:03:08.987Z</time></trkpt><trkpt lat="45.6159573" lon="9.5600973"><ele>171.0</ele><time>2026-04-24T11:03:14.983Z</time></trkpt><trkpt lat="45.6160253" lon="9.5601526"><ele>171.0</ele><time>2026-04-24T11:03:16.982Z</time></trkpt><trkpt lat="45.6161006" lon="9.5601909"><ele>171.0</ele><time>2026-04-24T11:03:18.983Z</time></trkpt><trkpt lat="45.6161634" lon="9.5602056"><ele>171.0</ele><time>2026-04-24T11:03:20.983Z</time></trkpt><trkpt lat="45.6162274" lon="9.5602499"><ele>170.99999999999997</ele><time>2026-04-24T11:03:22.983Z</time></trkpt><trkpt lat="45.6163039" lon="9.5602579"><ele>171.0</ele><time>2026-04-24T11:03:24.982Z</time></trkpt><trkpt lat="45.6164151" lon="9.5602825"><ele>171.20000000000002</ele><time>2026-04-24T11:03:26.982Z</time></trkpt><trkpt lat="45.6165029" lon="9.5603221"><ele>171.4</ele><time>2026-04-24T11:03:29.982Z</time></trkpt><trkpt lat="45.6165818" lon="9.5603619"><ele>171.6</ele><time>2026-04-24T11:03:32.982Z</time></trkpt><trkpt lat="45.6166532" lon="9.5603722"><ele>171.8</ele><time>2026-04-24T11:03:34.982Z</time></trkpt><trkpt lat="45.616795" lon="9.5603741"><ele>172.0</ele><time>2026-04-24T11:03:36.982Z</time></trkpt><trkpt lat="45.6168946" lon="9.5604039"><ele>172.6</ele><time>2026-04-24T11:03:38.983Z</time></trkpt><trkpt lat="45.6169894" lon="9.5604181"><ele>173.2</ele><time>2026-04-24T11:03:40.982Z</time></trkpt><trkpt lat="45.6170713" lon="9.5604684"><ele>173.8</ele><time>2026-04-24T11:03:42.982Z</time></trkpt><trkpt lat="45.6171674" lon="9.5605194"><ele>174.4</ele><time>2026-04-24T11:03:44.982Z</time></trkpt><trkpt lat="45.6172591" lon="9.5605782"><ele>175.0</ele><time>2026-04-24T11:03:46.982Z</time></trkpt><trkpt lat="45.617339" lon="9.5606244"><ele>175.0</ele><time>2026-04-24T11:03:48.982Z</time></trkpt><trkpt lat="45.6174229" lon="9.5606601"><ele>175.0</ele><time>2026-04-24T11:03:50.982Z</time></trkpt><trkpt lat="45.6175314" lon="9.5606876"><ele>175.0</ele><time>2026-04-24T11:03:51.982Z</time></trkpt><trkpt lat="45.61761" lon="9.5607012"><ele>175.0</ele><time>2026-04-24T11:03:52.982Z</time></trkpt><trkpt lat="45.6176877" lon="9.5607069"><ele>175.0</ele><time>2026-04-24T11:03:53.982Z</time></trkpt><trkpt lat="45.6177585" lon="9.5607294"><ele>175.0</ele><time>2026-04-24T11:03:54.983Z</time></trkpt><trkpt lat="45.617828" lon="9.5607671"><ele>174.66666666666669</ele><time>2026-04-24T11:03:55.982Z</time></trkpt><trkpt lat="45.6179059" lon="9.5608077"><ele>174.33333333333334</ele><time>2026-04-24T11:03:56.982Z</time></trkpt><trkpt lat="45.6179743" lon="9.5608489"><ele>174.0</ele><time>2026-04-24T11:03:57.982Z</time></trkpt><trkpt lat="45.618042" lon="9.5608945"><ele>173.66666666666666</ele><time>2026-04-24T11:03:58.983Z</time></trkpt><trkpt lat="45.6181003" lon="9.5609433"><ele>173.33333333333331</ele><time>2026-04-24T11:03:59.983Z</time></trkpt><trkpt lat="45.6181676" lon="9.5609816"><ele>173.0</ele><time>2026-04-24T11:04:00.983Z</time></trkpt><trkpt lat="45.6182854" lon="9.5610955"><ele>173.0</ele><time>2026-04-24T11:04:02.982Z</time></trkpt><trkpt lat="45.6183442" lon="9.5611557"><ele>173.0</ele><time>2026-04-24T11:04:03.982Z</time></trkpt><trkpt lat="45.6184472" lon="9.5612572"><ele>173.0</ele><time>2026-04-24T11:04:05.983Z</time></trkpt><trkpt lat="45.6185622" lon="9.5613335"><ele>173.0</ele><time>2026-04-24T11:04:07.982Z</time></trkpt><trkpt lat="45.6186702" lon="9.5614044"><ele>173.0</ele><time>2026-04-24T11:04:09.983Z</time></trkpt><trkpt lat="45.6187261" lon="9.5614674"><ele>173.0</ele><time>2026-04-24T11:04:10.983Z</time></trkpt><trkpt lat="45.6188371" lon="9.5615452"><ele>173.0</ele><time>2026-04-24T11:04:12.982Z</time></trkpt><trkpt lat="45.6189311" lon="9.5616364"><ele>173.0</ele><time>2026-04-24T11:04:14.982Z</time></trkpt><trkpt lat="45.618983" lon="9.56169"><ele>173.0</ele><time>2026-04-24T11:04:15.983Z</time></trkpt><trkpt lat="45.6190374" lon="9.5617424"><ele>173.0</ele><time>2026-04-24T11:04:16.983Z</time></trkpt><trkpt lat="45.6190962" lon="9.5618249"><ele>173.0</ele><time>2026-04-24T11:04:17.982Z</time></trkpt><trkpt lat="45.61919" lon="9.5618832"><ele>173.0</ele><time>2026-04-24T11:04:19.982Z</time></trkpt><trkpt lat="45.6192933" lon="9.5619483"><ele>173.0</ele><time>2026-04-24T11:04:21.983Z</time></trkpt><trkpt lat="45.6193995" lon="9.5620111"><ele>173.0</ele><time>2026-04-24T11:04:23.982Z</time></trkpt><trkpt lat="45.6194548" lon="9.5620662"><ele>173.0</ele><time>2026-04-24T11:04:24.982Z</time></trkpt><trkpt lat="45.6195612" lon="9.5621322"><ele>173.0</ele><time>2026-04-24T11:04:26.983Z</time></trkpt><trkpt lat="45.6196554" lon="9.5622067"><ele>174.0</ele><time>2026-04-24T11:04:28.982Z</time></trkpt><trkpt lat="45.6197447" lon="9.5622335"><ele>175.0</ele><time>2026-04-24T11:04:30.982Z</time></trkpt><trkpt lat="45.6198339" lon="9.562273"><ele>176.0</ele><time>2026-04-24T11:04:32.982Z</time></trkpt><trkpt lat="45.6199128" lon="9.5623101"><ele>177.0</ele><time>2026-04-24T11:04:34.983Z</time></trkpt><trkpt lat="45.6199911" lon="9.5623094"><ele>178.0</ele><time>2026-04-24T11:04:35.982Z</time></trkpt><trkpt lat="45.620105" lon="9.5623331"><ele>178.0</ele><time>2026-04-24T11:04:37.982Z</time></trkpt><trkpt lat="45.6201705" lon="9.5623437"><ele>178.0</ele><time>2026-04-24T11:04:38.982Z</time></trkpt><trkpt lat="45.620281" lon="9.5623732"><ele>178.0</ele><time>2026-04-24T11:04:40.982Z</time></trkpt><trkpt lat="45.6203753" lon="9.5624431"><ele>178.0</ele><time>2026-04-24T11:04:42.983Z</time></trkpt><trkpt lat="45.6204826" lon="9.5625048"><ele>178.0</ele><time>2026-04-24T11:04:44.982Z</time></trkpt><trkpt lat="45.6205972" lon="9.5625459"><ele>177.60000000000002</ele><time>2026-04-24T11:04:46.982Z</time></trkpt><trkpt lat="45.620722" lon="9.5625983"><ele>177.20000000000002</ele><time>2026-04-24T11:04:48.982Z</time></trkpt><trkpt lat="45.6208317" lon="9.562659"><ele>176.8</ele><time>2026-04-24T11:04:50.982Z</time></trkpt><trkpt lat="45.6208853" lon="9.5627102"><ele>176.4</ele><time>2026-04-24T11:04:51.982Z</time></trkpt><trkpt lat="45.6209931" lon="9.5627707"><ele>176.0</ele><time>2026-04-24T11:04:53.982Z</time></trkpt><trkpt lat="45.6210548" lon="9.5627927"><ele>175.60000000000002</ele><time>2026-04-24T11:04:54.982Z</time></trkpt><trkpt lat="45.6211549" lon="9.5628232"><ele>175.2</ele><time>2026-04-24T11:04:56.982Z</time></trkpt><trkpt lat="45.6212221" lon="9.5628537"><ele>174.8</ele><time>2026-04-24T11:04:57.983Z</time></trkpt><trkpt lat="45.6213228" lon="9.5628636"><ele>174.39999999999998</ele><time>2026-04-24T11:04:59.982Z</time></trkpt><trkpt lat="45.6213895" lon="9.5628887"><ele>174.0</ele><time>2026-04-24T11:05:00.983Z</time></trkpt><trkpt lat="45.6215061" lon="9.5629315"><ele>174.79999999999998</ele><time>2026-04-24T11:05:02.983Z</time></trkpt><trkpt lat="45.6215719" lon="9.562949"><ele>175.6</ele><time>2026-04-24T11:05:03.983Z</time></trkpt><trkpt lat="45.6216763" lon="9.5629705"><ele>176.4</ele><time>2026-04-24T11:05:05.983Z</time></trkpt><trkpt lat="45.6217884" lon="9.5629945"><ele>177.2</ele><time>2026-04-24T11:05:07.982Z</time></trkpt><trkpt lat="45.6218978" lon="9.5629919"><ele>178.0</ele><time>2026-04-24T11:05:09.982Z</time></trkpt><trkpt lat="45.6219656" lon="9.563025"><ele>177.60000000000002</ele><time>2026-04-24T11:05:10.982Z</time></trkpt><trkpt lat="45.6220697" lon="9.5630502"><ele>177.20000000000002</ele><time>2026-04-24T11:05:12.982Z</time></trkpt><trkpt lat="45.6221378" lon="9.5630589"><ele>176.8</ele><time>2026-04-24T11:05:13.983Z</time></trkpt><trkpt lat="45.6222507" lon="9.5630444"><ele>176.4</ele><time>2026-04-24T11:05:15.982Z</time></trkpt><trkpt lat="45.6223538" lon="9.5629938"><ele>176.0</ele><time>2026-04-24T11:05:17.983Z</time></trkpt><trkpt lat="45.6224156" lon="9.5629642"><ele>176.0</ele><time>2026-04-24T11:05:18.982Z</time></trkpt><trkpt lat="45.6225384" lon="9.5629176"><ele>176.0</ele><time>2026-04-24T11:05:20.982Z</time></trkpt><trkpt lat="45.622656" lon="9.5628739"><ele>176.0</ele><time>2026-04-24T11:05:22.982Z</time></trkpt><trkpt lat="45.6227702" lon="9.5628324"><ele>176.0</ele><time>2026-04-24T11:05:24.983Z</time></trkpt><trkpt lat="45.6228816" lon="9.562774"><ele>176.0</ele><time>2026-04-24T11:05:26.983Z</time></trkpt><trkpt lat="45.6229782" lon="9.5627205"><ele>176.0</ele><time>2026-04-24T11:05:28.982Z</time></trkpt><trkpt lat="45.6230902" lon="9.5626707"><ele>176.0</ele><time>2026-04-24T11:05:30.983Z</time></trkpt><trkpt lat="45.623186" lon="9.562611"><ele>176.0</ele><time>2026-04-24T11:05:32.982Z</time></trkpt><trkpt lat="45.6233005" lon="9.5625644"><ele>176.0</ele><time>2026-04-24T11:05:34.982Z</time></trkpt><trkpt lat="45.6234068" lon="9.5625385"><ele>176.0</ele><time>2026-04-24T11:05:36.982Z</time></trkpt><trkpt lat="45.6235261" lon="9.5625056"><ele>176.0</ele><time>2026-04-24T11:05:38.982Z</time></trkpt><trkpt lat="45.6236203" lon="9.5624669"><ele>176.0</ele><time>2026-04-24T11:05:40.983Z</time></trkpt><trkpt lat="45.6236855" lon="9.5624562"><ele>176.0</ele><time>2026-04-24T11:05:41.982Z</time></trkpt><trkpt lat="45.6238035" lon="9.5624305"><ele>176.0</ele><time>2026-04-24T11:05:43.983Z</time></trkpt><trkpt lat="45.6239167" lon="9.5624236"><ele>176.0</ele><time>2026-04-24T11:05:45.982Z</time></trkpt><trkpt lat="45.6239833" lon="9.5624146"><ele>176.0</ele><time>2026-04-24T11:05:46.982Z</time></trkpt><trkpt lat="45.6240933" lon="9.5623977"><ele>176.0</ele><time>2026-04-24T11:05:48.983Z</time></trkpt><trkpt lat="45.6241555" lon="9.5623833"><ele>176.0</ele><time>2026-04-24T11:05:49.982Z</time></trkpt><trkpt lat="45.6242677" lon="9.5623565"><ele>176.0</ele><time>2026-04-24T11:05:51.982Z</time></trkpt><trkpt lat="45.6243789" lon="9.562333"><ele>176.0</ele><time>2026-04-24T11:05:53.982Z</time></trkpt><trkpt lat="45.6244494" lon="9.5623277"><ele>176.0</ele><time>2026-04-24T11:05:54.983Z</time></trkpt><trkpt lat="45.6245593" lon="9.5623035"><ele>176.0</ele><time>2026-04-24T11:05:56.982Z</time></trkpt><trkpt lat="45.624654" lon="9.5622828"><ele>176.0</ele><time>2026-04-24T11:05:58.983Z</time></trkpt><trkpt lat="45.6247862" lon="9.5622781"><ele>176.0</ele><time>2026-04-24T11:06:00.983Z</time></trkpt><trkpt lat="45.6248944" lon="9.5622522"><ele>175.8</ele><time>2026-04-24T11:06:02.983Z</time></trkpt><trkpt lat="45.6250062" lon="9.5622377"><ele>175.60000000000002</ele><time>2026-04-24T11:06:04.983Z</time></trkpt><trkpt lat="45.6251201" lon="9.5622253"><ele>175.4</ele><time>2026-04-24T11:06:06.982Z</time></trkpt><trkpt lat="45.6252409" lon="9.562195"><ele>175.2</ele><time>2026-04-24T11:06:08.982Z</time></trkpt><trkpt lat="45.6253054" lon="9.5621927"><ele>175.0</ele><time>2026-04-24T11:06:09.983Z</time></trkpt><trkpt lat="45.625431" lon="9.5621784"><ele>175.4</ele><time>2026-04-24T11:06:11.982Z</time></trkpt><trkpt lat="45.6254947" lon="9.5621742"><ele>175.8</ele><time>2026-04-24T11:06:12.982Z</time></trkpt><trkpt lat="45.6256034" lon="9.5621542"><ele>176.2</ele><time>2026-04-24T11:06:14.982Z</time></trkpt><trkpt lat="45.6257065" lon="9.5621358"><ele>176.6</ele><time>2026-04-24T11:06:16.982Z</time></trkpt><trkpt lat="45.6258035" lon="9.5621259"><ele>177.0</ele><time>2026-04-24T11:06:18.982Z</time></trkpt><trkpt lat="45.6259059" lon="9.5621038"><ele>177.0</ele><time>2026-04-24T11:06:20.983Z</time></trkpt><trkpt lat="45.6259722" lon="9.5621028"><ele>177.0</ele><time>2026-04-24T11:06:21.982Z</time></trkpt><trkpt lat="45.6260433" lon="9.5620887"><ele>177.0</ele><time>2026-04-24T11:06:22.982Z</time></trkpt><trkpt lat="45.6261099" lon="9.5620673"><ele>177.0</ele><time>2026-04-24T11:06:23.983Z</time></trkpt><trkpt lat="45.6262257" lon="9.5620438"><ele>177.0</ele><time>2026-04-24T11:06:25.982Z</time></trkpt><trkpt lat="45.6262917" lon="9.56203"><ele>177.0</ele><time>2026-04-24T11:06:26.983Z</time></trkpt><trkpt lat="45.6263973" lon="9.5620119"><ele>177.0</ele><time>2026-04-24T11:06:28.982Z</time></trkpt><trkpt lat="45.6264829" lon="9.5619658"><ele>177.0</ele><time>2026-04-24T11:06:30.982Z</time></trkpt><trkpt lat="45.6265416" lon="9.5620194"><ele>177.0</ele><time>2026-04-24T11:06:31.983Z</time></trkpt><trkpt lat="45.6266072" lon="9.5621293"><ele>177.0</ele><time>2026-04-24T11:06:33.982Z</time></trkpt><trkpt lat="45.6266385" lon="9.5622834"><ele>177.0</ele><time>2026-04-24T11:06:35.983Z</time></trkpt><trkpt lat="45.6266458" lon="9.5624442"><ele>177.0</ele><time>2026-04-24T11:06:37.982Z</time></trkpt><trkpt lat="45.6266522" lon="9.5625926"><ele>177.0</ele><time>2026-04-24T11:06:39.982Z</time></trkpt><trkpt lat="45.6266557" lon="9.5627493"><ele>177.0</ele><time>2026-04-24T11:06:41.982Z</time></trkpt><trkpt lat="45.6266588" lon="9.5628406"><ele>177.0</ele><time>2026-04-24T11:06:42.982Z</time></trkpt><trkpt lat="45.6266699" lon="9.5629981"><ele>177.0</ele><time>2026-04-24T11:06:44.982Z</time></trkpt><trkpt lat="45.6266722" lon="9.5630883"><ele>176.75</ele><time>2026-04-24T11:06:45.982Z</time></trkpt><trkpt lat="45.6266864" lon="9.5632338"><ele>176.5</ele><time>2026-04-24T11:06:47.982Z</time></trkpt><trkpt lat="45.6266867" lon="9.5633965"><ele>176.25</ele><time>2026-04-24T11:06:49.983Z</time></trkpt><trkpt lat="45.6266764" lon="9.5635596"><ele>176.0</ele><time>2026-04-24T11:06:51.982Z</time></trkpt><trkpt lat="45.6266512" lon="9.5637332"><ele>176.5</ele><time>2026-04-24T11:06:53.982Z</time></trkpt><trkpt lat="45.6266173" lon="9.5638651"><ele>177.0</ele><time>2026-04-24T11:06:55.982Z</time></trkpt><trkpt lat="45.6265823" lon="9.5640002"><ele>177.5</ele><time>2026-04-24T11:06:57.982Z</time></trkpt><trkpt lat="45.6265856" lon="9.56412"><ele>178.0</ele><time>2026-04-24T11:06:59.982Z</time></trkpt><trkpt lat="45.6266358" lon="9.5641948"><ele>178.5</ele><time>2026-04-24T11:07:01.982Z</time></trkpt><trkpt lat="45.6267105" lon="9.5642594"><ele>179.0</ele><time>2026-04-24T11:07:03.982Z</time></trkpt><trkpt lat="45.626797" lon="9.5643099"><ele>179.0</ele><time>2026-04-24T11:07:05.982Z</time></trkpt><trkpt lat="45.6268968" lon="9.5643634"><ele>179.0</ele><time>2026-04-24T11:07:07.982Z</time></trkpt><trkpt lat="45.6269927" lon="9.5644201"><ele>179.0</ele><time>2026-04-24T11:07:09.982Z</time></trkpt><trkpt lat="45.6270854" lon="9.564477"><ele>179.0</ele><time>2026-04-24T11:07:11.982Z</time></trkpt><trkpt lat="45.6271725" lon="9.5645364"><ele>179.0</ele><time>2026-04-24T11:07:13.982Z</time></trkpt><trkpt lat="45.6272717" lon="9.5645956"><ele>179.6</ele><time>2026-04-24T11:07:15.983Z</time></trkpt><trkpt lat="45.6273706" lon="9.5646514"><ele>180.2</ele><time>2026-04-24T11:07:17.982Z</time></trkpt><trkpt lat="45.6274707" lon="9.5647112"><ele>180.79999999999998</ele><time>2026-04-24T11:07:19.982Z</time></trkpt><trkpt lat="45.6275663" lon="9.5647867"><ele>181.39999999999998</ele><time>2026-04-24T11:07:21.982Z</time></trkpt><trkpt lat="45.6276675" lon="9.5648474"><ele>182.0</ele><time>2026-04-24T11:07:23.982Z</time></trkpt><trkpt lat="45.6277702" lon="9.5649151"><ele>181.25</ele><time>2026-04-24T11:07:25.982Z</time></trkpt><trkpt lat="45.6278784" lon="9.5649689"><ele>180.5</ele><time>2026-04-24T11:07:27.983Z</time></trkpt><trkpt lat="45.6279882" lon="9.5650141"><ele>179.75</ele><time>2026-04-24T11:07:29.982Z</time></trkpt><trkpt lat="45.6281" lon="9.5650031"><ele>179.0</ele><time>2026-04-24T11:07:31.983Z</time></trkpt><trkpt lat="45.628192" lon="9.5649127"><ele>179.0</ele><time>2026-04-24T11:07:33.982Z</time></trkpt><trkpt lat="45.6282692" lon="9.5647931"><ele>179.0</ele><time>2026-04-24T11:07:35.982Z</time></trkpt><trkpt lat="45.6283721" lon="9.5646829"><ele>179.0</ele><time>2026-04-24T11:07:37.982Z</time></trkpt><trkpt lat="45.6284815" lon="9.564621"><ele>179.0</ele><time>2026-04-24T11:07:39.982Z</time></trkpt><trkpt lat="45.628541" lon="9.5645914"><ele>179.0</ele><time>2026-04-24T11:07:40.983Z</time></trkpt><trkpt lat="45.6286029" lon="9.5645662"><ele>178.79999999999998</ele><time>2026-04-24T11:07:41.982Z</time></trkpt><trkpt lat="45.6287122" lon="9.5645185"><ele>178.6</ele><time>2026-04-24T11:07:43.983Z</time></trkpt><trkpt lat="45.628824" lon="9.5644621"><ele>178.4</ele><time>2026-04-24T11:07:45.982Z</time></trkpt><trkpt lat="45.6288852" lon="9.5644316"><ele>178.2</ele><time>2026-04-24T11:07:46.982Z</time></trkpt><trkpt lat="45.628945" lon="9.5644029"><ele>178.0</ele><time>2026-04-24T11:07:47.982Z</time></trkpt><trkpt lat="45.62905" lon="9.5643557"><ele>178.0</ele><time>2026-04-24T11:07:49.982Z</time></trkpt><trkpt lat="45.6291636" lon="9.5643192"><ele>178.0</ele><time>2026-04-24T11:07:51.983Z</time></trkpt><trkpt lat="45.6292746" lon="9.5642881"><ele>178.0</ele><time>2026-04-24T11:07:53.983Z</time></trkpt><trkpt lat="45.6293835" lon="9.5642409"><ele>178.0</ele><time>2026-04-24T11:07:55.982Z</time></trkpt><trkpt lat="45.6294451" lon="9.56422"><ele>178.0</ele><time>2026-04-24T11:07:56.983Z</time></trkpt><trkpt lat="45.6295057" lon="9.5641928"><ele>178.5</ele><time>2026-04-24T11:07:57.982Z</time></trkpt><trkpt lat="45.6296182" lon="9.5641462"><ele>179.0</ele><time>2026-04-24T11:07:59.982Z</time></trkpt><trkpt lat="45.6297336" lon="9.5641147"><ele>179.5</ele><time>2026-04-24T11:08:01.982Z</time></trkpt><trkpt lat="45.6298624" lon="9.5640954"><ele>180.0</ele><time>2026-04-24T11:08:03.982Z</time></trkpt><trkpt lat="45.6299886" lon="9.5640987"><ele>180.0</ele><time>2026-04-24T11:08:05.983Z</time></trkpt><trkpt lat="45.6301093" lon="9.5640691"><ele>180.0</ele><time>2026-04-24T11:08:07.982Z</time></trkpt><trkpt lat="45.6302221" lon="9.5640522"><ele>180.0</ele><time>2026-04-24T11:08:09.982Z</time></trkpt><trkpt lat="45.6303208" lon="9.5640389"><ele>180.0</ele><time>2026-04-24T11:08:11.982Z</time></trkpt><trkpt lat="45.6304309" lon="9.5640261"><ele>180.0</ele><time>2026-04-24T11:08:13.982Z</time></trkpt><trkpt lat="45.6304962" lon="9.5640182"><ele>180.6</ele><time>2026-04-24T11:08:14.982Z</time></trkpt><trkpt lat="45.6305699" lon="9.564001"><ele>181.2</ele><time>2026-04-24T11:08:15.982Z</time></trkpt><trkpt lat="45.6306895" lon="9.5639755"><ele>181.8</ele><time>2026-04-24T11:08:17.983Z</time></trkpt><trkpt lat="45.6307596" lon="9.5639679"><ele>182.4</ele><time>2026-04-24T11:08:18.983Z</time></trkpt><trkpt lat="45.6308324" lon="9.5639563"><ele>183.0</ele><time>2026-04-24T11:08:19.983Z</time></trkpt><trkpt lat="45.6309556" lon="9.5639381"><ele>183.0</ele><time>2026-04-24T11:08:21.982Z</time></trkpt><trkpt lat="45.6310805" lon="9.563915"><ele>183.0</ele><time>2026-04-24T11:08:23.983Z</time></trkpt><trkpt lat="45.6311544" lon="9.563904"><ele>183.0</ele><time>2026-04-24T11:08:24.982Z</time></trkpt><trkpt lat="45.6312504" lon="9.5638899"><ele>183.0</ele><time>2026-04-24T11:08:26.982Z</time></trkpt><trkpt lat="45.6313547" lon="9.5638636"><ele>183.0</ele><time>2026-04-24T11:08:28.982Z</time></trkpt><trkpt lat="45.6314183" lon="9.5638547"><ele>182.8</ele><time>2026-04-24T11:08:29.982Z</time></trkpt><trkpt lat="45.6315333" lon="9.5638445"><ele>182.60000000000002</ele><time>2026-04-24T11:08:31.983Z</time></trkpt><trkpt lat="45.6316007" lon="9.5638497"><ele>182.39999999999998</ele><time>2026-04-24T11:08:32.983Z</time></trkpt><trkpt lat="45.6317178" lon="9.5638426"><ele>182.2</ele><time>2026-04-24T11:08:34.983Z</time></trkpt><trkpt lat="45.6318168" lon="9.5638362"><ele>182.0</ele><time>2026-04-24T11:08:36.983Z</time></trkpt><trkpt lat="45.6319387" lon="9.5638174"><ele>182.0</ele><time>2026-04-24T11:08:38.983Z</time></trkpt><trkpt lat="45.6320089" lon="9.5638129"><ele>182.0</ele><time>2026-04-24T11:08:39.982Z</time></trkpt><trkpt lat="45.6320791" lon="9.5638026"><ele>182.0</ele><time>2026-04-24T11:08:40.982Z</time></trkpt><trkpt lat="45.6321446" lon="9.5637835"><ele>182.0</ele><time>2026-04-24T11:08:41.983Z</time></trkpt><trkpt lat="45.6322071" lon="9.5637632"><ele>182.0</ele><time>2026-04-24T11:08:42.983Z</time></trkpt><trkpt lat="45.6322694" lon="9.563738"><ele>182.0</ele><time>2026-04-24T11:08:43.982Z</time></trkpt><trkpt lat="45.632393" lon="9.563703"><ele>182.0</ele><time>2026-04-24T11:08:45.983Z</time></trkpt><trkpt lat="45.6324554" lon="9.5636834"><ele>182.0</ele><time>2026-04-24T11:08:46.982Z</time></trkpt><trkpt lat="45.6325745" lon="9.563678"><ele>182.0</ele><time>2026-04-24T11:08:48.983Z</time></trkpt><trkpt lat="45.6326384" lon="9.5636809"><ele>182.0</ele><time>2026-04-24T11:08:49.982Z</time></trkpt><trkpt lat="45.6327041" lon="9.563709"><ele>182.0</ele><time>2026-04-24T11:08:50.982Z</time></trkpt><trkpt lat="45.6327727" lon="9.5637372"><ele>182.0</ele><time>2026-04-24T11:08:51.982Z</time></trkpt><trkpt lat="45.6328329" lon="9.5637678"><ele>182.0</ele><time>2026-04-24T11:08:52.983Z</time></trkpt><trkpt lat="45.6328985" lon="9.5637953"><ele>182.0</ele><time>2026-04-24T11:08:53.982Z</time></trkpt><trkpt lat="45.6329565" lon="9.5638357"><ele>182.0</ele><time>2026-04-24T11:08:54.982Z</time></trkpt><trkpt lat="45.6330804" lon="9.5638897"><ele>182.0</ele><time>2026-04-24T11:08:56.982Z</time></trkpt><trkpt lat="45.6332023" lon="9.5639557"><ele>182.0</ele><time>2026-04-24T11:08:58.982Z</time></trkpt><trkpt lat="45.6332656" lon="9.5639924"><ele>182.0</ele><time>2026-04-24T11:08:59.983Z</time></trkpt><trkpt lat="45.6333713" lon="9.5640549"><ele>182.0</ele><time>2026-04-24T11:09:01.983Z</time></trkpt><trkpt lat="45.6334754" lon="9.5641362"><ele>182.0</ele><time>2026-04-24T11:09:03.982Z</time></trkpt><trkpt lat="45.6335837" lon="9.5642226"><ele>182.0</ele><time>2026-04-24T11:09:05.982Z</time></trkpt><trkpt lat="45.6336906" lon="9.5643081"><ele>181.6</ele><time>2026-04-24T11:09:07.982Z</time></trkpt><trkpt lat="45.6337992" lon="9.5643954"><ele>181.2</ele><time>2026-04-24T11:09:09.982Z</time></trkpt><trkpt lat="45.6338954" lon="9.5644532"><ele>180.8</ele><time>2026-04-24T11:09:11.982Z</time></trkpt><trkpt lat="45.6339834" lon="9.5645014"><ele>180.4</ele><time>2026-04-24T11:09:13.983Z</time></trkpt><trkpt lat="45.6340577" lon="9.5645515"><ele>180.0</ele><time>2026-04-24T11:09:15.983Z</time></trkpt><trkpt lat="45.6341347" lon="9.5645826"><ele>180.6</ele><time>2026-04-24T11:10:13.982Z</time></trkpt><trkpt lat="45.6342028" lon="9.5646391"><ele>181.2</ele><time>2026-04-24T11:10:15.982Z</time></trkpt><trkpt lat="45.6342708" lon="9.5646835"><ele>181.8</ele><time>2026-04-24T11:10:17.982Z</time></trkpt><trkpt lat="45.6343577" lon="9.5647417"><ele>182.4</ele><time>2026-04-24T11:10:19.982Z</time></trkpt><trkpt lat="45.6344497" lon="9.5648106"><ele>183.0</ele><time>2026-04-24T11:10:21.982Z</time></trkpt><trkpt lat="45.634542" lon="9.5648592"><ele>183.0</ele><time>2026-04-24T11:10:23.983Z</time></trkpt><trkpt lat="45.6346192" lon="9.5649193"><ele>183.0</ele><time>2026-04-24T11:10:25.982Z</time></trkpt><trkpt lat="45.634707" lon="9.5649838"><ele>183.0</ele><time>2026-04-24T11:10:27.983Z</time></trkpt><trkpt lat="45.6347907" lon="9.5650346"><ele>183.0</ele><time>2026-04-24T11:10:29.982Z</time></trkpt><trkpt lat="45.6348746" lon="9.5650877"><ele>183.0</ele><time>2026-04-24T11:10:31.983Z</time></trkpt><trkpt lat="45.6349551" lon="9.5651234"><ele>183.0</ele><time>2026-04-24T11:10:33.982Z</time></trkpt><trkpt lat="45.6350558" lon="9.5651855"><ele>183.0</ele><time>2026-04-24T11:10:35.983Z</time></trkpt><trkpt lat="45.6351548" lon="9.5652514"><ele>183.0</ele><time>2026-04-24T11:10:37.982Z</time></trkpt><trkpt lat="45.6352536" lon="9.5653321"><ele>183.0</ele><time>2026-04-24T11:10:39.983Z</time></trkpt><trkpt lat="45.6353344" lon="9.5653878"><ele>183.0</ele><time>2026-04-24T11:10:41.982Z</time></trkpt><trkpt lat="45.6354127" lon="9.565441"><ele>182.60000000000002</ele><time>2026-04-24T11:10:43.982Z</time></trkpt><trkpt lat="45.6354965" lon="9.5655275"><ele>182.20000000000002</ele><time>2026-04-24T11:10:45.982Z</time></trkpt><trkpt lat="45.6355684" lon="9.5656534"><ele>181.8</ele><time>2026-04-24T11:10:47.982Z</time></trkpt><trkpt lat="45.6356205" lon="9.5657948"><ele>181.4</ele><time>2026-04-24T11:10:49.982Z</time></trkpt><trkpt lat="45.6356565" lon="9.5659468"><ele>181.0</ele><time>2026-04-24T11:10:51.982Z</time></trkpt><trkpt lat="45.6356823" lon="9.5661116"><ele>181.16666666666669</ele><time>2026-04-24T11:10:53.983Z</time></trkpt><trkpt lat="45.6357076" lon="9.5662657"><ele>181.33333333333334</ele><time>2026-04-24T11:10:55.982Z</time></trkpt><trkpt lat="45.6357149" lon="9.5663591"><ele>181.5</ele><time>2026-04-24T11:10:56.982Z</time></trkpt><trkpt lat="45.6357231" lon="9.5664566"><ele>181.66666666666666</ele><time>2026-04-24T11:10:57.982Z</time></trkpt><trkpt lat="45.6357467" lon="9.5666514"><ele>181.83333333333331</ele><time>2026-04-24T11:10:58.982Z</time></trkpt><trkpt lat="45.6357598" lon="9.5667438"><ele>182.0</ele><time>2026-04-24T11:10:59.982Z</time></trkpt><trkpt lat="45.6357924" lon="9.5669058"><ele>182.66666666666666</ele><time>2026-04-24T11:11:01.982Z</time></trkpt><trkpt lat="45.6358232" lon="9.5670459"><ele>183.33333333333331</ele><time>2026-04-24T11:11:03.982Z</time></trkpt><trkpt lat="45.6358509" lon="9.5671592"><ele>184.0</ele><time>2026-04-24T11:11:05.982Z</time></trkpt><trkpt lat="45.6358733" lon="9.5672447"><ele>184.66666666666666</ele><time>2026-04-24T11:11:06.982Z</time></trkpt><trkpt lat="45.6358939" lon="9.5673454"><ele>185.33333333333334</ele><time>2026-04-24T11:11:08.982Z</time></trkpt><trkpt lat="45.6359147" lon="9.5674531"><ele>186.0</ele><time>2026-04-24T11:11:10.983Z</time></trkpt><trkpt lat="45.6359537" lon="9.5675423"><ele>186.0</ele><time>2026-04-24T11:11:12.982Z</time></trkpt><trkpt lat="45.636005" lon="9.5675987"><ele>186.0</ele><time>2026-04-24T11:11:15.982Z</time></trkpt><trkpt lat="45.6360938" lon="9.5676616"><ele>186.0</ele><time>2026-04-24T11:11:18.982Z</time></trkpt><trkpt lat="45.6361674" lon="9.5677414"><ele>186.0</ele><time>2026-04-24T11:11:20.982Z</time></trkpt><trkpt lat="45.6362315" lon="9.5678169"><ele>186.0</ele><time>2026-04-24T11:11:22.982Z</time></trkpt><trkpt lat="45.6363256" lon="9.5679148"><ele>185.8</ele><time>2026-04-24T11:11:24.982Z</time></trkpt><trkpt lat="45.6364171" lon="9.5680075"><ele>185.60000000000002</ele><time>2026-04-24T11:11:26.982Z</time></trkpt><trkpt lat="45.6365082" lon="9.5681118"><ele>185.4</ele><time>2026-04-24T11:11:28.982Z</time></trkpt><trkpt lat="45.6365943" lon="9.5682051"><ele>185.2</ele><time>2026-04-24T11:11:30.982Z</time></trkpt><trkpt lat="45.6366797" lon="9.5682901"><ele>185.0</ele><time>2026-04-24T11:11:32.983Z</time></trkpt><trkpt lat="45.6367553" lon="9.5683794"><ele>185.0</ele><time>2026-04-24T11:11:34.982Z</time></trkpt><trkpt lat="45.6368252" lon="9.5684569"><ele>185.0</ele><time>2026-04-24T11:11:36.982Z</time></trkpt><trkpt lat="45.6368736" lon="9.5685443"><ele>185.0</ele><time>2026-04-24T11:11:38.982Z</time></trkpt><trkpt lat="45.6369405" lon="9.5686235"><ele>185.0</ele><time>2026-04-24T11:11:40.982Z</time></trkpt><trkpt lat="45.6369902" lon="9.5687294"><ele>185.0</ele><time>2026-04-24T11:11:42.983Z</time></trkpt><trkpt lat="45.6370635" lon="9.5688645"><ele>185.4</ele><time>2026-04-24T11:11:44.983Z</time></trkpt><trkpt lat="45.6371311" lon="9.5689784"><ele>185.8</ele><time>2026-04-24T11:11:46.982Z</time></trkpt><trkpt lat="45.6372057" lon="9.5690724"><ele>186.2</ele><time>2026-04-24T11:11:48.983Z</time></trkpt><trkpt lat="45.6372914" lon="9.569152"><ele>186.6</ele><time>2026-04-24T11:11:50.983Z</time></trkpt><trkpt lat="45.6373826" lon="9.5692251"><ele>187.0</ele><time>2026-04-24T11:11:52.982Z</time></trkpt><trkpt lat="45.6374462" lon="9.56929"><ele>187.0</ele><time>2026-04-24T11:11:54.983Z</time></trkpt><trkpt lat="45.637513" lon="9.5693178"><ele>187.0</ele><time>2026-04-24T11:11:58.982Z</time></trkpt><trkpt lat="45.6375963" lon="9.5693542"><ele>187.0</ele><time>2026-04-24T11:12:00.983Z</time></trkpt><trkpt lat="45.637656" lon="9.5693927"><ele>187.0</ele><time>2026-04-24T11:12:01.983Z</time></trkpt><trkpt lat="45.6377139" lon="9.5694357"><ele>187.0</ele><time>2026-04-24T11:12:02.982Z</time></trkpt><trkpt lat="45.6378248" lon="9.5694914"><ele>187.0</ele><time>2026-04-24T11:12:04.982Z</time></trkpt><trkpt lat="45.6379377" lon="9.5695435"><ele>187.5</ele><time>2026-04-24T11:12:06.983Z</time></trkpt><trkpt lat="45.6379984" lon="9.5695699"><ele>188.0</ele><time>2026-04-24T11:12:07.982Z</time></trkpt><trkpt lat="45.6380612" lon="9.5695831"><ele>188.5</ele><time>2026-04-24T11:12:08.983Z</time></trkpt><trkpt lat="45.6381795" lon="9.569624"><ele>189.0</ele><time>2026-04-24T11:12:10.982Z</time></trkpt><trkpt lat="45.6382744" lon="9.5696524"><ele>189.5</ele><time>2026-04-24T11:12:12.983Z</time></trkpt><trkpt lat="45.6383691" lon="9.5696704"><ele>190.0</ele><time>2026-04-24T11:12:14.982Z</time></trkpt><trkpt lat="45.6384567" lon="9.5696708"><ele>190.0</ele><time>2026-04-24T11:12:16.982Z</time></trkpt><trkpt lat="45.6385598" lon="9.5696825"><ele>190.0</ele><time>2026-04-24T11:12:18.983Z</time></trkpt><trkpt lat="45.6386554" lon="9.5696978"><ele>190.0</ele><time>2026-04-24T11:12:20.982Z</time></trkpt><trkpt lat="45.6387691" lon="9.5697286"><ele>190.0</ele><time>2026-04-24T11:12:22.982Z</time></trkpt><trkpt lat="45.6388602" lon="9.5697675"><ele>190.0</ele><time>2026-04-24T11:12:24.982Z</time></trkpt><trkpt lat="45.6389371" lon="9.5698837"><ele>190.2</ele><time>2026-04-24T11:12:26.982Z</time></trkpt><trkpt lat="45.6389894" lon="9.5699944"><ele>190.4</ele><time>2026-04-24T11:12:28.982Z</time></trkpt><trkpt lat="45.6390439" lon="9.5701092"><ele>190.60000000000002</ele><time>2026-04-24T11:12:30.982Z</time></trkpt><trkpt lat="45.6391022" lon="9.5702268"><ele>190.8</ele><time>2026-04-24T11:12:32.982Z</time></trkpt><trkpt lat="45.6391525" lon="9.5703382"><ele>191.0</ele><time>2026-04-24T11:12:34.983Z</time></trkpt><trkpt lat="45.6392016" lon="9.5704841"><ele>191.0</ele><time>2026-04-24T11:12:36.982Z</time></trkpt><trkpt lat="45.6392488" lon="9.5706294"><ele>191.0</ele><time>2026-04-24T11:12:38.982Z</time></trkpt><trkpt lat="45.6392819" lon="9.5707607"><ele>191.0</ele><time>2026-04-24T11:12:40.982Z</time></trkpt><trkpt lat="45.6393194" lon="9.5708944"><ele>191.0</ele><time>2026-04-24T11:12:42.982Z</time></trkpt><trkpt lat="45.6393657" lon="9.5710214"><ele>191.0</ele><time>2026-04-24T11:12:44.982Z</time></trkpt><trkpt lat="45.6394096" lon="9.571137"><ele>190.83333333333331</ele><time>2026-04-24T11:12:46.983Z</time></trkpt><trkpt lat="45.6394593" lon="9.5712296"><ele>190.66666666666666</ele><time>2026-04-24T11:12:49.982Z</time></trkpt><trkpt lat="45.6395209" lon="9.5712815"><ele>190.5</ele><time>2026-04-24T11:12:52.982Z</time></trkpt><trkpt lat="45.6395881" lon="9.5713243"><ele>190.33333333333334</ele><time>2026-04-24T11:12:55.982Z</time></trkpt><trkpt lat="45.6396754" lon="9.5713956"><ele>190.16666666666669</ele><time>2026-04-24T11:12:58.983Z</time></trkpt><trkpt lat="45.6397767" lon="9.5714914"><ele>190.0</ele><time>2026-04-24T11:13:00.982Z</time></trkpt><trkpt lat="45.6398339" lon="9.5715302"><ele>190.0</ele><time>2026-04-24T11:13:01.982Z</time></trkpt><trkpt lat="45.6398935" lon="9.5715774"><ele>190.0</ele><time>2026-04-24T11:13:02.982Z</time></trkpt><trkpt lat="45.6399486" lon="9.5716321"><ele>190.0</ele><time>2026-04-24T11:13:03.982Z</time></trkpt><trkpt lat="45.6400556" lon="9.5717112"><ele>190.0</ele><time>2026-04-24T11:13:05.983Z</time></trkpt><trkpt lat="45.6401629" lon="9.5717716"><ele>190.0</ele><time>2026-04-24T11:13:07.982Z</time></trkpt><trkpt lat="45.6402798" lon="9.5718179"><ele>191.33333333333334</ele><time>2026-04-24T11:13:09.983Z</time></trkpt><trkpt lat="45.6403394" lon="9.5718489"><ele>192.66666666666669</ele><time>2026-04-24T11:13:10.982Z</time></trkpt><trkpt lat="45.6405852" lon="9.572111"><ele>194.0</ele><time>2026-04-24T11:13:12.982Z</time></trkpt><trkpt lat="45.6407016" lon="9.5721501"><ele>194.0</ele><time>2026-04-24T11:13:14.982Z</time></trkpt><trkpt lat="45.6408105" lon="9.5721759"><ele>194.0</ele><time>2026-04-24T11:13:16.982Z</time></trkpt><trkpt lat="45.6408999" lon="9.5721685"><ele>194.0</ele><time>2026-04-24T11:13:18.982Z</time></trkpt><trkpt lat="45.6409543" lon="9.5722428"><ele>194.0</ele><time>2026-04-24T11:13:19.982Z</time></trkpt><trkpt lat="45.6410538" lon="9.5723757"><ele>194.0</ele><time>2026-04-24T11:13:21.982Z</time></trkpt><trkpt lat="45.641117" lon="9.5725159"><ele>194.2</ele><time>2026-04-24T11:13:23.982Z</time></trkpt><trkpt lat="45.6411584" lon="9.5725858"><ele>194.39999999999998</ele><time>2026-04-24T11:13:24.983Z</time></trkpt><trkpt lat="45.6412085" lon="9.5726786"><ele>194.6</ele><time>2026-04-24T11:13:26.982Z</time></trkpt><trkpt lat="45.6412829" lon="9.5728145"><ele>194.8</ele><time>2026-04-24T11:13:28.983Z</time></trkpt><trkpt lat="45.6413429" lon="9.5729163"><ele>195.0</ele><time>2026-04-24T11:13:30.982Z</time></trkpt><trkpt lat="45.6414198" lon="9.5730148"><ele>195.0</ele><time>2026-04-24T11:13:32.983Z</time></trkpt><trkpt lat="45.6414918" lon="9.5731071"><ele>195.0</ele><time>2026-04-24T11:13:34.982Z</time></trkpt><trkpt lat="45.64158" lon="9.5732005"><ele>195.0</ele><time>2026-04-24T11:13:36.982Z</time></trkpt><trkpt lat="45.6416248" lon="9.5732702"><ele>195.0</ele><time>2026-04-24T11:13:37.983Z</time></trkpt><trkpt lat="45.6416697" lon="9.5733339"><ele>195.0</ele><time>2026-04-24T11:13:38.982Z</time></trkpt><trkpt lat="45.6417706" lon="9.5734389"><ele>195.0</ele><time>2026-04-24T11:13:40.982Z</time></trkpt><trkpt lat="45.6418615" lon="9.5735388"><ele>195.0</ele><time>2026-04-24T11:13:42.982Z</time></trkpt><trkpt lat="45.6419529" lon="9.5736288"><ele>195.0</ele><time>2026-04-24T11:13:44.982Z</time></trkpt><trkpt lat="45.6420433" lon="9.5737218"><ele>195.0</ele><time>2026-04-24T11:13:46.983Z</time></trkpt><trkpt lat="45.6421178" lon="9.5738317"><ele>195.0</ele><time>2026-04-24T11:13:48.983Z</time></trkpt><trkpt lat="45.6421747" lon="9.573882"><ele>194.8</ele><time>2026-04-24T11:13:49.983Z</time></trkpt><trkpt lat="45.6422839" lon="9.5739576"><ele>194.6</ele><time>2026-04-24T11:13:51.982Z</time></trkpt><trkpt lat="45.6423889" lon="9.5740241"><ele>194.39999999999998</ele><time>2026-04-24T11:13:53.983Z</time></trkpt><trkpt lat="45.6424867" lon="9.5741269"><ele>194.2</ele><time>2026-04-24T11:13:55.982Z</time></trkpt><trkpt lat="45.6425377" lon="9.5741827"><ele>194.0</ele><time>2026-04-24T11:13:56.982Z</time></trkpt><trkpt lat="45.6426448" lon="9.574262"><ele>194.00000000000003</ele><time>2026-04-24T11:13:58.982Z</time></trkpt><trkpt lat="45.6427043" lon="9.5743008"><ele>194.0</ele><time>2026-04-24T11:13:59.982Z</time></trkpt><trkpt lat="45.6427616" lon="9.5743509"><ele>194.0</ele><time>2026-04-24T11:14:00.982Z</time></trkpt><trkpt lat="45.6428178" lon="9.5744084"><ele>194.0</ele><time>2026-04-24T11:14:01.983Z</time></trkpt><trkpt lat="45.6429259" lon="9.5744918"><ele>194.00000000000003</ele><time>2026-04-24T11:14:03.982Z</time></trkpt><trkpt lat="45.6429784" lon="9.5745473"><ele>194.0</ele><time>2026-04-24T11:14:04.982Z</time></trkpt><trkpt lat="45.6430767" lon="9.5746223"><ele>195.0</ele><time>2026-04-24T11:14:06.982Z</time></trkpt><trkpt lat="45.6431689" lon="9.5747109"><ele>196.0</ele><time>2026-04-24T11:14:08.982Z</time></trkpt><trkpt lat="45.6433076" lon="9.5748581"><ele>197.0</ele><time>2026-04-24T11:14:11.982Z</time></trkpt><trkpt lat="45.6434081" lon="9.5749605"><ele>198.0</ele><time>2026-04-24T11:14:13.982Z</time></trkpt><trkpt lat="45.643459" lon="9.5750166"><ele>198.0</ele><time>2026-04-24T11:14:14.982Z</time></trkpt><trkpt lat="45.6435114" lon="9.5750701"><ele>198.0</ele><time>2026-04-24T11:14:15.983Z</time></trkpt><trkpt lat="45.6435627" lon="9.5751282"><ele>198.0</ele><time>2026-04-24T11:14:16.982Z</time></trkpt><trkpt lat="45.6436158" lon="9.5751845"><ele>198.0</ele><time>2026-04-24T11:14:17.982Z</time></trkpt><trkpt lat="45.6437143" lon="9.5752776"><ele>198.0</ele><time>2026-04-24T11:14:19.983Z</time></trkpt><trkpt lat="45.6438024" lon="9.5753899"><ele>198.0</ele><time>2026-04-24T11:14:21.983Z</time></trkpt><trkpt lat="45.6438801" lon="9.5755118"><ele>198.0</ele><time>2026-04-24T11:14:23.982Z</time></trkpt><trkpt lat="45.6439606" lon="9.5756227"><ele>198.0</ele><time>2026-04-24T11:14:25.983Z</time></trkpt><trkpt lat="45.6440509" lon="9.5757346"><ele>198.0</ele><time>2026-04-24T11:14:27.982Z</time></trkpt><trkpt lat="45.6441483" lon="9.5758247"><ele>198.0</ele><time>2026-04-24T11:14:29.982Z</time></trkpt><trkpt lat="45.6442475" lon="9.57592"><ele>198.0</ele><time>2026-04-24T11:14:31.982Z</time></trkpt><trkpt lat="45.6443024" lon="9.5759704"><ele>198.0</ele><time>2026-04-24T11:14:32.983Z</time></trkpt><trkpt lat="45.6444002" lon="9.5760764"><ele>198.0</ele><time>2026-04-24T11:14:34.982Z</time></trkpt><trkpt lat="45.644508" lon="9.5761822"><ele>198.0</ele><time>2026-04-24T11:14:36.983Z</time></trkpt><trkpt lat="45.6445633" lon="9.5762289"><ele>198.0</ele><time>2026-04-24T11:14:37.983Z</time></trkpt><trkpt lat="45.6446644" lon="9.5763297"><ele>198.0</ele><time>2026-04-24T11:14:39.983Z</time></trkpt><trkpt lat="45.6447185" lon="9.5763791"><ele>198.0</ele><time>2026-04-24T11:14:40.983Z</time></trkpt><trkpt lat="45.6447735" lon="9.576435"><ele>198.0</ele><time>2026-04-24T11:14:41.982Z</time></trkpt><trkpt lat="45.644881" lon="9.576534"><ele>198.0</ele><time>2026-04-24T11:14:43.983Z</time></trkpt><trkpt lat="45.6449859" lon="9.5766204"><ele>198.0</ele><time>2026-04-24T11:14:45.982Z</time></trkpt><trkpt lat="45.6450867" lon="9.5767154"><ele>198.0</ele><time>2026-04-24T11:14:47.983Z</time></trkpt><trkpt lat="45.6451452" lon="9.5767577"><ele>198.0</ele><time>2026-04-24T11:14:48.982Z</time></trkpt><trkpt lat="45.6452372" lon="9.5768475"><ele>198.0</ele><time>2026-04-24T11:14:50.983Z</time></trkpt><trkpt lat="45.6453425" lon="9.5769484"><ele>198.0</ele><time>2026-04-24T11:14:52.982Z</time></trkpt><trkpt lat="45.6454393" lon="9.5770292"><ele>198.0</ele><time>2026-04-24T11:14:54.983Z</time></trkpt><trkpt lat="45.645531" lon="9.577103"><ele>198.0</ele><time>2026-04-24T11:14:56.982Z</time></trkpt><trkpt lat="45.6455899" lon="9.5771446"><ele>198.0</ele><time>2026-04-24T11:14:57.982Z</time></trkpt><trkpt lat="45.6456827" lon="9.5772149"><ele>198.0</ele><time>2026-04-24T11:14:59.983Z</time></trkpt><trkpt lat="45.6457852" lon="9.5772787"><ele>198.0</ele><time>2026-04-24T11:15:01.982Z</time></trkpt><trkpt lat="45.6458748" lon="9.5773366"><ele>198.0</ele><time>2026-04-24T11:15:03.982Z</time></trkpt><trkpt lat="45.6459621" lon="9.5774027"><ele>198.0</ele><time>2026-04-24T11:15:05.983Z</time></trkpt><trkpt lat="45.6460266" lon="9.5774269"><ele>198.0</ele><time>2026-04-24T11:15:06.982Z</time></trkpt><trkpt lat="45.6460971" lon="9.577473"><ele>198.0</ele><time>2026-04-24T11:15:07.983Z</time></trkpt><trkpt lat="45.6461554" lon="9.5775153"><ele>198.0</ele><time>2026-04-24T11:15:08.983Z</time></trkpt><trkpt lat="45.6462605" lon="9.5776189"><ele>198.0</ele><time>2026-04-24T11:15:10.983Z</time></trkpt><trkpt lat="45.6463754" lon="9.577706"><ele>198.0</ele><time>2026-04-24T11:15:12.983Z</time></trkpt><trkpt lat="45.6464607" lon="9.5778298"><ele>198.0</ele><time>2026-04-24T11:15:14.983Z</time></trkpt><trkpt lat="45.6465066" lon="9.5778923"><ele>198.0</ele><time>2026-04-24T11:15:15.982Z</time></trkpt><trkpt lat="45.6465642" lon="9.5779795"><ele>198.0</ele><time>2026-04-24T11:15:17.983Z</time></trkpt><trkpt lat="45.6466384" lon="9.5780123"><ele>198.0</ele><time>2026-04-24T11:15:19.982Z</time></trkpt><trkpt lat="45.6467368" lon="9.5780343"><ele>198.0</ele><time>2026-04-24T11:15:21.982Z</time></trkpt><trkpt lat="45.6468428" lon="9.5780441"><ele>198.0</ele><time>2026-04-24T11:15:23.983Z</time></trkpt><trkpt lat="45.6469533" lon="9.5780731"><ele>198.0</ele><time>2026-04-24T11:15:25.982Z</time></trkpt><trkpt lat="45.6470565" lon="9.5780997"><ele>198.0</ele><time>2026-04-24T11:15:27.982Z</time></trkpt><trkpt lat="45.6471754" lon="9.5781634"><ele>198.0</ele><time>2026-04-24T11:15:29.983Z</time></trkpt><trkpt lat="45.6472929" lon="9.5782142"><ele>197.75</ele><time>2026-04-24T11:15:31.982Z</time></trkpt><trkpt lat="45.6473954" lon="9.5782581"><ele>197.5</ele><time>2026-04-24T11:15:33.982Z</time></trkpt><trkpt lat="45.6475049" lon="9.5783108"><ele>197.25</ele><time>2026-04-24T11:15:35.982Z</time></trkpt><trkpt lat="45.6476188" lon="9.5783532"><ele>197.0</ele><time>2026-04-24T11:15:37.982Z</time></trkpt><trkpt lat="45.6477317" lon="9.5783842"><ele>196.25</ele><time>2026-04-24T11:15:39.983Z</time></trkpt><trkpt lat="45.6478396" lon="9.5784251"><ele>195.5</ele><time>2026-04-24T11:15:41.982Z</time></trkpt><trkpt lat="45.6479508" lon="9.5784863"><ele>194.75</ele><time>2026-04-24T11:15:43.982Z</time></trkpt><trkpt lat="45.6480463" lon="9.5785676"><ele>194.0</ele><time>2026-04-24T11:15:45.982Z</time></trkpt><trkpt lat="45.6481556" lon="9.5786571"><ele>195.6</ele><time>2026-04-24T11:15:47.982Z</time></trkpt><trkpt lat="45.648247" lon="9.5787478"><ele>197.2</ele><time>2026-04-24T11:15:49.982Z</time></trkpt><trkpt lat="45.6482997" lon="9.5787992"><ele>198.79999999999998</ele><time>2026-04-24T11:15:50.982Z</time></trkpt><trkpt lat="45.6483904" lon="9.5788944"><ele>200.39999999999998</ele><time>2026-04-24T11:15:52.983Z</time></trkpt><trkpt lat="45.6484421" lon="9.5789554"><ele>202.0</ele><time>2026-04-24T11:15:53.982Z</time></trkpt><trkpt lat="45.648541" lon="9.5790534"><ele>202.0</ele><time>2026-04-24T11:15:55.982Z</time></trkpt><trkpt lat="45.648594" lon="9.5791059"><ele>202.0</ele><time>2026-04-24T11:15:56.983Z</time></trkpt><trkpt lat="45.6486543" lon="9.5791577"><ele>202.0</ele><time>2026-04-24T11:15:57.983Z</time></trkpt><trkpt lat="45.6487079" lon="9.579208"><ele>202.0</ele><time>2026-04-24T11:15:58.982Z</time></trkpt><trkpt lat="45.6487713" lon="9.5792607"><ele>202.0</ele><time>2026-04-24T11:15:59.982Z</time></trkpt><trkpt lat="45.6488265" lon="9.579311"><ele>202.0</ele><time>2026-04-24T11:16:00.982Z</time></trkpt><trkpt lat="45.6488828" lon="9.5793576"><ele>202.0</ele><time>2026-04-24T11:16:01.982Z</time></trkpt><trkpt lat="45.6489892" lon="9.579447"><ele>202.8</ele><time>2026-04-24T11:16:03.982Z</time></trkpt><trkpt lat="45.6490906" lon="9.5795274"><ele>203.6</ele><time>2026-04-24T11:16:05.982Z</time></trkpt><trkpt lat="45.6491955" lon="9.5796055"><ele>204.4</ele><time>2026-04-24T11:16:07.983Z</time></trkpt><trkpt lat="45.649251" lon="9.5796549"><ele>205.20000000000002</ele><time>2026-04-24T11:16:08.983Z</time></trkpt><trkpt lat="45.6493601" lon="9.579724"><ele>206.0</ele><time>2026-04-24T11:16:10.983Z</time></trkpt><trkpt lat="45.6494537" lon="9.579824"><ele>205.4</ele><time>2026-04-24T11:16:12.982Z</time></trkpt><trkpt lat="45.6495428" lon="9.5799146"><ele>204.8</ele><time>2026-04-24T11:16:14.982Z</time></trkpt><trkpt lat="45.6496166" lon="9.5799948"><ele>204.20000000000002</ele><time>2026-04-24T11:16:16.982Z</time></trkpt><trkpt lat="45.6497103" lon="9.5800635"><ele>203.60000000000002</ele><time>2026-04-24T11:16:18.983Z</time></trkpt><trkpt lat="45.6498034" lon="9.5801265"><ele>203.0</ele><time>2026-04-24T11:16:20.983Z</time></trkpt><trkpt lat="45.6499098" lon="9.5802028"><ele>203.00000000000003</ele><time>2026-04-24T11:16:22.982Z</time></trkpt><trkpt lat="45.6499997" lon="9.5802707"><ele>203.0</ele><time>2026-04-24T11:16:24.983Z</time></trkpt><trkpt lat="45.6500611" lon="9.5803324"><ele>203.0</ele><time>2026-04-24T11:16:25.982Z</time></trkpt><trkpt lat="45.6501201" lon="9.580381"><ele>203.0</ele><time>2026-04-24T11:16:26.982Z</time></trkpt><trkpt lat="45.6501759" lon="9.5804376"><ele>203.00000000000003</ele><time>2026-04-24T11:16:27.982Z</time></trkpt><trkpt lat="45.6502609" lon="9.5804833"><ele>203.0</ele><time>2026-04-24T11:16:29.983Z</time></trkpt><trkpt lat="45.6503289" lon="9.5804204"><ele>203.33333333333334</ele><time>2026-04-24T11:16:31.983Z</time></trkpt><trkpt lat="45.6504286" lon="9.5803739"><ele>203.66666666666669</ele><time>2026-04-24T11:16:33.982Z</time></trkpt><trkpt lat="45.6505367" lon="9.5803124"><ele>204.0</ele><time>2026-04-24T11:16:35.983Z</time></trkpt><trkpt lat="45.6506132" lon="9.5802817"><ele>204.33333333333331</ele><time>2026-04-24T11:16:36.982Z</time></trkpt><trkpt lat="45.6506822" lon="9.5802589"><ele>204.66666666666666</ele><time>2026-04-24T11:16:37.982Z</time></trkpt><trkpt lat="45.6507424" lon="9.5802299"><ele>205.0</ele><time>2026-04-24T11:16:38.982Z</time></trkpt><trkpt lat="45.6508663" lon="9.5801973"><ele>203.83333333333331</ele><time>2026-04-24T11:16:40.982Z</time></trkpt><trkpt lat="45.6509359" lon="9.5801881"><ele>202.66666666666666</ele><time>2026-04-24T11:16:41.983Z</time></trkpt><trkpt lat="45.6510052" lon="9.5801835"><ele>201.5</ele><time>2026-04-24T11:16:42.983Z</time></trkpt><trkpt lat="45.6511155" lon="9.5801608"><ele>200.33333333333331</ele><time>2026-04-24T11:16:44.983Z</time></trkpt><trkpt lat="45.6512234" lon="9.5801585"><ele>199.16666666666666</ele><time>2026-04-24T11:16:46.982Z</time></trkpt><trkpt lat="45.6512936" lon="9.5801721"><ele>198.0</ele><time>2026-04-24T11:16:48.982Z</time></trkpt><trkpt lat="45.6513835" lon="9.5801738"><ele>196.66666666666666</ele><time>2026-04-24T11:16:50.982Z</time></trkpt><trkpt lat="45.6514719" lon="9.5801561"><ele>195.33333333333334</ele><time>2026-04-24T11:16:52.982Z</time></trkpt><trkpt lat="45.6515369" lon="9.5801115"><ele>194.0</ele><time>2026-04-24T11:16:54.982Z</time></trkpt><trkpt lat="45.6516121" lon="9.580083"><ele>192.66666666666669</ele><time>2026-04-24T11:16:57.982Z</time></trkpt><trkpt lat="45.6517158" lon="9.5801055"><ele>191.33333333333334</ele><time>2026-04-24T11:16:59.983Z</time></trkpt><trkpt lat="45.651801" lon="9.5801921"><ele>190.0</ele><time>2026-04-24T11:17:01.982Z</time></trkpt><trkpt lat="45.651873" lon="9.5802594"><ele>190.0</ele><time>2026-04-24T11:17:03.983Z</time></trkpt><trkpt lat="45.6519471" lon="9.5803231"><ele>190.0</ele><time>2026-04-24T11:17:05.982Z</time></trkpt><trkpt lat="45.6520331" lon="9.5803752"><ele>190.0</ele><time>2026-04-24T11:17:07.982Z</time></trkpt><trkpt lat="45.6521175" lon="9.5804232"><ele>190.0</ele><time>2026-04-24T11:17:09.983Z</time></trkpt><trkpt lat="45.6522018" lon="9.5804777"><ele>190.0</ele><time>2026-04-24T11:17:11.982Z</time></trkpt><trkpt lat="45.6522826" lon="9.5805263"><ele>190.0</ele><time>2026-04-24T11:17:13.982Z</time></trkpt><trkpt lat="45.6523641" lon="9.580579"><ele>190.0</ele><time>2026-04-24T11:17:15.982Z</time></trkpt><trkpt lat="45.652457" lon="9.5806501"><ele>190.0</ele><time>2026-04-24T11:17:17.983Z</time></trkpt><trkpt lat="45.6525435" lon="9.5807172"><ele>190.0</ele><time>2026-04-24T11:17:19.983Z</time></trkpt><trkpt lat="45.6526295" lon="9.5807916"><ele>190.0</ele><time>2026-04-24T11:17:21.983Z</time></trkpt><trkpt lat="45.6527133" lon="9.5808502"><ele>190.0</ele><time>2026-04-24T11:17:23.983Z</time></trkpt><trkpt lat="45.6528027" lon="9.5809148"><ele>190.0</ele><time>2026-04-24T11:17:25.983Z</time></trkpt><trkpt lat="45.6528943" lon="9.5809865"><ele>190.0</ele><time>2026-04-24T11:17:27.982Z</time></trkpt><trkpt lat="45.6529676" lon="9.5810813"><ele>190.0</ele><time>2026-04-24T11:17:29.983Z</time></trkpt><trkpt lat="45.6530547" lon="9.581152"><ele>190.0</ele><time>2026-04-24T11:17:31.982Z</time></trkpt><trkpt lat="45.6531628" lon="9.5812171"><ele>190.0</ele><time>2026-04-24T11:17:33.982Z</time></trkpt><trkpt lat="45.6532244" lon="9.5812527"><ele>190.0</ele><time>2026-04-24T11:17:34.983Z</time></trkpt><trkpt lat="45.6532841" lon="9.5812819"><ele>190.0</ele><time>2026-04-24T11:17:35.982Z</time></trkpt><trkpt lat="45.6533913" lon="9.5813391"><ele>190.0</ele><time>2026-04-24T11:17:37.982Z</time></trkpt><trkpt lat="45.6534953" lon="9.5813719"><ele>190.0</ele><time>2026-04-24T11:17:39.982Z</time></trkpt><trkpt lat="45.6536174" lon="9.5814889"><ele>189.8</ele><time>2026-04-24T11:17:41.982Z</time></trkpt><trkpt lat="45.6537233" lon="9.5814971"><ele>189.6</ele><time>2026-04-24T11:17:43.982Z</time></trkpt><trkpt lat="45.6538218" lon="9.5815659"><ele>189.39999999999998</ele><time>2026-04-24T11:17:45.982Z</time></trkpt><trkpt lat="45.6539286" lon="9.5816187"><ele>189.2</ele><time>2026-04-24T11:17:47.982Z</time></trkpt><trkpt lat="45.6540368" lon="9.5816537"><ele>189.0</ele><time>2026-04-24T11:17:49.982Z</time></trkpt><trkpt lat="45.6541518" lon="9.5817059"><ele>189.0</ele><time>2026-04-24T11:17:51.983Z</time></trkpt><trkpt lat="45.6542206" lon="9.5817335"><ele>189.0</ele><time>2026-04-24T11:17:52.982Z</time></trkpt><trkpt lat="45.6543235" lon="9.5817941"><ele>189.0</ele><time>2026-04-24T11:17:54.982Z</time></trkpt><trkpt lat="45.6544479" lon="9.5818564"><ele>189.0</ele><time>2026-04-24T11:17:56.982Z</time></trkpt><trkpt lat="45.6545483" lon="9.5819118"><ele>189.0</ele><time>2026-04-24T11:17:58.983Z</time></trkpt><trkpt lat="45.6546087" lon="9.5819466"><ele>188.39999999999998</ele><time>2026-04-24T11:17:59.982Z</time></trkpt><trkpt lat="45.6547141" lon="9.581997"><ele>187.8</ele><time>2026-04-24T11:18:01.982Z</time></trkpt><trkpt lat="45.6548128" lon="9.5820526"><ele>187.2</ele><time>2026-04-24T11:18:03.982Z</time></trkpt><trkpt lat="45.6549265" lon="9.5820828"><ele>186.60000000000002</ele><time>2026-04-24T11:18:05.982Z</time></trkpt><trkpt lat="45.6550235" lon="9.5821371"><ele>186.0</ele><time>2026-04-24T11:18:07.983Z</time></trkpt><trkpt lat="45.6551047" lon="9.5822169"><ele>186.0</ele><time>2026-04-24T11:18:09.982Z</time></trkpt><trkpt lat="45.6551825" lon="9.582276"><ele>186.0</ele><time>2026-04-24T11:18:11.983Z</time></trkpt><trkpt lat="45.6552684" lon="9.5823171"><ele>186.0</ele><time>2026-04-24T11:18:13.983Z</time></trkpt><trkpt lat="45.6553563" lon="9.5823877"><ele>186.0</ele><time>2026-04-24T11:18:15.982Z</time></trkpt><trkpt lat="45.6554548" lon="9.5824567"><ele>186.0</ele><time>2026-04-24T11:18:17.983Z</time></trkpt><trkpt lat="45.6555247" lon="9.5825029"><ele>186.0</ele><time>2026-04-24T11:18:18.982Z</time></trkpt><trkpt lat="45.6556469" lon="9.5825911"><ele>186.0</ele><time>2026-04-24T11:18:20.982Z</time></trkpt><trkpt lat="45.6557152" lon="9.5826501"><ele>186.0</ele><time>2026-04-24T11:18:21.982Z</time></trkpt><trkpt lat="45.6557786" lon="9.58269"><ele>186.0</ele><time>2026-04-24T11:18:22.983Z</time></trkpt><trkpt lat="45.6558949" lon="9.5827631"><ele>186.0</ele><time>2026-04-24T11:18:24.983Z</time></trkpt><trkpt lat="45.6559581" lon="9.5828147"><ele>187.0</ele><time>2026-04-24T11:18:25.982Z</time></trkpt><trkpt lat="45.6560586" lon="9.5829004"><ele>188.0</ele><time>2026-04-24T11:18:27.982Z</time></trkpt><trkpt lat="45.656129" lon="9.5829558"><ele>189.0</ele><time>2026-04-24T11:18:29.982Z</time></trkpt><trkpt lat="45.6562386" lon="9.5830318"><ele>190.0</ele><time>2026-04-24T11:18:31.983Z</time></trkpt><trkpt lat="45.6562979" lon="9.5831258"><ele>191.0</ele><time>2026-04-24T11:18:32.983Z</time></trkpt><trkpt lat="45.6563708" lon="9.5831548"><ele>191.0</ele><time>2026-04-24T11:18:33.983Z</time></trkpt><trkpt lat="45.6564392" lon="9.5832034"><ele>191.0</ele><time>2026-04-24T11:18:34.982Z</time></trkpt><trkpt lat="45.6565036" lon="9.583243"><ele>191.0</ele><time>2026-04-24T11:18:35.983Z</time></trkpt><trkpt lat="45.6566113" lon="9.5833034"><ele>191.0</ele><time>2026-04-24T11:18:37.982Z</time></trkpt><trkpt lat="45.6567102" lon="9.5833763"><ele>191.0</ele><time>2026-04-24T11:18:39.982Z</time></trkpt><trkpt lat="45.6568218" lon="9.58345"><ele>191.0</ele><time>2026-04-24T11:18:41.982Z</time></trkpt><trkpt lat="45.6569128" lon="9.5835295"><ele>191.0</ele><time>2026-04-24T11:18:43.983Z</time></trkpt><trkpt lat="45.6570066" lon="9.5835851"><ele>191.0</ele><time>2026-04-24T11:18:45.983Z</time></trkpt><trkpt lat="45.6571047" lon="9.5836438"><ele>191.0</ele><time>2026-04-24T11:18:47.982Z</time></trkpt><trkpt lat="45.6571534" lon="9.5837044"><ele>191.0</ele><time>2026-04-24T11:18:48.982Z</time></trkpt><trkpt lat="45.6572029" lon="9.5837672"><ele>191.0</ele><time>2026-04-24T11:18:49.983Z</time></trkpt><trkpt lat="45.6572655" lon="9.5838189"><ele>190.8</ele><time>2026-04-24T11:18:50.982Z</time></trkpt><trkpt lat="45.657382" lon="9.5839087"><ele>190.60000000000002</ele><time>2026-04-24T11:18:52.982Z</time></trkpt><trkpt lat="45.6574437" lon="9.5839619"><ele>190.4</ele><time>2026-04-24T11:18:53.983Z</time></trkpt><trkpt lat="45.6575081" lon="9.5839903"><ele>190.2</ele><time>2026-04-24T11:18:54.982Z</time></trkpt><trkpt lat="45.6575729" lon="9.5840347"><ele>190.0</ele><time>2026-04-24T11:18:55.982Z</time></trkpt><trkpt lat="45.6576608" lon="9.5841208"><ele>190.0</ele><time>2026-04-24T11:18:57.982Z</time></trkpt><trkpt lat="45.6577557" lon="9.5842219"><ele>190.0</ele><time>2026-04-24T11:18:59.982Z</time></trkpt><trkpt lat="45.6578334" lon="9.5843087"><ele>190.0</ele><time>2026-04-24T11:19:01.982Z</time></trkpt><trkpt lat="45.6579254" lon="9.5844102"><ele>190.0</ele><time>2026-04-24T11:19:03.982Z</time></trkpt><trkpt lat="45.6579783" lon="9.58446"><ele>190.0</ele><time>2026-04-24T11:19:04.983Z</time></trkpt><trkpt lat="45.6580445" lon="9.5845184"><ele>190.2</ele><time>2026-04-24T11:19:05.982Z</time></trkpt><trkpt lat="45.6581012" lon="9.5845739"><ele>190.4</ele><time>2026-04-24T11:19:06.982Z</time></trkpt><trkpt lat="45.6582043" lon="9.5846569"><ele>190.60000000000002</ele><time>2026-04-24T11:19:08.983Z</time></trkpt><trkpt lat="45.6582626" lon="9.5846999"><ele>190.8</ele><time>2026-04-24T11:19:09.983Z</time></trkpt><trkpt lat="45.6583731" lon="9.5847692"><ele>191.0</ele><time>2026-04-24T11:19:11.982Z</time></trkpt><trkpt lat="45.6584829" lon="9.5848425"><ele>191.0</ele><time>2026-04-24T11:19:13.982Z</time></trkpt><trkpt lat="45.6585453" lon="9.5848758"><ele>191.0</ele><time>2026-04-24T11:19:14.982Z</time></trkpt><trkpt lat="45.6586494" lon="9.584915"><ele>191.0</ele><time>2026-04-24T11:19:16.982Z</time></trkpt><trkpt lat="45.6587353" lon="9.5849304"><ele>191.0</ele><time>2026-04-24T11:19:18.982Z</time></trkpt><trkpt lat="45.6588468" lon="9.5849405"><ele>191.0</ele><time>2026-04-24T11:19:20.982Z</time></trkpt><trkpt lat="45.6589191" lon="9.5849632"><ele>191.0</ele><time>2026-04-24T11:19:21.982Z</time></trkpt><trkpt lat="45.6590709" lon="9.5849384"><ele>190.4</ele><time>2026-04-24T11:19:22.983Z</time></trkpt><trkpt lat="45.6591447" lon="9.5849168"><ele>189.8</ele><time>2026-04-24T11:19:23.982Z</time></trkpt><trkpt lat="45.6592439" lon="9.5849275"><ele>189.20000000000002</ele><time>2026-04-24T11:19:24.983Z</time></trkpt><trkpt lat="45.6593724" lon="9.5849372"><ele>188.60000000000002</ele><time>2026-04-24T11:19:26.982Z</time></trkpt><trkpt lat="45.6594449" lon="9.5849518"><ele>188.0</ele><time>2026-04-24T11:19:27.983Z</time></trkpt><trkpt lat="45.6595165" lon="9.5849755"><ele>187.4</ele><time>2026-04-24T11:19:28.982Z</time></trkpt><trkpt lat="45.6596412" lon="9.5850455"><ele>186.8</ele><time>2026-04-24T11:19:30.982Z</time></trkpt><trkpt lat="45.6597539" lon="9.5851074"><ele>186.2</ele><time>2026-04-24T11:19:32.982Z</time></trkpt><trkpt lat="45.6598195" lon="9.5851417"><ele>185.6</ele><time>2026-04-24T11:19:33.983Z</time></trkpt><trkpt lat="45.6599338" lon="9.5851964"><ele>185.0</ele><time>2026-04-24T11:19:35.983Z</time></trkpt><trkpt lat="45.6600598" lon="9.5852546"><ele>185.0</ele><time>2026-04-24T11:19:37.982Z</time></trkpt><trkpt lat="45.6601295" lon="9.5852825"><ele>185.0</ele><time>2026-04-24T11:19:38.983Z</time></trkpt><trkpt lat="45.6601959" lon="9.5853169"><ele>185.0</ele><time>2026-04-24T11:19:39.982Z</time></trkpt><trkpt lat="45.6602582" lon="9.5853388"><ele>185.0</ele><time>2026-04-24T11:19:40.982Z</time></trkpt><trkpt lat="45.660393" lon="9.5853835"><ele>185.0</ele><time>2026-04-24T11:19:42.982Z</time></trkpt><trkpt lat="45.6604556" lon="9.5854153"><ele>185.0</ele><time>2026-04-24T11:19:43.983Z</time></trkpt><trkpt lat="45.6605771" lon="9.5854605"><ele>186.33333333333331</ele><time>2026-04-24T11:19:45.983Z</time></trkpt><trkpt lat="45.6606451" lon="9.5854771"><ele>187.66666666666666</ele><time>2026-04-24T11:19:46.982Z</time></trkpt><trkpt lat="45.6607644" lon="9.5855129"><ele>189.0</ele><time>2026-04-24T11:19:48.983Z</time></trkpt><trkpt lat="45.6608316" lon="9.5855258"><ele>190.33333333333331</ele><time>2026-04-24T11:19:49.982Z</time></trkpt><trkpt lat="45.6608985" lon="9.5855434"><ele>191.66666666666666</ele><time>2026-04-24T11:19:50.983Z</time></trkpt><trkpt lat="45.6610129" lon="9.5855498"><ele>193.0</ele><time>2026-04-24T11:19:52.982Z</time></trkpt><trkpt lat="45.6611416" lon="9.5855611"><ele>193.2</ele><time>2026-04-24T11:19:54.982Z</time></trkpt><trkpt lat="45.6612593" lon="9.5855686"><ele>193.4</ele><time>2026-04-24T11:19:56.982Z</time></trkpt><trkpt lat="45.6613751" lon="9.5855721"><ele>193.6</ele><time>2026-04-24T11:19:58.983Z</time></trkpt><trkpt lat="45.6614963" lon="9.5855902"><ele>193.79999999999998</ele><time>2026-04-24T11:20:00.982Z</time></trkpt><trkpt lat="45.6615648" lon="9.585593"><ele>194.0</ele><time>2026-04-24T11:20:01.982Z</time></trkpt><trkpt lat="45.6616282" lon="9.585603"><ele>194.0</ele><time>2026-04-24T11:20:02.982Z</time></trkpt><trkpt lat="45.6617475" lon="9.5855922"><ele>194.0</ele><time>2026-04-24T11:20:04.983Z</time></trkpt><trkpt lat="45.6618661" lon="9.5856087"><ele>194.0</ele><time>2026-04-24T11:20:06.982Z</time></trkpt><trkpt lat="45.6619333" lon="9.5856233"><ele>194.0</ele><time>2026-04-24T11:20:07.982Z</time></trkpt><trkpt lat="45.662049" lon="9.5856201"><ele>194.0</ele><time>2026-04-24T11:20:09.983Z</time></trkpt><trkpt lat="45.6621189" lon="9.585619"><ele>193.79999999999998</ele><time>2026-04-24T11:20:10.982Z</time></trkpt><trkpt lat="45.6622408" lon="9.5856279"><ele>193.6</ele><time>2026-04-24T11:20:12.983Z</time></trkpt><trkpt lat="45.662363" lon="9.585654"><ele>193.4</ele><time>2026-04-24T11:20:14.983Z</time></trkpt><trkpt lat="45.6624851" lon="9.5856657"><ele>193.2</ele><time>2026-04-24T11:20:16.983Z</time></trkpt><trkpt lat="45.6625481" lon="9.5856703"><ele>193.0</ele><time>2026-04-24T11:20:17.982Z</time></trkpt><trkpt lat="45.6626765" lon="9.5856851"><ele>193.0</ele><time>2026-04-24T11:20:19.982Z</time></trkpt><trkpt lat="45.6627733" lon="9.5856933"><ele>193.0</ele><time>2026-04-24T11:20:21.982Z</time></trkpt><trkpt lat="45.6628414" lon="9.5856894"><ele>193.0</ele><time>2026-04-24T11:20:22.982Z</time></trkpt><trkpt lat="45.6629658" lon="9.5856711"><ele>193.0</ele><time>2026-04-24T11:20:24.982Z</time></trkpt><trkpt lat="45.6630723" lon="9.5856335"><ele>193.0</ele><time>2026-04-24T11:20:26.982Z</time></trkpt><trkpt lat="45.6631878" lon="9.5855996"><ele>193.0</ele><time>2026-04-24T11:20:28.983Z</time></trkpt><trkpt lat="45.6633023" lon="9.5855848"><ele>193.0</ele><time>2026-04-24T11:20:30.983Z</time></trkpt><trkpt lat="45.6634176" lon="9.585603"><ele>193.0</ele><time>2026-04-24T11:20:32.982Z</time></trkpt><trkpt lat="45.6635544" lon="9.5856479"><ele>193.0</ele><time>2026-04-24T11:20:34.982Z</time></trkpt><trkpt lat="45.6636146" lon="9.5856783"><ele>193.0</ele><time>2026-04-24T11:20:35.983Z</time></trkpt><trkpt lat="45.6637075" lon="9.5857394"><ele>192.60000000000002</ele><time>2026-04-24T11:20:37.983Z</time></trkpt><trkpt lat="45.6637966" lon="9.5857762"><ele>192.20000000000002</ele><time>2026-04-24T11:20:40.982Z</time></trkpt><trkpt lat="45.6638282" lon="9.5858985"><ele>191.8</ele><time>2026-04-24T11:20:42.982Z</time></trkpt><trkpt lat="45.6638908" lon="9.585968"><ele>191.4</ele><time>2026-04-24T11:20:44.983Z</time></trkpt><trkpt lat="45.6639831" lon="9.5860357"><ele>191.0</ele><time>2026-04-24T11:20:46.982Z</time></trkpt><trkpt lat="45.664075" lon="9.5860841"><ele>191.0</ele><time>2026-04-24T11:20:48.982Z</time></trkpt><trkpt lat="45.6641857" lon="9.5861484"><ele>191.0</ele><time>2026-04-24T11:20:50.982Z</time></trkpt><trkpt lat="45.6642937" lon="9.5862148"><ele>191.0</ele><time>2026-04-24T11:20:52.983Z</time></trkpt><trkpt lat="45.6643757" lon="9.586273"><ele>191.0</ele><time>2026-04-24T11:20:54.983Z</time></trkpt><trkpt lat="45.6644328" lon="9.5863146"><ele>191.0</ele><time>2026-04-24T11:20:55.982Z</time></trkpt><trkpt lat="45.6645448" lon="9.5863688"><ele>191.4</ele><time>2026-04-24T11:20:57.982Z</time></trkpt><trkpt lat="45.6646082" lon="9.5864617"><ele>191.8</ele><time>2026-04-24T11:20:59.982Z</time></trkpt><trkpt lat="45.6646924" lon="9.5865761"><ele>192.20000000000002</ele><time>2026-04-24T11:21:01.982Z</time></trkpt><trkpt lat="45.664784" lon="9.5866642"><ele>192.60000000000002</ele><time>2026-04-24T11:21:03.982Z</time></trkpt><trkpt lat="45.6648823" lon="9.5867444"><ele>193.0</ele><time>2026-04-24T11:21:05.982Z</time></trkpt><trkpt lat="45.6649774" lon="9.5867984"><ele>193.0</ele><time>2026-04-24T11:21:07.982Z</time></trkpt><trkpt lat="45.665072" lon="9.5868242"><ele>193.0</ele><time>2026-04-24T11:21:09.983Z</time></trkpt><trkpt lat="45.6651602" lon="9.5868365"><ele>193.0</ele><time>2026-04-24T11:21:11.982Z</time></trkpt><trkpt lat="45.6652716" lon="9.5868378"><ele>193.0</ele><time>2026-04-24T11:21:13.982Z</time></trkpt><trkpt lat="45.6653385" lon="9.5868499"><ele>193.0</ele><time>2026-04-24T11:21:14.982Z</time></trkpt><trkpt lat="45.6654632" lon="9.5868673"><ele>193.0</ele><time>2026-04-24T11:21:16.982Z</time></trkpt><trkpt lat="45.6655839" lon="9.5868575"><ele>193.0</ele><time>2026-04-24T11:21:18.982Z</time></trkpt><trkpt lat="45.665711" lon="9.5868295"><ele>193.0</ele><time>2026-04-24T11:21:20.983Z</time></trkpt><trkpt lat="45.6657826" lon="9.5868165"><ele>193.0</ele><time>2026-04-24T11:21:21.982Z</time></trkpt><trkpt lat="45.6658461" lon="9.5868038"><ele>193.0</ele><time>2026-04-24T11:21:22.982Z</time></trkpt><trkpt lat="45.6660286" lon="9.5868238"><ele>192.8</ele><time>2026-04-24T11:21:24.983Z</time></trkpt><trkpt lat="45.6661273" lon="9.586796"><ele>192.60000000000002</ele><time>2026-04-24T11:21:26.982Z</time></trkpt><trkpt lat="45.6662078" lon="9.5867886"><ele>192.39999999999998</ele><time>2026-04-24T11:21:27.982Z</time></trkpt><trkpt lat="45.6662728" lon="9.5867686"><ele>192.2</ele><time>2026-04-24T11:21:28.982Z</time></trkpt><trkpt lat="45.6664032" lon="9.5867847"><ele>192.0</ele><time>2026-04-24T11:21:30.983Z</time></trkpt><trkpt lat="45.6664754" lon="9.5867907"><ele>192.0</ele><time>2026-04-24T11:21:31.982Z</time></trkpt><trkpt lat="45.666538" lon="9.5868094"><ele>192.0</ele><time>2026-04-24T11:21:32.983Z</time></trkpt><trkpt lat="45.6666041" lon="9.5868537"><ele>192.0</ele><time>2026-04-24T11:21:33.983Z</time></trkpt><trkpt lat="45.6666655" lon="9.5869026"><ele>192.0</ele><time>2026-04-24T11:21:34.982Z</time></trkpt><trkpt lat="45.6667702" lon="9.5869806"><ele>192.0</ele><time>2026-04-24T11:21:36.982Z</time></trkpt><trkpt lat="45.6668567" lon="9.5870632"><ele>192.0</ele><time>2026-04-24T11:21:38.982Z</time></trkpt><trkpt lat="45.6669245" lon="9.5870921"><ele>191.5</ele><time>2026-04-24T11:21:40.982Z</time></trkpt><trkpt lat="45.6670154" lon="9.5869097"><ele>191.0</ele><time>2026-04-24T11:21:44.982Z</time></trkpt><trkpt lat="45.6670314" lon="9.5867718"><ele>190.5</ele><time>2026-04-24T11:21:46.982Z</time></trkpt><trkpt lat="45.6670736" lon="9.5866291"><ele>190.0</ele><time>2026-04-24T11:21:48.983Z</time></trkpt><trkpt lat="45.6671037" lon="9.5864747"><ele>190.0</ele><time>2026-04-24T11:21:50.982Z</time></trkpt><trkpt lat="45.6671236" lon="9.5863822"><ele>190.0</ele><time>2026-04-24T11:21:51.982Z</time></trkpt><trkpt lat="45.6671422" lon="9.5862941"><ele>190.0</ele><time>2026-04-24T11:21:52.982Z</time></trkpt><trkpt lat="45.6671831" lon="9.5861219"><ele>190.0</ele><time>2026-04-24T11:21:54.982Z</time></trkpt><trkpt lat="45.66721" lon="9.5860293"><ele>190.0</ele><time>2026-04-24T11:21:55.982Z</time></trkpt><trkpt lat="45.6672333" lon="9.5859366"><ele>190.0</ele><time>2026-04-24T11:21:56.982Z</time></trkpt><trkpt lat="45.6672726" lon="9.5857657"><ele>189.8</ele><time>2026-04-24T11:21:58.982Z</time></trkpt><trkpt lat="45.6672917" lon="9.5856761"><ele>189.6</ele><time>2026-04-24T11:21:59.982Z</time></trkpt><trkpt lat="45.6673102" lon="9.5855878"><ele>189.39999999999998</ele><time>2026-04-24T11:22:00.982Z</time></trkpt><trkpt lat="45.6673556" lon="9.5854076"><ele>189.2</ele><time>2026-04-24T11:22:02.983Z</time></trkpt><trkpt lat="45.6673826" lon="9.5853181"><ele>189.0</ele><time>2026-04-24T11:22:03.982Z</time></trkpt><trkpt lat="45.6674261" lon="9.585149"><ele>189.0</ele><time>2026-04-24T11:22:05.983Z</time></trkpt><trkpt lat="45.6674698" lon="9.5849855"><ele>189.0</ele><time>2026-04-24T11:22:07.983Z</time></trkpt><trkpt lat="45.6675048" lon="9.5848019"><ele>189.0</ele><time>2026-04-24T11:22:09.982Z</time></trkpt><trkpt lat="45.667529" lon="9.584708"><ele>189.0</ele><time>2026-04-24T11:22:10.982Z</time></trkpt><trkpt lat="45.6675503" lon="9.5846103"><ele>189.0</ele><time>2026-04-24T11:22:11.982Z</time></trkpt><trkpt lat="45.6675845" lon="9.5845272"><ele>188.6</ele><time>2026-04-24T11:22:12.982Z</time></trkpt><trkpt lat="45.6676507" lon="9.5843935"><ele>188.2</ele><time>2026-04-24T11:22:14.982Z</time></trkpt><trkpt lat="45.6677423" lon="9.5843049"><ele>187.79999999999998</ele><time>2026-04-24T11:22:16.982Z</time></trkpt><trkpt lat="45.6678143" lon="9.5843243"><ele>187.39999999999998</ele><time>2026-04-24T11:22:17.983Z</time></trkpt><trkpt lat="45.6679166" lon="9.584343"><ele>187.0</ele><time>2026-04-24T11:22:19.982Z</time></trkpt><trkpt lat="45.6680326" lon="9.5843821"><ele>186.75</ele><time>2026-04-24T11:22:21.982Z</time></trkpt><trkpt lat="45.6681317" lon="9.5844777"><ele>186.5</ele><time>2026-04-24T11:22:23.982Z</time></trkpt><trkpt lat="45.6682304" lon="9.5845493"><ele>186.25</ele><time>2026-04-24T11:22:25.982Z</time></trkpt><trkpt lat="45.6683434" lon="9.584653"><ele>186.0</ele><time>2026-04-24T11:22:27.982Z</time></trkpt><trkpt lat="45.6684299" lon="9.5847868"><ele>186.0</ele><time>2026-04-24T11:22:29.982Z</time></trkpt><trkpt lat="45.6684806" lon="9.5848464"><ele>186.0</ele><time>2026-04-24T11:22:30.982Z</time></trkpt><trkpt lat="45.6685594" lon="9.5849915"><ele>186.0</ele><time>2026-04-24T11:22:32.983Z</time></trkpt><trkpt lat="45.6686378" lon="9.5851487"><ele>186.0</ele><time>2026-04-24T11:22:34.982Z</time></trkpt><trkpt lat="45.6686748" lon="9.5852278"><ele>186.0</ele><time>2026-04-24T11:22:35.983Z</time></trkpt><trkpt lat="45.6687448" lon="9.5853591"><ele>186.0</ele><time>2026-04-24T11:22:37.982Z</time></trkpt><trkpt lat="45.668805" lon="9.5853917"><ele>186.0</ele><time>2026-04-24T11:22:38.982Z</time></trkpt><trkpt lat="45.6688939" lon="9.5855306"><ele>186.0</ele><time>2026-04-24T11:22:40.982Z</time></trkpt><trkpt lat="45.6689413" lon="9.5855992"><ele>186.0</ele><time>2026-04-24T11:22:41.983Z</time></trkpt><trkpt lat="45.6690014" lon="9.5856502"><ele>186.0</ele><time>2026-04-24T11:22:42.982Z</time></trkpt><trkpt lat="45.6690673" lon="9.5856728"><ele>186.0</ele><time>2026-04-24T11:22:43.982Z</time></trkpt><trkpt lat="45.669123" lon="9.5857176"><ele>186.0</ele><time>2026-04-24T11:22:44.982Z</time></trkpt><trkpt lat="45.6691761" lon="9.5857817"><ele>186.0</ele><time>2026-04-24T11:22:45.982Z</time></trkpt><trkpt lat="45.6692745" lon="9.5858533"><ele>186.0</ele><time>2026-04-24T11:22:47.982Z</time></trkpt><trkpt lat="45.6693515" lon="9.5859058"><ele>186.0</ele><time>2026-04-24T11:22:49.982Z</time></trkpt><trkpt lat="45.6694327" lon="9.585964"><ele>186.0</ele><time>2026-04-24T11:22:51.983Z</time></trkpt><trkpt lat="45.669494" lon="9.5859924"><ele>186.0</ele><time>2026-04-24T11:22:52.982Z</time></trkpt><trkpt lat="45.6695706" lon="9.586024"><ele>185.83333333333334</ele><time>2026-04-24T11:22:53.982Z</time></trkpt><trkpt lat="45.6696385" lon="9.5860561"><ele>185.66666666666666</ele><time>2026-04-24T11:22:54.982Z</time></trkpt><trkpt lat="45.6697073" lon="9.5861032"><ele>185.5</ele><time>2026-04-24T11:22:55.982Z</time></trkpt><trkpt lat="45.6697686" lon="9.5861249"><ele>185.33333333333331</ele><time>2026-04-24T11:22:56.982Z</time></trkpt><trkpt lat="45.6698422" lon="9.5861445"><ele>185.16666666666666</ele><time>2026-04-24T11:22:57.982Z</time></trkpt><trkpt lat="45.6699215" lon="9.5861985"><ele>185.0</ele><time>2026-04-24T11:22:58.982Z</time></trkpt><trkpt lat="45.6700303" lon="9.5862148"><ele>185.83333333333331</ele><time>2026-04-24T11:23:00.983Z</time></trkpt><trkpt lat="45.6700976" lon="9.5862312"><ele>186.66666666666666</ele><time>2026-04-24T11:23:01.982Z</time></trkpt><trkpt lat="45.6701671" lon="9.5862819"><ele>187.5</ele><time>2026-04-24T11:23:02.983Z</time></trkpt><trkpt lat="45.6702701" lon="9.5863531"><ele>188.33333333333334</ele><time>2026-04-24T11:23:04.982Z</time></trkpt><trkpt lat="45.6703303" lon="9.5863993"><ele>189.16666666666669</ele><time>2026-04-24T11:23:05.982Z</time></trkpt><trkpt lat="45.6704005" lon="9.5864412"><ele>190.0</ele><time>2026-04-24T11:23:06.982Z</time></trkpt><trkpt lat="45.6704648" lon="9.5864792"><ele>190.33333333333334</ele><time>2026-04-24T11:23:07.982Z</time></trkpt><trkpt lat="45.6705584" lon="9.5865481"><ele>190.66666666666669</ele><time>2026-04-24T11:23:09.983Z</time></trkpt><trkpt lat="45.6706207" lon="9.5865854"><ele>191.0</ele><time>2026-04-24T11:23:10.982Z</time></trkpt><trkpt lat="45.6706885" lon="9.5866234"><ele>191.33333333333334</ele><time>2026-04-24T11:23:11.982Z</time></trkpt><trkpt lat="45.6707476" lon="9.5866631"><ele>191.66666666666666</ele><time>2026-04-24T11:23:12.982Z</time></trkpt><trkpt lat="45.6708185" lon="9.5866657"><ele>192.0</ele><time>2026-04-24T11:23:13.982Z</time></trkpt><trkpt lat="45.6709395" lon="9.5867353"><ele>192.0</ele><time>2026-04-24T11:23:15.982Z</time></trkpt><trkpt lat="45.6709989" lon="9.5867652"><ele>192.0</ele><time>2026-04-24T11:23:16.982Z</time></trkpt><trkpt lat="45.6710695" lon="9.5867957"><ele>192.0</ele><time>2026-04-24T11:23:17.982Z</time></trkpt><trkpt lat="45.671181" lon="9.5868073"><ele>192.0</ele><time>2026-04-24T11:23:19.983Z</time></trkpt><trkpt lat="45.671294" lon="9.5868729"><ele>192.0</ele><time>2026-04-24T11:23:21.982Z</time></trkpt><trkpt lat="45.6713579" lon="9.5869206"><ele>192.0</ele><time>2026-04-24T11:23:22.983Z</time></trkpt><trkpt lat="45.6714326" lon="9.5869495"><ele>192.0</ele><time>2026-04-24T11:23:23.982Z</time></trkpt><trkpt lat="45.6715019" lon="9.5869748"><ele>192.0</ele><time>2026-04-24T11:23:24.982Z</time></trkpt><trkpt lat="45.6715685" lon="9.587008"><ele>192.0</ele><time>2026-04-24T11:23:25.982Z</time></trkpt><trkpt lat="45.6716917" lon="9.5870401"><ele>192.0</ele><time>2026-04-24T11:23:27.983Z</time></trkpt><trkpt lat="45.6717556" lon="9.5870612"><ele>192.0</ele><time>2026-04-24T11:23:28.983Z</time></trkpt><trkpt lat="45.6718355" lon="9.5871008"><ele>192.0</ele><time>2026-04-24T11:23:29.982Z</time></trkpt><trkpt lat="45.6719372" lon="9.5871345"><ele>191.7142857142857</ele><time>2026-04-24T11:23:31.982Z</time></trkpt><trkpt lat="45.6719999" lon="9.5871545"><ele>191.42857142857142</ele><time>2026-04-24T11:23:32.982Z</time></trkpt><trkpt lat="45.6720625" lon="9.5871715"><ele>191.14285714285714</ele><time>2026-04-24T11:23:33.982Z</time></trkpt><trkpt lat="45.6721265" lon="9.5871914"><ele>190.85714285714283</ele><time>2026-04-24T11:23:34.982Z</time></trkpt><trkpt lat="45.6721915" lon="9.5872175"><ele>190.57142857142858</ele><time>2026-04-24T11:23:35.983Z</time></trkpt><trkpt lat="45.6722621" lon="9.5872322"><ele>190.28571428571428</ele><time>2026-04-24T11:23:36.982Z</time></trkpt><trkpt lat="45.6723286" lon="9.5872496"><ele>190.0</ele><time>2026-04-24T11:23:37.983Z</time></trkpt><trkpt lat="45.6723945" lon="9.58726"><ele>190.0</ele><time>2026-04-24T11:23:38.982Z</time></trkpt><trkpt lat="45.6725218" lon="9.5872837"><ele>190.0</ele><time>2026-04-24T11:23:40.982Z</time></trkpt><trkpt lat="45.6726369" lon="9.5873093"><ele>190.0</ele><time>2026-04-24T11:23:42.982Z</time></trkpt><trkpt lat="45.6727101" lon="9.5873216"><ele>190.0</ele><time>2026-04-24T11:23:43.982Z</time></trkpt><trkpt lat="45.6728339" lon="9.5873549"><ele>190.0</ele><time>2026-04-24T11:23:45.983Z</time></trkpt><trkpt lat="45.6729605" lon="9.5873577"><ele>190.25</ele><time>2026-04-24T11:23:47.983Z</time></trkpt><trkpt lat="45.6730881" lon="9.5873679"><ele>190.5</ele><time>2026-04-24T11:23:49.982Z</time></trkpt><trkpt lat="45.6732026" lon="9.5873627"><ele>190.75</ele><time>2026-04-24T11:23:51.982Z</time></trkpt><trkpt lat="45.6733347" lon="9.587369"><ele>191.0</ele><time>2026-04-24T11:23:53.983Z</time></trkpt><trkpt lat="45.673456" lon="9.5873561"><ele>191.0</ele><time>2026-04-24T11:23:55.983Z</time></trkpt><trkpt lat="45.6735694" lon="9.587334"><ele>191.0</ele><time>2026-04-24T11:23:57.983Z</time></trkpt><trkpt lat="45.6736328" lon="9.5873216"><ele>191.0</ele><time>2026-04-24T11:23:58.982Z</time></trkpt><trkpt lat="45.673697" lon="9.5873123"><ele>191.0</ele><time>2026-04-24T11:23:59.982Z</time></trkpt><trkpt lat="45.6737689" lon="9.5873044"><ele>191.0</ele><time>2026-04-24T11:24:00.983Z</time></trkpt><trkpt lat="45.6738323" lon="9.5872972"><ele>191.0</ele><time>2026-04-24T11:24:01.982Z</time></trkpt><trkpt lat="45.6739553" lon="9.5872813"><ele>191.20000000000002</ele><time>2026-04-24T11:24:03.983Z</time></trkpt><trkpt lat="45.6740183" lon="9.5872637"><ele>191.4</ele><time>2026-04-24T11:24:04.983Z</time></trkpt><trkpt lat="45.6741436" lon="9.5872504"><ele>191.6</ele><time>2026-04-24T11:24:06.983Z</time></trkpt><trkpt lat="45.6742528" lon="9.5872557"><ele>191.8</ele><time>2026-04-24T11:24:08.982Z</time></trkpt><trkpt lat="45.6743158" lon="9.5872715"><ele>192.0</ele><time>2026-04-24T11:24:09.982Z</time></trkpt><trkpt lat="45.6744361" lon="9.5873191"><ele>191.6</ele><time>2026-04-24T11:24:11.983Z</time></trkpt><trkpt lat="45.6745558" lon="9.5873551"><ele>191.2</ele><time>2026-04-24T11:24:13.983Z</time></trkpt><trkpt lat="45.6746678" lon="9.5873953"><ele>190.8</ele><time>2026-04-24T11:24:15.983Z</time></trkpt><trkpt lat="45.6747599" lon="9.587438"><ele>190.4</ele><time>2026-04-24T11:24:17.983Z</time></trkpt><trkpt lat="45.6748662" lon="9.5874955"><ele>190.0</ele><time>2026-04-24T11:24:19.983Z</time></trkpt><trkpt lat="45.6749264" lon="9.5875222"><ele>190.0</ele><time>2026-04-24T11:24:20.983Z</time></trkpt><trkpt lat="45.6749865" lon="9.5875501"><ele>190.0</ele><time>2026-04-24T11:24:21.982Z</time></trkpt><trkpt lat="45.6750997" lon="9.5876013"><ele>190.0</ele><time>2026-04-24T11:24:23.983Z</time></trkpt><trkpt lat="45.6752169" lon="9.5876653"><ele>190.0</ele><time>2026-04-24T11:24:25.983Z</time></trkpt><trkpt lat="45.6752782" lon="9.5876902"><ele>190.0</ele><time>2026-04-24T11:24:26.983Z</time></trkpt><trkpt lat="45.6753382" lon="9.5877179"><ele>190.0</ele><time>2026-04-24T11:24:27.982Z</time></trkpt><trkpt lat="45.6754518" lon="9.5877671"><ele>189.83333333333334</ele><time>2026-04-24T11:24:29.982Z</time></trkpt><trkpt lat="45.6755731" lon="9.5878313"><ele>189.66666666666669</ele><time>2026-04-24T11:24:31.982Z</time></trkpt><trkpt lat="45.6756452" lon="9.5878116"><ele>189.5</ele><time>2026-04-24T11:24:33.982Z</time></trkpt><trkpt lat="45.6757014" lon="9.5878943"><ele>189.33333333333334</ele><time>2026-04-24T11:24:34.982Z</time></trkpt><trkpt lat="45.675784" lon="9.5879248"><ele>189.16666666666666</ele><time>2026-04-24T11:24:35.982Z</time></trkpt><trkpt lat="45.6758549" lon="9.5879545"><ele>189.0</ele><time>2026-04-24T11:24:36.982Z</time></trkpt><trkpt lat="45.6759207" lon="9.5879576"><ele>189.33333333333334</ele><time>2026-04-24T11:24:37.982Z</time></trkpt><trkpt lat="45.6759968" lon="9.5879806"><ele>189.66666666666666</ele><time>2026-04-24T11:24:38.982Z</time></trkpt><trkpt lat="45.6761244" lon="9.5880196"><ele>190.0</ele><time>2026-04-24T11:24:40.982Z</time></trkpt><trkpt lat="45.676188" lon="9.5880328"><ele>190.33333333333331</ele><time>2026-04-24T11:24:41.982Z</time></trkpt><trkpt lat="45.6762562" lon="9.5880599"><ele>190.66666666666666</ele><time>2026-04-24T11:24:42.982Z</time></trkpt><trkpt lat="45.6763191" lon="9.5880906"><ele>191.0</ele><time>2026-04-24T11:24:43.983Z</time></trkpt><trkpt lat="45.6764297" lon="9.5881527"><ele>191.33333333333331</ele><time>2026-04-24T11:24:45.982Z</time></trkpt><trkpt lat="45.67649" lon="9.5881998"><ele>191.66666666666666</ele><time>2026-04-24T11:24:46.982Z</time></trkpt><trkpt lat="45.6765439" lon="9.5882471"><ele>192.0</ele><time>2026-04-24T11:24:47.982Z</time></trkpt><trkpt lat="45.6766311" lon="9.5883165"><ele>192.33333333333331</ele><time>2026-04-24T11:24:49.982Z</time></trkpt><trkpt lat="45.6766912" lon="9.5883545"><ele>192.66666666666666</ele><time>2026-04-24T11:24:50.982Z</time></trkpt><trkpt lat="45.6767886" lon="9.5884054"><ele>193.0</ele><time>2026-04-24T11:24:52.983Z</time></trkpt><trkpt lat="45.6769091" lon="9.5884032"><ele>193.8</ele><time>2026-04-24T11:24:54.983Z</time></trkpt><trkpt lat="45.6769762" lon="9.5884216"><ele>194.60000000000002</ele><time>2026-04-24T11:24:55.983Z</time></trkpt><trkpt lat="45.6771002" lon="9.5884077"><ele>195.39999999999998</ele><time>2026-04-24T11:24:57.982Z</time></trkpt><trkpt lat="45.6771978" lon="9.5883097"><ele>196.2</ele><time>2026-04-24T11:24:59.982Z</time></trkpt><trkpt lat="45.6772953" lon="9.5882425"><ele>197.0</ele><time>2026-04-24T11:25:01.983Z</time></trkpt><trkpt lat="45.6773997" lon="9.588205"><ele>197.0</ele><time>2026-04-24T11:25:03.982Z</time></trkpt><trkpt lat="45.6775072" lon="9.5881889"><ele>197.0</ele><time>2026-04-24T11:25:05.982Z</time></trkpt><trkpt lat="45.6776186" lon="9.5881905"><ele>197.0</ele><time>2026-04-24T11:25:07.983Z</time></trkpt><trkpt lat="45.6777258" lon="9.5882003"><ele>197.0</ele><time>2026-04-24T11:25:09.982Z</time></trkpt><trkpt lat="45.6778348" lon="9.5882238"><ele>197.0</ele><time>2026-04-24T11:25:11.983Z</time></trkpt><trkpt lat="45.677956" lon="9.5882363"><ele>196.39999999999998</ele><time>2026-04-24T11:25:13.983Z</time></trkpt><trkpt lat="45.67802" lon="9.5882293"><ele>195.79999999999998</ele><time>2026-04-24T11:25:14.983Z</time></trkpt><trkpt lat="45.6781112" lon="9.5881301"><ele>195.2</ele><time>2026-04-24T11:25:16.982Z</time></trkpt><trkpt lat="45.6782264" lon="9.5880957"><ele>194.6</ele><time>2026-04-24T11:25:18.983Z</time></trkpt><trkpt lat="45.6783413" lon="9.5881392"><ele>194.0</ele><time>2026-04-24T11:25:20.982Z</time></trkpt><trkpt lat="45.6784504" lon="9.5882049"><ele>194.0</ele><time>2026-04-24T11:25:22.982Z</time></trkpt><trkpt lat="45.6785558" lon="9.588264"><ele>194.0</ele><time>2026-04-24T11:25:24.983Z</time></trkpt><trkpt lat="45.6786534" lon="9.5882717"><ele>194.0</ele><time>2026-04-24T11:25:26.983Z</time></trkpt><trkpt lat="45.6787367" lon="9.5881973"><ele>194.0</ele><time>2026-04-24T11:25:28.982Z</time></trkpt><trkpt lat="45.6788435" lon="9.5882327"><ele>194.0</ele><time>2026-04-24T11:25:30.982Z</time></trkpt><trkpt lat="45.6789285" lon="9.5883043"><ele>194.39999999999998</ele><time>2026-04-24T11:25:32.982Z</time></trkpt><trkpt lat="45.6790429" lon="9.5883162"><ele>194.8</ele><time>2026-04-24T11:25:34.982Z</time></trkpt><trkpt lat="45.6791359" lon="9.588313"><ele>195.2</ele><time>2026-04-24T11:25:36.982Z</time></trkpt><trkpt lat="45.6792163" lon="9.5883536"><ele>195.60000000000002</ele><time>2026-04-24T11:25:38.982Z</time></trkpt><trkpt lat="45.6793014" lon="9.5884326"><ele>196.0</ele><time>2026-04-24T11:25:40.982Z</time></trkpt><trkpt lat="45.6793845" lon="9.5885078"><ele>195.60000000000002</ele><time>2026-04-24T11:25:42.982Z</time></trkpt><trkpt lat="45.6794723" lon="9.588562"><ele>195.2</ele><time>2026-04-24T11:25:44.983Z</time></trkpt><trkpt lat="45.6795675" lon="9.5885604"><ele>194.8</ele><time>2026-04-24T11:25:46.982Z</time></trkpt><trkpt lat="45.6796548" lon="9.5885307"><ele>194.39999999999998</ele><time>2026-04-24T11:25:48.982Z</time></trkpt><trkpt lat="45.6797458" lon="9.5885345"><ele>194.0</ele><time>2026-04-24T11:25:50.982Z</time></trkpt><trkpt lat="45.6798396" lon="9.588548"><ele>194.0</ele><time>2026-04-24T11:25:52.982Z</time></trkpt><trkpt lat="45.6799471" lon="9.5885617"><ele>194.0</ele><time>2026-04-24T11:25:54.982Z</time></trkpt><trkpt lat="45.6800575" lon="9.5885774"><ele>194.0</ele><time>2026-04-24T11:25:56.982Z</time></trkpt><trkpt lat="45.6801727" lon="9.5885936"><ele>194.0</ele><time>2026-04-24T11:25:58.983Z</time></trkpt><trkpt lat="45.6802889" lon="9.5886153"><ele>193.25</ele><time>2026-04-24T11:26:00.982Z</time></trkpt><trkpt lat="45.6804109" lon="9.5886293"><ele>192.5</ele><time>2026-04-24T11:26:02.982Z</time></trkpt><trkpt lat="45.6805153" lon="9.5886056"><ele>191.75</ele><time>2026-04-24T11:26:04.983Z</time></trkpt><trkpt lat="45.6806258" lon="9.5885887"><ele>191.0</ele><time>2026-04-24T11:26:06.982Z</time></trkpt><trkpt lat="45.6807437" lon="9.5885735"><ele>191.0</ele><time>2026-04-24T11:26:08.983Z</time></trkpt><trkpt lat="45.6808577" lon="9.5885483"><ele>191.0</ele><time>2026-04-24T11:26:10.982Z</time></trkpt><trkpt lat="45.6809708" lon="9.5885236"><ele>191.0</ele><time>2026-04-24T11:26:12.982Z</time></trkpt><trkpt lat="45.6810813" lon="9.5884947"><ele>191.0</ele><time>2026-04-24T11:26:14.982Z</time></trkpt><trkpt lat="45.6811894" lon="9.5884608"><ele>192.20000000000002</ele><time>2026-04-24T11:26:16.982Z</time></trkpt><trkpt lat="45.6813014" lon="9.5884277"><ele>193.4</ele><time>2026-04-24T11:26:18.982Z</time></trkpt><trkpt lat="45.6814229" lon="9.5883742"><ele>194.6</ele><time>2026-04-24T11:26:20.982Z</time></trkpt><trkpt lat="45.6814903" lon="9.5883643"><ele>195.8</ele><time>2026-04-24T11:26:21.982Z</time></trkpt><trkpt lat="45.6816122" lon="9.5883637"><ele>197.0</ele><time>2026-04-24T11:26:23.983Z</time></trkpt><trkpt lat="45.6816775" lon="9.588378"><ele>197.0</ele><time>2026-04-24T11:26:24.982Z</time></trkpt><trkpt lat="45.6817434" lon="9.5883782"><ele>197.0</ele><time>2026-04-24T11:26:25.982Z</time></trkpt><trkpt lat="45.6818607" lon="9.58838"><ele>197.0</ele><time>2026-04-24T11:26:27.982Z</time></trkpt><trkpt lat="45.6819233" lon="9.5883916"><ele>197.0</ele><time>2026-04-24T11:26:28.982Z</time></trkpt><trkpt lat="45.682045" lon="9.5884017"><ele>197.0</ele><time>2026-04-24T11:26:30.982Z</time></trkpt><trkpt lat="45.6821615" lon="9.5884137"><ele>196.50000000000003</ele><time>2026-04-24T11:26:32.982Z</time></trkpt><trkpt lat="45.6822272" lon="9.5884227"><ele>196.0</ele><time>2026-04-24T11:26:33.982Z</time></trkpt><trkpt lat="45.6823482" lon="9.5884424"><ele>195.5</ele><time>2026-04-24T11:26:35.982Z</time></trkpt><trkpt lat="45.6824163" lon="9.5884514"><ele>195.0</ele><time>2026-04-24T11:26:36.982Z</time></trkpt><trkpt lat="45.6824838" lon="9.5884686"><ele>194.50000000000003</ele><time>2026-04-24T11:26:37.983Z</time></trkpt><trkpt lat="45.6825467" lon="9.5884778"><ele>194.0</ele><time>2026-04-24T11:26:38.982Z</time></trkpt><trkpt lat="45.6826702" lon="9.588508"><ele>194.0</ele><time>2026-04-24T11:26:40.982Z</time></trkpt><trkpt lat="45.6827847" lon="9.5885317"><ele>194.0</ele><time>2026-04-24T11:26:42.982Z</time></trkpt><trkpt lat="45.6828507" lon="9.5885423"><ele>194.0</ele><time>2026-04-24T11:26:43.982Z</time></trkpt><trkpt lat="45.6829627" lon="9.5885672"><ele>194.0</ele><time>2026-04-24T11:26:45.982Z</time></trkpt><trkpt lat="45.6830799" lon="9.5885791"><ele>194.0</ele><time>2026-04-24T11:26:47.982Z</time></trkpt><trkpt lat="45.683201" lon="9.5885896"><ele>194.0</ele><time>2026-04-24T11:26:49.982Z</time></trkpt><trkpt lat="45.6833091" lon="9.588595"><ele>194.0</ele><time>2026-04-24T11:26:51.982Z</time></trkpt><trkpt lat="45.6834279" lon="9.5886068"><ele>194.0</ele><time>2026-04-24T11:26:53.982Z</time></trkpt><trkpt lat="45.6835421" lon="9.5886103"><ele>194.0</ele><time>2026-04-24T11:26:55.982Z</time></trkpt><trkpt lat="45.683652" lon="9.5886014"><ele>194.25</ele><time>2026-04-24T11:26:57.982Z</time></trkpt><trkpt lat="45.6837727" lon="9.5886172"><ele>194.5</ele><time>2026-04-24T11:26:59.983Z</time></trkpt><trkpt lat="45.6838904" lon="9.58863"><ele>194.75</ele><time>2026-04-24T11:27:01.982Z</time></trkpt><trkpt lat="45.68402" lon="9.5886564"><ele>195.0</ele><time>2026-04-24T11:27:03.982Z</time></trkpt><trkpt lat="45.6841406" lon="9.5886729"><ele>195.5</ele><time>2026-04-24T11:27:05.982Z</time></trkpt><trkpt lat="45.6842632" lon="9.5887035"><ele>196.0</ele><time>2026-04-24T11:27:07.982Z</time></trkpt><trkpt lat="45.684381" lon="9.5887314"><ele>196.5</ele><time>2026-04-24T11:27:09.982Z</time></trkpt><trkpt lat="45.6844998" lon="9.5887666"><ele>197.0</ele><time>2026-04-24T11:27:11.982Z</time></trkpt><trkpt lat="45.6846197" lon="9.5887976"><ele>197.2</ele><time>2026-04-24T11:27:13.983Z</time></trkpt><trkpt lat="45.6847354" lon="9.5888187"><ele>197.39999999999998</ele><time>2026-04-24T11:27:15.982Z</time></trkpt><trkpt lat="45.6848529" lon="9.5888461"><ele>197.60000000000002</ele><time>2026-04-24T11:27:17.982Z</time></trkpt><trkpt lat="45.6849739" lon="9.5888742"><ele>197.8</ele><time>2026-04-24T11:27:19.983Z</time></trkpt><trkpt lat="45.6850369" lon="9.5888842"><ele>198.0</ele><time>2026-04-24T11:27:20.982Z</time></trkpt><trkpt lat="45.6851568" lon="9.5889162"><ele>198.4</ele><time>2026-04-24T11:27:22.982Z</time></trkpt><trkpt lat="45.6852732" lon="9.5889436"><ele>198.8</ele><time>2026-04-24T11:27:24.982Z</time></trkpt><trkpt lat="45.6853974" lon="9.5889774"><ele>199.2</ele><time>2026-04-24T11:27:26.982Z</time></trkpt><trkpt lat="45.6854629" lon="9.5889916"><ele>199.6</ele><time>2026-04-24T11:27:27.982Z</time></trkpt><trkpt lat="45.6855867" lon="9.589028"><ele>200.0</ele><time>2026-04-24T11:27:29.982Z</time></trkpt><trkpt lat="45.685649" lon="9.5890516"><ele>200.00000000000003</ele><time>2026-04-24T11:27:30.982Z</time></trkpt><trkpt lat="45.6857726" lon="9.5890863"><ele>200.0</ele><time>2026-04-24T11:27:32.983Z</time></trkpt><trkpt lat="45.6858356" lon="9.5891098"><ele>200.0</ele><time>2026-04-24T11:27:33.982Z</time></trkpt><trkpt lat="45.6858996" lon="9.5891412"><ele>200.0</ele><time>2026-04-24T11:27:34.982Z</time></trkpt><trkpt lat="45.6859614" lon="9.5891647"><ele>200.00000000000003</ele><time>2026-04-24T11:27:35.983Z</time></trkpt><trkpt lat="45.6860679" lon="9.5892235"><ele>200.0</ele><time>2026-04-24T11:27:37.982Z</time></trkpt><trkpt lat="45.6861785" lon="9.5892798"><ele>199.6</ele><time>2026-04-24T11:27:39.983Z</time></trkpt><trkpt lat="45.68624" lon="9.5893096"><ele>199.2</ele><time>2026-04-24T11:27:40.982Z</time></trkpt><trkpt lat="45.6863566" lon="9.5893531"><ele>198.8</ele><time>2026-04-24T11:27:42.982Z</time></trkpt><trkpt lat="45.6864764" lon="9.5893905"><ele>198.4</ele><time>2026-04-24T11:27:44.982Z</time></trkpt><trkpt lat="45.6865933" lon="9.5893995"><ele>198.0</ele><time>2026-04-24T11:27:46.983Z</time></trkpt><trkpt lat="45.686712" lon="9.5894061"><ele>198.0</ele><time>2026-04-24T11:27:48.983Z</time></trkpt><trkpt lat="45.6868305" lon="9.5894169"><ele>198.0</ele><time>2026-04-24T11:27:50.982Z</time></trkpt><trkpt lat="45.6868939" lon="9.5894301"><ele>198.0</ele><time>2026-04-24T11:27:51.982Z</time></trkpt><trkpt lat="45.6870144" lon="9.5894819"><ele>198.0</ele><time>2026-04-24T11:27:53.982Z</time></trkpt><trkpt lat="45.6870783" lon="9.5895141"><ele>198.0</ele><time>2026-04-24T11:27:54.983Z</time></trkpt><trkpt lat="45.6871402" lon="9.589636"><ele>198.83333333333334</ele><time>2026-04-24T11:27:56.982Z</time></trkpt><trkpt lat="45.6871927" lon="9.5897423"><ele>199.66666666666669</ele><time>2026-04-24T11:27:58.983Z</time></trkpt><trkpt lat="45.6872222" lon="9.5898233"><ele>200.5</ele><time>2026-04-24T11:28:10.983Z</time></trkpt><trkpt lat="45.6872298" lon="9.5899258"><ele>201.33333333333334</ele><time>2026-04-24T11:28:13.982Z</time></trkpt><trkpt lat="45.6872387" lon="9.5900309"><ele>202.16666666666669</ele><time>2026-04-24T11:28:15.983Z</time></trkpt><trkpt lat="45.6872353" lon="9.5901531"><ele>203.0</ele><time>2026-04-24T11:28:17.982Z</time></trkpt><trkpt lat="45.687219" lon="9.5903172"><ele>203.16666666666669</ele><time>2026-04-24T11:28:19.982Z</time></trkpt><trkpt lat="45.6872098" lon="9.5904233"><ele>203.33333333333334</ele><time>2026-04-24T11:28:20.983Z</time></trkpt><trkpt lat="45.6871993" lon="9.5905527"><ele>203.5</ele><time>2026-04-24T11:28:22.983Z</time></trkpt><trkpt lat="45.6871949" lon="9.5906467"><ele>203.66666666666669</ele><time>2026-04-24T11:28:23.983Z</time></trkpt><trkpt lat="45.6871641" lon="9.5907738"><ele>203.83333333333334</ele><time>2026-04-24T11:28:25.983Z</time></trkpt><trkpt lat="45.687135" lon="9.5908762"><ele>204.0</ele><time>2026-04-24T11:28:27.983Z</time></trkpt><trkpt lat="45.6871376" lon="9.5909795"><ele>204.0</ele><time>2026-04-24T11:28:30.982Z</time></trkpt><trkpt lat="45.6870949" lon="9.5910753"><ele>204.0</ele><time>2026-04-24T11:28:36.982Z</time></trkpt><trkpt lat="45.6870577" lon="9.5911771"><ele>204.0</ele><time>2026-04-24T11:28:38.982Z</time></trkpt><trkpt lat="45.6869778" lon="9.5912937"><ele>204.0</ele><time>2026-04-24T11:28:40.983Z</time></trkpt><trkpt lat="45.6869391" lon="9.591419"><ele>204.0</ele><time>2026-04-24T11:28:42.982Z</time></trkpt><trkpt lat="45.6869373" lon="9.5915704"><ele>204.0</ele><time>2026-04-24T11:28:44.982Z</time></trkpt><trkpt lat="45.6869218" lon="9.5917177"><ele>204.0</ele><time>2026-04-24T11:28:46.983Z</time></trkpt><trkpt lat="45.6869015" lon="9.591875"><ele>204.0</ele><time>2026-04-24T11:28:48.982Z</time></trkpt><trkpt lat="45.686878" lon="9.5920279"><ele>204.0</ele><time>2026-04-24T11:28:50.983Z</time></trkpt><trkpt lat="45.6868402" lon="9.5921738"><ele>204.0</ele><time>2026-04-24T11:28:52.982Z</time></trkpt><trkpt lat="45.6868183" lon="9.5923216"><ele>204.0</ele><time>2026-04-24T11:28:54.982Z</time></trkpt><trkpt lat="45.6868048" lon="9.5924524"><ele>204.0</ele><time>2026-04-24T11:28:56.982Z</time></trkpt><trkpt lat="45.6867887" lon="9.5925699"><ele>204.0</ele><time>2026-04-24T11:28:58.982Z</time></trkpt><trkpt lat="45.6867791" lon="9.592704"><ele>204.0</ele><time>2026-04-24T11:29:01.982Z</time></trkpt><trkpt lat="45.686794" lon="9.5928274"><ele>204.0</ele><time>2026-04-24T11:29:03.983Z</time></trkpt><trkpt lat="45.6868194" lon="9.5929657"><ele>204.79999999999998</ele><time>2026-04-24T11:29:05.983Z</time></trkpt><trkpt lat="45.6868441" lon="9.5931059"><ele>205.6</ele><time>2026-04-24T11:29:07.982Z</time></trkpt><trkpt lat="45.6868625" lon="9.5932467"><ele>206.4</ele><time>2026-04-24T11:29:09.982Z</time></trkpt><trkpt lat="45.6868778" lon="9.5933896"><ele>207.2</ele><time>2026-04-24T11:29:11.982Z</time></trkpt><trkpt lat="45.6868937" lon="9.5935262"><ele>208.0</ele><time>2026-04-24T11:29:13.982Z</time></trkpt><trkpt lat="45.6869064" lon="9.5936677"><ele>209.2</ele><time>2026-04-24T11:29:15.982Z</time></trkpt><trkpt lat="45.686916" lon="9.5938127"><ele>210.4</ele><time>2026-04-24T11:29:17.982Z</time></trkpt><trkpt lat="45.6869099" lon="9.5939633"><ele>211.59999999999997</ele><time>2026-04-24T11:29:19.983Z</time></trkpt><trkpt lat="45.6868946" lon="9.594109"><ele>212.79999999999998</ele><time>2026-04-24T11:29:21.982Z</time></trkpt><trkpt lat="45.6868876" lon="9.594255"><ele>214.0</ele><time>2026-04-24T11:29:23.982Z</time></trkpt><trkpt lat="45.6868797" lon="9.594404"><ele>214.0</ele><time>2026-04-24T11:29:25.983Z</time></trkpt><trkpt lat="45.6868798" lon="9.5945274"><ele>213.99999999999997</ele><time>2026-04-24T11:29:27.983Z</time></trkpt><trkpt lat="45.6868751" lon="9.5946519"><ele>213.99999999999997</ele><time>2026-04-24T11:29:29.982Z</time></trkpt><trkpt lat="45.6868631" lon="9.5947774"><ele>214.0</ele><time>2026-04-24T11:29:31.982Z</time></trkpt><trkpt lat="45.6868393" lon="9.5949326"><ele>214.0</ele><time>2026-04-24T11:29:33.982Z</time></trkpt><trkpt lat="45.6868235" lon="9.5950826"><ele>214.0</ele><time>2026-04-24T11:29:35.982Z</time></trkpt><trkpt lat="45.6868128" lon="9.5952213"><ele>213.99999999999997</ele><time>2026-04-24T11:29:37.982Z</time></trkpt><trkpt lat="45.6868003" lon="9.5953598"><ele>213.99999999999997</ele><time>2026-04-24T11:29:39.982Z</time></trkpt><trkpt lat="45.6867789" lon="9.5954991"><ele>214.0</ele><time>2026-04-24T11:29:41.982Z</time></trkpt><trkpt lat="45.6867783" lon="9.5956469"><ele>214.0</ele><time>2026-04-24T11:29:43.983Z</time></trkpt><trkpt lat="45.6867814" lon="9.5958007"><ele>214.39999999999998</ele><time>2026-04-24T11:29:45.983Z</time></trkpt><trkpt lat="45.6867993" lon="9.5959352"><ele>214.79999999999998</ele><time>2026-04-24T11:29:47.982Z</time></trkpt><trkpt lat="45.6868321" lon="9.5960653"><ele>215.20000000000002</ele><time>2026-04-24T11:29:49.982Z</time></trkpt><trkpt lat="45.6868537" lon="9.5962105"><ele>215.60000000000002</ele><time>2026-04-24T11:29:51.982Z</time></trkpt><trkpt lat="45.6868769" lon="9.5963418"><ele>216.0</ele><time>2026-04-24T11:29:53.983Z</time></trkpt><trkpt lat="45.686911" lon="9.5964783"><ele>216.20000000000002</ele><time>2026-04-24T11:29:55.983Z</time></trkpt><trkpt lat="45.6869444" lon="9.5966054"><ele>216.40000000000003</ele><time>2026-04-24T11:29:57.982Z</time></trkpt><trkpt lat="45.686978" lon="9.5967393"><ele>216.6</ele><time>2026-04-24T11:29:59.982Z</time></trkpt><trkpt lat="45.6870036" lon="9.5968593"><ele>216.8</ele><time>2026-04-24T11:30:01.982Z</time></trkpt><trkpt lat="45.6870339" lon="9.5969734"><ele>217.0</ele><time>2026-04-24T11:30:03.982Z</time></trkpt><trkpt lat="45.6870716" lon="9.5970901"><ele>217.2</ele><time>2026-04-24T11:30:05.982Z</time></trkpt><trkpt lat="45.6870992" lon="9.5972268"><ele>217.39999999999998</ele><time>2026-04-24T11:30:07.982Z</time></trkpt><trkpt lat="45.6871292" lon="9.5973524"><ele>217.60000000000002</ele><time>2026-04-24T11:30:09.983Z</time></trkpt><trkpt lat="45.6871649" lon="9.5974857"><ele>217.8</ele><time>2026-04-24T11:30:11.982Z</time></trkpt><trkpt lat="45.6871917" lon="9.5976104"><ele>218.0</ele><time>2026-04-24T11:30:13.983Z</time></trkpt><trkpt lat="45.687229" lon="9.5977385"><ele>218.2</ele><time>2026-04-24T11:30:15.982Z</time></trkpt><trkpt lat="45.6872583" lon="9.5978677"><ele>218.4</ele><time>2026-04-24T11:30:17.982Z</time></trkpt><trkpt lat="45.6872887" lon="9.5979993"><ele>218.59999999999997</ele><time>2026-04-24T11:30:19.982Z</time></trkpt><trkpt lat="45.6873125" lon="9.598139"><ele>218.79999999999998</ele><time>2026-04-24T11:30:21.982Z</time></trkpt><trkpt lat="45.6873445" lon="9.5982636"><ele>219.0</ele><time>2026-04-24T11:30:23.982Z</time></trkpt><trkpt lat="45.6873766" lon="9.598387"><ele>219.0</ele><time>2026-04-24T11:30:25.982Z</time></trkpt><trkpt lat="45.6874097" lon="9.5985228"><ele>218.99999999999997</ele><time>2026-04-24T11:30:27.983Z</time></trkpt><trkpt lat="45.687438" lon="9.598641"><ele>218.99999999999997</ele><time>2026-04-24T11:30:29.983Z</time></trkpt><trkpt lat="45.6874666" lon="9.5987529"><ele>219.0</ele><time>2026-04-24T11:30:31.982Z</time></trkpt><trkpt lat="45.6875036" lon="9.5988715"><ele>219.0</ele><time>2026-04-24T11:30:33.982Z</time></trkpt><trkpt lat="45.6875342" lon="9.5990191"><ele>219.39999999999998</ele><time>2026-04-24T11:30:35.982Z</time></trkpt><trkpt lat="45.6875683" lon="9.5991578"><ele>219.79999999999998</ele><time>2026-04-24T11:30:37.982Z</time></trkpt><trkpt lat="45.6876045" lon="9.5992915"><ele>220.20000000000002</ele><time>2026-04-24T11:30:39.983Z</time></trkpt><trkpt lat="45.6876406" lon="9.5994216"><ele>220.60000000000002</ele><time>2026-04-24T11:30:41.982Z</time></trkpt><trkpt lat="45.687682" lon="9.5995482"><ele>221.0</ele><time>2026-04-24T11:30:43.983Z</time></trkpt><trkpt lat="45.6877074" lon="9.5996759"><ele>221.20000000000002</ele><time>2026-04-24T11:30:45.982Z</time></trkpt><trkpt lat="45.6877327" lon="9.5998023"><ele>221.40000000000003</ele><time>2026-04-24T11:30:47.982Z</time></trkpt><trkpt lat="45.6877676" lon="9.5999356"><ele>221.6</ele><time>2026-04-24T11:30:49.982Z</time></trkpt><trkpt lat="45.6878038" lon="9.6000601"><ele>221.8</ele><time>2026-04-24T11:30:51.982Z</time></trkpt><trkpt lat="45.687836" lon="9.6001869"><ele>222.0</ele><time>2026-04-24T11:30:53.983Z</time></trkpt><trkpt lat="45.6878727" lon="9.6002983"><ele>222.6</ele><time>2026-04-24T11:30:55.982Z</time></trkpt><trkpt lat="45.6879002" lon="9.6004192"><ele>223.2</ele><time>2026-04-24T11:30:57.983Z</time></trkpt><trkpt lat="45.6879273" lon="9.6005561"><ele>223.8</ele><time>2026-04-24T11:30:59.983Z</time></trkpt><trkpt lat="45.6879653" lon="9.6006763"><ele>224.4</ele><time>2026-04-24T11:31:01.982Z</time></trkpt><trkpt lat="45.6880015" lon="9.6007856"><ele>225.0</ele><time>2026-04-24T11:31:03.983Z</time></trkpt><trkpt lat="45.6880271" lon="9.6009102"><ele>225.0</ele><time>2026-04-24T11:31:05.983Z</time></trkpt><trkpt lat="45.6880633" lon="9.6010393"><ele>225.0</ele><time>2026-04-24T11:31:07.983Z</time></trkpt><trkpt lat="45.6880939" lon="9.6011735"><ele>225.0</ele><time>2026-04-24T11:31:09.982Z</time></trkpt><trkpt lat="45.6881322" lon="9.6013175"><ele>225.0</ele><time>2026-04-24T11:31:11.982Z</time></trkpt><trkpt lat="45.6881659" lon="9.6014408"><ele>225.0</ele><time>2026-04-24T11:31:13.983Z</time></trkpt><trkpt lat="45.688199" lon="9.6015568"><ele>225.8</ele><time>2026-04-24T11:31:15.982Z</time></trkpt><trkpt lat="45.688233" lon="9.6016748"><ele>226.6</ele><time>2026-04-24T11:31:17.983Z</time></trkpt><trkpt lat="45.6882757" lon="9.6018011"><ele>227.39999999999998</ele><time>2026-04-24T11:31:19.982Z</time></trkpt><trkpt lat="45.6883216" lon="9.6019228"><ele>228.2</ele><time>2026-04-24T11:31:21.983Z</time></trkpt><trkpt lat="45.6883746" lon="9.6020402"><ele>229.0</ele><time>2026-04-24T11:31:23.982Z</time></trkpt><trkpt lat="45.6884309" lon="9.6021604"><ele>230.2</ele><time>2026-04-24T11:31:25.982Z</time></trkpt><trkpt lat="45.6884851" lon="9.6022827"><ele>231.39999999999998</ele><time>2026-04-24T11:31:27.982Z</time></trkpt><trkpt lat="45.6885505" lon="9.6023929"><ele>232.6</ele><time>2026-04-24T11:31:29.982Z</time></trkpt><trkpt lat="45.6886126" lon="9.6024973"><ele>233.8</ele><time>2026-04-24T11:31:31.982Z</time></trkpt><trkpt lat="45.6886873" lon="9.6026013"><ele>235.0</ele><time>2026-04-24T11:31:33.982Z</time></trkpt><trkpt lat="45.6887575" lon="9.6027026"><ele>235.0</ele><time>2026-04-24T11:31:35.983Z</time></trkpt><trkpt lat="45.6888264" lon="9.6028068"><ele>235.0</ele><time>2026-04-24T11:31:37.982Z</time></trkpt><trkpt lat="45.6890599" lon="9.603134"><ele>235.0</ele><time>2026-04-24T11:31:44.982Z</time></trkpt><trkpt lat="45.6890808" lon="9.6032321"><ele>235.85714285714283</ele><time>2026-04-24T11:31:45.972Z</time></trkpt><trkpt lat="45.6891371" lon="9.6032818"><ele>236.7142857142857</ele><time>2026-04-24T11:31:47.983Z</time></trkpt><trkpt lat="45.6891897" lon="9.6033796"><ele>237.57142857142856</ele><time>2026-04-24T11:31:49.979Z</time></trkpt><trkpt lat="45.6892353" lon="9.6034469"><ele>238.42857142857144</ele><time>2026-04-24T11:31:51.978Z</time></trkpt><trkpt lat="45.6892836" lon="9.6035186"><ele>239.2857142857143</ele><time>2026-04-24T11:31:53.978Z</time></trkpt><trkpt lat="45.6893352" lon="9.6035971"><ele>240.14285714285717</ele><time>2026-04-24T11:31:55.978Z</time></trkpt><trkpt lat="45.6893852" lon="9.6036834"><ele>241.0</ele><time>2026-04-24T11:31:57.978Z</time></trkpt><trkpt lat="45.6894269" lon="9.6037877"><ele>241.0</ele><time>2026-04-24T11:31:59.978Z</time></trkpt><trkpt lat="45.6894629" lon="9.6039011"><ele>241.00000000000003</ele><time>2026-04-24T11:32:01.978Z</time></trkpt><trkpt lat="45.6894937" lon="9.603989"><ele>241.00000000000003</ele><time>2026-04-24T11:32:03.979Z</time></trkpt><trkpt lat="45.6895399" lon="9.6041476"><ele>241.0</ele><time>2026-04-24T11:32:05.978Z</time></trkpt><trkpt lat="45.6895768" lon="9.6042966"><ele>241.0</ele><time>2026-04-24T11:32:07.978Z</time></trkpt><trkpt lat="45.6896065" lon="9.6044274"><ele>240.99999999999997</ele><time>2026-04-24T11:32:09.979Z</time></trkpt><trkpt lat="45.6896373" lon="9.6045443"><ele>241.0</ele><time>2026-04-24T11:32:11.978Z</time></trkpt><trkpt lat="45.689663" lon="9.6046494"><ele>241.0</ele><time>2026-04-24T11:32:13.978Z</time></trkpt><trkpt lat="45.6896818" lon="9.6047437"><ele>241.0</ele><time>2026-04-24T11:32:16.978Z</time></trkpt><trkpt lat="45.6897118" lon="9.6048371"><ele>240.99999999999997</ele><time>2026-04-24T11:32:23.978Z</time></trkpt><trkpt lat="45.6897418" lon="9.6049299"><ele>241.0</ele><time>2026-04-24T11:32:25.978Z</time></trkpt><trkpt lat="45.689765" lon="9.6050348"><ele>241.0</ele><time>2026-04-24T11:32:27.979Z</time></trkpt><trkpt lat="45.6897915" lon="9.6051757"><ele>241.00000000000003</ele><time>2026-04-24T11:32:29.978Z</time></trkpt><trkpt lat="45.6898262" lon="9.6053061"><ele>241.00000000000003</ele><time>2026-04-24T11:32:31.978Z</time></trkpt><trkpt lat="45.6898637" lon="9.6054515"><ele>241.0</ele><time>2026-04-24T11:32:33.978Z</time></trkpt><trkpt lat="45.6898941" lon="9.6055905"><ele>241.0</ele><time>2026-04-24T11:32:35.979Z</time></trkpt><trkpt lat="45.6899191" lon="9.6057181"><ele>241.4</ele><time>2026-04-24T11:32:37.978Z</time></trkpt><trkpt lat="45.6899391" lon="9.6058633"><ele>241.8</ele><time>2026-04-24T11:32:39.978Z</time></trkpt><trkpt lat="45.6899768" lon="9.6060084"><ele>242.20000000000002</ele><time>2026-04-24T11:32:41.978Z</time></trkpt><trkpt lat="45.6900099" lon="9.6061587"><ele>242.60000000000002</ele><time>2026-04-24T11:32:43.978Z</time></trkpt><trkpt lat="45.6900356" lon="9.6062446"><ele>243.0</ele><time>2026-04-24T11:32:44.978Z</time></trkpt><trkpt lat="45.6900725" lon="9.6063872"><ele>243.0</ele><time>2026-04-24T11:32:46.978Z</time></trkpt><trkpt lat="45.690115" lon="9.6065446"><ele>243.0</ele><time>2026-04-24T11:32:48.979Z</time></trkpt><trkpt lat="45.6901498" lon="9.6067036"><ele>243.0</ele><time>2026-04-24T11:32:50.978Z</time></trkpt><trkpt lat="45.6901841" lon="9.6068555"><ele>243.0</ele><time>2026-04-24T11:32:52.979Z</time></trkpt><trkpt lat="45.6902137" lon="9.6069988"><ele>243.0</ele><time>2026-04-24T11:32:54.978Z</time></trkpt><trkpt lat="45.6902582" lon="9.6071486"><ele>243.0</ele><time>2026-04-24T11:32:56.978Z</time></trkpt><trkpt lat="45.6902875" lon="9.6072379"><ele>243.0</ele><time>2026-04-24T11:32:57.978Z</time></trkpt><trkpt lat="45.6903434" lon="9.6073787"><ele>243.0</ele><time>2026-04-24T11:32:59.978Z</time></trkpt><trkpt lat="45.6903744" lon="9.6074641"><ele>243.0</ele><time>2026-04-24T11:33:00.979Z</time></trkpt><trkpt lat="45.6904268" lon="9.6076056"><ele>243.0</ele><time>2026-04-24T11:33:02.978Z</time></trkpt><trkpt lat="45.6904756" lon="9.6077573"><ele>243.0</ele><time>2026-04-24T11:33:04.978Z</time></trkpt><trkpt lat="45.690522" lon="9.6078944"><ele>243.0</ele><time>2026-04-24T11:33:06.979Z</time></trkpt><trkpt lat="45.6906032" lon="9.6080038"><ele>243.0</ele><time>2026-04-24T11:33:08.978Z</time></trkpt><trkpt lat="45.6906921" lon="9.6080893"><ele>243.0</ele><time>2026-04-24T11:33:10.978Z</time></trkpt><trkpt lat="45.6907826" lon="9.6081543"><ele>243.0</ele><time>2026-04-24T11:33:12.978Z</time></trkpt><trkpt lat="45.6908848" lon="9.6082198"><ele>243.0</ele><time>2026-04-24T11:33:14.978Z</time></trkpt><trkpt lat="45.690946" lon="9.6082576"><ele>243.0</ele><time>2026-04-24T11:33:15.979Z</time></trkpt><trkpt lat="45.6910191" lon="9.6082933"><ele>243.0</ele><time>2026-04-24T11:33:17.979Z</time></trkpt><trkpt lat="45.6910961" lon="9.6083727"><ele>243.0</ele><time>2026-04-24T11:33:19.978Z</time></trkpt><trkpt lat="45.6911587" lon="9.6084835"><ele>243.0</ele><time>2026-04-24T11:33:21.978Z</time></trkpt><trkpt lat="45.6912188" lon="9.6085301"><ele>243.0</ele><time>2026-04-24T11:33:22.978Z</time></trkpt><trkpt lat="45.6913002" lon="9.6086024"><ele>243.0</ele><time>2026-04-24T11:33:24.978Z</time></trkpt><trkpt lat="45.6913587" lon="9.6086467"><ele>243.0</ele><time>2026-04-24T11:33:25.978Z</time></trkpt><trkpt lat="45.69144" lon="9.6087154"><ele>243.0</ele><time>2026-04-24T11:33:27.978Z</time></trkpt><trkpt lat="45.6915132" lon="9.6088158"><ele>243.0</ele><time>2026-04-24T11:33:29.979Z</time></trkpt><trkpt lat="45.6915842" lon="9.6089018"><ele>243.2</ele><time>2026-04-24T11:33:31.978Z</time></trkpt><trkpt lat="45.6915726" lon="9.6090139"><ele>243.4</ele><time>2026-04-24T11:33:33.978Z</time></trkpt><trkpt lat="45.6915308" lon="9.6091604"><ele>243.59999999999997</ele><time>2026-04-24T11:33:35.979Z</time></trkpt><trkpt lat="45.6914874" lon="9.6093213"><ele>243.79999999999998</ele><time>2026-04-24T11:33:37.979Z</time></trkpt><trkpt lat="45.6914417" lon="9.6094862"><ele>244.0</ele><time>2026-04-24T11:33:39.978Z</time></trkpt><trkpt lat="45.6913891" lon="9.6096384"><ele>244.2</ele><time>2026-04-24T11:33:41.978Z</time></trkpt><trkpt lat="45.6913382" lon="9.6097843"><ele>244.39999999999998</ele><time>2026-04-24T11:33:43.978Z</time></trkpt><trkpt lat="45.6912776" lon="9.609911"><ele>244.6</ele><time>2026-04-24T11:33:45.978Z</time></trkpt><trkpt lat="45.6912387" lon="9.6100103"><ele>244.8</ele><time>2026-04-24T11:33:47.978Z</time></trkpt><trkpt lat="45.6912048" lon="9.6101212"><ele>245.0</ele><time>2026-04-24T11:33:49.978Z</time></trkpt><trkpt lat="45.6911711" lon="9.6102345"><ele>244.5</ele><time>2026-04-24T11:33:51.979Z</time></trkpt><trkpt lat="45.6911179" lon="9.6103713"><ele>244.0</ele><time>2026-04-24T11:33:53.978Z</time></trkpt><trkpt lat="45.6910881" lon="9.6105264"><ele>243.5</ele><time>2026-04-24T11:33:55.978Z</time></trkpt><trkpt lat="45.6910789" lon="9.6106933"><ele>243.0</ele><time>2026-04-24T11:33:57.979Z</time></trkpt><trkpt lat="45.6910722" lon="9.6108734"><ele>242.8</ele><time>2026-04-24T11:33:59.978Z</time></trkpt><trkpt lat="45.6910434" lon="9.6110312"><ele>242.60000000000002</ele><time>2026-04-24T11:34:01.978Z</time></trkpt><trkpt lat="45.6910121" lon="9.6112095"><ele>242.39999999999998</ele><time>2026-04-24T11:34:03.978Z</time></trkpt><trkpt lat="45.6909939" lon="9.6113062"><ele>242.2</ele><time>2026-04-24T11:34:04.978Z</time></trkpt><trkpt lat="45.6909864" lon="9.611413"><ele>242.0</ele><time>2026-04-24T11:34:05.978Z</time></trkpt><trkpt lat="45.6909648" lon="9.6115925"><ele>242.0</ele><time>2026-04-24T11:34:07.978Z</time></trkpt><trkpt lat="45.6909614" lon="9.6116846"><ele>242.0</ele><time>2026-04-24T11:34:08.978Z</time></trkpt><trkpt lat="45.6909487" lon="9.6118655"><ele>242.0</ele><time>2026-04-24T11:34:10.978Z</time></trkpt><trkpt lat="45.6909309" lon="9.6119686"><ele>242.0</ele><time>2026-04-24T11:34:11.978Z</time></trkpt><trkpt lat="45.6909073" lon="9.6121399"><ele>242.0</ele><time>2026-04-24T11:34:13.979Z</time></trkpt><trkpt lat="45.6909045" lon="9.6122319"><ele>242.0</ele><time>2026-04-24T11:34:14.978Z</time></trkpt><trkpt lat="45.6908969" lon="9.6123267"><ele>241.99999999999997</ele><time>2026-04-24T11:34:15.979Z</time></trkpt><trkpt lat="45.6908892" lon="9.6124167"><ele>242.0</ele><time>2026-04-24T11:34:16.978Z</time></trkpt><trkpt lat="45.6908681" lon="9.6125116"><ele>242.0</ele><time>2026-04-24T11:34:17.979Z</time></trkpt><trkpt lat="45.6908523" lon="9.612603"><ele>241.99999999999997</ele><time>2026-04-24T11:34:18.978Z</time></trkpt><trkpt lat="45.690831" lon="9.6126886"><ele>242.0</ele><time>2026-04-24T11:34:19.979Z</time></trkpt><trkpt lat="45.6908025" lon="9.6127797"><ele>242.0</ele><time>2026-04-24T11:34:20.979Z</time></trkpt><trkpt lat="45.690781" lon="9.6128668"><ele>242.14285714285714</ele><time>2026-04-24T11:34:21.978Z</time></trkpt><trkpt lat="45.6907584" lon="9.6129663"><ele>242.28571428571428</ele><time>2026-04-24T11:34:22.979Z</time></trkpt><trkpt lat="45.6907332" lon="9.6130499"><ele>242.42857142857142</ele><time>2026-04-24T11:34:23.979Z</time></trkpt><trkpt lat="45.6907" lon="9.6131437"><ele>242.57142857142856</ele><time>2026-04-24T11:34:24.978Z</time></trkpt><trkpt lat="45.6906783" lon="9.6132352"><ele>242.71428571428572</ele><time>2026-04-24T11:34:25.978Z</time></trkpt><trkpt lat="45.6906429" lon="9.6133222"><ele>242.85714285714283</ele><time>2026-04-24T11:34:26.979Z</time></trkpt><trkpt lat="45.6906133" lon="9.6134172"><ele>243.0</ele><time>2026-04-24T11:34:27.978Z</time></trkpt><trkpt lat="45.6905806" lon="9.6135126"><ele>243.0</ele><time>2026-04-24T11:34:28.978Z</time></trkpt><trkpt lat="45.690551" lon="9.6136025"><ele>243.0</ele><time>2026-04-24T11:34:29.978Z</time></trkpt><trkpt lat="45.6905204" lon="9.6136975"><ele>243.0</ele><time>2026-04-24T11:34:30.978Z</time></trkpt><trkpt lat="45.6904882" lon="9.6138013"><ele>243.0</ele><time>2026-04-24T11:34:31.978Z</time></trkpt><trkpt lat="45.6904507" lon="9.6139062"><ele>243.0</ele><time>2026-04-24T11:34:32.979Z</time></trkpt><trkpt lat="45.6904174" lon="9.6140052"><ele>243.0</ele><time>2026-04-24T11:34:33.978Z</time></trkpt><trkpt lat="45.690379" lon="9.614097"><ele>243.0</ele><time>2026-04-24T11:34:34.978Z</time></trkpt><trkpt lat="45.6903398" lon="9.614194"><ele>243.0</ele><time>2026-04-24T11:34:35.978Z</time></trkpt><trkpt lat="45.690305" lon="9.6142829"><ele>243.0</ele><time>2026-04-24T11:34:36.979Z</time></trkpt><trkpt lat="45.6902683" lon="9.6143818"><ele>243.0</ele><time>2026-04-24T11:34:37.978Z</time></trkpt><trkpt lat="45.6902321" lon="9.6144682"><ele>243.0</ele><time>2026-04-24T11:34:38.978Z</time></trkpt><trkpt lat="45.6901985" lon="9.6145686"><ele>243.0</ele><time>2026-04-24T11:34:39.979Z</time></trkpt><trkpt lat="45.6901655" lon="9.6146631"><ele>242.66666666666666</ele><time>2026-04-24T11:34:40.978Z</time></trkpt><trkpt lat="45.690107" lon="9.614833"><ele>242.33333333333331</ele><time>2026-04-24T11:34:42.978Z</time></trkpt><trkpt lat="45.6900704" lon="9.6149296"><ele>242.0</ele><time>2026-04-24T11:34:43.979Z</time></trkpt><trkpt lat="45.6900471" lon="9.6150304"><ele>241.66666666666666</ele><time>2026-04-24T11:34:44.978Z</time></trkpt><trkpt lat="45.6900269" lon="9.6151252"><ele>241.33333333333331</ele><time>2026-04-24T11:34:45.978Z</time></trkpt><trkpt lat="45.6899941" lon="9.615227"><ele>241.0</ele><time>2026-04-24T11:34:46.978Z</time></trkpt><trkpt lat="45.6899705" lon="9.6153286"><ele>240.85714285714286</ele><time>2026-04-24T11:34:47.978Z</time></trkpt><trkpt lat="45.6899405" lon="9.615427"><ele>240.71428571428572</ele><time>2026-04-24T11:34:48.979Z</time></trkpt><trkpt lat="45.6899153" lon="9.61552"><ele>240.57142857142858</ele><time>2026-04-24T11:34:49.978Z</time></trkpt><trkpt lat="45.6898929" lon="9.6156246"><ele>240.42857142857144</ele><time>2026-04-24T11:34:50.978Z</time></trkpt><trkpt lat="45.6898663" lon="9.6157287"><ele>240.28571428571428</ele><time>2026-04-24T11:34:51.978Z</time></trkpt><trkpt lat="45.6898378" lon="9.6158307"><ele>240.14285714285717</ele><time>2026-04-24T11:34:52.978Z</time></trkpt><trkpt lat="45.689816" lon="9.6159322"><ele>240.0</ele><time>2026-04-24T11:34:53.978Z</time></trkpt><trkpt lat="45.6897907" lon="9.616043"><ele>240.0</ele><time>2026-04-24T11:34:54.978Z</time></trkpt><trkpt lat="45.6897726" lon="9.6161448"><ele>240.0</ele><time>2026-04-24T11:34:55.978Z</time></trkpt><trkpt lat="45.6897486" lon="9.6162483"><ele>240.0</ele><time>2026-04-24T11:34:56.978Z</time></trkpt><trkpt lat="45.6897211" lon="9.6163487"><ele>240.0</ele><time>2026-04-24T11:34:57.979Z</time></trkpt><trkpt lat="45.6896903" lon="9.6164502"><ele>240.0</ele><time>2026-04-24T11:34:58.978Z</time></trkpt><trkpt lat="45.6896602" lon="9.6165528"><ele>240.0</ele><time>2026-04-24T11:34:59.978Z</time></trkpt><trkpt lat="45.6896335" lon="9.6166514"><ele>240.0</ele><time>2026-04-24T11:35:00.978Z</time></trkpt><trkpt lat="45.6896149" lon="9.6167452"><ele>240.0</ele><time>2026-04-24T11:35:01.978Z</time></trkpt><trkpt lat="45.6895877" lon="9.6168553"><ele>240.0</ele><time>2026-04-24T11:35:02.979Z</time></trkpt><trkpt lat="45.689555" lon="9.6169556"><ele>240.0</ele><time>2026-04-24T11:35:03.979Z</time></trkpt><trkpt lat="45.6895273" lon="9.6170498"><ele>240.0</ele><time>2026-04-24T11:35:04.978Z</time></trkpt><trkpt lat="45.6895026" lon="9.6171502"><ele>240.0</ele><time>2026-04-24T11:35:05.979Z</time></trkpt><trkpt lat="45.6894759" lon="9.6172511"><ele>240.0</ele><time>2026-04-24T11:35:06.978Z</time></trkpt><trkpt lat="45.6894486" lon="9.6173652"><ele>239.85714285714286</ele><time>2026-04-24T11:35:07.978Z</time></trkpt><trkpt lat="45.6894287" lon="9.6174685"><ele>239.71428571428572</ele><time>2026-04-24T11:35:08.978Z</time></trkpt><trkpt lat="45.6894051" lon="9.6175677"><ele>239.57142857142858</ele><time>2026-04-24T11:35:09.978Z</time></trkpt><trkpt lat="45.6893758" lon="9.6176654"><ele>239.42857142857144</ele><time>2026-04-24T11:35:10.978Z</time></trkpt><trkpt lat="45.6893497" lon="9.6177522"><ele>239.28571428571428</ele><time>2026-04-24T11:35:11.979Z</time></trkpt><trkpt lat="45.689323" lon="9.6178376"><ele>239.14285714285717</ele><time>2026-04-24T11:35:12.978Z</time></trkpt><trkpt lat="45.6892881" lon="9.6179182"><ele>239.00000000000003</ele><time>2026-04-24T11:35:13.978Z</time></trkpt><trkpt lat="45.6892473" lon="9.618068"><ele>238.79999999999998</ele><time>2026-04-24T11:35:15.978Z</time></trkpt><trkpt lat="45.6892989" lon="9.6181947"><ele>238.59999999999997</ele><time>2026-04-24T11:35:17.978Z</time></trkpt><trkpt lat="45.6893981" lon="9.6182758"><ele>238.4</ele><time>2026-04-24T11:35:19.979Z</time></trkpt><trkpt lat="45.6894525" lon="9.6183228"><ele>238.2</ele><time>2026-04-24T11:35:20.978Z</time></trkpt><trkpt lat="45.6895607" lon="9.6184089"><ele>238.0</ele><time>2026-04-24T11:35:22.979Z</time></trkpt><trkpt lat="45.6896274" lon="9.6184526"><ele>237.99999999999997</ele><time>2026-04-24T11:35:23.979Z</time></trkpt><trkpt lat="45.6896895" lon="9.6184884"><ele>238.0</ele><time>2026-04-24T11:35:24.979Z</time></trkpt><trkpt lat="45.6897554" lon="9.6185162"><ele>238.0</ele><time>2026-04-24T11:35:25.978Z</time></trkpt><trkpt lat="45.6898247" lon="9.6185551"><ele>238.0</ele><time>2026-04-24T11:35:26.979Z</time></trkpt><trkpt lat="45.689899" lon="9.6185579"><ele>237.99999999999997</ele><time>2026-04-24T11:35:27.978Z</time></trkpt><trkpt lat="45.6899709" lon="9.618569"><ele>238.0</ele><time>2026-04-24T11:35:28.979Z</time></trkpt><trkpt lat="45.6900955" lon="9.6185996"><ele>237.99999999999997</ele><time>2026-04-24T11:35:30.978Z</time></trkpt><trkpt lat="45.6901594" lon="9.6186276"><ele>238.0</ele><time>2026-04-24T11:35:31.978Z</time></trkpt><trkpt lat="45.6902851" lon="9.6186644"><ele>238.0</ele><time>2026-04-24T11:35:33.979Z</time></trkpt><trkpt lat="45.6903487" lon="9.6186862"><ele>238.0</ele><time>2026-04-24T11:35:34.978Z</time></trkpt><trkpt lat="45.6904162" lon="9.6187118"><ele>237.99999999999997</ele><time>2026-04-24T11:35:35.979Z</time></trkpt><trkpt lat="45.6904795" lon="9.6187362"><ele>238.0</ele><time>2026-04-24T11:35:36.978Z</time></trkpt><trkpt lat="45.6905417" lon="9.6187616"><ele>237.33333333333331</ele><time>2026-04-24T11:35:37.979Z</time></trkpt><trkpt lat="45.6906072" lon="9.6187781"><ele>236.66666666666666</ele><time>2026-04-24T11:35:38.978Z</time></trkpt><trkpt lat="45.6906712" lon="9.6187991"><ele>236.0</ele><time>2026-04-24T11:35:39.978Z</time></trkpt><trkpt lat="45.6907727" lon="9.61883"><ele>235.33333333333331</ele><time>2026-04-24T11:35:41.979Z</time></trkpt><trkpt lat="45.6908818" lon="9.6188576"><ele>234.66666666666666</ele><time>2026-04-24T11:35:43.978Z</time></trkpt><trkpt lat="45.6909621" lon="9.6189157"><ele>234.0</ele><time>2026-04-24T11:35:46.978Z</time></trkpt><trkpt lat="45.6910457" lon="9.6189793"><ele>234.2</ele><time>2026-04-24T11:35:50.978Z</time></trkpt><trkpt lat="45.6911308" lon="9.6190312"><ele>234.39999999999998</ele><time>2026-04-24T11:35:52.978Z</time></trkpt><trkpt lat="45.6912304" lon="9.6191037"><ele>234.6</ele><time>2026-04-24T11:35:54.978Z</time></trkpt><trkpt lat="45.6913211" lon="9.6191877"><ele>234.8</ele><time>2026-04-24T11:35:56.979Z</time></trkpt><trkpt lat="45.691399" lon="9.6192711"><ele>235.0</ele><time>2026-04-24T11:35:58.978Z</time></trkpt><trkpt lat="45.691466" lon="9.6193714"><ele>234.99999999999997</ele><time>2026-04-24T11:36:00.978Z</time></trkpt><trkpt lat="45.6915338" lon="9.6194505"><ele>235.0</ele><time>2026-04-24T11:36:03.978Z</time></trkpt><trkpt lat="45.6915871" lon="9.6195216"><ele>235.0</ele><time>2026-04-24T11:36:06.978Z</time></trkpt><trkpt lat="45.6916648" lon="9.6195885"><ele>235.0</ele><time>2026-04-24T11:36:09.978Z</time></trkpt><trkpt lat="45.6917153" lon="9.6196763"><ele>234.99999999999997</ele><time>2026-04-24T11:36:11.978Z</time></trkpt><trkpt lat="45.6917662" lon="9.619786"><ele>235.0</ele><time>2026-04-24T11:36:13.979Z</time></trkpt><trkpt lat="45.6918155" lon="9.6198967"><ele>234.99999999999997</ele><time>2026-04-24T11:36:15.978Z</time></trkpt><trkpt lat="45.6918409" lon="9.6200036"><ele>235.0</ele><time>2026-04-24T11:36:17.978Z</time></trkpt><trkpt lat="45.6918803" lon="9.6201026"><ele>235.0</ele><time>2026-04-24T11:36:19.978Z</time></trkpt><trkpt lat="45.6919182" lon="9.6202112"><ele>235.0</ele><time>2026-04-24T11:36:21.978Z</time></trkpt><trkpt lat="45.6919516" lon="9.6203348"><ele>234.99999999999997</ele><time>2026-04-24T11:36:23.978Z</time></trkpt><trkpt lat="45.691985" lon="9.6204732"><ele>235.0</ele><time>2026-04-24T11:36:25.978Z</time></trkpt><trkpt lat="45.6919954" lon="9.6206408"><ele>235.4</ele><time>2026-04-24T11:36:27.979Z</time></trkpt><trkpt lat="45.6919867" lon="9.6208034"><ele>235.8</ele><time>2026-04-24T11:36:29.978Z</time></trkpt><trkpt lat="45.6919682" lon="9.6209735"><ele>236.2</ele><time>2026-04-24T11:36:31.978Z</time></trkpt><trkpt lat="45.6919523" lon="9.6211455"><ele>236.6</ele><time>2026-04-24T11:36:33.979Z</time></trkpt><trkpt lat="45.6919385" lon="9.6212377"><ele>237.0</ele><time>2026-04-24T11:36:34.978Z</time></trkpt><trkpt lat="45.6919256" lon="9.6213272"><ele>237.0</ele><time>2026-04-24T11:36:35.978Z</time></trkpt><trkpt lat="45.6918943" lon="9.621503"><ele>237.0</ele><time>2026-04-24T11:36:37.978Z</time></trkpt><trkpt lat="45.6918676" lon="9.6216754"><ele>237.0</ele><time>2026-04-24T11:36:39.978Z</time></trkpt><trkpt lat="45.691857" lon="9.6217709"><ele>237.0</ele><time>2026-04-24T11:36:40.979Z</time></trkpt><trkpt lat="45.6918455" lon="9.6218733"><ele>237.0</ele><time>2026-04-24T11:36:41.978Z</time></trkpt><trkpt lat="45.6918245" lon="9.6220271"><ele>237.0</ele><time>2026-04-24T11:36:43.979Z</time></trkpt><trkpt lat="45.6918049" lon="9.6221728"><ele>237.0</ele><time>2026-04-24T11:36:45.978Z</time></trkpt><trkpt lat="45.6917783" lon="9.622324"><ele>237.0</ele><time>2026-04-24T11:36:47.978Z</time></trkpt><trkpt lat="45.6917536" lon="9.6224901"><ele>237.0</ele><time>2026-04-24T11:36:49.978Z</time></trkpt><trkpt lat="45.6917273" lon="9.6226493"><ele>237.0</ele><time>2026-04-24T11:36:51.978Z</time></trkpt><trkpt lat="45.6917007" lon="9.6228176"><ele>237.0</ele><time>2026-04-24T11:36:53.978Z</time></trkpt><trkpt lat="45.6916752" lon="9.6229952"><ele>237.0</ele><time>2026-04-24T11:36:55.978Z</time></trkpt><trkpt lat="45.6916519" lon="9.6231671"><ele>237.0</ele><time>2026-04-24T11:36:57.978Z</time></trkpt><trkpt lat="45.6916216" lon="9.6233422"><ele>237.0</ele><time>2026-04-24T11:36:59.978Z</time></trkpt><trkpt lat="45.6915984" lon="9.6235007"><ele>237.0</ele><time>2026-04-24T11:37:01.978Z</time></trkpt><trkpt lat="45.6915689" lon="9.6236469"><ele>237.0</ele><time>2026-04-24T11:37:03.979Z</time></trkpt><trkpt lat="45.691556" lon="9.6237469"><ele>237.0</ele><time>2026-04-24T11:37:04.978Z</time></trkpt><trkpt lat="45.6915354" lon="9.6238401"><ele>237.0</ele><time>2026-04-24T11:37:05.978Z</time></trkpt><trkpt lat="45.6915047" lon="9.6239904"><ele>237.0</ele><time>2026-04-24T11:37:07.978Z</time></trkpt><trkpt lat="45.6914615" lon="9.6240943"><ele>237.0</ele><time>2026-04-24T11:37:09.978Z</time></trkpt><trkpt lat="45.6913973" lon="9.6241868"><ele>236.8</ele><time>2026-04-24T11:37:12.979Z</time></trkpt><trkpt lat="45.6913352" lon="9.624287"><ele>236.6</ele><time>2026-04-24T11:37:14.979Z</time></trkpt><trkpt lat="45.6912931" lon="9.6244205"><ele>236.40000000000003</ele><time>2026-04-24T11:37:16.978Z</time></trkpt><trkpt lat="45.6913125" lon="9.6245602"><ele>236.20000000000002</ele><time>2026-04-24T11:37:18.978Z</time></trkpt><trkpt lat="45.6913597" lon="9.6246996"><ele>236.0</ele><time>2026-04-24T11:37:20.978Z</time></trkpt><trkpt lat="45.69138" lon="9.6248553"><ele>235.8</ele><time>2026-04-24T11:37:22.978Z</time></trkpt><trkpt lat="45.6913592" lon="9.6250214"><ele>235.60000000000002</ele><time>2026-04-24T11:37:24.978Z</time></trkpt><trkpt lat="45.6913284" lon="9.6251897"><ele>235.4</ele><time>2026-04-24T11:37:26.978Z</time></trkpt><trkpt lat="45.6913114" lon="9.6252862"><ele>235.2</ele><time>2026-04-24T11:37:27.978Z</time></trkpt><trkpt lat="45.6912943" lon="9.6253745"><ele>235.0</ele><time>2026-04-24T11:37:28.978Z</time></trkpt><trkpt lat="45.6912634" lon="9.6255519"><ele>234.99999999999997</ele><time>2026-04-24T11:37:30.978Z</time></trkpt><trkpt lat="45.6912419" lon="9.6257204"><ele>235.0</ele><time>2026-04-24T11:37:32.978Z</time></trkpt><trkpt lat="45.6912296" lon="9.625811"><ele>235.0</ele><time>2026-04-24T11:37:33.979Z</time></trkpt><trkpt lat="45.6912128" lon="9.6259039"><ele>235.0</ele><time>2026-04-24T11:37:34.979Z</time></trkpt><trkpt lat="45.6912006" lon="9.6259945"><ele>234.99999999999997</ele><time>2026-04-24T11:37:35.978Z</time></trkpt><trkpt lat="45.6911803" lon="9.6261818"><ele>235.0</ele><time>2026-04-24T11:37:37.979Z</time></trkpt><trkpt lat="45.6911667" lon="9.6262714"><ele>234.99999999999997</ele><time>2026-04-24T11:37:38.979Z</time></trkpt><trkpt lat="45.6911605" lon="9.6263626"><ele>235.0</ele><time>2026-04-24T11:37:39.979Z</time></trkpt><trkpt lat="45.6911539" lon="9.6264548"><ele>235.0</ele><time>2026-04-24T11:37:40.978Z</time></trkpt><trkpt lat="45.6911406" lon="9.6265479"><ele>235.0</ele><time>2026-04-24T11:37:41.978Z</time></trkpt><trkpt lat="45.6911289" lon="9.6267278"><ele>234.99999999999997</ele><time>2026-04-24T11:37:43.978Z</time></trkpt><trkpt lat="45.6911136" lon="9.6268244"><ele>235.0</ele><time>2026-04-24T11:37:44.978Z</time></trkpt><trkpt lat="45.6910985" lon="9.6269136"><ele>234.66666666666666</ele><time>2026-04-24T11:37:45.979Z</time></trkpt><trkpt lat="45.6910755" lon="9.6270799"><ele>234.33333333333331</ele><time>2026-04-24T11:37:47.979Z</time></trkpt><trkpt lat="45.6910728" lon="9.6271797"><ele>234.0</ele><time>2026-04-24T11:37:48.978Z</time></trkpt><trkpt lat="45.6910503" lon="9.6272661"><ele>233.66666666666669</ele><time>2026-04-24T11:37:49.978Z</time></trkpt><trkpt lat="45.6910313" lon="9.6273741"><ele>233.33333333333334</ele><time>2026-04-24T11:37:50.979Z</time></trkpt><trkpt lat="45.6910206" lon="9.6274688"><ele>233.0</ele><time>2026-04-24T11:37:51.979Z</time></trkpt><trkpt lat="45.6910008" lon="9.6275631"><ele>233.00000000000003</ele><time>2026-04-24T11:37:52.978Z</time></trkpt><trkpt lat="45.6909932" lon="9.6276606"><ele>233.0</ele><time>2026-04-24T11:37:53.978Z</time></trkpt><trkpt lat="45.6909714" lon="9.6277688"><ele>233.0</ele><time>2026-04-24T11:37:54.978Z</time></trkpt><trkpt lat="45.6909584" lon="9.6278581"><ele>233.0</ele><time>2026-04-24T11:37:55.979Z</time></trkpt><trkpt lat="45.6909278" lon="9.6280441"><ele>233.00000000000003</ele><time>2026-04-24T11:37:57.979Z</time></trkpt><trkpt lat="45.690919" lon="9.6281416"><ele>233.0</ele><time>2026-04-24T11:37:58.978Z</time></trkpt><trkpt lat="45.690911" lon="9.6282313"><ele>233.14285714285717</ele><time>2026-04-24T11:37:59.978Z</time></trkpt><trkpt lat="45.6909052" lon="9.6283306"><ele>233.28571428571428</ele><time>2026-04-24T11:38:00.979Z</time></trkpt><trkpt lat="45.6908878" lon="9.6284284"><ele>233.42857142857144</ele><time>2026-04-24T11:38:01.978Z</time></trkpt><trkpt lat="45.6908686" lon="9.628529"><ele>233.57142857142858</ele><time>2026-04-24T11:38:02.978Z</time></trkpt><trkpt lat="45.690854" lon="9.6286247"><ele>233.71428571428572</ele><time>2026-04-24T11:38:03.979Z</time></trkpt><trkpt lat="45.6908409" lon="9.62872"><ele>233.85714285714286</ele><time>2026-04-24T11:38:04.979Z</time></trkpt><trkpt lat="45.6908189" lon="9.6288113"><ele>234.0</ele><time>2026-04-24T11:38:05.979Z</time></trkpt><trkpt lat="45.6907997" lon="9.6289015"><ele>234.14285714285717</ele><time>2026-04-24T11:38:06.978Z</time></trkpt><trkpt lat="45.6907799" lon="9.6289946"><ele>234.2857142857143</ele><time>2026-04-24T11:38:07.978Z</time></trkpt><trkpt lat="45.6907627" lon="9.62909"><ele>234.42857142857144</ele><time>2026-04-24T11:38:08.978Z</time></trkpt><trkpt lat="45.6907407" lon="9.6291749"><ele>234.57142857142856</ele><time>2026-04-24T11:38:09.978Z</time></trkpt><trkpt lat="45.6907131" lon="9.6292593"><ele>234.7142857142857</ele><time>2026-04-24T11:38:10.978Z</time></trkpt><trkpt lat="45.6906866" lon="9.6293577"><ele>234.85714285714283</ele><time>2026-04-24T11:38:11.979Z</time></trkpt><trkpt lat="45.6906586" lon="9.6294424"><ele>235.0</ele><time>2026-04-24T11:38:12.979Z</time></trkpt><trkpt lat="45.6906232" lon="9.6295436"><ele>235.4</ele><time>2026-04-24T11:38:13.979Z</time></trkpt><trkpt lat="45.6905592" lon="9.6296759"><ele>235.8</ele><time>2026-04-24T11:38:15.979Z</time></trkpt><trkpt lat="45.6905258" lon="9.6297544"><ele>236.2</ele><time>2026-04-24T11:38:16.978Z</time></trkpt><trkpt lat="45.6904758" lon="9.6298173"><ele>236.6</ele><time>2026-04-24T11:38:17.978Z</time></trkpt><trkpt lat="45.6903668" lon="9.6298961"><ele>237.0</ele><time>2026-04-24T11:38:19.978Z</time></trkpt><trkpt lat="45.6902607" lon="9.6299372"><ele>236.5</ele><time>2026-04-24T11:38:21.978Z</time></trkpt><trkpt lat="45.6901593" lon="9.6300137"><ele>236.0</ele><time>2026-04-24T11:38:23.979Z</time></trkpt><trkpt lat="45.690081" lon="9.6301301"><ele>235.5</ele><time>2026-04-24T11:38:25.978Z</time></trkpt><trkpt lat="45.690033" lon="9.6302677"><ele>235.0</ele><time>2026-04-24T11:38:27.978Z</time></trkpt><trkpt lat="45.6899823" lon="9.6304149"><ele>236.0</ele><time>2026-04-24T11:38:29.978Z</time></trkpt><trkpt lat="45.6899061" lon="9.6305354"><ele>237.0</ele><time>2026-04-24T11:38:31.978Z</time></trkpt><trkpt lat="45.6898079" lon="9.630611"><ele>238.0</ele><time>2026-04-24T11:38:33.979Z</time></trkpt><trkpt lat="45.6897028" lon="9.6306352"><ele>239.0</ele><time>2026-04-24T11:38:35.978Z</time></trkpt><trkpt lat="45.6896365" lon="9.6306484"><ele>240.0</ele><time>2026-04-24T11:38:36.978Z</time></trkpt><trkpt lat="45.6895245" lon="9.6306873"><ele>240.0</ele><time>2026-04-24T11:38:38.979Z</time></trkpt><trkpt lat="45.6894552" lon="9.6306893"><ele>240.0</ele><time>2026-04-24T11:38:39.978Z</time></trkpt><trkpt lat="45.6893354" lon="9.6307127"><ele>240.0</ele><time>2026-04-24T11:38:41.978Z</time></trkpt><trkpt lat="45.6892139" lon="9.6307122"><ele>240.0</ele><time>2026-04-24T11:38:43.979Z</time></trkpt><trkpt lat="45.689079" lon="9.6307039"><ele>240.0</ele><time>2026-04-24T11:38:45.978Z</time></trkpt><trkpt lat="45.6890068" lon="9.6306901"><ele>239.28571428571428</ele><time>2026-04-24T11:38:46.978Z</time></trkpt><trkpt lat="45.6889433" lon="9.6306741"><ele>238.57142857142856</ele><time>2026-04-24T11:38:47.978Z</time></trkpt><trkpt lat="45.6888797" lon="9.63065"><ele>237.85714285714283</ele><time>2026-04-24T11:38:48.978Z</time></trkpt><trkpt lat="45.688811" lon="9.6306299"><ele>237.14285714285714</ele><time>2026-04-24T11:38:49.978Z</time></trkpt><trkpt lat="45.6887455" lon="9.6306079"><ele>236.4285714285714</ele><time>2026-04-24T11:38:50.979Z</time></trkpt><trkpt lat="45.6886685" lon="9.6305941"><ele>235.7142857142857</ele><time>2026-04-24T11:38:51.978Z</time></trkpt><trkpt lat="45.6885874" lon="9.6305821"><ele>235.0</ele><time>2026-04-24T11:38:52.978Z</time></trkpt><trkpt lat="45.6884983" lon="9.6305706"><ele>234.33333333333331</ele><time>2026-04-24T11:38:53.978Z</time></trkpt><trkpt lat="45.6884171" lon="9.6305546"><ele>233.66666666666666</ele><time>2026-04-24T11:38:54.978Z</time></trkpt><trkpt lat="45.6883302" lon="9.63055"><ele>233.0</ele><time>2026-04-24T11:38:55.978Z</time></trkpt><trkpt lat="45.6882403" lon="9.6305343"><ele>232.33333333333331</ele><time>2026-04-24T11:38:56.979Z</time></trkpt><trkpt lat="45.6881551" lon="9.6305223"><ele>231.66666666666666</ele><time>2026-04-24T11:38:57.979Z</time></trkpt><trkpt lat="45.6880639" lon="9.6305013"><ele>231.0</ele><time>2026-04-24T11:38:58.978Z</time></trkpt><trkpt lat="45.6879717" lon="9.630485"><ele>231.0</ele><time>2026-04-24T11:38:59.978Z</time></trkpt><trkpt lat="45.6878785" lon="9.6304484"><ele>231.00000000000003</ele><time>2026-04-24T11:39:00.978Z</time></trkpt><trkpt lat="45.6877879" lon="9.6303932"><ele>231.00000000000003</ele><time>2026-04-24T11:39:01.978Z</time></trkpt><trkpt lat="45.6876992" lon="9.6303325"><ele>231.0</ele><time>2026-04-24T11:39:02.978Z</time></trkpt><trkpt lat="45.6876233" lon="9.6302686"><ele>231.0</ele><time>2026-04-24T11:39:03.978Z</time></trkpt><trkpt lat="45.6875453" lon="9.630202"><ele>230.66666666666666</ele><time>2026-04-24T11:39:04.978Z</time></trkpt><trkpt lat="45.6874776" lon="9.6301483"><ele>230.33333333333331</ele><time>2026-04-24T11:39:05.978Z</time></trkpt><trkpt lat="45.6873921" lon="9.6300882"><ele>230.0</ele><time>2026-04-24T11:39:06.978Z</time></trkpt><trkpt lat="45.6873091" lon="9.6300452"><ele>229.66666666666666</ele><time>2026-04-24T11:39:07.978Z</time></trkpt><trkpt lat="45.6872243" lon="9.6300117"><ele>229.33333333333331</ele><time>2026-04-24T11:39:08.978Z</time></trkpt><trkpt lat="45.6871286" lon="9.6299819"><ele>229.0</ele><time>2026-04-24T11:39:09.979Z</time></trkpt><trkpt lat="45.6870451" lon="9.6299675"><ele>228.99999999999997</ele><time>2026-04-24T11:39:10.978Z</time></trkpt><trkpt lat="45.6869594" lon="9.6299767"><ele>229.0</ele><time>2026-04-24T11:39:11.978Z</time></trkpt><trkpt lat="45.6868781" lon="9.6299871"><ele>229.0</ele><time>2026-04-24T11:39:12.978Z</time></trkpt><trkpt lat="45.6867955" lon="9.630008"><ele>229.0</ele><time>2026-04-24T11:39:13.978Z</time></trkpt><trkpt lat="45.6867191" lon="9.6300557"><ele>228.99999999999997</ele><time>2026-04-24T11:39:14.979Z</time></trkpt><trkpt lat="45.6866576" lon="9.6301222"><ele>229.0</ele><time>2026-04-24T11:39:15.978Z</time></trkpt><trkpt lat="45.6866087" lon="9.6302048"><ele>228.83333333333331</ele><time>2026-04-24T11:39:16.978Z</time></trkpt><trkpt lat="45.6865813" lon="9.6303167"><ele>228.66666666666666</ele><time>2026-04-24T11:39:17.979Z</time></trkpt><trkpt lat="45.6865657" lon="9.6304299"><ele>228.5</ele><time>2026-04-24T11:39:18.978Z</time></trkpt><trkpt lat="45.6865657" lon="9.6305365"><ele>228.33333333333331</ele><time>2026-04-24T11:39:19.979Z</time></trkpt><trkpt lat="45.6865897" lon="9.6306355"><ele>228.16666666666666</ele><time>2026-04-24T11:39:20.978Z</time></trkpt><trkpt lat="45.6866211" lon="9.6307261"><ele>228.0</ele><time>2026-04-24T11:39:21.978Z</time></trkpt><trkpt lat="45.6866656" lon="9.6308042"><ele>228.0</ele><time>2026-04-24T11:39:22.978Z</time></trkpt><trkpt lat="45.6867149" lon="9.6308746"><ele>227.99999999999997</ele><time>2026-04-24T11:39:23.979Z</time></trkpt><trkpt lat="45.6867742" lon="9.6309334"><ele>228.0</ele><time>2026-04-24T11:39:24.978Z</time></trkpt><trkpt lat="45.6868391" lon="9.6309726"><ele>228.0</ele><time>2026-04-24T11:39:25.978Z</time></trkpt><trkpt lat="45.6869043" lon="9.6310094"><ele>227.99999999999997</ele><time>2026-04-24T11:39:26.978Z</time></trkpt><trkpt lat="45.6869687" lon="9.6310434"><ele>228.0</ele><time>2026-04-24T11:39:27.978Z</time></trkpt><trkpt lat="45.6870371" lon="9.631075"><ele>228.0</ele><time>2026-04-24T11:39:28.978Z</time></trkpt><trkpt lat="45.6870998" lon="9.6311163"><ele>228.0</ele><time>2026-04-24T11:39:29.978Z</time></trkpt><trkpt lat="45.6871557" lon="9.6311789"><ele>227.99999999999997</ele><time>2026-04-24T11:39:30.979Z</time></trkpt><trkpt lat="45.6871979" lon="9.6312486"><ele>228.0</ele><time>2026-04-24T11:39:31.979Z</time></trkpt><trkpt lat="45.6872297" lon="9.6313371"><ele>228.0</ele><time>2026-04-24T11:39:32.978Z</time></trkpt><trkpt lat="45.6872616" lon="9.6314319"><ele>227.99999999999997</ele><time>2026-04-24T11:39:33.979Z</time></trkpt><trkpt lat="45.6872908" lon="9.6315405"><ele>228.0</ele><time>2026-04-24T11:39:34.978Z</time></trkpt><trkpt lat="45.6873186" lon="9.6316216"><ele>228.0</ele><time>2026-04-24T11:39:35.978Z</time></trkpt><trkpt lat="45.6873527" lon="9.631716"><ele>228.0</ele><time>2026-04-24T11:39:36.978Z</time></trkpt><trkpt lat="45.6873841" lon="9.6318095"><ele>228.0</ele><time>2026-04-24T11:39:37.978Z</time></trkpt><trkpt lat="45.6874152" lon="9.6319115"><ele>228.0</ele><time>2026-04-24T11:39:38.978Z</time></trkpt><trkpt lat="45.6874438" lon="9.6320057"><ele>228.0</ele><time>2026-04-24T11:39:39.978Z</time></trkpt><trkpt lat="45.6874748" lon="9.6321076"><ele>228.0</ele><time>2026-04-24T11:39:40.978Z</time></trkpt><trkpt lat="45.6875104" lon="9.6322084"><ele>228.0</ele><time>2026-04-24T11:39:41.978Z</time></trkpt><trkpt lat="45.6875409" lon="9.6323049"><ele>227.85714285714283</ele><time>2026-04-24T11:39:42.978Z</time></trkpt><trkpt lat="45.6875693" lon="9.6324114"><ele>227.7142857142857</ele><time>2026-04-24T11:39:43.979Z</time></trkpt><trkpt lat="45.6875958" lon="9.6325126"><ele>227.57142857142856</ele><time>2026-04-24T11:39:44.979Z</time></trkpt><trkpt lat="45.6876257" lon="9.6326174"><ele>227.42857142857144</ele><time>2026-04-24T11:39:45.979Z</time></trkpt><trkpt lat="45.687656" lon="9.6327089"><ele>227.2857142857143</ele><time>2026-04-24T11:39:46.978Z</time></trkpt><trkpt lat="45.6876827" lon="9.632805"><ele>227.14285714285717</ele><time>2026-04-24T11:39:47.978Z</time></trkpt><trkpt lat="45.6877105" lon="9.6328972"><ele>227.0</ele><time>2026-04-24T11:39:48.978Z</time></trkpt><trkpt lat="45.6877413" lon="9.6329793"><ele>227.57142857142858</ele><time>2026-04-24T11:39:49.978Z</time></trkpt><trkpt lat="45.6877691" lon="9.6330785"><ele>228.14285714285717</ele><time>2026-04-24T11:39:50.979Z</time></trkpt><trkpt lat="45.6877997" lon="9.6331601"><ele>228.71428571428572</ele><time>2026-04-24T11:39:51.978Z</time></trkpt><trkpt lat="45.6878295" lon="9.6332568"><ele>229.28571428571428</ele><time>2026-04-24T11:39:52.978Z</time></trkpt><trkpt lat="45.6878582" lon="9.6333537"><ele>229.85714285714286</ele><time>2026-04-24T11:39:53.978Z</time></trkpt><trkpt lat="45.6878824" lon="9.633458"><ele>230.42857142857144</ele><time>2026-04-24T11:39:54.979Z</time></trkpt><trkpt lat="45.6879106" lon="9.6335514"><ele>231.0</ele><time>2026-04-24T11:39:55.978Z</time></trkpt><trkpt lat="45.6879343" lon="9.633655"><ele>231.0</ele><time>2026-04-24T11:39:56.978Z</time></trkpt><trkpt lat="45.6879634" lon="9.6337632"><ele>231.0</ele><time>2026-04-24T11:39:57.979Z</time></trkpt><trkpt lat="45.6879835" lon="9.633862"><ele>231.0</ele><time>2026-04-24T11:39:58.979Z</time></trkpt><trkpt lat="45.6880083" lon="9.6339558"><ele>231.0</ele><time>2026-04-24T11:39:59.979Z</time></trkpt><trkpt lat="45.6880333" lon="9.6340592"><ele>231.0</ele><time>2026-04-24T11:40:00.979Z</time></trkpt><trkpt lat="45.6880534" lon="9.6341522"><ele>231.0</ele><time>2026-04-24T11:40:01.978Z</time></trkpt><trkpt lat="45.6880734" lon="9.6342562"><ele>231.0</ele><time>2026-04-24T11:40:02.978Z</time></trkpt><trkpt lat="45.6880889" lon="9.634354"><ele>231.0</ele><time>2026-04-24T11:40:03.978Z</time></trkpt><trkpt lat="45.6881071" lon="9.6344549"><ele>231.0</ele><time>2026-04-24T11:40:04.978Z</time></trkpt><trkpt lat="45.6881125" lon="9.6345578"><ele>231.0</ele><time>2026-04-24T11:40:05.978Z</time></trkpt><trkpt lat="45.6880834" lon="9.6347424"><ele>231.0</ele><time>2026-04-24T11:40:07.978Z</time></trkpt><trkpt lat="45.6880686" lon="9.6348399"><ele>231.0</ele><time>2026-04-24T11:40:08.978Z</time></trkpt><trkpt lat="45.6880577" lon="9.6349391"><ele>231.0</ele><time>2026-04-24T11:40:09.978Z</time></trkpt><trkpt lat="45.6880825" lon="9.6350288"><ele>231.16666666666666</ele><time>2026-04-24T11:40:10.978Z</time></trkpt><trkpt lat="45.6881103" lon="9.6351122"><ele>231.33333333333331</ele><time>2026-04-24T11:40:11.978Z</time></trkpt><trkpt lat="45.6881848" lon="9.635216"><ele>231.5</ele><time>2026-04-24T11:40:13.978Z</time></trkpt><trkpt lat="45.688251" lon="9.6352457"><ele>231.66666666666666</ele><time>2026-04-24T11:40:16.979Z</time></trkpt><trkpt lat="45.6882938" lon="9.6351694"><ele>231.83333333333331</ele><time>2026-04-24T11:40:27.979Z</time></trkpt><trkpt lat="45.6882409" lon="9.6352834"><ele>232.0</ele><time>2026-04-24T11:40:31.978Z</time></trkpt><trkpt lat="45.6882379" lon="9.6354319"><ele>232.0</ele><time>2026-04-24T11:40:33.978Z</time></trkpt><trkpt lat="45.6882422" lon="9.6355817"><ele>232.0</ele><time>2026-04-24T11:40:35.978Z</time></trkpt><trkpt lat="45.6882413" lon="9.6357399"><ele>232.0</ele><time>2026-04-24T11:40:37.978Z</time></trkpt><trkpt lat="45.6882356" lon="9.6359125"><ele>232.0</ele><time>2026-04-24T11:40:39.978Z</time></trkpt><trkpt lat="45.6882214" lon="9.6360858"><ele>231.39999999999998</ele><time>2026-04-24T11:40:41.978Z</time></trkpt><trkpt lat="45.6882093" lon="9.6362588"><ele>230.79999999999998</ele><time>2026-04-24T11:40:43.978Z</time></trkpt><trkpt lat="45.6881986" lon="9.636351"><ele>230.2</ele><time>2026-04-24T11:40:44.978Z</time></trkpt><trkpt lat="45.6881795" lon="9.6365225"><ele>229.6</ele><time>2026-04-24T11:40:46.978Z</time></trkpt><trkpt lat="45.6881621" lon="9.6366917"><ele>229.0</ele><time>2026-04-24T11:40:48.979Z</time></trkpt><trkpt lat="45.6881357" lon="9.6368709"><ele>229.2</ele><time>2026-04-24T11:40:50.978Z</time></trkpt><trkpt lat="45.6881041" lon="9.6370494"><ele>229.39999999999998</ele><time>2026-04-24T11:40:52.978Z</time></trkpt><trkpt lat="45.6880738" lon="9.6372123"><ele>229.6</ele><time>2026-04-24T11:40:54.978Z</time></trkpt><trkpt lat="45.6880302" lon="9.6373816"><ele>229.8</ele><time>2026-04-24T11:40:56.979Z</time></trkpt><trkpt lat="45.6880169" lon="9.637471"><ele>230.0</ele><time>2026-04-24T11:40:57.979Z</time></trkpt><trkpt lat="45.6880028" lon="9.6375629"><ele>230.0</ele><time>2026-04-24T11:40:58.979Z</time></trkpt><trkpt lat="45.6879557" lon="9.6377287"><ele>230.0</ele><time>2026-04-24T11:41:00.978Z</time></trkpt><trkpt lat="45.6879287" lon="9.6378238"><ele>230.0</ele><time>2026-04-24T11:41:01.979Z</time></trkpt><trkpt lat="45.6878786" lon="9.6379779"><ele>230.0</ele><time>2026-04-24T11:41:03.978Z</time></trkpt><trkpt lat="45.6878508" lon="9.6380616"><ele>230.0</ele><time>2026-04-24T11:41:04.979Z</time></trkpt><trkpt lat="45.6878035" lon="9.6381915"><ele>230.33333333333334</ele><time>2026-04-24T11:41:06.979Z</time></trkpt><trkpt lat="45.6877687" lon="9.6383266"><ele>230.66666666666669</ele><time>2026-04-24T11:41:08.979Z</time></trkpt><trkpt lat="45.6877835" lon="9.6384464"><ele>231.0</ele><time>2026-04-24T11:41:10.978Z</time></trkpt><trkpt lat="45.6878379" lon="9.6384932"><ele>231.33333333333331</ele><time>2026-04-24T11:41:12.978Z</time></trkpt><trkpt lat="45.6879084" lon="9.6385006"><ele>231.66666666666666</ele><time>2026-04-24T11:41:14.978Z</time></trkpt><trkpt lat="45.6879847" lon="9.6385156"><ele>232.0</ele><time>2026-04-24T11:41:16.978Z</time></trkpt><trkpt lat="45.6880615" lon="9.638754"><ele>232.0</ele><time>2026-04-24T11:41:25.979Z</time></trkpt><trkpt lat="45.6880415" lon="9.6388667"><ele>232.0</ele><time>2026-04-24T11:41:27.978Z</time></trkpt><trkpt lat="45.6880302" lon="9.6389937"><ele>232.0</ele><time>2026-04-24T11:41:29.978Z</time></trkpt><trkpt lat="45.688011" lon="9.639144"><ele>232.0</ele><time>2026-04-24T11:41:31.978Z</time></trkpt><trkpt lat="45.6880011" lon="9.6393086"><ele>232.0</ele><time>2026-04-24T11:41:33.978Z</time></trkpt><trkpt lat="45.6880059" lon="9.6394267"><ele>231.6</ele><time>2026-04-24T11:41:35.978Z</time></trkpt><trkpt lat="45.688062" lon="9.6395292"><ele>231.2</ele><time>2026-04-24T11:41:37.978Z</time></trkpt><trkpt lat="45.6881545" lon="9.6395789"><ele>230.8</ele><time>2026-04-24T11:41:39.979Z</time></trkpt><trkpt lat="45.688244" lon="9.6396156"><ele>230.4</ele><time>2026-04-24T11:41:41.978Z</time></trkpt><trkpt lat="45.6883244" lon="9.6396303"><ele>230.0</ele><time>2026-04-24T11:41:43.978Z</time></trkpt><trkpt lat="45.6884274" lon="9.6396035"><ele>230.0</ele><time>2026-04-24T11:41:46.978Z</time></trkpt><trkpt lat="45.6884821" lon="9.6395205"><ele>230.0</ele><time>2026-04-24T11:41:48.978Z</time></trkpt><trkpt lat="45.6887108" lon="9.6392697"><ele>230.0</ele><time>2026-04-24T11:41:56.978Z</time></trkpt><trkpt lat="45.6887798" lon="9.6391977"><ele>230.2</ele><time>2026-04-24T11:41:57.978Z</time></trkpt><trkpt lat="45.6888844" lon="9.6391037"><ele>230.4</ele><time>2026-04-24T11:41:59.978Z</time></trkpt><trkpt lat="45.6889175" lon="9.6390213"><ele>230.60000000000002</ele><time>2026-04-24T11:42:00.978Z</time></trkpt><trkpt lat="45.6889696" lon="9.6389652"><ele>230.8</ele><time>2026-04-24T11:42:01.979Z</time></trkpt><trkpt lat="45.689035" lon="9.6388508"><ele>231.0</ele><time>2026-04-24T11:42:03.978Z</time></trkpt><trkpt lat="45.6891194" lon="9.6387637"><ele>231.0</ele><time>2026-04-24T11:42:05.978Z</time></trkpt><trkpt lat="45.6891881" lon="9.6386584"><ele>231.00000000000003</ele><time>2026-04-24T11:42:07.979Z</time></trkpt><trkpt lat="45.6892513" lon="9.6385749"><ele>231.00000000000003</ele><time>2026-04-24T11:42:09.978Z</time></trkpt><trkpt lat="45.6893172" lon="9.6385225"><ele>231.0</ele><time>2026-04-24T11:42:11.978Z</time></trkpt><trkpt lat="45.6893813" lon="9.6384983"><ele>231.0</ele><time>2026-04-24T11:42:13.978Z</time></trkpt><trkpt lat="45.6895336" lon="9.6383947"><ele>230.8</ele><time>2026-04-24T11:42:19.97Z</time></trkpt><trkpt lat="45.6895932" lon="9.6382589"><ele>230.60000000000002</ele><time>2026-04-24T11:42:21.985Z</time></trkpt><trkpt lat="45.6896341" lon="9.6381589"><ele>230.4</ele><time>2026-04-24T11:42:23.978Z</time></trkpt><trkpt lat="45.6896943" lon="9.6380198"><ele>230.2</ele><time>2026-04-24T11:42:25.977Z</time></trkpt><trkpt lat="45.6897483" lon="9.6378886"><ele>230.0</ele><time>2026-04-24T11:42:27.976Z</time></trkpt><trkpt lat="45.6897711" lon="9.6377658"><ele>230.00000000000003</ele><time>2026-04-24T11:42:29.976Z</time></trkpt><trkpt lat="45.6898073" lon="9.637671"><ele>230.0</ele><time>2026-04-24T11:42:31.976Z</time></trkpt><trkpt lat="45.6898891" lon="9.6377283"><ele>230.0</ele><time>2026-04-24T11:42:34.976Z</time></trkpt><trkpt lat="45.689924" lon="9.6378223"><ele>230.0</ele><time>2026-04-24T11:42:36.976Z</time></trkpt><trkpt lat="45.6899616" lon="9.6379198"><ele>230.00000000000003</ele><time>2026-04-24T11:42:38.976Z</time></trkpt><trkpt lat="45.6900153" lon="9.6379924"><ele>230.0</ele><time>2026-04-24T11:42:40.976Z</time></trkpt><trkpt lat="45.6900795" lon="9.6380039"><ele>230.00000000000003</ele><time>2026-04-24T11:42:42.976Z</time></trkpt><trkpt lat="45.6901303" lon="9.6380962"><ele>230.0</ele><time>2026-04-24T11:42:44.976Z</time></trkpt><trkpt lat="45.6901783" lon="9.6382023"><ele>230.0</ele><time>2026-04-24T11:42:46.977Z</time></trkpt><trkpt lat="45.6902131" lon="9.6383003"><ele>230.0</ele><time>2026-04-24T11:42:48.977Z</time></trkpt><trkpt lat="45.6902713" lon="9.6383378"><ele>230.00000000000003</ele><time>2026-04-24T11:42:52.976Z</time></trkpt><trkpt lat="45.6903338" lon="9.6382868"><ele>230.0</ele><time>2026-04-24T11:42:54.976Z</time></trkpt><trkpt lat="45.690393" lon="9.6382386"><ele>231.00000000000003</ele><time>2026-04-24T11:42:56.976Z</time></trkpt><trkpt lat="45.6904231" lon="9.6381387"><ele>232.0</ele><time>2026-04-24T11:43:00.976Z</time></trkpt><trkpt lat="45.6903792" lon="9.6380383"><ele>233.0</ele><time>2026-04-24T11:43:03.976Z</time></trkpt><trkpt lat="45.6903368" lon="9.6379401"><ele>234.0</ele><time>2026-04-24T11:43:05.976Z</time></trkpt><trkpt lat="45.690299" lon="9.6378288"><ele>235.00000000000003</ele><time>2026-04-24T11:43:07.976Z</time></trkpt><trkpt lat="45.6902836" lon="9.6377239"><ele>236.0</ele><time>2026-04-24T11:43:09.976Z</time></trkpt><trkpt lat="45.6902644" lon="9.6376111"><ele>236.50000000000003</ele><time>2026-04-24T11:43:11.977Z</time></trkpt><trkpt lat="45.6902647" lon="9.6374934"><ele>237.0</ele><time>2026-04-24T11:43:13.977Z</time></trkpt><trkpt lat="45.6903029" lon="9.6373607"><ele>237.5</ele><time>2026-04-24T11:43:16.976Z</time></trkpt><trkpt lat="45.6903409" lon="9.6372434"><ele>238.0</ele><time>2026-04-24T11:43:18.976Z</time></trkpt><trkpt lat="45.6904031" lon="9.6371696"><ele>238.50000000000003</ele><time>2026-04-24T11:43:20.976Z</time></trkpt><trkpt lat="45.6904734" lon="9.6371417"><ele>239.0</ele><time>2026-04-24T11:43:21.976Z</time></trkpt><trkpt lat="45.6905662" lon="9.6371083"><ele>239.00000000000003</ele><time>2026-04-24T11:43:23.976Z</time></trkpt><trkpt lat="45.6906329" lon="9.6371417"><ele>239.0</ele><time>2026-04-24T11:43:25.976Z</time></trkpt><trkpt lat="45.6907182" lon="9.6371302"><ele>239.0</ele><time>2026-04-24T11:43:27.976Z</time></trkpt><trkpt lat="45.6907943" lon="9.6371456"><ele>239.0</ele><time>2026-04-24T11:43:29.976Z</time></trkpt><trkpt lat="45.6908685" lon="9.6371503"><ele>239.00000000000003</ele><time>2026-04-24T11:43:31.977Z</time></trkpt><trkpt lat="45.690942" lon="9.6371738"><ele>239.0</ele><time>2026-04-24T11:43:33.977Z</time></trkpt><trkpt lat="45.6910107" lon="9.6371903"><ele>239.00000000000003</ele><time>2026-04-24T11:43:35.976Z</time></trkpt><trkpt lat="45.6910838" lon="9.6371743"><ele>239.0</ele><time>2026-04-24T11:43:37.976Z</time></trkpt><trkpt lat="45.691158" lon="9.6371597"><ele>239.00000000000003</ele><time>2026-04-24T11:43:39.976Z</time></trkpt><trkpt lat="45.6912283" lon="9.6371212"><ele>239.00000000000003</ele><time>2026-04-24T11:43:41.976Z</time></trkpt><trkpt lat="45.6912961" lon="9.6370928"><ele>239.0</ele><time>2026-04-24T11:43:43.976Z</time></trkpt><trkpt lat="45.6913709" lon="9.6371032"><ele>239.00000000000003</ele><time>2026-04-24T11:43:45.976Z</time></trkpt><trkpt lat="45.6914144" lon="9.6371721"><ele>239.00000000000003</ele><time>2026-04-24T11:43:47.977Z</time></trkpt><trkpt lat="45.6914579" lon="9.6372826"><ele>240.00000000000003</ele><time>2026-04-24T11:43:50.976Z</time></trkpt><trkpt lat="45.6915202" lon="9.6373206"><ele>241.0</ele><time>2026-04-24T11:43:53.976Z</time></trkpt><trkpt lat="45.6916007" lon="9.6373225"><ele>242.00000000000003</ele><time>2026-04-24T11:43:56.976Z</time></trkpt><trkpt lat="45.6916647" lon="9.6373259"><ele>243.00000000000003</ele><time>2026-04-24T11:44:05.976Z</time></trkpt><trkpt lat="45.6917261" lon="9.637361"><ele>244.0</ele><time>2026-04-24T11:44:11.976Z</time></trkpt><trkpt lat="45.6918151" lon="9.6373319"><ele>245.00000000000003</ele><time>2026-04-24T11:44:16.976Z</time></trkpt><trkpt lat="45.6918838" lon="9.637287"><ele>246.00000000000003</ele><time>2026-04-24T11:44:18.977Z</time></trkpt><trkpt lat="45.6919211" lon="9.6371571"><ele>246.0</ele><time>2026-04-24T11:44:21.976Z</time></trkpt><trkpt lat="45.6919534" lon="9.6370692"><ele>246.0</ele><time>2026-04-24T11:44:23.977Z</time></trkpt><trkpt lat="45.6919912" lon="9.6369816"><ele>246.0</ele><time>2026-04-24T11:44:25.976Z</time></trkpt><trkpt lat="45.6920399" lon="9.6368861"><ele>246.0</ele><time>2026-04-24T11:44:28.976Z</time></trkpt><trkpt lat="45.6920949" lon="9.6367973"><ele>246.0</ele><time>2026-04-24T11:44:31.977Z</time></trkpt><trkpt lat="45.6921475" lon="9.636727"><ele>246.0</ele><time>2026-04-24T11:44:33.977Z</time></trkpt><trkpt lat="45.6922102" lon="9.6366574"><ele>246.0</ele><time>2026-04-24T11:44:35.976Z</time></trkpt><trkpt lat="45.6922772" lon="9.6365958"><ele>246.00000000000003</ele><time>2026-04-24T11:44:37.977Z</time></trkpt><trkpt lat="45.692351" lon="9.6365222"><ele>246.00000000000003</ele><time>2026-04-24T11:44:39.976Z</time></trkpt><trkpt lat="45.6924178" lon="9.6364325"><ele>246.0</ele><time>2026-04-24T11:44:41.977Z</time></trkpt><trkpt lat="45.6925013" lon="9.6363467"><ele>246.0</ele><time>2026-04-24T11:44:43.976Z</time></trkpt><trkpt lat="45.6925873" lon="9.636266"><ele>246.0</ele><time>2026-04-24T11:44:45.976Z</time></trkpt><trkpt lat="45.6926588" lon="9.6361973"><ele>246.00000000000003</ele><time>2026-04-24T11:44:47.977Z</time></trkpt><trkpt lat="45.6927341" lon="9.6361174"><ele>246.00000000000003</ele><time>2026-04-24T11:44:49.976Z</time></trkpt><trkpt lat="45.6928172" lon="9.636039"><ele>246.0</ele><time>2026-04-24T11:44:51.976Z</time></trkpt><trkpt lat="45.6928954" lon="9.6359634"><ele>246.0</ele><time>2026-04-24T11:44:53.976Z</time></trkpt><trkpt lat="45.6929756" lon="9.6358767"><ele>245.66666666666666</ele><time>2026-04-24T11:44:55.976Z</time></trkpt><trkpt lat="45.6930483" lon="9.6358123"><ele>245.33333333333331</ele><time>2026-04-24T11:44:57.976Z</time></trkpt><trkpt lat="45.6931197" lon="9.6357372"><ele>245.0</ele><time>2026-04-24T11:44:59.976Z</time></trkpt><trkpt lat="45.693216" lon="9.6356692"><ele>244.66666666666666</ele><time>2026-04-24T11:45:01.976Z</time></trkpt><trkpt lat="45.6932955" lon="9.6356045"><ele>244.33333333333331</ele><time>2026-04-24T11:45:03.976Z</time></trkpt><trkpt lat="45.6933499" lon="9.6355447"><ele>244.0</ele><time>2026-04-24T11:45:05.976Z</time></trkpt><trkpt lat="45.6934228" lon="9.6354771"><ele>243.99999999999997</ele><time>2026-04-24T11:45:08.977Z</time></trkpt><trkpt lat="45.6934752" lon="9.6355347"><ele>244.0</ele><time>2026-04-24T11:45:11.976Z</time></trkpt><trkpt lat="45.6934508" lon="9.6356351"><ele>244.0</ele><time>2026-04-24T11:45:14.976Z</time></trkpt><trkpt lat="45.6934018" lon="9.6357078"><ele>244.0</ele><time>2026-04-24T11:45:16.977Z</time></trkpt><trkpt lat="45.6933573" lon="9.6357775"><ele>243.99999999999997</ele><time>2026-04-24T11:45:18.976Z</time></trkpt><trkpt lat="45.6933606" lon="9.6359094"><ele>244.0</ele><time>2026-04-24T11:45:21.977Z</time></trkpt><trkpt lat="45.6934248" lon="9.6360186"><ele>243.99999999999997</ele><time>2026-04-24T11:45:24.976Z</time></trkpt><trkpt lat="45.6934707" lon="9.6361117"><ele>244.0</ele><time>2026-04-24T11:45:26.976Z</time></trkpt><trkpt lat="45.6935063" lon="9.6362103"><ele>244.0</ele><time>2026-04-24T11:45:28.976Z</time></trkpt><trkpt lat="45.6935786" lon="9.6362838"><ele>244.0</ele><time>2026-04-24T11:45:30.976Z</time></trkpt><trkpt lat="45.6936575" lon="9.6363028"><ele>243.99999999999997</ele><time>2026-04-24T11:45:32.976Z</time></trkpt><trkpt lat="45.6937315" lon="9.6362522"><ele>244.0</ele><time>2026-04-24T11:45:34.976Z</time></trkpt><trkpt lat="45.6938171" lon="9.63623"><ele>244.0</ele><time>2026-04-24T11:45:36.976Z</time></trkpt><trkpt lat="45.6939095" lon="9.6361993"><ele>243.99999999999997</ele><time>2026-04-24T11:45:40.977Z</time></trkpt><trkpt lat="45.6939723" lon="9.6361435"><ele>243.99999999999997</ele><time>2026-04-24T11:45:43.977Z</time></trkpt><trkpt lat="45.694057" lon="9.6360733"><ele>244.0</ele><time>2026-04-24T11:45:45.976Z</time></trkpt><trkpt lat="45.694152" lon="9.635974"><ele>244.0</ele><time>2026-04-24T11:45:47.976Z</time></trkpt><trkpt lat="45.6942298" lon="9.6358608"><ele>244.0</ele><time>2026-04-24T11:45:49.976Z</time></trkpt><trkpt lat="45.6943349" lon="9.6357712"><ele>244.0</ele><time>2026-04-24T11:45:51.977Z</time></trkpt><trkpt lat="45.6944416" lon="9.6357212"><ele>244.0</ele><time>2026-04-24T11:45:53.977Z</time></trkpt><trkpt lat="45.6946028" lon="9.6357342"><ele>244.0</ele><time>2026-04-24T11:45:56.976Z</time></trkpt><trkpt lat="45.6946716" lon="9.6357327"><ele>244.0</ele><time>2026-04-24T11:45:57.976Z</time></trkpt><trkpt lat="45.6947439" lon="9.6357236"><ele>243.99999999999997</ele><time>2026-04-24T11:45:58.976Z</time></trkpt><trkpt lat="45.6948605" lon="9.6357005"><ele>243.99999999999997</ele><time>2026-04-24T11:46:00.977Z</time></trkpt><trkpt lat="45.6949786" lon="9.6356544"><ele>244.0</ele><time>2026-04-24T11:46:02.977Z</time></trkpt><trkpt lat="45.6950832" lon="9.6355933"><ele>244.0</ele><time>2026-04-24T11:46:04.976Z</time></trkpt><trkpt lat="45.6951827" lon="9.6355361"><ele>244.79999999999998</ele><time>2026-04-24T11:46:06.977Z</time></trkpt><trkpt lat="45.6953022" lon="9.6355443"><ele>245.59999999999997</ele><time>2026-04-24T11:46:08.976Z</time></trkpt><trkpt lat="45.6954247" lon="9.6355549"><ele>246.4</ele><time>2026-04-24T11:46:10.976Z</time></trkpt><trkpt lat="45.6954877" lon="9.6355591"><ele>247.2</ele><time>2026-04-24T11:46:11.976Z</time></trkpt><trkpt lat="45.695612" lon="9.6355975"><ele>248.0</ele><time>2026-04-24T11:46:13.977Z</time></trkpt><trkpt lat="45.69572" lon="9.6356527"><ele>248.00000000000003</ele><time>2026-04-24T11:46:15.976Z</time></trkpt><trkpt lat="45.6958131" lon="9.6357039"><ele>248.0</ele><time>2026-04-24T11:46:17.976Z</time></trkpt><trkpt lat="45.6958933" lon="9.6357601"><ele>248.0</ele><time>2026-04-24T11:46:19.976Z</time></trkpt><trkpt lat="45.6959508" lon="9.6358059"><ele>248.0</ele><time>2026-04-24T11:46:22.976Z</time></trkpt><trkpt lat="45.6960115" lon="9.6357292"><ele>248.00000000000003</ele><time>2026-04-24T11:46:32.976Z</time></trkpt><trkpt lat="45.6960375" lon="9.635615"><ele>248.0</ele><time>2026-04-24T11:46:34.976Z</time></trkpt><trkpt lat="45.696048" lon="9.6354484"><ele>248.00000000000003</ele><time>2026-04-24T11:46:36.977Z</time></trkpt><trkpt lat="45.6960463" lon="9.6353277"><ele>248.0</ele><time>2026-04-24T11:46:38.977Z</time></trkpt><trkpt lat="45.6960383" lon="9.6351831"><ele>248.0</ele><time>2026-04-24T11:46:40.976Z</time></trkpt><trkpt lat="45.6960394" lon="9.6350659"><ele>248.0</ele><time>2026-04-24T11:46:42.977Z</time></trkpt><trkpt lat="45.6960914" lon="9.635009"><ele>248.00000000000003</ele><time>2026-04-24T11:46:45.976Z</time></trkpt><trkpt lat="45.6961604" lon="9.6350201"><ele>248.0</ele><time>2026-04-24T11:46:48.976Z</time></trkpt><trkpt lat="45.6962507" lon="9.6350473"><ele>247.25</ele><time>2026-04-24T11:46:50.976Z</time></trkpt><trkpt lat="45.6964228" lon="9.6350848"><ele>246.5</ele><time>2026-04-24T11:46:53.976Z</time></trkpt><trkpt lat="45.6965032" lon="9.6350975"><ele>245.75</ele><time>2026-04-24T11:46:54.976Z</time></trkpt><trkpt lat="45.6966327" lon="9.6351"><ele>245.0</ele><time>2026-04-24T11:46:56.976Z</time></trkpt><trkpt lat="45.6967401" lon="9.6351536"><ele>245.0</ele><time>2026-04-24T11:46:59.976Z</time></trkpt><trkpt lat="45.6968526" lon="9.6351822"><ele>245.0</ele><time>2026-04-24T11:47:01.976Z</time></trkpt><trkpt lat="45.6969258" lon="9.6351949"><ele>245.0</ele><time>2026-04-24T11:47:02.976Z</time></trkpt><trkpt lat="45.6969898" lon="9.6352147"><ele>245.0</ele><time>2026-04-24T11:47:03.976Z</time></trkpt><trkpt lat="45.6971163" lon="9.6352811"><ele>245.0</ele><time>2026-04-24T11:47:05.976Z</time></trkpt><trkpt lat="45.6972386" lon="9.6353085"><ele>245.4</ele><time>2026-04-24T11:47:07.976Z</time></trkpt><trkpt lat="45.6973452" lon="9.6353359"><ele>245.8</ele><time>2026-04-24T11:47:09.977Z</time></trkpt><trkpt lat="45.6974429" lon="9.6353565"><ele>246.2</ele><time>2026-04-24T11:47:11.977Z</time></trkpt><trkpt lat="45.6975504" lon="9.6353894"><ele>246.6</ele><time>2026-04-24T11:47:13.976Z</time></trkpt><trkpt lat="45.697634" lon="9.6354212"><ele>247.0</ele><time>2026-04-24T11:47:15.976Z</time></trkpt><trkpt lat="45.6976682" lon="9.6355346"><ele>246.99999999999997</ele><time>2026-04-24T11:47:17.976Z</time></trkpt><trkpt lat="45.6976765" lon="9.6356326"><ele>247.0</ele><time>2026-04-24T11:47:19.976Z</time></trkpt><trkpt lat="45.6976932" lon="9.6357276"><ele>247.0</ele><time>2026-04-24T11:47:21.976Z</time></trkpt><trkpt lat="45.6977479" lon="9.6358114"><ele>247.0</ele><time>2026-04-24T11:47:23.977Z</time></trkpt><trkpt lat="45.6978339" lon="9.6358303"><ele>246.99999999999997</ele><time>2026-04-24T11:47:25.976Z</time></trkpt><trkpt lat="45.6979292" lon="9.6358452"><ele>247.0</ele><time>2026-04-24T11:47:27.977Z</time></trkpt><trkpt lat="45.6980189" lon="9.6358555"><ele>247.0</ele><time>2026-04-24T11:47:29.977Z</time></trkpt><trkpt lat="45.6981133" lon="9.6358592"><ele>247.0</ele><time>2026-04-24T11:47:31.976Z</time></trkpt><trkpt lat="45.6982072" lon="9.6358717"><ele>247.0</ele><time>2026-04-24T11:47:33.977Z</time></trkpt><trkpt lat="45.6983048" lon="9.635883"><ele>247.0</ele><time>2026-04-24T11:47:35.977Z</time></trkpt><trkpt lat="45.6984094" lon="9.6358917"><ele>247.0</ele><time>2026-04-24T11:47:37.977Z</time></trkpt><trkpt lat="45.6985202" lon="9.6359084"><ele>246.8</ele><time>2026-04-24T11:47:39.976Z</time></trkpt><trkpt lat="45.6986305" lon="9.6359202"><ele>246.6</ele><time>2026-04-24T11:47:41.977Z</time></trkpt><trkpt lat="45.698739" lon="9.635935"><ele>246.40000000000003</ele><time>2026-04-24T11:47:43.976Z</time></trkpt><trkpt lat="45.6988483" lon="9.6359517"><ele>246.20000000000002</ele><time>2026-04-24T11:47:45.976Z</time></trkpt><trkpt lat="45.698966" lon="9.635972"><ele>246.0</ele><time>2026-04-24T11:47:47.976Z</time></trkpt><trkpt lat="45.6990777" lon="9.6359937"><ele>246.0</ele><time>2026-04-24T11:47:49.977Z</time></trkpt><trkpt lat="45.6991923" lon="9.6360071"><ele>246.00000000000003</ele><time>2026-04-24T11:47:51.976Z</time></trkpt><trkpt lat="45.6993081" lon="9.6360226"><ele>246.00000000000003</ele><time>2026-04-24T11:47:53.976Z</time></trkpt><trkpt lat="45.6993731" lon="9.6360352"><ele>246.0</ele><time>2026-04-24T11:47:54.976Z</time></trkpt><trkpt lat="45.6994981" lon="9.6360703"><ele>246.0</ele><time>2026-04-24T11:47:56.976Z</time></trkpt><trkpt lat="45.6995603" lon="9.6360862"><ele>246.0</ele><time>2026-04-24T11:47:57.977Z</time></trkpt><trkpt lat="45.6996793" lon="9.6360952"><ele>246.0</ele><time>2026-04-24T11:47:59.976Z</time></trkpt><trkpt lat="45.6997449" lon="9.6361045"><ele>246.0</ele><time>2026-04-24T11:48:00.976Z</time></trkpt><trkpt lat="45.6998078" lon="9.6361203"><ele>246.0</ele><time>2026-04-24T11:48:01.977Z</time></trkpt><trkpt lat="45.6998737" lon="9.6361298"><ele>246.0</ele><time>2026-04-24T11:48:02.976Z</time></trkpt><trkpt lat="45.6999385" lon="9.636137"><ele>246.0</ele><time>2026-04-24T11:48:03.977Z</time></trkpt><trkpt lat="45.7000554" lon="9.6361543"><ele>246.60000000000002</ele><time>2026-04-24T11:48:05.976Z</time></trkpt><trkpt lat="45.7001782" lon="9.6361691"><ele>247.20000000000002</ele><time>2026-04-24T11:48:07.977Z</time></trkpt><trkpt lat="45.7002985" lon="9.636178"><ele>247.79999999999998</ele><time>2026-04-24T11:48:09.976Z</time></trkpt><trkpt lat="45.7003651" lon="9.6361842"><ele>248.39999999999998</ele><time>2026-04-24T11:48:10.977Z</time></trkpt><trkpt lat="45.7004291" lon="9.6361923"><ele>249.0</ele><time>2026-04-24T11:48:11.976Z</time></trkpt><trkpt lat="45.7005421" lon="9.6362052"><ele>249.25</ele><time>2026-04-24T11:48:13.976Z</time></trkpt><trkpt lat="45.7006526" lon="9.6362252"><ele>249.5</ele><time>2026-04-24T11:48:15.976Z</time></trkpt><trkpt lat="45.7007607" lon="9.6362456"><ele>249.75</ele><time>2026-04-24T11:48:17.976Z</time></trkpt><trkpt lat="45.7008758" lon="9.636287"><ele>250.0</ele><time>2026-04-24T11:48:19.976Z</time></trkpt><trkpt lat="45.7009872" lon="9.6363294"><ele>249.83333333333331</ele><time>2026-04-24T11:48:21.977Z</time></trkpt><trkpt lat="45.701092" lon="9.6363287"><ele>249.66666666666666</ele><time>2026-04-24T11:48:23.976Z</time></trkpt><trkpt lat="45.7011815" lon="9.6363733"><ele>249.5</ele><time>2026-04-24T11:48:25.977Z</time></trkpt><trkpt lat="45.7012031" lon="9.6364606"><ele>249.33333333333331</ele><time>2026-04-24T11:48:27.976Z</time></trkpt><trkpt lat="45.7012119" lon="9.6365555"><ele>249.16666666666666</ele><time>2026-04-24T11:48:30.976Z</time></trkpt><trkpt lat="45.7012473" lon="9.6364534"><ele>249.0</ele><time>2026-04-24T11:48:45.977Z</time></trkpt><trkpt lat="45.7012806" lon="9.6363686"><ele>249.0</ele><time>2026-04-24T11:48:46.976Z</time></trkpt><trkpt lat="45.7013416" lon="9.6362652"><ele>249.0</ele><time>2026-04-24T11:48:48.977Z</time></trkpt><trkpt lat="45.7014156" lon="9.6361987"><ele>249.0</ele><time>2026-04-24T11:48:51.976Z</time></trkpt><trkpt lat="45.7014938" lon="9.6361864"><ele>249.0</ele><time>2026-04-24T11:48:53.977Z</time></trkpt><trkpt lat="45.7015798" lon="9.6361749"><ele>249.0</ele><time>2026-04-24T11:48:55.976Z</time></trkpt><trkpt lat="45.7016735" lon="9.6362056"><ele>249.0</ele><time>2026-04-24T11:48:57.977Z</time></trkpt><trkpt lat="45.7017698" lon="9.6362273"><ele>249.0</ele><time>2026-04-24T11:48:59.976Z</time></trkpt><trkpt lat="45.7018773" lon="9.6362322"><ele>248.99999999999997</ele><time>2026-04-24T11:49:01.976Z</time></trkpt><trkpt lat="45.701976" lon="9.6362448"><ele>248.99999999999997</ele><time>2026-04-24T11:49:03.976Z</time></trkpt><trkpt lat="45.7020847" lon="9.6362445"><ele>249.0</ele><time>2026-04-24T11:49:05.976Z</time></trkpt><trkpt lat="45.702176" lon="9.6361965"><ele>249.0</ele><time>2026-04-24T11:49:07.976Z</time></trkpt><trkpt lat="45.7022673" lon="9.6361045"><ele>247.6</ele><time>2026-04-24T11:49:09.976Z</time></trkpt><trkpt lat="45.7023406" lon="9.6360086"><ele>246.2</ele><time>2026-04-24T11:49:11.976Z</time></trkpt><trkpt lat="45.7024027" lon="9.6359064"><ele>244.79999999999998</ele><time>2026-04-24T11:49:13.977Z</time></trkpt><trkpt lat="45.7024567" lon="9.6358266"><ele>243.39999999999998</ele><time>2026-04-24T11:49:15.977Z</time></trkpt><trkpt lat="45.7025152" lon="9.6357719"><ele>242.0</ele><time>2026-04-24T11:49:22.977Z</time></trkpt><trkpt lat="45.7026855" lon="9.6359417"><ele>242.2</ele><time>2026-04-24T11:49:26.976Z</time></trkpt><trkpt lat="45.7027585" lon="9.6360305"><ele>242.39999999999998</ele><time>2026-04-24T11:49:28.976Z</time></trkpt><trkpt lat="45.7028363" lon="9.6361245"><ele>242.60000000000002</ele><time>2026-04-24T11:49:30.977Z</time></trkpt><trkpt lat="45.7029236" lon="9.6362117"><ele>242.8</ele><time>2026-04-24T11:49:32.976Z</time></trkpt><trkpt lat="45.7029983" lon="9.6363102"><ele>243.0</ele><time>2026-04-24T11:49:34.976Z</time></trkpt><trkpt lat="45.7030778" lon="9.6364058"><ele>243.75</ele><time>2026-04-24T11:49:36.976Z</time></trkpt><trkpt lat="45.7031596" lon="9.6365154"><ele>244.5</ele><time>2026-04-24T11:49:38.977Z</time></trkpt><trkpt lat="45.7032449" lon="9.6366255"><ele>245.25</ele><time>2026-04-24T11:49:40.976Z</time></trkpt><trkpt lat="45.7033331" lon="9.63673"><ele>246.0</ele><time>2026-04-24T11:49:42.976Z</time></trkpt><trkpt lat="45.7034256" lon="9.6368304"><ele>246.0</ele><time>2026-04-24T11:49:44.976Z</time></trkpt><trkpt lat="45.7035079" lon="9.6369297"><ele>246.00000000000003</ele><time>2026-04-24T11:49:46.977Z</time></trkpt><trkpt lat="45.7036005" lon="9.637024"><ele>246.00000000000003</ele><time>2026-04-24T11:49:48.976Z</time></trkpt><trkpt lat="45.703688" lon="9.6371114"><ele>246.0</ele><time>2026-04-24T11:49:50.976Z</time></trkpt><trkpt lat="45.7037788" lon="9.6371931"><ele>246.0</ele><time>2026-04-24T11:49:52.976Z</time></trkpt><trkpt lat="45.7038656" lon="9.6372911"><ele>246.0</ele><time>2026-04-24T11:49:54.976Z</time></trkpt><trkpt lat="45.703961" lon="9.6373886"><ele>246.00000000000003</ele><time>2026-04-24T11:49:56.976Z</time></trkpt><trkpt lat="45.7040497" lon="9.6374855"><ele>246.00000000000003</ele><time>2026-04-24T11:49:58.976Z</time></trkpt><trkpt lat="45.704139" lon="9.6375724"><ele>246.0</ele><time>2026-04-24T11:50:00.976Z</time></trkpt><trkpt lat="45.7041887" lon="9.6376348"><ele>246.0</ele><time>2026-04-24T11:50:01.977Z</time></trkpt><trkpt lat="45.7042804" lon="9.6377245"><ele>246.0</ele><time>2026-04-24T11:50:03.977Z</time></trkpt><trkpt lat="45.7043775" lon="9.6377951"><ele>246.00000000000003</ele><time>2026-04-24T11:50:05.977Z</time></trkpt><trkpt lat="45.704476" lon="9.6378625"><ele>246.00000000000003</ele><time>2026-04-24T11:50:07.977Z</time></trkpt><trkpt lat="45.7045843" lon="9.6379284"><ele>246.0</ele><time>2026-04-24T11:50:09.976Z</time></trkpt><trkpt lat="45.7046834" lon="9.6379882"><ele>246.0</ele><time>2026-04-24T11:50:11.976Z</time></trkpt><trkpt lat="45.7047896" lon="9.6380554"><ele>247.5</ele><time>2026-04-24T11:50:13.976Z</time></trkpt><trkpt lat="45.7048867" lon="9.6381222"><ele>249.0</ele><time>2026-04-24T11:50:15.976Z</time></trkpt><trkpt lat="45.7049866" lon="9.638183"><ele>250.5</ele><time>2026-04-24T11:50:17.976Z</time></trkpt><trkpt lat="45.7050962" lon="9.6382531"><ele>252.0</ele><time>2026-04-24T11:50:19.976Z</time></trkpt><trkpt lat="45.7052019" lon="9.6383157"><ele>252.39999999999998</ele><time>2026-04-24T11:50:21.977Z</time></trkpt><trkpt lat="45.7052923" lon="9.6383659"><ele>252.79999999999998</ele><time>2026-04-24T11:50:23.976Z</time></trkpt><trkpt lat="45.7054019" lon="9.6384188"><ele>253.2</ele><time>2026-04-24T11:50:25.976Z</time></trkpt><trkpt lat="45.7054984" lon="9.6384626"><ele>253.6</ele><time>2026-04-24T11:50:27.976Z</time></trkpt><trkpt lat="45.7055754" lon="9.6384882"><ele>254.0</ele><time>2026-04-24T11:50:29.977Z</time></trkpt><trkpt lat="45.7056542" lon="9.6385066"><ele>254.00000000000003</ele><time>2026-04-24T11:50:31.976Z</time></trkpt><trkpt lat="45.7057444" lon="9.6385459"><ele>254.0</ele><time>2026-04-24T11:50:33.976Z</time></trkpt><trkpt lat="45.705836" lon="9.6385817"><ele>254.0</ele><time>2026-04-24T11:50:35.977Z</time></trkpt><trkpt lat="45.7059147" lon="9.6386081"><ele>254.0</ele><time>2026-04-24T11:50:37.976Z</time></trkpt><trkpt lat="45.7059958" lon="9.6386354"><ele>254.00000000000003</ele><time>2026-04-24T11:50:39.976Z</time></trkpt><trkpt lat="45.7060736" lon="9.6386637"><ele>254.0</ele><time>2026-04-24T11:50:41.976Z</time></trkpt><trkpt lat="45.7061516" lon="9.6386926"><ele>255.00000000000003</ele><time>2026-04-24T11:50:43.976Z</time></trkpt><trkpt lat="45.7062294" lon="9.6387299"><ele>256.0</ele><time>2026-04-24T11:50:45.976Z</time></trkpt><trkpt lat="45.7063086" lon="9.6387656"><ele>257.0</ele><time>2026-04-24T11:50:47.977Z</time></trkpt><trkpt lat="45.7063861" lon="9.6387967"><ele>258.0</ele><time>2026-04-24T11:50:49.976Z</time></trkpt><trkpt lat="45.7064596" lon="9.6388192"><ele>259.0</ele><time>2026-04-24T11:50:51.976Z</time></trkpt><trkpt lat="45.7065324" lon="9.6388473"><ele>260.0</ele><time>2026-04-24T11:50:53.976Z</time></trkpt><trkpt lat="45.7066077" lon="9.6388742"><ele>260.00000000000006</ele><time>2026-04-24T11:50:55.976Z</time></trkpt><trkpt lat="45.7066787" lon="9.6388987"><ele>260.0</ele><time>2026-04-24T11:50:57.976Z</time></trkpt><trkpt lat="45.7067499" lon="9.6389262"><ele>260.0</ele><time>2026-04-24T11:50:59.976Z</time></trkpt><trkpt lat="45.7068211" lon="9.6389553"><ele>260.0</ele><time>2026-04-24T11:51:01.977Z</time></trkpt><trkpt lat="45.706897" lon="9.6389856"><ele>260.0</ele><time>2026-04-24T11:51:03.976Z</time></trkpt><trkpt lat="45.7069652" lon="9.6390185"><ele>260.00000000000006</ele><time>2026-04-24T11:51:05.976Z</time></trkpt><trkpt lat="45.7070328" lon="9.6390579"><ele>260.0</ele><time>2026-04-24T11:51:07.977Z</time></trkpt><trkpt lat="45.7071069" lon="9.6390895"><ele>261.14285714285717</ele><time>2026-04-24T11:51:09.976Z</time></trkpt><trkpt lat="45.7071746" lon="9.6391256"><ele>262.2857142857143</ele><time>2026-04-24T11:51:11.976Z</time></trkpt><trkpt lat="45.7072459" lon="9.6391522"><ele>263.42857142857144</ele><time>2026-04-24T11:51:13.976Z</time></trkpt><trkpt lat="45.7073168" lon="9.6391778"><ele>264.57142857142856</ele><time>2026-04-24T11:51:15.976Z</time></trkpt><trkpt lat="45.7073872" lon="9.6392167"><ele>265.7142857142857</ele><time>2026-04-24T11:51:17.976Z</time></trkpt><trkpt lat="45.7074542" lon="9.6392529"><ele>266.8571428571429</ele><time>2026-04-24T11:51:19.976Z</time></trkpt><trkpt lat="45.7075295" lon="9.6392952"><ele>268.0</ele><time>2026-04-24T11:51:21.976Z</time></trkpt><trkpt lat="45.7076065" lon="9.6393381"><ele>268.0</ele><time>2026-04-24T11:51:23.976Z</time></trkpt><trkpt lat="45.7076764" lon="9.6393999"><ele>268.0</ele><time>2026-04-24T11:51:25.977Z</time></trkpt><trkpt lat="45.707734" lon="9.6394756"><ele>268.0</ele><time>2026-04-24T11:51:27.976Z</time></trkpt><trkpt lat="45.7077899" lon="9.6395408"><ele>268.0</ele><time>2026-04-24T11:51:29.977Z</time></trkpt><trkpt lat="45.7078478" lon="9.6395991"><ele>268.0</ele><time>2026-04-24T11:51:31.976Z</time></trkpt><trkpt lat="45.7079171" lon="9.639665"><ele>268.0</ele><time>2026-04-24T11:51:33.976Z</time></trkpt><trkpt lat="45.7080118" lon="9.6397114"><ele>270.5</ele><time>2026-04-24T11:51:35.976Z</time></trkpt><trkpt lat="45.7080892" lon="9.6397719"><ele>273.0</ele><time>2026-04-24T11:51:37.976Z</time></trkpt><trkpt lat="45.7081597" lon="9.6398319"><ele>275.5</ele><time>2026-04-24T11:51:39.976Z</time></trkpt><trkpt lat="45.7082294" lon="9.6398845"><ele>278.0</ele><time>2026-04-24T11:51:41.976Z</time></trkpt><trkpt lat="45.7083054" lon="9.6399372"><ele>280.5</ele><time>2026-04-24T11:51:44.976Z</time></trkpt><trkpt lat="45.708371" lon="9.639965"><ele>283.0</ele><time>2026-04-24T11:51:47.976Z</time></trkpt><trkpt lat="45.7084404" lon="9.6400208"><ele>283.0</ele><time>2026-04-24T11:51:53.977Z</time></trkpt><trkpt lat="45.7085044" lon="9.640058"><ele>283.0</ele><time>2026-04-24T11:51:58.977Z</time></trkpt><trkpt lat="45.7085569" lon="9.6401263"><ele>283.0</ele><time>2026-04-24T11:52:04.976Z</time></trkpt><trkpt lat="45.7085444" lon="9.640223"><ele>283.0</ele><time>2026-04-24T11:52:08.976Z</time></trkpt><trkpt lat="45.7084912" lon="9.6402862"><ele>283.0</ele><time>2026-04-24T11:52:12.976Z</time></trkpt><trkpt lat="45.7084244" lon="9.6403249"><ele>283.0</ele><time>2026-04-24T11:52:18.976Z</time></trkpt><trkpt lat="45.7083702" lon="9.6403723"><ele>283.0</ele><time>2026-04-24T11:52:23.976Z</time></trkpt><trkpt lat="45.708314" lon="9.64047"><ele>285.8333333333333</ele><time>2026-04-24T11:52:28.976Z</time></trkpt><trkpt lat="45.7082603" lon="9.640574"><ele>288.66666666666663</ele><time>2026-04-24T11:52:31.976Z</time></trkpt><trkpt lat="45.7082236" lon="9.6406518"><ele>291.5</ele><time>2026-04-24T11:52:33.977Z</time></trkpt><trkpt lat="45.7081894" lon="9.6407328"><ele>294.3333333333333</ele><time>2026-04-24T11:52:35.976Z</time></trkpt><trkpt lat="45.7081612" lon="9.6408543"><ele>297.1666666666667</ele><time>2026-04-24T11:52:38.976Z</time></trkpt><trkpt lat="45.7081473" lon="9.640971"><ele>300.0</ele><time>2026-04-24T11:52:41.977Z</time></trkpt><trkpt lat="45.7081247" lon="9.6410858"><ele>303.0</ele><time>2026-04-24T11:52:44.977Z</time></trkpt><trkpt lat="45.7080956" lon="9.6412044"><ele>306.0</ele><time>2026-04-24T11:52:47.976Z</time></trkpt><trkpt lat="45.7080548" lon="9.6413185"><ele>309.0</ele><time>2026-04-24T11:52:50.976Z</time></trkpt><trkpt lat="45.7080139" lon="9.6414359"><ele>312.0</ele><time>2026-04-24T11:52:53.976Z</time></trkpt><trkpt lat="45.70797" lon="9.6415531"><ele>315.0</ele><time>2026-04-24T11:52:56.976Z</time></trkpt><trkpt lat="45.7079198" lon="9.6416652"><ele>315.0</ele><time>2026-04-24T11:52:59.976Z</time></trkpt><trkpt lat="45.7078798" lon="9.641783"><ele>315.0</ele><time>2026-04-24T11:53:02.977Z</time></trkpt><trkpt lat="45.7078577" lon="9.641903"><ele>315.0</ele><time>2026-04-24T11:53:05.976Z</time></trkpt><trkpt lat="45.7078307" lon="9.642023"><ele>315.0</ele><time>2026-04-24T11:53:08.976Z</time></trkpt><trkpt lat="45.7078133" lon="9.6421574"><ele>315.0</ele><time>2026-04-24T11:53:11.976Z</time></trkpt><trkpt lat="45.7078013" lon="9.6422599"><ele>315.0</ele><time>2026-04-24T11:53:13.977Z</time></trkpt><trkpt lat="45.7077902" lon="9.6423589"><ele>315.8333333333333</ele><time>2026-04-24T11:53:15.976Z</time></trkpt><trkpt lat="45.7077841" lon="9.6424544"><ele>316.6666666666667</ele><time>2026-04-24T11:53:17.976Z</time></trkpt><trkpt lat="45.7077838" lon="9.6425475"><ele>317.5</ele><time>2026-04-24T11:53:19.977Z</time></trkpt><trkpt lat="45.7077842" lon="9.6426468"><ele>318.33333333333337</ele><time>2026-04-24T11:53:22.977Z</time></trkpt><trkpt lat="45.7077722" lon="9.6427668"><ele>319.1666666666667</ele><time>2026-04-24T11:53:26.976Z</time></trkpt><trkpt lat="45.7077583" lon="9.6428763"><ele>320.0</ele><time>2026-04-24T11:53:29.976Z</time></trkpt><trkpt lat="45.707786" lon="9.6429957"><ele>320.0</ele><time>2026-04-24T11:53:32.976Z</time></trkpt><trkpt lat="45.7077811" lon="9.6431285"><ele>320.0</ele><time>2026-04-24T11:53:35.977Z</time></trkpt><trkpt lat="45.7077744" lon="9.6432233"><ele>320.0</ele><time>2026-04-24T11:53:37.977Z</time></trkpt><trkpt lat="45.707773" lon="9.6433297"><ele>320.0</ele><time>2026-04-24T11:53:40.977Z</time></trkpt><trkpt lat="45.7077812" lon="9.6434566"><ele>320.0</ele><time>2026-04-24T11:53:43.976Z</time></trkpt><trkpt lat="45.7078055" lon="9.6435712"><ele>320.0</ele><time>2026-04-24T11:53:46.976Z</time></trkpt><trkpt lat="45.707854" lon="9.6436618"><ele>318.0</ele><time>2026-04-24T11:53:49.976Z</time></trkpt><trkpt lat="45.7079102" lon="9.643739"><ele>316.0</ele><time>2026-04-24T11:53:52.976Z</time></trkpt><trkpt lat="45.7079654" lon="9.6437994"><ele>314.0</ele><time>2026-04-24T11:53:55.977Z</time></trkpt><trkpt lat="45.7080373" lon="9.6438748"><ele>312.0</ele><time>2026-04-24T11:53:58.976Z</time></trkpt><trkpt lat="45.7081113" lon="9.6439378"><ele>310.0</ele><time>2026-04-24T11:54:01.976Z</time></trkpt><trkpt lat="45.7081868" lon="9.6439998"><ele>308.0</ele><time>2026-04-24T11:54:04.977Z</time></trkpt><trkpt lat="45.7082494" lon="9.6440679"><ele>308.0</ele><time>2026-04-24T11:54:07.976Z</time></trkpt><trkpt lat="45.708298" lon="9.6441587"><ele>308.0</ele><time>2026-04-24T11:54:10.976Z</time></trkpt><trkpt lat="45.708366" lon="9.6442469"><ele>308.0</ele><time>2026-04-24T11:54:13.976Z</time></trkpt><trkpt lat="45.7084334" lon="9.6443249"><ele>308.0</ele><time>2026-04-24T11:54:16.976Z</time></trkpt><trkpt lat="45.7085029" lon="9.6443912"><ele>308.0</ele><time>2026-04-24T11:54:19.976Z</time></trkpt><trkpt lat="45.7085445" lon="9.6444958"><ele>308.0</ele><time>2026-04-24T11:54:22.977Z</time></trkpt><trkpt lat="45.7085593" lon="9.6446155"><ele>308.0</ele><time>2026-04-24T11:54:25.976Z</time></trkpt><trkpt lat="45.7085734" lon="9.6447417"><ele>308.0</ele><time>2026-04-24T11:54:28.976Z</time></trkpt><trkpt lat="45.7086089" lon="9.6448665"><ele>308.0</ele><time>2026-04-24T11:54:31.976Z</time></trkpt><trkpt lat="45.708628" lon="9.644958"><ele>308.0</ele><time>2026-04-24T11:54:33.977Z</time></trkpt><trkpt lat="45.7086439" lon="9.6450528"><ele>308.0</ele><time>2026-04-24T11:54:35.976Z</time></trkpt><trkpt lat="45.7086522" lon="9.6451796"><ele>308.0</ele><time>2026-04-24T11:54:38.976Z</time></trkpt><trkpt lat="45.7086603" lon="9.6453103"><ele>311.85714285714283</ele><time>2026-04-24T11:54:41.976Z</time></trkpt><trkpt lat="45.7086657" lon="9.6454401"><ele>315.7142857142857</ele><time>2026-04-24T11:54:44.976Z</time></trkpt><trkpt lat="45.7086651" lon="9.6455318"><ele>319.57142857142856</ele><time>2026-04-24T11:54:46.976Z</time></trkpt><trkpt lat="45.708662" lon="9.6456243"><ele>323.42857142857144</ele><time>2026-04-24T11:54:48.976Z</time></trkpt><trkpt lat="45.7086714" lon="9.6457222"><ele>327.2857142857143</ele><time>2026-04-24T11:54:50.977Z</time></trkpt><trkpt lat="45.7086852" lon="9.6458546"><ele>331.1428571428571</ele><time>2026-04-24T11:54:53.977Z</time></trkpt><trkpt lat="45.7086715" lon="9.6459476"><ele>335.0</ele><time>2026-04-24T11:54:55.976Z</time></trkpt><trkpt lat="45.7085929" lon="9.6459794"><ele>333.5</ele><time>2026-04-24T11:54:57.976Z</time></trkpt><trkpt lat="45.7084948" lon="9.6459411"><ele>332.0</ele><time>2026-04-24T11:54:59.976Z</time></trkpt><trkpt lat="45.7084068" lon="9.6459139"><ele>330.5</ele><time>2026-04-24T11:55:01.976Z</time></trkpt><trkpt lat="45.7083336" lon="9.6458844"><ele>329.0</ele><time>2026-04-24T11:55:03.977Z</time></trkpt><trkpt lat="45.7082631" lon="9.6458776"><ele>327.5</ele><time>2026-04-24T11:55:05.976Z</time></trkpt><trkpt lat="45.7081931" lon="9.6458526"><ele>326.0</ele><time>2026-04-24T11:55:08.977Z</time></trkpt><trkpt lat="45.7081209" lon="9.6458164"><ele>326.0</ele><time>2026-04-24T11:55:12.976Z</time></trkpt><trkpt lat="45.708042" lon="9.6457738"><ele>326.0</ele><time>2026-04-24T11:55:16.976Z</time></trkpt><trkpt lat="45.7079848" lon="9.645727"><ele>326.0</ele><time>2026-04-24T11:55:19.976Z</time></trkpt><trkpt lat="45.7079127" lon="9.6456703"><ele>326.0</ele><time>2026-04-24T11:55:23.976Z</time></trkpt><trkpt lat="45.7078494" lon="9.6456276"><ele>326.0</ele><time>2026-04-24T11:55:26.976Z</time></trkpt><trkpt lat="45.7077831" lon="9.6456071"><ele>326.0</ele><time>2026-04-24T11:55:29.977Z</time></trkpt><trkpt lat="45.7077143" lon="9.6455463"><ele>328.83333333333337</ele><time>2026-04-24T11:55:33.976Z</time></trkpt><trkpt lat="45.7076349" lon="9.6455045"><ele>331.6666666666667</ele><time>2026-04-24T11:55:37.976Z</time></trkpt><trkpt lat="45.7075701" lon="9.6454804"><ele>334.5</ele><time>2026-04-24T11:55:40.976Z</time></trkpt><trkpt lat="45.7074879" lon="9.6454618"><ele>337.3333333333333</ele><time>2026-04-24T11:55:44.977Z</time></trkpt><trkpt lat="45.7074234" lon="9.6454688"><ele>340.16666666666663</ele><time>2026-04-24T11:55:47.976Z</time></trkpt><trkpt lat="45.7073527" lon="9.6454776"><ele>343.0</ele><time>2026-04-24T11:55:51.976Z</time></trkpt><trkpt lat="45.7072718" lon="9.6454922"><ele>343.0</ele><time>2026-04-24T11:55:55.976Z</time></trkpt><trkpt lat="45.7071885" lon="9.6454959"><ele>343.0</ele><time>2026-04-24T11:55:59.976Z</time></trkpt><trkpt lat="45.7071141" lon="9.6455084"><ele>343.0</ele><time>2026-04-24T11:56:04.976Z</time></trkpt><trkpt lat="45.7070409" lon="9.645533"><ele>343.0</ele><time>2026-04-24T11:56:08.976Z</time></trkpt><trkpt lat="45.7069745" lon="9.6455914"><ele>343.0</ele><time>2026-04-24T11:56:12.976Z</time></trkpt><trkpt lat="45.7069132" lon="9.6456637"><ele>343.0</ele><time>2026-04-24T11:56:16.976Z</time></trkpt><trkpt lat="45.7068628" lon="9.6457207"><ele>343.66666666666663</ele><time>2026-04-24T11:56:19.976Z</time></trkpt><trkpt lat="45.7067992" lon="9.6457921"><ele>344.3333333333333</ele><time>2026-04-24T11:56:23.977Z</time></trkpt><trkpt lat="45.706739" lon="9.6458582"><ele>345.0</ele><time>2026-04-24T11:56:27.976Z</time></trkpt><trkpt lat="45.7066796" lon="9.6459471"><ele>345.6666666666667</ele><time>2026-04-24T11:56:31.976Z</time></trkpt><trkpt lat="45.7066086" lon="9.6459858"><ele>346.33333333333337</ele><time>2026-04-24T11:56:35.976Z</time></trkpt><trkpt lat="45.7065456" lon="9.6459827"><ele>347.0</ele><time>2026-04-24T11:56:38.976Z</time></trkpt><trkpt lat="45.7064758" lon="9.6459516"><ele>347.0</ele><time>2026-04-24T11:56:42.976Z</time></trkpt><trkpt lat="45.7064043" lon="9.6459266"><ele>347.0</ele><time>2026-04-24T11:56:46.976Z</time></trkpt><trkpt lat="45.70632" lon="9.6459342"><ele>347.0</ele><time>2026-04-24T11:56:50.977Z</time></trkpt><trkpt lat="45.7062371" lon="9.6459409"><ele>347.0</ele><time>2026-04-24T11:56:54.977Z</time></trkpt><trkpt lat="45.7061605" lon="9.6459504"><ele>347.0</ele><time>2026-04-24T11:56:58.977Z</time></trkpt><trkpt lat="45.7060802" lon="9.645966"><ele>347.0</ele><time>2026-04-24T11:57:02.976Z</time></trkpt><trkpt lat="45.7060008" lon="9.646004"><ele>348.7142857142857</ele><time>2026-04-24T11:57:06.977Z</time></trkpt><trkpt lat="45.7059373" lon="9.6460076"><ele>350.4285714285714</ele><time>2026-04-24T11:57:09.977Z</time></trkpt><trkpt lat="45.7058624" lon="9.6460179"><ele>352.1428571428571</ele><time>2026-04-24T11:57:13.976Z</time></trkpt><trkpt lat="45.7057973" lon="9.6460106"><ele>353.8571428571429</ele><time>2026-04-24T11:57:21.976Z</time></trkpt><trkpt lat="45.7057298" lon="9.6459807"><ele>355.57142857142856</ele><time>2026-04-24T11:57:25.976Z</time></trkpt><trkpt lat="45.7056697" lon="9.6459397"><ele>357.2857142857143</ele><time>2026-04-24T11:57:29.976Z</time></trkpt><trkpt lat="45.7056053" lon="9.6458741"><ele>359.0</ele><time>2026-04-24T11:57:33.976Z</time></trkpt><trkpt lat="45.7055455" lon="9.6458059"><ele>359.0</ele><time>2026-04-24T11:57:37.976Z</time></trkpt><trkpt lat="45.7054877" lon="9.6457419"><ele>359.0</ele><time>2026-04-24T11:57:41.976Z</time></trkpt><trkpt lat="45.70542" lon="9.6456813"><ele>359.0</ele><time>2026-04-24T11:57:45.977Z</time></trkpt><trkpt lat="45.7053489" lon="9.6456414"><ele>359.0</ele><time>2026-04-24T11:57:49.976Z</time></trkpt><trkpt lat="45.7052831" lon="9.6456093"><ele>359.0</ele><time>2026-04-24T11:57:53.977Z</time></trkpt><trkpt lat="45.7052048" lon="9.6455868"><ele>359.0</ele><time>2026-04-24T11:57:57.976Z</time></trkpt><trkpt lat="45.7051206" lon="9.6455745"><ele>359.83333333333337</ele><time>2026-04-24T11:58:01.976Z</time></trkpt><trkpt lat="45.70504" lon="9.6455844"><ele>360.6666666666667</ele><time>2026-04-24T11:58:05.976Z</time></trkpt><trkpt lat="45.7049615" lon="9.6455894"><ele>361.5</ele><time>2026-04-24T11:58:09.977Z</time></trkpt><trkpt lat="45.704899" lon="9.6455339"><ele>362.3333333333333</ele><time>2026-04-24T11:58:13.976Z</time></trkpt><trkpt lat="45.7048696" lon="9.6454281"><ele>363.16666666666663</ele><time>2026-04-24T11:58:17.977Z</time></trkpt><trkpt lat="45.7048533" lon="9.6453187"><ele>364.0</ele><time>2026-04-24T11:58:21.976Z</time></trkpt><trkpt lat="45.7048369" lon="9.6452253"><ele>364.0</ele><time>2026-04-24T11:58:24.976Z</time></trkpt><trkpt lat="45.7048366" lon="9.6451086"><ele>364.0</ele><time>2026-04-24T11:58:27.976Z</time></trkpt><trkpt lat="45.7048208" lon="9.6450213"><ele>364.0</ele><time>2026-04-24T11:58:31.976Z</time></trkpt><trkpt lat="45.7047976" lon="9.6451282"><ele>364.0</ele><time>2026-04-24T11:58:36.976Z</time></trkpt><trkpt lat="45.7049419" lon="9.6452474"><ele>364.0</ele><time>2026-04-24T11:58:39.976Z</time></trkpt><trkpt lat="45.7049181" lon="9.6453484"><ele>366.3333333333333</ele><time>2026-04-24T11:58:43.976Z</time></trkpt><trkpt lat="45.7048966" lon="9.6454546"><ele>368.66666666666663</ele><time>2026-04-24T11:58:47.976Z</time></trkpt><trkpt lat="45.7048545" lon="9.6455411"><ele>371.0</ele><time>2026-04-24T11:58:50.976Z</time></trkpt><trkpt lat="45.7048194" lon="9.6456238"><ele>373.3333333333333</ele><time>2026-04-24T11:58:53.977Z</time></trkpt><trkpt lat="45.7047992" lon="9.6457583"><ele>375.6666666666667</ele><time>2026-04-24T11:58:58.976Z</time></trkpt><trkpt lat="45.7047882" lon="9.6458786"><ele>378.0</ele><time>2026-04-24T11:59:01.976Z</time></trkpt><trkpt lat="45.7048028" lon="9.6459889"><ele>378.0</ele><time>2026-04-24T11:59:04.976Z</time></trkpt><trkpt lat="45.7048133" lon="9.6460929"><ele>378.0</ele><time>2026-04-24T11:59:07.977Z</time></trkpt><trkpt lat="45.7048237" lon="9.6462155"><ele>378.0</ele><time>2026-04-24T11:59:10.977Z</time></trkpt><trkpt lat="45.7048224" lon="9.6463309"><ele>378.0</ele><time>2026-04-24T11:59:14.976Z</time></trkpt><trkpt lat="45.7048452" lon="9.6464594"><ele>378.0</ele><time>2026-04-24T11:59:20.977Z</time></trkpt><trkpt lat="45.7048631" lon="9.6465762"><ele>378.0</ele><time>2026-04-24T11:59:23.976Z</time></trkpt><trkpt lat="45.7048332" lon="9.6466973"><ele>379.5</ele><time>2026-04-24T11:59:26.976Z</time></trkpt><trkpt lat="45.7048052" lon="9.6468037"><ele>381.0</ele><time>2026-04-24T11:59:29.976Z</time></trkpt><trkpt lat="45.7048135" lon="9.6469297"><ele>382.5</ele><time>2026-04-24T11:59:32.976Z</time></trkpt><trkpt lat="45.7048292" lon="9.6470551"><ele>384.0</ele><time>2026-04-24T11:59:35.976Z</time></trkpt><trkpt lat="45.7048143" lon="9.6471763"><ele>385.5</ele><time>2026-04-24T11:59:38.976Z</time></trkpt><trkpt lat="45.7047843" lon="9.6472817"><ele>387.0</ele><time>2026-04-24T11:59:45.976Z</time></trkpt><trkpt lat="45.7047706" lon="9.6473816"><ele>389.33333333333337</ele><time>2026-04-24T11:59:47.976Z</time></trkpt><trkpt lat="45.7047598" lon="9.6474799"><ele>391.6666666666667</ele><time>2026-04-24T11:59:49.977Z</time></trkpt><trkpt lat="45.7047084" lon="9.6476502"><ele>394.0</ele><time>2026-04-24T11:59:58.977Z</time></trkpt><trkpt lat="45.7045908" lon="9.6481252"><ele>394.0</ele><time>2026-04-24T11:59:59.976Z</time></trkpt><trkpt lat="45.704607" lon="9.6482339"><ele>394.0</ele><time>2026-04-24T12:00:00.976Z</time></trkpt><trkpt lat="45.7046169" lon="9.6484084"><ele>394.0</ele><time>2026-04-24T12:00:02.976Z</time></trkpt><trkpt lat="45.7046473" lon="9.6484882"><ele>394.0</ele><time>2026-04-24T12:00:03.977Z</time></trkpt><trkpt lat="45.7047194" lon="9.6486274"><ele>394.0</ele><time>2026-04-24T12:00:05.977Z</time></trkpt><trkpt lat="45.7048131" lon="9.6487073"><ele>391.2</ele><time>2026-04-24T12:00:07.976Z</time></trkpt><trkpt lat="45.7049289" lon="9.6487638"><ele>388.4</ele><time>2026-04-24T12:00:09.976Z</time></trkpt><trkpt lat="45.7050302" lon="9.6487891"><ele>385.6</ele><time>2026-04-24T12:00:11.976Z</time></trkpt><trkpt lat="45.7051376" lon="9.6487986"><ele>382.8</ele><time>2026-04-24T12:00:13.977Z</time></trkpt><trkpt lat="45.7052485" lon="9.6488053"><ele>380.0</ele><time>2026-04-24T12:00:15.977Z</time></trkpt><trkpt lat="45.7053523" lon="9.6487991"><ele>380.0</ele><time>2026-04-24T12:00:17.977Z</time></trkpt><trkpt lat="45.7054425" lon="9.648805"><ele>380.0</ele><time>2026-04-24T12:00:19.976Z</time></trkpt><trkpt lat="45.7055404" lon="9.6488066"><ele>380.0</ele><time>2026-04-24T12:00:21.977Z</time></trkpt><trkpt lat="45.7056361" lon="9.6488266"><ele>380.0</ele><time>2026-04-24T12:00:23.976Z</time></trkpt><trkpt lat="45.7057315" lon="9.6488588"><ele>380.0</ele><time>2026-04-24T12:00:24.977Z</time></trkpt><trkpt lat="45.7057981" lon="9.6488807"><ele>380.0</ele><time>2026-04-24T12:00:25.976Z</time></trkpt><trkpt lat="45.7058884" lon="9.6489259"><ele>380.0</ele><time>2026-04-24T12:00:26.977Z</time></trkpt><trkpt lat="45.7059581" lon="9.6489587"><ele>380.0</ele><time>2026-04-24T12:00:27.976Z</time></trkpt><trkpt lat="45.706018" lon="9.6490291"><ele>380.0</ele><time>2026-04-24T12:00:28.976Z</time></trkpt><trkpt lat="45.7061465" lon="9.6491484"><ele>380.0</ele><time>2026-04-24T12:00:30.977Z</time></trkpt><trkpt lat="45.7061967" lon="9.6492354"><ele>383.0</ele><time>2026-04-24T12:00:31.976Z</time></trkpt><trkpt lat="45.7062443" lon="9.6493095"><ele>386.0</ele><time>2026-04-24T12:00:32.976Z</time></trkpt><trkpt lat="45.7063068" lon="9.6494448"><ele>389.0</ele><time>2026-04-24T12:00:34.977Z</time></trkpt><trkpt lat="45.7063417" lon="9.6496123"><ele>392.0</ele><time>2026-04-24T12:00:36.977Z</time></trkpt><trkpt lat="45.7063422" lon="9.6497864"><ele>395.0</ele><time>2026-04-24T12:00:38.977Z</time></trkpt><trkpt lat="45.7063776" lon="9.6499428"><ele>395.0</ele><time>2026-04-24T12:00:40.976Z</time></trkpt><trkpt lat="45.7064197" lon="9.6500993"><ele>395.0</ele><time>2026-04-24T12:00:42.977Z</time></trkpt><trkpt lat="45.7064636" lon="9.6502123"><ele>395.0</ele><time>2026-04-24T12:00:44.977Z</time></trkpt><trkpt lat="45.7065069" lon="9.6503257"><ele>395.0</ele><time>2026-04-24T12:00:46.976Z</time></trkpt><trkpt lat="45.7065598" lon="9.6504544"><ele>395.0</ele><time>2026-04-24T12:00:48.977Z</time></trkpt><trkpt lat="45.7065918" lon="9.6505973"><ele>392.8</ele><time>2026-04-24T12:00:50.976Z</time></trkpt><trkpt lat="45.7066167" lon="9.6507443"><ele>390.6</ele><time>2026-04-24T12:00:52.977Z</time></trkpt><trkpt lat="45.7066583" lon="9.6508867"><ele>388.4</ele><time>2026-04-24T12:00:54.977Z</time></trkpt><trkpt lat="45.7067" lon="9.6510271"><ele>386.2</ele><time>2026-04-24T12:00:56.976Z</time></trkpt><trkpt lat="45.7067576" lon="9.6511704"><ele>384.0</ele><time>2026-04-24T12:00:58.977Z</time></trkpt><trkpt lat="45.7068098" lon="9.6512946"><ele>386.0</ele><time>2026-04-24T12:01:00.977Z</time></trkpt><trkpt lat="45.7068719" lon="9.6514081"><ele>388.0</ele><time>2026-04-24T12:01:02.977Z</time></trkpt><trkpt lat="45.7069424" lon="9.651507"><ele>390.0</ele><time>2026-04-24T12:01:04.976Z</time></trkpt><trkpt lat="45.7070285" lon="9.6515811"><ele>392.0</ele><time>2026-04-24T12:01:06.977Z</time></trkpt><trkpt lat="45.7071251" lon="9.651666"><ele>394.0</ele><time>2026-04-24T12:01:08.977Z</time></trkpt><trkpt lat="45.7071804" lon="9.6517137"><ele>394.0</ele><time>2026-04-24T12:01:09.977Z</time></trkpt><trkpt lat="45.7072721" lon="9.6518192"><ele>394.0</ele><time>2026-04-24T12:01:11.976Z</time></trkpt><trkpt lat="45.707352" lon="9.6519432"><ele>394.0</ele><time>2026-04-24T12:01:13.977Z</time></trkpt><trkpt lat="45.7074059" lon="9.6520795"><ele>394.0</ele><time>2026-04-24T12:01:15.977Z</time></trkpt><trkpt lat="45.7074492" lon="9.6522226"><ele>391.6</ele><time>2026-04-24T12:01:17.976Z</time></trkpt><trkpt lat="45.7074893" lon="9.6523402"><ele>389.2</ele><time>2026-04-24T12:01:19.977Z</time></trkpt><trkpt lat="45.7075151" lon="9.6524966"><ele>386.8</ele><time>2026-04-24T12:01:21.977Z</time></trkpt><trkpt lat="45.7075378" lon="9.6526283"><ele>384.40000000000003</ele><time>2026-04-24T12:01:23.976Z</time></trkpt><trkpt lat="45.7075498" lon="9.6527641"><ele>382.0</ele><time>2026-04-24T12:01:25.976Z</time></trkpt><trkpt lat="45.707549" lon="9.6528867"><ele>381.6</ele><time>2026-04-24T12:01:27.977Z</time></trkpt><trkpt lat="45.7075491" lon="9.6530201"><ele>381.20000000000005</ele><time>2026-04-24T12:01:29.977Z</time></trkpt><trkpt lat="45.7075441" lon="9.6531595"><ele>380.8</ele><time>2026-04-24T12:01:31.977Z</time></trkpt><trkpt lat="45.7075341" lon="9.6532993"><ele>380.4</ele><time>2026-04-24T12:01:33.976Z</time></trkpt><trkpt lat="45.7075268" lon="9.653422"><ele>380.0</ele><time>2026-04-24T12:01:35.976Z</time></trkpt><trkpt lat="45.707501" lon="9.6535585"><ele>380.8571428571429</ele><time>2026-04-24T12:01:37.977Z</time></trkpt><trkpt lat="45.7074869" lon="9.6536553"><ele>381.7142857142857</ele><time>2026-04-24T12:01:39.976Z</time></trkpt><trkpt lat="45.7074775" lon="9.653749"><ele>382.57142857142856</ele><time>2026-04-24T12:01:41.976Z</time></trkpt><trkpt lat="45.7075023" lon="9.6538409"><ele>383.42857142857144</ele><time>2026-04-24T12:01:46.976Z</time></trkpt><trkpt lat="45.7075142" lon="9.6539699"><ele>384.2857142857143</ele><time>2026-04-24T12:03:21.977Z</time></trkpt><trkpt lat="45.7075004" lon="9.6540691"><ele>385.14285714285717</ele><time>2026-04-24T12:03:23.977Z</time></trkpt><trkpt lat="45.7074788" lon="9.6541808"><ele>386.0</ele><time>2026-04-24T12:03:25.976Z</time></trkpt><trkpt lat="45.707449" lon="9.6542968"><ele>386.0</ele><time>2026-04-24T12:03:27.976Z</time></trkpt><trkpt lat="45.7074158" lon="9.6544145"><ele>386.0</ele><time>2026-04-24T12:03:29.976Z</time></trkpt><trkpt lat="45.7073772" lon="9.6545567"><ele>386.0</ele><time>2026-04-24T12:03:31.976Z</time></trkpt><trkpt lat="45.707338" lon="9.6546913"><ele>386.0</ele><time>2026-04-24T12:03:33.976Z</time></trkpt><trkpt lat="45.7073006" lon="9.6548246"><ele>386.0</ele><time>2026-04-24T12:03:35.977Z</time></trkpt><trkpt lat="45.7072618" lon="9.6549354"><ele>387.8</ele><time>2026-04-24T12:03:37.977Z</time></trkpt><trkpt lat="45.7072307" lon="9.6550811"><ele>389.6</ele><time>2026-04-24T12:03:39.977Z</time></trkpt><trkpt lat="45.7071969" lon="9.655207"><ele>391.4</ele><time>2026-04-24T12:03:41.976Z</time></trkpt><trkpt lat="45.7071585" lon="9.6553307"><ele>393.2</ele><time>2026-04-24T12:03:43.976Z</time></trkpt><trkpt lat="45.7071129" lon="9.6554447"><ele>395.0</ele><time>2026-04-24T12:03:45.976Z</time></trkpt><trkpt lat="45.7070609" lon="9.6555517"><ele>396.0</ele><time>2026-04-24T12:03:47.976Z</time></trkpt><trkpt lat="45.7070008" lon="9.6556767"><ele>397.0</ele><time>2026-04-24T12:03:49.976Z</time></trkpt><trkpt lat="45.7069329" lon="9.6558166"><ele>398.0</ele><time>2026-04-24T12:03:51.976Z</time></trkpt><trkpt lat="45.7068816" lon="9.6559787"><ele>399.0</ele><time>2026-04-24T12:03:53.976Z</time></trkpt><trkpt lat="45.7068107" lon="9.6561102"><ele>395.2</ele><time>2026-04-24T12:03:55.976Z</time></trkpt><trkpt lat="45.7067531" lon="9.656254"><ele>391.4</ele><time>2026-04-24T12:03:57.976Z</time></trkpt><trkpt lat="45.7066814" lon="9.6563855"><ele>387.6</ele><time>2026-04-24T12:03:59.976Z</time></trkpt><trkpt lat="45.7066409" lon="9.6564554"><ele>383.8</ele><time>2026-04-24T12:04:00.976Z</time></trkpt><trkpt lat="45.7065551" lon="9.6565658"><ele>380.0</ele><time>2026-04-24T12:04:02.977Z</time></trkpt><trkpt lat="45.7065074" lon="9.6566282"><ele>380.0</ele><time>2026-04-24T12:04:03.976Z</time></trkpt><trkpt lat="45.7064454" lon="9.6567648"><ele>380.0</ele><time>2026-04-24T12:04:05.976Z</time></trkpt><trkpt lat="45.7063657" lon="9.6568591"><ele>380.0</ele><time>2026-04-24T12:04:07.976Z</time></trkpt><trkpt lat="45.7063108" lon="9.6569416"><ele>380.0</ele><time>2026-04-24T12:04:10.976Z</time></trkpt><trkpt lat="45.7063017" lon="9.6570771"><ele>380.0</ele><time>2026-04-24T12:04:13.976Z</time></trkpt><trkpt lat="45.7063191" lon="9.6571775"><ele>379.0</ele><time>2026-04-24T12:04:15.976Z</time></trkpt><trkpt lat="45.7063442" lon="9.6572914"><ele>378.0</ele><time>2026-04-24T12:04:17.977Z</time></trkpt><trkpt lat="45.7063615" lon="9.6573965"><ele>377.0</ele><time>2026-04-24T12:04:19.976Z</time></trkpt><trkpt lat="45.7063906" lon="9.6575079"><ele>376.0</ele><time>2026-04-24T12:04:21.976Z</time></trkpt><trkpt lat="45.7064348" lon="9.657643"><ele>375.0</ele><time>2026-04-24T12:04:23.976Z</time></trkpt><trkpt lat="45.7064756" lon="9.6577654"><ele>374.0</ele><time>2026-04-24T12:04:25.977Z</time></trkpt><trkpt lat="45.7065074" lon="9.6578783"><ele>373.0</ele><time>2026-04-24T12:04:27.976Z</time></trkpt><trkpt lat="45.7066126" lon="9.6581644"><ele>372.0</ele><time>2026-04-24T12:04:31.975Z</time></trkpt><trkpt lat="45.7067254" lon="9.6581547"><ele>371.0</ele><time>2026-04-24T12:04:37.974Z</time></trkpt><trkpt lat="45.7068101" lon="9.658118"><ele>370.0</ele><time>2026-04-24T12:04:39.975Z</time></trkpt><trkpt lat="45.7068869" lon="9.658076"><ele>371.66666666666663</ele><time>2026-04-24T12:04:41.974Z</time></trkpt><trkpt lat="45.7069528" lon="9.6580462"><ele>373.3333333333333</ele><time>2026-04-24T12:04:43.975Z</time></trkpt><trkpt lat="45.7070376" lon="9.6580354"><ele>375.0</ele><time>2026-04-24T12:04:46.975Z</time></trkpt><trkpt lat="45.7071248" lon="9.6580498"><ele>376.6666666666667</ele><time>2026-04-24T12:04:49.974Z</time></trkpt><trkpt lat="45.7072012" lon="9.6581189"><ele>378.33333333333337</ele><time>2026-04-24T12:04:52.974Z</time></trkpt><trkpt lat="45.7072566" lon="9.6582"><ele>380.0</ele><time>2026-04-24T12:04:55.974Z</time></trkpt><trkpt lat="45.7073097" lon="9.6582856"><ele>380.0</ele><time>2026-04-24T12:04:58.974Z</time></trkpt><trkpt lat="45.7073525" lon="9.6583619"><ele>380.0</ele><time>2026-04-24T12:05:01.975Z</time></trkpt><trkpt lat="45.707403" lon="9.6584162"><ele>380.0</ele><time>2026-04-24T12:05:04.974Z</time></trkpt><trkpt lat="45.7074608" lon="9.6584937"><ele>380.0</ele><time>2026-04-24T12:05:07.974Z</time></trkpt><trkpt lat="45.7075166" lon="9.6585843"><ele>380.0</ele><time>2026-04-24T12:05:11.974Z</time></trkpt><trkpt lat="45.7075591" lon="9.658661"><ele>380.0</ele><time>2026-04-24T12:05:14.974Z</time></trkpt><trkpt lat="45.7076133" lon="9.6587376"><ele>380.0</ele><time>2026-04-24T12:05:17.974Z</time></trkpt><trkpt lat="45.7076627" lon="9.6588213"><ele>380.5</ele><time>2026-04-24T12:05:20.974Z</time></trkpt><trkpt lat="45.7077251" lon="9.6589033"><ele>381.0</ele><time>2026-04-24T12:05:23.974Z</time></trkpt><trkpt lat="45.7077779" lon="9.6589608"><ele>381.5</ele><time>2026-04-24T12:05:25.974Z</time></trkpt><trkpt lat="45.7078324" lon="9.6590117"><ele>382.0</ele><time>2026-04-24T12:05:27.975Z</time></trkpt><trkpt lat="45.7079024" lon="9.6590743"><ele>382.5</ele><time>2026-04-24T12:05:30.974Z</time></trkpt><trkpt lat="45.7079849" lon="9.659146"><ele>383.0</ele><time>2026-04-24T12:05:33.974Z</time></trkpt><trkpt lat="45.7080368" lon="9.6591974"><ele>383.0</ele><time>2026-04-24T12:05:35.974Z</time></trkpt><trkpt lat="45.7080943" lon="9.6592345"><ele>383.0</ele><time>2026-04-24T12:05:37.974Z</time></trkpt><trkpt lat="45.7081594" lon="9.6592299"><ele>383.0</ele><time>2026-04-24T12:05:39.974Z</time></trkpt><trkpt lat="45.7082238" lon="9.6591947"><ele>383.0</ele><time>2026-04-24T12:05:41.975Z</time></trkpt><trkpt lat="45.7082808" lon="9.6591482"><ele>383.0</ele><time>2026-04-24T12:05:43.974Z</time></trkpt><trkpt lat="45.7083377" lon="9.6590937"><ele>383.0</ele><time>2026-04-24T12:05:45.974Z</time></trkpt><trkpt lat="45.7083926" lon="9.6590171"><ele>383.0</ele><time>2026-04-24T12:05:47.974Z</time></trkpt><trkpt lat="45.7084421" lon="9.6589352"><ele>383.0</ele><time>2026-04-24T12:05:49.974Z</time></trkpt><trkpt lat="45.7085074" lon="9.6588581"><ele>383.0</ele><time>2026-04-24T12:05:51.974Z</time></trkpt><trkpt lat="45.7086119" lon="9.6588333"><ele>383.0</ele><time>2026-04-24T12:05:53.974Z</time></trkpt><trkpt lat="45.7087207" lon="9.6588453"><ele>383.0</ele><time>2026-04-24T12:05:55.974Z</time></trkpt><trkpt lat="45.7088331" lon="9.6588802"><ele>383.0</ele><time>2026-04-24T12:05:57.974Z</time></trkpt><trkpt lat="45.7088955" lon="9.6589076"><ele>382.59999999999997</ele><time>2026-04-24T12:05:58.975Z</time></trkpt><trkpt lat="45.7090065" lon="9.6589722"><ele>382.2</ele><time>2026-04-24T12:06:00.975Z</time></trkpt><trkpt lat="45.7091097" lon="9.6590301"><ele>381.8</ele><time>2026-04-24T12:06:02.974Z</time></trkpt><trkpt lat="45.7092039" lon="9.6590409"><ele>381.4</ele><time>2026-04-24T12:06:04.974Z</time></trkpt><trkpt lat="45.7093036" lon="9.659025"><ele>381.0</ele><time>2026-04-24T12:06:06.975Z</time></trkpt><trkpt lat="45.7093832" lon="9.6589244"><ele>379.5</ele><time>2026-04-24T12:06:08.975Z</time></trkpt><trkpt lat="45.7094615" lon="9.6588127"><ele>378.0</ele><time>2026-04-24T12:06:10.974Z</time></trkpt><trkpt lat="45.7094812" lon="9.6587216"><ele>376.5</ele><time>2026-04-24T12:06:11.974Z</time></trkpt><trkpt lat="45.7095215" lon="9.6586437"><ele>375.0</ele><time>2026-04-24T12:06:12.974Z</time></trkpt><trkpt lat="45.7095436" lon="9.6585553"><ele>373.5</ele><time>2026-04-24T12:06:13.974Z</time></trkpt><trkpt lat="45.709574" lon="9.6584003"><ele>372.0</ele><time>2026-04-24T12:06:15.974Z</time></trkpt><trkpt lat="45.7095974" lon="9.6582394"><ele>372.0</ele><time>2026-04-24T12:06:17.974Z</time></trkpt><trkpt lat="45.7096033" lon="9.6580913"><ele>372.0</ele><time>2026-04-24T12:06:19.974Z</time></trkpt><trkpt lat="45.7096071" lon="9.6579217"><ele>372.0</ele><time>2026-04-24T12:06:21.975Z</time></trkpt><trkpt lat="45.7095891" lon="9.6577516"><ele>372.0</ele><time>2026-04-24T12:06:23.975Z</time></trkpt><trkpt lat="45.7095864" lon="9.6576587"><ele>372.0</ele><time>2026-04-24T12:06:24.974Z</time></trkpt><trkpt lat="45.709556" lon="9.6574826"><ele>372.0</ele><time>2026-04-24T12:06:26.974Z</time></trkpt><trkpt lat="45.7095377" lon="9.657306"><ele>372.0</ele><time>2026-04-24T12:06:28.975Z</time></trkpt><trkpt lat="45.7095148" lon="9.6572026"><ele>372.0</ele><time>2026-04-24T12:06:29.974Z</time></trkpt><trkpt lat="45.7095112" lon="9.6571033"><ele>372.0</ele><time>2026-04-24T12:06:30.975Z</time></trkpt><trkpt lat="45.7095045" lon="9.6570065"><ele>372.0</ele><time>2026-04-24T12:06:31.974Z</time></trkpt><trkpt lat="45.7095017" lon="9.6568572"><ele>372.0</ele><time>2026-04-24T12:06:33.974Z</time></trkpt><trkpt lat="45.7095606" lon="9.6567527"><ele>372.00000000000006</ele><time>2026-04-24T12:06:35.974Z</time></trkpt><trkpt lat="45.7096256" lon="9.6566862"><ele>372.0</ele><time>2026-04-24T12:06:37.975Z</time></trkpt><trkpt lat="45.7096839" lon="9.6566396"><ele>372.0</ele><time>2026-04-24T12:06:39.974Z</time></trkpt><trkpt lat="45.7097073" lon="9.6565381"><ele>372.0</ele><time>2026-04-24T12:06:41.974Z</time></trkpt><trkpt lat="45.709732" lon="9.6564409"><ele>372.0</ele><time>2026-04-24T12:06:43.974Z</time></trkpt><trkpt lat="45.7097258" lon="9.6563258"><ele>372.00000000000006</ele><time>2026-04-24T12:06:46.975Z</time></trkpt><trkpt lat="45.7097179" lon="9.6562303"><ele>372.0</ele><time>2026-04-24T12:06:48.974Z</time></trkpt><trkpt lat="45.7097163" lon="9.6561266"><ele>373.1666666666667</ele><time>2026-04-24T12:06:50.974Z</time></trkpt><trkpt lat="45.7096681" lon="9.6560169"><ele>374.3333333333333</ele><time>2026-04-24T12:06:53.974Z</time></trkpt><trkpt lat="45.7096599" lon="9.6559258"><ele>375.5</ele><time>2026-04-24T12:06:56.975Z</time></trkpt><trkpt lat="45.7096576" lon="9.6558242"><ele>376.66666666666663</ele><time>2026-04-24T12:06:59.974Z</time></trkpt><trkpt lat="45.7096743" lon="9.6557075"><ele>377.8333333333333</ele><time>2026-04-24T12:07:02.974Z</time></trkpt><trkpt lat="45.7096945" lon="9.6555834"><ele>379.0</ele><time>2026-04-24T12:07:05.975Z</time></trkpt><trkpt lat="45.7097236" lon="9.6554528"><ele>379.0</ele><time>2026-04-24T12:07:08.975Z</time></trkpt><trkpt lat="45.7097387" lon="9.655357"><ele>379.0</ele><time>2026-04-24T12:07:10.975Z</time></trkpt><trkpt lat="45.7097393" lon="9.6552476"><ele>379.0</ele><time>2026-04-24T12:07:13.974Z</time></trkpt><trkpt lat="45.7097396" lon="9.6551262"><ele>379.0</ele><time>2026-04-24T12:07:16.974Z</time></trkpt><trkpt lat="45.7097545" lon="9.655006"><ele>379.0</ele><time>2026-04-24T12:07:19.975Z</time></trkpt><trkpt lat="45.7097845" lon="9.6548875"><ele>379.0</ele><time>2026-04-24T12:07:22.974Z</time></trkpt><trkpt lat="45.7098259" lon="9.6547814"><ele>380.5</ele><time>2026-04-24T12:07:25.974Z</time></trkpt><trkpt lat="45.7098795" lon="9.6546644"><ele>382.0</ele><time>2026-04-24T12:07:28.974Z</time></trkpt><trkpt lat="45.7099174" lon="9.6545837"><ele>383.5</ele><time>2026-04-24T12:07:30.974Z</time></trkpt><trkpt lat="45.7099685" lon="9.6544674"><ele>385.0</ele><time>2026-04-24T12:07:33.974Z</time></trkpt><trkpt lat="45.7100141" lon="9.6543533"><ele>386.50000000000006</ele><time>2026-04-24T12:07:36.974Z</time></trkpt><trkpt lat="45.7100488" lon="9.6542763"><ele>388.0</ele><time>2026-04-24T12:07:38.974Z</time></trkpt><trkpt lat="45.710091" lon="9.6541572"><ele>391.00000000000006</ele><time>2026-04-24T12:07:41.975Z</time></trkpt><trkpt lat="45.7100845" lon="9.6540396"><ele>394.0</ele><time>2026-04-24T12:07:44.974Z</time></trkpt><trkpt lat="45.7100077" lon="9.6539932"><ele>397.0</ele><time>2026-04-24T12:07:47.974Z</time></trkpt><trkpt lat="45.7099454" lon="9.6540447"><ele>400.0</ele><time>2026-04-24T12:07:50.974Z</time></trkpt><trkpt lat="45.7098808" lon="9.6541337"><ele>403.00000000000006</ele><time>2026-04-24T12:07:53.975Z</time></trkpt><trkpt lat="45.7098221" lon="9.6542202"><ele>406.0</ele><time>2026-04-24T12:07:56.975Z</time></trkpt><trkpt lat="45.7097946" lon="9.6543019"><ele>406.00000000000006</ele><time>2026-04-24T12:07:59.974Z</time></trkpt><trkpt lat="45.709755" lon="9.6544033"><ele>406.0</ele><time>2026-04-24T12:08:02.974Z</time></trkpt><trkpt lat="45.7097077" lon="9.654489"><ele>406.0</ele><time>2026-04-24T12:08:05.974Z</time></trkpt><trkpt lat="45.7096455" lon="9.654544"><ele>406.0</ele><time>2026-04-24T12:08:09.974Z</time></trkpt><trkpt lat="45.7095858" lon="9.6546021"><ele>406.00000000000006</ele><time>2026-04-24T12:08:12.974Z</time></trkpt><trkpt lat="45.7095356" lon="9.6546802"><ele>406.0</ele><time>2026-04-24T12:08:15.975Z</time></trkpt><trkpt lat="45.7094905" lon="9.6547718"><ele>406.50000000000006</ele><time>2026-04-24T12:08:18.975Z</time></trkpt><trkpt lat="45.7094708" lon="9.6548718"><ele>407.0</ele><time>2026-04-24T12:08:21.974Z</time></trkpt><trkpt lat="45.7094449" lon="9.6550163"><ele>407.5</ele><time>2026-04-24T12:08:27.975Z</time></trkpt><trkpt lat="45.7094106" lon="9.655119"><ele>408.0</ele><time>2026-04-24T12:08:29.974Z</time></trkpt><trkpt lat="45.7093702" lon="9.6552251"><ele>408.50000000000006</ele><time>2026-04-24T12:08:32.974Z</time></trkpt><trkpt lat="45.7093341" lon="9.6553147"><ele>409.0</ele><time>2026-04-24T12:08:34.974Z</time></trkpt><trkpt lat="45.7093162" lon="9.655402"><ele>409.00000000000006</ele><time>2026-04-24T12:08:38.975Z</time></trkpt><trkpt lat="45.7092534" lon="9.6554686"><ele>409.0</ele><time>2026-04-24T12:08:40.975Z</time></trkpt><trkpt lat="45.7091952" lon="9.6555283"><ele>409.0</ele><time>2026-04-24T12:08:42.974Z</time></trkpt><trkpt lat="45.7091364" lon="9.6556153"><ele>409.0</ele><time>2026-04-24T12:08:45.974Z</time></trkpt><trkpt lat="45.7090922" lon="9.6557076"><ele>409.00000000000006</ele><time>2026-04-24T12:08:48.975Z</time></trkpt><trkpt lat="45.7090494" lon="9.6558021"><ele>409.0</ele><time>2026-04-24T12:08:51.974Z</time></trkpt><trkpt lat="45.7090091" lon="9.6558907"><ele>409.00000000000006</ele><time>2026-04-24T12:08:54.974Z</time></trkpt><trkpt lat="45.7089516" lon="9.6559709"><ele>409.0</ele><time>2026-04-24T12:08:57.974Z</time></trkpt><trkpt lat="45.7088918" lon="9.6560361"><ele>409.0</ele><time>2026-04-24T12:08:59.974Z</time></trkpt><trkpt lat="45.7088327" lon="9.6561035"><ele>409.0</ele><time>2026-04-24T12:09:02.974Z</time></trkpt><trkpt lat="45.7087745" lon="9.6561881"><ele>409.00000000000006</ele><time>2026-04-24T12:09:05.974Z</time></trkpt><trkpt lat="45.7087" lon="9.656289"><ele>409.0</ele><time>2026-04-24T12:09:08.975Z</time></trkpt><trkpt lat="45.7086117" lon="9.6562803"><ele>409.0</ele><time>2026-04-24T12:09:11.974Z</time></trkpt><trkpt lat="45.708627" lon="9.6561158"><ele>409.0</ele><time>2026-04-24T12:09:13.974Z</time></trkpt><trkpt lat="45.7086445" lon="9.6560022"><ele>409.0</ele><time>2026-04-24T12:09:16.974Z</time></trkpt><trkpt lat="45.7086378" lon="9.6558861"><ele>409.0</ele><time>2026-04-24T12:09:19.974Z</time></trkpt><trkpt lat="45.7086264" lon="9.6557666"><ele>409.0</ele><time>2026-04-24T12:09:22.974Z</time></trkpt><trkpt lat="45.7086215" lon="9.6556419"><ele>409.00000000000006</ele><time>2026-04-24T12:09:25.975Z</time></trkpt><trkpt lat="45.7086199" lon="9.6555493"><ele>409.0</ele><time>2026-04-24T12:09:27.975Z</time></trkpt><trkpt lat="45.7086199" lon="9.6554231"><ele>409.0</ele><time>2026-04-24T12:09:30.974Z</time></trkpt><trkpt lat="45.7086338" lon="9.6553091"><ele>409.0</ele><time>2026-04-24T12:09:33.974Z</time></trkpt><trkpt lat="45.7086656" lon="9.6551968"><ele>409.00000000000006</ele><time>2026-04-24T12:09:36.974Z</time></trkpt><trkpt lat="45.7086973" lon="9.655078"><ele>409.0</ele><time>2026-04-24T12:09:39.974Z</time></trkpt><trkpt lat="45.7087265" lon="9.6549841"><ele>410.6666666666667</ele><time>2026-04-24T12:09:42.974Z</time></trkpt><trkpt lat="45.7087578" lon="9.6548829"><ele>412.33333333333337</ele><time>2026-04-24T12:09:45.974Z</time></trkpt><trkpt lat="45.7088082" lon="9.6547837"><ele>414.0</ele><time>2026-04-24T12:09:48.974Z</time></trkpt><trkpt lat="45.7088673" lon="9.6546892"><ele>415.66666666666663</ele><time>2026-04-24T12:09:51.974Z</time></trkpt><trkpt lat="45.7089026" lon="9.6546096"><ele>417.3333333333333</ele><time>2026-04-24T12:09:53.974Z</time></trkpt><trkpt lat="45.7089449" lon="9.6545189"><ele>419.0</ele><time>2026-04-24T12:09:56.974Z</time></trkpt><trkpt lat="45.7089968" lon="9.6544406"><ele>420.99999999999994</ele><time>2026-04-24T12:09:59.975Z</time></trkpt><trkpt lat="45.7090466" lon="9.6543616"><ele>423.0</ele><time>2026-04-24T12:10:02.974Z</time></trkpt><trkpt lat="45.7091047" lon="9.6542761"><ele>425.0</ele><time>2026-04-24T12:10:05.975Z</time></trkpt><trkpt lat="45.7091617" lon="9.6542048"><ele>427.0</ele><time>2026-04-24T12:10:08.974Z</time></trkpt><trkpt lat="45.7092265" lon="9.6541104"><ele>428.99999999999994</ele><time>2026-04-24T12:10:11.974Z</time></trkpt><trkpt lat="45.7092815" lon="9.6540288"><ele>431.0</ele><time>2026-04-24T12:10:14.975Z</time></trkpt><trkpt lat="45.7093365" lon="9.6539189"><ele>430.99999999999994</ele><time>2026-04-24T12:10:17.974Z</time></trkpt><trkpt lat="45.7093786" lon="9.6538197"><ele>431.0</ele><time>2026-04-24T12:10:20.974Z</time></trkpt><trkpt lat="45.7094221" lon="9.6537296"><ele>431.0</ele><time>2026-04-24T12:10:23.975Z</time></trkpt><trkpt lat="45.7094536" lon="9.6536292"><ele>431.0</ele><time>2026-04-24T12:10:26.974Z</time></trkpt><trkpt lat="45.7094916" lon="9.6535302"><ele>430.99999999999994</ele><time>2026-04-24T12:10:29.975Z</time></trkpt><trkpt lat="45.7095241" lon="9.6534529"><ele>431.0</ele><time>2026-04-24T12:10:32.974Z</time></trkpt><trkpt lat="45.7095667" lon="9.6533621"><ele>430.3333333333333</ele><time>2026-04-24T12:10:36.975Z</time></trkpt><trkpt lat="45.7096105" lon="9.6532707"><ele>429.66666666666663</ele><time>2026-04-24T12:10:41.975Z</time></trkpt><trkpt lat="45.7096592" lon="9.6531879"><ele>429.0</ele><time>2026-04-24T12:10:45.974Z</time></trkpt><trkpt lat="45.7096925" lon="9.6531028"><ele>428.33333333333337</ele><time>2026-04-24T12:10:48.974Z</time></trkpt><trkpt lat="45.7096871" lon="9.6529903"><ele>427.6666666666667</ele><time>2026-04-24T12:10:51.974Z</time></trkpt><trkpt lat="45.7096292" lon="9.6529444"><ele>427.0</ele><time>2026-04-24T12:10:54.975Z</time></trkpt><trkpt lat="45.7095501" lon="9.6530068"><ele>427.00000000000006</ele><time>2026-04-24T12:10:59.975Z</time></trkpt><trkpt lat="45.7094914" lon="9.6530637"><ele>427.0</ele><time>2026-04-24T12:11:02.975Z</time></trkpt><trkpt lat="45.7094291" lon="9.6531316"><ele>427.0</ele><time>2026-04-24T12:11:05.974Z</time></trkpt><trkpt lat="45.7093659" lon="9.6531902"><ele>427.0</ele><time>2026-04-24T12:11:08.975Z</time></trkpt><trkpt lat="45.7092988" lon="9.6532734"><ele>427.00000000000006</ele><time>2026-04-24T12:11:12.974Z</time></trkpt><trkpt lat="45.7092366" lon="9.6531916"><ele>427.0</ele><time>2026-04-24T12:11:15.974Z</time></trkpt><trkpt lat="45.7092826" lon="9.6531111"><ele>427.00000000000006</ele><time>2026-04-24T12:11:18.974Z</time></trkpt><trkpt lat="45.7093668" lon="9.6530731"><ele>427.0</ele><time>2026-04-24T12:11:21.974Z</time></trkpt><trkpt lat="45.709426" lon="9.6530199"><ele>427.0</ele><time>2026-04-24T12:11:24.975Z</time></trkpt><trkpt lat="45.7094788" lon="9.652954"><ele>427.0</ele><time>2026-04-24T12:11:27.974Z</time></trkpt><trkpt lat="45.709526" lon="9.6528711"><ele>427.00000000000006</ele><time>2026-04-24T12:11:30.975Z</time></trkpt><trkpt lat="45.7095949" lon="9.6528045"><ele>427.0</ele><time>2026-04-24T12:11:34.975Z</time></trkpt><trkpt lat="45.7096484" lon="9.6527231"><ele>429.0</ele><time>2026-04-24T12:11:38.975Z</time></trkpt><trkpt lat="45.7096903" lon="9.65264"><ele>431.0</ele><time>2026-04-24T12:11:41.975Z</time></trkpt><trkpt lat="45.7097184" lon="9.6525589"><ele>433.0</ele><time>2026-04-24T12:11:44.974Z</time></trkpt><trkpt lat="45.7097356" lon="9.6524664"><ele>435.0</ele><time>2026-04-24T12:11:47.974Z</time></trkpt><trkpt lat="45.7097441" lon="9.6523468"><ele>437.0</ele><time>2026-04-24T12:11:51.975Z</time></trkpt><trkpt lat="45.709743" lon="9.652242"><ele>439.0</ele><time>2026-04-24T12:11:54.974Z</time></trkpt><trkpt lat="45.7097306" lon="9.652135"><ele>441.0</ele><time>2026-04-24T12:12:00.974Z</time></trkpt><trkpt lat="45.7097299" lon="9.6520222"><ele>444.4</ele><time>2026-04-24T12:12:03.975Z</time></trkpt><trkpt lat="45.7097304" lon="9.6519264"><ele>447.8</ele><time>2026-04-24T12:12:05.974Z</time></trkpt><trkpt lat="45.7097341" lon="9.6518261"><ele>451.19999999999993</ele><time>2026-04-24T12:12:07.974Z</time></trkpt><trkpt lat="45.7097537" lon="9.6515949"><ele>454.59999999999997</ele><time>2026-04-24T12:12:09.974Z</time></trkpt><trkpt lat="45.7097927" lon="9.6514977"><ele>458.0</ele><time>2026-04-24T12:12:11.975Z</time></trkpt><trkpt lat="45.7098439" lon="9.6514202"><ele>457.99999999999994</ele><time>2026-04-24T12:12:13.974Z</time></trkpt><trkpt lat="45.7099005" lon="9.6513446"><ele>458.0</ele><time>2026-04-24T12:12:15.974Z</time></trkpt><trkpt lat="45.7099532" lon="9.6512766"><ele>458.0</ele><time>2026-04-24T12:12:17.974Z</time></trkpt><trkpt lat="45.7100054" lon="9.6511896"><ele>458.0</ele><time>2026-04-24T12:12:19.975Z</time></trkpt><trkpt lat="45.7100671" lon="9.6511016"><ele>457.99999999999994</ele><time>2026-04-24T12:12:21.974Z</time></trkpt><trkpt lat="45.7101387" lon="9.6510032"><ele>458.0</ele><time>2026-04-24T12:12:23.974Z</time></trkpt><trkpt lat="45.7102271" lon="9.6509034"><ele>456.79999999999995</ele><time>2026-04-24T12:12:25.975Z</time></trkpt><trkpt lat="45.7102874" lon="9.6507635"><ele>455.59999999999997</ele><time>2026-04-24T12:12:27.974Z</time></trkpt><trkpt lat="45.7103283" lon="9.6506077"><ele>454.40000000000003</ele><time>2026-04-24T12:12:29.974Z</time></trkpt><trkpt lat="45.7103655" lon="9.6504638"><ele>453.20000000000005</ele><time>2026-04-24T12:12:31.974Z</time></trkpt><trkpt lat="45.710384" lon="9.6503173"><ele>452.0</ele><time>2026-04-24T12:12:33.974Z</time></trkpt><trkpt lat="45.7104022" lon="9.6501664"><ele>452.0</ele><time>2026-04-24T12:12:35.975Z</time></trkpt><trkpt lat="45.7104166" lon="9.6499528"><ele>452.00000000000006</ele><time>2026-04-24T12:12:38.973Z</time></trkpt><trkpt lat="45.7104237" lon="9.6498108"><ele>452.00000000000006</ele><time>2026-04-24T12:12:40.965Z</time></trkpt><trkpt lat="45.7104256" lon="9.6496771"><ele>452.0</ele><time>2026-04-24T12:12:42.969Z</time></trkpt><trkpt lat="45.7104406" lon="9.6495351"><ele>452.0</ele><time>2026-04-24T12:12:44.978Z</time></trkpt><trkpt lat="45.710475" lon="9.6493921"><ele>453.0</ele><time>2026-04-24T12:12:46.977Z</time></trkpt><trkpt lat="45.7105291" lon="9.6492601"><ele>454.0</ele><time>2026-04-24T12:12:48.978Z</time></trkpt><trkpt lat="45.7106866" lon="9.6490249"><ele>455.0</ele><time>2026-04-24T12:12:50.978Z</time></trkpt><trkpt lat="45.7107443" lon="9.6489618"><ele>456.0</ele><time>2026-04-24T12:12:51.977Z</time></trkpt><trkpt lat="45.7108549" lon="9.6488429"><ele>456.0</ele><time>2026-04-24T12:12:53.978Z</time></trkpt><trkpt lat="45.7109247" lon="9.6487841"><ele>456.0</ele><time>2026-04-24T12:12:54.977Z</time></trkpt><trkpt lat="45.7109888" lon="9.6487318"><ele>456.0</ele><time>2026-04-24T12:12:55.977Z</time></trkpt><trkpt lat="45.7110798" lon="9.6487178"><ele>456.0</ele><time>2026-04-24T12:12:56.978Z</time></trkpt><trkpt lat="45.7111617" lon="9.6486822"><ele>456.0</ele><time>2026-04-24T12:12:57.977Z</time></trkpt><trkpt lat="45.7112457" lon="9.6486724"><ele>456.0</ele><time>2026-04-24T12:12:58.977Z</time></trkpt><trkpt lat="45.7113262" lon="9.6486728"><ele>456.6666666666667</ele><time>2026-04-24T12:12:59.977Z</time></trkpt><trkpt lat="45.7114014" lon="9.648671"><ele>457.33333333333337</ele><time>2026-04-24T12:13:00.977Z</time></trkpt><trkpt lat="45.7114741" lon="9.6486761"><ele>458.0</ele><time>2026-04-24T12:13:01.977Z</time></trkpt><trkpt lat="45.7115441" lon="9.6486485"><ele>458.6666666666667</ele><time>2026-04-24T12:13:02.977Z</time></trkpt><trkpt lat="45.7116161" lon="9.6486194"><ele>459.33333333333337</ele><time>2026-04-24T12:13:03.978Z</time></trkpt><trkpt lat="45.7116936" lon="9.6485712"><ele>460.0</ele><time>2026-04-24T12:13:04.977Z</time></trkpt><trkpt lat="45.711767" lon="9.6485081"><ele>460.00000000000006</ele><time>2026-04-24T12:13:05.977Z</time></trkpt><trkpt lat="45.7118355" lon="9.6484569"><ele>460.0</ele><time>2026-04-24T12:13:06.978Z</time></trkpt><trkpt lat="45.7119159" lon="9.6484117"><ele>460.0</ele><time>2026-04-24T12:13:07.977Z</time></trkpt><trkpt lat="45.7119853" lon="9.6483638"><ele>460.0</ele><time>2026-04-24T12:13:08.977Z</time></trkpt><trkpt lat="45.7120558" lon="9.6483634"><ele>460.00000000000006</ele><time>2026-04-24T12:13:09.977Z</time></trkpt><trkpt lat="45.7121409" lon="9.6483496"><ele>460.0</ele><time>2026-04-24T12:13:10.977Z</time></trkpt><trkpt lat="45.7122118" lon="9.6482989"><ele>456.6</ele><time>2026-04-24T12:13:11.977Z</time></trkpt><trkpt lat="45.7122434" lon="9.6482073"><ele>453.2</ele><time>2026-04-24T12:13:12.977Z</time></trkpt><trkpt lat="45.7122888" lon="9.6481444"><ele>449.79999999999995</ele><time>2026-04-24T12:13:13.977Z</time></trkpt><trkpt lat="45.712301" lon="9.6479621"><ele>446.4</ele><time>2026-04-24T12:13:15.977Z</time></trkpt><trkpt lat="45.7123063" lon="9.6478397"><ele>443.0</ele><time>2026-04-24T12:13:16.977Z</time></trkpt><trkpt lat="45.7122984" lon="9.647656"><ele>442.99999999999994</ele><time>2026-04-24T12:13:18.977Z</time></trkpt><trkpt lat="45.7122883" lon="9.6475333"><ele>443.0</ele><time>2026-04-24T12:13:19.978Z</time></trkpt><trkpt lat="45.7122833" lon="9.6474284"><ele>443.0</ele><time>2026-04-24T12:13:20.978Z</time></trkpt><trkpt lat="45.7122934" lon="9.6472644"><ele>443.0</ele><time>2026-04-24T12:13:22.978Z</time></trkpt><trkpt lat="45.7122786" lon="9.6471646"><ele>442.99999999999994</ele><time>2026-04-24T12:13:24.977Z</time></trkpt><trkpt lat="45.7123065" lon="9.64708"><ele>443.0</ele><time>2026-04-24T12:13:28.977Z</time></trkpt><trkpt lat="45.7123623" lon="9.6469894"><ele>445.59999999999997</ele><time>2026-04-24T12:13:30.978Z</time></trkpt><trkpt lat="45.7124399" lon="9.6468609"><ele>448.19999999999993</ele><time>2026-04-24T12:13:32.977Z</time></trkpt><trkpt lat="45.7125" lon="9.6467172"><ele>450.8</ele><time>2026-04-24T12:13:34.977Z</time></trkpt><trkpt lat="45.7125746" lon="9.6465879"><ele>453.4</ele><time>2026-04-24T12:13:36.977Z</time></trkpt><trkpt lat="45.7126459" lon="9.6464994"><ele>456.0</ele><time>2026-04-24T12:13:38.978Z</time></trkpt><trkpt lat="45.7127298" lon="9.6464029"><ele>457.0</ele><time>2026-04-24T12:13:40.977Z</time></trkpt><trkpt lat="45.7128138" lon="9.6463186"><ele>458.0</ele><time>2026-04-24T12:13:42.978Z</time></trkpt><trkpt lat="45.7129024" lon="9.6462637"><ele>459.0</ele><time>2026-04-24T12:13:44.978Z</time></trkpt><trkpt lat="45.7129689" lon="9.6462106"><ele>460.0</ele><time>2026-04-24T12:13:46.977Z</time></trkpt><trkpt lat="45.7130545" lon="9.6461155"><ele>461.0</ele><time>2026-04-24T12:13:48.977Z</time></trkpt><trkpt lat="45.7131401" lon="9.6460673"><ele>461.0</ele><time>2026-04-24T12:13:50.977Z</time></trkpt><trkpt lat="45.7132036" lon="9.6460075"><ele>461.00000000000006</ele><time>2026-04-24T12:13:52.977Z</time></trkpt><trkpt lat="45.7132655" lon="9.6459046"><ele>461.0</ele><time>2026-04-24T12:13:54.978Z</time></trkpt><trkpt lat="45.7133148" lon="9.6458399"><ele>461.0</ele><time>2026-04-24T12:13:56.977Z</time></trkpt><trkpt lat="45.7133461" lon="9.6457593"><ele>461.00000000000006</ele><time>2026-04-24T12:13:59.977Z</time></trkpt><trkpt lat="45.7133838" lon="9.6456691"><ele>461.0</ele><time>2026-04-24T12:14:02.977Z</time></trkpt><trkpt lat="45.7133798" lon="9.6455748"><ele>461.0</ele><time>2026-04-24T12:14:05.978Z</time></trkpt><trkpt lat="45.7134159" lon="9.6454988"><ele>460.99999999999994</ele><time>2026-04-24T12:14:09.977Z</time></trkpt><trkpt lat="45.7134433" lon="9.6454078"><ele>461.0</ele><time>2026-04-24T12:14:14.978Z</time></trkpt><trkpt lat="45.7134898" lon="9.6453161"><ele>461.0</ele><time>2026-04-24T12:14:16.977Z</time></trkpt><trkpt lat="45.7135103" lon="9.645216"><ele>461.0</ele><time>2026-04-24T12:14:20.978Z</time></trkpt><trkpt lat="45.7134943" lon="9.6451251"><ele>460.99999999999994</ele><time>2026-04-24T12:14:23.977Z</time></trkpt><trkpt lat="45.7134394" lon="9.6453181"><ele>461.0</ele><time>2026-04-24T12:14:25.977Z</time></trkpt><trkpt lat="45.7134367" lon="9.6451941"><ele>467.0</ele><time>2026-04-24T12:14:32.978Z</time></trkpt><trkpt lat="45.7134357" lon="9.6450916"><ele>473.0</ele><time>2026-04-24T12:14:33.977Z</time></trkpt><trkpt lat="45.7134924" lon="9.6443831"><ele>472.99999999999994</ele><time>2026-04-24T12:14:34.977Z</time></trkpt><trkpt lat="45.7134974" lon="9.6442839"><ele>473.0</ele><time>2026-04-24T12:14:35.978Z</time></trkpt><trkpt lat="45.7135148" lon="9.6441698"><ele>473.0</ele><time>2026-04-24T12:14:36.978Z</time></trkpt><trkpt lat="45.7135158" lon="9.6440523"><ele>473.0</ele><time>2026-04-24T12:14:37.978Z</time></trkpt><trkpt lat="45.713519" lon="9.6439298"><ele>472.99999999999994</ele><time>2026-04-24T12:14:38.977Z</time></trkpt><trkpt lat="45.7135597" lon="9.6438204"><ele>473.0</ele><time>2026-04-24T12:14:39.977Z</time></trkpt><trkpt lat="45.7135637" lon="9.6437112"><ele>471.66666666666663</ele><time>2026-04-24T12:14:40.977Z</time></trkpt><trkpt lat="45.7135258" lon="9.6436139"><ele>470.3333333333333</ele><time>2026-04-24T12:14:41.977Z</time></trkpt><trkpt lat="45.7134713" lon="9.643529"><ele>469.0</ele><time>2026-04-24T12:14:43.977Z</time></trkpt><trkpt lat="45.7134362" lon="9.6434346"><ele>467.66666666666663</ele><time>2026-04-24T12:14:45.977Z</time></trkpt><trkpt lat="45.7133771" lon="9.6433254"><ele>466.3333333333333</ele><time>2026-04-24T12:14:47.978Z</time></trkpt><trkpt lat="45.7133312" lon="9.6432175"><ele>465.0</ele><time>2026-04-24T12:14:49.977Z</time></trkpt><trkpt lat="45.7132833" lon="9.643146"><ele>465.0</ele><time>2026-04-24T12:14:51.977Z</time></trkpt><trkpt lat="45.7133104" lon="9.6432313"><ele>465.0</ele><time>2026-04-24T12:15:05.977Z</time></trkpt><trkpt lat="45.7133442" lon="9.6433155"><ele>465.0</ele><time>2026-04-24T12:15:07.977Z</time></trkpt><trkpt lat="45.7134003" lon="9.643381"><ele>465.0</ele><time>2026-04-24T12:15:10.977Z</time></trkpt><trkpt lat="45.7133942" lon="9.6432876"><ele>465.0</ele><time>2026-04-24T12:15:14.977Z</time></trkpt><trkpt lat="45.7133795" lon="9.6431591"><ele>465.0</ele><time>2026-04-24T12:15:16.977Z</time></trkpt><trkpt lat="45.7133775" lon="9.6430392"><ele>465.0</ele><time>2026-04-24T12:15:18.977Z</time></trkpt><trkpt lat="45.7134275" lon="9.6429794"><ele>465.0</ele><time>2026-04-24T12:15:20.977Z</time></trkpt><trkpt lat="45.7135237" lon="9.6429582"><ele>465.0</ele><time>2026-04-24T12:15:22.978Z</time></trkpt><trkpt lat="45.7136082" lon="9.642942"><ele>465.0</ele><time>2026-04-24T12:15:24.977Z</time></trkpt><trkpt lat="45.7137116" lon="9.6428944"><ele>465.0</ele><time>2026-04-24T12:15:26.977Z</time></trkpt><trkpt lat="45.7138168" lon="9.6428473"><ele>465.0</ele><time>2026-04-24T12:15:28.978Z</time></trkpt><trkpt lat="45.7138936" lon="9.6427656"><ele>463.2</ele><time>2026-04-24T12:15:30.977Z</time></trkpt><trkpt lat="45.7140287" lon="9.6427202"><ele>461.4</ele><time>2026-04-24T12:15:32.977Z</time></trkpt><trkpt lat="45.7140947" lon="9.642675"><ele>459.6</ele><time>2026-04-24T12:15:33.977Z</time></trkpt><trkpt lat="45.7141994" lon="9.6426629"><ele>457.8</ele><time>2026-04-24T12:15:35.978Z</time></trkpt><trkpt lat="45.7142959" lon="9.6426703"><ele>456.0</ele><time>2026-04-24T12:15:37.977Z</time></trkpt><trkpt lat="45.7143807" lon="9.642656"><ele>452.6</ele><time>2026-04-24T12:15:38.978Z</time></trkpt><trkpt lat="45.7144446" lon="9.6426567"><ele>449.20000000000005</ele><time>2026-04-24T12:15:39.977Z</time></trkpt><trkpt lat="45.7145496" lon="9.6426954"><ele>445.79999999999995</ele><time>2026-04-24T12:15:41.978Z</time></trkpt><trkpt lat="45.7146687" lon="9.6427138"><ele>442.4</ele><time>2026-04-24T12:15:43.977Z</time></trkpt><trkpt lat="45.7147569" lon="9.6426736"><ele>439.0</ele><time>2026-04-24T12:15:44.977Z</time></trkpt><trkpt lat="45.7148562" lon="9.6426263"><ele>439.0</ele><time>2026-04-24T12:15:46.978Z</time></trkpt><trkpt lat="45.7149321" lon="9.642554"><ele>439.0</ele><time>2026-04-24T12:15:48.977Z</time></trkpt><trkpt lat="45.7149962" lon="9.6424945"><ele>439.0</ele><time>2026-04-24T12:15:49.977Z</time></trkpt><trkpt lat="45.7150661" lon="9.6424222"><ele>439.0</ele><time>2026-04-24T12:15:51.977Z</time></trkpt><trkpt lat="45.715177" lon="9.6423398"><ele>439.0</ele><time>2026-04-24T12:15:53.977Z</time></trkpt><trkpt lat="45.7152868" lon="9.6422807"><ele>434.6</ele><time>2026-04-24T12:15:55.977Z</time></trkpt><trkpt lat="45.7153833" lon="9.6421754"><ele>430.2</ele><time>2026-04-24T12:15:57.978Z</time></trkpt><trkpt lat="45.7154184" lon="9.6420943"><ele>425.8</ele><time>2026-04-24T12:15:58.977Z</time></trkpt><trkpt lat="45.7154836" lon="9.6419823"><ele>421.40000000000003</ele><time>2026-04-24T12:16:00.977Z</time></trkpt><trkpt lat="45.7155155" lon="9.6418451"><ele>417.0</ele><time>2026-04-24T12:16:02.978Z</time></trkpt><trkpt lat="45.715495" lon="9.6416891"><ele>416.7142857142857</ele><time>2026-04-24T12:16:04.977Z</time></trkpt><trkpt lat="45.7154827" lon="9.6415996"><ele>416.4285714285714</ele><time>2026-04-24T12:16:05.977Z</time></trkpt><trkpt lat="45.7154637" lon="9.641512"><ele>416.1428571428571</ele><time>2026-04-24T12:16:06.978Z</time></trkpt><trkpt lat="45.7154409" lon="9.6414076"><ele>415.8571428571429</ele><time>2026-04-24T12:16:07.978Z</time></trkpt><trkpt lat="45.7154078" lon="9.6413087"><ele>415.57142857142856</ele><time>2026-04-24T12:16:08.977Z</time></trkpt><trkpt lat="45.7153695" lon="9.6412079"><ele>415.2857142857143</ele><time>2026-04-24T12:16:09.978Z</time></trkpt><trkpt lat="45.7153287" lon="9.6411158"><ele>415.0</ele><time>2026-04-24T12:16:10.977Z</time></trkpt><trkpt lat="45.7152927" lon="9.6410236"><ele>414.83333333333337</ele><time>2026-04-24T12:16:11.977Z</time></trkpt><trkpt lat="45.715266" lon="9.6409407"><ele>414.6666666666667</ele><time>2026-04-24T12:16:12.977Z</time></trkpt><trkpt lat="45.7152378" lon="9.640852"><ele>414.5</ele><time>2026-04-24T12:16:13.977Z</time></trkpt><trkpt lat="45.7151912" lon="9.6406851"><ele>414.33333333333337</ele><time>2026-04-24T12:16:15.977Z</time></trkpt><trkpt lat="45.7151771" lon="9.640541"><ele>414.1666666666667</ele><time>2026-04-24T12:16:17.978Z</time></trkpt><trkpt lat="45.7151933" lon="9.640435"><ele>414.0</ele><time>2026-04-24T12:16:19.977Z</time></trkpt><trkpt lat="45.7152774" lon="9.6403764"><ele>414.0</ele><time>2026-04-24T12:16:22.977Z</time></trkpt><trkpt lat="45.7153509" lon="9.6403825"><ele>414.0</ele><time>2026-04-24T12:16:23.978Z</time></trkpt><trkpt lat="45.7154454" lon="9.6403511"><ele>414.0</ele><time>2026-04-24T12:16:25.977Z</time></trkpt><trkpt lat="45.7155235" lon="9.6403226"><ele>414.0</ele><time>2026-04-24T12:16:27.977Z</time></trkpt><trkpt lat="45.7155845" lon="9.6402754"><ele>414.0</ele><time>2026-04-24T12:16:29.977Z</time></trkpt><trkpt lat="45.7156552" lon="9.6402654"><ele>414.0</ele><time>2026-04-24T12:16:32.978Z</time></trkpt><trkpt lat="45.7157174" lon="9.6402857"><ele>414.0</ele><time>2026-04-24T12:16:34.978Z</time></trkpt><trkpt lat="45.7157907" lon="9.6402978"><ele>414.0</ele><time>2026-04-24T12:16:36.978Z</time></trkpt><trkpt lat="45.7158596" lon="9.6403184"><ele>414.0</ele><time>2026-04-24T12:16:38.977Z</time></trkpt><trkpt lat="45.7159528" lon="9.6403769"><ele>414.0</ele><time>2026-04-24T12:16:40.978Z</time></trkpt><trkpt lat="45.7160252" lon="9.6404397"><ele>414.0</ele><time>2026-04-24T12:16:41.977Z</time></trkpt><trkpt lat="45.716089" lon="9.6404927"><ele>414.0</ele><time>2026-04-24T12:16:42.977Z</time></trkpt><trkpt lat="45.7161571" lon="9.6405968"><ele>412.6</ele><time>2026-04-24T12:16:44.978Z</time></trkpt><trkpt lat="45.7162564" lon="9.6406452"><ele>411.2</ele><time>2026-04-24T12:16:46.977Z</time></trkpt><trkpt lat="45.7163523" lon="9.6406632"><ele>409.8</ele><time>2026-04-24T12:16:48.977Z</time></trkpt><trkpt lat="45.7164356" lon="9.6406909"><ele>408.40000000000003</ele><time>2026-04-24T12:16:50.977Z</time></trkpt><trkpt lat="45.7165424" lon="9.6407037"><ele>407.0</ele><time>2026-04-24T12:16:52.977Z</time></trkpt><trkpt lat="45.7166105" lon="9.640711"><ele>407.0</ele><time>2026-04-24T12:16:53.977Z</time></trkpt><trkpt lat="45.7166744" lon="9.6407391"><ele>407.0</ele><time>2026-04-24T12:16:54.977Z</time></trkpt><trkpt lat="45.7167996" lon="9.6407366"><ele>407.0</ele><time>2026-04-24T12:16:56.978Z</time></trkpt><trkpt lat="45.7168866" lon="9.6407721"><ele>407.0</ele><time>2026-04-24T12:16:57.977Z</time></trkpt><trkpt lat="45.7169655" lon="9.6408621"><ele>407.0</ele><time>2026-04-24T12:16:59.977Z</time></trkpt><trkpt lat="45.7170493" lon="9.6409757"><ele>408.99999999999994</ele><time>2026-04-24T12:17:01.977Z</time></trkpt><trkpt lat="45.7171271" lon="9.6410327"><ele>411.0</ele><time>2026-04-24T12:17:03.977Z</time></trkpt><trkpt lat="45.7171846" lon="9.6410767"><ele>413.0</ele><time>2026-04-24T12:17:04.977Z</time></trkpt><trkpt lat="45.7173097" lon="9.6411082"><ele>415.0</ele><time>2026-04-24T12:17:06.977Z</time></trkpt><trkpt lat="45.7173687" lon="9.6411454"><ele>416.99999999999994</ele><time>2026-04-24T12:17:07.978Z</time></trkpt><trkpt lat="45.7174311" lon="9.6412122"><ele>419.0</ele><time>2026-04-24T12:17:08.977Z</time></trkpt><trkpt lat="45.7174985" lon="9.6412483"><ele>414.79999999999995</ele><time>2026-04-24T12:17:09.977Z</time></trkpt><trkpt lat="45.7175704" lon="9.6413393"><ele>410.59999999999997</ele><time>2026-04-24T12:17:11.977Z</time></trkpt><trkpt lat="45.7176959" lon="9.641446"><ele>406.4</ele><time>2026-04-24T12:17:13.978Z</time></trkpt><trkpt lat="45.7177703" lon="9.6415015"><ele>402.2</ele><time>2026-04-24T12:17:14.977Z</time></trkpt><trkpt lat="45.7178433" lon="9.6415511"><ele>398.0</ele><time>2026-04-24T12:17:15.977Z</time></trkpt><trkpt lat="45.7179008" lon="9.64163"><ele>398.0</ele><time>2026-04-24T12:17:16.977Z</time></trkpt><trkpt lat="45.717999" lon="9.6417469"><ele>398.0</ele><time>2026-04-24T12:17:18.977Z</time></trkpt><trkpt lat="45.718079" lon="9.6418701"><ele>398.0</ele><time>2026-04-24T12:17:20.978Z</time></trkpt><trkpt lat="45.7181789" lon="9.6419934"><ele>398.0</ele><time>2026-04-24T12:17:22.978Z</time></trkpt><trkpt lat="45.718266" lon="9.6420972"><ele>394.99999999999994</ele><time>2026-04-24T12:17:24.977Z</time></trkpt><trkpt lat="45.7183354" lon="9.6421599"><ele>392.0</ele><time>2026-04-24T12:17:25.978Z</time></trkpt><trkpt lat="45.7183855" lon="9.6422186"><ele>389.0</ele><time>2026-04-24T12:17:26.977Z</time></trkpt><trkpt lat="45.7184415" lon="9.6422861"><ele>386.0</ele><time>2026-04-24T12:17:27.977Z</time></trkpt><trkpt lat="45.7185148" lon="9.6423471"><ele>383.0</ele><time>2026-04-24T12:17:28.977Z</time></trkpt><trkpt lat="45.7186223" lon="9.6424618"><ele>380.0</ele><time>2026-04-24T12:17:30.977Z</time></trkpt><trkpt lat="45.7187244" lon="9.6425573"><ele>380.0</ele><time>2026-04-24T12:17:31.977Z</time></trkpt><trkpt lat="45.7188272" lon="9.6426311"><ele>380.0</ele><time>2026-04-24T12:17:33.977Z</time></trkpt><trkpt lat="45.7189011" lon="9.6426832"><ele>380.0</ele><time>2026-04-24T12:17:34.978Z</time></trkpt><trkpt lat="45.7189929" lon="9.6426727"><ele>380.0</ele><time>2026-04-24T12:17:35.978Z</time></trkpt><trkpt lat="45.7190787" lon="9.642683"><ele>380.0</ele><time>2026-04-24T12:17:36.977Z</time></trkpt><trkpt lat="45.7191544" lon="9.6426879"><ele>380.0</ele><time>2026-04-24T12:17:37.977Z</time></trkpt><trkpt lat="45.71923" lon="9.6426969"><ele>380.0</ele><time>2026-04-24T12:17:38.977Z</time></trkpt><trkpt lat="45.7192949" lon="9.6427024"><ele>380.0</ele><time>2026-04-24T12:17:39.977Z</time></trkpt><trkpt lat="45.719369" lon="9.6426912"><ele>380.0</ele><time>2026-04-24T12:17:40.977Z</time></trkpt><trkpt lat="45.7194484" lon="9.6426709"><ele>380.0</ele><time>2026-04-24T12:17:41.977Z</time></trkpt><trkpt lat="45.7195173" lon="9.6426501"><ele>380.0</ele><time>2026-04-24T12:17:42.978Z</time></trkpt><trkpt lat="45.7195855" lon="9.6426224"><ele>380.0</ele><time>2026-04-24T12:17:43.978Z</time></trkpt><trkpt lat="45.7196494" lon="9.6426112"><ele>378.5</ele><time>2026-04-24T12:17:44.977Z</time></trkpt><trkpt lat="45.7197207" lon="9.6425969"><ele>377.0</ele><time>2026-04-24T12:17:45.977Z</time></trkpt><trkpt lat="45.719809" lon="9.6426014"><ele>375.5</ele><time>2026-04-24T12:17:46.977Z</time></trkpt><trkpt lat="45.7198999" lon="9.6426147"><ele>374.0</ele><time>2026-04-24T12:17:47.977Z</time></trkpt><trkpt lat="45.7199935" lon="9.6426479"><ele>372.5</ele><time>2026-04-24T12:17:48.977Z</time></trkpt><trkpt lat="45.7200738" lon="9.6426815"><ele>371.0</ele><time>2026-04-24T12:17:49.978Z</time></trkpt><trkpt lat="45.7201508" lon="9.6427183"><ele>371.0</ele><time>2026-04-24T12:17:50.977Z</time></trkpt><trkpt lat="45.7202211" lon="9.6427387"><ele>371.0</ele><time>2026-04-24T12:17:51.978Z</time></trkpt><trkpt lat="45.7203038" lon="9.6427617"><ele>371.0</ele><time>2026-04-24T12:17:52.977Z</time></trkpt><trkpt lat="45.7203751" lon="9.6427625"><ele>371.0</ele><time>2026-04-24T12:17:53.977Z</time></trkpt><trkpt lat="45.7204423" lon="9.6427537"><ele>371.0</ele><time>2026-04-24T12:17:54.977Z</time></trkpt><trkpt lat="45.7205156" lon="9.6427795"><ele>371.0</ele><time>2026-04-24T12:17:55.978Z</time></trkpt><trkpt lat="45.7206045" lon="9.6427904"><ele>369.1666666666667</ele><time>2026-04-24T12:17:56.978Z</time></trkpt><trkpt lat="45.720688" lon="9.6428123"><ele>367.33333333333337</ele><time>2026-04-24T12:17:57.977Z</time></trkpt><trkpt lat="45.7207579" lon="9.6428545"><ele>365.5</ele><time>2026-04-24T12:17:58.977Z</time></trkpt><trkpt lat="45.7208694" lon="9.6428964"><ele>363.6666666666667</ele><time>2026-04-24T12:18:00.978Z</time></trkpt><trkpt lat="45.7209253" lon="9.6428545"><ele>361.8333333333333</ele><time>2026-04-24T12:18:03.977Z</time></trkpt><trkpt lat="45.7209503" lon="9.6427383"><ele>360.0</ele><time>2026-04-24T12:18:06.977Z</time></trkpt><trkpt lat="45.7210284" lon="9.642695"><ele>356.8</ele><time>2026-04-24T12:18:08.977Z</time></trkpt><trkpt lat="45.7211335" lon="9.6426944"><ele>353.6</ele><time>2026-04-24T12:18:10.977Z</time></trkpt><trkpt lat="45.7212666" lon="9.6427235"><ele>350.4</ele><time>2026-04-24T12:18:12.977Z</time></trkpt><trkpt lat="45.7213393" lon="9.6427149"><ele>347.2</ele><time>2026-04-24T12:18:13.977Z</time></trkpt><trkpt lat="45.7214083" lon="9.6427083"><ele>344.0</ele><time>2026-04-24T12:18:14.978Z</time></trkpt><trkpt lat="45.7215294" lon="9.6426939"><ele>344.0</ele><time>2026-04-24T12:18:16.977Z</time></trkpt><trkpt lat="45.7215984" lon="9.6426943"><ele>344.0</ele><time>2026-04-24T12:18:17.977Z</time></trkpt><trkpt lat="45.7216778" lon="9.6427331"><ele>344.0</ele><time>2026-04-24T12:18:19.977Z</time></trkpt><trkpt lat="45.7217455" lon="9.6428142"><ele>344.0</ele><time>2026-04-24T12:18:21.978Z</time></trkpt><trkpt lat="45.7218116" lon="9.6429429"><ele>344.0</ele><time>2026-04-24T12:18:23.977Z</time></trkpt><trkpt lat="45.7219184" lon="9.6430773"><ele>343.1666666666667</ele><time>2026-04-24T12:18:25.978Z</time></trkpt><trkpt lat="45.7219658" lon="9.6431521"><ele>342.33333333333337</ele><time>2026-04-24T12:18:26.978Z</time></trkpt><trkpt lat="45.7220267" lon="9.6432512"><ele>341.5</ele><time>2026-04-24T12:18:27.977Z</time></trkpt><trkpt lat="45.7220972" lon="9.6433333"><ele>340.6666666666667</ele><time>2026-04-24T12:18:28.977Z</time></trkpt><trkpt lat="45.7221527" lon="9.6434104"><ele>339.8333333333333</ele><time>2026-04-24T12:18:29.977Z</time></trkpt><trkpt lat="45.7222052" lon="9.6434989"><ele>339.0</ele><time>2026-04-24T12:18:30.977Z</time></trkpt><trkpt lat="45.7222661" lon="9.6435971"><ele>339.1666666666667</ele><time>2026-04-24T12:18:31.977Z</time></trkpt><trkpt lat="45.7223219" lon="9.6436815"><ele>339.3333333333333</ele><time>2026-04-24T12:18:32.978Z</time></trkpt><trkpt lat="45.7223876" lon="9.6437833"><ele>339.5</ele><time>2026-04-24T12:18:33.977Z</time></trkpt><trkpt lat="45.722436" lon="9.6438636"><ele>339.66666666666663</ele><time>2026-04-24T12:18:34.977Z</time></trkpt><trkpt lat="45.7224899" lon="9.6439368"><ele>339.8333333333333</ele><time>2026-04-24T12:18:35.977Z</time></trkpt><trkpt lat="45.7225381" lon="9.6440044"><ele>340.0</ele><time>2026-04-24T12:18:36.977Z</time></trkpt><trkpt lat="45.7226021" lon="9.6440766"><ele>340.0</ele><time>2026-04-24T12:18:37.977Z</time></trkpt><trkpt lat="45.7226579" lon="9.6441396"><ele>340.0</ele><time>2026-04-24T12:18:38.977Z</time></trkpt><trkpt lat="45.7227372" lon="9.6442031"><ele>340.0</ele><time>2026-04-24T12:18:40.977Z</time></trkpt><trkpt lat="45.7227716" lon="9.64428"><ele>340.0</ele><time>2026-04-24T12:18:41.978Z</time></trkpt><trkpt lat="45.7228367" lon="9.6443975"><ele>340.0</ele><time>2026-04-24T12:18:43.977Z</time></trkpt><trkpt lat="45.7229193" lon="9.6445114"><ele>340.0</ele><time>2026-04-24T12:18:45.977Z</time></trkpt><trkpt lat="45.7230964" lon="9.6445179"><ele>339.8333333333333</ele><time>2026-04-24T12:18:50.977Z</time></trkpt><trkpt lat="45.7231649" lon="9.6445061"><ele>339.66666666666663</ele><time>2026-04-24T12:18:52.977Z</time></trkpt><trkpt lat="45.723263" lon="9.6444734"><ele>339.5</ele><time>2026-04-24T12:18:55.977Z</time></trkpt><trkpt lat="45.7233558" lon="9.644464"><ele>339.3333333333333</ele><time>2026-04-24T12:18:57.977Z</time></trkpt><trkpt lat="45.723431" lon="9.6444506"><ele>339.1666666666667</ele><time>2026-04-24T12:18:59.977Z</time></trkpt><trkpt lat="45.7235029" lon="9.6445001"><ele>339.0</ele><time>2026-04-24T12:19:01.977Z</time></trkpt><trkpt lat="45.7235701" lon="9.6445665"><ele>339.0</ele><time>2026-04-24T12:19:03.977Z</time></trkpt><trkpt lat="45.7236293" lon="9.6446558"><ele>339.0</ele><time>2026-04-24T12:19:05.977Z</time></trkpt><trkpt lat="45.723716" lon="9.6446957"><ele>339.0</ele><time>2026-04-24T12:19:08.978Z</time></trkpt><trkpt lat="45.7238147" lon="9.6447503"><ele>339.0</ele><time>2026-04-24T12:19:10.977Z</time></trkpt><trkpt lat="45.7238614" lon="9.644852"><ele>339.0</ele><time>2026-04-24T12:19:12.978Z</time></trkpt><trkpt lat="45.7239254" lon="9.6448709"><ele>339.0</ele><time>2026-04-24T12:19:15.977Z</time></trkpt><trkpt lat="45.7239899" lon="9.6448134"><ele>339.0</ele><time>2026-04-24T12:19:18.978Z</time></trkpt><trkpt lat="45.7240334" lon="9.6449626"><ele>339.0</ele><time>2026-04-24T12:19:21.977Z</time></trkpt><trkpt lat="45.7241036" lon="9.6450481"><ele>339.0</ele><time>2026-04-24T12:19:23.977Z</time></trkpt><trkpt lat="45.7241659" lon="9.6450912"><ele>339.0</ele><time>2026-04-24T12:19:25.977Z</time></trkpt><trkpt lat="45.7242596" lon="9.6452273"><ele>339.0</ele><time>2026-04-24T12:19:27.977Z</time></trkpt><trkpt lat="45.7243032" lon="9.6452958"><ele>338.5</ele><time>2026-04-24T12:19:28.977Z</time></trkpt><trkpt lat="45.7243507" lon="9.6453614"><ele>338.0</ele><time>2026-04-24T12:19:29.977Z</time></trkpt><trkpt lat="45.724407" lon="9.6454584"><ele>337.5</ele><time>2026-04-24T12:19:30.977Z</time></trkpt><trkpt lat="45.7244699" lon="9.6455346"><ele>337.0</ele><time>2026-04-24T12:19:31.977Z</time></trkpt><trkpt lat="45.7245475" lon="9.6456521"><ele>336.5</ele><time>2026-04-24T12:19:33.978Z</time></trkpt><trkpt lat="45.724605" lon="9.6456984"><ele>336.0</ele><time>2026-04-24T12:19:35.978Z</time></trkpt><trkpt lat="45.7248004" lon="9.6456685"><ele>336.0</ele><time>2026-04-24T12:19:39.978Z</time></trkpt><trkpt lat="45.7248868" lon="9.6456389"><ele>336.0</ele><time>2026-04-24T12:19:41.977Z</time></trkpt><trkpt lat="45.7249585" lon="9.645611"><ele>336.0</ele><time>2026-04-24T12:19:42.977Z</time></trkpt><trkpt lat="45.7250682" lon="9.6455914"><ele>336.0</ele><time>2026-04-24T12:19:44.977Z</time></trkpt><trkpt lat="45.7252058" lon="9.6456256"><ele>336.0</ele><time>2026-04-24T12:19:46.977Z</time></trkpt><trkpt lat="45.7253085" lon="9.6457329"><ele>334.0</ele><time>2026-04-24T12:19:48.978Z</time></trkpt><trkpt lat="45.7253475" lon="9.6458087"><ele>332.0</ele><time>2026-04-24T12:19:49.977Z</time></trkpt><trkpt lat="45.7254413" lon="9.6459231"><ele>330.0</ele><time>2026-04-24T12:19:51.977Z</time></trkpt><trkpt lat="45.7255239" lon="9.6460175"><ele>328.0</ele><time>2026-04-24T12:19:53.977Z</time></trkpt><trkpt lat="45.7256187" lon="9.6460983"><ele>326.0</ele><time>2026-04-24T12:19:55.977Z</time></trkpt><trkpt lat="45.7256741" lon="9.6460362"><ele>326.0</ele><time>2026-04-24T12:19:58.978Z</time></trkpt><trkpt lat="45.7257" lon="9.6459506"><ele>326.0</ele><time>2026-04-24T12:20:05.978Z</time></trkpt><trkpt lat="45.7257162" lon="9.6458624"><ele>326.0</ele><time>2026-04-24T12:20:09.977Z</time></trkpt><trkpt lat="45.7257175" lon="9.6457288"><ele>326.0</ele><time>2026-04-24T12:20:13.977Z</time></trkpt><trkpt lat="45.7257468" lon="9.6456163"><ele>326.0</ele><time>2026-04-24T12:20:15.977Z</time></trkpt><trkpt lat="45.7257707" lon="9.6454901"><ele>326.0</ele><time>2026-04-24T12:20:16.977Z</time></trkpt><trkpt lat="45.7258119" lon="9.6453091"><ele>324.0</ele><time>2026-04-24T12:20:18.977Z</time></trkpt><trkpt lat="45.7258257" lon="9.6451794"><ele>322.0</ele><time>2026-04-24T12:20:20.977Z</time></trkpt><trkpt lat="45.7258296" lon="9.6450411"><ele>320.0</ele><time>2026-04-24T12:20:21.978Z</time></trkpt><trkpt lat="45.7258139" lon="9.6448155"><ele>318.0</ele><time>2026-04-24T12:20:23.977Z</time></trkpt><trkpt lat="45.7258104" lon="9.6447029"><ele>316.0</ele><time>2026-04-24T12:20:24.977Z</time></trkpt><trkpt lat="45.7258146" lon="9.6446096"><ele>316.0</ele><time>2026-04-24T12:20:25.977Z</time></trkpt><trkpt lat="45.7258212" lon="9.6444734"><ele>316.0</ele><time>2026-04-24T12:20:27.977Z</time></trkpt><trkpt lat="45.7257892" lon="9.6443411"><ele>316.0</ele><time>2026-04-24T12:20:29.977Z</time></trkpt><trkpt lat="45.725775" lon="9.6442532"><ele>316.0</ele><time>2026-04-24T12:20:30.977Z</time></trkpt><trkpt lat="45.7257471" lon="9.6440791"><ele>316.0</ele><time>2026-04-24T12:20:32.978Z</time></trkpt><trkpt lat="45.7257613" lon="9.6439571"><ele>315.0</ele><time>2026-04-24T12:20:34.977Z</time></trkpt><trkpt lat="45.7257805" lon="9.6438656"><ele>314.0</ele><time>2026-04-24T12:20:36.977Z</time></trkpt><trkpt lat="45.7257926" lon="9.6437679"><ele>313.0</ele><time>2026-04-24T12:20:38.977Z</time></trkpt><trkpt lat="45.7258148" lon="9.6436531"><ele>312.0</ele><time>2026-04-24T12:20:40.978Z</time></trkpt><trkpt lat="45.7258274" lon="9.6435181"><ele>311.0</ele><time>2026-04-24T12:20:42.977Z</time></trkpt><trkpt lat="45.7258585" lon="9.6434019"><ele>310.0</ele><time>2026-04-24T12:20:43.978Z</time></trkpt><trkpt lat="45.725941" lon="9.6432649"><ele>309.0</ele><time>2026-04-24T12:20:45.977Z</time></trkpt><trkpt lat="45.7260167" lon="9.6432173"><ele>308.0</ele><time>2026-04-24T12:20:46.977Z</time></trkpt><trkpt lat="45.7261116" lon="9.6431793"><ele>307.0</ele><time>2026-04-24T12:20:47.977Z</time></trkpt><trkpt lat="45.7262065" lon="9.6431181"><ele>306.0</ele><time>2026-04-24T12:20:49.977Z</time></trkpt><trkpt lat="45.7262317" lon="9.6430149"><ele>305.0</ele><time>2026-04-24T12:20:50.977Z</time></trkpt><trkpt lat="45.7262532" lon="9.6429182"><ele>304.0</ele><time>2026-04-24T12:20:51.977Z</time></trkpt><trkpt lat="45.7263099" lon="9.6427826"><ele>301.59999999999997</ele><time>2026-04-24T12:20:53.977Z</time></trkpt><trkpt lat="45.7263251" lon="9.642689"><ele>299.2</ele><time>2026-04-24T12:20:54.977Z</time></trkpt><trkpt lat="45.7263155" lon="9.6425539"><ele>296.79999999999995</ele><time>2026-04-24T12:20:56.977Z</time></trkpt><trkpt lat="45.7263025" lon="9.6423875"><ele>294.4</ele><time>2026-04-24T12:20:58.977Z</time></trkpt><trkpt lat="45.7262992" lon="9.6422225"><ele>292.0</ele><time>2026-04-24T12:21:00.978Z</time></trkpt><trkpt lat="45.7262867" lon="9.6421275"><ele>292.0</ele><time>2026-04-24T12:21:01.977Z</time></trkpt><trkpt lat="45.7262659" lon="9.6419793"><ele>292.0</ele><time>2026-04-24T12:21:03.978Z</time></trkpt><trkpt lat="45.7262439" lon="9.6418231"><ele>292.0</ele><time>2026-04-24T12:21:05.978Z</time></trkpt><trkpt lat="45.726231" lon="9.6417317"><ele>292.0</ele><time>2026-04-24T12:21:06.978Z</time></trkpt><trkpt lat="45.7262308" lon="9.6415607"><ele>292.0</ele><time>2026-04-24T12:21:08.978Z</time></trkpt><trkpt lat="45.726197" lon="9.6414395"><ele>292.2</ele><time>2026-04-24T12:21:10.978Z</time></trkpt><trkpt lat="45.7261647" lon="9.6412969"><ele>292.4</ele><time>2026-04-24T12:21:12.977Z</time></trkpt><trkpt lat="45.7261234" lon="9.641171"><ele>292.6</ele><time>2026-04-24T12:21:14.977Z</time></trkpt><trkpt lat="45.7260642" lon="9.641049"><ele>292.8</ele><time>2026-04-24T12:21:16.977Z</time></trkpt><trkpt lat="45.7259851" lon="9.6409785"><ele>293.0</ele><time>2026-04-24T12:21:18.978Z</time></trkpt><trkpt lat="45.7259109" lon="9.6409649"><ele>293.8</ele><time>2026-04-24T12:21:19.977Z</time></trkpt><trkpt lat="45.7258554" lon="9.6409173"><ele>294.6</ele><time>2026-04-24T12:21:20.978Z</time></trkpt><trkpt lat="45.7257494" lon="9.6408263"><ele>295.4</ele><time>2026-04-24T12:21:22.978Z</time></trkpt><trkpt lat="45.7256917" lon="9.6406799"><ele>296.2</ele><time>2026-04-24T12:21:24.977Z</time></trkpt><trkpt lat="45.7256294" lon="9.6405687"><ele>297.0</ele><time>2026-04-24T12:21:26.977Z</time></trkpt><trkpt lat="45.7255711" lon="9.6404226"><ele>297.0</ele><time>2026-04-24T12:21:28.977Z</time></trkpt><trkpt lat="45.7255119" lon="9.6403107"><ele>297.0</ele><time>2026-04-24T12:21:30.977Z</time></trkpt><trkpt lat="45.7254734" lon="9.6402105"><ele>297.0</ele><time>2026-04-24T12:21:32.977Z</time></trkpt><trkpt lat="45.7254136" lon="9.6401177"><ele>297.0</ele><time>2026-04-24T12:21:34.978Z</time></trkpt><trkpt lat="45.725381" lon="9.6400301"><ele>297.0</ele><time>2026-04-24T12:21:35.977Z</time></trkpt><trkpt lat="45.7253256" lon="9.6398844"><ele>297.0</ele><time>2026-04-24T12:21:37.977Z</time></trkpt><trkpt lat="45.7252815" lon="9.6397574"><ele>297.0</ele><time>2026-04-24T12:21:39.977Z</time></trkpt><trkpt lat="45.7252159" lon="9.6396209"><ele>297.0</ele><time>2026-04-24T12:21:41.977Z</time></trkpt><trkpt lat="45.7251365" lon="9.6395106"><ele>297.0</ele><time>2026-04-24T12:21:43.977Z</time></trkpt><trkpt lat="45.7250893" lon="9.6394043"><ele>297.0</ele><time>2026-04-24T12:21:45.978Z</time></trkpt><trkpt lat="45.7250138" lon="9.6393489"><ele>296.2</ele><time>2026-04-24T12:21:47.977Z</time></trkpt><trkpt lat="45.7249682" lon="9.63928"><ele>295.4</ele><time>2026-04-24T12:21:48.977Z</time></trkpt><trkpt lat="45.7249316" lon="9.6391939"><ele>294.6</ele><time>2026-04-24T12:21:49.978Z</time></trkpt><trkpt lat="45.7248499" lon="9.6391028"><ele>293.8</ele><time>2026-04-24T12:21:51.977Z</time></trkpt><trkpt lat="45.7247346" lon="9.6390341"><ele>293.0</ele><time>2026-04-24T12:21:53.977Z</time></trkpt><trkpt lat="45.7246646" lon="9.6389444"><ele>293.0</ele><time>2026-04-24T12:21:55.977Z</time></trkpt><trkpt lat="45.7245808" lon="9.6389079"><ele>293.0</ele><time>2026-04-24T12:21:57.978Z</time></trkpt><trkpt lat="45.7244836" lon="9.6388421"><ele>293.0</ele><time>2026-04-24T12:21:59.977Z</time></trkpt><trkpt lat="45.7244078" lon="9.6387911"><ele>293.0</ele><time>2026-04-24T12:22:01.977Z</time></trkpt><trkpt lat="45.7243598" lon="9.6387239"><ele>293.0</ele><time>2026-04-24T12:22:03.977Z</time></trkpt><trkpt lat="45.7243108" lon="9.6386377"><ele>293.0</ele><time>2026-04-24T12:22:05.977Z</time></trkpt><trkpt lat="45.7243026" lon="9.6385339"><ele>293.0</ele><time>2026-04-24T12:22:07.978Z</time></trkpt><trkpt lat="45.7243416" lon="9.6384227"><ele>293.0</ele><time>2026-04-24T12:22:09.977Z</time></trkpt><trkpt lat="45.724388" lon="9.6382541"><ele>293.0</ele><time>2026-04-24T12:22:11.978Z</time></trkpt><trkpt lat="45.7244448" lon="9.6380753"><ele>293.0</ele><time>2026-04-24T12:22:13.977Z</time></trkpt><trkpt lat="45.7244974" lon="9.6378934"><ele>293.0</ele><time>2026-04-24T12:22:15.977Z</time></trkpt><trkpt lat="45.7244939" lon="9.6377143"><ele>293.0</ele><time>2026-04-24T12:22:17.978Z</time></trkpt><trkpt lat="45.724488" lon="9.6376232"><ele>293.0</ele><time>2026-04-24T12:22:18.977Z</time></trkpt><trkpt lat="45.7244594" lon="9.6374529"><ele>293.0</ele><time>2026-04-24T12:22:20.977Z</time></trkpt><trkpt lat="45.7244364" lon="9.6372764"><ele>293.0</ele><time>2026-04-24T12:22:22.977Z</time></trkpt><trkpt lat="45.7244318" lon="9.6371744"><ele>293.0</ele><time>2026-04-24T12:22:23.978Z</time></trkpt><trkpt lat="45.7244318" lon="9.6370824"><ele>293.0</ele><time>2026-04-24T12:22:24.978Z</time></trkpt><trkpt lat="45.724444" lon="9.6369899"><ele>293.0</ele><time>2026-04-24T12:22:25.977Z</time></trkpt><trkpt lat="45.7244303" lon="9.6368661"><ele>293.0</ele><time>2026-04-24T12:22:27.978Z</time></trkpt><trkpt lat="45.7244162" lon="9.6367585"><ele>293.0</ele><time>2026-04-24T12:22:29.977Z</time></trkpt><trkpt lat="45.7244156" lon="9.6365715"><ele>293.0</ele><time>2026-04-24T12:22:31.977Z</time></trkpt><trkpt lat="45.7244467" lon="9.6364259"><ele>293.0</ele><time>2026-04-24T12:22:33.978Z</time></trkpt><trkpt lat="45.7244689" lon="9.6362723"><ele>293.0</ele><time>2026-04-24T12:22:35.977Z</time></trkpt><trkpt lat="45.7244835" lon="9.6361108"><ele>293.0</ele><time>2026-04-24T12:22:37.977Z</time></trkpt><trkpt lat="45.724512" lon="9.6359289"><ele>293.0</ele><time>2026-04-24T12:22:39.977Z</time></trkpt><trkpt lat="45.7245229" lon="9.6358355"><ele>293.0</ele><time>2026-04-24T12:22:40.977Z</time></trkpt><trkpt lat="45.7245498" lon="9.6356762"><ele>293.0</ele><time>2026-04-24T12:22:42.978Z</time></trkpt><trkpt lat="45.724586" lon="9.6355735"><ele>293.0</ele><time>2026-04-24T12:22:43.978Z</time></trkpt><trkpt lat="45.724614" lon="9.6354897"><ele>293.0</ele><time>2026-04-24T12:22:44.977Z</time></trkpt><trkpt lat="45.7246585" lon="9.6354081"><ele>293.0</ele><time>2026-04-24T12:22:45.977Z</time></trkpt><trkpt lat="45.7246846" lon="9.6352939"><ele>293.0</ele><time>2026-04-24T12:22:46.977Z</time></trkpt><trkpt lat="45.7247505" lon="9.6351645"><ele>293.0</ele><time>2026-04-24T12:22:48.978Z</time></trkpt><trkpt lat="45.7248535" lon="9.6350133"><ele>293.5</ele><time>2026-04-24T12:22:50.978Z</time></trkpt><trkpt lat="45.7248979" lon="9.6349407"><ele>294.0</ele><time>2026-04-24T12:22:51.977Z</time></trkpt><trkpt lat="45.7249633" lon="9.6348536"><ele>294.5</ele><time>2026-04-24T12:22:52.977Z</time></trkpt><trkpt lat="45.725006" lon="9.6347746"><ele>295.0</ele><time>2026-04-24T12:22:53.977Z</time></trkpt><trkpt lat="45.7250537" lon="9.634704"><ele>295.5</ele><time>2026-04-24T12:22:54.977Z</time></trkpt><trkpt lat="45.7251047" lon="9.634604"><ele>296.0</ele><time>2026-04-24T12:22:55.977Z</time></trkpt><trkpt lat="45.7251451" lon="9.6345233"><ele>296.8571428571429</ele><time>2026-04-24T12:22:56.978Z</time></trkpt><trkpt lat="45.725194" lon="9.6344287"><ele>297.7142857142857</ele><time>2026-04-24T12:22:57.977Z</time></trkpt><trkpt lat="45.7252368" lon="9.6343532"><ele>298.57142857142856</ele><time>2026-04-24T12:22:58.977Z</time></trkpt><trkpt lat="45.7252758" lon="9.6342649"><ele>299.42857142857144</ele><time>2026-04-24T12:22:59.977Z</time></trkpt><trkpt lat="45.7253226" lon="9.6341747"><ele>300.2857142857143</ele><time>2026-04-24T12:23:00.977Z</time></trkpt><trkpt lat="45.7253716" lon="9.6340997"><ele>301.14285714285717</ele><time>2026-04-24T12:23:01.977Z</time></trkpt><trkpt lat="45.7253917" lon="9.6340088"><ele>302.0</ele><time>2026-04-24T12:23:02.977Z</time></trkpt><trkpt lat="45.7254409" lon="9.6338677"><ele>300.8571428571429</ele><time>2026-04-24T12:23:04.977Z</time></trkpt><trkpt lat="45.7254624" lon="9.633757"><ele>299.7142857142857</ele><time>2026-04-24T12:23:05.977Z</time></trkpt><trkpt lat="45.7254909" lon="9.6336528"><ele>298.57142857142856</ele><time>2026-04-24T12:23:06.977Z</time></trkpt><trkpt lat="45.7255075" lon="9.6335474"><ele>297.42857142857144</ele><time>2026-04-24T12:23:07.977Z</time></trkpt><trkpt lat="45.7255397" lon="9.6334626"><ele>296.2857142857143</ele><time>2026-04-24T12:23:08.978Z</time></trkpt><trkpt lat="45.7255965" lon="9.6333867"><ele>295.14285714285717</ele><time>2026-04-24T12:23:09.977Z</time></trkpt><trkpt lat="45.7256361" lon="9.6333115"><ele>294.0</ele><time>2026-04-24T12:23:10.977Z</time></trkpt><trkpt lat="45.7256808" lon="9.6332349"><ele>294.0</ele><time>2026-04-24T12:23:11.977Z</time></trkpt><trkpt lat="45.725734" lon="9.6330497"><ele>294.0</ele><time>2026-04-24T12:23:13.977Z</time></trkpt><trkpt lat="45.7257668" lon="9.6329688"><ele>294.0</ele><time>2026-04-24T12:23:14.977Z</time></trkpt><trkpt lat="45.7258045" lon="9.6328636"><ele>294.0</ele><time>2026-04-24T12:23:15.977Z</time></trkpt><trkpt lat="45.7258672" lon="9.63275"><ele>294.0</ele><time>2026-04-24T12:23:17.977Z</time></trkpt><trkpt lat="45.7259732" lon="9.6327027"><ele>294.42857142857144</ele><time>2026-04-24T12:23:19.977Z</time></trkpt><trkpt lat="45.7260088" lon="9.6326278"><ele>294.8571428571429</ele><time>2026-04-24T12:23:20.977Z</time></trkpt><trkpt lat="45.7260567" lon="9.632523"><ele>295.2857142857143</ele><time>2026-04-24T12:23:21.977Z</time></trkpt><trkpt lat="45.7260821" lon="9.6324313"><ele>295.7142857142857</ele><time>2026-04-24T12:23:22.978Z</time></trkpt><trkpt lat="45.7261083" lon="9.632349"><ele>296.14285714285717</ele><time>2026-04-24T12:23:23.977Z</time></trkpt><trkpt lat="45.7261379" lon="9.6322585"><ele>296.57142857142856</ele><time>2026-04-24T12:23:24.977Z</time></trkpt><trkpt lat="45.7261688" lon="9.6321696"><ele>297.0</ele><time>2026-04-24T12:23:25.977Z</time></trkpt><trkpt lat="45.7262322" lon="9.632026"><ele>297.0</ele><time>2026-04-24T12:23:27.977Z</time></trkpt><trkpt lat="45.7262679" lon="9.6319228"><ele>297.0</ele><time>2026-04-24T12:23:28.978Z</time></trkpt><trkpt lat="45.7262773" lon="9.6318235"><ele>297.0</ele><time>2026-04-24T12:23:29.978Z</time></trkpt><trkpt lat="45.7263008" lon="9.6317235"><ele>297.0</ele><time>2026-04-24T12:23:30.977Z</time></trkpt><trkpt lat="45.7263229" lon="9.6316087"><ele>297.0</ele><time>2026-04-24T12:23:31.977Z</time></trkpt><trkpt lat="45.726332" lon="9.6315172"><ele>297.0</ele><time>2026-04-24T12:23:32.977Z</time></trkpt><trkpt lat="45.7263335" lon="9.6314112"><ele>297.0</ele><time>2026-04-24T12:23:33.977Z</time></trkpt><trkpt lat="45.7263569" lon="9.6313218"><ele>297.5</ele><time>2026-04-24T12:23:34.977Z</time></trkpt><trkpt lat="45.7263838" lon="9.6311398"><ele>298.0</ele><time>2026-04-24T12:23:36.977Z</time></trkpt><trkpt lat="45.7264285" lon="9.6309813"><ele>298.5</ele><time>2026-04-24T12:23:38.977Z</time></trkpt><trkpt lat="45.7264356" lon="9.6308068"><ele>299.0</ele><time>2026-04-24T12:23:40.977Z</time></trkpt><trkpt lat="45.7264595" lon="9.6306518"><ele>299.0</ele><time>2026-04-24T12:23:42.977Z</time></trkpt><trkpt lat="45.7264977" lon="9.630497"><ele>299.0</ele><time>2026-04-24T12:23:44.977Z</time></trkpt><trkpt lat="45.7265545" lon="9.6303368"><ele>299.0</ele><time>2026-04-24T12:23:46.978Z</time></trkpt><trkpt lat="45.7266104" lon="9.6301643"><ele>299.0</ele><time>2026-04-24T12:23:48.977Z</time></trkpt><trkpt lat="45.7266624" lon="9.6299886"><ele>298.8</ele><time>2026-04-24T12:23:50.977Z</time></trkpt><trkpt lat="45.7266859" lon="9.6298827"><ele>298.59999999999997</ele><time>2026-04-24T12:23:51.978Z</time></trkpt><trkpt lat="45.7267197" lon="9.6297943"><ele>298.4</ele><time>2026-04-24T12:23:52.977Z</time></trkpt><trkpt lat="45.7267529" lon="9.6296134"><ele>298.2</ele><time>2026-04-24T12:23:54.978Z</time></trkpt><trkpt lat="45.7267994" lon="9.6294592"><ele>298.0</ele><time>2026-04-24T12:23:56.977Z</time></trkpt><trkpt lat="45.7268429" lon="9.6293797"><ele>296.4</ele><time>2026-04-24T12:23:57.978Z</time></trkpt><trkpt lat="45.7268994" lon="9.6293112"><ele>294.8</ele><time>2026-04-24T12:23:58.977Z</time></trkpt><trkpt lat="45.7269907" lon="9.6292131"><ele>293.2</ele><time>2026-04-24T12:24:00.977Z</time></trkpt><trkpt lat="45.7270856" lon="9.6291037"><ele>291.6</ele><time>2026-04-24T12:24:02.977Z</time></trkpt><trkpt lat="45.7271607" lon="9.6289628"><ele>290.0</ele><time>2026-04-24T12:24:04.978Z</time></trkpt><trkpt lat="45.7271999" lon="9.6288764"><ele>290.0</ele><time>2026-04-24T12:24:05.978Z</time></trkpt><trkpt lat="45.7272501" lon="9.6287605"><ele>290.0</ele><time>2026-04-24T12:24:06.977Z</time></trkpt><trkpt lat="45.7272983" lon="9.6286804"><ele>290.0</ele><time>2026-04-24T12:24:07.977Z</time></trkpt><trkpt lat="45.7273942" lon="9.6284992"><ele>290.0</ele><time>2026-04-24T12:24:09.977Z</time></trkpt><trkpt lat="45.7274342" lon="9.6284095"><ele>290.0</ele><time>2026-04-24T12:24:10.977Z</time></trkpt><trkpt lat="45.7274751" lon="9.6283306"><ele>289.5</ele><time>2026-04-24T12:24:11.977Z</time></trkpt><trkpt lat="45.7275115" lon="9.6282322"><ele>289.0</ele><time>2026-04-24T12:24:12.977Z</time></trkpt><trkpt lat="45.727552" lon="9.6281598"><ele>288.5</ele><time>2026-04-24T12:24:13.977Z</time></trkpt><trkpt lat="45.7276047" lon="9.6280677"><ele>288.0</ele><time>2026-04-24T12:24:14.977Z</time></trkpt><trkpt lat="45.7276991" lon="9.627947"><ele>287.5</ele><time>2026-04-24T12:24:16.977Z</time></trkpt><trkpt lat="45.7277624" lon="9.6278778"><ele>287.0</ele><time>2026-04-24T12:24:17.978Z</time></trkpt><trkpt lat="45.7278176" lon="9.6278243"><ele>287.8</ele><time>2026-04-24T12:24:18.978Z</time></trkpt><trkpt lat="45.7278844" lon="9.6277804"><ele>288.6</ele><time>2026-04-24T12:24:19.978Z</time></trkpt><trkpt lat="45.7279339" lon="9.6277029"><ele>289.40000000000003</ele><time>2026-04-24T12:24:20.977Z</time></trkpt><trkpt lat="45.7280099" lon="9.627556"><ele>290.2</ele><time>2026-04-24T12:24:22.977Z</time></trkpt><trkpt lat="45.7280879" lon="9.6274"><ele>291.0</ele><time>2026-04-24T12:24:24.977Z</time></trkpt><trkpt lat="45.7282127" lon="9.6272951"><ele>291.0</ele><time>2026-04-24T12:24:26.977Z</time></trkpt><trkpt lat="45.7282656" lon="9.6272388"><ele>291.0</ele><time>2026-04-24T12:24:27.977Z</time></trkpt><trkpt lat="45.7283448" lon="9.6271494"><ele>291.0</ele><time>2026-04-24T12:24:29.977Z</time></trkpt><trkpt lat="45.7283397" lon="9.6270569"><ele>291.0</ele><time>2026-04-24T12:24:31.977Z</time></trkpt><trkpt lat="45.7283567" lon="9.6269368"><ele>291.0</ele><time>2026-04-24T12:24:33.978Z</time></trkpt><trkpt lat="45.7283569" lon="9.6268189"><ele>291.0</ele><time>2026-04-24T12:24:35.978Z</time></trkpt><trkpt lat="45.728382" lon="9.6267021"><ele>290.5</ele><time>2026-04-24T12:24:37.978Z</time></trkpt><trkpt lat="45.7284333" lon="9.6265476"><ele>290.0</ele><time>2026-04-24T12:24:39.978Z</time></trkpt><trkpt lat="45.7284737" lon="9.6264629"><ele>289.5</ele><time>2026-04-24T12:24:40.977Z</time></trkpt><trkpt lat="45.7284861" lon="9.6263719"><ele>289.0</ele><time>2026-04-24T12:24:41.977Z</time></trkpt><trkpt lat="45.7285647" lon="9.6263384"><ele>288.5</ele><time>2026-04-24T12:24:43.977Z</time></trkpt><trkpt lat="45.7286485" lon="9.6262915"><ele>288.0</ele><time>2026-04-24T12:24:45.977Z</time></trkpt><trkpt lat="45.7286885" lon="9.6261684"><ele>288.4</ele><time>2026-04-24T12:24:47.977Z</time></trkpt><trkpt lat="45.7287129" lon="9.6260707"><ele>288.8</ele><time>2026-04-24T12:24:48.977Z</time></trkpt><trkpt lat="45.7287485" lon="9.6259023"><ele>289.2</ele><time>2026-04-24T12:24:50.977Z</time></trkpt><trkpt lat="45.7287881" lon="9.6257601"><ele>289.6</ele><time>2026-04-24T12:24:52.977Z</time></trkpt><trkpt lat="45.7288002" lon="9.6256225"><ele>290.0</ele><time>2026-04-24T12:24:54.978Z</time></trkpt><trkpt lat="45.7288079" lon="9.6254984"><ele>290.0</ele><time>2026-04-24T12:24:56.977Z</time></trkpt><trkpt lat="45.7287654" lon="9.6253795"><ele>290.0</ele><time>2026-04-24T12:24:58.978Z</time></trkpt><trkpt lat="45.728763" lon="9.6251944"><ele>290.0</ele><time>2026-04-24T12:25:00.977Z</time></trkpt><trkpt lat="45.7287066" lon="9.6250402"><ele>290.0</ele><time>2026-04-24T12:25:02.977Z</time></trkpt><trkpt lat="45.7286912" lon="9.6248457"><ele>289.83333333333337</ele><time>2026-04-24T12:25:04.977Z</time></trkpt><trkpt lat="45.7286678" lon="9.6247542"><ele>289.6666666666667</ele><time>2026-04-24T12:25:05.978Z</time></trkpt><trkpt lat="45.7286303" lon="9.6246677"><ele>289.5</ele><time>2026-04-24T12:25:06.978Z</time></trkpt><trkpt lat="45.7286113" lon="9.6245762"><ele>289.3333333333333</ele><time>2026-04-24T12:25:07.977Z</time></trkpt><trkpt lat="45.7285949" lon="9.6244865"><ele>289.16666666666663</ele><time>2026-04-24T12:25:08.977Z</time></trkpt><trkpt lat="45.7285523" lon="9.6243597"><ele>289.0</ele><time>2026-04-24T12:25:10.977Z</time></trkpt><trkpt lat="45.7285154" lon="9.6242013"><ele>289.66666666666663</ele><time>2026-04-24T12:25:12.977Z</time></trkpt><trkpt lat="45.7284891" lon="9.624047"><ele>290.3333333333333</ele><time>2026-04-24T12:25:14.977Z</time></trkpt><trkpt lat="45.7284876" lon="9.6239377"><ele>291.0</ele><time>2026-04-24T12:25:15.977Z</time></trkpt><trkpt lat="45.7284869" lon="9.623833"><ele>291.6666666666667</ele><time>2026-04-24T12:25:16.977Z</time></trkpt><trkpt lat="45.7284733" lon="9.6237376"><ele>292.33333333333337</ele><time>2026-04-24T12:25:17.977Z</time></trkpt><trkpt lat="45.7284704" lon="9.6236131"><ele>293.0</ele><time>2026-04-24T12:25:18.978Z</time></trkpt><trkpt lat="45.7284854" lon="9.6234997"><ele>293.6666666666667</ele><time>2026-04-24T12:25:19.977Z</time></trkpt><trkpt lat="45.7284852" lon="9.6233978"><ele>294.33333333333337</ele><time>2026-04-24T12:25:20.977Z</time></trkpt><trkpt lat="45.7285099" lon="9.6232917"><ele>295.0</ele><time>2026-04-24T12:25:21.977Z</time></trkpt><trkpt lat="45.7285262" lon="9.6231811"><ele>295.6666666666667</ele><time>2026-04-24T12:25:22.977Z</time></trkpt><trkpt lat="45.7285123" lon="9.6230583"><ele>296.3333333333333</ele><time>2026-04-24T12:25:23.977Z</time></trkpt><trkpt lat="45.7285062" lon="9.6229554"><ele>297.0</ele><time>2026-04-24T12:25:24.977Z</time></trkpt><trkpt lat="45.7285004" lon="9.6228284"><ele>296.5</ele><time>2026-04-24T12:25:25.977Z</time></trkpt><trkpt lat="45.7284714" lon="9.6227365"><ele>296.0</ele><time>2026-04-24T12:25:26.977Z</time></trkpt><trkpt lat="45.7284395" lon="9.6226471"><ele>295.5</ele><time>2026-04-24T12:25:27.977Z</time></trkpt><trkpt lat="45.7284044" lon="9.6224882"><ele>295.0</ele><time>2026-04-24T12:25:29.978Z</time></trkpt><trkpt lat="45.7283621" lon="9.6223788"><ele>294.5</ele><time>2026-04-24T12:25:31.977Z</time></trkpt><trkpt lat="45.7283193" lon="9.6222457"><ele>294.0</ele><time>2026-04-24T12:25:34.977Z</time></trkpt><trkpt lat="45.7282643" lon="9.6221601"><ele>294.0</ele><time>2026-04-24T12:25:36.977Z</time></trkpt><trkpt lat="45.7282334" lon="9.6220706"><ele>294.0</ele><time>2026-04-24T12:25:38.977Z</time></trkpt><trkpt lat="45.7281947" lon="9.6219556"><ele>294.0</ele><time>2026-04-24T12:25:41.977Z</time></trkpt><trkpt lat="45.7281614" lon="9.6218604"><ele>294.0</ele><time>2026-04-24T12:25:43.977Z</time></trkpt><trkpt lat="45.7281198" lon="9.6217907"><ele>294.0</ele><time>2026-04-24T12:25:45.977Z</time></trkpt><trkpt lat="45.7280517" lon="9.6217191"><ele>294.0</ele><time>2026-04-24T12:25:48.978Z</time></trkpt><trkpt lat="45.7280055" lon="9.6216369"><ele>294.2857142857143</ele><time>2026-04-24T12:25:51.977Z</time></trkpt><trkpt lat="45.7279553" lon="9.6215602"><ele>294.57142857142856</ele><time>2026-04-24T12:25:55.977Z</time></trkpt><trkpt lat="45.7279173" lon="9.6214861"><ele>294.8571428571429</ele><time>2026-04-24T12:25:58.977Z</time></trkpt><trkpt lat="45.7278739" lon="9.6214065"><ele>295.1428571428571</ele><time>2026-04-24T12:26:01.978Z</time></trkpt><trkpt lat="45.72781" lon="9.6213366"><ele>295.42857142857144</ele><time>2026-04-24T12:26:05.978Z</time></trkpt><trkpt lat="45.7277401" lon="9.6212914"><ele>295.7142857142857</ele><time>2026-04-24T12:26:09.978Z</time></trkpt><trkpt lat="45.7276956" lon="9.6212184"><ele>296.0</ele><time>2026-04-24T12:26:14.977Z</time></trkpt><trkpt lat="45.7276457" lon="9.6211576"><ele>300.6</ele><time>2026-04-24T12:26:18.977Z</time></trkpt><trkpt lat="45.7275865" lon="9.6210883"><ele>305.20000000000005</ele><time>2026-04-24T12:26:23.978Z</time></trkpt><trkpt lat="45.7275295" lon="9.6210154"><ele>309.79999999999995</ele><time>2026-04-24T12:26:27.978Z</time></trkpt><trkpt lat="45.727416" lon="9.6208576"><ele>314.4</ele><time>2026-04-24T12:26:30.977Z</time></trkpt><trkpt lat="45.7273861" lon="9.6207346"><ele>319.0</ele><time>2026-04-24T12:26:33.977Z</time></trkpt><trkpt lat="45.727369" lon="9.6206432"><ele>319.0</ele><time>2026-04-24T12:26:35.978Z</time></trkpt><trkpt lat="45.7273467" lon="9.6205392"><ele>319.0</ele><time>2026-04-24T12:26:37.977Z</time></trkpt><trkpt lat="45.7273268" lon="9.6204372"><ele>319.0</ele><time>2026-04-24T12:26:39.978Z</time></trkpt><trkpt lat="45.7273038" lon="9.6203179"><ele>319.0</ele><time>2026-04-24T12:26:41.977Z</time></trkpt><trkpt lat="45.7272633" lon="9.6202157"><ele>319.0</ele><time>2026-04-24T12:26:43.977Z</time></trkpt><trkpt lat="45.7271628" lon="9.6201062"><ele>319.0</ele><time>2026-04-24T12:26:45.977Z</time></trkpt><trkpt lat="45.7271018" lon="9.6200326"><ele>318.8333333333333</ele><time>2026-04-24T12:26:46.978Z</time></trkpt><trkpt lat="45.7270302" lon="9.6198607"><ele>318.66666666666663</ele><time>2026-04-24T12:26:47.977Z</time></trkpt><trkpt lat="45.726995" lon="9.6197851"><ele>318.5</ele><time>2026-04-24T12:26:48.978Z</time></trkpt><trkpt lat="45.726956" lon="9.619675"><ele>318.3333333333333</ele><time>2026-04-24T12:26:50.978Z</time></trkpt><trkpt lat="45.7268965" lon="9.6196093"><ele>318.1666666666667</ele><time>2026-04-24T12:26:53.977Z</time></trkpt><trkpt lat="45.7268175" lon="9.6195818"><ele>318.0</ele><time>2026-04-24T12:26:56.977Z</time></trkpt><trkpt lat="45.726752" lon="9.6195303"><ele>316.6</ele><time>2026-04-24T12:26:58.978Z</time></trkpt><trkpt lat="45.7266554" lon="9.6194693"><ele>315.20000000000005</ele><time>2026-04-24T12:27:00.977Z</time></trkpt><trkpt lat="45.7265868" lon="9.6194048"><ele>313.8</ele><time>2026-04-24T12:27:02.977Z</time></trkpt><trkpt lat="45.7265054" lon="9.6193259"><ele>312.40000000000003</ele><time>2026-04-24T12:27:04.977Z</time></trkpt><trkpt lat="45.7264232" lon="9.6192486"><ele>311.0</ele><time>2026-04-24T12:27:06.977Z</time></trkpt><trkpt lat="45.7263395" lon="9.6191796"><ele>311.0</ele><time>2026-04-24T12:27:08.977Z</time></trkpt><trkpt lat="45.7262287" lon="9.6191214"><ele>311.0</ele><time>2026-04-24T12:27:10.977Z</time></trkpt><trkpt lat="45.726129" lon="9.6190642"><ele>311.0</ele><time>2026-04-24T12:27:12.978Z</time></trkpt><trkpt lat="45.7260266" lon="9.6190149"><ele>311.0</ele><time>2026-04-24T12:27:14.977Z</time></trkpt><trkpt lat="45.7259229" lon="9.6189533"><ele>311.0</ele><time>2026-04-24T12:27:16.977Z</time></trkpt><trkpt lat="45.7258265" lon="9.6189463"><ele>309.2</ele><time>2026-04-24T12:27:18.977Z</time></trkpt><trkpt lat="45.7257439" lon="9.618954"><ele>307.40000000000003</ele><time>2026-04-24T12:27:20.977Z</time></trkpt><trkpt lat="45.7256868" lon="9.6189968"><ele>305.6</ele><time>2026-04-24T12:27:22.978Z</time></trkpt><trkpt lat="45.7255625" lon="9.6190528"><ele>303.8</ele><time>2026-04-24T12:27:24.977Z</time></trkpt><trkpt lat="45.7255063" lon="9.6191059"><ele>302.0</ele><time>2026-04-24T12:27:25.978Z</time></trkpt><trkpt lat="45.7254082" lon="9.6191782"><ele>302.0</ele><time>2026-04-24T12:27:26.978Z</time></trkpt><trkpt lat="45.7253114" lon="9.6192208"><ele>302.0</ele><time>2026-04-24T12:27:27.977Z</time></trkpt><trkpt lat="45.7252536" lon="9.6192799"><ele>302.0</ele><time>2026-04-24T12:27:28.977Z</time></trkpt><trkpt lat="45.725204" lon="9.6193734"><ele>302.0</ele><time>2026-04-24T12:27:29.978Z</time></trkpt><trkpt lat="45.7251619" lon="9.6194811"><ele>302.0</ele><time>2026-04-24T12:27:31.977Z</time></trkpt><trkpt lat="45.7251217" lon="9.6195766"><ele>302.0</ele><time>2026-04-24T12:27:33.977Z</time></trkpt><trkpt lat="45.7250616" lon="9.619636"><ele>302.0</ele><time>2026-04-24T12:27:35.977Z</time></trkpt><trkpt lat="45.7250357" lon="9.6197386"><ele>302.0</ele><time>2026-04-24T12:27:37.978Z</time></trkpt><trkpt lat="45.7250034" lon="9.6198615"><ele>302.0</ele><time>2026-04-24T12:27:39.977Z</time></trkpt><trkpt lat="45.7250128" lon="9.6200188"><ele>302.0</ele><time>2026-04-24T12:27:41.978Z</time></trkpt><trkpt lat="45.725008" lon="9.620139"><ele>302.0</ele><time>2026-04-24T12:27:43.978Z</time></trkpt><trkpt lat="45.724975" lon="9.6202486"><ele>302.0</ele><time>2026-04-24T12:27:45.977Z</time></trkpt><trkpt lat="45.7249173" lon="9.6203394"><ele>303.1666666666667</ele><time>2026-04-24T12:27:47.977Z</time></trkpt><trkpt lat="45.7248578" lon="9.620374"><ele>304.33333333333337</ele><time>2026-04-24T12:27:49.977Z</time></trkpt><trkpt lat="45.7247704" lon="9.6204103"><ele>305.5</ele><time>2026-04-24T12:27:52.977Z</time></trkpt><trkpt lat="45.724701" lon="9.6203987"><ele>306.6666666666667</ele><time>2026-04-24T12:27:54.977Z</time></trkpt><trkpt lat="45.7246004" lon="9.6204055"><ele>307.8333333333333</ele><time>2026-04-24T12:27:56.977Z</time></trkpt><trkpt lat="45.724503" lon="9.6203848"><ele>309.0</ele><time>2026-04-24T12:27:58.977Z</time></trkpt><trkpt lat="45.7244394" lon="9.6203705"><ele>307.8</ele><time>2026-04-24T12:28:00.977Z</time></trkpt><trkpt lat="45.7243562" lon="9.6203811"><ele>306.59999999999997</ele><time>2026-04-24T12:28:03.977Z</time></trkpt><trkpt lat="45.7242463" lon="9.6204017"><ele>305.4</ele><time>2026-04-24T12:28:05.977Z</time></trkpt><trkpt lat="45.7241674" lon="9.6204184"><ele>304.2</ele><time>2026-04-24T12:28:07.978Z</time></trkpt><trkpt lat="45.7240958" lon="9.6204262"><ele>303.0</ele><time>2026-04-24T12:28:09.978Z</time></trkpt><trkpt lat="45.7239693" lon="9.6204114"><ele>303.0</ele><time>2026-04-24T12:28:11.977Z</time></trkpt><trkpt lat="45.7237817" lon="9.6204389"><ele>303.0</ele><time>2026-04-24T12:28:12.978Z</time></trkpt><trkpt lat="45.7236646" lon="9.62041"><ele>303.0</ele><time>2026-04-24T12:28:14.977Z</time></trkpt><trkpt lat="45.7235539" lon="9.6203816"><ele>303.0</ele><time>2026-04-24T12:28:15.977Z</time></trkpt><trkpt lat="45.7234361" lon="9.6203335"><ele>299.2</ele><time>2026-04-24T12:28:17.977Z</time></trkpt><trkpt lat="45.7233228" lon="9.6201799"><ele>295.4</ele><time>2026-04-24T12:28:19.977Z</time></trkpt><trkpt lat="45.7232798" lon="9.6200643"><ele>291.59999999999997</ele><time>2026-04-24T12:28:20.977Z</time></trkpt><trkpt lat="45.723205" lon="9.6199497"><ele>287.8</ele><time>2026-04-24T12:28:22.977Z</time></trkpt><trkpt lat="45.7231721" lon="9.6198718"><ele>284.0</ele><time>2026-04-24T12:28:23.977Z</time></trkpt><trkpt lat="45.7230552" lon="9.6199187"><ele>284.0</ele><time>2026-04-24T12:28:28.977Z</time></trkpt><trkpt lat="45.7229711" lon="9.6200058"><ele>284.0</ele><time>2026-04-24T12:28:30.978Z</time></trkpt><trkpt lat="45.7229077" lon="9.6200348"><ele>284.0</ele><time>2026-04-24T12:28:31.977Z</time></trkpt><trkpt lat="45.7228021" lon="9.6201121"><ele>284.0</ele><time>2026-04-24T12:28:33.978Z</time></trkpt><trkpt lat="45.722725" lon="9.620171"><ele>284.0</ele><time>2026-04-24T12:28:35.977Z</time></trkpt><trkpt lat="45.7226489" lon="9.6202507"><ele>284.2</ele><time>2026-04-24T12:28:37.977Z</time></trkpt><trkpt lat="45.7225445" lon="9.6203276"><ele>284.4</ele><time>2026-04-24T12:28:39.978Z</time></trkpt><trkpt lat="45.7224504" lon="9.6204024"><ele>284.6</ele><time>2026-04-24T12:28:41.978Z</time></trkpt><trkpt lat="45.7223795" lon="9.6204802"><ele>284.8</ele><time>2026-04-24T12:28:43.977Z</time></trkpt><trkpt lat="45.7222918" lon="9.6206095"><ele>285.0</ele><time>2026-04-24T12:28:45.978Z</time></trkpt><trkpt lat="45.722232" lon="9.6206834"><ele>285.0</ele><time>2026-04-24T12:28:46.977Z</time></trkpt><trkpt lat="45.7221757" lon="9.6207465"><ele>285.0</ele><time>2026-04-24T12:28:47.978Z</time></trkpt><trkpt lat="45.7221196" lon="9.6208178"><ele>285.0</ele><time>2026-04-24T12:28:48.977Z</time></trkpt><trkpt lat="45.7220679" lon="9.620874"><ele>285.0</ele><time>2026-04-24T12:28:49.977Z</time></trkpt><trkpt lat="45.7220145" lon="9.6209284"><ele>285.0</ele><time>2026-04-24T12:28:50.977Z</time></trkpt><trkpt lat="45.7219254" lon="9.6210242"><ele>285.0</ele><time>2026-04-24T12:28:52.977Z</time></trkpt><trkpt lat="45.7218672" lon="9.6210604"><ele>284.4</ele><time>2026-04-24T12:28:53.977Z</time></trkpt><trkpt lat="45.7217653" lon="9.6211226"><ele>283.8</ele><time>2026-04-24T12:28:55.977Z</time></trkpt><trkpt lat="45.7216617" lon="9.6211811"><ele>283.2</ele><time>2026-04-24T12:28:57.977Z</time></trkpt><trkpt lat="45.7215534" lon="9.6212573"><ele>282.6</ele><time>2026-04-24T12:28:59.977Z</time></trkpt><trkpt lat="45.7214614" lon="9.6213192"><ele>282.0</ele><time>2026-04-24T12:29:02.978Z</time></trkpt><trkpt lat="45.7213838" lon="9.6213329"><ele>282.6</ele><time>2026-04-24T12:29:04.977Z</time></trkpt><trkpt lat="45.7213124" lon="9.6213601"><ele>283.2</ele><time>2026-04-24T12:29:05.977Z</time></trkpt><trkpt lat="45.7212087" lon="9.6214049"><ele>283.8</ele><time>2026-04-24T12:29:07.977Z</time></trkpt><trkpt lat="45.7211271" lon="9.621422"><ele>284.4</ele><time>2026-04-24T12:29:08.977Z</time></trkpt><trkpt lat="45.721043" lon="9.621462"><ele>285.0</ele><time>2026-04-24T12:29:09.978Z</time></trkpt><trkpt lat="45.72095" lon="9.6215307"><ele>285.0</ele><time>2026-04-24T12:29:11.978Z</time></trkpt><trkpt lat="45.7208628" lon="9.6215807"><ele>285.0</ele><time>2026-04-24T12:29:13.977Z</time></trkpt><trkpt lat="45.7207624" lon="9.6216446"><ele>285.0</ele><time>2026-04-24T12:29:15.977Z</time></trkpt><trkpt lat="45.7206964" lon="9.6216694"><ele>285.0</ele><time>2026-04-24T12:29:16.978Z</time></trkpt><trkpt lat="45.7206134" lon="9.6217311"><ele>285.0</ele><time>2026-04-24T12:29:18.977Z</time></trkpt><trkpt lat="45.7205158" lon="9.621769"><ele>285.0</ele><time>2026-04-24T12:29:19.978Z</time></trkpt><trkpt lat="45.7204557" lon="9.6218191"><ele>285.0</ele><time>2026-04-24T12:29:20.977Z</time></trkpt><trkpt lat="45.7203844" lon="9.6218479"><ele>285.0</ele><time>2026-04-24T12:29:21.978Z</time></trkpt><trkpt lat="45.7202521" lon="9.6219236"><ele>285.0</ele><time>2026-04-24T12:29:23.977Z</time></trkpt><trkpt lat="45.7201732" lon="9.6220035"><ele>285.0</ele><time>2026-04-24T12:29:25.977Z</time></trkpt><trkpt lat="45.7200801" lon="9.6220957"><ele>285.4</ele><time>2026-04-24T12:29:27.977Z</time></trkpt><trkpt lat="45.7200005" lon="9.6221227"><ele>285.8</ele><time>2026-04-24T12:29:28.977Z</time></trkpt><trkpt lat="45.7199038" lon="9.622223"><ele>286.2</ele><time>2026-04-24T12:29:30.977Z</time></trkpt><trkpt lat="45.7198321" lon="9.6222764"><ele>286.6</ele><time>2026-04-24T12:29:31.977Z</time></trkpt><trkpt lat="45.7197462" lon="9.6223168"><ele>287.0</ele><time>2026-04-24T12:29:32.977Z</time></trkpt><trkpt lat="45.7196392" lon="9.6223974"><ele>287.0</ele><time>2026-04-24T12:29:34.977Z</time></trkpt><trkpt lat="45.7195816" lon="9.6224467"><ele>287.0</ele><time>2026-04-24T12:29:35.978Z</time></trkpt><trkpt lat="45.7194814" lon="9.6225335"><ele>287.0</ele><time>2026-04-24T12:29:37.978Z</time></trkpt><trkpt lat="45.7194425" lon="9.6226091"><ele>287.0</ele><time>2026-04-24T12:29:38.977Z</time></trkpt><trkpt lat="45.7193971" lon="9.6227415"><ele>287.0</ele><time>2026-04-24T12:29:40.978Z</time></trkpt><trkpt lat="45.7193456" lon="9.622831"><ele>287.0</ele><time>2026-04-24T12:29:42.978Z</time></trkpt><trkpt lat="45.7193031" lon="9.6229181"><ele>286.83333333333337</ele><time>2026-04-24T12:29:45.977Z</time></trkpt><trkpt lat="45.7192326" lon="9.6228963"><ele>286.6666666666667</ele><time>2026-04-24T12:29:46.978Z</time></trkpt><trkpt lat="45.7191493" lon="9.6228386"><ele>286.5</ele><time>2026-04-24T12:29:47.978Z</time></trkpt><trkpt lat="45.7190867" lon="9.6226999"><ele>286.3333333333333</ele><time>2026-04-24T12:29:49.977Z</time></trkpt><trkpt lat="45.71905" lon="9.6226141"><ele>286.16666666666663</ele><time>2026-04-24T12:29:50.977Z</time></trkpt><trkpt lat="45.7190003" lon="9.6225323"><ele>286.0</ele><time>2026-04-24T12:29:51.978Z</time></trkpt><trkpt lat="45.7189574" lon="9.622442"><ele>284.8333333333333</ele><time>2026-04-24T12:29:52.978Z</time></trkpt><trkpt lat="45.7189039" lon="9.622347"><ele>283.66666666666663</ele><time>2026-04-24T12:29:53.977Z</time></trkpt><trkpt lat="45.7188608" lon="9.6222486"><ele>282.5</ele><time>2026-04-24T12:29:54.977Z</time></trkpt><trkpt lat="45.7188147" lon="9.6221477"><ele>281.3333333333333</ele><time>2026-04-24T12:29:55.978Z</time></trkpt><trkpt lat="45.7187652" lon="9.6220452"><ele>280.1666666666667</ele><time>2026-04-24T12:29:56.977Z</time></trkpt><trkpt lat="45.7187206" lon="9.6219426"><ele>279.0</ele><time>2026-04-24T12:29:57.977Z</time></trkpt><trkpt lat="45.7186704" lon="9.6218437"><ele>278.1666666666667</ele><time>2026-04-24T12:29:58.977Z</time></trkpt><trkpt lat="45.7186231" lon="9.6217427"><ele>277.3333333333333</ele><time>2026-04-24T12:29:59.977Z</time></trkpt><trkpt lat="45.7185765" lon="9.6216426"><ele>276.5</ele><time>2026-04-24T12:30:00.978Z</time></trkpt><trkpt lat="45.7185325" lon="9.621538"><ele>275.66666666666663</ele><time>2026-04-24T12:30:01.977Z</time></trkpt><trkpt lat="45.7184891" lon="9.6214319"><ele>274.8333333333333</ele><time>2026-04-24T12:30:02.977Z</time></trkpt><trkpt lat="45.7184479" lon="9.6213203"><ele>274.0</ele><time>2026-04-24T12:30:03.977Z</time></trkpt><trkpt lat="45.7184143" lon="9.621212"><ele>273.5</ele><time>2026-04-24T12:30:04.977Z</time></trkpt><trkpt lat="45.7183854" lon="9.6211019"><ele>273.0</ele><time>2026-04-24T12:30:05.978Z</time></trkpt><trkpt lat="45.7183596" lon="9.6209942"><ele>272.5</ele><time>2026-04-24T12:30:06.978Z</time></trkpt><trkpt lat="45.7183357" lon="9.6208868"><ele>272.0</ele><time>2026-04-24T12:30:07.977Z</time></trkpt><trkpt lat="45.7183152" lon="9.6207809"><ele>271.5</ele><time>2026-04-24T12:30:08.977Z</time></trkpt><trkpt lat="45.7182955" lon="9.6206788"><ele>271.0</ele><time>2026-04-24T12:30:09.977Z</time></trkpt><trkpt lat="45.7182817" lon="9.6205684"><ele>271.0</ele><time>2026-04-24T12:30:10.977Z</time></trkpt><trkpt lat="45.7182701" lon="9.6204702"><ele>271.0</ele><time>2026-04-24T12:30:11.977Z</time></trkpt><trkpt lat="45.718261" lon="9.6203738"><ele>271.0</ele><time>2026-04-24T12:30:12.977Z</time></trkpt><trkpt lat="45.7182575" lon="9.6202363"><ele>271.0</ele><time>2026-04-24T12:30:14.977Z</time></trkpt><trkpt lat="45.7182501" lon="9.6201429"><ele>271.0</ele><time>2026-04-24T12:30:16.977Z</time></trkpt><trkpt lat="45.7182209" lon="9.6200521"><ele>271.0</ele><time>2026-04-24T12:30:22.977Z</time></trkpt><trkpt lat="45.7181445" lon="9.6199887"><ele>271.0</ele><time>2026-04-24T12:30:25.977Z</time></trkpt><trkpt lat="45.7180694" lon="9.6200302"><ele>271.0</ele><time>2026-04-24T12:30:27.978Z</time></trkpt><trkpt lat="45.7180325" lon="9.6201036"><ele>271.0</ele><time>2026-04-24T12:30:28.978Z</time></trkpt><trkpt lat="45.7179377" lon="9.6201906"><ele>271.0</ele><time>2026-04-24T12:30:30.977Z</time></trkpt><trkpt lat="45.7178443" lon="9.6202678"><ele>271.0</ele><time>2026-04-24T12:30:32.977Z</time></trkpt><trkpt lat="45.7177551" lon="9.6203448"><ele>270.6</ele><time>2026-04-24T12:30:34.977Z</time></trkpt><trkpt lat="45.7176597" lon="9.6204288"><ele>270.20000000000005</ele><time>2026-04-24T12:30:36.978Z</time></trkpt><trkpt lat="45.7175695" lon="9.6204745"><ele>269.79999999999995</ele><time>2026-04-24T12:30:38.977Z</time></trkpt><trkpt lat="45.7175252" lon="9.6203797"><ele>269.4</ele><time>2026-04-24T12:30:40.978Z</time></trkpt><trkpt lat="45.7175123" lon="9.6202273"><ele>269.0</ele><time>2026-04-24T12:30:42.977Z</time></trkpt><trkpt lat="45.7174831" lon="9.6200829"><ele>269.0</ele><time>2026-04-24T12:30:44.978Z</time></trkpt><trkpt lat="45.7174446" lon="9.6199479"><ele>269.0</ele><time>2026-04-24T12:30:46.977Z</time></trkpt><trkpt lat="45.7173933" lon="9.61979"><ele>269.0</ele><time>2026-04-24T12:30:48.978Z</time></trkpt><trkpt lat="45.7173762" lon="9.6196985"><ele>269.0</ele><time>2026-04-24T12:30:49.978Z</time></trkpt><trkpt lat="45.7173599" lon="9.6196053"><ele>269.0</ele><time>2026-04-24T12:30:50.978Z</time></trkpt><trkpt lat="45.7173498" lon="9.6195137"><ele>269.0</ele><time>2026-04-24T12:30:51.978Z</time></trkpt><trkpt lat="45.7173335" lon="9.6194111"><ele>268.57142857142856</ele><time>2026-04-24T12:30:52.978Z</time></trkpt><trkpt lat="45.7173204" lon="9.6193149"><ele>268.14285714285717</ele><time>2026-04-24T12:30:53.977Z</time></trkpt><trkpt lat="45.7173097" lon="9.6192204"><ele>267.7142857142857</ele><time>2026-04-24T12:30:54.977Z</time></trkpt><trkpt lat="45.7172917" lon="9.6191181"><ele>267.2857142857143</ele><time>2026-04-24T12:30:55.977Z</time></trkpt><trkpt lat="45.7172691" lon="9.6190192"><ele>266.8571428571429</ele><time>2026-04-24T12:30:56.977Z</time></trkpt><trkpt lat="45.7172546" lon="9.6189255"><ele>266.42857142857144</ele><time>2026-04-24T12:30:57.978Z</time></trkpt><trkpt lat="45.717247" lon="9.6188337"><ele>266.0</ele><time>2026-04-24T12:30:58.977Z</time></trkpt><trkpt lat="45.7172307" lon="9.6187443"><ele>265.6666666666667</ele><time>2026-04-24T12:30:59.978Z</time></trkpt><trkpt lat="45.7172154" lon="9.6186009"><ele>265.33333333333337</ele><time>2026-04-24T12:31:01.977Z</time></trkpt><trkpt lat="45.7171671" lon="9.6185194"><ele>265.0</ele><time>2026-04-24T12:31:03.977Z</time></trkpt><trkpt lat="45.7170859" lon="9.6185059"><ele>264.6666666666667</ele><time>2026-04-24T12:31:05.977Z</time></trkpt><trkpt lat="45.7170494" lon="9.6184067"><ele>264.3333333333333</ele><time>2026-04-24T12:31:07.977Z</time></trkpt><trkpt lat="45.7170342" lon="9.6182894"><ele>264.0</ele><time>2026-04-24T12:31:09.978Z</time></trkpt><trkpt lat="45.7170337" lon="9.6181521"><ele>264.0</ele><time>2026-04-24T12:31:11.978Z</time></trkpt><trkpt lat="45.7170217" lon="9.617991"><ele>264.0</ele><time>2026-04-24T12:31:13.977Z</time></trkpt><trkpt lat="45.7170088" lon="9.6178634"><ele>264.0</ele><time>2026-04-24T12:31:15.977Z</time></trkpt><trkpt lat="45.7170028" lon="9.6177671"><ele>264.0</ele><time>2026-04-24T12:31:16.977Z</time></trkpt><trkpt lat="45.7169588" lon="9.6176193"><ele>264.0</ele><time>2026-04-24T12:31:18.978Z</time></trkpt><trkpt lat="45.7168525" lon="9.6175953"><ele>263.8</ele><time>2026-04-24T12:31:20.977Z</time></trkpt><trkpt lat="45.716743" lon="9.6176058"><ele>263.59999999999997</ele><time>2026-04-24T12:31:22.977Z</time></trkpt><trkpt lat="45.7166342" lon="9.6176039"><ele>263.4</ele><time>2026-04-24T12:31:24.978Z</time></trkpt><trkpt lat="45.7165183" lon="9.617591"><ele>263.2</ele><time>2026-04-24T12:31:26.977Z</time></trkpt><trkpt lat="45.7164158" lon="9.6176032"><ele>263.0</ele><time>2026-04-24T12:31:28.977Z</time></trkpt><trkpt lat="45.7163002" lon="9.6176242"><ele>263.0</ele><time>2026-04-24T12:31:30.977Z</time></trkpt><trkpt lat="45.7161875" lon="9.6176351"><ele>263.0</ele><time>2026-04-24T12:31:32.977Z</time></trkpt><trkpt lat="45.7160747" lon="9.6176484"><ele>263.0</ele><time>2026-04-24T12:31:34.978Z</time></trkpt><trkpt lat="45.7159583" lon="9.6176472"><ele>263.0</ele><time>2026-04-24T12:31:36.977Z</time></trkpt><trkpt lat="45.7158368" lon="9.6176536"><ele>263.0</ele><time>2026-04-24T12:31:38.977Z</time></trkpt><trkpt lat="45.7157724" lon="9.6176525"><ele>263.0</ele><time>2026-04-24T12:31:39.977Z</time></trkpt><trkpt lat="45.715654" lon="9.6176571"><ele>263.0</ele><time>2026-04-24T12:31:41.977Z</time></trkpt><trkpt lat="45.7155471" lon="9.617659"><ele>263.0</ele><time>2026-04-24T12:31:43.977Z</time></trkpt><trkpt lat="45.7154402" lon="9.617661"><ele>263.0</ele><time>2026-04-24T12:31:45.977Z</time></trkpt><trkpt lat="45.7153518" lon="9.6176306"><ele>263.0</ele><time>2026-04-24T12:31:47.977Z</time></trkpt><trkpt lat="45.715277" lon="9.6175996"><ele>263.0</ele><time>2026-04-24T12:31:49.977Z</time></trkpt><trkpt lat="45.7152033" lon="9.6175895"><ele>263.0</ele><time>2026-04-24T12:31:51.978Z</time></trkpt><trkpt lat="45.715108" lon="9.6175513"><ele>263.0</ele><time>2026-04-24T12:31:55.978Z</time></trkpt><trkpt lat="45.7150526" lon="9.6174507"><ele>263.0</ele><time>2026-04-24T12:31:57.977Z</time></trkpt><trkpt lat="45.7149546" lon="9.6173395"><ele>263.25</ele><time>2026-04-24T12:31:59.977Z</time></trkpt><trkpt lat="45.7148507" lon="9.6173206"><ele>263.5</ele><time>2026-04-24T12:32:01.977Z</time></trkpt><trkpt lat="45.7147465" lon="9.6173131"><ele>263.75</ele><time>2026-04-24T12:32:03.977Z</time></trkpt><trkpt lat="45.7146265" lon="9.6173012"><ele>264.0</ele><time>2026-04-24T12:32:05.977Z</time></trkpt><trkpt lat="45.7145067" lon="9.6172828"><ele>264.0</ele><time>2026-04-24T12:32:07.977Z</time></trkpt><trkpt lat="45.7144431" lon="9.6172717"><ele>264.0</ele><time>2026-04-24T12:32:08.977Z</time></trkpt><trkpt lat="45.7143264" lon="9.617251"><ele>264.0</ele><time>2026-04-24T12:32:10.978Z</time></trkpt><trkpt lat="45.7142184" lon="9.6172269"><ele>264.0</ele><time>2026-04-24T12:32:12.977Z</time></trkpt><trkpt lat="45.7141534" lon="9.6172309"><ele>264.0</ele><time>2026-04-24T12:32:13.978Z</time></trkpt><trkpt lat="45.7140875" lon="9.6172251"><ele>264.0</ele><time>2026-04-24T12:32:14.977Z</time></trkpt><trkpt lat="45.7139804" lon="9.6172282"><ele>264.2</ele><time>2026-04-24T12:32:16.977Z</time></trkpt><trkpt lat="45.7138718" lon="9.6172382"><ele>264.4</ele><time>2026-04-24T12:32:18.978Z</time></trkpt><trkpt lat="45.7137653" lon="9.6172533"><ele>264.6</ele><time>2026-04-24T12:32:20.978Z</time></trkpt><trkpt lat="45.713652" lon="9.6172586"><ele>264.8</ele><time>2026-04-24T12:32:22.978Z</time></trkpt><trkpt lat="45.7135741" lon="9.6172402"><ele>265.0</ele><time>2026-04-24T12:32:24.978Z</time></trkpt><trkpt lat="45.7134865" lon="9.6171603"><ele>265.0</ele><time>2026-04-24T12:32:26.977Z</time></trkpt><trkpt lat="45.7134332" lon="9.6170185"><ele>265.0</ele><time>2026-04-24T12:32:28.977Z</time></trkpt><trkpt lat="45.713387" lon="9.6168809"><ele>265.0</ele><time>2026-04-24T12:32:30.977Z</time></trkpt><trkpt lat="45.7133426" lon="9.6168041"><ele>265.0</ele><time>2026-04-24T12:32:31.977Z</time></trkpt><trkpt lat="45.7132811" lon="9.6166949"><ele>265.0</ele><time>2026-04-24T12:32:33.978Z</time></trkpt><trkpt lat="45.713196" lon="9.6166122"><ele>264.6</ele><time>2026-04-24T12:32:35.978Z</time></trkpt><trkpt lat="45.7131191" lon="9.6165244"><ele>264.2</ele><time>2026-04-24T12:32:37.977Z</time></trkpt><trkpt lat="45.7130814" lon="9.6164276"><ele>263.8</ele><time>2026-04-24T12:32:39.977Z</time></trkpt><trkpt lat="45.7130325" lon="9.6162834"><ele>263.4</ele><time>2026-04-24T12:32:41.978Z</time></trkpt><trkpt lat="45.7129904" lon="9.6161355"><ele>263.0</ele><time>2026-04-24T12:32:43.977Z</time></trkpt><trkpt lat="45.7129621" lon="9.6159949"><ele>262.5</ele><time>2026-04-24T12:32:45.977Z</time></trkpt><trkpt lat="45.712936" lon="9.6159047"><ele>262.0</ele><time>2026-04-24T12:32:46.977Z</time></trkpt><trkpt lat="45.7129248" lon="9.6158027"><ele>261.5</ele><time>2026-04-24T12:32:47.977Z</time></trkpt><trkpt lat="45.7128972" lon="9.6156135"><ele>261.0</ele><time>2026-04-24T12:32:49.977Z</time></trkpt><trkpt lat="45.7128832" lon="9.6155243"><ele>260.5</ele><time>2026-04-24T12:32:50.978Z</time></trkpt><trkpt lat="45.712885" lon="9.6154221"><ele>260.0</ele><time>2026-04-24T12:32:51.977Z</time></trkpt><trkpt lat="45.7128754" lon="9.6153306"><ele>259.6666666666667</ele><time>2026-04-24T12:32:52.978Z</time></trkpt><trkpt lat="45.7128368" lon="9.6152556"><ele>259.33333333333337</ele><time>2026-04-24T12:32:53.978Z</time></trkpt><trkpt lat="45.7128202" lon="9.6151529"><ele>259.0</ele><time>2026-04-24T12:32:54.977Z</time></trkpt><trkpt lat="45.7127863" lon="9.614972"><ele>258.6666666666667</ele><time>2026-04-24T12:32:56.978Z</time></trkpt><trkpt lat="45.712764" lon="9.6148661"><ele>258.3333333333333</ele><time>2026-04-24T12:32:57.977Z</time></trkpt><trkpt lat="45.7127416" lon="9.6147751"><ele>258.0</ele><time>2026-04-24T12:32:58.977Z</time></trkpt><trkpt lat="45.7127201" lon="9.6146757"><ele>257.99999999999994</ele><time>2026-04-24T12:32:59.977Z</time></trkpt><trkpt lat="45.7127033" lon="9.6145635"><ele>258.0</ele><time>2026-04-24T12:33:00.977Z</time></trkpt><trkpt lat="45.7126868" lon="9.6144734"><ele>258.0</ele><time>2026-04-24T12:33:01.978Z</time></trkpt><trkpt lat="45.712671" lon="9.6143846"><ele>258.0</ele><time>2026-04-24T12:33:02.977Z</time></trkpt><trkpt lat="45.7126578" lon="9.6142898"><ele>258.0</ele><time>2026-04-24T12:33:03.978Z</time></trkpt><trkpt lat="45.7126386" lon="9.6142"><ele>257.99999999999994</ele><time>2026-04-24T12:33:04.977Z</time></trkpt><trkpt lat="45.7126179" lon="9.6141068"><ele>258.0</ele><time>2026-04-24T12:33:05.977Z</time></trkpt><trkpt lat="45.7125928" lon="9.6140229"><ele>258.0</ele><time>2026-04-24T12:33:06.977Z</time></trkpt><trkpt lat="45.7125348" lon="9.6138634"><ele>258.0</ele><time>2026-04-24T12:33:08.978Z</time></trkpt><trkpt lat="45.7125062" lon="9.6137804"><ele>258.0</ele><time>2026-04-24T12:33:09.977Z</time></trkpt><trkpt lat="45.7124806" lon="9.6136886"><ele>258.0</ele><time>2026-04-24T12:33:10.977Z</time></trkpt><trkpt lat="45.712453" lon="9.6136041"><ele>258.0</ele><time>2026-04-24T12:33:11.977Z</time></trkpt><trkpt lat="45.712433" lon="9.6135182"><ele>258.0</ele><time>2026-04-24T12:33:12.977Z</time></trkpt><trkpt lat="45.7124097" lon="9.613429"><ele>257.8</ele><time>2026-04-24T12:33:13.977Z</time></trkpt><trkpt lat="45.7124005" lon="9.6132734"><ele>257.6</ele><time>2026-04-24T12:33:15.977Z</time></trkpt><trkpt lat="45.7123836" lon="9.6131691"><ele>257.4</ele><time>2026-04-24T12:33:17.978Z</time></trkpt><trkpt lat="45.7123107" lon="9.6131112"><ele>257.2</ele><time>2026-04-24T12:33:19.977Z</time></trkpt><trkpt lat="45.7122145" lon="9.6130831"><ele>257.0</ele><time>2026-04-24T12:33:21.978Z</time></trkpt><trkpt lat="45.7121097" lon="9.6130462"><ele>257.0</ele><time>2026-04-24T12:33:23.977Z</time></trkpt><trkpt lat="45.7119966" lon="9.6130006"><ele>257.0</ele><time>2026-04-24T12:33:25.978Z</time></trkpt><trkpt lat="45.7118768" lon="9.6129612"><ele>257.0</ele><time>2026-04-24T12:33:27.978Z</time></trkpt><trkpt lat="45.7117589" lon="9.6129483"><ele>257.0</ele><time>2026-04-24T12:33:29.978Z</time></trkpt><trkpt lat="45.7116413" lon="9.6129201"><ele>257.4</ele><time>2026-04-24T12:33:31.977Z</time></trkpt><trkpt lat="45.7115188" lon="9.6129125"><ele>257.79999999999995</ele><time>2026-04-24T12:33:33.978Z</time></trkpt><trkpt lat="45.7113912" lon="9.6128888"><ele>258.2</ele><time>2026-04-24T12:33:35.978Z</time></trkpt><trkpt lat="45.7112753" lon="9.6128693"><ele>258.59999999999997</ele><time>2026-04-24T12:33:37.977Z</time></trkpt><trkpt lat="45.7112189" lon="9.6128271"><ele>259.0</ele><time>2026-04-24T12:33:38.978Z</time></trkpt><trkpt lat="45.7110925" lon="9.6127885"><ele>259.0</ele><time>2026-04-24T12:33:40.977Z</time></trkpt><trkpt lat="45.7109669" lon="9.6127517"><ele>259.0</ele><time>2026-04-24T12:33:42.977Z</time></trkpt><trkpt lat="45.710845" lon="9.612729"><ele>259.0</ele><time>2026-04-24T12:33:44.977Z</time></trkpt><trkpt lat="45.7107763" lon="9.6127114"><ele>259.0</ele><time>2026-04-24T12:33:45.977Z</time></trkpt><trkpt lat="45.7106642" lon="9.6126834"><ele>259.0</ele><time>2026-04-24T12:33:47.977Z</time></trkpt><trkpt lat="45.7105534" lon="9.6126506"><ele>259.0</ele><time>2026-04-24T12:33:49.978Z</time></trkpt><trkpt lat="45.7104646" lon="9.6126188"><ele>259.0</ele><time>2026-04-24T12:33:51.978Z</time></trkpt><trkpt lat="45.7104112" lon="9.6125245"><ele>259.0</ele><time>2026-04-24T12:33:53.978Z</time></trkpt><trkpt lat="45.7104152" lon="9.612372"><ele>259.0</ele><time>2026-04-24T12:33:55.977Z</time></trkpt><trkpt lat="45.7104115" lon="9.6122214"><ele>259.0</ele><time>2026-04-24T12:33:57.977Z</time></trkpt><trkpt lat="45.7104108" lon="9.6120643"><ele>259.2</ele><time>2026-04-24T12:33:59.977Z</time></trkpt><trkpt lat="45.7104046" lon="9.6118998"><ele>259.4</ele><time>2026-04-24T12:34:01.977Z</time></trkpt><trkpt lat="45.7104008" lon="9.6117259"><ele>259.6</ele><time>2026-04-24T12:34:03.977Z</time></trkpt><trkpt lat="45.7104064" lon="9.6116304"><ele>259.8</ele><time>2026-04-24T12:34:04.978Z</time></trkpt><trkpt lat="45.7104066" lon="9.6114694"><ele>260.0</ele><time>2026-04-24T12:34:06.977Z</time></trkpt><trkpt lat="45.7104069" lon="9.6113018"><ele>260.0</ele><time>2026-04-24T12:34:08.977Z</time></trkpt><trkpt lat="45.710411" lon="9.6112071"><ele>260.0</ele><time>2026-04-24T12:34:09.978Z</time></trkpt><trkpt lat="45.7104033" lon="9.6110387"><ele>260.0</ele><time>2026-04-24T12:34:11.977Z</time></trkpt><trkpt lat="45.7103999" lon="9.610941"><ele>260.0</ele><time>2026-04-24T12:34:12.978Z</time></trkpt><trkpt lat="45.7104085" lon="9.610768"><ele>260.0</ele><time>2026-04-24T12:34:14.977Z</time></trkpt><trkpt lat="45.710408" lon="9.6106709"><ele>260.0</ele><time>2026-04-24T12:34:15.977Z</time></trkpt><trkpt lat="45.7104076" lon="9.6105803"><ele>259.6666666666667</ele><time>2026-04-24T12:34:16.978Z</time></trkpt><trkpt lat="45.7104129" lon="9.6104754"><ele>259.33333333333337</ele><time>2026-04-24T12:34:17.977Z</time></trkpt><trkpt lat="45.7104175" lon="9.6103804"><ele>259.0</ele><time>2026-04-24T12:34:18.977Z</time></trkpt><trkpt lat="45.7104154" lon="9.6102846"><ele>258.6666666666667</ele><time>2026-04-24T12:34:19.977Z</time></trkpt><trkpt lat="45.7104115" lon="9.6101153"><ele>258.3333333333333</ele><time>2026-04-24T12:34:21.978Z</time></trkpt><trkpt lat="45.7104181" lon="9.6099713"><ele>258.0</ele><time>2026-04-24T12:34:23.978Z</time></trkpt><trkpt lat="45.7104188" lon="9.6098439"><ele>258.0</ele><time>2026-04-24T12:34:25.978Z</time></trkpt><trkpt lat="45.7104313" lon="9.6096603"><ele>258.0</ele><time>2026-04-24T12:34:28.977Z</time></trkpt><trkpt lat="45.7104269" lon="9.6094968"><ele>258.0</ele><time>2026-04-24T12:34:30.978Z</time></trkpt><trkpt lat="45.7104343" lon="9.6093384"><ele>258.0</ele><time>2026-04-24T12:34:32.977Z</time></trkpt><trkpt lat="45.7104312" lon="9.6091938"><ele>258.0</ele><time>2026-04-24T12:34:34.977Z</time></trkpt><trkpt lat="45.7104396" lon="9.6090408"><ele>258.0</ele><time>2026-04-24T12:34:36.978Z</time></trkpt><trkpt lat="45.7104381" lon="9.6088929"><ele>258.0</ele><time>2026-04-24T12:34:38.977Z</time></trkpt><trkpt lat="45.710452" lon="9.6087986"><ele>258.0</ele><time>2026-04-24T12:34:40.978Z</time></trkpt><trkpt lat="45.7104801" lon="9.6086988"><ele>258.0</ele><time>2026-04-24T12:34:42.978Z</time></trkpt><trkpt lat="45.7105367" lon="9.6085667"><ele>258.0</ele><time>2026-04-24T12:34:44.977Z</time></trkpt><trkpt lat="45.7105769" lon="9.608426"><ele>258.0</ele><time>2026-04-24T12:34:46.967Z</time></trkpt><trkpt lat="45.7105871" lon="9.6082618"><ele>258.0</ele><time>2026-04-24T12:34:48.968Z</time></trkpt><trkpt lat="45.7105478" lon="9.6081096"><ele>258.0</ele><time>2026-04-24T12:34:50.968Z</time></trkpt><trkpt lat="45.7104976" lon="9.6079584"><ele>258.0</ele><time>2026-04-24T12:34:52.97Z</time></trkpt><trkpt lat="45.7104607" lon="9.6077884"><ele>258.0</ele><time>2026-04-24T12:34:54.969Z</time></trkpt><trkpt lat="45.710444" lon="9.6076121"><ele>258.0</ele><time>2026-04-24T12:34:56.97Z</time></trkpt><trkpt lat="45.7104404" lon="9.6074359"><ele>258.0</ele><time>2026-04-24T12:34:58.969Z</time></trkpt><trkpt lat="45.7104389" lon="9.6073391"><ele>258.0</ele><time>2026-04-24T12:34:59.969Z</time></trkpt><trkpt lat="45.7104436" lon="9.6072432"><ele>257.99999999999994</ele><time>2026-04-24T12:35:00.969Z</time></trkpt><trkpt lat="45.710436" lon="9.6071462"><ele>258.0</ele><time>2026-04-24T12:35:01.969Z</time></trkpt><trkpt lat="45.7104363" lon="9.60705"><ele>258.0</ele><time>2026-04-24T12:35:02.969Z</time></trkpt><trkpt lat="45.710437" lon="9.6069548"><ele>258.0</ele><time>2026-04-24T12:35:03.97Z</time></trkpt><trkpt lat="45.7104355" lon="9.6068622"><ele>258.0</ele><time>2026-04-24T12:35:04.969Z</time></trkpt><trkpt lat="45.7104301" lon="9.6067689"><ele>257.99999999999994</ele><time>2026-04-24T12:35:05.969Z</time></trkpt><trkpt lat="45.7104266" lon="9.6066762"><ele>258.0</ele><time>2026-04-24T12:35:06.97Z</time></trkpt><trkpt lat="45.7104203" lon="9.6065052"><ele>257.8</ele><time>2026-04-24T12:35:08.969Z</time></trkpt><trkpt lat="45.710418" lon="9.6063924"><ele>257.6</ele><time>2026-04-24T12:35:09.969Z</time></trkpt><trkpt lat="45.7104073" lon="9.6062197"><ele>257.4</ele><time>2026-04-24T12:35:11.969Z</time></trkpt><trkpt lat="45.7104092" lon="9.6061221"><ele>257.2</ele><time>2026-04-24T12:35:12.97Z</time></trkpt><trkpt lat="45.7104149" lon="9.6060185"><ele>257.0</ele><time>2026-04-24T12:35:13.969Z</time></trkpt><trkpt lat="45.7104093" lon="9.6058604"><ele>257.0</ele><time>2026-04-24T12:35:15.969Z</time></trkpt><trkpt lat="45.7104128" lon="9.6056878"><ele>257.0</ele><time>2026-04-24T12:35:17.97Z</time></trkpt><trkpt lat="45.7104166" lon="9.6055955"><ele>257.0</ele><time>2026-04-24T12:35:18.969Z</time></trkpt><trkpt lat="45.7104144" lon="9.605438"><ele>257.0</ele><time>2026-04-24T12:35:20.969Z</time></trkpt><trkpt lat="45.710418" lon="9.6052663"><ele>257.0</ele><time>2026-04-24T12:35:22.969Z</time></trkpt><trkpt lat="45.7104127" lon="9.6050823"><ele>257.0</ele><time>2026-04-24T12:35:24.97Z</time></trkpt><trkpt lat="45.7104103" lon="9.6049887"><ele>257.0</ele><time>2026-04-24T12:35:25.97Z</time></trkpt><trkpt lat="45.7104111" lon="9.6048962"><ele>257.0</ele><time>2026-04-24T12:35:26.97Z</time></trkpt><trkpt lat="45.7104111" lon="9.6048035"><ele>257.0</ele><time>2026-04-24T12:35:27.97Z</time></trkpt><trkpt lat="45.7104128" lon="9.6047106"><ele>257.0</ele><time>2026-04-24T12:35:28.969Z</time></trkpt><trkpt lat="45.7104143" lon="9.6046159"><ele>257.0</ele><time>2026-04-24T12:35:29.969Z</time></trkpt><trkpt lat="45.710417" lon="9.6045167"><ele>257.0</ele><time>2026-04-24T12:35:30.97Z</time></trkpt><trkpt lat="45.7104194" lon="9.6044178"><ele>257.0</ele><time>2026-04-24T12:35:31.969Z</time></trkpt><trkpt lat="45.7104204" lon="9.6043233"><ele>257.0</ele><time>2026-04-24T12:35:32.969Z</time></trkpt><trkpt lat="45.7104157" lon="9.604224"><ele>257.0</ele><time>2026-04-24T12:35:33.969Z</time></trkpt><trkpt lat="45.7104196" lon="9.6041295"><ele>257.0</ele><time>2026-04-24T12:35:34.969Z</time></trkpt><trkpt lat="45.7104247" lon="9.6040342"><ele>257.0</ele><time>2026-04-24T12:35:35.969Z</time></trkpt><trkpt lat="45.7104277" lon="9.6039328"><ele>257.0</ele><time>2026-04-24T12:35:36.969Z</time></trkpt><trkpt lat="45.710428" lon="9.603839"><ele>257.0</ele><time>2026-04-24T12:35:37.97Z</time></trkpt><trkpt lat="45.7104249" lon="9.6037485"><ele>256.42857142857144</ele><time>2026-04-24T12:35:38.969Z</time></trkpt><trkpt lat="45.7104191" lon="9.6036448"><ele>255.8571428571429</ele><time>2026-04-24T12:35:39.969Z</time></trkpt><trkpt lat="45.7104165" lon="9.6035464"><ele>255.2857142857143</ele><time>2026-04-24T12:35:40.969Z</time></trkpt><trkpt lat="45.7104166" lon="9.6034396"><ele>254.71428571428572</ele><time>2026-04-24T12:35:41.969Z</time></trkpt><trkpt lat="45.7104179" lon="9.6033409"><ele>254.14285714285717</ele><time>2026-04-24T12:35:42.969Z</time></trkpt><trkpt lat="45.7104169" lon="9.6032412"><ele>253.5714285714286</ele><time>2026-04-24T12:35:43.969Z</time></trkpt><trkpt lat="45.7104151" lon="9.6031198"><ele>253.00000000000003</ele><time>2026-04-24T12:35:44.969Z</time></trkpt><trkpt lat="45.7104176" lon="9.6030083"><ele>252.99999999999997</ele><time>2026-04-24T12:35:45.969Z</time></trkpt><trkpt lat="45.7104153" lon="9.6029014"><ele>253.0</ele><time>2026-04-24T12:35:46.969Z</time></trkpt><trkpt lat="45.7104175" lon="9.6027871"><ele>253.0</ele><time>2026-04-24T12:35:47.97Z</time></trkpt><trkpt lat="45.7104209" lon="9.6026682"><ele>253.0</ele><time>2026-04-24T12:35:48.969Z</time></trkpt><trkpt lat="45.7104198" lon="9.602555"><ele>252.99999999999997</ele><time>2026-04-24T12:35:49.97Z</time></trkpt><trkpt lat="45.7104199" lon="9.6024321"><ele>253.0</ele><time>2026-04-24T12:35:50.97Z</time></trkpt><trkpt lat="45.7104237" lon="9.6023111"><ele>252.83333333333331</ele><time>2026-04-24T12:35:51.97Z</time></trkpt><trkpt lat="45.7104292" lon="9.6021856"><ele>252.66666666666666</ele><time>2026-04-24T12:35:52.97Z</time></trkpt><trkpt lat="45.7104301" lon="9.6020699"><ele>252.5</ele><time>2026-04-24T12:35:53.969Z</time></trkpt><trkpt lat="45.7104327" lon="9.6019647"><ele>252.33333333333331</ele><time>2026-04-24T12:35:54.969Z</time></trkpt><trkpt lat="45.7104355" lon="9.601854"><ele>252.16666666666666</ele><time>2026-04-24T12:35:55.969Z</time></trkpt><trkpt lat="45.710447" lon="9.6017242"><ele>252.0</ele><time>2026-04-24T12:35:56.969Z</time></trkpt><trkpt lat="45.710457" lon="9.6016081"><ele>251.33333333333334</ele><time>2026-04-24T12:35:57.969Z</time></trkpt><trkpt lat="45.7104628" lon="9.6014987"><ele>250.66666666666669</ele><time>2026-04-24T12:35:58.969Z</time></trkpt><trkpt lat="45.7104679" lon="9.6013846"><ele>250.0</ele><time>2026-04-24T12:35:59.97Z</time></trkpt><trkpt lat="45.7104727" lon="9.601268"><ele>249.33333333333334</ele><time>2026-04-24T12:36:00.969Z</time></trkpt><trkpt lat="45.7104797" lon="9.6011693"><ele>248.66666666666669</ele><time>2026-04-24T12:36:01.969Z</time></trkpt><trkpt lat="45.7104889" lon="9.6010557"><ele>248.0</ele><time>2026-04-24T12:36:02.97Z</time></trkpt><trkpt lat="45.7104907" lon="9.6009386"><ele>247.85714285714286</ele><time>2026-04-24T12:36:03.969Z</time></trkpt><trkpt lat="45.7104953" lon="9.600827"><ele>247.71428571428572</ele><time>2026-04-24T12:36:04.97Z</time></trkpt><trkpt lat="45.7105022" lon="9.600722"><ele>247.57142857142858</ele><time>2026-04-24T12:36:05.969Z</time></trkpt><trkpt lat="45.7105075" lon="9.6006157"><ele>247.42857142857144</ele><time>2026-04-24T12:36:06.97Z</time></trkpt><trkpt lat="45.7105035" lon="9.6005178"><ele>247.28571428571428</ele><time>2026-04-24T12:36:07.969Z</time></trkpt><trkpt lat="45.7105076" lon="9.6004117"><ele>247.14285714285717</ele><time>2026-04-24T12:36:08.969Z</time></trkpt><trkpt lat="45.7105095" lon="9.6003087"><ele>247.0</ele><time>2026-04-24T12:36:09.97Z</time></trkpt><trkpt lat="45.7105283" lon="9.60018"><ele>246.83333333333331</ele><time>2026-04-24T12:36:10.97Z</time></trkpt><trkpt lat="45.7105415" lon="9.6000715"><ele>246.66666666666666</ele><time>2026-04-24T12:36:11.97Z</time></trkpt><trkpt lat="45.7105384" lon="9.5999582"><ele>246.5</ele><time>2026-04-24T12:36:12.969Z</time></trkpt><trkpt lat="45.7105444" lon="9.5998559"><ele>246.33333333333331</ele><time>2026-04-24T12:36:13.97Z</time></trkpt><trkpt lat="45.7105423" lon="9.5997451"><ele>246.16666666666666</ele><time>2026-04-24T12:36:14.969Z</time></trkpt><trkpt lat="45.710552" lon="9.5996427"><ele>246.0</ele><time>2026-04-24T12:36:15.969Z</time></trkpt><trkpt lat="45.7105578" lon="9.5995377"><ele>245.8571428571429</ele><time>2026-04-24T12:36:16.969Z</time></trkpt><trkpt lat="45.710562" lon="9.5994384"><ele>245.71428571428572</ele><time>2026-04-24T12:36:17.97Z</time></trkpt><trkpt lat="45.7105687" lon="9.5993377"><ele>245.57142857142858</ele><time>2026-04-24T12:36:18.969Z</time></trkpt><trkpt lat="45.7105711" lon="9.5992387"><ele>245.42857142857144</ele><time>2026-04-24T12:36:19.969Z</time></trkpt><trkpt lat="45.7105781" lon="9.5991273"><ele>245.28571428571428</ele><time>2026-04-24T12:36:20.969Z</time></trkpt><trkpt lat="45.710581" lon="9.5990235"><ele>245.14285714285714</ele><time>2026-04-24T12:36:21.97Z</time></trkpt><trkpt lat="45.7105945" lon="9.5989157"><ele>245.0</ele><time>2026-04-24T12:36:22.969Z</time></trkpt><trkpt lat="45.7105921" lon="9.5988137"><ele>245.0</ele><time>2026-04-24T12:36:23.97Z</time></trkpt><trkpt lat="45.7105924" lon="9.598712"><ele>245.0</ele><time>2026-04-24T12:36:24.969Z</time></trkpt><trkpt lat="45.7105923" lon="9.5986162"><ele>245.0</ele><time>2026-04-24T12:36:25.969Z</time></trkpt><trkpt lat="45.7105985" lon="9.5985057"><ele>245.0</ele><time>2026-04-24T12:36:26.97Z</time></trkpt><trkpt lat="45.7106041" lon="9.598405"><ele>245.0</ele><time>2026-04-24T12:36:27.97Z</time></trkpt><trkpt lat="45.7106063" lon="9.5983036"><ele>245.0</ele><time>2026-04-24T12:36:28.969Z</time></trkpt><trkpt lat="45.7106114" lon="9.5981919"><ele>245.0</ele><time>2026-04-24T12:36:29.97Z</time></trkpt><trkpt lat="45.7106163" lon="9.5980876"><ele>244.83333333333334</ele><time>2026-04-24T12:36:30.97Z</time></trkpt><trkpt lat="45.7106165" lon="9.5978981"><ele>244.66666666666669</ele><time>2026-04-24T12:36:32.969Z</time></trkpt><trkpt lat="45.7106172" lon="9.5977981"><ele>244.5</ele><time>2026-04-24T12:36:33.97Z</time></trkpt><trkpt lat="45.7106249" lon="9.5977067"><ele>244.33333333333331</ele><time>2026-04-24T12:36:34.969Z</time></trkpt><trkpt lat="45.7106299" lon="9.5975943"><ele>244.16666666666666</ele><time>2026-04-24T12:36:35.97Z</time></trkpt><trkpt lat="45.7106373" lon="9.5974893"><ele>244.0</ele><time>2026-04-24T12:36:36.969Z</time></trkpt><trkpt lat="45.710639" lon="9.5973885"><ele>243.99999999999997</ele><time>2026-04-24T12:36:37.969Z</time></trkpt><trkpt lat="45.7106441" lon="9.5972861"><ele>244.0</ele><time>2026-04-24T12:36:38.97Z</time></trkpt><trkpt lat="45.7106514" lon="9.5971787"><ele>243.99999999999997</ele><time>2026-04-24T12:36:39.969Z</time></trkpt><trkpt lat="45.7106534" lon="9.597075"><ele>243.99999999999997</ele><time>2026-04-24T12:36:40.969Z</time></trkpt><trkpt lat="45.7106567" lon="9.5969735"><ele>244.0</ele><time>2026-04-24T12:36:41.969Z</time></trkpt><trkpt lat="45.7106564" lon="9.5968724"><ele>243.99999999999997</ele><time>2026-04-24T12:36:42.969Z</time></trkpt><trkpt lat="45.7106568" lon="9.5967642"><ele>243.99999999999997</ele><time>2026-04-24T12:36:43.97Z</time></trkpt><trkpt lat="45.7106605" lon="9.5966639"><ele>243.66666666666666</ele><time>2026-04-24T12:36:44.969Z</time></trkpt><trkpt lat="45.7106711" lon="9.5965363"><ele>243.33333333333331</ele><time>2026-04-24T12:36:45.969Z</time></trkpt><trkpt lat="45.710673" lon="9.5964167"><ele>243.0</ele><time>2026-04-24T12:36:46.969Z</time></trkpt><trkpt lat="45.7106743" lon="9.5963082"><ele>242.66666666666669</ele><time>2026-04-24T12:36:47.969Z</time></trkpt><trkpt lat="45.7106725" lon="9.5962019"><ele>242.33333333333334</ele><time>2026-04-24T12:36:48.97Z</time></trkpt><trkpt lat="45.710676" lon="9.5960947"><ele>242.0</ele><time>2026-04-24T12:36:49.97Z</time></trkpt><trkpt lat="45.7106774" lon="9.5959846"><ele>241.50000000000003</ele><time>2026-04-24T12:36:50.97Z</time></trkpt><trkpt lat="45.7106714" lon="9.5958769"><ele>241.0</ele><time>2026-04-24T12:36:51.969Z</time></trkpt><trkpt lat="45.7106572" lon="9.5957818"><ele>240.5</ele><time>2026-04-24T12:36:52.969Z</time></trkpt><trkpt lat="45.7106295" lon="9.5956907"><ele>240.0</ele><time>2026-04-24T12:36:53.969Z</time></trkpt><trkpt lat="45.7105811" lon="9.5956145"><ele>239.50000000000003</ele><time>2026-04-24T12:36:54.969Z</time></trkpt><trkpt lat="45.710532" lon="9.5955552"><ele>239.0</ele><time>2026-04-24T12:36:55.969Z</time></trkpt><trkpt lat="45.710424" lon="9.5954517"><ele>239.00000000000003</ele><time>2026-04-24T12:36:57.969Z</time></trkpt><trkpt lat="45.7103666" lon="9.5953837"><ele>239.0</ele><time>2026-04-24T12:36:58.969Z</time></trkpt><trkpt lat="45.7103121" lon="9.5953385"><ele>239.00000000000003</ele><time>2026-04-24T12:36:59.969Z</time></trkpt><trkpt lat="45.710258" lon="9.5952902"><ele>239.00000000000003</ele><time>2026-04-24T12:37:00.969Z</time></trkpt><trkpt lat="45.7102032" lon="9.5952388"><ele>239.0</ele><time>2026-04-24T12:37:01.969Z</time></trkpt><trkpt lat="45.7101495" lon="9.595189"><ele>239.00000000000003</ele><time>2026-04-24T12:37:02.97Z</time></trkpt><trkpt lat="45.7100461" lon="9.5951084"><ele>239.00000000000003</ele><time>2026-04-24T12:37:04.97Z</time></trkpt><trkpt lat="45.7099403" lon="9.5950146"><ele>239.25</ele><time>2026-04-24T12:37:06.97Z</time></trkpt><trkpt lat="45.7098385" lon="9.5949278"><ele>239.5</ele><time>2026-04-24T12:37:08.969Z</time></trkpt><trkpt lat="45.7097393" lon="9.594846"><ele>239.75</ele><time>2026-04-24T12:37:10.969Z</time></trkpt><trkpt lat="45.7096418" lon="9.5947669"><ele>240.0</ele><time>2026-04-24T12:37:12.969Z</time></trkpt><trkpt lat="45.7095338" lon="9.5947017"><ele>240.0</ele><time>2026-04-24T12:37:14.969Z</time></trkpt><trkpt lat="45.7094297" lon="9.5946501"><ele>240.0</ele><time>2026-04-24T12:37:16.97Z</time></trkpt><trkpt lat="45.7093169" lon="9.5945868"><ele>240.0</ele><time>2026-04-24T12:37:18.969Z</time></trkpt><trkpt lat="45.7092057" lon="9.5945397"><ele>240.0</ele><time>2026-04-24T12:37:20.97Z</time></trkpt><trkpt lat="45.7090874" lon="9.5944812"><ele>239.8</ele><time>2026-04-24T12:37:22.969Z</time></trkpt><trkpt lat="45.708971" lon="9.5944299"><ele>239.6</ele><time>2026-04-24T12:37:24.969Z</time></trkpt><trkpt lat="45.70891" lon="9.5944034"><ele>239.39999999999998</ele><time>2026-04-24T12:37:25.97Z</time></trkpt><trkpt lat="45.7088415" lon="9.5943766"><ele>239.2</ele><time>2026-04-24T12:37:26.969Z</time></trkpt><trkpt lat="45.7087245" lon="9.5943304"><ele>239.0</ele><time>2026-04-24T12:37:28.969Z</time></trkpt><trkpt lat="45.7086111" lon="9.5942836"><ele>239.39999999999998</ele><time>2026-04-24T12:37:30.969Z</time></trkpt><trkpt lat="45.7084906" lon="9.5942266"><ele>239.79999999999998</ele><time>2026-04-24T12:37:32.969Z</time></trkpt><trkpt lat="45.7084309" lon="9.5941964"><ele>240.20000000000002</ele><time>2026-04-24T12:37:33.969Z</time></trkpt><trkpt lat="45.7083182" lon="9.5941413"><ele>240.60000000000002</ele><time>2026-04-24T12:37:35.969Z</time></trkpt><trkpt lat="45.7082515" lon="9.5941127"><ele>241.0</ele><time>2026-04-24T12:37:36.969Z</time></trkpt><trkpt lat="45.7081842" lon="9.5940817"><ele>240.99999999999997</ele><time>2026-04-24T12:37:37.97Z</time></trkpt><trkpt lat="45.708114" lon="9.5940505"><ele>241.0</ele><time>2026-04-24T12:37:38.969Z</time></trkpt><trkpt lat="45.7080349" lon="9.5940152"><ele>241.0</ele><time>2026-04-24T12:37:39.97Z</time></trkpt><trkpt lat="45.7079563" lon="9.5939655"><ele>241.0</ele><time>2026-04-24T12:37:40.969Z</time></trkpt><trkpt lat="45.707889" lon="9.5939339"><ele>240.99999999999997</ele><time>2026-04-24T12:37:41.969Z</time></trkpt><trkpt lat="45.7078156" lon="9.5938984"><ele>241.0</ele><time>2026-04-24T12:37:42.97Z</time></trkpt><trkpt lat="45.7077462" lon="9.593858"><ele>240.83333333333331</ele><time>2026-04-24T12:37:43.969Z</time></trkpt><trkpt lat="45.7076735" lon="9.593821"><ele>240.66666666666666</ele><time>2026-04-24T12:37:44.969Z</time></trkpt><trkpt lat="45.7076002" lon="9.5937763"><ele>240.5</ele><time>2026-04-24T12:37:45.969Z</time></trkpt><trkpt lat="45.7075265" lon="9.593733"><ele>240.33333333333331</ele><time>2026-04-24T12:37:46.969Z</time></trkpt><trkpt lat="45.7074565" lon="9.5936933"><ele>240.16666666666666</ele><time>2026-04-24T12:37:47.969Z</time></trkpt><trkpt lat="45.7073917" lon="9.5936457"><ele>240.0</ele><time>2026-04-24T12:37:48.969Z</time></trkpt><trkpt lat="45.7073233" lon="9.5936046"><ele>239.71428571428572</ele><time>2026-04-24T12:37:49.97Z</time></trkpt><trkpt lat="45.7072528" lon="9.5935754"><ele>239.42857142857142</ele><time>2026-04-24T12:37:50.969Z</time></trkpt><trkpt lat="45.7071782" lon="9.5935393"><ele>239.14285714285714</ele><time>2026-04-24T12:37:51.969Z</time></trkpt><trkpt lat="45.7071104" lon="9.5935119"><ele>238.85714285714286</ele><time>2026-04-24T12:37:52.97Z</time></trkpt><trkpt lat="45.707041" lon="9.5934825"><ele>238.57142857142856</ele><time>2026-04-24T12:37:53.969Z</time></trkpt><trkpt lat="45.706976" lon="9.5934576"><ele>238.28571428571428</ele><time>2026-04-24T12:37:54.969Z</time></trkpt><trkpt lat="45.7069096" lon="9.5934396"><ele>238.0</ele><time>2026-04-24T12:37:55.969Z</time></trkpt><trkpt lat="45.706847" lon="9.5933977"><ele>237.60000000000002</ele><time>2026-04-24T12:37:56.969Z</time></trkpt><trkpt lat="45.706762" lon="9.5933121"><ele>237.20000000000002</ele><time>2026-04-24T12:37:58.969Z</time></trkpt><trkpt lat="45.7067116" lon="9.593235"><ele>236.8</ele><time>2026-04-24T12:38:00.969Z</time></trkpt><trkpt lat="45.7066434" lon="9.5931937"><ele>236.4</ele><time>2026-04-24T12:38:02.969Z</time></trkpt><trkpt lat="45.7065358" lon="9.5932281"><ele>236.0</ele><time>2026-04-24T12:38:04.969Z</time></trkpt><trkpt lat="45.7064487" lon="9.593259"><ele>236.0</ele><time>2026-04-24T12:38:06.969Z</time></trkpt><trkpt lat="45.7063608" lon="9.593319"><ele>236.00000000000003</ele><time>2026-04-24T12:38:08.969Z</time></trkpt><trkpt lat="45.7062979" lon="9.5933257"><ele>236.00000000000003</ele><time>2026-04-24T12:38:09.969Z</time></trkpt><trkpt lat="45.7062178" lon="9.5933912"><ele>236.0</ele><time>2026-04-24T12:38:11.969Z</time></trkpt><trkpt lat="45.7061003" lon="9.5934572"><ele>236.0</ele><time>2026-04-24T12:38:13.969Z</time></trkpt><trkpt lat="45.7059813" lon="9.5935286"><ele>235.66666666666669</ele><time>2026-04-24T12:38:15.969Z</time></trkpt><trkpt lat="45.7059234" lon="9.5935778"><ele>235.33333333333334</ele><time>2026-04-24T12:38:16.97Z</time></trkpt><trkpt lat="45.7058618" lon="9.5936158"><ele>235.0</ele><time>2026-04-24T12:38:17.969Z</time></trkpt><trkpt lat="45.7057527" lon="9.59369"><ele>234.66666666666669</ele><time>2026-04-24T12:38:19.969Z</time></trkpt><trkpt lat="45.7056959" lon="9.5937368"><ele>234.33333333333334</ele><time>2026-04-24T12:38:20.97Z</time></trkpt><trkpt lat="45.7056253" lon="9.5937829"><ele>234.0</ele><time>2026-04-24T12:38:21.969Z</time></trkpt><trkpt lat="45.7055579" lon="9.593817"><ele>234.0</ele><time>2026-04-24T12:38:22.969Z</time></trkpt><trkpt lat="45.7054808" lon="9.593861"><ele>234.00000000000003</ele><time>2026-04-24T12:38:23.969Z</time></trkpt><trkpt lat="45.705414" lon="9.5938901"><ele>234.0</ele><time>2026-04-24T12:38:24.969Z</time></trkpt><trkpt lat="45.7053408" lon="9.5939278"><ele>234.0</ele><time>2026-04-24T12:38:25.969Z</time></trkpt><trkpt lat="45.7052738" lon="9.5939604"><ele>234.00000000000003</ele><time>2026-04-24T12:38:26.969Z</time></trkpt><trkpt lat="45.705207" lon="9.5939958"><ele>234.0</ele><time>2026-04-24T12:38:27.969Z</time></trkpt><trkpt lat="45.7051417" lon="9.5940325"><ele>234.0</ele><time>2026-04-24T12:38:28.969Z</time></trkpt><trkpt lat="45.7050257" lon="9.5940619"><ele>233.5</ele><time>2026-04-24T12:38:30.969Z</time></trkpt><trkpt lat="45.7049357" lon="9.5940578"><ele>233.0</ele><time>2026-04-24T12:38:31.969Z</time></trkpt><trkpt lat="45.7048308" lon="9.594031"><ele>232.5</ele><time>2026-04-24T12:38:32.969Z</time></trkpt><trkpt lat="45.704784" lon="9.5939495"><ele>232.0</ele><time>2026-04-24T12:38:33.969Z</time></trkpt><trkpt lat="45.7047434" lon="9.5938693"><ele>231.5</ele><time>2026-04-24T12:38:34.969Z</time></trkpt><trkpt lat="45.7047177" lon="9.5937812"><ele>231.0</ele><time>2026-04-24T12:38:35.969Z</time></trkpt><trkpt lat="45.7046972" lon="9.5936865"><ele>231.0</ele><time>2026-04-24T12:38:36.97Z</time></trkpt><trkpt lat="45.7046626" lon="9.5935916"><ele>231.0</ele><time>2026-04-24T12:38:37.97Z</time></trkpt><trkpt lat="45.7046338" lon="9.5934936"><ele>231.0</ele><time>2026-04-24T12:38:38.969Z</time></trkpt><trkpt lat="45.7046039" lon="9.5934046"><ele>231.0</ele><time>2026-04-24T12:38:39.969Z</time></trkpt><trkpt lat="45.7045806" lon="9.5933098"><ele>231.0</ele><time>2026-04-24T12:38:40.969Z</time></trkpt><trkpt lat="45.7045583" lon="9.5932142"><ele>231.0</ele><time>2026-04-24T12:38:41.97Z</time></trkpt><trkpt lat="45.7045385" lon="9.5931186"><ele>231.0</ele><time>2026-04-24T12:38:42.969Z</time></trkpt><trkpt lat="45.7045232" lon="9.5930227"><ele>231.0</ele><time>2026-04-24T12:38:43.97Z</time></trkpt><trkpt lat="45.7045017" lon="9.5929226"><ele>231.0</ele><time>2026-04-24T12:38:44.969Z</time></trkpt><trkpt lat="45.7044762" lon="9.5928293"><ele>231.0</ele><time>2026-04-24T12:38:45.969Z</time></trkpt><trkpt lat="45.704445" lon="9.5927414"><ele>231.0</ele><time>2026-04-24T12:38:46.97Z</time></trkpt><trkpt lat="45.7044165" lon="9.5926477"><ele>231.0</ele><time>2026-04-24T12:38:47.969Z</time></trkpt><trkpt lat="45.7043809" lon="9.5925564"><ele>231.0</ele><time>2026-04-24T12:38:48.969Z</time></trkpt><trkpt lat="45.7043459" lon="9.5924709"><ele>231.0</ele><time>2026-04-24T12:38:49.97Z</time></trkpt><trkpt lat="45.7043057" lon="9.5923943"><ele>231.0</ele><time>2026-04-24T12:38:50.97Z</time></trkpt><trkpt lat="45.7043105" lon="9.5922887"><ele>231.0</ele><time>2026-04-24T12:38:51.969Z</time></trkpt><trkpt lat="45.7043066" lon="9.5921284"><ele>231.0</ele><time>2026-04-24T12:38:53.969Z</time></trkpt><trkpt lat="45.7043109" lon="9.5920361"><ele>231.0</ele><time>2026-04-24T12:38:56.97Z</time></trkpt><trkpt lat="45.7043487" lon="9.5919627"><ele>231.0</ele><time>2026-04-24T12:39:12.969Z</time></trkpt><trkpt lat="45.7043308" lon="9.5918697"><ele>231.0</ele><time>2026-04-24T12:39:15.97Z</time></trkpt><trkpt lat="45.7042506" lon="9.5918894"><ele>231.0</ele><time>2026-04-24T12:39:18.969Z</time></trkpt><trkpt lat="45.7041798" lon="9.5919277"><ele>231.00000000000003</ele><time>2026-04-24T12:39:20.969Z</time></trkpt><trkpt lat="45.7040928" lon="9.5919901"><ele>231.00000000000003</ele><time>2026-04-24T12:39:22.969Z</time></trkpt><trkpt lat="45.7039989" lon="9.5920354"><ele>231.0</ele><time>2026-04-24T12:39:24.969Z</time></trkpt><trkpt lat="45.7039023" lon="9.5920992"><ele>231.0</ele><time>2026-04-24T12:39:26.969Z</time></trkpt><trkpt lat="45.7038003" lon="9.5921672"><ele>231.0</ele><time>2026-04-24T12:39:28.969Z</time></trkpt><trkpt lat="45.703704" lon="9.592232"><ele>231.0</ele><time>2026-04-24T12:39:30.969Z</time></trkpt><trkpt lat="45.7035961" lon="9.5923068"><ele>231.0</ele><time>2026-04-24T12:39:32.969Z</time></trkpt><trkpt lat="45.7034789" lon="9.5923641"><ele>231.0</ele><time>2026-04-24T12:39:34.969Z</time></trkpt><trkpt lat="45.7033669" lon="9.5924288"><ele>231.0</ele><time>2026-04-24T12:39:36.969Z</time></trkpt><trkpt lat="45.7032831" lon="9.592507"><ele>231.0</ele><time>2026-04-24T12:39:38.97Z</time></trkpt><trkpt lat="45.7031792" lon="9.59257"><ele>231.0</ele><time>2026-04-24T12:39:40.969Z</time></trkpt><trkpt lat="45.7030612" lon="9.5926274"><ele>231.0</ele><time>2026-04-24T12:39:42.97Z</time></trkpt><trkpt lat="45.702954" lon="9.5926787"><ele>231.0</ele><time>2026-04-24T12:39:44.97Z</time></trkpt><trkpt lat="45.7028598" lon="9.5927365"><ele>231.0</ele><time>2026-04-24T12:39:46.97Z</time></trkpt><trkpt lat="45.7027949" lon="9.5927645"><ele>231.0</ele><time>2026-04-24T12:39:47.969Z</time></trkpt><trkpt lat="45.7027263" lon="9.5927785"><ele>231.0</ele><time>2026-04-24T12:39:48.969Z</time></trkpt><trkpt lat="45.7026224" lon="9.5928413"><ele>231.0</ele><time>2026-04-24T12:39:50.97Z</time></trkpt><trkpt lat="45.7025542" lon="9.5928783"><ele>231.0</ele><time>2026-04-24T12:39:51.97Z</time></trkpt><trkpt lat="45.7024495" lon="9.5929139"><ele>230.33333333333334</ele><time>2026-04-24T12:39:53.97Z</time></trkpt><trkpt lat="45.7023866" lon="9.5929361"><ele>229.66666666666669</ele><time>2026-04-24T12:39:54.969Z</time></trkpt><trkpt lat="45.7022689" lon="9.5929728"><ele>229.0</ele><time>2026-04-24T12:39:56.969Z</time></trkpt><trkpt lat="45.7021979" lon="9.5929901"><ele>228.33333333333334</ele><time>2026-04-24T12:39:57.969Z</time></trkpt><trkpt lat="45.7021333" lon="9.5930153"><ele>227.66666666666669</ele><time>2026-04-24T12:39:58.97Z</time></trkpt><trkpt lat="45.7020293" lon="9.5930483"><ele>227.0</ele><time>2026-04-24T12:40:00.969Z</time></trkpt><trkpt lat="45.7019473" lon="9.5930702"><ele>227.00000000000003</ele><time>2026-04-24T12:40:01.97Z</time></trkpt><trkpt lat="45.7018376" lon="9.5930991"><ele>227.0</ele><time>2026-04-24T12:40:03.969Z</time></trkpt><trkpt lat="45.7017686" lon="9.5931154"><ele>227.0</ele><time>2026-04-24T12:40:04.969Z</time></trkpt><trkpt lat="45.7016925" lon="9.5931359"><ele>227.0</ele><time>2026-04-24T12:40:05.97Z</time></trkpt><trkpt lat="45.701618" lon="9.5931642"><ele>227.00000000000003</ele><time>2026-04-24T12:40:06.969Z</time></trkpt><trkpt lat="45.7015387" lon="9.5931696"><ele>227.0</ele><time>2026-04-24T12:40:07.969Z</time></trkpt><trkpt lat="45.7014626" lon="9.593184"><ele>227.0</ele><time>2026-04-24T12:40:08.969Z</time></trkpt><trkpt lat="45.7013815" lon="9.5932115"><ele>227.0</ele><time>2026-04-24T12:40:09.97Z</time></trkpt><trkpt lat="45.7012517" lon="9.5932502"><ele>227.0</ele><time>2026-04-24T12:40:11.969Z</time></trkpt><trkpt lat="45.7011843" lon="9.5932632"><ele>227.0</ele><time>2026-04-24T12:40:12.97Z</time></trkpt><trkpt lat="45.7011165" lon="9.5932642"><ele>227.0</ele><time>2026-04-24T12:40:13.969Z</time></trkpt><trkpt lat="45.7010123" lon="9.5932312"><ele>227.0</ele><time>2026-04-24T12:40:15.969Z</time></trkpt><trkpt lat="45.7009489" lon="9.5931794"><ele>227.0</ele><time>2026-04-24T12:40:16.969Z</time></trkpt><trkpt lat="45.7008915" lon="9.5931158"><ele>227.0</ele><time>2026-04-24T12:40:17.969Z</time></trkpt><trkpt lat="45.7008265" lon="9.5929844"><ele>227.0</ele><time>2026-04-24T12:40:19.97Z</time></trkpt><trkpt lat="45.7007458" lon="9.5928631"><ele>227.0</ele><time>2026-04-24T12:40:21.969Z</time></trkpt><trkpt lat="45.7006359" lon="9.5928028"><ele>227.0</ele><time>2026-04-24T12:40:23.969Z</time></trkpt><trkpt lat="45.7005247" lon="9.5927891"><ele>227.0</ele><time>2026-04-24T12:40:25.97Z</time></trkpt><trkpt lat="45.7004445" lon="9.5928386"><ele>227.0</ele><time>2026-04-24T12:40:27.969Z</time></trkpt><trkpt lat="45.7003674" lon="9.5929392"><ele>227.0</ele><time>2026-04-24T12:40:29.969Z</time></trkpt><trkpt lat="45.7003043" lon="9.5930435"><ele>227.0</ele><time>2026-04-24T12:40:31.969Z</time></trkpt><trkpt lat="45.70031" lon="9.5931858"><ele>227.0</ele><time>2026-04-24T12:40:33.969Z</time></trkpt><trkpt lat="45.7003567" lon="9.5933263"><ele>227.0</ele><time>2026-04-24T12:40:35.969Z</time></trkpt><trkpt lat="45.7004375" lon="9.5934313"><ele>227.0</ele><time>2026-04-24T12:40:37.969Z</time></trkpt><trkpt lat="45.7005388" lon="9.5934833"><ele>227.0</ele><time>2026-04-24T12:40:39.97Z</time></trkpt><trkpt lat="45.7006014" lon="9.5934942"><ele>227.0</ele><time>2026-04-24T12:40:40.969Z</time></trkpt><trkpt lat="45.7006671" lon="9.5935282"><ele>227.00000000000003</ele><time>2026-04-24T12:40:41.97Z</time></trkpt><trkpt lat="45.7007344" lon="9.5935567"><ele>227.0</ele><time>2026-04-24T12:40:42.969Z</time></trkpt><trkpt lat="45.7007988" lon="9.5936004"><ele>227.0</ele><time>2026-04-24T12:40:43.969Z</time></trkpt><trkpt lat="45.7008819" lon="9.593666"><ele>227.0</ele><time>2026-04-24T12:40:44.969Z</time></trkpt><trkpt lat="45.7009546" lon="9.5937457"><ele>227.00000000000003</ele><time>2026-04-24T12:40:45.969Z</time></trkpt><trkpt lat="45.7010165" lon="9.5937959"><ele>227.0</ele><time>2026-04-24T12:40:46.969Z</time></trkpt><trkpt lat="45.7010704" lon="9.5938567"><ele>226.2</ele><time>2026-04-24T12:40:47.969Z</time></trkpt><trkpt lat="45.701128" lon="9.5939208"><ele>225.39999999999998</ele><time>2026-04-24T12:40:48.969Z</time></trkpt><trkpt lat="45.7011915" lon="9.5939849"><ele>224.60000000000002</ele><time>2026-04-24T12:40:49.969Z</time></trkpt><trkpt lat="45.7012447" lon="9.5940355"><ele>223.8</ele><time>2026-04-24T12:40:50.969Z</time></trkpt><trkpt lat="45.7013396" lon="9.5941586"><ele>223.0</ele><time>2026-04-24T12:40:52.969Z</time></trkpt><trkpt lat="45.7014502" lon="9.5942667"><ele>223.0</ele><time>2026-04-24T12:40:54.969Z</time></trkpt><trkpt lat="45.701508" lon="9.5943199"><ele>223.0</ele><time>2026-04-24T12:40:55.969Z</time></trkpt><trkpt lat="45.701559" lon="9.5943728"><ele>223.0</ele><time>2026-04-24T12:40:56.97Z</time></trkpt><trkpt lat="45.7016574" lon="9.5944818"><ele>223.0</ele><time>2026-04-24T12:40:58.969Z</time></trkpt><trkpt lat="45.7017643" lon="9.5946123"><ele>223.0</ele><time>2026-04-24T12:41:00.969Z</time></trkpt><trkpt lat="45.7018236" lon="9.5946838"><ele>223.0</ele><time>2026-04-24T12:41:01.97Z</time></trkpt><trkpt lat="45.7018785" lon="9.594748"><ele>223.0</ele><time>2026-04-24T12:41:02.969Z</time></trkpt><trkpt lat="45.7019329" lon="9.5948057"><ele>223.0</ele><time>2026-04-24T12:41:03.969Z</time></trkpt><trkpt lat="45.702039" lon="9.5949074"><ele>223.0</ele><time>2026-04-24T12:41:05.97Z</time></trkpt><trkpt lat="45.7020919" lon="9.5949726"><ele>223.0</ele><time>2026-04-24T12:41:06.97Z</time></trkpt><trkpt lat="45.7021869" lon="9.5950828"><ele>223.0</ele><time>2026-04-24T12:41:08.97Z</time></trkpt><trkpt lat="45.7022697" lon="9.5951956"><ele>223.0</ele><time>2026-04-24T12:41:10.97Z</time></trkpt><trkpt lat="45.7023299" lon="9.5953256"><ele>223.0</ele><time>2026-04-24T12:41:12.969Z</time></trkpt><trkpt lat="45.7023807" lon="9.5954571"><ele>223.0</ele><time>2026-04-24T12:41:14.969Z</time></trkpt><trkpt lat="45.7024125" lon="9.5955883"><ele>223.0</ele><time>2026-04-24T12:41:16.969Z</time></trkpt><trkpt lat="45.7024323" lon="9.5957201"><ele>223.99999999999997</ele><time>2026-04-24T12:41:18.97Z</time></trkpt><trkpt lat="45.7024473" lon="9.5958239"><ele>225.0</ele><time>2026-04-24T12:41:20.969Z</time></trkpt><trkpt lat="45.7024514" lon="9.5959512"><ele>226.0</ele><time>2026-04-24T12:41:22.969Z</time></trkpt><trkpt lat="45.7024481" lon="9.5960645"><ele>227.0</ele><time>2026-04-24T12:41:24.969Z</time></trkpt><trkpt lat="45.7024402" lon="9.5961717"><ele>227.99999999999997</ele><time>2026-04-24T12:41:26.969Z</time></trkpt><trkpt lat="45.7024339" lon="9.5962931"><ele>229.0</ele><time>2026-04-24T12:41:28.969Z</time></trkpt><trkpt lat="45.7024222" lon="9.5964125"><ele>229.49999999999997</ele><time>2026-04-24T12:41:30.969Z</time></trkpt><trkpt lat="45.7024096" lon="9.5965393"><ele>230.0</ele><time>2026-04-24T12:41:32.969Z</time></trkpt><trkpt lat="45.7023996" lon="9.5966518"><ele>230.5</ele><time>2026-04-24T12:41:34.97Z</time></trkpt><trkpt lat="45.7023899" lon="9.5967665"><ele>231.0</ele><time>2026-04-24T12:41:36.969Z</time></trkpt><trkpt lat="45.7023742" lon="9.5969037"><ele>231.49999999999997</ele><time>2026-04-24T12:41:38.969Z</time></trkpt><trkpt lat="45.7023629" lon="9.5970251"><ele>232.0</ele><time>2026-04-24T12:41:40.97Z</time></trkpt><trkpt lat="45.7023506" lon="9.5971331"><ele>232.8</ele><time>2026-04-24T12:41:42.969Z</time></trkpt><trkpt lat="45.7023439" lon="9.5972585"><ele>233.6</ele><time>2026-04-24T12:41:44.969Z</time></trkpt><trkpt lat="45.7023279" lon="9.5973924"><ele>234.40000000000003</ele><time>2026-04-24T12:41:46.969Z</time></trkpt><trkpt lat="45.7023128" lon="9.5975227"><ele>235.20000000000002</ele><time>2026-04-24T12:41:48.969Z</time></trkpt><trkpt lat="45.7022974" lon="9.5976529"><ele>236.0</ele><time>2026-04-24T12:41:50.969Z</time></trkpt><trkpt lat="45.7022829" lon="9.5977872"><ele>236.60000000000002</ele><time>2026-04-24T12:41:52.97Z</time></trkpt><trkpt lat="45.7022707" lon="9.5979153"><ele>237.20000000000002</ele><time>2026-04-24T12:41:54.969Z</time></trkpt><trkpt lat="45.7022571" lon="9.5980401"><ele>237.79999999999998</ele><time>2026-04-24T12:41:56.969Z</time></trkpt><trkpt lat="45.7022442" lon="9.5981703"><ele>238.39999999999998</ele><time>2026-04-24T12:41:58.969Z</time></trkpt><trkpt lat="45.702231" lon="9.5982978"><ele>239.0</ele><time>2026-04-24T12:42:00.969Z</time></trkpt><trkpt lat="45.7022141" lon="9.5984282"><ele>239.00000000000003</ele><time>2026-04-24T12:42:02.969Z</time></trkpt><trkpt lat="45.7022026" lon="9.5985497"><ele>239.0</ele><time>2026-04-24T12:42:04.969Z</time></trkpt><trkpt lat="45.7021901" lon="9.5986772"><ele>239.0</ele><time>2026-04-24T12:42:06.969Z</time></trkpt><trkpt lat="45.7021759" lon="9.59881"><ele>239.0</ele><time>2026-04-24T12:42:08.97Z</time></trkpt><trkpt lat="45.7021592" lon="9.5989441"><ele>239.00000000000003</ele><time>2026-04-24T12:42:10.97Z</time></trkpt><trkpt lat="45.7021434" lon="9.5990607"><ele>239.0</ele><time>2026-04-24T12:42:12.969Z</time></trkpt><trkpt lat="45.7021311" lon="9.5991893"><ele>238.79999999999998</ele><time>2026-04-24T12:42:14.969Z</time></trkpt><trkpt lat="45.7021238" lon="9.5993204"><ele>238.59999999999997</ele><time>2026-04-24T12:42:16.97Z</time></trkpt><trkpt lat="45.7021147" lon="9.5994596"><ele>238.4</ele><time>2026-04-24T12:42:18.97Z</time></trkpt><trkpt lat="45.7021053" lon="9.5995906"><ele>238.2</ele><time>2026-04-24T12:42:20.969Z</time></trkpt><trkpt lat="45.7020939" lon="9.59972"><ele>238.0</ele><time>2026-04-24T12:42:22.969Z</time></trkpt><trkpt lat="45.7020784" lon="9.5998579"><ele>238.33333333333331</ele><time>2026-04-24T12:42:24.969Z</time></trkpt><trkpt lat="45.7020405" lon="9.5999959"><ele>238.66666666666666</ele><time>2026-04-24T12:42:26.969Z</time></trkpt><trkpt lat="45.7020078" lon="9.6001167"><ele>239.0</ele><time>2026-04-24T12:42:28.97Z</time></trkpt><trkpt lat="45.7020086" lon="9.6002433"><ele>239.33333333333331</ele><time>2026-04-24T12:42:30.969Z</time></trkpt><trkpt lat="45.702032" lon="9.6003615"><ele>239.66666666666666</ele><time>2026-04-24T12:42:32.969Z</time></trkpt><trkpt lat="45.7020515" lon="9.6004692"><ele>240.0</ele><time>2026-04-24T12:42:34.969Z</time></trkpt><trkpt lat="45.7020556" lon="9.6005642"><ele>240.28571428571428</ele><time>2026-04-24T12:42:36.969Z</time></trkpt><trkpt lat="45.7020595" lon="9.6006697"><ele>240.57142857142856</ele><time>2026-04-24T12:42:38.969Z</time></trkpt><trkpt lat="45.7020672" lon="9.6007688"><ele>240.85714285714283</ele><time>2026-04-24T12:42:40.969Z</time></trkpt><trkpt lat="45.7020739" lon="9.6008738"><ele>241.14285714285714</ele><time>2026-04-24T12:42:42.969Z</time></trkpt><trkpt lat="45.7020789" lon="9.6009659"><ele>241.4285714285714</ele><time>2026-04-24T12:42:44.969Z</time></trkpt><trkpt lat="45.7020847" lon="9.6010611"><ele>241.7142857142857</ele><time>2026-04-24T12:42:46.969Z</time></trkpt><trkpt lat="45.7020729" lon="9.6011906"><ele>242.0</ele><time>2026-04-24T12:42:54.969Z</time></trkpt><trkpt lat="45.7020865" lon="9.6013068"><ele>243.0</ele><time>2026-04-24T12:42:57.969Z</time></trkpt><trkpt lat="45.7020955" lon="9.6014135"><ele>244.0</ele><time>2026-04-24T12:43:00.802Z</time></trkpt><trkpt lat="45.7021132" lon="9.6016392"><ele>245.0</ele><time>2026-04-24T12:43:01.97Z</time></trkpt><trkpt lat="45.7021231" lon="9.6017881"><ele>246.0</ele><time>2026-04-24T12:43:02.969Z</time></trkpt><trkpt lat="45.7021304" lon="9.6019062"><ele>247.0</ele><time>2026-04-24T12:43:03.969Z</time></trkpt><trkpt lat="45.7021334" lon="9.6020007"><ele>247.0</ele><time>2026-04-24T12:43:04.969Z</time></trkpt><trkpt lat="45.7021291" lon="9.6021576"><ele>247.0</ele><time>2026-04-24T12:43:06.969Z</time></trkpt><trkpt lat="45.7021235" lon="9.6023022"><ele>247.0</ele><time>2026-04-24T12:43:08.97Z</time></trkpt><trkpt lat="45.7021115" lon="9.6024489"><ele>247.0</ele><time>2026-04-24T12:43:10.97Z</time></trkpt><trkpt lat="45.7020959" lon="9.6025993"><ele>247.0</ele><time>2026-04-24T12:43:12.969Z</time></trkpt><trkpt lat="45.7020791" lon="9.6027535"><ele>247.75</ele><time>2026-04-24T12:43:14.969Z</time></trkpt><trkpt lat="45.7020648" lon="9.6029118"><ele>248.5</ele><time>2026-04-24T12:43:16.97Z</time></trkpt><trkpt lat="45.7020528" lon="9.6030689"><ele>249.25</ele><time>2026-04-24T12:43:18.97Z</time></trkpt><trkpt lat="45.7020287" lon="9.6032897"><ele>250.0</ele><time>2026-04-24T12:43:20.969Z</time></trkpt><trkpt lat="45.7020208" lon="9.6034043"><ele>249.99999999999997</ele><time>2026-04-24T12:43:21.97Z</time></trkpt><trkpt lat="45.7020122" lon="9.6035233"><ele>250.0</ele><time>2026-04-24T12:43:22.969Z</time></trkpt><trkpt lat="45.7020015" lon="9.6036322"><ele>250.0</ele><time>2026-04-24T12:43:23.97Z</time></trkpt><trkpt lat="45.7019913" lon="9.603742"><ele>250.0</ele><time>2026-04-24T12:43:24.969Z</time></trkpt><trkpt lat="45.7019759" lon="9.6038489"><ele>249.99999999999997</ele><time>2026-04-24T12:43:25.969Z</time></trkpt><trkpt lat="45.7019631" lon="9.6039606"><ele>250.0</ele><time>2026-04-24T12:43:26.969Z</time></trkpt><trkpt lat="45.7019492" lon="9.6040691"><ele>249.83333333333331</ele><time>2026-04-24T12:43:27.969Z</time></trkpt><trkpt lat="45.7019378" lon="9.604189"><ele>249.66666666666666</ele><time>2026-04-24T12:43:28.969Z</time></trkpt><trkpt lat="45.7019286" lon="9.6043106"><ele>249.5</ele><time>2026-04-24T12:43:29.969Z</time></trkpt><trkpt lat="45.7019139" lon="9.604434"><ele>249.33333333333331</ele><time>2026-04-24T12:43:30.969Z</time></trkpt><trkpt lat="45.7019014" lon="9.6045484"><ele>249.16666666666666</ele><time>2026-04-24T12:43:31.97Z</time></trkpt><trkpt lat="45.7018867" lon="9.6046729"><ele>249.0</ele><time>2026-04-24T12:43:32.969Z</time></trkpt><trkpt lat="45.7018777" lon="9.6047983"><ele>249.0</ele><time>2026-04-24T12:43:33.97Z</time></trkpt><trkpt lat="45.7018642" lon="9.60492"><ele>249.0</ele><time>2026-04-24T12:43:34.969Z</time></trkpt><trkpt lat="45.7018516" lon="9.6050292"><ele>249.0</ele><time>2026-04-24T12:43:35.969Z</time></trkpt><trkpt lat="45.7018418" lon="9.6051279"><ele>249.0</ele><time>2026-04-24T12:43:36.969Z</time></trkpt><trkpt lat="45.7018316" lon="9.6052271"><ele>249.0</ele><time>2026-04-24T12:43:37.969Z</time></trkpt><trkpt lat="45.7018154" lon="9.6053232"><ele>249.0</ele><time>2026-04-24T12:43:38.969Z</time></trkpt><trkpt lat="45.7018084" lon="9.6054388"><ele>249.0</ele><time>2026-04-24T12:43:39.969Z</time></trkpt><trkpt lat="45.701795" lon="9.6056006"><ele>248.99999999999997</ele><time>2026-04-24T12:43:41.969Z</time></trkpt><trkpt lat="45.7017795" lon="9.605759"><ele>248.99999999999997</ele><time>2026-04-24T12:43:43.969Z</time></trkpt><trkpt lat="45.7017576" lon="9.605888"><ele>249.0</ele><time>2026-04-24T12:43:45.97Z</time></trkpt><trkpt lat="45.7017403" lon="9.6060211"><ele>249.0</ele><time>2026-04-24T12:43:47.969Z</time></trkpt><trkpt lat="45.7017203" lon="9.6061323"><ele>249.39999999999998</ele><time>2026-04-24T12:43:49.969Z</time></trkpt><trkpt lat="45.701706" lon="9.6062733"><ele>249.79999999999998</ele><time>2026-04-24T12:43:51.969Z</time></trkpt><trkpt lat="45.7016814" lon="9.6064197"><ele>250.20000000000002</ele><time>2026-04-24T12:43:53.97Z</time></trkpt><trkpt lat="45.7016619" lon="9.6065685"><ele>250.60000000000002</ele><time>2026-04-24T12:43:55.969Z</time></trkpt><trkpt lat="45.7016519" lon="9.6067238"><ele>251.0</ele><time>2026-04-24T12:43:57.969Z</time></trkpt><trkpt lat="45.7016404" lon="9.6068799"><ele>251.60000000000002</ele><time>2026-04-24T12:43:59.969Z</time></trkpt><trkpt lat="45.7016374" lon="9.6070456"><ele>252.20000000000002</ele><time>2026-04-24T12:44:01.969Z</time></trkpt><trkpt lat="45.7016529" lon="9.6071943"><ele>252.79999999999998</ele><time>2026-04-24T12:44:03.969Z</time></trkpt><trkpt lat="45.7016468" lon="9.6073152"><ele>253.39999999999998</ele><time>2026-04-24T12:44:05.969Z</time></trkpt><trkpt lat="45.7016273" lon="9.607405"><ele>254.0</ele><time>2026-04-24T12:44:48.969Z</time></trkpt><trkpt lat="45.7016013" lon="9.6075266"><ele>254.00000000000003</ele><time>2026-04-24T12:44:51.969Z</time></trkpt><trkpt lat="45.7015809" lon="9.6076292"><ele>254.0</ele><time>2026-04-24T12:44:53.969Z</time></trkpt><trkpt lat="45.7015547" lon="9.6077513"><ele>254.0</ele><time>2026-04-24T12:44:55.969Z</time></trkpt><trkpt lat="45.7015486" lon="9.6078882"><ele>254.0</ele><time>2026-04-24T12:44:57.969Z</time></trkpt><trkpt lat="45.7015442" lon="9.6080186"><ele>254.00000000000003</ele><time>2026-04-24T12:44:59.969Z</time></trkpt><trkpt lat="45.7015275" lon="9.6081328"><ele>254.0</ele><time>2026-04-24T12:45:01.969Z</time></trkpt><trkpt lat="45.7015068" lon="9.6082492"><ele>254.16666666666669</ele><time>2026-04-24T12:45:03.969Z</time></trkpt><trkpt lat="45.7014883" lon="9.6083388"><ele>254.33333333333334</ele><time>2026-04-24T12:45:05.969Z</time></trkpt><trkpt lat="45.7014318" lon="9.6084165"><ele>254.5</ele><time>2026-04-24T12:45:08.969Z</time></trkpt><trkpt lat="45.7013407" lon="9.6084536"><ele>254.66666666666669</ele><time>2026-04-24T12:45:11.969Z</time></trkpt><trkpt lat="45.7012739" lon="9.6084635"><ele>254.83333333333334</ele><time>2026-04-24T12:45:13.97Z</time></trkpt><trkpt lat="45.7012202" lon="9.6085701"><ele>255.0</ele><time>2026-04-24T12:45:16.969Z</time></trkpt><trkpt lat="45.7011866" lon="9.6086796"><ele>255.0</ele><time>2026-04-24T12:45:18.969Z</time></trkpt><trkpt lat="45.7011464" lon="9.6088035"><ele>255.0</ele><time>2026-04-24T12:45:20.97Z</time></trkpt><trkpt lat="45.7011063" lon="9.6089222"><ele>255.0</ele><time>2026-04-24T12:45:22.969Z</time></trkpt><trkpt lat="45.7010712" lon="9.6090488"><ele>255.0</ele><time>2026-04-24T12:45:24.969Z</time></trkpt><trkpt lat="45.7010286" lon="9.6091803"><ele>255.0</ele><time>2026-04-24T12:45:26.969Z</time></trkpt><trkpt lat="45.7009852" lon="9.6093012"><ele>254.83333333333334</ele><time>2026-04-24T12:45:28.969Z</time></trkpt><trkpt lat="45.7009594" lon="9.6094175"><ele>254.66666666666669</ele><time>2026-04-24T12:45:30.969Z</time></trkpt><trkpt lat="45.7009257" lon="9.6095264"><ele>254.5</ele><time>2026-04-24T12:45:32.969Z</time></trkpt><trkpt lat="45.7008969" lon="9.6096472"><ele>254.33333333333334</ele><time>2026-04-24T12:45:34.969Z</time></trkpt><trkpt lat="45.7008695" lon="9.6097549"><ele>254.16666666666669</ele><time>2026-04-24T12:45:36.969Z</time></trkpt><trkpt lat="45.7008435" lon="9.609851"><ele>254.0</ele><time>2026-04-24T12:45:38.969Z</time></trkpt><trkpt lat="45.7008198" lon="9.6099366"><ele>254.66666666666669</ele><time>2026-04-24T12:45:40.969Z</time></trkpt><trkpt lat="45.7007883" lon="9.6100449"><ele>255.33333333333334</ele><time>2026-04-24T12:45:43.969Z</time></trkpt><trkpt lat="45.7007617" lon="9.6101474"><ele>256.0</ele><time>2026-04-24T12:45:46.969Z</time></trkpt><trkpt lat="45.7007371" lon="9.6102528"><ele>256.6666666666667</ele><time>2026-04-24T12:45:49.969Z</time></trkpt><trkpt lat="45.7007096" lon="9.6103567"><ele>257.3333333333333</ele><time>2026-04-24T12:45:53.969Z</time></trkpt><trkpt lat="45.7006918" lon="9.6104499"><ele>258.0</ele><time>2026-04-24T12:45:56.969Z</time></trkpt><trkpt lat="45.7006866" lon="9.6105682"><ele>259.71428571428567</ele><time>2026-04-24T12:46:00.969Z</time></trkpt><trkpt lat="45.7006897" lon="9.6106759"><ele>261.42857142857144</ele><time>2026-04-24T12:46:04.969Z</time></trkpt><trkpt lat="45.700695" lon="9.6107661"><ele>263.1428571428571</ele><time>2026-04-24T12:46:07.97Z</time></trkpt><trkpt lat="45.700706" lon="9.6108916"><ele>264.85714285714283</ele><time>2026-04-24T12:46:10.97Z</time></trkpt><trkpt lat="45.7007152" lon="9.6109808"><ele>266.57142857142856</ele><time>2026-04-24T12:46:13.969Z</time></trkpt><trkpt lat="45.7007682" lon="9.6110514"><ele>268.2857142857143</ele><time>2026-04-24T12:46:17.969Z</time></trkpt><trkpt lat="45.7008402" lon="9.6110814"><ele>270.0</ele><time>2026-04-24T12:46:21.969Z</time></trkpt><trkpt lat="45.7008975" lon="9.6111195"><ele>272.2857142857143</ele><time>2026-04-24T12:46:24.969Z</time></trkpt><trkpt lat="45.70096" lon="9.6111634"><ele>274.57142857142856</ele><time>2026-04-24T12:46:28.969Z</time></trkpt><trkpt lat="45.701029" lon="9.6112056"><ele>276.85714285714283</ele><time>2026-04-24T12:46:32.969Z</time></trkpt><trkpt lat="45.7010859" lon="9.611246"><ele>279.1428571428571</ele><time>2026-04-24T12:46:35.97Z</time></trkpt><trkpt lat="45.701143" lon="9.6112863"><ele>281.42857142857144</ele><time>2026-04-24T12:46:38.969Z</time></trkpt><trkpt lat="45.7012194" lon="9.6113218"><ele>283.71428571428567</ele><time>2026-04-24T12:46:42.969Z</time></trkpt><trkpt lat="45.7012963" lon="9.6113576"><ele>286.0</ele><time>2026-04-24T12:46:46.969Z</time></trkpt><trkpt lat="45.7013636" lon="9.611374"><ele>286.0</ele><time>2026-04-24T12:46:50.969Z</time></trkpt><trkpt lat="45.7014332" lon="9.611398"><ele>286.0</ele><time>2026-04-24T12:46:54.969Z</time></trkpt><trkpt lat="45.7015007" lon="9.6114327"><ele>286.0</ele><time>2026-04-24T12:46:58.97Z</time></trkpt><trkpt lat="45.7015743" lon="9.6114785"><ele>286.0</ele><time>2026-04-24T12:47:02.969Z</time></trkpt><trkpt lat="45.7016463" lon="9.611524"><ele>286.0</ele><time>2026-04-24T12:47:06.969Z</time></trkpt><trkpt lat="45.7017119" lon="9.6115887"><ele>286.0</ele><time>2026-04-24T12:47:10.969Z</time></trkpt><trkpt lat="45.7017806" lon="9.6116416"><ele>285.99999999999994</ele><time>2026-04-24T12:47:14.969Z</time></trkpt><trkpt lat="45.7018536" lon="9.6116758"><ele>286.0</ele><time>2026-04-24T12:47:18.969Z</time></trkpt><trkpt lat="45.7019181" lon="9.6116951"><ele>286.0</ele><time>2026-04-24T12:47:22.969Z</time></trkpt><trkpt lat="45.70198" lon="9.6117347"><ele>286.0</ele><time>2026-04-24T12:47:26.969Z</time></trkpt><trkpt lat="45.7020423" lon="9.61178"><ele>286.0</ele><time>2026-04-24T12:47:30.969Z</time></trkpt><trkpt lat="45.7021049" lon="9.6118196"><ele>285.99999999999994</ele><time>2026-04-24T12:47:34.969Z</time></trkpt><trkpt lat="45.7021725" lon="9.611872"><ele>286.0</ele><time>2026-04-24T12:47:38.969Z</time></trkpt><trkpt lat="45.702186" lon="9.6119611"><ele>285.57142857142856</ele><time>2026-04-24T12:47:44.969Z</time></trkpt><trkpt lat="45.7021092" lon="9.611963"><ele>285.1428571428571</ele><time>2026-04-24T12:47:53.969Z</time></trkpt><trkpt lat="45.7020435" lon="9.6119542"><ele>284.7142857142857</ele><time>2026-04-24T12:47:57.969Z</time></trkpt><trkpt lat="45.7020267" lon="9.6120496"><ele>284.2857142857143</ele><time>2026-04-24T12:48:01.97Z</time></trkpt><trkpt lat="45.7020367" lon="9.6121512"><ele>283.8571428571429</ele><time>2026-04-24T12:48:05.97Z</time></trkpt><trkpt lat="45.702019" lon="9.6122497"><ele>283.42857142857144</ele><time>2026-04-24T12:48:09.97Z</time></trkpt><trkpt lat="45.7019917" lon="9.6123449"><ele>283.0</ele><time>2026-04-24T12:48:13.97Z</time></trkpt><trkpt lat="45.7019713" lon="9.6124396"><ele>286.8333333333333</ele><time>2026-04-24T12:48:17.969Z</time></trkpt><trkpt lat="45.7019717" lon="9.6125454"><ele>290.66666666666663</ele><time>2026-04-24T12:48:21.97Z</time></trkpt><trkpt lat="45.7019735" lon="9.6126395"><ele>294.5</ele><time>2026-04-24T12:48:24.969Z</time></trkpt><trkpt lat="45.7019862" lon="9.6127398"><ele>298.3333333333333</ele><time>2026-04-24T12:48:27.97Z</time></trkpt><trkpt lat="45.7020125" lon="9.6128551"><ele>302.1666666666667</ele><time>2026-04-24T12:48:30.969Z</time></trkpt><trkpt lat="45.7020406" lon="9.6129734"><ele>306.0</ele><time>2026-04-24T12:48:33.97Z</time></trkpt><trkpt lat="45.7020672" lon="9.6130694"><ele>306.3333333333333</ele><time>2026-04-24T12:48:36.969Z</time></trkpt><trkpt lat="45.702089" lon="9.613157"><ele>306.6666666666667</ele><time>2026-04-24T12:48:38.969Z</time></trkpt><trkpt lat="45.7021131" lon="9.613261"><ele>307.0</ele><time>2026-04-24T12:48:40.97Z</time></trkpt><trkpt lat="45.7021344" lon="9.6133572"><ele>307.33333333333337</ele><time>2026-04-24T12:48:42.969Z</time></trkpt><trkpt lat="45.7021623" lon="9.6134608"><ele>307.6666666666667</ele><time>2026-04-24T12:48:44.969Z</time></trkpt><trkpt lat="45.7022012" lon="9.6135703"><ele>308.0</ele><time>2026-04-24T12:48:46.969Z</time></trkpt><trkpt lat="45.7022449" lon="9.6136867"><ele>308.0</ele><time>2026-04-24T12:48:48.969Z</time></trkpt><trkpt lat="45.7022932" lon="9.6137761"><ele>308.0</ele><time>2026-04-24T12:48:50.969Z</time></trkpt><trkpt lat="45.7023401" lon="9.6138763"><ele>308.0</ele><time>2026-04-24T12:48:52.97Z</time></trkpt><trkpt lat="45.7023812" lon="9.6139921"><ele>308.0</ele><time>2026-04-24T12:48:54.969Z</time></trkpt><trkpt lat="45.7024173" lon="9.6141023"><ele>308.0</ele><time>2026-04-24T12:48:55.97Z</time></trkpt><trkpt lat="45.7024351" lon="9.6142063"><ele>308.0</ele><time>2026-04-24T12:48:56.969Z</time></trkpt><trkpt lat="45.7024583" lon="9.6143128"><ele>308.0</ele><time>2026-04-24T12:48:57.969Z</time></trkpt><trkpt lat="45.7025067" lon="9.6144138"><ele>308.0</ele><time>2026-04-24T12:48:59.97Z</time></trkpt><trkpt lat="45.7025444" lon="9.6145656"><ele>308.0</ele><time>2026-04-24T12:49:01.969Z</time></trkpt><trkpt lat="45.7025285" lon="9.6147246"><ele>308.0</ele><time>2026-04-24T12:49:03.969Z</time></trkpt><trkpt lat="45.7025069" lon="9.6149028"><ele>308.0</ele><time>2026-04-24T12:49:05.969Z</time></trkpt><trkpt lat="45.7025255" lon="9.6150428"><ele>305.4</ele><time>2026-04-24T12:49:06.97Z</time></trkpt><trkpt lat="45.7025318" lon="9.6151672"><ele>302.8</ele><time>2026-04-24T12:49:07.969Z</time></trkpt><trkpt lat="45.7025292" lon="9.6152845"><ele>300.2</ele><time>2026-04-24T12:49:08.97Z</time></trkpt><trkpt lat="45.7025189" lon="9.6154536"><ele>297.6</ele><time>2026-04-24T12:49:10.969Z</time></trkpt><trkpt lat="45.7025232" lon="9.6156188"><ele>295.0</ele><time>2026-04-24T12:49:12.969Z</time></trkpt><trkpt lat="45.702555" lon="9.6157373"><ele>293.0</ele><time>2026-04-24T12:49:13.969Z</time></trkpt><trkpt lat="45.7025834" lon="9.6158374"><ele>291.0</ele><time>2026-04-24T12:49:14.969Z</time></trkpt><trkpt lat="45.7026141" lon="9.6159459"><ele>289.0</ele><time>2026-04-24T12:49:15.969Z</time></trkpt><trkpt lat="45.7026436" lon="9.6160459"><ele>287.0</ele><time>2026-04-24T12:49:16.969Z</time></trkpt><trkpt lat="45.702666" lon="9.6161479"><ele>285.0</ele><time>2026-04-24T12:49:17.97Z</time></trkpt><trkpt lat="45.7026787" lon="9.6162647"><ele>283.0</ele><time>2026-04-24T12:49:18.97Z</time></trkpt><trkpt lat="45.7026911" lon="9.6163727"><ele>281.4</ele><time>2026-04-24T12:49:19.969Z</time></trkpt><trkpt lat="45.702695" lon="9.6164682"><ele>279.8</ele><time>2026-04-24T12:49:20.969Z</time></trkpt><trkpt lat="45.7027005" lon="9.6166421"><ele>278.2</ele><time>2026-04-24T12:49:22.97Z</time></trkpt><trkpt lat="45.7026954" lon="9.616773"><ele>276.6</ele><time>2026-04-24T12:49:24.969Z</time></trkpt><trkpt lat="45.7026504" lon="9.6168745"><ele>275.0</ele><time>2026-04-24T12:49:26.969Z</time></trkpt><trkpt lat="45.7025483" lon="9.6169466"><ele>273.8</ele><time>2026-04-24T12:49:28.969Z</time></trkpt><trkpt lat="45.7024768" lon="9.6170096"><ele>272.6</ele><time>2026-04-24T12:49:30.969Z</time></trkpt><trkpt lat="45.7024205" lon="9.6170926"><ele>271.4</ele><time>2026-04-24T12:49:38.97Z</time></trkpt><trkpt lat="45.7024506" lon="9.6172272"><ele>270.2</ele><time>2026-04-24T12:49:41.969Z</time></trkpt><trkpt lat="45.7024861" lon="9.6173561"><ele>269.0</ele><time>2026-04-24T12:49:43.969Z</time></trkpt><trkpt lat="45.7025502" lon="9.6174935"><ele>269.0</ele><time>2026-04-24T12:49:45.97Z</time></trkpt><trkpt lat="45.7025963" lon="9.6176168"><ele>269.0</ele><time>2026-04-24T12:49:47.969Z</time></trkpt><trkpt lat="45.702641" lon="9.6177438"><ele>269.0</ele><time>2026-04-24T12:49:49.969Z</time></trkpt><trkpt lat="45.7026875" lon="9.6178703"><ele>269.0</ele><time>2026-04-24T12:49:51.969Z</time></trkpt><trkpt lat="45.7027209" lon="9.6180039"><ele>269.0</ele><time>2026-04-24T12:49:53.97Z</time></trkpt><trkpt lat="45.702747" lon="9.6181397"><ele>274.75</ele><time>2026-04-24T12:49:55.97Z</time></trkpt><trkpt lat="45.7027597" lon="9.6182847"><ele>280.5</ele><time>2026-04-24T12:49:57.969Z</time></trkpt><trkpt lat="45.7027722" lon="9.6184431"><ele>286.25</ele><time>2026-04-24T12:49:59.969Z</time></trkpt><trkpt lat="45.7027895" lon="9.6186109"><ele>292.0</ele><time>2026-04-24T12:50:01.969Z</time></trkpt><trkpt lat="45.7027972" lon="9.6187864"><ele>292.0</ele><time>2026-04-24T12:50:03.969Z</time></trkpt><trkpt lat="45.7028004" lon="9.6189497"><ele>292.0</ele><time>2026-04-24T12:50:05.969Z</time></trkpt><trkpt lat="45.7027995" lon="9.6191256"><ele>292.0</ele><time>2026-04-24T12:50:07.97Z</time></trkpt><trkpt lat="45.702797" lon="9.6192862"><ele>292.0</ele><time>2026-04-24T12:50:09.97Z</time></trkpt><trkpt lat="45.7027966" lon="9.6194687"><ele>293.2</ele><time>2026-04-24T12:50:11.97Z</time></trkpt><trkpt lat="45.7027981" lon="9.6196273"><ele>294.4</ele><time>2026-04-24T12:50:13.969Z</time></trkpt><trkpt lat="45.7027855" lon="9.6197992"><ele>295.6</ele><time>2026-04-24T12:50:15.969Z</time></trkpt><trkpt lat="45.7027297" lon="9.6199357"><ele>296.8</ele><time>2026-04-24T12:50:17.969Z</time></trkpt><trkpt lat="45.7026485" lon="9.6200209"><ele>298.0</ele><time>2026-04-24T12:50:19.969Z</time></trkpt><trkpt lat="45.7025526" lon="9.6200518"><ele>293.4</ele><time>2026-04-24T12:50:21.97Z</time></trkpt><trkpt lat="45.7024639" lon="9.6200853"><ele>288.8</ele><time>2026-04-24T12:50:23.969Z</time></trkpt><trkpt lat="45.7023903" lon="9.6200985"><ele>284.2</ele><time>2026-04-24T12:50:24.969Z</time></trkpt><trkpt lat="45.7022716" lon="9.6201159"><ele>279.6</ele><time>2026-04-24T12:50:26.97Z</time></trkpt><trkpt lat="45.7021637" lon="9.6201676"><ele>275.0</ele><time>2026-04-24T12:50:28.969Z</time></trkpt><trkpt lat="45.7020865" lon="9.6201765"><ele>275.0</ele><time>2026-04-24T12:50:29.969Z</time></trkpt><trkpt lat="45.7019754" lon="9.6202433"><ele>275.0</ele><time>2026-04-24T12:50:31.969Z</time></trkpt><trkpt lat="45.7019128" lon="9.6202616"><ele>275.0</ele><time>2026-04-24T12:50:32.969Z</time></trkpt><trkpt lat="45.7018077" lon="9.6203427"><ele>275.0</ele><time>2026-04-24T12:50:34.969Z</time></trkpt><trkpt lat="45.7017164" lon="9.6204616"><ele>275.0</ele><time>2026-04-24T12:50:36.97Z</time></trkpt><trkpt lat="45.7016294" lon="9.6205579"><ele>275.6</ele><time>2026-04-24T12:50:38.969Z</time></trkpt><trkpt lat="45.7015416" lon="9.6206628"><ele>276.2</ele><time>2026-04-24T12:50:40.969Z</time></trkpt><trkpt lat="45.7014688" lon="9.6207754"><ele>276.8</ele><time>2026-04-24T12:50:42.97Z</time></trkpt><trkpt lat="45.7013763" lon="9.6208556"><ele>277.4</ele><time>2026-04-24T12:50:44.969Z</time></trkpt><trkpt lat="45.7013065" lon="9.6208586"><ele>278.0</ele><time>2026-04-24T12:50:45.969Z</time></trkpt><trkpt lat="45.7011999" lon="9.6209215"><ele>276.0</ele><time>2026-04-24T12:50:47.969Z</time></trkpt><trkpt lat="45.7010789" lon="9.6209687"><ele>274.0</ele><time>2026-04-24T12:50:49.969Z</time></trkpt><trkpt lat="45.700997" lon="9.6209367"><ele>272.0</ele><time>2026-04-24T12:50:52.969Z</time></trkpt><trkpt lat="45.7007916" lon="9.6209424"><ele>270.0</ele><time>2026-04-24T12:50:56.969Z</time></trkpt><trkpt lat="45.7006723" lon="9.6209553"><ele>270.0</ele><time>2026-04-24T12:50:57.969Z</time></trkpt><trkpt lat="45.7005843" lon="9.6209873"><ele>270.0</ele><time>2026-04-24T12:50:58.969Z</time></trkpt><trkpt lat="45.7005059" lon="9.6210016"><ele>270.0</ele><time>2026-04-24T12:50:59.97Z</time></trkpt><trkpt lat="45.7004184" lon="9.6210165"><ele>270.0</ele><time>2026-04-24T12:51:00.969Z</time></trkpt><trkpt lat="45.700345" lon="9.6210427"><ele>270.0</ele><time>2026-04-24T12:51:01.97Z</time></trkpt><trkpt lat="45.7002703" lon="9.6210443"><ele>270.0</ele><time>2026-04-24T12:51:02.969Z</time></trkpt><trkpt lat="45.7001904" lon="9.6210652"><ele>269.8</ele><time>2026-04-24T12:51:03.969Z</time></trkpt><trkpt lat="45.7001161" lon="9.6210853"><ele>269.6</ele><time>2026-04-24T12:51:04.969Z</time></trkpt><trkpt lat="45.6999984" lon="9.6211219"><ele>269.4</ele><time>2026-04-24T12:51:06.97Z</time></trkpt><trkpt lat="45.6999022" lon="9.6212408"><ele>269.2</ele><time>2026-04-24T12:51:08.969Z</time></trkpt><trkpt lat="45.6998432" lon="9.621321"><ele>269.0</ele><time>2026-04-24T12:51:09.969Z</time></trkpt><trkpt lat="45.6997926" lon="9.6214764"><ele>269.0</ele><time>2026-04-24T12:51:11.969Z</time></trkpt><trkpt lat="45.6997478" lon="9.621632"><ele>269.0</ele><time>2026-04-24T12:51:13.969Z</time></trkpt><trkpt lat="45.6997317" lon="9.621721"><ele>269.0</ele><time>2026-04-24T12:51:14.97Z</time></trkpt><trkpt lat="45.6997739" lon="9.6218705"><ele>269.0</ele><time>2026-04-24T12:51:16.969Z</time></trkpt><trkpt lat="45.699805" lon="9.6220186"><ele>269.0</ele><time>2026-04-24T12:51:18.969Z</time></trkpt><trkpt lat="45.6998415" lon="9.6221901"><ele>267.6666666666667</ele><time>2026-04-24T12:51:20.97Z</time></trkpt><trkpt lat="45.699862" lon="9.6223414"><ele>266.33333333333337</ele><time>2026-04-24T12:51:22.969Z</time></trkpt><trkpt lat="45.6998776" lon="9.6224577"><ele>265.0</ele><time>2026-04-24T12:51:24.969Z</time></trkpt><trkpt lat="45.6999078" lon="9.622554"><ele>263.6666666666667</ele><time>2026-04-24T12:51:26.97Z</time></trkpt><trkpt lat="45.6999738" lon="9.6225998"><ele>262.3333333333333</ele><time>2026-04-24T12:51:28.969Z</time></trkpt><trkpt lat="45.7000312" lon="9.6226408"><ele>261.0</ele><time>2026-04-24T12:51:29.969Z</time></trkpt><trkpt lat="45.7001166" lon="9.6226902"><ele>261.0</ele><time>2026-04-24T12:51:31.97Z</time></trkpt><trkpt lat="45.7002264" lon="9.6227198"><ele>261.0</ele><time>2026-04-24T12:51:33.969Z</time></trkpt><trkpt lat="45.7003493" lon="9.6227509"><ele>261.0</ele><time>2026-04-24T12:51:35.97Z</time></trkpt><trkpt lat="45.7004147" lon="9.6227538"><ele>261.0</ele><time>2026-04-24T12:51:36.969Z</time></trkpt><trkpt lat="45.7004796" lon="9.6228145"><ele>261.0</ele><time>2026-04-24T12:51:39.969Z</time></trkpt><trkpt lat="45.7004592" lon="9.6230101"><ele>261.5</ele><time>2026-04-24T12:51:42.969Z</time></trkpt><trkpt lat="45.7003796" lon="9.6231063"><ele>262.0</ele><time>2026-04-24T12:51:44.97Z</time></trkpt><trkpt lat="45.7003514" lon="9.623209"><ele>262.5</ele><time>2026-04-24T12:51:46.969Z</time></trkpt><trkpt lat="45.7004137" lon="9.6232831"><ele>263.0</ele><time>2026-04-24T12:51:48.97Z</time></trkpt><trkpt lat="45.7004858" lon="9.6234007"><ele>263.5</ele><time>2026-04-24T12:51:50.969Z</time></trkpt><trkpt lat="45.7005116" lon="9.6234832"><ele>264.0</ele><time>2026-04-24T12:51:51.969Z</time></trkpt><trkpt lat="45.7005829" lon="9.6236517"><ele>264.0</ele><time>2026-04-24T12:51:53.969Z</time></trkpt><trkpt lat="45.7006358" lon="9.6237792"><ele>264.0</ele><time>2026-04-24T12:51:55.97Z</time></trkpt><trkpt lat="45.7006866" lon="9.6238634"><ele>264.0</ele><time>2026-04-24T12:51:56.969Z</time></trkpt><trkpt lat="45.7007387" lon="9.6240091"><ele>264.0</ele><time>2026-04-24T12:51:58.969Z</time></trkpt><trkpt lat="45.700756" lon="9.6241067"><ele>264.0</ele><time>2026-04-24T12:51:59.969Z</time></trkpt><trkpt lat="45.7007722" lon="9.6242234"><ele>264.0</ele><time>2026-04-24T12:52:01.969Z</time></trkpt><trkpt lat="45.7007845" lon="9.6243542"><ele>263.6666666666667</ele><time>2026-04-24T12:52:03.97Z</time></trkpt><trkpt lat="45.7008041" lon="9.6244953"><ele>263.3333333333333</ele><time>2026-04-24T12:52:05.969Z</time></trkpt><trkpt lat="45.7008341" lon="9.6245769"><ele>263.0</ele><time>2026-04-24T12:52:07.969Z</time></trkpt><trkpt lat="45.7009144" lon="9.6246334"><ele>262.66666666666663</ele><time>2026-04-24T12:52:10.97Z</time></trkpt><trkpt lat="45.7009837" lon="9.6246234"><ele>262.3333333333333</ele><time>2026-04-24T12:52:13.969Z</time></trkpt><trkpt lat="45.7010583" lon="9.6246121"><ele>262.0</ele><time>2026-04-24T12:52:16.969Z</time></trkpt><trkpt lat="45.7011476" lon="9.6246167"><ele>263.16666666666663</ele><time>2026-04-24T12:52:19.969Z</time></trkpt><trkpt lat="45.7012234" lon="9.6245991"><ele>264.3333333333333</ele><time>2026-04-24T12:52:22.97Z</time></trkpt><trkpt lat="45.7012865" lon="9.6246215"><ele>265.5</ele><time>2026-04-24T12:52:25.969Z</time></trkpt><trkpt lat="45.7013494" lon="9.6247049"><ele>266.6666666666667</ele><time>2026-04-24T12:52:28.97Z</time></trkpt><trkpt lat="45.7013984" lon="9.6247909"><ele>267.83333333333337</ele><time>2026-04-24T12:52:30.969Z</time></trkpt><trkpt lat="45.7014516" lon="9.6248573"><ele>269.0</ele><time>2026-04-24T12:52:32.969Z</time></trkpt><trkpt lat="45.7013948" lon="9.6247551"><ele>269.0</ele><time>2026-04-24T12:52:34.969Z</time></trkpt><trkpt lat="45.7017546" lon="9.6251371"><ele>269.0</ele><time>2026-04-24T12:52:40.97Z</time></trkpt><trkpt lat="45.7018198" lon="9.6251406"><ele>269.0</ele><time>2026-04-24T12:52:41.969Z</time></trkpt><trkpt lat="45.7019123" lon="9.6251964"><ele>269.0</ele><time>2026-04-24T12:52:43.969Z</time></trkpt><trkpt lat="45.7020391" lon="9.6253013"><ele>269.0</ele><time>2026-04-24T12:52:45.969Z</time></trkpt><trkpt lat="45.7021153" lon="9.6253126"><ele>269.0</ele><time>2026-04-24T12:52:46.97Z</time></trkpt><trkpt lat="45.7021878" lon="9.6253512"><ele>269.0</ele><time>2026-04-24T12:52:47.969Z</time></trkpt><trkpt lat="45.7022459" lon="9.6253887"><ele>268.0</ele><time>2026-04-24T12:52:48.969Z</time></trkpt><trkpt lat="45.7023178" lon="9.6254853"><ele>267.0</ele><time>2026-04-24T12:52:50.969Z</time></trkpt><trkpt lat="45.7024011" lon="9.625627"><ele>266.0</ele><time>2026-04-24T12:52:52.969Z</time></trkpt><trkpt lat="45.7024397" lon="9.6257081"><ele>265.0</ele><time>2026-04-24T12:52:53.969Z</time></trkpt><trkpt lat="45.7024752" lon="9.6258039"><ele>264.0</ele><time>2026-04-24T12:52:54.969Z</time></trkpt><trkpt lat="45.7025193" lon="9.6258805"><ele>263.0</ele><time>2026-04-24T12:52:55.97Z</time></trkpt><trkpt lat="45.7025519" lon="9.6259612"><ele>263.0</ele><time>2026-04-24T12:52:56.969Z</time></trkpt><trkpt lat="45.7025833" lon="9.6260475"><ele>263.0</ele><time>2026-04-24T12:52:57.97Z</time></trkpt><trkpt lat="45.702624" lon="9.6261506"><ele>263.0</ele><time>2026-04-24T12:52:58.969Z</time></trkpt><trkpt lat="45.7026478" lon="9.6262442"><ele>263.0</ele><time>2026-04-24T12:52:59.969Z</time></trkpt><trkpt lat="45.702691" lon="9.6263497"><ele>263.0</ele><time>2026-04-24T12:53:00.97Z</time></trkpt><trkpt lat="45.7027275" lon="9.6264461"><ele>263.0</ele><time>2026-04-24T12:53:01.969Z</time></trkpt><trkpt lat="45.7027709" lon="9.6265848"><ele>263.0</ele><time>2026-04-24T12:53:03.969Z</time></trkpt><trkpt lat="45.7028186" lon="9.6267581"><ele>263.0</ele><time>2026-04-24T12:53:05.969Z</time></trkpt><trkpt lat="45.7028448" lon="9.6268603"><ele>263.0</ele><time>2026-04-24T12:53:06.969Z</time></trkpt><trkpt lat="45.7028672" lon="9.6269513"><ele>263.0</ele><time>2026-04-24T12:53:07.969Z</time></trkpt><trkpt lat="45.7029059" lon="9.627069"><ele>263.0</ele><time>2026-04-24T12:53:08.969Z</time></trkpt><trkpt lat="45.7029316" lon="9.6271679"><ele>263.0</ele><time>2026-04-24T12:53:09.969Z</time></trkpt><trkpt lat="45.7029607" lon="9.6272632"><ele>263.0</ele><time>2026-04-24T12:53:10.97Z</time></trkpt><trkpt lat="45.7029705" lon="9.6274255"><ele>263.0</ele><time>2026-04-24T12:53:12.97Z</time></trkpt><trkpt lat="45.7029178" lon="9.6275454"><ele>263.0</ele><time>2026-04-24T12:53:14.969Z</time></trkpt><trkpt lat="45.7028755" lon="9.627664"><ele>263.0</ele><time>2026-04-24T12:53:17.97Z</time></trkpt><trkpt lat="45.7028962" lon="9.6277711"><ele>263.0</ele><time>2026-04-24T12:53:19.969Z</time></trkpt><trkpt lat="45.7029205" lon="9.6278826"><ele>262.4</ele><time>2026-04-24T12:53:21.969Z</time></trkpt><trkpt lat="45.7029553" lon="9.6280078"><ele>261.8</ele><time>2026-04-24T12:53:23.969Z</time></trkpt><trkpt lat="45.702996" lon="9.6281663"><ele>261.2</ele><time>2026-04-24T12:53:25.969Z</time></trkpt><trkpt lat="45.7030055" lon="9.6282562"><ele>260.6</ele><time>2026-04-24T12:53:26.969Z</time></trkpt><trkpt lat="45.7030448" lon="9.6283741"><ele>260.0</ele><time>2026-04-24T12:53:28.969Z</time></trkpt><trkpt lat="45.7030966" lon="9.6285287"><ele>260.0</ele><time>2026-04-24T12:53:30.969Z</time></trkpt><trkpt lat="45.7031426" lon="9.6285907"><ele>260.0</ele><time>2026-04-24T12:53:32.969Z</time></trkpt><trkpt lat="45.7032098" lon="9.6287007"><ele>260.0</ele><time>2026-04-24T12:53:34.969Z</time></trkpt><trkpt lat="45.7032467" lon="9.6288026"><ele>260.0</ele><time>2026-04-24T12:53:36.969Z</time></trkpt><trkpt lat="45.7032997" lon="9.6289059"><ele>260.0</ele><time>2026-04-24T12:53:38.969Z</time></trkpt><trkpt lat="45.7033556" lon="9.6290195"><ele>260.0</ele><time>2026-04-24T12:53:40.969Z</time></trkpt><trkpt lat="45.7033842" lon="9.629124"><ele>259.0</ele><time>2026-04-24T12:53:42.969Z</time></trkpt><trkpt lat="45.7034097" lon="9.6292633"><ele>258.0</ele><time>2026-04-24T12:53:44.97Z</time></trkpt><trkpt lat="45.7034127" lon="9.6293546"><ele>257.0</ele><time>2026-04-24T12:53:45.969Z</time></trkpt><trkpt lat="45.7034077" lon="9.6295549"><ele>256.0</ele><time>2026-04-24T12:53:47.969Z</time></trkpt><trkpt lat="45.7034027" lon="9.6296692"><ele>255.0</ele><time>2026-04-24T12:53:48.969Z</time></trkpt><trkpt lat="45.7033972" lon="9.6297799"><ele>254.33333333333334</ele><time>2026-04-24T12:53:49.97Z</time></trkpt><trkpt lat="45.7033859" lon="9.6299004"><ele>253.66666666666669</ele><time>2026-04-24T12:53:50.969Z</time></trkpt><trkpt lat="45.7033786" lon="9.6300005"><ele>253.0</ele><time>2026-04-24T12:53:51.969Z</time></trkpt><trkpt lat="45.7033746" lon="9.6301125"><ele>252.33333333333334</ele><time>2026-04-24T12:53:52.97Z</time></trkpt><trkpt lat="45.7033626" lon="9.6302411"><ele>251.66666666666669</ele><time>2026-04-24T12:53:53.97Z</time></trkpt><trkpt lat="45.7033622" lon="9.6304029"><ele>251.0</ele><time>2026-04-24T12:53:54.969Z</time></trkpt><trkpt lat="45.7033553" lon="9.6305376"><ele>250.60000000000002</ele><time>2026-04-24T12:53:55.969Z</time></trkpt><trkpt lat="45.7033448" lon="9.6306659"><ele>250.20000000000002</ele><time>2026-04-24T12:53:56.97Z</time></trkpt><trkpt lat="45.7033474" lon="9.6308095"><ele>249.79999999999998</ele><time>2026-04-24T12:53:57.969Z</time></trkpt><trkpt lat="45.7033498" lon="9.63094"><ele>249.39999999999998</ele><time>2026-04-24T12:53:58.969Z</time></trkpt><trkpt lat="45.703336" lon="9.6310642"><ele>249.0</ele><time>2026-04-24T12:53:59.969Z</time></trkpt><trkpt lat="45.7033121" lon="9.6311922"><ele>249.0</ele><time>2026-04-24T12:54:00.969Z</time></trkpt><trkpt lat="45.7032678" lon="9.6312937"><ele>249.0</ele><time>2026-04-24T12:54:01.969Z</time></trkpt><trkpt lat="45.7032176" lon="9.6313874"><ele>249.0</ele><time>2026-04-24T12:54:02.969Z</time></trkpt><trkpt lat="45.7031634" lon="9.6314778"><ele>249.0</ele><time>2026-04-24T12:54:03.97Z</time></trkpt><trkpt lat="45.7031164" lon="9.6315756"><ele>249.0</ele><time>2026-04-24T12:54:04.969Z</time></trkpt><trkpt lat="45.7030508" lon="9.6316544"><ele>249.0</ele><time>2026-04-24T12:54:05.969Z</time></trkpt><trkpt lat="45.7029913" lon="9.6317314"><ele>249.0</ele><time>2026-04-24T12:54:06.969Z</time></trkpt><trkpt lat="45.7029332" lon="9.6318108"><ele>249.0</ele><time>2026-04-24T12:54:07.97Z</time></trkpt><trkpt lat="45.7028899" lon="9.6318846"><ele>249.0</ele><time>2026-04-24T12:54:08.97Z</time></trkpt><trkpt lat="45.7028288" lon="9.631959"><ele>249.0</ele><time>2026-04-24T12:54:09.969Z</time></trkpt><trkpt lat="45.7027589" lon="9.632021"><ele>249.0</ele><time>2026-04-24T12:54:10.969Z</time></trkpt><trkpt lat="45.7027013" lon="9.6320924"><ele>249.0</ele><time>2026-04-24T12:54:11.969Z</time></trkpt><trkpt lat="45.7026506" lon="9.6321641"><ele>248.14285714285714</ele><time>2026-04-24T12:54:12.969Z</time></trkpt><trkpt lat="45.702608" lon="9.6322475"><ele>247.28571428571428</ele><time>2026-04-24T12:54:13.969Z</time></trkpt><trkpt lat="45.702574" lon="9.6323263"><ele>246.42857142857142</ele><time>2026-04-24T12:54:14.969Z</time></trkpt><trkpt lat="45.7025581" lon="9.6324285"><ele>245.57142857142856</ele><time>2026-04-24T12:54:15.969Z</time></trkpt><trkpt lat="45.7025214" lon="9.6325108"><ele>244.71428571428572</ele><time>2026-04-24T12:54:16.969Z</time></trkpt><trkpt lat="45.7024715" lon="9.6325911"><ele>243.85714285714283</ele><time>2026-04-24T12:54:17.969Z</time></trkpt><trkpt lat="45.7024196" lon="9.6326765"><ele>243.0</ele><time>2026-04-24T12:54:18.969Z</time></trkpt><trkpt lat="45.7023532" lon="9.6327395"><ele>242.8</ele><time>2026-04-24T12:54:19.97Z</time></trkpt><trkpt lat="45.7022457" lon="9.6328385"><ele>242.60000000000002</ele><time>2026-04-24T12:54:21.97Z</time></trkpt><trkpt lat="45.7021852" lon="9.6328821"><ele>242.39999999999998</ele><time>2026-04-24T12:54:22.97Z</time></trkpt><trkpt lat="45.7021288" lon="9.6329327"><ele>242.2</ele><time>2026-04-24T12:54:23.969Z</time></trkpt><trkpt lat="45.7020677" lon="9.6329783"><ele>242.0</ele><time>2026-04-24T12:54:24.969Z</time></trkpt><trkpt lat="45.7019617" lon="9.63307"><ele>242.2</ele><time>2026-04-24T12:54:26.97Z</time></trkpt><trkpt lat="45.7018709" lon="9.6331585"><ele>242.39999999999998</ele><time>2026-04-24T12:54:28.969Z</time></trkpt><trkpt lat="45.7018027" lon="9.6332037"><ele>242.60000000000002</ele><time>2026-04-24T12:54:29.969Z</time></trkpt><trkpt lat="45.7017182" lon="9.6332879"><ele>242.8</ele><time>2026-04-24T12:54:31.969Z</time></trkpt><trkpt lat="45.7016673" lon="9.6334024"><ele>243.0</ele><time>2026-04-24T12:54:33.969Z</time></trkpt><trkpt lat="45.7016452" lon="9.6335421"><ele>243.2</ele><time>2026-04-24T12:54:35.969Z</time></trkpt><trkpt lat="45.7016684" lon="9.6336966"><ele>243.4</ele><time>2026-04-24T12:54:37.969Z</time></trkpt><trkpt lat="45.7017011" lon="9.6338438"><ele>243.59999999999997</ele><time>2026-04-24T12:54:39.969Z</time></trkpt><trkpt lat="45.7017419" lon="9.6339944"><ele>243.79999999999998</ele><time>2026-04-24T12:54:41.969Z</time></trkpt><trkpt lat="45.7017791" lon="9.6341416"><ele>244.0</ele><time>2026-04-24T12:54:43.969Z</time></trkpt><trkpt lat="45.7017993" lon="9.6342741"><ele>244.0</ele><time>2026-04-24T12:54:45.969Z</time></trkpt><trkpt lat="45.70178" lon="9.6344442"><ele>243.99999999999997</ele><time>2026-04-24T12:54:47.969Z</time></trkpt><trkpt lat="45.7017445" lon="9.6345819"><ele>243.99999999999997</ele><time>2026-04-24T12:54:49.969Z</time></trkpt><trkpt lat="45.7016946" lon="9.6347312"><ele>244.0</ele><time>2026-04-24T12:54:51.969Z</time></trkpt><trkpt lat="45.7016825" lon="9.6348754"><ele>244.0</ele><time>2026-04-24T12:54:53.97Z</time></trkpt><trkpt lat="45.701635" lon="9.6350242"><ele>244.2</ele><time>2026-04-24T12:54:55.969Z</time></trkpt><trkpt lat="45.7015779" lon="9.6351784"><ele>244.39999999999998</ele><time>2026-04-24T12:54:57.969Z</time></trkpt><trkpt lat="45.7015264" lon="9.635314"><ele>244.6</ele><time>2026-04-24T12:54:59.969Z</time></trkpt><trkpt lat="45.7014738" lon="9.635454"><ele>244.8</ele><time>2026-04-24T12:55:01.969Z</time></trkpt><trkpt lat="45.7014499" lon="9.6355991"><ele>245.0</ele><time>2026-04-24T12:55:03.969Z</time></trkpt><trkpt lat="45.7014135" lon="9.6357184"><ele>245.16666666666669</ele><time>2026-04-24T12:55:05.969Z</time></trkpt><trkpt lat="45.701378" lon="9.6358609"><ele>245.33333333333334</ele><time>2026-04-24T12:55:07.969Z</time></trkpt><trkpt lat="45.7013436" lon="9.6359731"><ele>245.5</ele><time>2026-04-24T12:55:09.97Z</time></trkpt><trkpt lat="45.7013074" lon="9.6360912"><ele>245.66666666666669</ele><time>2026-04-24T12:55:11.97Z</time></trkpt><trkpt lat="45.7012795" lon="9.63618"><ele>245.83333333333334</ele><time>2026-04-24T12:55:13.969Z</time></trkpt><trkpt lat="45.701254" lon="9.6362849"><ele>246.0</ele><time>2026-04-24T12:55:15.969Z</time></trkpt><trkpt lat="45.7012313" lon="9.63637"><ele>246.60000000000002</ele><time>2026-04-24T12:55:17.969Z</time></trkpt><trkpt lat="45.7011324" lon="9.6363636"><ele>247.20000000000002</ele><time>2026-04-24T12:55:21.969Z</time></trkpt><trkpt lat="45.7010593" lon="9.636346"><ele>247.79999999999998</ele><time>2026-04-24T12:55:23.969Z</time></trkpt><trkpt lat="45.7009537" lon="9.6363091"><ele>248.39999999999998</ele><time>2026-04-24T12:55:25.969Z</time></trkpt><trkpt lat="45.7008777" lon="9.6363154"><ele>249.0</ele><time>2026-04-24T12:55:27.969Z</time></trkpt><trkpt lat="45.7007837" lon="9.6362923"><ele>249.16666666666666</ele><time>2026-04-24T12:55:29.969Z</time></trkpt><trkpt lat="45.7006954" lon="9.6362844"><ele>249.33333333333331</ele><time>2026-04-24T12:55:30.97Z</time></trkpt><trkpt lat="45.7005853" lon="9.6362361"><ele>249.5</ele><time>2026-04-24T12:55:32.969Z</time></trkpt><trkpt lat="45.7005042" lon="9.6362526"><ele>249.66666666666666</ele><time>2026-04-24T12:55:33.97Z</time></trkpt><trkpt lat="45.7004235" lon="9.6362344"><ele>249.83333333333331</ele><time>2026-04-24T12:55:34.969Z</time></trkpt><trkpt lat="45.7003523" lon="9.6362403"><ele>250.0</ele><time>2026-04-24T12:55:35.969Z</time></trkpt><trkpt lat="45.7002719" lon="9.6362184"><ele>249.83333333333331</ele><time>2026-04-24T12:55:36.969Z</time></trkpt><trkpt lat="45.700203" lon="9.6361996"><ele>249.66666666666666</ele><time>2026-04-24T12:55:37.969Z</time></trkpt><trkpt lat="45.7001358" lon="9.6362013"><ele>249.5</ele><time>2026-04-24T12:55:38.97Z</time></trkpt><trkpt lat="45.7000638" lon="9.6361995"><ele>249.33333333333331</ele><time>2026-04-24T12:55:39.969Z</time></trkpt><trkpt lat="45.6999412" lon="9.6361819"><ele>249.16666666666666</ele><time>2026-04-24T12:55:41.969Z</time></trkpt><trkpt lat="45.6998734" lon="9.6361722"><ele>249.0</ele><time>2026-04-24T12:55:42.969Z</time></trkpt><trkpt lat="45.6998008" lon="9.6361639"><ele>249.0</ele><time>2026-04-24T12:55:43.969Z</time></trkpt><trkpt lat="45.6997305" lon="9.6361499"><ele>249.0</ele><time>2026-04-24T12:55:44.969Z</time></trkpt><trkpt lat="45.699663" lon="9.6361372"><ele>249.0</ele><time>2026-04-24T12:55:45.969Z</time></trkpt><trkpt lat="45.6995946" lon="9.6361314"><ele>249.0</ele><time>2026-04-24T12:55:46.969Z</time></trkpt><trkpt lat="45.6994676" lon="9.6360889"><ele>249.0</ele><time>2026-04-24T12:55:48.97Z</time></trkpt><trkpt lat="45.6994034" lon="9.6360821"><ele>249.0</ele><time>2026-04-24T12:55:49.97Z</time></trkpt><trkpt lat="45.6992958" lon="9.6360499"><ele>248.39999999999998</ele><time>2026-04-24T12:55:51.969Z</time></trkpt><trkpt lat="45.6991815" lon="9.6360314"><ele>247.79999999999998</ele><time>2026-04-24T12:55:53.969Z</time></trkpt><trkpt lat="45.6991166" lon="9.6360264"><ele>247.20000000000002</ele><time>2026-04-24T12:55:54.969Z</time></trkpt><trkpt lat="45.6990366" lon="9.6360173"><ele>246.60000000000002</ele><time>2026-04-24T12:55:55.969Z</time></trkpt><trkpt lat="45.6989216" lon="9.6359929"><ele>246.0</ele><time>2026-04-24T12:55:57.969Z</time></trkpt><trkpt lat="45.6988075" lon="9.6359582"><ele>246.0</ele><time>2026-04-24T12:55:59.969Z</time></trkpt><trkpt lat="45.6986833" lon="9.6359415"><ele>246.00000000000003</ele><time>2026-04-24T12:56:01.969Z</time></trkpt><trkpt lat="45.698567" lon="9.6359222"><ele>246.00000000000003</ele><time>2026-04-24T12:56:03.969Z</time></trkpt><trkpt lat="45.6984971" lon="9.6359337"><ele>246.0</ele><time>2026-04-24T12:56:04.969Z</time></trkpt><trkpt lat="45.6983964" lon="9.6359187"><ele>246.0</ele><time>2026-04-24T12:56:06.97Z</time></trkpt><trkpt lat="45.6982893" lon="9.6359073"><ele>246.20000000000002</ele><time>2026-04-24T12:56:08.969Z</time></trkpt><trkpt lat="45.6981875" lon="9.6358846"><ele>246.40000000000003</ele><time>2026-04-24T12:56:10.97Z</time></trkpt><trkpt lat="45.6980925" lon="9.6358952"><ele>246.6</ele><time>2026-04-24T12:56:12.97Z</time></trkpt><trkpt lat="45.6979808" lon="9.6359035"><ele>246.8</ele><time>2026-04-24T12:56:14.969Z</time></trkpt><trkpt lat="45.6978753" lon="9.6359011"><ele>247.0</ele><time>2026-04-24T12:56:16.97Z</time></trkpt><trkpt lat="45.6977744" lon="9.6358808"><ele>247.0</ele><time>2026-04-24T12:56:18.969Z</time></trkpt><trkpt lat="45.6977234" lon="9.6357126"><ele>247.0</ele><time>2026-04-24T12:56:21.969Z</time></trkpt><trkpt lat="45.6976541" lon="9.6356032"><ele>247.0</ele><time>2026-04-24T12:56:23.969Z</time></trkpt><trkpt lat="45.6975448" lon="9.6355481"><ele>247.0</ele><time>2026-04-24T12:56:25.969Z</time></trkpt><trkpt lat="45.6974431" lon="9.6354904"><ele>247.0</ele><time>2026-04-24T12:56:27.969Z</time></trkpt><trkpt lat="45.6973258" lon="9.6354534"><ele>247.0</ele><time>2026-04-24T12:56:29.969Z</time></trkpt><trkpt lat="45.697215" lon="9.6353936"><ele>247.0</ele><time>2026-04-24T12:56:31.97Z</time></trkpt><trkpt lat="45.697102" lon="9.6353392"><ele>247.0</ele><time>2026-04-24T12:56:33.969Z</time></trkpt><trkpt lat="45.6969873" lon="9.6353094"><ele>246.66666666666666</ele><time>2026-04-24T12:56:35.969Z</time></trkpt><trkpt lat="45.6969257" lon="9.6352898"><ele>246.33333333333331</ele><time>2026-04-24T12:56:36.969Z</time></trkpt><trkpt lat="45.6968545" lon="9.6352693"><ele>246.0</ele><time>2026-04-24T12:56:37.97Z</time></trkpt><trkpt lat="45.6967922" lon="9.6352502"><ele>245.66666666666669</ele><time>2026-04-24T12:56:38.969Z</time></trkpt><trkpt lat="45.6966751" lon="9.6352145"><ele>245.33333333333334</ele><time>2026-04-24T12:56:40.969Z</time></trkpt><trkpt lat="45.6965644" lon="9.6351844"><ele>245.0</ele><time>2026-04-24T12:56:42.969Z</time></trkpt><trkpt lat="45.696462" lon="9.635161"><ele>245.0</ele><time>2026-04-24T12:56:44.969Z</time></trkpt><trkpt lat="45.6963614" lon="9.6351293"><ele>245.0</ele><time>2026-04-24T12:56:46.969Z</time></trkpt><trkpt lat="45.6962525" lon="9.6351093"><ele>245.0</ele><time>2026-04-24T12:56:48.969Z</time></trkpt><trkpt lat="45.6961824" lon="9.6350922"><ele>245.0</ele><time>2026-04-24T12:56:49.969Z</time></trkpt><trkpt lat="45.6960369" lon="9.6350463"><ele>245.0</ele><time>2026-04-24T12:56:55.968Z</time></trkpt><trkpt lat="45.6960316" lon="9.6351599"><ele>244.71428571428572</ele><time>2026-04-24T12:57:02.96Z</time></trkpt><trkpt lat="45.696017" lon="9.6352482"><ele>244.42857142857144</ele><time>2026-04-24T12:57:04.96Z</time></trkpt><trkpt lat="45.6960014" lon="9.6353396"><ele>244.14285714285714</ele><time>2026-04-24T12:57:06.961Z</time></trkpt><trkpt lat="45.6959898" lon="9.6354375"><ele>243.85714285714286</ele><time>2026-04-24T12:57:08.96Z</time></trkpt><trkpt lat="45.695986" lon="9.6355369"><ele>243.57142857142858</ele><time>2026-04-24T12:57:10.96Z</time></trkpt><trkpt lat="45.6959826" lon="9.6356323"><ele>243.28571428571428</ele><time>2026-04-24T12:57:12.961Z</time></trkpt><trkpt lat="45.6959492" lon="9.6357481"><ele>243.0</ele><time>2026-04-24T12:57:15.96Z</time></trkpt><trkpt lat="45.6958571" lon="9.6357134"><ele>243.83333333333334</ele><time>2026-04-24T12:57:18.96Z</time></trkpt><trkpt lat="45.6957953" lon="9.6356699"><ele>244.66666666666669</ele><time>2026-04-24T12:57:20.96Z</time></trkpt><trkpt lat="45.6957319" lon="9.6356343"><ele>245.5</ele><time>2026-04-24T12:57:22.961Z</time></trkpt><trkpt lat="45.6956204" lon="9.6356246"><ele>246.33333333333334</ele><time>2026-04-24T12:57:25.96Z</time></trkpt><trkpt lat="45.6955282" lon="9.6356241"><ele>247.16666666666669</ele><time>2026-04-24T12:57:27.96Z</time></trkpt><trkpt lat="45.6954504" lon="9.6356331"><ele>248.0</ele><time>2026-04-24T12:57:29.96Z</time></trkpt><trkpt lat="45.6953675" lon="9.6356578"><ele>248.0</ele><time>2026-04-24T12:57:31.96Z</time></trkpt><trkpt lat="45.6952602" lon="9.6356993"><ele>248.0</ele><time>2026-04-24T12:57:33.96Z</time></trkpt><trkpt lat="45.6951985" lon="9.6357232"><ele>248.0</ele><time>2026-04-24T12:57:34.96Z</time></trkpt><trkpt lat="45.6950864" lon="9.6357637"><ele>248.0</ele><time>2026-04-24T12:57:36.961Z</time></trkpt><trkpt lat="45.694982" lon="9.6357716"><ele>248.0</ele><time>2026-04-24T12:57:38.96Z</time></trkpt><trkpt lat="45.6949143" lon="9.6357797"><ele>247.2</ele><time>2026-04-24T12:57:39.96Z</time></trkpt><trkpt lat="45.6947981" lon="9.635741"><ele>246.4</ele><time>2026-04-24T12:57:41.96Z</time></trkpt><trkpt lat="45.6946931" lon="9.6357428"><ele>245.59999999999997</ele><time>2026-04-24T12:57:43.96Z</time></trkpt><trkpt lat="45.6946161" lon="9.6357408"><ele>244.79999999999998</ele><time>2026-04-24T12:57:45.96Z</time></trkpt><trkpt lat="45.6945471" lon="9.6357678"><ele>244.0</ele><time>2026-04-24T12:57:46.96Z</time></trkpt><trkpt lat="45.6944564" lon="9.6358465"><ele>243.99999999999997</ele><time>2026-04-24T12:57:48.961Z</time></trkpt><trkpt lat="45.6943919" lon="9.6358779"><ele>244.0</ele><time>2026-04-24T12:57:49.96Z</time></trkpt><trkpt lat="45.6942888" lon="9.6359835"><ele>244.0</ele><time>2026-04-24T12:57:51.96Z</time></trkpt><trkpt lat="45.694217" lon="9.6360782"><ele>244.0</ele><time>2026-04-24T12:57:53.96Z</time></trkpt><trkpt lat="45.6941477" lon="9.6361355"><ele>243.99999999999997</ele><time>2026-04-24T12:57:56.961Z</time></trkpt><trkpt lat="45.6940842" lon="9.6361418"><ele>244.0</ele><time>2026-04-24T12:57:58.96Z</time></trkpt><trkpt lat="45.6939946" lon="9.636202"><ele>244.0</ele><time>2026-04-24T12:58:01.96Z</time></trkpt><trkpt lat="45.6939222" lon="9.6362344"><ele>243.99999999999997</ele><time>2026-04-24T12:58:03.96Z</time></trkpt><trkpt lat="45.6938285" lon="9.636219"><ele>243.99999999999997</ele><time>2026-04-24T12:58:05.96Z</time></trkpt><trkpt lat="45.693716" lon="9.6361663"><ele>244.0</ele><time>2026-04-24T12:58:07.96Z</time></trkpt><trkpt lat="45.6935627" lon="9.6361565"><ele>244.0</ele><time>2026-04-24T12:58:08.96Z</time></trkpt><trkpt lat="45.6934534" lon="9.6360634"><ele>243.99999999999997</ele><time>2026-04-24T12:58:10.96Z</time></trkpt><trkpt lat="45.6934012" lon="9.6360105"><ele>244.0</ele><time>2026-04-24T12:58:11.961Z</time></trkpt><trkpt lat="45.6933587" lon="9.6358824"><ele>244.0</ele><time>2026-04-24T12:58:13.96Z</time></trkpt><trkpt lat="45.6934036" lon="9.6357685"><ele>244.0</ele><time>2026-04-24T12:58:15.96Z</time></trkpt><trkpt lat="45.6934697" lon="9.6356816"><ele>243.99999999999997</ele><time>2026-04-24T12:58:17.96Z</time></trkpt><trkpt lat="45.6935089" lon="9.6356045"><ele>244.0</ele><time>2026-04-24T12:58:19.96Z</time></trkpt><trkpt lat="45.6933249" lon="9.6354352"><ele>244.0</ele><time>2026-04-24T12:58:31.96Z</time></trkpt><trkpt lat="45.6932494" lon="9.6354973"><ele>243.99999999999997</ele><time>2026-04-24T12:58:33.961Z</time></trkpt><trkpt lat="45.6931959" lon="9.6356121"><ele>243.99999999999997</ele><time>2026-04-24T12:58:35.961Z</time></trkpt><trkpt lat="45.6931372" lon="9.6357237"><ele>244.0</ele><time>2026-04-24T12:58:37.96Z</time></trkpt><trkpt lat="45.6930513" lon="9.6358176"><ele>244.0</ele><time>2026-04-24T12:58:39.96Z</time></trkpt><trkpt lat="45.6929731" lon="9.6358989"><ele>244.0</ele><time>2026-04-24T12:58:41.96Z</time></trkpt><trkpt lat="45.6928962" lon="9.6359754"><ele>243.99999999999997</ele><time>2026-04-24T12:58:43.961Z</time></trkpt><trkpt lat="45.6927958" lon="9.6360652"><ele>243.99999999999997</ele><time>2026-04-24T12:58:45.96Z</time></trkpt><trkpt lat="45.6927347" lon="9.6361413"><ele>244.0</ele><time>2026-04-24T12:58:47.96Z</time></trkpt><trkpt lat="45.6926413" lon="9.6362182"><ele>244.0</ele><time>2026-04-24T12:58:49.96Z</time></trkpt><trkpt lat="45.6925431" lon="9.6362968"><ele>244.39999999999998</ele><time>2026-04-24T12:58:51.96Z</time></trkpt><trkpt lat="45.6924536" lon="9.6363779"><ele>244.79999999999998</ele><time>2026-04-24T12:58:53.961Z</time></trkpt><trkpt lat="45.6923696" lon="9.6364525"><ele>245.20000000000002</ele><time>2026-04-24T12:58:55.96Z</time></trkpt><trkpt lat="45.6922841" lon="9.6365531"><ele>245.60000000000002</ele><time>2026-04-24T12:58:57.96Z</time></trkpt><trkpt lat="45.6921968" lon="9.6366374"><ele>246.0</ele><time>2026-04-24T12:58:59.961Z</time></trkpt><trkpt lat="45.6921211" lon="9.6367194"><ele>246.0</ele><time>2026-04-24T12:59:01.96Z</time></trkpt><trkpt lat="45.6920181" lon="9.6368107"><ele>246.00000000000003</ele><time>2026-04-24T12:59:03.96Z</time></trkpt><trkpt lat="45.6919415" lon="9.6369078"><ele>246.00000000000003</ele><time>2026-04-24T12:59:05.96Z</time></trkpt><trkpt lat="45.6918736" lon="9.6370316"><ele>246.0</ele><time>2026-04-24T12:59:07.961Z</time></trkpt><trkpt lat="45.6918244" lon="9.6371534"><ele>246.0</ele><time>2026-04-24T12:59:09.96Z</time></trkpt><trkpt lat="45.6918183" lon="9.6373068"><ele>246.0</ele><time>2026-04-24T12:59:11.96Z</time></trkpt><trkpt lat="45.6918092" lon="9.637413"><ele>246.0</ele><time>2026-04-24T12:59:13.961Z</time></trkpt><trkpt lat="45.6917438" lon="9.6373967"><ele>246.0</ele><time>2026-04-24T12:59:23.96Z</time></trkpt><trkpt lat="45.6916598" lon="9.6373784"><ele>246.0</ele><time>2026-04-24T12:59:33.96Z</time></trkpt><trkpt lat="45.6916026" lon="9.6373297"><ele>246.0</ele><time>2026-04-24T12:59:35.96Z</time></trkpt><trkpt lat="45.6915691" lon="9.6372197"><ele>246.0</ele><time>2026-04-24T12:59:37.96Z</time></trkpt><trkpt lat="45.6914857" lon="9.6371581"><ele>246.0</ele><time>2026-04-24T12:59:40.96Z</time></trkpt><trkpt lat="45.6914077" lon="9.6371679"><ele>246.00000000000003</ele><time>2026-04-24T12:59:42.961Z</time></trkpt><trkpt lat="45.6912937" lon="9.6371953"><ele>246.00000000000003</ele><time>2026-04-24T12:59:44.96Z</time></trkpt><trkpt lat="45.6911821" lon="9.637197"><ele>246.0</ele><time>2026-04-24T12:59:46.96Z</time></trkpt><trkpt lat="45.6911157" lon="9.6371941"><ele>246.0</ele><time>2026-04-24T12:59:47.96Z</time></trkpt><trkpt lat="45.6910084" lon="9.6371453"><ele>244.60000000000002</ele><time>2026-04-24T12:59:49.96Z</time></trkpt><trkpt lat="45.6908852" lon="9.6370952"><ele>243.20000000000002</ele><time>2026-04-24T12:59:51.96Z</time></trkpt><trkpt lat="45.6908054" lon="9.6370675"><ele>241.79999999999998</ele><time>2026-04-24T12:59:52.961Z</time></trkpt><trkpt lat="45.6907158" lon="9.6370632"><ele>240.39999999999998</ele><time>2026-04-24T12:59:53.96Z</time></trkpt><trkpt lat="45.6906451" lon="9.6370542"><ele>239.0</ele><time>2026-04-24T12:59:54.961Z</time></trkpt><trkpt lat="45.6905234" lon="9.6370449"><ele>239.0</ele><time>2026-04-24T12:59:55.96Z</time></trkpt><trkpt lat="45.6904425" lon="9.6371258"><ele>238.99999999999997</ele><time>2026-04-24T12:59:57.961Z</time></trkpt><trkpt lat="45.6904127" lon="9.6372355"><ele>238.99999999999997</ele><time>2026-04-24T12:59:59.961Z</time></trkpt><trkpt lat="45.6903588" lon="9.6373933"><ele>239.0</ele><time>2026-04-24T13:00:01.96Z</time></trkpt><trkpt lat="45.6903578" lon="9.637563"><ele>239.0</ele><time>2026-04-24T13:00:03.961Z</time></trkpt><trkpt lat="45.6903824" lon="9.6377219"><ele>238.50000000000003</ele><time>2026-04-24T13:00:05.96Z</time></trkpt><trkpt lat="45.6904104" lon="9.6378035"><ele>238.0</ele><time>2026-04-24T13:00:06.96Z</time></trkpt><trkpt lat="45.690444" lon="9.6379265"><ele>237.5</ele><time>2026-04-24T13:00:08.961Z</time></trkpt><trkpt lat="45.6904868" lon="9.638065"><ele>237.0</ele><time>2026-04-24T13:00:10.96Z</time></trkpt><trkpt lat="45.6904533" lon="9.6381628"><ele>236.50000000000003</ele><time>2026-04-24T13:00:13.96Z</time></trkpt><trkpt lat="45.690385" lon="9.6382393"><ele>236.0</ele><time>2026-04-24T13:00:16.96Z</time></trkpt><trkpt lat="45.6903378" lon="9.6383332"><ele>236.00000000000003</ele><time>2026-04-24T13:00:19.96Z</time></trkpt><trkpt lat="45.6902599" lon="9.6383202"><ele>236.0</ele><time>2026-04-24T13:00:23.96Z</time></trkpt><trkpt lat="45.6902034" lon="9.6382478"><ele>236.0</ele><time>2026-04-24T13:00:25.961Z</time></trkpt><trkpt lat="45.6901564" lon="9.6381661"><ele>236.0</ele><time>2026-04-24T13:00:27.96Z</time></trkpt><trkpt lat="45.690104" lon="9.638085"><ele>236.00000000000003</ele><time>2026-04-24T13:00:30.96Z</time></trkpt><trkpt lat="45.6900307" lon="9.6379777"><ele>236.0</ele><time>2026-04-24T13:00:42.96Z</time></trkpt><trkpt lat="45.689965" lon="9.637869"><ele>235.33333333333334</ele><time>2026-04-24T13:00:44.96Z</time></trkpt><trkpt lat="45.6899102" lon="9.6378096"><ele>234.66666666666669</ele><time>2026-04-24T13:00:45.96Z</time></trkpt><trkpt lat="45.6898483" lon="9.6377311"><ele>234.0</ele><time>2026-04-24T13:00:47.961Z</time></trkpt><trkpt lat="45.689785" lon="9.6377107"><ele>233.33333333333331</ele><time>2026-04-24T13:00:49.96Z</time></trkpt><trkpt lat="45.6897773" lon="9.6378237"><ele>232.66666666666666</ele><time>2026-04-24T13:00:50.96Z</time></trkpt><trkpt lat="45.6897558" lon="9.637958"><ele>232.0</ele><time>2026-04-24T13:00:52.96Z</time></trkpt><trkpt lat="45.6897274" lon="9.6381125"><ele>231.8</ele><time>2026-04-24T13:00:54.96Z</time></trkpt><trkpt lat="45.6897046" lon="9.6382642"><ele>231.6</ele><time>2026-04-24T13:00:56.96Z</time></trkpt><trkpt lat="45.6896821" lon="9.6383866"><ele>231.40000000000003</ele><time>2026-04-24T13:00:58.96Z</time></trkpt><trkpt lat="45.6896202" lon="9.638472"><ele>231.20000000000002</ele><time>2026-04-24T13:01:00.96Z</time></trkpt><trkpt lat="45.6895485" lon="9.6384682"><ele>231.0</ele><time>2026-04-24T13:01:02.96Z</time></trkpt><trkpt lat="45.6890404" lon="9.6388178"><ele>231.0</ele><time>2026-04-24T13:01:11.963Z</time></trkpt><trkpt lat="45.6889655" lon="9.6388263"><ele>231.00000000000003</ele><time>2026-04-24T13:01:12.963Z</time></trkpt><trkpt lat="45.6889045" lon="9.6389507"><ele>231.00000000000003</ele><time>2026-04-24T13:01:14.971Z</time></trkpt><trkpt lat="45.6888225" lon="9.639109"><ele>231.0</ele><time>2026-04-24T13:01:16.969Z</time></trkpt><trkpt lat="45.6887416" lon="9.6392397"><ele>231.0</ele><time>2026-04-24T13:01:18.968Z</time></trkpt><trkpt lat="45.6887008" lon="9.6393117"><ele>231.0</ele><time>2026-04-24T13:01:19.969Z</time></trkpt><trkpt lat="45.6886197" lon="9.6394274"><ele>231.00000000000003</ele><time>2026-04-24T13:01:21.968Z</time></trkpt><trkpt lat="45.6885333" lon="9.6395177"><ele>231.00000000000003</ele><time>2026-04-24T13:01:23.969Z</time></trkpt><trkpt lat="45.6884436" lon="9.6395509"><ele>231.0</ele><time>2026-04-24T13:01:25.968Z</time></trkpt><trkpt lat="45.6883671" lon="9.6395795"><ele>231.0</ele><time>2026-04-24T13:01:26.968Z</time></trkpt><trkpt lat="45.6880071" lon="9.6392348"><ele>231.14285714285714</ele><time>2026-04-24T13:01:38.969Z</time></trkpt><trkpt lat="45.6880219" lon="9.6391434"><ele>231.28571428571428</ele><time>2026-04-24T13:01:40.975Z</time></trkpt><trkpt lat="45.6880364" lon="9.6390418"><ele>231.42857142857144</ele><time>2026-04-24T13:01:42.964Z</time></trkpt><trkpt lat="45.6880512" lon="9.6389365"><ele>231.57142857142858</ele><time>2026-04-24T13:01:44.965Z</time></trkpt><trkpt lat="45.6880629" lon="9.6388294"><ele>231.71428571428572</ele><time>2026-04-24T13:01:46.964Z</time></trkpt><trkpt lat="45.6880759" lon="9.6387349"><ele>231.8571428571429</ele><time>2026-04-24T13:01:48.964Z</time></trkpt><trkpt lat="45.6880879" lon="9.6386083"><ele>232.00000000000003</ele><time>2026-04-24T13:01:51.964Z</time></trkpt><trkpt lat="45.6880849" lon="9.6385061"><ele>231.99999999999997</ele><time>2026-04-24T13:01:53.964Z</time></trkpt><trkpt lat="45.6881045" lon="9.6383999"><ele>232.0</ele><time>2026-04-24T13:01:55.964Z</time></trkpt><trkpt lat="45.6881201" lon="9.6382942"><ele>232.0</ele><time>2026-04-24T13:01:57.964Z</time></trkpt><trkpt lat="45.6881179" lon="9.6381687"><ele>232.0</ele><time>2026-04-24T13:02:00.965Z</time></trkpt><trkpt lat="45.6881294" lon="9.6380676"><ele>231.99999999999997</ele><time>2026-04-24T13:02:02.965Z</time></trkpt><trkpt lat="45.6881382" lon="9.6379628"><ele>232.0</ele><time>2026-04-24T13:02:04.964Z</time></trkpt><trkpt lat="45.6881486" lon="9.6378649"><ele>231.66666666666666</ele><time>2026-04-24T13:02:06.964Z</time></trkpt><trkpt lat="45.6881581" lon="9.6377683"><ele>231.33333333333331</ele><time>2026-04-24T13:02:08.964Z</time></trkpt><trkpt lat="45.6881717" lon="9.63766"><ele>231.0</ele><time>2026-04-24T13:02:10.964Z</time></trkpt><trkpt lat="45.6881902" lon="9.6375416"><ele>230.66666666666669</ele><time>2026-04-24T13:02:12.964Z</time></trkpt><trkpt lat="45.688208" lon="9.6374042"><ele>230.33333333333334</ele><time>2026-04-24T13:02:14.965Z</time></trkpt><trkpt lat="45.6882215" lon="9.6372645"><ele>230.0</ele><time>2026-04-24T13:02:16.965Z</time></trkpt><trkpt lat="45.6882403" lon="9.6371025"><ele>229.8</ele><time>2026-04-24T13:02:18.964Z</time></trkpt><trkpt lat="45.6882654" lon="9.6369631"><ele>229.6</ele><time>2026-04-24T13:02:20.965Z</time></trkpt><trkpt lat="45.6882863" lon="9.6368099"><ele>229.39999999999998</ele><time>2026-04-24T13:02:22.964Z</time></trkpt><trkpt lat="45.6882968" lon="9.63667"><ele>229.2</ele><time>2026-04-24T13:02:24.964Z</time></trkpt><trkpt lat="45.6883293" lon="9.6365063"><ele>229.0</ele><time>2026-04-24T13:02:26.964Z</time></trkpt><trkpt lat="45.6883363" lon="9.6363516"><ele>229.0</ele><time>2026-04-24T13:02:28.964Z</time></trkpt><trkpt lat="45.6883519" lon="9.6362021"><ele>228.99999999999997</ele><time>2026-04-24T13:02:30.965Z</time></trkpt><trkpt lat="45.6883694" lon="9.636041"><ele>228.99999999999997</ele><time>2026-04-24T13:02:32.965Z</time></trkpt><trkpt lat="45.6883904" lon="9.6358782"><ele>229.0</ele><time>2026-04-24T13:02:34.964Z</time></trkpt><trkpt lat="45.6884214" lon="9.6357231"><ele>229.0</ele><time>2026-04-24T13:02:36.964Z</time></trkpt><trkpt lat="45.6884387" lon="9.6355678"><ele>229.6</ele><time>2026-04-24T13:02:38.964Z</time></trkpt><trkpt lat="45.6884575" lon="9.6354145"><ele>230.2</ele><time>2026-04-24T13:02:40.964Z</time></trkpt><trkpt lat="45.6884842" lon="9.635247"><ele>230.79999999999998</ele><time>2026-04-24T13:02:42.965Z</time></trkpt><trkpt lat="45.6885007" lon="9.6350953"><ele>231.39999999999998</ele><time>2026-04-24T13:02:44.964Z</time></trkpt><trkpt lat="45.6885206" lon="9.6349387"><ele>232.0</ele><time>2026-04-24T13:02:46.964Z</time></trkpt><trkpt lat="45.6885358" lon="9.6347793"><ele>232.0</ele><time>2026-04-24T13:02:48.964Z</time></trkpt><trkpt lat="45.6885536" lon="9.634607"><ele>232.0</ele><time>2026-04-24T13:02:50.964Z</time></trkpt><trkpt lat="45.6885707" lon="9.6344548"><ele>232.0</ele><time>2026-04-24T13:02:52.964Z</time></trkpt><trkpt lat="45.6886009" lon="9.6343061"><ele>232.0</ele><time>2026-04-24T13:02:54.965Z</time></trkpt><trkpt lat="45.6886322" lon="9.6341789"><ele>232.0</ele><time>2026-04-24T13:02:56.964Z</time></trkpt><trkpt lat="45.6886049" lon="9.6340511"><ele>231.8</ele><time>2026-04-24T13:02:58.964Z</time></trkpt><trkpt lat="45.6885604" lon="9.6339113"><ele>231.6</ele><time>2026-04-24T13:03:00.964Z</time></trkpt><trkpt lat="45.6885328" lon="9.6338282"><ele>231.40000000000003</ele><time>2026-04-24T13:03:01.965Z</time></trkpt><trkpt lat="45.6885105" lon="9.6337439"><ele>231.20000000000002</ele><time>2026-04-24T13:03:02.964Z</time></trkpt><trkpt lat="45.6884675" lon="9.6335823"><ele>231.0</ele><time>2026-04-24T13:03:04.964Z</time></trkpt><trkpt lat="45.6884293" lon="9.6334362"><ele>231.0</ele><time>2026-04-24T13:03:06.964Z</time></trkpt><trkpt lat="45.6883878" lon="9.6332762"><ele>231.00000000000003</ele><time>2026-04-24T13:03:08.964Z</time></trkpt><trkpt lat="45.6883504" lon="9.6330972"><ele>231.00000000000003</ele><time>2026-04-24T13:03:10.964Z</time></trkpt><trkpt lat="45.6883338" lon="9.6330067"><ele>231.0</ele><time>2026-04-24T13:03:11.964Z</time></trkpt><trkpt lat="45.6883155" lon="9.632817"><ele>231.0</ele><time>2026-04-24T13:03:13.964Z</time></trkpt><trkpt lat="45.6883035" lon="9.6326565"><ele>230.83333333333334</ele><time>2026-04-24T13:03:15.964Z</time></trkpt><trkpt lat="45.6882994" lon="9.6325581"><ele>230.66666666666669</ele><time>2026-04-24T13:03:16.964Z</time></trkpt><trkpt lat="45.6882931" lon="9.6323859"><ele>230.5</ele><time>2026-04-24T13:03:18.965Z</time></trkpt><trkpt lat="45.6882895" lon="9.6322939"><ele>230.33333333333334</ele><time>2026-04-24T13:03:19.964Z</time></trkpt><trkpt lat="45.6882809" lon="9.6321136"><ele>230.16666666666669</ele><time>2026-04-24T13:03:21.965Z</time></trkpt><trkpt lat="45.6882804" lon="9.6320178"><ele>230.0</ele><time>2026-04-24T13:03:22.965Z</time></trkpt><trkpt lat="45.6882552" lon="9.6319294"><ele>229.8</ele><time>2026-04-24T13:03:23.964Z</time></trkpt><trkpt lat="45.6882372" lon="9.6317792"><ele>229.6</ele><time>2026-04-24T13:03:25.964Z</time></trkpt><trkpt lat="45.6881985" lon="9.6316328"><ele>229.39999999999998</ele><time>2026-04-24T13:03:27.965Z</time></trkpt><trkpt lat="45.6881693" lon="9.6315493"><ele>229.2</ele><time>2026-04-24T13:03:28.964Z</time></trkpt><trkpt lat="45.688137" lon="9.6314116"><ele>229.0</ele><time>2026-04-24T13:03:30.964Z</time></trkpt><trkpt lat="45.688111" lon="9.6312511"><ele>229.39999999999998</ele><time>2026-04-24T13:03:32.964Z</time></trkpt><trkpt lat="45.6881571" lon="9.6311146"><ele>229.79999999999998</ele><time>2026-04-24T13:03:34.964Z</time></trkpt><trkpt lat="45.6882046" lon="9.630973"><ele>230.20000000000002</ele><time>2026-04-24T13:03:36.964Z</time></trkpt><trkpt lat="45.6882951" lon="9.6309174"><ele>230.60000000000002</ele><time>2026-04-24T13:03:38.965Z</time></trkpt><trkpt lat="45.6883999" lon="9.6309241"><ele>231.0</ele><time>2026-04-24T13:03:40.964Z</time></trkpt><trkpt lat="45.6884744" lon="9.6308996"><ele>231.0</ele><time>2026-04-24T13:03:41.964Z</time></trkpt><trkpt lat="45.6885564" lon="9.6309359"><ele>231.0</ele><time>2026-04-24T13:03:43.964Z</time></trkpt><trkpt lat="45.6886396" lon="9.6309607"><ele>231.0</ele><time>2026-04-24T13:03:45.964Z</time></trkpt><trkpt lat="45.6887356" lon="9.6309603"><ele>231.0</ele><time>2026-04-24T13:03:47.965Z</time></trkpt><trkpt lat="45.688803" lon="9.6310029"><ele>231.0</ele><time>2026-04-24T13:03:49.965Z</time></trkpt><trkpt lat="45.6888976" lon="9.6309658"><ele>231.0</ele><time>2026-04-24T13:03:51.964Z</time></trkpt><trkpt lat="45.6889344" lon="9.6308662"><ele>231.66666666666666</ele><time>2026-04-24T13:03:53.964Z</time></trkpt><trkpt lat="45.6889375" lon="9.6307269"><ele>232.33333333333331</ele><time>2026-04-24T13:03:55.964Z</time></trkpt><trkpt lat="45.6889552" lon="9.6305908"><ele>233.0</ele><time>2026-04-24T13:03:57.965Z</time></trkpt><trkpt lat="45.6889445" lon="9.6304895"><ele>233.66666666666666</ele><time>2026-04-24T13:03:58.964Z</time></trkpt><trkpt lat="45.6888672" lon="9.6304781"><ele>234.33333333333331</ele><time>2026-04-24T13:03:59.965Z</time></trkpt><trkpt lat="45.6888006" lon="9.6304495"><ele>235.0</ele><time>2026-04-24T13:04:01.964Z</time></trkpt><trkpt lat="45.6887017" lon="9.6304162"><ele>235.0</ele><time>2026-04-24T13:04:03.964Z</time></trkpt><trkpt lat="45.6885948" lon="9.6304113"><ele>235.0</ele><time>2026-04-24T13:04:05.965Z</time></trkpt><trkpt lat="45.6885294" lon="9.6303941"><ele>235.0</ele><time>2026-04-24T13:04:06.965Z</time></trkpt><trkpt lat="45.6884453" lon="9.6302774"><ele>235.0</ele><time>2026-04-24T13:04:08.964Z</time></trkpt><trkpt lat="45.6884141" lon="9.6301188"><ele>235.0</ele><time>2026-04-24T13:04:10.964Z</time></trkpt><trkpt lat="45.6883809" lon="9.6299615"><ele>234.0</ele><time>2026-04-24T13:04:12.965Z</time></trkpt><trkpt lat="45.688325" lon="9.6298226"><ele>233.0</ele><time>2026-04-24T13:04:14.964Z</time></trkpt><trkpt lat="45.6883367" lon="9.629678"><ele>232.0</ele><time>2026-04-24T13:04:16.964Z</time></trkpt><trkpt lat="45.6883814" lon="9.6295765"><ele>231.0</ele><time>2026-04-24T13:04:18.964Z</time></trkpt><trkpt lat="45.6884594" lon="9.6294899"><ele>230.0</ele><time>2026-04-24T13:04:20.965Z</time></trkpt><trkpt lat="45.6885476" lon="9.6294076"><ele>230.0</ele><time>2026-04-24T13:04:22.964Z</time></trkpt><trkpt lat="45.6886483" lon="9.629301"><ele>230.0</ele><time>2026-04-24T13:04:24.964Z</time></trkpt><trkpt lat="45.6887321" lon="9.6291707"><ele>230.0</ele><time>2026-04-24T13:04:26.964Z</time></trkpt><trkpt lat="45.68881" lon="9.6290451"><ele>230.0</ele><time>2026-04-24T13:04:28.964Z</time></trkpt><trkpt lat="45.6888777" lon="9.6289121"><ele>230.0</ele><time>2026-04-24T13:04:30.964Z</time></trkpt><trkpt lat="45.6889612" lon="9.6287973"><ele>230.0</ele><time>2026-04-24T13:04:32.964Z</time></trkpt><trkpt lat="45.6890419" lon="9.6286704"><ele>230.0</ele><time>2026-04-24T13:04:34.965Z</time></trkpt><trkpt lat="45.6891239" lon="9.6285389"><ele>230.0</ele><time>2026-04-24T13:04:36.965Z</time></trkpt><trkpt lat="45.6891568" lon="9.6284611"><ele>230.0</ele><time>2026-04-24T13:04:37.964Z</time></trkpt><trkpt lat="45.6892063" lon="9.6283064"><ele>229.75</ele><time>2026-04-24T13:04:39.965Z</time></trkpt><trkpt lat="45.6892328" lon="9.6281316"><ele>229.5</ele><time>2026-04-24T13:04:41.964Z</time></trkpt><trkpt lat="45.6892298" lon="9.6279602"><ele>229.25</ele><time>2026-04-24T13:04:43.964Z</time></trkpt><trkpt lat="45.6892216" lon="9.6277894"><ele>229.0</ele><time>2026-04-24T13:04:45.964Z</time></trkpt><trkpt lat="45.6892168" lon="9.6276101"><ele>229.0</ele><time>2026-04-24T13:04:47.964Z</time></trkpt><trkpt lat="45.6892091" lon="9.6274514"><ele>228.99999999999997</ele><time>2026-04-24T13:04:49.964Z</time></trkpt><trkpt lat="45.6891976" lon="9.6273553"><ele>228.99999999999997</ele><time>2026-04-24T13:04:50.964Z</time></trkpt><trkpt lat="45.689182" lon="9.6271782"><ele>229.0</ele><time>2026-04-24T13:04:52.964Z</time></trkpt><trkpt lat="45.6891718" lon="9.6270107"><ele>229.0</ele><time>2026-04-24T13:04:54.964Z</time></trkpt><trkpt lat="45.689147" lon="9.6268366"><ele>229.2</ele><time>2026-04-24T13:04:56.964Z</time></trkpt><trkpt lat="45.6890971" lon="9.6266964"><ele>229.39999999999998</ele><time>2026-04-24T13:04:58.965Z</time></trkpt><trkpt lat="45.6890457" lon="9.6266146"><ele>229.6</ele><time>2026-04-24T13:04:59.964Z</time></trkpt><trkpt lat="45.6890051" lon="9.6265434"><ele>229.8</ele><time>2026-04-24T13:05:00.964Z</time></trkpt><trkpt lat="45.6889054" lon="9.6264401"><ele>230.0</ele><time>2026-04-24T13:05:02.964Z</time></trkpt><trkpt lat="45.6888074" lon="9.62633"><ele>230.0</ele><time>2026-04-24T13:05:04.964Z</time></trkpt><trkpt lat="45.688701" lon="9.6262406"><ele>230.0</ele><time>2026-04-24T13:05:06.964Z</time></trkpt><trkpt lat="45.6885855" lon="9.6261503"><ele>230.0</ele><time>2026-04-24T13:05:08.965Z</time></trkpt><trkpt lat="45.688481" lon="9.6260747"><ele>230.0</ele><time>2026-04-24T13:05:10.964Z</time></trkpt><trkpt lat="45.6884248" lon="9.6260306"><ele>230.0</ele><time>2026-04-24T13:05:11.964Z</time></trkpt><trkpt lat="45.6883724" lon="9.6259798"><ele>229.8</ele><time>2026-04-24T13:05:12.965Z</time></trkpt><trkpt lat="45.6883191" lon="9.6259286"><ele>229.6</ele><time>2026-04-24T13:05:13.964Z</time></trkpt><trkpt lat="45.6882153" lon="9.6258462"><ele>229.39999999999998</ele><time>2026-04-24T13:05:15.964Z</time></trkpt><trkpt lat="45.6881594" lon="9.6257985"><ele>229.2</ele><time>2026-04-24T13:05:16.965Z</time></trkpt><trkpt lat="45.6880602" lon="9.6257113"><ele>229.0</ele><time>2026-04-24T13:05:18.964Z</time></trkpt><trkpt lat="45.687953" lon="9.6256363"><ele>229.0</ele><time>2026-04-24T13:05:20.964Z</time></trkpt><trkpt lat="45.68785" lon="9.6255421"><ele>228.99999999999997</ele><time>2026-04-24T13:05:22.965Z</time></trkpt><trkpt lat="45.6877937" lon="9.6254976"><ele>228.99999999999997</ele><time>2026-04-24T13:05:23.964Z</time></trkpt><trkpt lat="45.6876827" lon="9.6254305"><ele>229.0</ele><time>2026-04-24T13:05:25.964Z</time></trkpt><trkpt lat="45.6875723" lon="9.6253495"><ele>229.0</ele><time>2026-04-24T13:05:27.964Z</time></trkpt><trkpt lat="45.6874711" lon="9.6252758"><ele>229.2</ele><time>2026-04-24T13:05:29.964Z</time></trkpt><trkpt lat="45.6873799" lon="9.6251744"><ele>229.39999999999998</ele><time>2026-04-24T13:05:31.964Z</time></trkpt><trkpt lat="45.6872814" lon="9.6250837"><ele>229.6</ele><time>2026-04-24T13:05:33.964Z</time></trkpt><trkpt lat="45.6871764" lon="9.6250091"><ele>229.8</ele><time>2026-04-24T13:05:35.964Z</time></trkpt><trkpt lat="45.6871194" lon="9.6249568"><ele>230.0</ele><time>2026-04-24T13:05:36.965Z</time></trkpt><trkpt lat="45.6870192" lon="9.6248807"><ele>230.0</ele><time>2026-04-24T13:05:38.964Z</time></trkpt><trkpt lat="45.686961" lon="9.6248312"><ele>230.0</ele><time>2026-04-24T13:05:39.964Z</time></trkpt><trkpt lat="45.6868583" lon="9.624747"><ele>230.0</ele><time>2026-04-24T13:05:41.964Z</time></trkpt><trkpt lat="45.6867522" lon="9.6246605"><ele>230.0</ele><time>2026-04-24T13:05:43.964Z</time></trkpt><trkpt lat="45.6866453" lon="9.6245819"><ele>230.0</ele><time>2026-04-24T13:05:45.965Z</time></trkpt><trkpt lat="45.6865414" lon="9.6244873"><ele>230.33333333333334</ele><time>2026-04-24T13:05:47.964Z</time></trkpt><trkpt lat="45.6864845" lon="9.6244452"><ele>230.66666666666669</ele><time>2026-04-24T13:05:48.964Z</time></trkpt><trkpt lat="45.6864258" lon="9.6244034"><ele>231.0</ele><time>2026-04-24T13:05:49.964Z</time></trkpt><trkpt lat="45.6863143" lon="9.6243317"><ele>231.33333333333331</ele><time>2026-04-24T13:05:51.965Z</time></trkpt><trkpt lat="45.6862582" lon="9.6242771"><ele>231.66666666666666</ele><time>2026-04-24T13:05:52.964Z</time></trkpt><trkpt lat="45.686201" lon="9.6242272"><ele>232.0</ele><time>2026-04-24T13:05:53.964Z</time></trkpt><trkpt lat="45.6860943" lon="9.6241398"><ele>232.0</ele><time>2026-04-24T13:05:55.964Z</time></trkpt><trkpt lat="45.6859891" lon="9.6240533"><ele>232.0</ele><time>2026-04-24T13:05:57.964Z</time></trkpt><trkpt lat="45.685884" lon="9.6239715"><ele>232.0</ele><time>2026-04-24T13:05:59.964Z</time></trkpt><trkpt lat="45.6857773" lon="9.6238894"><ele>232.0</ele><time>2026-04-24T13:06:01.964Z</time></trkpt><trkpt lat="45.6856638" lon="9.6238064"><ele>232.0</ele><time>2026-04-24T13:06:03.964Z</time></trkpt><trkpt lat="45.6856079" lon="9.6237645"><ele>232.0</ele><time>2026-04-24T13:06:04.965Z</time></trkpt><trkpt lat="45.6855054" lon="9.6236782"><ele>232.0</ele><time>2026-04-24T13:06:06.964Z</time></trkpt><trkpt lat="45.6854095" lon="9.6235909"><ele>232.0</ele><time>2026-04-24T13:06:08.965Z</time></trkpt><trkpt lat="45.6852968" lon="9.6235094"><ele>232.0</ele><time>2026-04-24T13:06:10.964Z</time></trkpt><trkpt lat="45.6851893" lon="9.6234255"><ele>232.2</ele><time>2026-04-24T13:06:12.965Z</time></trkpt><trkpt lat="45.6850795" lon="9.6233406"><ele>232.39999999999998</ele><time>2026-04-24T13:06:14.964Z</time></trkpt><trkpt lat="45.6850231" lon="9.623296"><ele>232.60000000000002</ele><time>2026-04-24T13:06:15.964Z</time></trkpt><trkpt lat="45.6849174" lon="9.6232166"><ele>232.8</ele><time>2026-04-24T13:06:17.964Z</time></trkpt><trkpt lat="45.6848108" lon="9.6231293"><ele>233.0</ele><time>2026-04-24T13:06:19.964Z</time></trkpt><trkpt lat="45.6847486" lon="9.6230828"><ele>233.0</ele><time>2026-04-24T13:06:20.964Z</time></trkpt><trkpt lat="45.6846886" lon="9.6230377"><ele>233.0</ele><time>2026-04-24T13:06:21.964Z</time></trkpt><trkpt lat="45.6845866" lon="9.6229676"><ele>233.0</ele><time>2026-04-24T13:06:23.964Z</time></trkpt><trkpt lat="45.6844832" lon="9.6228767"><ele>233.0</ele><time>2026-04-24T13:06:25.964Z</time></trkpt><trkpt lat="45.684429" lon="9.6228252"><ele>233.0</ele><time>2026-04-24T13:06:26.965Z</time></trkpt><trkpt lat="45.6843268" lon="9.6227348"><ele>233.14285714285717</ele><time>2026-04-24T13:06:28.964Z</time></trkpt><trkpt lat="45.6842284" lon="9.6226318"><ele>233.28571428571428</ele><time>2026-04-24T13:06:30.965Z</time></trkpt><trkpt lat="45.6841842" lon="9.6225653"><ele>233.42857142857144</ele><time>2026-04-24T13:06:31.965Z</time></trkpt><trkpt lat="45.6841369" lon="9.622497"><ele>233.57142857142858</ele><time>2026-04-24T13:06:32.965Z</time></trkpt><trkpt lat="45.6840898" lon="9.6224363"><ele>233.71428571428572</ele><time>2026-04-24T13:06:33.964Z</time></trkpt><trkpt lat="45.6840432" lon="9.6223723"><ele>233.85714285714286</ele><time>2026-04-24T13:06:34.965Z</time></trkpt><trkpt lat="45.6839923" lon="9.6223141"><ele>234.0</ele><time>2026-04-24T13:06:35.965Z</time></trkpt><trkpt lat="45.6838976" lon="9.62222"><ele>234.0</ele><time>2026-04-24T13:06:37.964Z</time></trkpt><trkpt lat="45.6838499" lon="9.6221558"><ele>234.0</ele><time>2026-04-24T13:06:38.965Z</time></trkpt><trkpt lat="45.6837981" lon="9.6220983"><ele>234.0</ele><time>2026-04-24T13:06:39.964Z</time></trkpt><trkpt lat="45.6837053" lon="9.621987"><ele>234.0</ele><time>2026-04-24T13:06:41.965Z</time></trkpt><trkpt lat="45.6836535" lon="9.62193"><ele>234.0</ele><time>2026-04-24T13:06:42.965Z</time></trkpt><trkpt lat="45.6835604" lon="9.6218245"><ele>234.0</ele><time>2026-04-24T13:06:44.964Z</time></trkpt><trkpt lat="45.6835129" lon="9.6217597"><ele>233.2</ele><time>2026-04-24T13:06:45.965Z</time></trkpt><trkpt lat="45.6834606" lon="9.6217042"><ele>232.39999999999998</ele><time>2026-04-24T13:06:46.964Z</time></trkpt><trkpt lat="45.6834119" lon="9.6216337"><ele>231.6</ele><time>2026-04-24T13:06:47.964Z</time></trkpt><trkpt lat="45.6833146" lon="9.6215413"><ele>230.8</ele><time>2026-04-24T13:06:49.964Z</time></trkpt><trkpt lat="45.6832255" lon="9.6214187"><ele>230.0</ele><time>2026-04-24T13:06:51.964Z</time></trkpt><trkpt lat="45.6831338" lon="9.6213188"><ele>230.0</ele><time>2026-04-24T13:06:53.964Z</time></trkpt><trkpt lat="45.6830892" lon="9.6212477"><ele>230.0</ele><time>2026-04-24T13:06:54.964Z</time></trkpt><trkpt lat="45.6830418" lon="9.6211842"><ele>230.0</ele><time>2026-04-24T13:06:55.964Z</time></trkpt><trkpt lat="45.6829562" lon="9.6210756"><ele>230.0</ele><time>2026-04-24T13:06:57.964Z</time></trkpt><trkpt lat="45.6828607" lon="9.6209712"><ele>230.0</ele><time>2026-04-24T13:06:59.964Z</time></trkpt><trkpt lat="45.6827675" lon="9.6208676"><ele>229.83333333333334</ele><time>2026-04-24T13:07:01.965Z</time></trkpt><trkpt lat="45.6827168" lon="9.6208047"><ele>229.66666666666669</ele><time>2026-04-24T13:07:02.964Z</time></trkpt><trkpt lat="45.6826273" lon="9.6206806"><ele>229.5</ele><time>2026-04-24T13:07:04.964Z</time></trkpt><trkpt lat="45.6825461" lon="9.6205528"><ele>229.33333333333331</ele><time>2026-04-24T13:07:06.964Z</time></trkpt><trkpt lat="45.6824976" lon="9.6204785"><ele>229.16666666666666</ele><time>2026-04-24T13:07:07.964Z</time></trkpt><trkpt lat="45.6824536" lon="9.6204117"><ele>229.0</ele><time>2026-04-24T13:07:08.965Z</time></trkpt><trkpt lat="45.6823758" lon="9.6202885"><ele>228.75</ele><time>2026-04-24T13:07:10.964Z</time></trkpt><trkpt lat="45.6822997" lon="9.6201549"><ele>228.5</ele><time>2026-04-24T13:07:12.964Z</time></trkpt><trkpt lat="45.682219" lon="9.6200078"><ele>228.25</ele><time>2026-04-24T13:07:14.964Z</time></trkpt><trkpt lat="45.6821426" lon="9.6198953"><ele>228.0</ele><time>2026-04-24T13:07:16.964Z</time></trkpt><trkpt lat="45.6820606" lon="9.6197831"><ele>228.0</ele><time>2026-04-24T13:07:18.965Z</time></trkpt><trkpt lat="45.6820192" lon="9.6196963"><ele>228.0</ele><time>2026-04-24T13:07:19.964Z</time></trkpt><trkpt lat="45.6819773" lon="9.6196282"><ele>228.0</ele><time>2026-04-24T13:07:20.965Z</time></trkpt><trkpt lat="45.681919" lon="9.6195371"><ele>228.0</ele><time>2026-04-24T13:07:22.965Z</time></trkpt><trkpt lat="45.6817937" lon="9.6193389"><ele>228.0</ele><time>2026-04-24T13:07:26.964Z</time></trkpt><trkpt lat="45.6817513" lon="9.6192718"><ele>228.42857142857142</ele><time>2026-04-24T13:07:27.963Z</time></trkpt><trkpt lat="45.6817078" lon="9.6191966"><ele>228.85714285714283</ele><time>2026-04-24T13:07:28.964Z</time></trkpt><trkpt lat="45.6816748" lon="9.6191054"><ele>229.28571428571428</ele><time>2026-04-24T13:07:29.963Z</time></trkpt><trkpt lat="45.6816251" lon="9.6189912"><ele>229.71428571428572</ele><time>2026-04-24T13:07:30.963Z</time></trkpt><trkpt lat="45.6815585" lon="9.6189342"><ele>230.14285714285714</ele><time>2026-04-24T13:07:31.958Z</time></trkpt><trkpt lat="45.6815044" lon="9.6188801"><ele>230.57142857142856</ele><time>2026-04-24T13:07:32.958Z</time></trkpt><trkpt lat="45.6814622" lon="9.6188105"><ele>231.0</ele><time>2026-04-24T13:07:33.958Z</time></trkpt><trkpt lat="45.6813908" lon="9.6187148"><ele>230.83333333333334</ele><time>2026-04-24T13:07:35.958Z</time></trkpt><trkpt lat="45.6813362" lon="9.6186367"><ele>230.66666666666669</ele><time>2026-04-24T13:07:37.958Z</time></trkpt><trkpt lat="45.6813762" lon="9.6185507"><ele>230.5</ele><time>2026-04-24T13:07:44.958Z</time></trkpt><trkpt lat="45.6814338" lon="9.6184855"><ele>230.33333333333334</ele><time>2026-04-24T13:07:46.958Z</time></trkpt><trkpt lat="45.6815034" lon="9.6184018"><ele>230.16666666666669</ele><time>2026-04-24T13:07:48.958Z</time></trkpt><trkpt lat="45.6815845" lon="9.6183231"><ele>230.0</ele><time>2026-04-24T13:07:50.958Z</time></trkpt><trkpt lat="45.6816695" lon="9.6182445"><ele>230.0</ele><time>2026-04-24T13:07:52.958Z</time></trkpt><trkpt lat="45.6817721" lon="9.6181478"><ele>230.0</ele><time>2026-04-24T13:07:55.958Z</time></trkpt><trkpt lat="45.681904" lon="9.6180792"><ele>230.0</ele><time>2026-04-24T13:07:57.958Z</time></trkpt><trkpt lat="45.6819879" lon="9.6180276"><ele>230.0</ele><time>2026-04-24T13:07:59.958Z</time></trkpt><trkpt lat="45.6820704" lon="9.6179445"><ele>230.0</ele><time>2026-04-24T13:08:01.959Z</time></trkpt><trkpt lat="45.6821317" lon="9.6178943"><ele>230.0</ele><time>2026-04-24T13:08:02.958Z</time></trkpt><trkpt lat="45.6822232" lon="9.6178021"><ele>230.0</ele><time>2026-04-24T13:08:04.958Z</time></trkpt><trkpt lat="45.6823122" lon="9.6177152"><ele>230.0</ele><time>2026-04-24T13:08:06.959Z</time></trkpt><trkpt lat="45.6824082" lon="9.6176025"><ele>230.0</ele><time>2026-04-24T13:08:08.959Z</time></trkpt><trkpt lat="45.682486" lon="9.617499"><ele>229.8</ele><time>2026-04-24T13:08:10.958Z</time></trkpt><trkpt lat="45.6825691" lon="9.6173985"><ele>229.6</ele><time>2026-04-24T13:08:12.958Z</time></trkpt><trkpt lat="45.6826512" lon="9.6172803"><ele>229.39999999999998</ele><time>2026-04-24T13:08:14.958Z</time></trkpt><trkpt lat="45.6827241" lon="9.6171674"><ele>229.2</ele><time>2026-04-24T13:08:16.958Z</time></trkpt><trkpt lat="45.6828045" lon="9.6170575"><ele>229.0</ele><time>2026-04-24T13:08:18.958Z</time></trkpt><trkpt lat="45.6828884" lon="9.6169439"><ele>229.6</ele><time>2026-04-24T13:08:20.958Z</time></trkpt><trkpt lat="45.6829649" lon="9.616837"><ele>230.2</ele><time>2026-04-24T13:08:22.958Z</time></trkpt><trkpt lat="45.6830424" lon="9.6167348"><ele>230.79999999999998</ele><time>2026-04-24T13:08:24.959Z</time></trkpt><trkpt lat="45.6831346" lon="9.6166715"><ele>231.39999999999998</ele><time>2026-04-24T13:08:26.958Z</time></trkpt><trkpt lat="45.6832376" lon="9.61664"><ele>232.0</ele><time>2026-04-24T13:08:28.958Z</time></trkpt><trkpt lat="45.6833288" lon="9.6165799"><ele>232.0</ele><time>2026-04-24T13:08:30.958Z</time></trkpt><trkpt lat="45.683391" lon="9.6164651"><ele>232.0</ele><time>2026-04-24T13:08:32.958Z</time></trkpt><trkpt lat="45.6833735" lon="9.6163136"><ele>232.0</ele><time>2026-04-24T13:08:34.958Z</time></trkpt><trkpt lat="45.6833119" lon="9.6161815"><ele>232.0</ele><time>2026-04-24T13:08:36.958Z</time></trkpt><trkpt lat="45.6832676" lon="9.616114"><ele>232.0</ele><time>2026-04-24T13:08:37.958Z</time></trkpt><trkpt lat="45.683191" lon="9.6159955"><ele>232.2</ele><time>2026-04-24T13:08:39.958Z</time></trkpt><trkpt lat="45.6831121" lon="9.6158828"><ele>232.39999999999998</ele><time>2026-04-24T13:08:41.959Z</time></trkpt><trkpt lat="45.6830259" lon="9.6157515"><ele>232.60000000000002</ele><time>2026-04-24T13:08:43.958Z</time></trkpt><trkpt lat="45.6829901" lon="9.6156747"><ele>232.8</ele><time>2026-04-24T13:08:44.958Z</time></trkpt><trkpt lat="45.6829202" lon="9.6155328"><ele>233.0</ele><time>2026-04-24T13:08:46.958Z</time></trkpt><trkpt lat="45.682863" lon="9.6153935"><ele>232.75</ele><time>2026-04-24T13:08:48.958Z</time></trkpt><trkpt lat="45.6828035" lon="9.6152488"><ele>232.5</ele><time>2026-04-24T13:08:50.958Z</time></trkpt><trkpt lat="45.6827462" lon="9.6150945"><ele>232.25</ele><time>2026-04-24T13:08:52.959Z</time></trkpt><trkpt lat="45.6826915" lon="9.6149442"><ele>232.0</ele><time>2026-04-24T13:08:54.958Z</time></trkpt><trkpt lat="45.6826481" lon="9.6147739"><ele>232.0</ele><time>2026-04-24T13:08:56.959Z</time></trkpt><trkpt lat="45.6826353" lon="9.6146775"><ele>232.0</ele><time>2026-04-24T13:08:57.958Z</time></trkpt><trkpt lat="45.6826173" lon="9.6145685"><ele>232.0</ele><time>2026-04-24T13:08:59.959Z</time></trkpt><trkpt lat="45.6826695" lon="9.6144524"><ele>232.0</ele><time>2026-04-24T13:09:00.958Z</time></trkpt><trkpt lat="45.6827079" lon="9.6142947"><ele>232.0</ele><time>2026-04-24T13:09:02.959Z</time></trkpt><trkpt lat="45.6826828" lon="9.6141352"><ele>231.25</ele><time>2026-04-24T13:09:04.958Z</time></trkpt><trkpt lat="45.6825857" lon="9.6140399"><ele>230.5</ele><time>2026-04-24T13:09:06.959Z</time></trkpt><trkpt lat="45.6824743" lon="9.614013"><ele>229.75</ele><time>2026-04-24T13:09:08.959Z</time></trkpt><trkpt lat="45.6823528" lon="9.6139903"><ele>229.0</ele><time>2026-04-24T13:09:10.958Z</time></trkpt><trkpt lat="45.6822724" lon="9.6138856"><ele>229.0</ele><time>2026-04-24T13:09:12.958Z</time></trkpt><trkpt lat="45.6822462" lon="9.6138028"><ele>228.99999999999997</ele><time>2026-04-24T13:09:13.958Z</time></trkpt><trkpt lat="45.6821879" lon="9.6136473"><ele>228.99999999999997</ele><time>2026-04-24T13:09:15.958Z</time></trkpt><trkpt lat="45.6821317" lon="9.6134848"><ele>229.0</ele><time>2026-04-24T13:09:17.959Z</time></trkpt><trkpt lat="45.6820797" lon="9.6133204"><ele>229.0</ele><time>2026-04-24T13:09:19.958Z</time></trkpt><trkpt lat="45.6820295" lon="9.6131568"><ele>229.16666666666666</ele><time>2026-04-24T13:09:21.958Z</time></trkpt><trkpt lat="45.68199" lon="9.6129942"><ele>229.33333333333331</ele><time>2026-04-24T13:09:23.958Z</time></trkpt><trkpt lat="45.6819703" lon="9.6128997"><ele>229.5</ele><time>2026-04-24T13:09:24.959Z</time></trkpt><trkpt lat="45.6819527" lon="9.6128113"><ele>229.66666666666669</ele><time>2026-04-24T13:09:25.959Z</time></trkpt><trkpt lat="45.6819345" lon="9.6127164"><ele>229.83333333333334</ele><time>2026-04-24T13:09:26.959Z</time></trkpt><trkpt lat="45.6819179" lon="9.6126249"><ele>230.0</ele><time>2026-04-24T13:09:27.958Z</time></trkpt><trkpt lat="45.6818996" lon="9.6125339"><ele>230.00000000000003</ele><time>2026-04-24T13:09:28.958Z</time></trkpt><trkpt lat="45.681885" lon="9.6124454"><ele>230.0</ele><time>2026-04-24T13:09:29.959Z</time></trkpt><trkpt lat="45.6818676" lon="9.6123464"><ele>230.0</ele><time>2026-04-24T13:09:30.958Z</time></trkpt><trkpt lat="45.6818522" lon="9.6122577"><ele>230.0</ele><time>2026-04-24T13:09:31.958Z</time></trkpt><trkpt lat="45.6818313" lon="9.612159"><ele>230.00000000000003</ele><time>2026-04-24T13:09:32.958Z</time></trkpt><trkpt lat="45.6817975" lon="9.6119883"><ele>230.0</ele><time>2026-04-24T13:09:34.958Z</time></trkpt><trkpt lat="45.6817803" lon="9.6119009"><ele>230.33333333333334</ele><time>2026-04-24T13:09:35.958Z</time></trkpt><trkpt lat="45.6817641" lon="9.6118102"><ele>230.66666666666669</ele><time>2026-04-24T13:09:36.958Z</time></trkpt><trkpt lat="45.6817425" lon="9.6117205"><ele>231.0</ele><time>2026-04-24T13:09:37.959Z</time></trkpt><trkpt lat="45.6817234" lon="9.6116164"><ele>231.33333333333331</ele><time>2026-04-24T13:09:38.958Z</time></trkpt><trkpt lat="45.6816987" lon="9.6115089"><ele>231.66666666666666</ele><time>2026-04-24T13:09:39.958Z</time></trkpt><trkpt lat="45.6816757" lon="9.6113405"><ele>232.0</ele><time>2026-04-24T13:09:41.959Z</time></trkpt><trkpt lat="45.6816557" lon="9.6111929"><ele>232.2</ele><time>2026-04-24T13:09:43.958Z</time></trkpt><trkpt lat="45.6816321" lon="9.6110876"><ele>232.39999999999998</ele><time>2026-04-24T13:09:44.958Z</time></trkpt><trkpt lat="45.6816214" lon="9.6109975"><ele>232.60000000000002</ele><time>2026-04-24T13:09:45.959Z</time></trkpt><trkpt lat="45.6815891" lon="9.6108315"><ele>232.8</ele><time>2026-04-24T13:09:47.958Z</time></trkpt><trkpt lat="45.6815625" lon="9.6106494"><ele>233.0</ele><time>2026-04-24T13:09:49.958Z</time></trkpt><trkpt lat="45.6815398" lon="9.6105624"><ele>233.0</ele><time>2026-04-24T13:09:50.959Z</time></trkpt><trkpt lat="45.6815243" lon="9.6104708"><ele>233.0</ele><time>2026-04-24T13:09:51.958Z</time></trkpt><trkpt lat="45.6815089" lon="9.6103832"><ele>233.0</ele><time>2026-04-24T13:09:52.959Z</time></trkpt><trkpt lat="45.6814815" lon="9.6102404"><ele>233.0</ele><time>2026-04-24T13:09:54.958Z</time></trkpt><trkpt lat="45.6814581" lon="9.6100609"><ele>233.0</ele><time>2026-04-24T13:09:56.958Z</time></trkpt><trkpt lat="45.6814402" lon="9.6099053"><ele>233.25</ele><time>2026-04-24T13:09:58.958Z</time></trkpt><trkpt lat="45.6814216" lon="9.6097325"><ele>233.5</ele><time>2026-04-24T13:10:00.958Z</time></trkpt><trkpt lat="45.6814172" lon="9.6095556"><ele>233.75</ele><time>2026-04-24T13:10:02.958Z</time></trkpt><trkpt lat="45.6813999" lon="9.6093953"><ele>234.0</ele><time>2026-04-24T13:10:04.959Z</time></trkpt><trkpt lat="45.6813875" lon="9.6092386"><ele>234.2</ele><time>2026-04-24T13:10:06.958Z</time></trkpt><trkpt lat="45.6813785" lon="9.6091376"><ele>234.39999999999998</ele><time>2026-04-24T13:10:07.958Z</time></trkpt><trkpt lat="45.6813628" lon="9.6089648"><ele>234.6</ele><time>2026-04-24T13:10:09.958Z</time></trkpt><trkpt lat="45.6813475" lon="9.6088058"><ele>234.8</ele><time>2026-04-24T13:10:11.958Z</time></trkpt><trkpt lat="45.6813328" lon="9.6086362"><ele>235.0</ele><time>2026-04-24T13:10:13.959Z</time></trkpt><trkpt lat="45.6813192" lon="9.6084591"><ele>234.5</ele><time>2026-04-24T13:10:15.958Z</time></trkpt><trkpt lat="45.6813095" lon="9.608284"><ele>234.0</ele><time>2026-04-24T13:10:17.958Z</time></trkpt><trkpt lat="45.6813084" lon="9.6081148"><ele>233.5</ele><time>2026-04-24T13:10:19.958Z</time></trkpt><trkpt lat="45.681296" lon="9.6079391"><ele>233.0</ele><time>2026-04-24T13:10:21.958Z</time></trkpt><trkpt lat="45.6812886" lon="9.6077714"><ele>232.8</ele><time>2026-04-24T13:10:23.959Z</time></trkpt><trkpt lat="45.6812793" lon="9.6076013"><ele>232.60000000000002</ele><time>2026-04-24T13:10:25.958Z</time></trkpt><trkpt lat="45.6813015" lon="9.6074333"><ele>232.39999999999998</ele><time>2026-04-24T13:10:27.959Z</time></trkpt><trkpt lat="45.6813153" lon="9.6073447"><ele>232.2</ele><time>2026-04-24T13:10:28.958Z</time></trkpt><trkpt lat="45.6813667" lon="9.6071948"><ele>232.0</ele><time>2026-04-24T13:10:30.958Z</time></trkpt><trkpt lat="45.6813773" lon="9.6071059"><ele>232.00000000000003</ele><time>2026-04-24T13:10:31.958Z</time></trkpt><trkpt lat="45.681387" lon="9.6070147"><ele>232.0</ele><time>2026-04-24T13:10:32.958Z</time></trkpt><trkpt lat="45.6813891" lon="9.6069187"><ele>232.00000000000003</ele><time>2026-04-24T13:10:33.958Z</time></trkpt><trkpt lat="45.6813805" lon="9.6068246"><ele>232.00000000000003</ele><time>2026-04-24T13:10:34.958Z</time></trkpt><trkpt lat="45.6813672" lon="9.6067315"><ele>232.0</ele><time>2026-04-24T13:10:35.959Z</time></trkpt><trkpt lat="45.6813567" lon="9.6066365"><ele>232.00000000000003</ele><time>2026-04-24T13:10:36.958Z</time></trkpt><trkpt lat="45.6813404" lon="9.6065486"><ele>232.00000000000003</ele><time>2026-04-24T13:10:37.958Z</time></trkpt><trkpt lat="45.6813144" lon="9.6063608"><ele>231.99999999999997</ele><time>2026-04-24T13:10:39.958Z</time></trkpt><trkpt lat="45.681303" lon="9.6062677"><ele>232.0</ele><time>2026-04-24T13:10:40.958Z</time></trkpt><trkpt lat="45.6812997" lon="9.6061723"><ele>232.0</ele><time>2026-04-24T13:10:41.958Z</time></trkpt><trkpt lat="45.6812964" lon="9.6060216"><ele>232.0</ele><time>2026-04-24T13:10:43.958Z</time></trkpt><trkpt lat="45.6812948" lon="9.605903"><ele>231.99999999999997</ele><time>2026-04-24T13:10:44.959Z</time></trkpt><trkpt lat="45.681292" lon="9.6058092"><ele>232.0</ele><time>2026-04-24T13:10:45.959Z</time></trkpt><trkpt lat="45.6812742" lon="9.6056191"><ele>232.0</ele><time>2026-04-24T13:10:47.959Z</time></trkpt><trkpt lat="45.6812738" lon="9.6055265"><ele>232.0</ele><time>2026-04-24T13:10:48.959Z</time></trkpt><trkpt lat="45.6812759" lon="9.6054346"><ele>232.0</ele><time>2026-04-24T13:10:49.958Z</time></trkpt><trkpt lat="45.6812837" lon="9.6053409"><ele>232.0</ele><time>2026-04-24T13:10:50.959Z</time></trkpt><trkpt lat="45.6812917" lon="9.6051451"><ele>232.0</ele><time>2026-04-24T13:10:52.958Z</time></trkpt><trkpt lat="45.6813026" lon="9.6049756"><ele>232.0</ele><time>2026-04-24T13:10:54.958Z</time></trkpt><trkpt lat="45.6813082" lon="9.6048808"><ele>232.0</ele><time>2026-04-24T13:10:55.958Z</time></trkpt><trkpt lat="45.6813209" lon="9.6046949"><ele>232.0</ele><time>2026-04-24T13:10:57.958Z</time></trkpt><trkpt lat="45.6813254" lon="9.6045328"><ele>232.0</ele><time>2026-04-24T13:10:59.958Z</time></trkpt><trkpt lat="45.6813484" lon="9.6044332"><ele>232.0</ele><time>2026-04-24T13:11:00.959Z</time></trkpt><trkpt lat="45.6813609" lon="9.6043364"><ele>231.8571428571429</ele><time>2026-04-24T13:11:01.958Z</time></trkpt><trkpt lat="45.6813714" lon="9.6042409"><ele>231.71428571428572</ele><time>2026-04-24T13:11:02.958Z</time></trkpt><trkpt lat="45.6813844" lon="9.6041492"><ele>231.57142857142858</ele><time>2026-04-24T13:11:03.958Z</time></trkpt><trkpt lat="45.6813934" lon="9.6040541"><ele>231.42857142857144</ele><time>2026-04-24T13:11:04.958Z</time></trkpt><trkpt lat="45.6814032" lon="9.6039569"><ele>231.28571428571428</ele><time>2026-04-24T13:11:05.958Z</time></trkpt><trkpt lat="45.6814173" lon="9.6038575"><ele>231.14285714285714</ele><time>2026-04-24T13:11:06.958Z</time></trkpt><trkpt lat="45.681439" lon="9.6037521"><ele>231.0</ele><time>2026-04-24T13:11:07.958Z</time></trkpt><trkpt lat="45.6814595" lon="9.6036534"><ele>230.33333333333334</ele><time>2026-04-24T13:11:08.958Z</time></trkpt><trkpt lat="45.6814771" lon="9.6035454"><ele>229.66666666666669</ele><time>2026-04-24T13:11:09.958Z</time></trkpt><trkpt lat="45.681497" lon="9.603436"><ele>229.0</ele><time>2026-04-24T13:11:10.958Z</time></trkpt><trkpt lat="45.6815284" lon="9.6033324"><ele>228.33333333333334</ele><time>2026-04-24T13:11:11.958Z</time></trkpt><trkpt lat="45.6815728" lon="9.6032478"><ele>227.66666666666669</ele><time>2026-04-24T13:11:12.959Z</time></trkpt><trkpt lat="45.6816281" lon="9.6031715"><ele>227.0</ele><time>2026-04-24T13:11:13.958Z</time></trkpt><trkpt lat="45.6816842" lon="9.6031002"><ele>227.0</ele><time>2026-04-24T13:11:14.958Z</time></trkpt><trkpt lat="45.6817229" lon="9.6030229"><ele>227.00000000000003</ele><time>2026-04-24T13:11:15.959Z</time></trkpt><trkpt lat="45.6817418" lon="9.6029048"><ele>227.0</ele><time>2026-04-24T13:11:17.959Z</time></trkpt><trkpt lat="45.6816851" lon="9.6028158"><ele>227.0</ele><time>2026-04-24T13:11:18.959Z</time></trkpt><trkpt lat="45.6816482" lon="9.6027217"><ele>227.00000000000003</ele><time>2026-04-24T13:11:19.959Z</time></trkpt><trkpt lat="45.681605" lon="9.6026412"><ele>227.0</ele><time>2026-04-24T13:11:20.959Z</time></trkpt><trkpt lat="45.6815761" lon="9.6025546"><ele>227.0</ele><time>2026-04-24T13:11:21.958Z</time></trkpt><trkpt lat="45.6815559" lon="9.6024563"><ele>227.16666666666669</ele><time>2026-04-24T13:11:22.958Z</time></trkpt><trkpt lat="45.6815481" lon="9.6023665"><ele>227.33333333333334</ele><time>2026-04-24T13:11:23.958Z</time></trkpt><trkpt lat="45.6815523" lon="9.6021786"><ele>227.5</ele><time>2026-04-24T13:11:25.959Z</time></trkpt><trkpt lat="45.6815621" lon="9.6020752"><ele>227.66666666666669</ele><time>2026-04-24T13:11:26.958Z</time></trkpt><trkpt lat="45.6815693" lon="9.6019733"><ele>227.83333333333334</ele><time>2026-04-24T13:11:27.958Z</time></trkpt><trkpt lat="45.6815732" lon="9.601871"><ele>228.0</ele><time>2026-04-24T13:11:28.958Z</time></trkpt><trkpt lat="45.6815785" lon="9.6017772"><ele>228.2</ele><time>2026-04-24T13:11:29.959Z</time></trkpt><trkpt lat="45.6815829" lon="9.6016862"><ele>228.4</ele><time>2026-04-24T13:11:30.958Z</time></trkpt><trkpt lat="45.6815871" lon="9.6015548"><ele>228.59999999999997</ele><time>2026-04-24T13:11:32.958Z</time></trkpt><trkpt lat="45.6814629" lon="9.6014472"><ele>228.79999999999998</ele><time>2026-04-24T13:11:36.959Z</time></trkpt><trkpt lat="45.6813715" lon="9.6014706"><ele>229.0</ele><time>2026-04-24T13:11:38.958Z</time></trkpt><trkpt lat="45.6812645" lon="9.601476"><ele>229.0</ele><time>2026-04-24T13:11:40.958Z</time></trkpt><trkpt lat="45.6811693" lon="9.6014553"><ele>228.99999999999997</ele><time>2026-04-24T13:11:42.958Z</time></trkpt><trkpt lat="45.6810794" lon="9.6014217"><ele>228.99999999999997</ele><time>2026-04-24T13:11:44.959Z</time></trkpt><trkpt lat="45.6810057" lon="9.6013853"><ele>229.0</ele><time>2026-04-24T13:11:46.958Z</time></trkpt><trkpt lat="45.6809085" lon="9.6013453"><ele>229.0</ele><time>2026-04-24T13:11:48.958Z</time></trkpt><trkpt lat="45.680818" lon="9.6013098"><ele>229.25</ele><time>2026-04-24T13:11:50.959Z</time></trkpt><trkpt lat="45.6807252" lon="9.601259"><ele>229.5</ele><time>2026-04-24T13:11:52.959Z</time></trkpt><trkpt lat="45.6806265" lon="9.601188"><ele>229.75</ele><time>2026-04-24T13:11:54.958Z</time></trkpt><trkpt lat="45.6805254" lon="9.601101"><ele>230.0</ele><time>2026-04-24T13:11:56.959Z</time></trkpt><trkpt lat="45.6804195" lon="9.6010091"><ele>230.0</ele><time>2026-04-24T13:11:58.958Z</time></trkpt><trkpt lat="45.6803088" lon="9.6009215"><ele>230.0</ele><time>2026-04-24T13:12:00.959Z</time></trkpt><trkpt lat="45.6801928" lon="9.600901"><ele>230.0</ele><time>2026-04-24T13:12:02.959Z</time></trkpt><trkpt lat="45.6800772" lon="9.6008965"><ele>230.0</ele><time>2026-04-24T13:12:04.958Z</time></trkpt><trkpt lat="45.6799653" lon="9.6008562"><ele>230.00000000000003</ele><time>2026-04-24T13:12:06.959Z</time></trkpt><trkpt lat="45.6798756" lon="9.6007759"><ele>230.0</ele><time>2026-04-24T13:12:08.958Z</time></trkpt><trkpt lat="45.6797724" lon="9.6006852"><ele>230.0</ele><time>2026-04-24T13:12:10.958Z</time></trkpt><trkpt lat="45.6797189" lon="9.6006303"><ele>230.0</ele><time>2026-04-24T13:12:11.958Z</time></trkpt><trkpt lat="45.6796533" lon="9.6005954"><ele>230.00000000000003</ele><time>2026-04-24T13:12:12.958Z</time></trkpt><trkpt lat="45.6795788" lon="9.6005588"><ele>230.0</ele><time>2026-04-24T13:12:13.958Z</time></trkpt><trkpt lat="45.6795126" lon="9.6005169"><ele>230.00000000000003</ele><time>2026-04-24T13:12:14.959Z</time></trkpt><trkpt lat="45.6794547" lon="9.6004318"><ele>230.0</ele><time>2026-04-24T13:12:15.958Z</time></trkpt><trkpt lat="45.6793882" lon="9.6003912"><ele>230.0</ele><time>2026-04-24T13:12:16.959Z</time></trkpt><trkpt lat="45.6793197" lon="9.6003547"><ele>230.0</ele><time>2026-04-24T13:12:17.958Z</time></trkpt><trkpt lat="45.6792511" lon="9.6003128"><ele>230.00000000000003</ele><time>2026-04-24T13:12:18.958Z</time></trkpt><trkpt lat="45.6791314" lon="9.6002257"><ele>230.0</ele><time>2026-04-24T13:12:20.958Z</time></trkpt><trkpt lat="45.6790756" lon="9.6001722"><ele>229.85714285714283</ele><time>2026-04-24T13:12:21.958Z</time></trkpt><trkpt lat="45.6790257" lon="9.6000966"><ele>229.71428571428572</ele><time>2026-04-24T13:12:22.959Z</time></trkpt><trkpt lat="45.6789772" lon="9.6000332"><ele>229.57142857142856</ele><time>2026-04-24T13:12:23.958Z</time></trkpt><trkpt lat="45.678929" lon="9.5999649"><ele>229.42857142857142</ele><time>2026-04-24T13:12:24.959Z</time></trkpt><trkpt lat="45.6788841" lon="9.5998934"><ele>229.28571428571428</ele><time>2026-04-24T13:12:25.958Z</time></trkpt><trkpt lat="45.6788383" lon="9.599817"><ele>229.14285714285714</ele><time>2026-04-24T13:12:26.958Z</time></trkpt><trkpt lat="45.6787931" lon="9.5997366"><ele>229.0</ele><time>2026-04-24T13:12:27.958Z</time></trkpt><trkpt lat="45.6787448" lon="9.5996618"><ele>229.0</ele><time>2026-04-24T13:12:28.958Z</time></trkpt><trkpt lat="45.6786933" lon="9.5995923"><ele>229.0</ele><time>2026-04-24T13:12:29.958Z</time></trkpt><trkpt lat="45.6786374" lon="9.59954"><ele>229.0</ele><time>2026-04-24T13:12:30.958Z</time></trkpt><trkpt lat="45.6785779" lon="9.5995039"><ele>229.0</ele><time>2026-04-24T13:12:31.958Z</time></trkpt><trkpt lat="45.6785095" lon="9.5994634"><ele>229.0</ele><time>2026-04-24T13:12:32.958Z</time></trkpt><trkpt lat="45.6784481" lon="9.5994344"><ele>229.0</ele><time>2026-04-24T13:12:33.958Z</time></trkpt><trkpt lat="45.6783873" lon="9.5994095"><ele>229.0</ele><time>2026-04-24T13:12:34.958Z</time></trkpt><trkpt lat="45.6783169" lon="9.5993863"><ele>228.14285714285714</ele><time>2026-04-24T13:12:35.958Z</time></trkpt><trkpt lat="45.678251" lon="9.5993501"><ele>227.2857142857143</ele><time>2026-04-24T13:12:36.958Z</time></trkpt><trkpt lat="45.6781896" lon="9.599302"><ele>226.42857142857144</ele><time>2026-04-24T13:12:37.958Z</time></trkpt><trkpt lat="45.6781341" lon="9.5992537"><ele>225.57142857142856</ele><time>2026-04-24T13:12:38.958Z</time></trkpt><trkpt lat="45.6780866" lon="9.5991804"><ele>224.71428571428572</ele><time>2026-04-24T13:12:39.959Z</time></trkpt><trkpt lat="45.6780497" lon="9.5990957"><ele>223.85714285714286</ele><time>2026-04-24T13:12:40.958Z</time></trkpt><trkpt lat="45.6780242" lon="9.5990057"><ele>223.0</ele><time>2026-04-24T13:12:41.958Z</time></trkpt><trkpt lat="45.6780103" lon="9.5989105"><ele>223.0</ele><time>2026-04-24T13:12:42.958Z</time></trkpt><trkpt lat="45.6780027" lon="9.5988189"><ele>223.0</ele><time>2026-04-24T13:12:43.959Z</time></trkpt><trkpt lat="45.6779934" lon="9.5987284"><ele>223.0</ele><time>2026-04-24T13:12:44.959Z</time></trkpt><trkpt lat="45.6779819" lon="9.5986364"><ele>223.0</ele><time>2026-04-24T13:12:45.958Z</time></trkpt><trkpt lat="45.6779713" lon="9.5985397"><ele>223.0</ele><time>2026-04-24T13:12:46.959Z</time></trkpt><trkpt lat="45.6779566" lon="9.5984378"><ele>223.0</ele><time>2026-04-24T13:12:47.959Z</time></trkpt><trkpt lat="45.6779362" lon="9.5983367"><ele>223.0</ele><time>2026-04-24T13:12:48.958Z</time></trkpt><trkpt lat="45.677913" lon="9.5982331"><ele>223.14285714285714</ele><time>2026-04-24T13:12:49.958Z</time></trkpt><trkpt lat="45.6778957" lon="9.5981285"><ele>223.28571428571428</ele><time>2026-04-24T13:12:50.958Z</time></trkpt><trkpt lat="45.6778774" lon="9.5980156"><ele>223.42857142857144</ele><time>2026-04-24T13:12:51.959Z</time></trkpt><trkpt lat="45.6778573" lon="9.5979188"><ele>223.57142857142856</ele><time>2026-04-24T13:12:52.958Z</time></trkpt><trkpt lat="45.6778494" lon="9.5978188"><ele>223.71428571428572</ele><time>2026-04-24T13:12:53.959Z</time></trkpt><trkpt lat="45.6778436" lon="9.597719"><ele>223.85714285714286</ele><time>2026-04-24T13:12:54.958Z</time></trkpt><trkpt lat="45.6778476" lon="9.5976214"><ele>224.0</ele><time>2026-04-24T13:12:55.958Z</time></trkpt><trkpt lat="45.6778586" lon="9.5975288"><ele>224.0</ele><time>2026-04-24T13:12:56.958Z</time></trkpt><trkpt lat="45.6778865" lon="9.597443"><ele>224.0</ele><time>2026-04-24T13:12:57.959Z</time></trkpt><trkpt lat="45.6779254" lon="9.5973622"><ele>224.0</ele><time>2026-04-24T13:12:58.958Z</time></trkpt><trkpt lat="45.6779646" lon="9.5972839"><ele>224.0</ele><time>2026-04-24T13:12:59.958Z</time></trkpt><trkpt lat="45.6780197" lon="9.5972085"><ele>224.0</ele><time>2026-04-24T13:13:00.959Z</time></trkpt><trkpt lat="45.6780778" lon="9.5971724"><ele>224.0</ele><time>2026-04-24T13:13:01.958Z</time></trkpt><trkpt lat="45.6781544" lon="9.5971368"><ele>224.0</ele><time>2026-04-24T13:13:02.958Z</time></trkpt><trkpt lat="45.6782141" lon="9.5971043"><ele>224.00000000000003</ele><time>2026-04-24T13:13:03.958Z</time></trkpt><trkpt lat="45.6782761" lon="9.5970517"><ele>224.0</ele><time>2026-04-24T13:13:04.958Z</time></trkpt><trkpt lat="45.6783612" lon="9.5969026"><ele>224.0</ele><time>2026-04-24T13:13:06.958Z</time></trkpt><trkpt lat="45.6783832" lon="9.5968035"><ele>224.0</ele><time>2026-04-24T13:13:07.958Z</time></trkpt><trkpt lat="45.6783845" lon="9.5966953"><ele>224.00000000000003</ele><time>2026-04-24T13:13:08.958Z</time></trkpt><trkpt lat="45.6783951" lon="9.5966028"><ele>224.0</ele><time>2026-04-24T13:13:09.958Z</time></trkpt><trkpt lat="45.6784069" lon="9.5965029"><ele>222.14285714285714</ele><time>2026-04-24T13:13:10.958Z</time></trkpt><trkpt lat="45.6784116" lon="9.5964015"><ele>220.28571428571428</ele><time>2026-04-24T13:13:11.958Z</time></trkpt><trkpt lat="45.6784164" lon="9.5962986"><ele>218.42857142857144</ele><time>2026-04-24T13:13:12.958Z</time></trkpt><trkpt lat="45.6784237" lon="9.5961972"><ele>216.57142857142856</ele><time>2026-04-24T13:13:13.958Z</time></trkpt><trkpt lat="45.678427" lon="9.5961001"><ele>214.71428571428572</ele><time>2026-04-24T13:13:14.959Z</time></trkpt><trkpt lat="45.6784355" lon="9.5960043"><ele>212.85714285714286</ele><time>2026-04-24T13:13:15.958Z</time></trkpt><trkpt lat="45.6784463" lon="9.5959105"><ele>211.0</ele><time>2026-04-24T13:13:16.958Z</time></trkpt><trkpt lat="45.6784543" lon="9.5958176"><ele>210.71428571428572</ele><time>2026-04-24T13:13:17.958Z</time></trkpt><trkpt lat="45.6784636" lon="9.595721"><ele>210.42857142857144</ele><time>2026-04-24T13:13:18.958Z</time></trkpt><trkpt lat="45.6784666" lon="9.5956296"><ele>210.14285714285714</ele><time>2026-04-24T13:13:19.958Z</time></trkpt><trkpt lat="45.6784707" lon="9.5955362"><ele>209.85714285714286</ele><time>2026-04-24T13:13:20.958Z</time></trkpt><trkpt lat="45.6784765" lon="9.5954439"><ele>209.57142857142856</ele><time>2026-04-24T13:13:21.959Z</time></trkpt><trkpt lat="45.6784864" lon="9.5953533"><ele>209.28571428571428</ele><time>2026-04-24T13:13:22.958Z</time></trkpt><trkpt lat="45.6784946" lon="9.5952626"><ele>209.0</ele><time>2026-04-24T13:13:23.958Z</time></trkpt><trkpt lat="45.6784957" lon="9.5951682"><ele>209.0</ele><time>2026-04-24T13:13:24.958Z</time></trkpt><trkpt lat="45.6785045" lon="9.5950773"><ele>209.0</ele><time>2026-04-24T13:13:25.958Z</time></trkpt><trkpt lat="45.6785243" lon="9.5949046"><ele>209.0</ele><time>2026-04-24T13:13:27.958Z</time></trkpt><trkpt lat="45.6785393" lon="9.5947317"><ele>209.0</ele><time>2026-04-24T13:13:29.958Z</time></trkpt><trkpt lat="45.6785009" lon="9.5945846"><ele>209.0</ele><time>2026-04-24T13:13:31.959Z</time></trkpt><trkpt lat="45.6784029" lon="9.5944963"><ele>208.0</ele><time>2026-04-24T13:13:33.958Z</time></trkpt><trkpt lat="45.6782799" lon="9.5944539"><ele>207.0</ele><time>2026-04-24T13:13:35.958Z</time></trkpt><trkpt lat="45.6781608" lon="9.5944122"><ele>206.0</ele><time>2026-04-24T13:13:37.958Z</time></trkpt><trkpt lat="45.6780917" lon="9.594401"><ele>205.0</ele><time>2026-04-24T13:13:38.958Z</time></trkpt><trkpt lat="45.6780281" lon="9.5943785"><ele>204.0</ele><time>2026-04-24T13:13:39.958Z</time></trkpt><trkpt lat="45.6779552" lon="9.5943595"><ele>204.0</ele><time>2026-04-24T13:13:40.958Z</time></trkpt><trkpt lat="45.6778892" lon="9.5943251"><ele>204.0</ele><time>2026-04-24T13:13:41.959Z</time></trkpt><trkpt lat="45.6778255" lon="9.594284"><ele>204.0</ele><time>2026-04-24T13:13:42.958Z</time></trkpt><trkpt lat="45.6777598" lon="9.5942403"><ele>204.0</ele><time>2026-04-24T13:13:43.958Z</time></trkpt><trkpt lat="45.677698" lon="9.5941814"><ele>204.0</ele><time>2026-04-24T13:13:44.958Z</time></trkpt><trkpt lat="45.677646" lon="9.5941144"><ele>204.0</ele><time>2026-04-24T13:13:45.958Z</time></trkpt><trkpt lat="45.6775998" lon="9.5940116"><ele>204.0</ele><time>2026-04-24T13:13:46.958Z</time></trkpt><trkpt lat="45.6775611" lon="9.5939088"><ele>204.2</ele><time>2026-04-24T13:13:47.958Z</time></trkpt><trkpt lat="45.67753" lon="9.5937847"><ele>204.39999999999998</ele><time>2026-04-24T13:13:48.958Z</time></trkpt><trkpt lat="45.6774973" lon="9.5936622"><ele>204.6</ele><time>2026-04-24T13:13:49.958Z</time></trkpt><trkpt lat="45.677472" lon="9.5935429"><ele>204.8</ele><time>2026-04-24T13:13:50.958Z</time></trkpt><trkpt lat="45.6774446" lon="9.5934149"><ele>205.0</ele><time>2026-04-24T13:13:51.958Z</time></trkpt><trkpt lat="45.6774151" lon="9.5932884"><ele>204.16666666666666</ele><time>2026-04-24T13:13:52.958Z</time></trkpt><trkpt lat="45.6773863" lon="9.5931693"><ele>203.33333333333331</ele><time>2026-04-24T13:13:53.958Z</time></trkpt><trkpt lat="45.6773627" lon="9.5930452"><ele>202.5</ele><time>2026-04-24T13:13:54.958Z</time></trkpt><trkpt lat="45.6773359" lon="9.5929312"><ele>201.66666666666669</ele><time>2026-04-24T13:13:55.958Z</time></trkpt><trkpt lat="45.6773099" lon="9.5928382"><ele>200.83333333333334</ele><time>2026-04-24T13:13:56.958Z</time></trkpt><trkpt lat="45.6772986" lon="9.5927488"><ele>200.0</ele><time>2026-04-24T13:13:57.958Z</time></trkpt><trkpt lat="45.6773415" lon="9.5925796"><ele>199.16666666666669</ele><time>2026-04-24T13:13:59.958Z</time></trkpt><trkpt lat="45.6773787" lon="9.592502"><ele>198.33333333333334</ele><time>2026-04-24T13:14:00.958Z</time></trkpt><trkpt lat="45.6774133" lon="9.5924105"><ele>197.5</ele><time>2026-04-24T13:14:01.959Z</time></trkpt><trkpt lat="45.6774493" lon="9.5923351"><ele>196.66666666666669</ele><time>2026-04-24T13:14:02.959Z</time></trkpt><trkpt lat="45.6774868" lon="9.5922603"><ele>195.83333333333334</ele><time>2026-04-24T13:14:03.958Z</time></trkpt><trkpt lat="45.6775572" lon="9.5921037"><ele>195.0</ele><time>2026-04-24T13:14:05.958Z</time></trkpt><trkpt lat="45.6775889" lon="9.5920165"><ele>195.14285714285714</ele><time>2026-04-24T13:14:06.958Z</time></trkpt><trkpt lat="45.6776182" lon="9.5919335"><ele>195.28571428571428</ele><time>2026-04-24T13:14:07.959Z</time></trkpt><trkpt lat="45.6776451" lon="9.5918412"><ele>195.42857142857144</ele><time>2026-04-24T13:14:08.958Z</time></trkpt><trkpt lat="45.6776747" lon="9.5917535"><ele>195.57142857142856</ele><time>2026-04-24T13:14:09.959Z</time></trkpt><trkpt lat="45.6777031" lon="9.5916614"><ele>195.71428571428572</ele><time>2026-04-24T13:14:10.958Z</time></trkpt><trkpt lat="45.6777265" lon="9.5915682"><ele>195.85714285714286</ele><time>2026-04-24T13:14:11.959Z</time></trkpt><trkpt lat="45.6777509" lon="9.5914816"><ele>196.0</ele><time>2026-04-24T13:14:12.959Z</time></trkpt><trkpt lat="45.6777801" lon="9.5913838"><ele>196.14285714285714</ele><time>2026-04-24T13:14:13.958Z</time></trkpt><trkpt lat="45.6778015" lon="9.5912893"><ele>196.28571428571428</ele><time>2026-04-24T13:14:14.958Z</time></trkpt><trkpt lat="45.6778222" lon="9.5911926"><ele>196.42857142857144</ele><time>2026-04-24T13:14:15.958Z</time></trkpt><trkpt lat="45.6778372" lon="9.5911025"><ele>196.57142857142856</ele><time>2026-04-24T13:14:16.958Z</time></trkpt><trkpt lat="45.6778561" lon="9.5910093"><ele>196.71428571428572</ele><time>2026-04-24T13:14:17.958Z</time></trkpt><trkpt lat="45.6778762" lon="9.5909146"><ele>196.85714285714286</ele><time>2026-04-24T13:14:18.958Z</time></trkpt><trkpt lat="45.6779003" lon="9.5908187"><ele>197.0</ele><time>2026-04-24T13:14:19.958Z</time></trkpt><trkpt lat="45.6779328" lon="9.5907388"><ele>197.00000000000003</ele><time>2026-04-24T13:14:20.958Z</time></trkpt><trkpt lat="45.6779635" lon="9.5906521"><ele>197.0</ele><time>2026-04-24T13:14:21.959Z</time></trkpt><trkpt lat="45.6779985" lon="9.5905648"><ele>197.0</ele><time>2026-04-24T13:14:22.958Z</time></trkpt><trkpt lat="45.678037" lon="9.5904901"><ele>197.0</ele><time>2026-04-24T13:14:23.958Z</time></trkpt><trkpt lat="45.678082" lon="9.5904205"><ele>197.00000000000003</ele><time>2026-04-24T13:14:24.958Z</time></trkpt><trkpt lat="45.6781268" lon="9.5903488"><ele>197.0</ele><time>2026-04-24T13:14:25.958Z</time></trkpt><trkpt lat="45.6782259" lon="9.5902401"><ele>197.25</ele><time>2026-04-24T13:14:27.958Z</time></trkpt><trkpt lat="45.6783219" lon="9.5901325"><ele>197.5</ele><time>2026-04-24T13:14:29.958Z</time></trkpt><trkpt lat="45.6783717" lon="9.5900033"><ele>197.75</ele><time>2026-04-24T13:14:31.958Z</time></trkpt><trkpt lat="45.6783755" lon="9.58985"><ele>198.0</ele><time>2026-04-24T13:14:33.959Z</time></trkpt><trkpt lat="45.6783863" lon="9.5896814"><ele>198.0</ele><time>2026-04-24T13:14:35.958Z</time></trkpt><trkpt lat="45.6783948" lon="9.5895218"><ele>198.0</ele><time>2026-04-24T13:14:37.958Z</time></trkpt><trkpt lat="45.6784157" lon="9.5893659"><ele>198.0</ele><time>2026-04-24T13:14:39.958Z</time></trkpt><trkpt lat="45.6784328" lon="9.5891897"><ele>198.0</ele><time>2026-04-24T13:14:41.959Z</time></trkpt><trkpt lat="45.6784269" lon="9.5890311"><ele>197.2</ele><time>2026-04-24T13:14:43.958Z</time></trkpt><trkpt lat="45.6784277" lon="9.5888697"><ele>196.4</ele><time>2026-04-24T13:14:45.958Z</time></trkpt><trkpt lat="45.6783941" lon="9.5887425"><ele>195.6</ele><time>2026-04-24T13:14:47.958Z</time></trkpt><trkpt lat="45.678311" lon="9.5886591"><ele>194.79999999999998</ele><time>2026-04-24T13:14:49.958Z</time></trkpt><trkpt lat="45.6782177" lon="9.588581"><ele>194.0</ele><time>2026-04-24T13:14:51.958Z</time></trkpt><trkpt lat="45.6781265" lon="9.5884832"><ele>194.0</ele><time>2026-04-24T13:14:53.958Z</time></trkpt><trkpt lat="45.6780503" lon="9.5883735"><ele>194.0</ele><time>2026-04-24T13:14:55.959Z</time></trkpt><trkpt lat="45.6779683" lon="9.5882684"><ele>194.0</ele><time>2026-04-24T13:14:57.958Z</time></trkpt><trkpt lat="45.6778587" lon="9.5882259"><ele>194.0</ele><time>2026-04-24T13:14:59.958Z</time></trkpt><trkpt lat="45.6777451" lon="9.5882214"><ele>194.0</ele><time>2026-04-24T13:15:01.958Z</time></trkpt><trkpt lat="45.6776387" lon="9.588214"><ele>194.6</ele><time>2026-04-24T13:15:03.959Z</time></trkpt><trkpt lat="45.677559" lon="9.5882092"><ele>195.2</ele><time>2026-04-24T13:15:05.958Z</time></trkpt><trkpt lat="45.6774504" lon="9.5882328"><ele>195.79999999999998</ele><time>2026-04-24T13:15:07.958Z</time></trkpt><trkpt lat="45.6773845" lon="9.5882767"><ele>196.39999999999998</ele><time>2026-04-24T13:15:09.959Z</time></trkpt><trkpt lat="45.6772786" lon="9.5883762"><ele>197.0</ele><time>2026-04-24T13:15:11.959Z</time></trkpt><trkpt lat="45.6771964" lon="9.5884105"><ele>197.0</ele><time>2026-04-24T13:15:12.959Z</time></trkpt><trkpt lat="45.6771288" lon="9.588424"><ele>197.0</ele><time>2026-04-24T13:15:13.958Z</time></trkpt><trkpt lat="45.6770538" lon="9.5884188"><ele>197.0</ele><time>2026-04-24T13:15:14.958Z</time></trkpt><trkpt lat="45.6769765" lon="9.5884093"><ele>197.0</ele><time>2026-04-24T13:15:15.959Z</time></trkpt><trkpt lat="45.6768512" lon="9.5884075"><ele>197.0</ele><time>2026-04-24T13:15:17.959Z</time></trkpt><trkpt lat="45.6767323" lon="9.5883818"><ele>196.2</ele><time>2026-04-24T13:15:19.959Z</time></trkpt><trkpt lat="45.6766297" lon="9.5883049"><ele>195.39999999999998</ele><time>2026-04-24T13:15:21.959Z</time></trkpt><trkpt lat="45.676525" lon="9.5882258"><ele>194.60000000000002</ele><time>2026-04-24T13:15:23.958Z</time></trkpt><trkpt lat="45.6764685" lon="9.5881762"><ele>193.8</ele><time>2026-04-24T13:15:24.958Z</time></trkpt><trkpt lat="45.6763559" lon="9.5881267"><ele>193.0</ele><time>2026-04-24T13:15:26.958Z</time></trkpt><trkpt lat="45.6762933" lon="9.588093"><ele>193.0</ele><time>2026-04-24T13:15:27.958Z</time></trkpt><trkpt lat="45.6761765" lon="9.5880848"><ele>193.0</ele><time>2026-04-24T13:15:29.958Z</time></trkpt><trkpt lat="45.6760562" lon="9.5880475"><ele>193.0</ele><time>2026-04-24T13:15:31.958Z</time></trkpt><trkpt lat="45.6759412" lon="9.5879979"><ele>193.0</ele><time>2026-04-24T13:15:33.959Z</time></trkpt><trkpt lat="45.6758209" lon="9.5879664"><ele>192.33333333333331</ele><time>2026-04-24T13:15:35.958Z</time></trkpt><trkpt lat="45.6757091" lon="9.5879116"><ele>191.66666666666666</ele><time>2026-04-24T13:15:37.958Z</time></trkpt><trkpt lat="45.6755974" lon="9.5878505"><ele>191.0</ele><time>2026-04-24T13:15:39.958Z</time></trkpt><trkpt lat="45.6752932" lon="9.5876342"><ele>190.83333333333331</ele><time>2026-04-24T13:15:45.97Z</time></trkpt><trkpt lat="45.6751807" lon="9.5876357"><ele>190.66666666666666</ele><time>2026-04-24T13:15:46.964Z</time></trkpt><trkpt lat="45.6751076" lon="9.5875732"><ele>190.5</ele><time>2026-04-24T13:15:47.964Z</time></trkpt><trkpt lat="45.6750304" lon="9.5875603"><ele>190.33333333333334</ele><time>2026-04-24T13:15:49.967Z</time></trkpt><trkpt lat="45.6749528" lon="9.5875673"><ele>190.16666666666669</ele><time>2026-04-24T13:15:51.957Z</time></trkpt><trkpt lat="45.6748741" lon="9.5875234"><ele>190.0</ele><time>2026-04-24T13:15:53.958Z</time></trkpt><trkpt lat="45.6747849" lon="9.5874635"><ele>190.0</ele><time>2026-04-24T13:15:55.957Z</time></trkpt><trkpt lat="45.6747035" lon="9.5874425"><ele>190.0</ele><time>2026-04-24T13:15:57.958Z</time></trkpt><trkpt lat="45.6745706" lon="9.5874201"><ele>190.0</ele><time>2026-04-24T13:15:59.958Z</time></trkpt><trkpt lat="45.6745024" lon="9.5873983"><ele>190.0</ele><time>2026-04-24T13:16:00.957Z</time></trkpt><trkpt lat="45.674378" lon="9.5873553"><ele>190.0</ele><time>2026-04-24T13:16:02.957Z</time></trkpt><trkpt lat="45.6742618" lon="9.5873393"><ele>190.4</ele><time>2026-04-24T13:16:04.957Z</time></trkpt><trkpt lat="45.67413" lon="9.5873517"><ele>190.8</ele><time>2026-04-24T13:16:06.957Z</time></trkpt><trkpt lat="45.6740269" lon="9.5873644"><ele>191.2</ele><time>2026-04-24T13:16:08.958Z</time></trkpt><trkpt lat="45.6739231" lon="9.5873689"><ele>191.6</ele><time>2026-04-24T13:16:10.957Z</time></trkpt><trkpt lat="45.6738584" lon="9.5873886"><ele>192.0</ele><time>2026-04-24T13:16:11.957Z</time></trkpt><trkpt lat="45.6737245" lon="9.5874051"><ele>192.0</ele><time>2026-04-24T13:16:13.958Z</time></trkpt><trkpt lat="45.6736382" lon="9.5874147"><ele>192.0</ele><time>2026-04-24T13:16:14.957Z</time></trkpt><trkpt lat="45.6735716" lon="9.5874241"><ele>192.0</ele><time>2026-04-24T13:16:15.957Z</time></trkpt><trkpt lat="45.6734901" lon="9.5874376"><ele>192.0</ele><time>2026-04-24T13:16:16.957Z</time></trkpt><trkpt lat="45.6733704" lon="9.5874406"><ele>192.0</ele><time>2026-04-24T13:16:18.957Z</time></trkpt><trkpt lat="45.6732951" lon="9.5874494"><ele>192.0</ele><time>2026-04-24T13:16:19.958Z</time></trkpt><trkpt lat="45.673221" lon="9.5874463"><ele>191.83333333333334</ele><time>2026-04-24T13:16:20.957Z</time></trkpt><trkpt lat="45.6730966" lon="9.587409"><ele>191.66666666666666</ele><time>2026-04-24T13:16:22.957Z</time></trkpt><trkpt lat="45.6730278" lon="9.5873849"><ele>191.5</ele><time>2026-04-24T13:16:23.957Z</time></trkpt><trkpt lat="45.6729479" lon="9.5873826"><ele>191.33333333333331</ele><time>2026-04-24T13:16:24.958Z</time></trkpt><trkpt lat="45.6728753" lon="9.5873854"><ele>191.16666666666666</ele><time>2026-04-24T13:16:25.957Z</time></trkpt><trkpt lat="45.6728009" lon="9.5873798"><ele>191.0</ele><time>2026-04-24T13:16:26.957Z</time></trkpt><trkpt lat="45.6727264" lon="9.5873725"><ele>190.83333333333331</ele><time>2026-04-24T13:16:27.957Z</time></trkpt><trkpt lat="45.6726476" lon="9.5873568"><ele>190.66666666666666</ele><time>2026-04-24T13:16:28.957Z</time></trkpt><trkpt lat="45.6725716" lon="9.5873487"><ele>190.5</ele><time>2026-04-24T13:16:29.957Z</time></trkpt><trkpt lat="45.6724956" lon="9.5873432"><ele>190.33333333333334</ele><time>2026-04-24T13:16:30.957Z</time></trkpt><trkpt lat="45.6724233" lon="9.5873388"><ele>190.16666666666669</ele><time>2026-04-24T13:16:31.957Z</time></trkpt><trkpt lat="45.6722952" lon="9.5872882"><ele>190.0</ele><time>2026-04-24T13:16:33.957Z</time></trkpt><trkpt lat="45.6721548" lon="9.5872637"><ele>190.0</ele><time>2026-04-24T13:16:35.957Z</time></trkpt><trkpt lat="45.6720884" lon="9.5872557"><ele>190.0</ele><time>2026-04-24T13:16:36.957Z</time></trkpt><trkpt lat="45.6719991" lon="9.5872374"><ele>190.0</ele><time>2026-04-24T13:16:37.958Z</time></trkpt><trkpt lat="45.6718822" lon="9.5871777"><ele>190.0</ele><time>2026-04-24T13:16:39.957Z</time></trkpt><trkpt lat="45.6717945" lon="9.5871774"><ele>190.0</ele><time>2026-04-24T13:16:40.958Z</time></trkpt><trkpt lat="45.6716778" lon="9.5871479"><ele>190.0</ele><time>2026-04-24T13:16:42.957Z</time></trkpt><trkpt lat="45.6715626" lon="9.5871316"><ele>190.0</ele><time>2026-04-24T13:16:44.958Z</time></trkpt><trkpt lat="45.6715037" lon="9.5870884"><ele>190.0</ele><time>2026-04-24T13:16:45.957Z</time></trkpt><trkpt lat="45.671414" lon="9.5870644"><ele>190.0</ele><time>2026-04-24T13:16:46.957Z</time></trkpt><trkpt lat="45.6713418" lon="9.5870491"><ele>190.0</ele><time>2026-04-24T13:16:47.957Z</time></trkpt><trkpt lat="45.6712734" lon="9.5870032"><ele>190.0</ele><time>2026-04-24T13:16:48.957Z</time></trkpt><trkpt lat="45.6711571" lon="9.5869325"><ele>190.33333333333334</ele><time>2026-04-24T13:16:50.957Z</time></trkpt><trkpt lat="45.6710959" lon="9.586897"><ele>190.66666666666669</ele><time>2026-04-24T13:16:51.957Z</time></trkpt><trkpt lat="45.671012" lon="9.5868535"><ele>191.0</ele><time>2026-04-24T13:16:52.958Z</time></trkpt><trkpt lat="45.6709308" lon="9.5868117"><ele>191.33333333333334</ele><time>2026-04-24T13:16:53.957Z</time></trkpt><trkpt lat="45.6708559" lon="9.5867344"><ele>191.66666666666666</ele><time>2026-04-24T13:16:54.957Z</time></trkpt><trkpt lat="45.670793" lon="9.5867058"><ele>192.0</ele><time>2026-04-24T13:16:55.957Z</time></trkpt><trkpt lat="45.6707291" lon="9.5866984"><ele>192.0</ele><time>2026-04-24T13:16:56.957Z</time></trkpt><trkpt lat="45.6706498" lon="9.5866789"><ele>192.0</ele><time>2026-04-24T13:16:57.957Z</time></trkpt><trkpt lat="45.6705209" lon="9.5866484"><ele>192.0</ele><time>2026-04-24T13:16:59.957Z</time></trkpt><trkpt lat="45.6704087" lon="9.5865526"><ele>192.0</ele><time>2026-04-24T13:17:01.957Z</time></trkpt><trkpt lat="45.6703437" lon="9.5865134"><ele>192.0</ele><time>2026-04-24T13:17:02.957Z</time></trkpt><trkpt lat="45.6702814" lon="9.5864825"><ele>191.6</ele><time>2026-04-24T13:17:03.957Z</time></trkpt><trkpt lat="45.6701936" lon="9.5864612"><ele>191.2</ele><time>2026-04-24T13:17:04.958Z</time></trkpt><trkpt lat="45.6701233" lon="9.586461"><ele>190.8</ele><time>2026-04-24T13:17:05.957Z</time></trkpt><trkpt lat="45.6700611" lon="9.5864199"><ele>190.4</ele><time>2026-04-24T13:17:06.958Z</time></trkpt><trkpt lat="45.6699689" lon="9.5863327"><ele>190.0</ele><time>2026-04-24T13:17:08.958Z</time></trkpt><trkpt lat="45.6698362" lon="9.5862802"><ele>190.0</ele><time>2026-04-24T13:17:10.957Z</time></trkpt><trkpt lat="45.6697717" lon="9.5862456"><ele>190.0</ele><time>2026-04-24T13:17:11.958Z</time></trkpt><trkpt lat="45.6696695" lon="9.5861948"><ele>190.0</ele><time>2026-04-24T13:17:13.957Z</time></trkpt><trkpt lat="45.6695635" lon="9.5861287"><ele>190.0</ele><time>2026-04-24T13:17:15.957Z</time></trkpt><trkpt lat="45.6694945" lon="9.5860864"><ele>190.0</ele><time>2026-04-24T13:17:16.957Z</time></trkpt><trkpt lat="45.6693893" lon="9.5860444"><ele>189.33333333333334</ele><time>2026-04-24T13:17:18.957Z</time></trkpt><trkpt lat="45.6693124" lon="9.5860078"><ele>188.66666666666669</ele><time>2026-04-24T13:17:19.958Z</time></trkpt><trkpt lat="45.6692061" lon="9.585945"><ele>188.0</ele><time>2026-04-24T13:17:21.957Z</time></trkpt><trkpt lat="45.6691291" lon="9.5858854"><ele>187.33333333333334</ele><time>2026-04-24T13:17:22.958Z</time></trkpt><trkpt lat="45.6690613" lon="9.5858242"><ele>186.66666666666666</ele><time>2026-04-24T13:17:24.957Z</time></trkpt><trkpt lat="45.6690094" lon="9.5857595"><ele>186.0</ele><time>2026-04-24T13:17:25.957Z</time></trkpt><trkpt lat="45.6689615" lon="9.5856941"><ele>186.0</ele><time>2026-04-24T13:17:26.957Z</time></trkpt><trkpt lat="45.6689215" lon="9.5856234"><ele>186.0</ele><time>2026-04-24T13:17:27.958Z</time></trkpt><trkpt lat="45.6688415" lon="9.5855002"><ele>186.0</ele><time>2026-04-24T13:17:29.957Z</time></trkpt><trkpt lat="45.668772" lon="9.5854683"><ele>186.0</ele><time>2026-04-24T13:17:30.957Z</time></trkpt><trkpt lat="45.6687112" lon="9.5853926"><ele>186.0</ele><time>2026-04-24T13:17:31.957Z</time></trkpt><trkpt lat="45.668634" lon="9.5852476"><ele>186.5</ele><time>2026-04-24T13:17:33.957Z</time></trkpt><trkpt lat="45.6685866" lon="9.5851267"><ele>187.0</ele><time>2026-04-24T13:17:34.957Z</time></trkpt><trkpt lat="45.668539" lon="9.5850292"><ele>187.5</ele><time>2026-04-24T13:17:35.957Z</time></trkpt><trkpt lat="45.6684791" lon="9.5849836"><ele>188.0</ele><time>2026-04-24T13:17:36.957Z</time></trkpt><trkpt lat="45.6684215" lon="9.5849248"><ele>188.5</ele><time>2026-04-24T13:17:37.957Z</time></trkpt><trkpt lat="45.6683708" lon="9.5848506"><ele>189.0</ele><time>2026-04-24T13:17:38.958Z</time></trkpt><trkpt lat="45.6682881" lon="9.584763"><ele>189.0</ele><time>2026-04-24T13:17:40.958Z</time></trkpt><trkpt lat="45.6682401" lon="9.584701"><ele>189.0</ele><time>2026-04-24T13:17:41.957Z</time></trkpt><trkpt lat="45.668154" lon="9.5846271"><ele>189.0</ele><time>2026-04-24T13:17:43.957Z</time></trkpt><trkpt lat="45.6680431" lon="9.5845557"><ele>189.0</ele><time>2026-04-24T13:17:45.957Z</time></trkpt><trkpt lat="45.6679285" lon="9.5844949"><ele>189.0</ele><time>2026-04-24T13:17:47.958Z</time></trkpt><trkpt lat="45.6678503" lon="9.5845107"><ele>189.0</ele><time>2026-04-24T13:17:48.957Z</time></trkpt><trkpt lat="45.6677427" lon="9.5845458"><ele>189.0</ele><time>2026-04-24T13:17:50.957Z</time></trkpt><trkpt lat="45.6676357" lon="9.584636"><ele>189.0</ele><time>2026-04-24T13:17:52.957Z</time></trkpt><trkpt lat="45.6676161" lon="9.5847769"><ele>189.0</ele><time>2026-04-24T13:17:54.957Z</time></trkpt><trkpt lat="45.6675745" lon="9.584862"><ele>189.0</ele><time>2026-04-24T13:17:55.957Z</time></trkpt><trkpt lat="45.6674746" lon="9.5849943"><ele>189.0</ele><time>2026-04-24T13:17:57.957Z</time></trkpt><trkpt lat="45.6674549" lon="9.5851626"><ele>189.0</ele><time>2026-04-24T13:17:59.957Z</time></trkpt><trkpt lat="45.667412" lon="9.5852636"><ele>189.0</ele><time>2026-04-24T13:18:00.957Z</time></trkpt><trkpt lat="45.6673642" lon="9.5853401"><ele>189.0</ele><time>2026-04-24T13:18:01.957Z</time></trkpt><trkpt lat="45.6673325" lon="9.5855193"><ele>189.0</ele><time>2026-04-24T13:18:03.957Z</time></trkpt><trkpt lat="45.6672862" lon="9.5856627"><ele>189.0</ele><time>2026-04-24T13:18:05.957Z</time></trkpt><trkpt lat="45.6672432" lon="9.5858397"><ele>189.0</ele><time>2026-04-24T13:18:07.957Z</time></trkpt><trkpt lat="45.6672003" lon="9.5860054"><ele>189.0</ele><time>2026-04-24T13:18:09.958Z</time></trkpt><trkpt lat="45.6671835" lon="9.5861046"><ele>189.0</ele><time>2026-04-24T13:18:10.957Z</time></trkpt><trkpt lat="45.6671431" lon="9.5862785"><ele>189.25</ele><time>2026-04-24T13:18:12.957Z</time></trkpt><trkpt lat="45.6671051" lon="9.5864332"><ele>189.5</ele><time>2026-04-24T13:18:14.957Z</time></trkpt><trkpt lat="45.667062" lon="9.5865953"><ele>189.75</ele><time>2026-04-24T13:18:16.957Z</time></trkpt><trkpt lat="45.667019" lon="9.5867551"><ele>190.0</ele><time>2026-04-24T13:18:18.957Z</time></trkpt><trkpt lat="45.6669952" lon="9.5868859"><ele>190.33333333333334</ele><time>2026-04-24T13:18:20.958Z</time></trkpt><trkpt lat="45.6669784" lon="9.5870228"><ele>190.66666666666669</ele><time>2026-04-24T13:18:22.958Z</time></trkpt><trkpt lat="45.6669416" lon="9.5871056"><ele>191.0</ele><time>2026-04-24T13:18:24.957Z</time></trkpt><trkpt lat="45.6668568" lon="9.5870984"><ele>191.33333333333334</ele><time>2026-04-24T13:18:27.957Z</time></trkpt><trkpt lat="45.6667828" lon="9.5870533"><ele>191.66666666666666</ele><time>2026-04-24T13:18:29.958Z</time></trkpt><trkpt lat="45.6667199" lon="9.5870147"><ele>192.0</ele><time>2026-04-24T13:18:31.957Z</time></trkpt><trkpt lat="45.6666508" lon="9.586959"><ele>192.0</ele><time>2026-04-24T13:18:33.958Z</time></trkpt><trkpt lat="45.6665646" lon="9.5869185"><ele>192.0</ele><time>2026-04-24T13:18:35.958Z</time></trkpt><trkpt lat="45.6664795" lon="9.5868941"><ele>192.0</ele><time>2026-04-24T13:18:37.957Z</time></trkpt><trkpt lat="45.6663841" lon="9.5869011"><ele>192.0</ele><time>2026-04-24T13:18:39.957Z</time></trkpt><trkpt lat="45.6663201" lon="9.5868975"><ele>192.0</ele><time>2026-04-24T13:18:40.958Z</time></trkpt><trkpt lat="45.666237" lon="9.5869475"><ele>192.0</ele><time>2026-04-24T13:18:41.957Z</time></trkpt><trkpt lat="45.6661693" lon="9.5869463"><ele>192.16666666666666</ele><time>2026-04-24T13:18:43.957Z</time></trkpt><trkpt lat="45.6660994" lon="9.586968"><ele>192.33333333333331</ele><time>2026-04-24T13:18:44.957Z</time></trkpt><trkpt lat="45.6659712" lon="9.5869784"><ele>192.5</ele><time>2026-04-24T13:18:46.957Z</time></trkpt><trkpt lat="45.6659077" lon="9.5869938"><ele>192.66666666666666</ele><time>2026-04-24T13:18:47.958Z</time></trkpt><trkpt lat="45.6658427" lon="9.586987"><ele>192.83333333333331</ele><time>2026-04-24T13:18:48.957Z</time></trkpt><trkpt lat="45.6657794" lon="9.5869985"><ele>193.0</ele><time>2026-04-24T13:18:49.957Z</time></trkpt><trkpt lat="45.6656919" lon="9.5870039"><ele>193.0</ele><time>2026-04-24T13:18:50.957Z</time></trkpt><trkpt lat="45.6656254" lon="9.5870002"><ele>193.0</ele><time>2026-04-24T13:18:51.957Z</time></trkpt><trkpt lat="45.6655384" lon="9.5869796"><ele>193.0</ele><time>2026-04-24T13:18:53.957Z</time></trkpt><trkpt lat="45.6654084" lon="9.5869589"><ele>193.0</ele><time>2026-04-24T13:18:55.957Z</time></trkpt><trkpt lat="45.6653299" lon="9.5869488"><ele>193.0</ele><time>2026-04-24T13:18:56.957Z</time></trkpt><trkpt lat="45.6652045" lon="9.5869643"><ele>192.99999999999997</ele><time>2026-04-24T13:18:58.958Z</time></trkpt><trkpt lat="45.6651391" lon="9.5869884"><ele>193.0</ele><time>2026-04-24T13:18:59.957Z</time></trkpt><trkpt lat="45.6651025" lon="9.5869005"><ele>193.0</ele><time>2026-04-24T13:19:00.958Z</time></trkpt><trkpt lat="45.6649964" lon="9.586897"><ele>193.0</ele><time>2026-04-24T13:19:02.957Z</time></trkpt><trkpt lat="45.6649398" lon="9.5868568"><ele>192.99999999999997</ele><time>2026-04-24T13:19:03.958Z</time></trkpt><trkpt lat="45.6648668" lon="9.5868311"><ele>193.0</ele><time>2026-04-24T13:19:04.957Z</time></trkpt><trkpt lat="45.6647931" lon="9.5867375"><ele>193.0</ele><time>2026-04-24T13:19:06.957Z</time></trkpt><trkpt lat="45.6647117" lon="9.5866275"><ele>193.0</ele><time>2026-04-24T13:19:08.957Z</time></trkpt><trkpt lat="45.6646536" lon="9.5865226"><ele>193.0</ele><time>2026-04-24T13:19:10.957Z</time></trkpt><trkpt lat="45.6645714" lon="9.586472"><ele>193.0</ele><time>2026-04-24T13:19:12.958Z</time></trkpt><trkpt lat="45.6644929" lon="9.5864144"><ele>193.0</ele><time>2026-04-24T13:19:14.957Z</time></trkpt><trkpt lat="45.6643918" lon="9.5863312"><ele>193.2</ele><time>2026-04-24T13:19:16.957Z</time></trkpt><trkpt lat="45.6643324" lon="9.5862876"><ele>193.4</ele><time>2026-04-24T13:19:17.957Z</time></trkpt><trkpt lat="45.6642163" lon="9.5862163"><ele>193.6</ele><time>2026-04-24T13:19:19.958Z</time></trkpt><trkpt lat="45.6641133" lon="9.5861663"><ele>193.79999999999998</ele><time>2026-04-24T13:19:21.957Z</time></trkpt><trkpt lat="45.6639983" lon="9.5861866"><ele>194.0</ele><time>2026-04-24T13:19:23.958Z</time></trkpt><trkpt lat="45.66392" lon="9.5861212"><ele>193.83333333333334</ele><time>2026-04-24T13:19:25.958Z</time></trkpt><trkpt lat="45.6638656" lon="9.5859704"><ele>193.66666666666669</ele><time>2026-04-24T13:19:27.957Z</time></trkpt><trkpt lat="45.6638011" lon="9.5858562"><ele>193.5</ele><time>2026-04-24T13:19:29.958Z</time></trkpt><trkpt lat="45.6637365" lon="9.5857951"><ele>193.33333333333331</ele><time>2026-04-24T13:19:31.958Z</time></trkpt><trkpt lat="45.6636636" lon="9.5857565"><ele>193.16666666666666</ele><time>2026-04-24T13:19:34.957Z</time></trkpt><trkpt lat="45.663602" lon="9.5857207"><ele>193.0</ele><time>2026-04-24T13:19:37.957Z</time></trkpt><trkpt lat="45.66351" lon="9.5856774"><ele>192.99999999999997</ele><time>2026-04-24T13:19:40.957Z</time></trkpt><trkpt lat="45.6634313" lon="9.5856422"><ele>193.0</ele><time>2026-04-24T13:19:43.958Z</time></trkpt><trkpt lat="45.6633521" lon="9.5856248"><ele>193.0</ele><time>2026-04-24T13:19:46.958Z</time></trkpt><trkpt lat="45.6632819" lon="9.5856199"><ele>193.0</ele><time>2026-04-24T13:19:48.957Z</time></trkpt><trkpt lat="45.663204" lon="9.5856486"><ele>192.99999999999997</ele><time>2026-04-24T13:19:50.958Z</time></trkpt><trkpt lat="45.663122" lon="9.5856759"><ele>193.0</ele><time>2026-04-24T13:19:52.957Z</time></trkpt><trkpt lat="45.6629789" lon="9.585691"><ele>193.0</ele><time>2026-04-24T13:19:54.958Z</time></trkpt><trkpt lat="45.6628754" lon="9.5856959"><ele>193.0</ele><time>2026-04-24T13:19:56.957Z</time></trkpt><trkpt lat="45.6627722" lon="9.5857096"><ele>193.0</ele><time>2026-04-24T13:19:58.958Z</time></trkpt><trkpt lat="45.6626623" lon="9.5856825"><ele>193.0</ele><time>2026-04-24T13:20:00.957Z</time></trkpt><trkpt lat="45.6625557" lon="9.5856811"><ele>193.0</ele><time>2026-04-24T13:20:02.957Z</time></trkpt><trkpt lat="45.6624451" lon="9.5856525"><ele>193.0</ele><time>2026-04-24T13:20:04.957Z</time></trkpt><trkpt lat="45.6623424" lon="9.5856541"><ele>193.0</ele><time>2026-04-24T13:20:06.958Z</time></trkpt><trkpt lat="45.662227" lon="9.5856431"><ele>193.0</ele><time>2026-04-24T13:20:08.957Z</time></trkpt><trkpt lat="45.6621098" lon="9.5856183"><ele>193.0</ele><time>2026-04-24T13:20:10.957Z</time></trkpt><trkpt lat="45.6619857" lon="9.5856165"><ele>193.16666666666666</ele><time>2026-04-24T13:20:12.957Z</time></trkpt><trkpt lat="45.6619143" lon="9.5856124"><ele>193.33333333333331</ele><time>2026-04-24T13:20:13.957Z</time></trkpt><trkpt lat="45.6618454" lon="9.5856074"><ele>193.5</ele><time>2026-04-24T13:20:14.957Z</time></trkpt><trkpt lat="45.6617699" lon="9.5856156"><ele>193.66666666666669</ele><time>2026-04-24T13:20:15.957Z</time></trkpt><trkpt lat="45.6617025" lon="9.5856188"><ele>193.83333333333334</ele><time>2026-04-24T13:20:16.957Z</time></trkpt><trkpt lat="45.6616381" lon="9.5856087"><ele>194.0</ele><time>2026-04-24T13:20:17.957Z</time></trkpt><trkpt lat="45.6615101" lon="9.5856032"><ele>194.0</ele><time>2026-04-24T13:20:19.957Z</time></trkpt><trkpt lat="45.6614454" lon="9.5855987"><ele>194.0</ele><time>2026-04-24T13:20:20.957Z</time></trkpt><trkpt lat="45.6613266" lon="9.5855987"><ele>194.0</ele><time>2026-04-24T13:20:22.957Z</time></trkpt><trkpt lat="45.6612624" lon="9.5856031"><ele>194.0</ele><time>2026-04-24T13:20:23.957Z</time></trkpt><trkpt lat="45.661141" lon="9.5855886"><ele>194.0</ele><time>2026-04-24T13:20:25.957Z</time></trkpt><trkpt lat="45.6610135" lon="9.5855875"><ele>193.79999999999998</ele><time>2026-04-24T13:20:27.957Z</time></trkpt><trkpt lat="45.6609489" lon="9.585584"><ele>193.6</ele><time>2026-04-24T13:20:28.957Z</time></trkpt><trkpt lat="45.6608435" lon="9.5855588"><ele>193.4</ele><time>2026-04-24T13:20:30.957Z</time></trkpt><trkpt lat="45.6607164" lon="9.5855314"><ele>193.2</ele><time>2026-04-24T13:20:32.957Z</time></trkpt><trkpt lat="45.6605932" lon="9.5855053"><ele>193.0</ele><time>2026-04-24T13:20:34.958Z</time></trkpt><trkpt lat="45.6604678" lon="9.5854594"><ele>192.99999999999997</ele><time>2026-04-24T13:20:36.957Z</time></trkpt><trkpt lat="45.6604074" lon="9.585434"><ele>193.0</ele><time>2026-04-24T13:20:37.958Z</time></trkpt><trkpt lat="45.6602989" lon="9.585383"><ele>193.0</ele><time>2026-04-24T13:20:39.957Z</time></trkpt><trkpt lat="45.6601923" lon="9.5853433"><ele>193.0</ele><time>2026-04-24T13:20:41.958Z</time></trkpt><trkpt lat="45.6601203" lon="9.5853064"><ele>192.99999999999997</ele><time>2026-04-24T13:20:42.958Z</time></trkpt><trkpt lat="45.6600526" lon="9.5852711"><ele>193.0</ele><time>2026-04-24T13:20:43.957Z</time></trkpt><trkpt lat="45.6599381" lon="9.5852125"><ele>191.66666666666666</ele><time>2026-04-24T13:20:45.957Z</time></trkpt><trkpt lat="45.6598673" lon="9.585173"><ele>190.33333333333331</ele><time>2026-04-24T13:20:46.957Z</time></trkpt><trkpt lat="45.6598034" lon="9.5851481"><ele>189.0</ele><time>2026-04-24T13:20:47.958Z</time></trkpt><trkpt lat="45.6596924" lon="9.5850829"><ele>187.66666666666666</ele><time>2026-04-24T13:20:49.957Z</time></trkpt><trkpt lat="45.659589" lon="9.5850358"><ele>186.33333333333331</ele><time>2026-04-24T13:20:51.957Z</time></trkpt><trkpt lat="45.6595251" lon="9.5850159"><ele>185.0</ele><time>2026-04-24T13:20:52.957Z</time></trkpt><trkpt lat="45.6594597" lon="9.5850066"><ele>185.6</ele><time>2026-04-24T13:20:53.957Z</time></trkpt><trkpt lat="45.659396" lon="9.585006"><ele>186.2</ele><time>2026-04-24T13:20:54.958Z</time></trkpt><trkpt lat="45.6592852" lon="9.5850243"><ele>186.8</ele><time>2026-04-24T13:20:56.957Z</time></trkpt><trkpt lat="45.6591721" lon="9.5850741"><ele>187.4</ele><time>2026-04-24T13:20:58.957Z</time></trkpt><trkpt lat="45.6590622" lon="9.5850836"><ele>188.0</ele><time>2026-04-24T13:21:00.957Z</time></trkpt><trkpt lat="45.6589902" lon="9.5850965"><ele>188.0</ele><time>2026-04-24T13:21:01.957Z</time></trkpt><trkpt lat="45.6589271" lon="9.58509"><ele>188.0</ele><time>2026-04-24T13:21:02.958Z</time></trkpt><trkpt lat="45.6588588" lon="9.5850893"><ele>188.0</ele><time>2026-04-24T13:21:03.957Z</time></trkpt><trkpt lat="45.6587903" lon="9.5850718"><ele>188.0</ele><time>2026-04-24T13:21:04.958Z</time></trkpt><trkpt lat="45.6586684" lon="9.5850351"><ele>188.0</ele><time>2026-04-24T13:21:06.957Z</time></trkpt><trkpt lat="45.6585396" lon="9.5850074"><ele>188.5</ele><time>2026-04-24T13:21:08.958Z</time></trkpt><trkpt lat="45.6584272" lon="9.5849591"><ele>189.0</ele><time>2026-04-24T13:21:10.958Z</time></trkpt><trkpt lat="45.6583653" lon="9.5849326"><ele>189.5</ele><time>2026-04-24T13:21:11.957Z</time></trkpt><trkpt lat="45.6583031" lon="9.5848814"><ele>190.0</ele><time>2026-04-24T13:21:12.957Z</time></trkpt><trkpt lat="45.6582506" lon="9.58483"><ele>190.5</ele><time>2026-04-24T13:21:13.958Z</time></trkpt><trkpt lat="45.6581431" lon="9.5847314"><ele>191.0</ele><time>2026-04-24T13:21:15.957Z</time></trkpt><trkpt lat="45.658088" lon="9.5846867"><ele>191.0</ele><time>2026-04-24T13:21:16.958Z</time></trkpt><trkpt lat="45.6579869" lon="9.5845859"><ele>191.0</ele><time>2026-04-24T13:21:18.958Z</time></trkpt><trkpt lat="45.6578833" lon="9.5844897"><ele>191.0</ele><time>2026-04-24T13:21:20.957Z</time></trkpt><trkpt lat="45.6577862" lon="9.5843742"><ele>191.0</ele><time>2026-04-24T13:21:22.957Z</time></trkpt><trkpt lat="45.6577291" lon="9.5843211"><ele>191.0</ele><time>2026-04-24T13:21:23.958Z</time></trkpt><trkpt lat="45.6576749" lon="9.5842668"><ele>190.8</ele><time>2026-04-24T13:21:24.957Z</time></trkpt><trkpt lat="45.6575664" lon="9.5842053"><ele>190.60000000000002</ele><time>2026-04-24T13:21:26.958Z</time></trkpt><trkpt lat="45.6575052" lon="9.5841508"><ele>190.4</ele><time>2026-04-24T13:21:27.957Z</time></trkpt><trkpt lat="45.6574441" lon="9.5841122"><ele>190.2</ele><time>2026-04-24T13:21:28.957Z</time></trkpt><trkpt lat="45.6573506" lon="9.5840221"><ele>190.0</ele><time>2026-04-24T13:21:30.957Z</time></trkpt><trkpt lat="45.6572617" lon="9.5839127"><ele>190.0</ele><time>2026-04-24T13:21:32.957Z</time></trkpt><trkpt lat="45.6571548" lon="9.5838592"><ele>190.0</ele><time>2026-04-24T13:21:34.958Z</time></trkpt><trkpt lat="45.6570495" lon="9.583771"><ele>190.0</ele><time>2026-04-24T13:21:36.957Z</time></trkpt><trkpt lat="45.6569399" lon="9.58369"><ele>190.0</ele><time>2026-04-24T13:21:38.957Z</time></trkpt><trkpt lat="45.6568758" lon="9.5836513"><ele>190.0</ele><time>2026-04-24T13:21:39.957Z</time></trkpt><trkpt lat="45.656817" lon="9.5836129"><ele>190.2</ele><time>2026-04-24T13:21:40.957Z</time></trkpt><trkpt lat="45.6567272" lon="9.5835246"><ele>190.4</ele><time>2026-04-24T13:21:42.957Z</time></trkpt><trkpt lat="45.6566695" lon="9.5834729"><ele>190.60000000000002</ele><time>2026-04-24T13:21:43.957Z</time></trkpt><trkpt lat="45.6565723" lon="9.5833935"><ele>190.8</ele><time>2026-04-24T13:21:45.957Z</time></trkpt><trkpt lat="45.6564745" lon="9.5832783"><ele>191.0</ele><time>2026-04-24T13:21:47.957Z</time></trkpt><trkpt lat="45.6563714" lon="9.583202"><ele>191.0</ele><time>2026-04-24T13:21:49.958Z</time></trkpt><trkpt lat="45.6563066" lon="9.5831449"><ele>191.0</ele><time>2026-04-24T13:21:50.957Z</time></trkpt><trkpt lat="45.6562483" lon="9.5831061"><ele>191.0</ele><time>2026-04-24T13:21:51.958Z</time></trkpt><trkpt lat="45.6561777" lon="9.5830851"><ele>191.0</ele><time>2026-04-24T13:21:52.958Z</time></trkpt><trkpt lat="45.6560684" lon="9.5830067"><ele>191.0</ele><time>2026-04-24T13:21:54.957Z</time></trkpt><trkpt lat="45.6560102" lon="9.5829676"><ele>191.0</ele><time>2026-04-24T13:21:55.957Z</time></trkpt><trkpt lat="45.6559593" lon="9.5828815"><ele>190.16666666666666</ele><time>2026-04-24T13:21:56.957Z</time></trkpt><trkpt lat="45.6558878" lon="9.5828046"><ele>189.33333333333331</ele><time>2026-04-24T13:21:57.957Z</time></trkpt><trkpt lat="45.655809" lon="9.5827199"><ele>188.5</ele><time>2026-04-24T13:21:58.958Z</time></trkpt><trkpt lat="45.6557389" lon="9.5826951"><ele>187.66666666666666</ele><time>2026-04-24T13:21:59.957Z</time></trkpt><trkpt lat="45.6556611" lon="9.5826648"><ele>186.83333333333334</ele><time>2026-04-24T13:22:00.957Z</time></trkpt><trkpt lat="45.6555895" lon="9.5826277"><ele>186.0</ele><time>2026-04-24T13:22:01.958Z</time></trkpt><trkpt lat="45.6555279" lon="9.582588"><ele>186.0</ele><time>2026-04-24T13:22:02.958Z</time></trkpt><trkpt lat="45.6554624" lon="9.5825399"><ele>186.0</ele><time>2026-04-24T13:22:03.957Z</time></trkpt><trkpt lat="45.6553959" lon="9.5824723"><ele>186.0</ele><time>2026-04-24T13:22:04.958Z</time></trkpt><trkpt lat="45.6553313" lon="9.5824299"><ele>186.0</ele><time>2026-04-24T13:22:05.958Z</time></trkpt><trkpt lat="45.6552712" lon="9.5823973"><ele>186.0</ele><time>2026-04-24T13:22:06.957Z</time></trkpt><trkpt lat="45.6552089" lon="9.5823586"><ele>186.0</ele><time>2026-04-24T13:22:07.957Z</time></trkpt><trkpt lat="45.6551089" lon="9.5823064"><ele>187.20000000000002</ele><time>2026-04-24T13:22:09.957Z</time></trkpt><trkpt lat="45.6550089" lon="9.5822635"><ele>188.4</ele><time>2026-04-24T13:22:11.957Z</time></trkpt><trkpt lat="45.6549131" lon="9.5822428"><ele>189.6</ele><time>2026-04-24T13:22:13.958Z</time></trkpt><trkpt lat="45.654819" lon="9.582203"><ele>190.8</ele><time>2026-04-24T13:22:15.957Z</time></trkpt><trkpt lat="45.6547128" lon="9.5821507"><ele>192.0</ele><time>2026-04-24T13:22:17.957Z</time></trkpt><trkpt lat="45.6546114" lon="9.5820992"><ele>192.0</ele><time>2026-04-24T13:22:19.958Z</time></trkpt><trkpt lat="45.654553" lon="9.5820477"><ele>192.0</ele><time>2026-04-24T13:22:20.957Z</time></trkpt><trkpt lat="45.6544763" lon="9.5819521"><ele>192.0</ele><time>2026-04-24T13:22:22.957Z</time></trkpt><trkpt lat="45.6543693" lon="9.5819009"><ele>192.0</ele><time>2026-04-24T13:22:24.957Z</time></trkpt><trkpt lat="45.6542613" lon="9.5818429"><ele>192.0</ele><time>2026-04-24T13:22:26.958Z</time></trkpt><trkpt lat="45.6542026" lon="9.5818091"><ele>191.39999999999998</ele><time>2026-04-24T13:22:27.957Z</time></trkpt><trkpt lat="45.6541371" lon="9.5817712"><ele>190.79999999999998</ele><time>2026-04-24T13:22:28.958Z</time></trkpt><trkpt lat="45.6540056" lon="9.5816744"><ele>190.2</ele><time>2026-04-24T13:22:30.957Z</time></trkpt><trkpt lat="45.6539413" lon="9.5816411"><ele>189.6</ele><time>2026-04-24T13:22:31.957Z</time></trkpt><trkpt lat="45.6538771" lon="9.5816234"><ele>189.0</ele><time>2026-04-24T13:22:32.957Z</time></trkpt><trkpt lat="45.6537392" lon="9.5815655"><ele>189.0</ele><time>2026-04-24T13:22:34.957Z</time></trkpt><trkpt lat="45.6536676" lon="9.5815241"><ele>189.0</ele><time>2026-04-24T13:22:35.957Z</time></trkpt><trkpt lat="45.6535642" lon="9.5814512"><ele>189.0</ele><time>2026-04-24T13:22:37.957Z</time></trkpt><trkpt lat="45.6534838" lon="9.5813835"><ele>189.0</ele><time>2026-04-24T13:22:39.957Z</time></trkpt><trkpt lat="45.6533868" lon="9.5813313"><ele>189.0</ele><time>2026-04-24T13:22:41.957Z</time></trkpt><trkpt lat="45.6533201" lon="9.5812805"><ele>189.2</ele><time>2026-04-24T13:22:42.957Z</time></trkpt><trkpt lat="45.6532137" lon="9.581214"><ele>189.39999999999998</ele><time>2026-04-24T13:22:43.957Z</time></trkpt><trkpt lat="45.6530821" lon="9.5811884"><ele>189.6</ele><time>2026-04-24T13:22:44.958Z</time></trkpt><trkpt lat="45.6530196" lon="9.5811619"><ele>189.8</ele><time>2026-04-24T13:22:45.958Z</time></trkpt><trkpt lat="45.6528977" lon="9.5811115"><ele>190.0</ele><time>2026-04-24T13:22:47.958Z</time></trkpt><trkpt lat="45.6528057" lon="9.5810011"><ele>190.0</ele><time>2026-04-24T13:22:49.957Z</time></trkpt><trkpt lat="45.6527329" lon="9.580969"><ele>190.0</ele><time>2026-04-24T13:22:50.958Z</time></trkpt><trkpt lat="45.6526557" lon="9.5809772"><ele>190.0</ele><time>2026-04-24T13:22:51.957Z</time></trkpt><trkpt lat="45.6526018" lon="9.5809032"><ele>190.0</ele><time>2026-04-24T13:22:52.957Z</time></trkpt><trkpt lat="45.6525219" lon="9.5808684"><ele>190.0</ele><time>2026-04-24T13:22:53.958Z</time></trkpt><trkpt lat="45.6524623" lon="9.5808039"><ele>190.0</ele><time>2026-04-24T13:22:54.958Z</time></trkpt><trkpt lat="45.6523891" lon="9.5807603"><ele>190.0</ele><time>2026-04-24T13:22:55.957Z</time></trkpt><trkpt lat="45.6523184" lon="9.580718"><ele>190.0</ele><time>2026-04-24T13:22:56.957Z</time></trkpt><trkpt lat="45.6522618" lon="9.5806336"><ele>190.0</ele><time>2026-04-24T13:22:57.957Z</time></trkpt><trkpt lat="45.6522024" lon="9.5805832"><ele>190.0</ele><time>2026-04-24T13:22:58.958Z</time></trkpt><trkpt lat="45.6520684" lon="9.5805273"><ele>190.0</ele><time>2026-04-24T13:23:00.957Z</time></trkpt><trkpt lat="45.6520056" lon="9.5804988"><ele>190.0</ele><time>2026-04-24T13:23:01.958Z</time></trkpt><trkpt lat="45.6519409" lon="9.58045"><ele>190.0</ele><time>2026-04-24T13:23:02.958Z</time></trkpt><trkpt lat="45.651889" lon="9.5803748"><ele>190.0</ele><time>2026-04-24T13:23:03.957Z</time></trkpt><trkpt lat="45.6518346" lon="9.5803156"><ele>190.0</ele><time>2026-04-24T13:23:04.957Z</time></trkpt><trkpt lat="45.6517395" lon="9.5802214"><ele>190.0</ele><time>2026-04-24T13:23:06.957Z</time></trkpt><trkpt lat="45.6516543" lon="9.5801692"><ele>190.0</ele><time>2026-04-24T13:23:08.958Z</time></trkpt><trkpt lat="45.6515726" lon="9.5801755"><ele>190.0</ele><time>2026-04-24T13:23:12.957Z</time></trkpt><trkpt lat="45.6514982" lon="9.5802025"><ele>190.0</ele><time>2026-04-24T13:23:15.957Z</time></trkpt><trkpt lat="45.65142" lon="9.5802199"><ele>190.0</ele><time>2026-04-24T13:23:18.958Z</time></trkpt><trkpt lat="45.6513338" lon="9.5802364"><ele>190.0</ele><time>2026-04-24T13:23:21.958Z</time></trkpt><trkpt lat="45.6512537" lon="9.5802188"><ele>190.0</ele><time>2026-04-24T13:23:24.957Z</time></trkpt><trkpt lat="45.6511831" lon="9.5801809"><ele>190.0</ele><time>2026-04-24T13:23:28.958Z</time></trkpt><trkpt lat="45.6511167" lon="9.5801976"><ele>190.0</ele><time>2026-04-24T13:23:32.958Z</time></trkpt><trkpt lat="45.6510525" lon="9.5801924"><ele>191.14285714285714</ele><time>2026-04-24T13:23:37.958Z</time></trkpt><trkpt lat="45.650989" lon="9.5801946"><ele>192.28571428571428</ele><time>2026-04-24T13:23:40.957Z</time></trkpt><trkpt lat="45.6509215" lon="9.5801903"><ele>193.42857142857144</ele><time>2026-04-24T13:23:43.957Z</time></trkpt><trkpt lat="45.6508464" lon="9.5802048"><ele>194.57142857142856</ele><time>2026-04-24T13:23:48.958Z</time></trkpt><trkpt lat="45.6507852" lon="9.5802494"><ele>195.7142857142857</ele><time>2026-04-24T13:23:52.957Z</time></trkpt><trkpt lat="45.6507155" lon="9.5802537"><ele>196.85714285714286</ele><time>2026-04-24T13:23:54.957Z</time></trkpt><trkpt lat="45.6506541" lon="9.5802812"><ele>198.0</ele><time>2026-04-24T13:23:57.958Z</time></trkpt><trkpt lat="45.6505988" lon="9.5803339"><ele>199.16666666666666</ele><time>2026-04-24T13:24:00.958Z</time></trkpt><trkpt lat="45.6505367" lon="9.5803515"><ele>200.33333333333331</ele><time>2026-04-24T13:24:02.957Z</time></trkpt><trkpt lat="45.6504624" lon="9.5803841"><ele>201.5</ele><time>2026-04-24T13:24:05.958Z</time></trkpt><trkpt lat="45.6503747" lon="9.5804125"><ele>202.66666666666666</ele><time>2026-04-24T13:24:09.958Z</time></trkpt><trkpt lat="45.6503093" lon="9.580432"><ele>203.83333333333331</ele><time>2026-04-24T13:24:11.957Z</time></trkpt><trkpt lat="45.6502292" lon="9.5804082"><ele>205.0</ele><time>2026-04-24T13:24:13.957Z</time></trkpt><trkpt lat="45.6501613" lon="9.5803617"><ele>204.6</ele><time>2026-04-24T13:24:15.957Z</time></trkpt><trkpt lat="45.6500857" lon="9.5803166"><ele>204.2</ele><time>2026-04-24T13:24:17.957Z</time></trkpt><trkpt lat="45.650009" lon="9.580269"><ele>203.8</ele><time>2026-04-24T13:24:19.957Z</time></trkpt><trkpt lat="45.6499252" lon="9.5802347"><ele>203.4</ele><time>2026-04-24T13:24:21.958Z</time></trkpt><trkpt lat="45.6498249" lon="9.5802021"><ele>203.0</ele><time>2026-04-24T13:24:23.957Z</time></trkpt><trkpt lat="45.6497334" lon="9.5801376"><ele>203.0</ele><time>2026-04-24T13:24:25.957Z</time></trkpt><trkpt lat="45.6496445" lon="9.5800675"><ele>203.0</ele><time>2026-04-24T13:24:27.958Z</time></trkpt><trkpt lat="45.6495521" lon="9.5799953"><ele>203.0</ele><time>2026-04-24T13:24:29.957Z</time></trkpt><trkpt lat="45.6494502" lon="9.5799292"><ele>203.0</ele><time>2026-04-24T13:24:31.957Z</time></trkpt><trkpt lat="45.6493467" lon="9.5798577"><ele>203.0</ele><time>2026-04-24T13:24:33.957Z</time></trkpt><trkpt lat="45.6492965" lon="9.5797965"><ele>203.60000000000002</ele><time>2026-04-24T13:24:34.958Z</time></trkpt><trkpt lat="45.6492441" lon="9.5797453"><ele>204.20000000000002</ele><time>2026-04-24T13:24:35.957Z</time></trkpt><trkpt lat="45.6491687" lon="9.5796602"><ele>204.8</ele><time>2026-04-24T13:24:37.957Z</time></trkpt><trkpt lat="45.6490671" lon="9.5795382"><ele>205.4</ele><time>2026-04-24T13:24:39.957Z</time></trkpt><trkpt lat="45.6489634" lon="9.5794795"><ele>206.0</ele><time>2026-04-24T13:24:41.957Z</time></trkpt><trkpt lat="45.6488552" lon="9.579407"><ele>205.0</ele><time>2026-04-24T13:24:43.957Z</time></trkpt><trkpt lat="45.6487696" lon="9.579319"><ele>204.0</ele><time>2026-04-24T13:24:45.958Z</time></trkpt><trkpt lat="45.6486531" lon="9.579223"><ele>203.0</ele><time>2026-04-24T13:24:47.957Z</time></trkpt><trkpt lat="45.6485604" lon="9.5791463"><ele>202.0</ele><time>2026-04-24T13:24:49.957Z</time></trkpt><trkpt lat="45.6484545" lon="9.5790328"><ele>202.0</ele><time>2026-04-24T13:24:51.957Z</time></trkpt><trkpt lat="45.6483964" lon="9.5789881"><ele>202.0</ele><time>2026-04-24T13:24:52.957Z</time></trkpt><trkpt lat="45.6483407" lon="9.5789337"><ele>202.0</ele><time>2026-04-24T13:24:53.957Z</time></trkpt><trkpt lat="45.648251" lon="9.5788327"><ele>202.0</ele><time>2026-04-24T13:24:55.958Z</time></trkpt><trkpt lat="45.6481899" lon="9.5787785"><ele>202.0</ele><time>2026-04-24T13:24:56.957Z</time></trkpt><trkpt lat="45.6480685" lon="9.5787035"><ele>201.16666666666666</ele><time>2026-04-24T13:24:58.957Z</time></trkpt><trkpt lat="45.6480075" lon="9.5786406"><ele>200.33333333333331</ele><time>2026-04-24T13:24:59.957Z</time></trkpt><trkpt lat="45.6479441" lon="9.5786003"><ele>199.5</ele><time>2026-04-24T13:25:00.957Z</time></trkpt><trkpt lat="45.6478246" lon="9.5785737"><ele>198.66666666666669</ele><time>2026-04-24T13:25:02.957Z</time></trkpt><trkpt lat="45.6477617" lon="9.5785403"><ele>197.83333333333334</ele><time>2026-04-24T13:25:03.957Z</time></trkpt><trkpt lat="45.6476905" lon="9.5784968"><ele>197.0</ele><time>2026-04-24T13:25:04.957Z</time></trkpt><trkpt lat="45.647629" lon="9.5784642"><ele>197.00000000000003</ele><time>2026-04-24T13:25:05.957Z</time></trkpt><trkpt lat="45.6474932" lon="9.5783961"><ele>197.0</ele><time>2026-04-24T13:25:07.958Z</time></trkpt><trkpt lat="45.6474319" lon="9.5783714"><ele>197.0</ele><time>2026-04-24T13:25:08.957Z</time></trkpt><trkpt lat="45.6473717" lon="9.578323"><ele>197.0</ele><time>2026-04-24T13:25:09.957Z</time></trkpt><trkpt lat="45.6473061" lon="9.5782855"><ele>197.00000000000003</ele><time>2026-04-24T13:25:10.957Z</time></trkpt><trkpt lat="45.6472434" lon="9.5782575"><ele>197.0</ele><time>2026-04-24T13:25:11.958Z</time></trkpt><trkpt lat="45.6471799" lon="9.5782403"><ele>197.0</ele><time>2026-04-24T13:25:12.958Z</time></trkpt><trkpt lat="45.6471178" lon="9.5782212"><ele>197.0</ele><time>2026-04-24T13:25:13.958Z</time></trkpt><trkpt lat="45.6469976" lon="9.5781852"><ele>197.0</ele><time>2026-04-24T13:25:15.957Z</time></trkpt><trkpt lat="45.6468705" lon="9.5781612"><ele>197.0</ele><time>2026-04-24T13:25:17.957Z</time></trkpt><trkpt lat="45.646807" lon="9.578147"><ele>197.0</ele><time>2026-04-24T13:25:18.957Z</time></trkpt><trkpt lat="45.6467158" lon="9.5781147"><ele>197.16666666666669</ele><time>2026-04-24T13:25:20.957Z</time></trkpt><trkpt lat="45.6466665" lon="9.57805"><ele>197.33333333333334</ele><time>2026-04-24T13:25:23.957Z</time></trkpt><trkpt lat="45.6465966" lon="9.5779812"><ele>197.5</ele><time>2026-04-24T13:25:38.957Z</time></trkpt><trkpt lat="45.6465131" lon="9.5779272"><ele>197.66666666666669</ele><time>2026-04-24T13:25:41.957Z</time></trkpt><trkpt lat="45.6464439" lon="9.5778639"><ele>197.83333333333334</ele><time>2026-04-24T13:25:43.957Z</time></trkpt><trkpt lat="45.6463646" lon="9.5778016"><ele>198.0</ele><time>2026-04-24T13:25:45.957Z</time></trkpt><trkpt lat="45.6462926" lon="9.5777297"><ele>198.0</ele><time>2026-04-24T13:25:47.957Z</time></trkpt><trkpt lat="45.6462145" lon="9.5776681"><ele>198.0</ele><time>2026-04-24T13:25:49.958Z</time></trkpt><trkpt lat="45.6461276" lon="9.5776202"><ele>198.0</ele><time>2026-04-24T13:25:51.958Z</time></trkpt><trkpt lat="45.6460295" lon="9.5775615"><ele>198.0</ele><time>2026-04-24T13:25:53.957Z</time></trkpt><trkpt lat="45.6459254" lon="9.5774958"><ele>198.0</ele><time>2026-04-24T13:25:55.957Z</time></trkpt><trkpt lat="45.6458196" lon="9.5774286"><ele>198.0</ele><time>2026-04-24T13:25:57.957Z</time></trkpt><trkpt lat="45.6457162" lon="9.5773609"><ele>198.0</ele><time>2026-04-24T13:25:59.957Z</time></trkpt><trkpt lat="45.6456022" lon="9.5772855"><ele>198.0</ele><time>2026-04-24T13:26:01.957Z</time></trkpt><trkpt lat="45.645508" lon="9.5772048"><ele>198.0</ele><time>2026-04-24T13:26:03.958Z</time></trkpt><trkpt lat="45.6454002" lon="9.5771269"><ele>198.0</ele><time>2026-04-24T13:26:05.958Z</time></trkpt><trkpt lat="45.6453438" lon="9.5770732"><ele>198.0</ele><time>2026-04-24T13:26:06.957Z</time></trkpt><trkpt lat="45.6452335" lon="9.576975"><ele>198.0</ele><time>2026-04-24T13:26:08.957Z</time></trkpt><trkpt lat="45.6451772" lon="9.5769239"><ele>198.0</ele><time>2026-04-24T13:26:09.958Z</time></trkpt><trkpt lat="45.6450717" lon="9.5768317"><ele>198.0</ele><time>2026-04-24T13:26:11.957Z</time></trkpt><trkpt lat="45.6449632" lon="9.5767219"><ele>198.0</ele><time>2026-04-24T13:26:13.957Z</time></trkpt><trkpt lat="45.6449032" lon="9.5766603"><ele>198.0</ele><time>2026-04-24T13:26:14.957Z</time></trkpt><trkpt lat="45.6448017" lon="9.5765669"><ele>198.0</ele><time>2026-04-24T13:26:16.958Z</time></trkpt><trkpt lat="45.6446997" lon="9.5764765"><ele>198.0</ele><time>2026-04-24T13:26:18.957Z</time></trkpt><trkpt lat="45.6446415" lon="9.5764275"><ele>198.0</ele><time>2026-04-24T13:26:19.958Z</time></trkpt><trkpt lat="45.6445916" lon="9.5763663"><ele>198.0</ele><time>2026-04-24T13:26:20.957Z</time></trkpt><trkpt lat="45.6445438" lon="9.5762942"><ele>198.0</ele><time>2026-04-24T13:26:21.957Z</time></trkpt><trkpt lat="45.6444873" lon="9.5762389"><ele>198.0</ele><time>2026-04-24T13:26:22.958Z</time></trkpt><trkpt lat="45.6443829" lon="9.5761234"><ele>198.0</ele><time>2026-04-24T13:26:24.957Z</time></trkpt><trkpt lat="45.6443282" lon="9.5760699"><ele>198.0</ele><time>2026-04-24T13:26:25.957Z</time></trkpt><trkpt lat="45.6442683" lon="9.5760156"><ele>198.0</ele><time>2026-04-24T13:26:26.958Z</time></trkpt><trkpt lat="45.6441679" lon="9.5759108"><ele>198.0</ele><time>2026-04-24T13:26:28.958Z</time></trkpt><trkpt lat="45.6441109" lon="9.5758451"><ele>198.0</ele><time>2026-04-24T13:26:29.958Z</time></trkpt><trkpt lat="45.6440558" lon="9.5757885"><ele>198.0</ele><time>2026-04-24T13:26:30.957Z</time></trkpt><trkpt lat="45.6440048" lon="9.5757271"><ele>198.0</ele><time>2026-04-24T13:26:31.957Z</time></trkpt><trkpt lat="45.6439562" lon="9.5756567"><ele>198.0</ele><time>2026-04-24T13:26:32.957Z</time></trkpt><trkpt lat="45.6438627" lon="9.5755335"><ele>198.0</ele><time>2026-04-24T13:26:34.957Z</time></trkpt><trkpt lat="45.6437772" lon="9.5754267"><ele>198.0</ele><time>2026-04-24T13:26:36.957Z</time></trkpt><trkpt lat="45.6436812" lon="9.5752995"><ele>198.0</ele><time>2026-04-24T13:26:38.957Z</time></trkpt><trkpt lat="45.6436241" lon="9.5752529"><ele>198.0</ele><time>2026-04-24T13:26:39.957Z</time></trkpt><trkpt lat="45.6435672" lon="9.575194"><ele>198.0</ele><time>2026-04-24T13:26:40.957Z</time></trkpt><trkpt lat="45.6435189" lon="9.575135"><ele>198.0</ele><time>2026-04-24T13:26:41.958Z</time></trkpt><trkpt lat="45.6434647" lon="9.5750857"><ele>198.0</ele><time>2026-04-24T13:26:42.957Z</time></trkpt><trkpt lat="45.6434169" lon="9.5750223"><ele>198.0</ele><time>2026-04-24T13:26:43.957Z</time></trkpt><trkpt lat="45.6433651" lon="9.5749604"><ele>198.0</ele><time>2026-04-24T13:26:44.957Z</time></trkpt><trkpt lat="45.6433097" lon="9.5749109"><ele>198.0</ele><time>2026-04-24T13:26:45.957Z</time></trkpt><trkpt lat="45.6432686" lon="9.5748332"><ele>198.0</ele><time>2026-04-24T13:26:46.958Z</time></trkpt><trkpt lat="45.6431756" lon="9.5747202"><ele>198.0</ele><time>2026-04-24T13:26:48.957Z</time></trkpt><trkpt lat="45.6430709" lon="9.5746276"><ele>198.0</ele><time>2026-04-24T13:26:50.957Z</time></trkpt><trkpt lat="45.6430156" lon="9.5745704"><ele>197.2</ele><time>2026-04-24T13:26:51.957Z</time></trkpt><trkpt lat="45.6429615" lon="9.5745195"><ele>196.4</ele><time>2026-04-24T13:26:52.958Z</time></trkpt><trkpt lat="45.6428999" lon="9.5744881"><ele>195.6</ele><time>2026-04-24T13:26:53.958Z</time></trkpt><trkpt lat="45.642787" lon="9.5744206"><ele>194.79999999999998</ele><time>2026-04-24T13:26:55.957Z</time></trkpt><trkpt lat="45.6426758" lon="9.5743472"><ele>194.0</ele><time>2026-04-24T13:26:57.958Z</time></trkpt><trkpt lat="45.6425853" lon="9.5742717"><ele>194.0</ele><time>2026-04-24T13:26:59.958Z</time></trkpt><trkpt lat="45.6424875" lon="9.5742247"><ele>194.0</ele><time>2026-04-24T13:27:01.958Z</time></trkpt><trkpt lat="45.642399" lon="9.5741374"><ele>194.0</ele><time>2026-04-24T13:27:03.958Z</time></trkpt><trkpt lat="45.6422951" lon="9.574057"><ele>194.0</ele><time>2026-04-24T13:27:05.957Z</time></trkpt><trkpt lat="45.6422353" lon="9.5740231"><ele>194.0</ele><time>2026-04-24T13:27:06.957Z</time></trkpt><trkpt lat="45.6421327" lon="9.5739372"><ele>194.0</ele><time>2026-04-24T13:27:08.957Z</time></trkpt><trkpt lat="45.6420407" lon="9.5738259"><ele>194.0</ele><time>2026-04-24T13:27:10.957Z</time></trkpt><trkpt lat="45.6419462" lon="9.5737072"><ele>194.0</ele><time>2026-04-24T13:27:12.957Z</time></trkpt><trkpt lat="45.6418897" lon="9.5736433"><ele>194.0</ele><time>2026-04-24T13:27:13.958Z</time></trkpt><trkpt lat="45.6418369" lon="9.5735887"><ele>194.0</ele><time>2026-04-24T13:27:14.957Z</time></trkpt><trkpt lat="45.6417393" lon="9.5734766"><ele>194.16666666666669</ele><time>2026-04-24T13:27:16.958Z</time></trkpt><trkpt lat="45.6416833" lon="9.5734278"><ele>194.33333333333334</ele><time>2026-04-24T13:27:17.957Z</time></trkpt><trkpt lat="45.641635" lon="9.5733489"><ele>194.5</ele><time>2026-04-24T13:27:18.958Z</time></trkpt><trkpt lat="45.6415395" lon="9.5732526"><ele>194.66666666666669</ele><time>2026-04-24T13:27:20.957Z</time></trkpt><trkpt lat="45.6414807" lon="9.5732065"><ele>194.83333333333334</ele><time>2026-04-24T13:27:21.957Z</time></trkpt><trkpt lat="45.6414223" lon="9.573134"><ele>195.0</ele><time>2026-04-24T13:27:22.957Z</time></trkpt><trkpt lat="45.6413667" lon="9.573071"><ele>195.0</ele><time>2026-04-24T13:27:23.957Z</time></trkpt><trkpt lat="45.6413165" lon="9.5730129"><ele>195.0</ele><time>2026-04-24T13:27:24.957Z</time></trkpt><trkpt lat="45.641267" lon="9.5729379"><ele>195.0</ele><time>2026-04-24T13:27:25.957Z</time></trkpt><trkpt lat="45.6412149" lon="9.5728734"><ele>195.0</ele><time>2026-04-24T13:27:26.958Z</time></trkpt><trkpt lat="45.6411736" lon="9.5727945"><ele>195.0</ele><time>2026-04-24T13:27:27.957Z</time></trkpt><trkpt lat="45.6411356" lon="9.5727215"><ele>195.0</ele><time>2026-04-24T13:27:28.957Z</time></trkpt><trkpt lat="45.6410537" lon="9.5725955"><ele>194.83333333333334</ele><time>2026-04-24T13:27:30.957Z</time></trkpt><trkpt lat="45.641014" lon="9.5725145"><ele>194.66666666666669</ele><time>2026-04-24T13:27:31.957Z</time></trkpt><trkpt lat="45.6409746" lon="9.5724317"><ele>194.5</ele><time>2026-04-24T13:27:32.958Z</time></trkpt><trkpt lat="45.6408867" lon="9.5723265"><ele>194.33333333333334</ele><time>2026-04-24T13:27:34.957Z</time></trkpt><trkpt lat="45.6408301" lon="9.5722778"><ele>194.16666666666669</ele><time>2026-04-24T13:27:35.958Z</time></trkpt><trkpt lat="45.6407255" lon="9.5722207"><ele>194.0</ele><time>2026-04-24T13:27:37.957Z</time></trkpt><trkpt lat="45.640602" lon="9.5722002"><ele>194.00000000000003</ele><time>2026-04-24T13:27:39.957Z</time></trkpt><trkpt lat="45.6405352" lon="9.5721854"><ele>194.0</ele><time>2026-04-24T13:27:40.957Z</time></trkpt><trkpt lat="45.6404584" lon="9.5721748"><ele>194.0</ele><time>2026-04-24T13:27:41.958Z</time></trkpt><trkpt lat="45.6403933" lon="9.5721763"><ele>194.0</ele><time>2026-04-24T13:27:42.957Z</time></trkpt><trkpt lat="45.6402739" lon="9.5721288"><ele>194.00000000000003</ele><time>2026-04-24T13:27:44.958Z</time></trkpt><trkpt lat="45.640211" lon="9.5720957"><ele>194.0</ele><time>2026-04-24T13:27:45.957Z</time></trkpt><trkpt lat="45.6401503" lon="9.5720456"><ele>193.33333333333334</ele><time>2026-04-24T13:27:46.958Z</time></trkpt><trkpt lat="45.6401014" lon="9.5719818"><ele>192.66666666666669</ele><time>2026-04-24T13:27:47.958Z</time></trkpt><trkpt lat="45.6400467" lon="9.5719194"><ele>192.0</ele><time>2026-04-24T13:27:48.958Z</time></trkpt><trkpt lat="45.6399755" lon="9.5718575"><ele>191.33333333333334</ele><time>2026-04-24T13:27:49.957Z</time></trkpt><trkpt lat="45.6399194" lon="9.5718056"><ele>190.66666666666669</ele><time>2026-04-24T13:27:50.958Z</time></trkpt><trkpt lat="45.6398168" lon="9.5717047"><ele>190.0</ele><time>2026-04-24T13:27:52.957Z</time></trkpt><trkpt lat="45.6397135" lon="9.571614"><ele>190.0</ele><time>2026-04-24T13:27:54.957Z</time></trkpt><trkpt lat="45.6396596" lon="9.5715607"><ele>190.0</ele><time>2026-04-24T13:27:55.957Z</time></trkpt><trkpt lat="45.6395616" lon="9.5714569"><ele>190.0</ele><time>2026-04-24T13:27:57.957Z</time></trkpt><trkpt lat="45.639509" lon="9.5713766"><ele>190.0</ele><time>2026-04-24T13:27:58.957Z</time></trkpt><trkpt lat="45.6394268" lon="9.5712438"><ele>190.0</ele><time>2026-04-24T13:28:00.957Z</time></trkpt><trkpt lat="45.6393861" lon="9.5711335"><ele>190.16666666666669</ele><time>2026-04-24T13:28:01.957Z</time></trkpt><trkpt lat="45.6393496" lon="9.5710365"><ele>190.33333333333334</ele><time>2026-04-24T13:28:02.957Z</time></trkpt><trkpt lat="45.6393181" lon="9.570918"><ele>190.5</ele><time>2026-04-24T13:28:03.957Z</time></trkpt><trkpt lat="45.6392914" lon="9.5708244"><ele>190.66666666666666</ele><time>2026-04-24T13:28:04.957Z</time></trkpt><trkpt lat="45.6392684" lon="9.5707326"><ele>190.83333333333331</ele><time>2026-04-24T13:28:05.958Z</time></trkpt><trkpt lat="45.6392027" lon="9.5705737"><ele>191.0</ele><time>2026-04-24T13:28:07.957Z</time></trkpt><trkpt lat="45.639169" lon="9.5704847"><ele>191.0</ele><time>2026-04-24T13:28:08.957Z</time></trkpt><trkpt lat="45.6391352" lon="9.5703949"><ele>191.0</ele><time>2026-04-24T13:28:09.958Z</time></trkpt><trkpt lat="45.639104" lon="9.5703098"><ele>191.0</ele><time>2026-04-24T13:28:10.957Z</time></trkpt><trkpt lat="45.6390403" lon="9.5701662"><ele>191.0</ele><time>2026-04-24T13:28:12.958Z</time></trkpt><trkpt lat="45.638967" lon="9.5700361"><ele>191.0</ele><time>2026-04-24T13:28:14.957Z</time></trkpt><trkpt lat="45.638905" lon="9.5699453"><ele>190.83333333333331</ele><time>2026-04-24T13:28:16.958Z</time></trkpt><trkpt lat="45.6388156" lon="9.5699304"><ele>190.66666666666666</ele><time>2026-04-24T13:28:18.957Z</time></trkpt><trkpt lat="45.6387187" lon="9.5698982"><ele>190.5</ele><time>2026-04-24T13:28:20.958Z</time></trkpt><trkpt lat="45.6386217" lon="9.5698649"><ele>190.33333333333334</ele><time>2026-04-24T13:28:22.958Z</time></trkpt><trkpt lat="45.638557" lon="9.56985"><ele>190.16666666666669</ele><time>2026-04-24T13:28:23.958Z</time></trkpt><trkpt lat="45.6384723" lon="9.569852"><ele>190.0</ele><time>2026-04-24T13:28:24.957Z</time></trkpt><trkpt lat="45.638401" lon="9.5698224"><ele>190.0</ele><time>2026-04-24T13:28:25.957Z</time></trkpt><trkpt lat="45.6383207" lon="9.5698046"><ele>190.0</ele><time>2026-04-24T13:28:26.957Z</time></trkpt><trkpt lat="45.6382306" lon="9.5697869"><ele>190.0</ele><time>2026-04-24T13:28:27.958Z</time></trkpt><trkpt lat="45.6381561" lon="9.5697735"><ele>190.0</ele><time>2026-04-24T13:28:28.958Z</time></trkpt><trkpt lat="45.6380844" lon="9.5697545"><ele>190.0</ele><time>2026-04-24T13:28:29.957Z</time></trkpt><trkpt lat="45.6380167" lon="9.5697296"><ele>190.0</ele><time>2026-04-24T13:28:30.957Z</time></trkpt><trkpt lat="45.6379507" lon="9.5696834"><ele>190.0</ele><time>2026-04-24T13:28:31.958Z</time></trkpt><trkpt lat="45.6378864" lon="9.5696395"><ele>190.0</ele><time>2026-04-24T13:28:32.957Z</time></trkpt><trkpt lat="45.6377676" lon="9.5695548"><ele>190.0</ele><time>2026-04-24T13:28:34.957Z</time></trkpt><trkpt lat="45.6377028" lon="9.5695105"><ele>190.0</ele><time>2026-04-24T13:28:35.957Z</time></trkpt><trkpt lat="45.6376416" lon="9.5694712"><ele>190.0</ele><time>2026-04-24T13:28:36.957Z</time></trkpt><trkpt lat="45.637581" lon="9.5694305"><ele>190.0</ele><time>2026-04-24T13:28:37.957Z</time></trkpt><trkpt lat="45.6375238" lon="9.5693872"><ele>189.57142857142858</ele><time>2026-04-24T13:28:38.957Z</time></trkpt><trkpt lat="45.6374587" lon="9.5693476"><ele>189.14285714285717</ele><time>2026-04-24T13:28:39.957Z</time></trkpt><trkpt lat="45.6373942" lon="9.5692901"><ele>188.71428571428572</ele><time>2026-04-24T13:28:40.957Z</time></trkpt><trkpt lat="45.6373312" lon="9.569242"><ele>188.28571428571428</ele><time>2026-04-24T13:28:41.957Z</time></trkpt><trkpt lat="45.6372716" lon="9.5691889"><ele>187.85714285714286</ele><time>2026-04-24T13:28:42.957Z</time></trkpt><trkpt lat="45.6372151" lon="9.569134"><ele>187.42857142857142</ele><time>2026-04-24T13:28:43.957Z</time></trkpt><trkpt lat="45.6371648" lon="9.5690681"><ele>187.0</ele><time>2026-04-24T13:28:44.957Z</time></trkpt><trkpt lat="45.6371155" lon="9.5690024"><ele>187.0</ele><time>2026-04-24T13:28:45.958Z</time></trkpt><trkpt lat="45.637043" lon="9.5688761"><ele>187.0</ele><time>2026-04-24T13:28:48.403Z</time></trkpt><trkpt lat="45.6369545" lon="9.5687159"><ele>187.0</ele><time>2026-04-24T13:28:49.966Z</time></trkpt><trkpt lat="45.6368574" lon="9.568583"><ele>187.0</ele><time>2026-04-24T13:28:51.961Z</time></trkpt><trkpt lat="45.6368056" lon="9.5685194"><ele>186.7142857142857</ele><time>2026-04-24T13:28:52.962Z</time></trkpt><trkpt lat="45.6367509" lon="9.5684488"><ele>186.42857142857144</ele><time>2026-04-24T13:28:53.963Z</time></trkpt><trkpt lat="45.6366999" lon="9.5683834"><ele>186.14285714285714</ele><time>2026-04-24T13:28:54.963Z</time></trkpt><trkpt lat="45.6366446" lon="9.568319"><ele>185.85714285714283</ele><time>2026-04-24T13:28:55.963Z</time></trkpt><trkpt lat="45.6365895" lon="9.5682613"><ele>185.57142857142856</ele><time>2026-04-24T13:28:56.963Z</time></trkpt><trkpt lat="45.6365346" lon="9.5682035"><ele>185.28571428571428</ele><time>2026-04-24T13:28:57.963Z</time></trkpt><trkpt lat="45.6364812" lon="9.5681499"><ele>185.0</ele><time>2026-04-24T13:28:58.963Z</time></trkpt><trkpt lat="45.6364231" lon="9.5680915"><ele>185.0</ele><time>2026-04-24T13:28:59.964Z</time></trkpt><trkpt lat="45.6363639" lon="9.5680479"><ele>185.0</ele><time>2026-04-24T13:29:00.963Z</time></trkpt><trkpt lat="45.6363033" lon="9.5680005"><ele>185.0</ele><time>2026-04-24T13:29:01.964Z</time></trkpt><trkpt lat="45.6362469" lon="9.5679429"><ele>185.0</ele><time>2026-04-24T13:29:02.963Z</time></trkpt><trkpt lat="45.636194" lon="9.5678799"><ele>185.0</ele><time>2026-04-24T13:29:03.963Z</time></trkpt><trkpt lat="45.6361366" lon="9.5678285"><ele>185.0</ele><time>2026-04-24T13:29:04.964Z</time></trkpt><trkpt lat="45.6360304" lon="9.5677544"><ele>185.16666666666666</ele><time>2026-04-24T13:29:06.963Z</time></trkpt><trkpt lat="45.635978" lon="9.5676704"><ele>185.33333333333331</ele><time>2026-04-24T13:29:07.964Z</time></trkpt><trkpt lat="45.635905" lon="9.5675378"><ele>185.5</ele><time>2026-04-24T13:29:09.964Z</time></trkpt><trkpt lat="45.6358844" lon="9.5674504"><ele>185.66666666666666</ele><time>2026-04-24T13:29:10.964Z</time></trkpt><trkpt lat="45.6358661" lon="9.5673543"><ele>185.83333333333334</ele><time>2026-04-24T13:29:11.964Z</time></trkpt><trkpt lat="45.6358491" lon="9.5672584"><ele>186.0</ele><time>2026-04-24T13:29:12.964Z</time></trkpt><trkpt lat="45.6358268" lon="9.5671606"><ele>186.0</ele><time>2026-04-24T13:29:13.963Z</time></trkpt><trkpt lat="45.6358042" lon="9.5670648"><ele>186.0</ele><time>2026-04-24T13:29:14.963Z</time></trkpt><trkpt lat="45.6357839" lon="9.5669686"><ele>186.0</ele><time>2026-04-24T13:29:15.964Z</time></trkpt><trkpt lat="45.6357622" lon="9.5668737"><ele>186.0</ele><time>2026-04-24T13:29:16.963Z</time></trkpt><trkpt lat="45.6357353" lon="9.5667059"><ele>186.0</ele><time>2026-04-24T13:29:18.963Z</time></trkpt><trkpt lat="45.635722" lon="9.5666173"><ele>186.0</ele><time>2026-04-24T13:29:19.963Z</time></trkpt><trkpt lat="45.6357131" lon="9.5665256"><ele>185.20000000000002</ele><time>2026-04-24T13:29:20.963Z</time></trkpt><trkpt lat="45.6357069" lon="9.5664288"><ele>184.4</ele><time>2026-04-24T13:29:21.963Z</time></trkpt><trkpt lat="45.6356957" lon="9.5662734"><ele>183.6</ele><time>2026-04-24T13:29:23.963Z</time></trkpt><trkpt lat="45.6356802" lon="9.5661259"><ele>182.8</ele><time>2026-04-24T13:29:25.963Z</time></trkpt><trkpt lat="45.6356427" lon="9.5659802"><ele>182.0</ele><time>2026-04-24T13:29:27.964Z</time></trkpt><trkpt lat="45.6356181" lon="9.5658964"><ele>181.8</ele><time>2026-04-24T13:29:28.964Z</time></trkpt><trkpt lat="45.6355666" lon="9.5657462"><ele>181.6</ele><time>2026-04-24T13:29:30.963Z</time></trkpt><trkpt lat="45.6355009" lon="9.5656407"><ele>181.4</ele><time>2026-04-24T13:29:32.963Z</time></trkpt><trkpt lat="45.6354088" lon="9.56556"><ele>181.20000000000002</ele><time>2026-04-24T13:29:34.963Z</time></trkpt><trkpt lat="45.6353117" lon="9.565473"><ele>181.0</ele><time>2026-04-24T13:29:36.964Z</time></trkpt><trkpt lat="45.6352135" lon="9.5653916"><ele>181.33333333333334</ele><time>2026-04-24T13:29:38.963Z</time></trkpt><trkpt lat="45.6351591" lon="9.5653437"><ele>181.66666666666669</ele><time>2026-04-24T13:29:39.964Z</time></trkpt><trkpt lat="45.6351061" lon="9.5652853"><ele>182.0</ele><time>2026-04-24T13:29:40.964Z</time></trkpt><trkpt lat="45.6350475" lon="9.5652429"><ele>182.33333333333334</ele><time>2026-04-24T13:29:41.963Z</time></trkpt><trkpt lat="45.634939" lon="9.5651741"><ele>182.66666666666666</ele><time>2026-04-24T13:29:43.964Z</time></trkpt><trkpt lat="45.6348301" lon="9.5651058"><ele>183.0</ele><time>2026-04-24T13:29:45.963Z</time></trkpt><trkpt lat="45.6347708" lon="9.5650609"><ele>183.0</ele><time>2026-04-24T13:29:46.964Z</time></trkpt><trkpt lat="45.6346787" lon="9.5649939"><ele>183.0</ele><time>2026-04-24T13:29:48.963Z</time></trkpt><trkpt lat="45.6345839" lon="9.564924"><ele>183.0</ele><time>2026-04-24T13:29:50.964Z</time></trkpt><trkpt lat="45.6344941" lon="9.5648404"><ele>183.0</ele><time>2026-04-24T13:29:52.963Z</time></trkpt><trkpt lat="45.6344196" lon="9.5648026"><ele>183.0</ele><time>2026-04-24T13:29:55.964Z</time></trkpt><trkpt lat="45.6344732" lon="9.5647325"><ele>183.0</ele><time>2026-04-24T13:29:57.964Z</time></trkpt><trkpt lat="45.6345637" lon="9.5646731"><ele>183.0</ele><time>2026-04-24T13:29:59.963Z</time></trkpt><trkpt lat="45.634685" lon="9.5646943"><ele>183.0</ele><time>2026-04-24T13:30:01.964Z</time></trkpt><trkpt lat="45.6347509" lon="9.5647244"><ele>183.0</ele><time>2026-04-24T13:30:02.963Z</time></trkpt><trkpt lat="45.6348176" lon="9.5647348"><ele>183.0</ele><time>2026-04-24T13:30:03.963Z</time></trkpt><trkpt lat="45.6348861" lon="9.5647288"><ele>183.0</ele><time>2026-04-24T13:30:04.963Z</time></trkpt><trkpt lat="45.6349863" lon="9.5646583"><ele>183.0</ele><time>2026-04-24T13:30:06.963Z</time></trkpt><trkpt lat="45.6350623" lon="9.5645375"><ele>183.0</ele><time>2026-04-24T13:30:08.964Z</time></trkpt><trkpt lat="45.6351147" lon="9.5643944"><ele>183.0</ele><time>2026-04-24T13:30:10.964Z</time></trkpt><trkpt lat="45.6351713" lon="9.5642475"><ele>183.0</ele><time>2026-04-24T13:30:12.963Z</time></trkpt><trkpt lat="45.6352004" lon="9.5641671"><ele>183.0</ele><time>2026-04-24T13:30:13.963Z</time></trkpt><trkpt lat="45.6352538" lon="9.5640235"><ele>182.2</ele><time>2026-04-24T13:30:15.964Z</time></trkpt><trkpt lat="45.6353196" lon="9.5638917"><ele>181.4</ele><time>2026-04-24T13:30:17.963Z</time></trkpt><trkpt lat="45.6353871" lon="9.563771"><ele>180.6</ele><time>2026-04-24T13:30:19.963Z</time></trkpt><trkpt lat="45.6354568" lon="9.5636497"><ele>179.79999999999998</ele><time>2026-04-24T13:30:21.963Z</time></trkpt><trkpt lat="45.6355322" lon="9.5635367"><ele>179.0</ele><time>2026-04-24T13:30:23.963Z</time></trkpt><trkpt lat="45.6356342" lon="9.5634214"><ele>178.5</ele><time>2026-04-24T13:30:25.963Z</time></trkpt><trkpt lat="45.6356759" lon="9.5633493"><ele>178.0</ele><time>2026-04-24T13:30:27.963Z</time></trkpt><trkpt lat="45.6357017" lon="9.5632537"><ele>177.5</ele><time>2026-04-24T13:30:30.963Z</time></trkpt><trkpt lat="45.6357562" lon="9.5632076"><ele>177.0</ele><time>2026-04-24T13:30:32.963Z</time></trkpt><trkpt lat="45.6358198" lon="9.5631366"><ele>176.5</ele><time>2026-04-24T13:30:34.963Z</time></trkpt><trkpt lat="45.6358926" lon="9.5630469"><ele>176.0</ele><time>2026-04-24T13:30:36.963Z</time></trkpt><trkpt lat="45.6359374" lon="9.5629137"><ele>175.8</ele><time>2026-04-24T13:30:38.964Z</time></trkpt><trkpt lat="45.6358714" lon="9.562819"><ele>175.60000000000002</ele><time>2026-04-24T13:30:40.964Z</time></trkpt><trkpt lat="45.6357961" lon="9.562738"><ele>175.4</ele><time>2026-04-24T13:30:42.963Z</time></trkpt><trkpt lat="45.6357043" lon="9.5626631"><ele>175.2</ele><time>2026-04-24T13:30:44.963Z</time></trkpt><trkpt lat="45.6356088" lon="9.5625824"><ele>175.0</ele><time>2026-04-24T13:30:46.963Z</time></trkpt><trkpt lat="45.6355139" lon="9.5624884"><ele>175.0</ele><time>2026-04-24T13:30:48.963Z</time></trkpt><trkpt lat="45.6354172" lon="9.5623931"><ele>175.0</ele><time>2026-04-24T13:30:50.964Z</time></trkpt><trkpt lat="45.6353106" lon="9.5622752"><ele>175.0</ele><time>2026-04-24T13:30:52.963Z</time></trkpt><trkpt lat="45.6352323" lon="9.5621692"><ele>175.0</ele><time>2026-04-24T13:30:54.963Z</time></trkpt><trkpt lat="45.6351665" lon="9.5620425"><ele>175.0</ele><time>2026-04-24T13:30:56.964Z</time></trkpt><trkpt lat="45.6351047" lon="9.5619025"><ele>175.0</ele><time>2026-04-24T13:30:58.963Z</time></trkpt><trkpt lat="45.6350855" lon="9.56181"><ele>175.0</ele><time>2026-04-24T13:30:59.963Z</time></trkpt><trkpt lat="45.6350451" lon="9.5616643"><ele>175.0</ele><time>2026-04-24T13:31:01.963Z</time></trkpt><trkpt lat="45.6349793" lon="9.5615592"><ele>175.0</ele><time>2026-04-24T13:31:03.964Z</time></trkpt><trkpt lat="45.6349359" lon="9.5614917"><ele>175.0</ele><time>2026-04-24T13:31:04.963Z</time></trkpt><trkpt lat="45.6348881" lon="9.5614219"><ele>175.0</ele><time>2026-04-24T13:31:05.963Z</time></trkpt><trkpt lat="45.6347961" lon="9.5613106"><ele>175.0</ele><time>2026-04-24T13:31:07.963Z</time></trkpt><trkpt lat="45.6347642" lon="9.5612065"><ele>175.0</ele><time>2026-04-24T13:31:08.963Z</time></trkpt><trkpt lat="45.6347282" lon="9.5611131"><ele>175.0</ele><time>2026-04-24T13:31:09.964Z</time></trkpt><trkpt lat="45.634724" lon="9.5609992"><ele>175.0</ele><time>2026-04-24T13:31:10.963Z</time></trkpt><trkpt lat="45.6347172" lon="9.5609008"><ele>174.16666666666669</ele><time>2026-04-24T13:31:11.963Z</time></trkpt><trkpt lat="45.634709" lon="9.5607821"><ele>173.33333333333334</ele><time>2026-04-24T13:31:12.963Z</time></trkpt><trkpt lat="45.6347142" lon="9.5606253"><ele>172.5</ele><time>2026-04-24T13:31:14.963Z</time></trkpt><trkpt lat="45.634728" lon="9.5604742"><ele>171.66666666666666</ele><time>2026-04-24T13:31:16.963Z</time></trkpt><trkpt lat="45.6347455" lon="9.5603834"><ele>170.83333333333331</ele><time>2026-04-24T13:31:18.963Z</time></trkpt><trkpt lat="45.6347824" lon="9.5602786"><ele>170.0</ele><time>2026-04-24T13:31:21.963Z</time></trkpt><trkpt lat="45.6348085" lon="9.5601942"><ele>169.66666666666666</ele><time>2026-04-24T13:31:37.964Z</time></trkpt><trkpt lat="45.6348435" lon="9.5600674"><ele>169.33333333333331</ele><time>2026-04-24T13:31:40.963Z</time></trkpt><trkpt lat="45.6348869" lon="9.5599555"><ele>169.0</ele><time>2026-04-24T13:31:42.963Z</time></trkpt><trkpt lat="45.63492" lon="9.5598599"><ele>168.66666666666666</ele><time>2026-04-24T13:31:44.963Z</time></trkpt><trkpt lat="45.6349554" lon="9.5597695"><ele>168.33333333333334</ele><time>2026-04-24T13:31:46.963Z</time></trkpt><trkpt lat="45.6349813" lon="9.5596814"><ele>168.0</ele><time>2026-04-24T13:31:54.963Z</time></trkpt><trkpt lat="45.6350302" lon="9.5596076"><ele>168.16666666666666</ele><time>2026-04-24T13:31:57.963Z</time></trkpt><trkpt lat="45.6350677" lon="9.55948"><ele>168.33333333333334</ele><time>2026-04-24T13:32:09.963Z</time></trkpt><trkpt lat="45.6350035" lon="9.5594393"><ele>168.5</ele><time>2026-04-24T13:32:11.963Z</time></trkpt><trkpt lat="45.6349382" lon="9.5593878"><ele>168.66666666666669</ele><time>2026-04-24T13:32:13.964Z</time></trkpt><trkpt lat="45.6348797" lon="9.5593399"><ele>168.83333333333334</ele><time>2026-04-24T13:32:15.963Z</time></trkpt><trkpt lat="45.6347974" lon="9.5592769"><ele>169.0</ele><time>2026-04-24T13:32:17.963Z</time></trkpt><trkpt lat="45.6347056" lon="9.5591897"><ele>169.0</ele><time>2026-04-24T13:32:19.963Z</time></trkpt><trkpt lat="45.6346234" lon="9.5591303"><ele>169.0</ele><time>2026-04-24T13:32:21.963Z</time></trkpt><trkpt lat="45.6345319" lon="9.559046"><ele>169.0</ele><time>2026-04-24T13:32:23.963Z</time></trkpt><trkpt lat="45.6344473" lon="9.5589809"><ele>169.0</ele><time>2026-04-24T13:32:25.964Z</time></trkpt><trkpt lat="45.6343909" lon="9.5589352"><ele>169.0</ele><time>2026-04-24T13:32:26.963Z</time></trkpt><trkpt lat="45.6342788" lon="9.5588722"><ele>168.2</ele><time>2026-04-24T13:32:28.963Z</time></trkpt><trkpt lat="45.6341771" lon="9.5588124"><ele>167.39999999999998</ele><time>2026-04-24T13:32:30.963Z</time></trkpt><trkpt lat="45.6340768" lon="9.5587581"><ele>166.6</ele><time>2026-04-24T13:32:32.963Z</time></trkpt><trkpt lat="45.6339507" lon="9.5587594"><ele>165.8</ele><time>2026-04-24T13:32:34.963Z</time></trkpt><trkpt lat="45.6338813" lon="9.5587422"><ele>165.0</ele><time>2026-04-24T13:32:35.963Z</time></trkpt><trkpt lat="45.6338206" lon="9.5587106"><ele>165.5</ele><time>2026-04-24T13:32:36.963Z</time></trkpt><trkpt lat="45.6337552" lon="9.5587"><ele>166.0</ele><time>2026-04-24T13:32:37.964Z</time></trkpt><trkpt lat="45.6336369" lon="9.5586595"><ele>166.5</ele><time>2026-04-24T13:32:39.964Z</time></trkpt><trkpt lat="45.6335737" lon="9.5586467"><ele>167.0</ele><time>2026-04-24T13:32:40.964Z</time></trkpt><trkpt lat="45.633495" lon="9.5586385"><ele>167.5</ele><time>2026-04-24T13:32:42.963Z</time></trkpt><trkpt lat="45.6334301" lon="9.5586276"><ele>168.0</ele><time>2026-04-24T13:32:43.964Z</time></trkpt><trkpt lat="45.6333187" lon="9.558595"><ele>168.0</ele><time>2026-04-24T13:32:45.963Z</time></trkpt><trkpt lat="45.6332561" lon="9.5585471"><ele>168.0</ele><time>2026-04-24T13:32:46.963Z</time></trkpt><trkpt lat="45.6331433" lon="9.5585155"><ele>168.0</ele><time>2026-04-24T13:32:48.963Z</time></trkpt><trkpt lat="45.6330521" lon="9.5584751"><ele>168.0</ele><time>2026-04-24T13:32:50.963Z</time></trkpt><trkpt lat="45.6329501" lon="9.5584355"><ele>168.0</ele><time>2026-04-24T13:32:52.964Z</time></trkpt><trkpt lat="45.6328707" lon="9.5583781"><ele>168.0</ele><time>2026-04-24T13:32:54.963Z</time></trkpt><trkpt lat="45.63276" lon="9.5583345"><ele>168.0</ele><time>2026-04-24T13:32:56.963Z</time></trkpt><trkpt lat="45.6326652" lon="9.5582969"><ele>168.0</ele><time>2026-04-24T13:32:58.964Z</time></trkpt><trkpt lat="45.6325479" lon="9.5582569"><ele>168.0</ele><time>2026-04-24T13:33:00.963Z</time></trkpt><trkpt lat="45.6324427" lon="9.5582306"><ele>168.0</ele><time>2026-04-24T13:33:02.964Z</time></trkpt><trkpt lat="45.6323692" lon="9.5581893"><ele>168.0</ele><time>2026-04-24T13:33:03.963Z</time></trkpt><trkpt lat="45.6322811" lon="9.558164"><ele>168.0</ele><time>2026-04-24T13:33:05.963Z</time></trkpt><trkpt lat="45.6322264" lon="9.5581143"><ele>168.0</ele><time>2026-04-24T13:33:07.964Z</time></trkpt><trkpt lat="45.6322062" lon="9.558028"><ele>168.0</ele><time>2026-04-24T13:33:11.963Z</time></trkpt><trkpt lat="45.6321542" lon="9.5579573"><ele>168.0</ele><time>2026-04-24T13:33:17.963Z</time></trkpt><trkpt lat="45.6320972" lon="9.5579983"><ele>168.0</ele><time>2026-04-24T13:33:21.963Z</time></trkpt><trkpt lat="45.6320161" lon="9.5580184"><ele>168.0</ele><time>2026-04-24T13:33:25.963Z</time></trkpt><trkpt lat="45.6319345" lon="9.5580158"><ele>168.5</ele><time>2026-04-24T13:33:28.963Z</time></trkpt><trkpt lat="45.6318686" lon="9.558014"><ele>169.0</ele><time>2026-04-24T13:33:30.963Z</time></trkpt><trkpt lat="45.6318017" lon="9.5579988"><ele>169.5</ele><time>2026-04-24T13:33:32.963Z</time></trkpt><trkpt lat="45.631697" lon="9.5579281"><ele>170.0</ele><time>2026-04-24T13:33:34.964Z</time></trkpt><trkpt lat="45.6316207" lon="9.5578737"><ele>170.5</ele><time>2026-04-24T13:33:36.964Z</time></trkpt><trkpt lat="45.6315476" lon="9.5578523"><ele>171.0</ele><time>2026-04-24T13:33:38.963Z</time></trkpt><trkpt lat="45.6314719" lon="9.5578744"><ele>171.0</ele><time>2026-04-24T13:33:40.963Z</time></trkpt><trkpt lat="45.6314032" lon="9.5578836"><ele>171.0</ele><time>2026-04-24T13:33:42.964Z</time></trkpt><trkpt lat="45.631321" lon="9.5579102"><ele>171.0</ele><time>2026-04-24T13:33:45.963Z</time></trkpt><trkpt lat="45.6312435" lon="9.5579561"><ele>171.0</ele><time>2026-04-24T13:33:48.963Z</time></trkpt><trkpt lat="45.6311888" lon="9.5580044"><ele>171.0</ele><time>2026-04-24T13:33:50.964Z</time></trkpt><trkpt lat="45.6311223" lon="9.5580723"><ele>171.0</ele><time>2026-04-24T13:33:53.963Z</time></trkpt><trkpt lat="45.6310587" lon="9.5581244"><ele>170.66666666666666</ele><time>2026-04-24T13:33:56.963Z</time></trkpt><trkpt lat="45.6309941" lon="9.5581905"><ele>170.33333333333334</ele><time>2026-04-24T13:33:58.963Z</time></trkpt><trkpt lat="45.6309129" lon="9.558261"><ele>170.0</ele><time>2026-04-24T13:34:00.964Z</time></trkpt><trkpt lat="45.6308417" lon="9.5583267"><ele>169.66666666666669</ele><time>2026-04-24T13:34:02.963Z</time></trkpt><trkpt lat="45.6307817" lon="9.5583734"><ele>169.33333333333334</ele><time>2026-04-24T13:34:04.963Z</time></trkpt><trkpt lat="45.6307165" lon="9.5584639"><ele>169.0</ele><time>2026-04-24T13:34:07.964Z</time></trkpt><trkpt lat="45.6306156" lon="9.5585625"><ele>169.0</ele><time>2026-04-24T13:34:09.963Z</time></trkpt><trkpt lat="45.6305183" lon="9.5586367"><ele>169.0</ele><time>2026-04-24T13:34:11.963Z</time></trkpt><trkpt lat="45.6304308" lon="9.558694"><ele>169.0</ele><time>2026-04-24T13:34:13.963Z</time></trkpt><trkpt lat="45.63033" lon="9.55876"><ele>169.0</ele><time>2026-04-24T13:34:15.963Z</time></trkpt><trkpt lat="45.6302144" lon="9.5587979"><ele>169.0</ele><time>2026-04-24T13:34:17.964Z</time></trkpt><trkpt lat="45.6301211" lon="9.5588296"><ele>168.79999999999998</ele><time>2026-04-24T13:34:19.964Z</time></trkpt><trkpt lat="45.630021" lon="9.5588598"><ele>168.6</ele><time>2026-04-24T13:34:21.964Z</time></trkpt><trkpt lat="45.6299293" lon="9.558875"><ele>168.4</ele><time>2026-04-24T13:34:23.963Z</time></trkpt><trkpt lat="45.6298272" lon="9.5588663"><ele>168.2</ele><time>2026-04-24T13:34:25.963Z</time></trkpt><trkpt lat="45.6297072" lon="9.5588735"><ele>168.0</ele><time>2026-04-24T13:34:27.964Z</time></trkpt><trkpt lat="45.6295876" lon="9.5588793"><ele>168.33333333333334</ele><time>2026-04-24T13:34:29.964Z</time></trkpt><trkpt lat="45.6294628" lon="9.5588723"><ele>168.66666666666666</ele><time>2026-04-24T13:34:31.964Z</time></trkpt><trkpt lat="45.6293896" lon="9.5588762"><ele>169.0</ele><time>2026-04-24T13:34:32.963Z</time></trkpt><trkpt lat="45.6293072" lon="9.5588757"><ele>169.33333333333331</ele><time>2026-04-24T13:34:33.963Z</time></trkpt><trkpt lat="45.6292321" lon="9.5588736"><ele>169.66666666666666</ele><time>2026-04-24T13:34:34.963Z</time></trkpt><trkpt lat="45.6291595" lon="9.5588715"><ele>170.0</ele><time>2026-04-24T13:34:35.963Z</time></trkpt><trkpt lat="45.62909" lon="9.5588754"><ele>170.0</ele><time>2026-04-24T13:34:36.964Z</time></trkpt><trkpt lat="45.6290249" lon="9.5588789"><ele>170.0</ele><time>2026-04-24T13:34:37.963Z</time></trkpt><trkpt lat="45.6289008" lon="9.558882"><ele>170.0</ele><time>2026-04-24T13:34:39.964Z</time></trkpt><trkpt lat="45.6287823" lon="9.5589022"><ele>170.0</ele><time>2026-04-24T13:34:41.963Z</time></trkpt><trkpt lat="45.6287193" lon="9.5588936"><ele>170.0</ele><time>2026-04-24T13:34:42.963Z</time></trkpt><trkpt lat="45.6286561" lon="9.5588785"><ele>170.0</ele><time>2026-04-24T13:34:43.964Z</time></trkpt><trkpt lat="45.628579" lon="9.5588677"><ele>170.4</ele><time>2026-04-24T13:34:44.963Z</time></trkpt><trkpt lat="45.6285151" lon="9.558849"><ele>170.8</ele><time>2026-04-24T13:34:45.963Z</time></trkpt><trkpt lat="45.6284501" lon="9.5588423"><ele>171.2</ele><time>2026-04-24T13:34:46.963Z</time></trkpt><trkpt lat="45.6283312" lon="9.5588165"><ele>171.6</ele><time>2026-04-24T13:34:48.964Z</time></trkpt><trkpt lat="45.6282163" lon="9.5588354"><ele>172.0</ele><time>2026-04-24T13:34:50.963Z</time></trkpt><trkpt lat="45.6281249" lon="9.5588904"><ele>172.0</ele><time>2026-04-24T13:34:52.964Z</time></trkpt><trkpt lat="45.6280601" lon="9.5589653"><ele>172.0</ele><time>2026-04-24T13:34:54.964Z</time></trkpt><trkpt lat="45.6279861" lon="9.5590438"><ele>172.0</ele><time>2026-04-24T13:34:56.963Z</time></trkpt><trkpt lat="45.6279098" lon="9.5591122"><ele>172.0</ele><time>2026-04-24T13:34:58.963Z</time></trkpt><trkpt lat="45.6278387" lon="9.5591635"><ele>172.0</ele><time>2026-04-24T13:35:00.964Z</time></trkpt><trkpt lat="45.6277494" lon="9.5591863"><ele>172.0</ele><time>2026-04-24T13:35:02.963Z</time></trkpt><trkpt lat="45.6276464" lon="9.5591813"><ele>171.6</ele><time>2026-04-24T13:35:04.963Z</time></trkpt><trkpt lat="45.6275331" lon="9.5591742"><ele>171.2</ele><time>2026-04-24T13:35:06.963Z</time></trkpt><trkpt lat="45.6274328" lon="9.5591722"><ele>170.8</ele><time>2026-04-24T13:35:08.963Z</time></trkpt><trkpt lat="45.6273382" lon="9.5591652"><ele>170.4</ele><time>2026-04-24T13:35:10.963Z</time></trkpt><trkpt lat="45.6272402" lon="9.5591613"><ele>170.0</ele><time>2026-04-24T13:35:12.963Z</time></trkpt><trkpt lat="45.6271526" lon="9.5591628"><ele>170.0</ele><time>2026-04-24T13:35:14.963Z</time></trkpt><trkpt lat="45.6270523" lon="9.5591685"><ele>170.0</ele><time>2026-04-24T13:35:16.963Z</time></trkpt><trkpt lat="45.6269526" lon="9.5591884"><ele>170.0</ele><time>2026-04-24T13:35:18.963Z</time></trkpt><trkpt lat="45.6268706" lon="9.5592012"><ele>170.0</ele><time>2026-04-24T13:35:20.963Z</time></trkpt><trkpt lat="45.6267876" lon="9.559206"><ele>170.0</ele><time>2026-04-24T13:35:22.963Z</time></trkpt><trkpt lat="45.6266982" lon="9.5592124"><ele>171.2</ele><time>2026-04-24T13:35:24.963Z</time></trkpt><trkpt lat="45.6266137" lon="9.5592287"><ele>172.4</ele><time>2026-04-24T13:35:26.963Z</time></trkpt><trkpt lat="45.6265083" lon="9.5592509"><ele>173.60000000000002</ele><time>2026-04-24T13:35:28.963Z</time></trkpt><trkpt lat="45.626414" lon="9.559287"><ele>174.8</ele><time>2026-04-24T13:35:30.964Z</time></trkpt><trkpt lat="45.6263221" lon="9.5593062"><ele>176.0</ele><time>2026-04-24T13:35:32.964Z</time></trkpt><trkpt lat="45.6262653" lon="9.5593978"><ele>176.0</ele><time>2026-04-24T13:35:36.963Z</time></trkpt><trkpt lat="45.626186" lon="9.559404"><ele>176.0</ele><time>2026-04-24T13:35:37.963Z</time></trkpt><trkpt lat="45.62608" lon="9.5594121"><ele>176.0</ele><time>2026-04-24T13:35:39.964Z</time></trkpt><trkpt lat="45.6259976" lon="9.5593982"><ele>176.0</ele><time>2026-04-24T13:35:41.963Z</time></trkpt><trkpt lat="45.6258706" lon="9.5594088"><ele>176.0</ele><time>2026-04-24T13:35:43.963Z</time></trkpt><trkpt lat="45.6257927" lon="9.5594374"><ele>176.0</ele><time>2026-04-24T13:35:45.963Z</time></trkpt><trkpt lat="45.6257273" lon="9.5594482"><ele>176.0</ele><time>2026-04-24T13:35:46.963Z</time></trkpt><trkpt lat="45.6256299" lon="9.5594619"><ele>176.0</ele><time>2026-04-24T13:35:48.964Z</time></trkpt><trkpt lat="45.6255624" lon="9.5594663"><ele>176.0</ele><time>2026-04-24T13:35:49.963Z</time></trkpt><trkpt lat="45.625465" lon="9.5594514"><ele>176.0</ele><time>2026-04-24T13:35:51.964Z</time></trkpt><trkpt lat="45.6253611" lon="9.5594822"><ele>176.0</ele><time>2026-04-24T13:35:53.963Z</time></trkpt><trkpt lat="45.6252737" lon="9.5595096"><ele>175.8</ele><time>2026-04-24T13:35:55.963Z</time></trkpt><trkpt lat="45.6251871" lon="9.5595078"><ele>175.60000000000002</ele><time>2026-04-24T13:35:57.964Z</time></trkpt><trkpt lat="45.6250823" lon="9.5595295"><ele>175.4</ele><time>2026-04-24T13:35:59.964Z</time></trkpt><trkpt lat="45.6249726" lon="9.5595366"><ele>175.2</ele><time>2026-04-24T13:36:01.963Z</time></trkpt><trkpt lat="45.624884" lon="9.5595551"><ele>175.0</ele><time>2026-04-24T13:36:03.963Z</time></trkpt><trkpt lat="45.6247829" lon="9.5595524"><ele>174.16666666666669</ele><time>2026-04-24T13:36:05.963Z</time></trkpt><trkpt lat="45.6246565" lon="9.5595588"><ele>173.33333333333334</ele><time>2026-04-24T13:36:07.964Z</time></trkpt><trkpt lat="45.6245768" lon="9.5595847"><ele>172.5</ele><time>2026-04-24T13:36:08.964Z</time></trkpt><trkpt lat="45.6245033" lon="9.5596047"><ele>171.66666666666666</ele><time>2026-04-24T13:36:09.964Z</time></trkpt><trkpt lat="45.6244336" lon="9.5596189"><ele>170.83333333333331</ele><time>2026-04-24T13:36:10.963Z</time></trkpt><trkpt lat="45.6243697" lon="9.5596322"><ele>170.0</ele><time>2026-04-24T13:36:11.963Z</time></trkpt><trkpt lat="45.6242389" lon="9.5596672"><ele>170.0</ele><time>2026-04-24T13:36:13.963Z</time></trkpt><trkpt lat="45.624175" lon="9.5596805"><ele>170.0</ele><time>2026-04-24T13:36:14.963Z</time></trkpt><trkpt lat="45.6241068" lon="9.5596944"><ele>170.0</ele><time>2026-04-24T13:36:15.964Z</time></trkpt><trkpt lat="45.6240403" lon="9.5597002"><ele>170.0</ele><time>2026-04-24T13:36:16.964Z</time></trkpt><trkpt lat="45.6239165" lon="9.5597062"><ele>170.0</ele><time>2026-04-24T13:36:18.963Z</time></trkpt><trkpt lat="45.6238472" lon="9.5597161"><ele>170.0</ele><time>2026-04-24T13:36:19.963Z</time></trkpt><trkpt lat="45.6237818" lon="9.5597246"><ele>170.0</ele><time>2026-04-24T13:36:20.963Z</time></trkpt><trkpt lat="45.6237008" lon="9.5597463"><ele>170.0</ele><time>2026-04-24T13:36:21.963Z</time></trkpt><trkpt lat="45.6235822" lon="9.5597532"><ele>170.0</ele><time>2026-04-24T13:36:23.963Z</time></trkpt><trkpt lat="45.623455" lon="9.5597439"><ele>170.0</ele><time>2026-04-24T13:36:25.963Z</time></trkpt><trkpt lat="45.6233909" lon="9.559737"><ele>170.0</ele><time>2026-04-24T13:36:26.963Z</time></trkpt><trkpt lat="45.6233447" lon="9.5596179"><ele>171.0</ele><time>2026-04-24T13:36:28.964Z</time></trkpt><trkpt lat="45.6233278" lon="9.5594897"><ele>172.0</ele><time>2026-04-24T13:36:30.964Z</time></trkpt><trkpt lat="45.6233219" lon="9.5593702"><ele>173.0</ele><time>2026-04-24T13:36:32.964Z</time></trkpt><trkpt lat="45.6233036" lon="9.5592524"><ele>174.0</ele><time>2026-04-24T13:36:34.964Z</time></trkpt><trkpt lat="45.6232942" lon="9.559141"><ele>175.0</ele><time>2026-04-24T13:36:36.964Z</time></trkpt><trkpt lat="45.6232912" lon="9.5590148"><ele>176.0</ele><time>2026-04-24T13:36:38.963Z</time></trkpt><trkpt lat="45.6232863" lon="9.5589014"><ele>176.0</ele><time>2026-04-24T13:36:40.963Z</time></trkpt><trkpt lat="45.6232752" lon="9.5588028"><ele>176.0</ele><time>2026-04-24T13:36:42.964Z</time></trkpt><trkpt lat="45.6232655" lon="9.5586751"><ele>176.0</ele><time>2026-04-24T13:36:44.963Z</time></trkpt><trkpt lat="45.6232648" lon="9.5585454"><ele>176.0</ele><time>2026-04-24T13:36:46.963Z</time></trkpt><trkpt lat="45.623267" lon="9.5584122"><ele>176.0</ele><time>2026-04-24T13:36:48.963Z</time></trkpt><trkpt lat="45.6232698" lon="9.5582787"><ele>176.0</ele><time>2026-04-24T13:36:50.964Z</time></trkpt><trkpt lat="45.6232653" lon="9.5581434"><ele>176.60000000000002</ele><time>2026-04-24T13:36:52.963Z</time></trkpt><trkpt lat="45.6232611" lon="9.5580004"><ele>177.2</ele><time>2026-04-24T13:36:54.963Z</time></trkpt><trkpt lat="45.6232603" lon="9.5578594"><ele>177.8</ele><time>2026-04-24T13:36:56.964Z</time></trkpt><trkpt lat="45.6232548" lon="9.5577136"><ele>178.39999999999998</ele><time>2026-04-24T13:36:58.964Z</time></trkpt><trkpt lat="45.6232533" lon="9.5575654"><ele>179.0</ele><time>2026-04-24T13:37:00.963Z</time></trkpt><trkpt lat="45.6232475" lon="9.5574327"><ele>179.33333333333331</ele><time>2026-04-24T13:37:02.963Z</time></trkpt><trkpt lat="45.6232562" lon="9.5573026"><ele>179.66666666666666</ele><time>2026-04-24T13:37:04.963Z</time></trkpt><trkpt lat="45.6232859" lon="9.5571957"><ele>180.0</ele><time>2026-04-24T13:37:06.963Z</time></trkpt><trkpt lat="45.6233129" lon="9.5570948"><ele>180.33333333333334</ele><time>2026-04-24T13:37:08.964Z</time></trkpt><trkpt lat="45.6233181" lon="9.5570027"><ele>180.66666666666669</ele><time>2026-04-24T13:37:12.964Z</time></trkpt><trkpt lat="45.6232329" lon="9.5569503"><ele>181.0</ele><time>2026-04-24T13:37:16.963Z</time></trkpt><trkpt lat="45.6231485" lon="9.5569223"><ele>181.0</ele><time>2026-04-24T13:37:18.964Z</time></trkpt><trkpt lat="45.6230596" lon="9.5569241"><ele>181.0</ele><time>2026-04-24T13:37:20.963Z</time></trkpt><trkpt lat="45.6229589" lon="9.5569048"><ele>181.0</ele><time>2026-04-24T13:37:22.963Z</time></trkpt><trkpt lat="45.6229148" lon="9.5567701"><ele>181.0</ele><time>2026-04-24T13:37:24.963Z</time></trkpt><trkpt lat="45.6229439" lon="9.5566294"><ele>181.0</ele><time>2026-04-24T13:37:26.963Z</time></trkpt><trkpt lat="45.6230062" lon="9.5565084"><ele>181.0</ele><time>2026-04-24T13:37:28.963Z</time></trkpt><trkpt lat="45.6230545" lon="9.5563821"><ele>181.0</ele><time>2026-04-24T13:37:30.963Z</time></trkpt><trkpt lat="45.6231003" lon="9.5562694"><ele>181.0</ele><time>2026-04-24T13:37:32.963Z</time></trkpt><trkpt lat="45.6231596" lon="9.5561618"><ele>181.0</ele><time>2026-04-24T13:37:34.964Z</time></trkpt><trkpt lat="45.6232138" lon="9.5560439"><ele>181.0</ele><time>2026-04-24T13:37:36.963Z</time></trkpt><trkpt lat="45.6232576" lon="9.5559191"><ele>181.8</ele><time>2026-04-24T13:37:38.963Z</time></trkpt><trkpt lat="45.6232893" lon="9.555789"><ele>182.60000000000002</ele><time>2026-04-24T13:37:40.963Z</time></trkpt><trkpt lat="45.6233189" lon="9.5556829"><ele>183.4</ele><time>2026-04-24T13:37:42.964Z</time></trkpt><trkpt lat="45.6233663" lon="9.5555503"><ele>184.2</ele><time>2026-04-24T13:37:44.963Z</time></trkpt><trkpt lat="45.6234129" lon="9.5554057"><ele>185.0</ele><time>2026-04-24T13:37:46.963Z</time></trkpt><trkpt lat="45.6234547" lon="9.555273"><ele>185.2</ele><time>2026-04-24T13:37:48.963Z</time></trkpt><trkpt lat="45.62351" lon="9.5551109"><ele>185.4</ele><time>2026-04-24T13:37:50.964Z</time></trkpt><trkpt lat="45.6235377" lon="9.5550261"><ele>185.60000000000002</ele><time>2026-04-24T13:37:51.963Z</time></trkpt><trkpt lat="45.623591" lon="9.5548728"><ele>185.8</ele><time>2026-04-24T13:37:53.963Z</time></trkpt><trkpt lat="45.6236382" lon="9.5547141"><ele>186.0</ele><time>2026-04-24T13:37:55.963Z</time></trkpt><trkpt lat="45.6236873" lon="9.5545664"><ele>185.60000000000002</ele><time>2026-04-24T13:37:57.963Z</time></trkpt><trkpt lat="45.6237361" lon="9.5544224"><ele>185.2</ele><time>2026-04-24T13:37:59.963Z</time></trkpt><trkpt lat="45.6237825" lon="9.5542699"><ele>184.8</ele><time>2026-04-24T13:38:01.963Z</time></trkpt><trkpt lat="45.6238112" lon="9.5541881"><ele>184.39999999999998</ele><time>2026-04-24T13:38:02.963Z</time></trkpt><trkpt lat="45.6238617" lon="9.5540228"><ele>184.0</ele><time>2026-04-24T13:38:04.964Z</time></trkpt><trkpt lat="45.6239199" lon="9.553871"><ele>184.0</ele><time>2026-04-24T13:38:06.963Z</time></trkpt><trkpt lat="45.6239789" lon="9.5537082"><ele>184.0</ele><time>2026-04-24T13:38:08.963Z</time></trkpt><trkpt lat="45.6240208" lon="9.5535473"><ele>184.0</ele><time>2026-04-24T13:38:10.963Z</time></trkpt><trkpt lat="45.6240707" lon="9.5533775"><ele>184.0</ele><time>2026-04-24T13:38:12.963Z</time></trkpt><trkpt lat="45.624095" lon="9.5532935"><ele>184.0</ele><time>2026-04-24T13:38:13.963Z</time></trkpt><trkpt lat="45.6241419" lon="9.5531458"><ele>183.79999999999998</ele><time>2026-04-24T13:38:15.963Z</time></trkpt><trkpt lat="45.6241746" lon="9.553063"><ele>183.6</ele><time>2026-04-24T13:38:16.963Z</time></trkpt><trkpt lat="45.6242569" lon="9.5529335"><ele>183.4</ele><time>2026-04-24T13:38:18.963Z</time></trkpt><trkpt lat="45.6243567" lon="9.5528575"><ele>183.2</ele><time>2026-04-24T13:38:20.964Z</time></trkpt><trkpt lat="45.6244161" lon="9.552815"><ele>183.0</ele><time>2026-04-24T13:38:21.963Z</time></trkpt><trkpt lat="45.6245074" lon="9.5527329"><ele>183.4</ele><time>2026-04-24T13:38:23.963Z</time></trkpt><trkpt lat="45.6245725" lon="9.5526024"><ele>183.8</ele><time>2026-04-24T13:38:25.963Z</time></trkpt><trkpt lat="45.6245793" lon="9.5524322"><ele>184.2</ele><time>2026-04-24T13:38:27.963Z</time></trkpt><trkpt lat="45.6245152" lon="9.5522801"><ele>184.6</ele><time>2026-04-24T13:38:29.964Z</time></trkpt><trkpt lat="45.6244836" lon="9.552201"><ele>185.0</ele><time>2026-04-24T13:38:30.964Z</time></trkpt><trkpt lat="45.6244559" lon="9.5521165"><ele>184.83333333333331</ele><time>2026-04-24T13:38:31.964Z</time></trkpt><trkpt lat="45.6244258" lon="9.5520209"><ele>184.66666666666666</ele><time>2026-04-24T13:38:32.963Z</time></trkpt><trkpt lat="45.6244066" lon="9.55193"><ele>184.5</ele><time>2026-04-24T13:38:33.964Z</time></trkpt><trkpt lat="45.6243924" lon="9.5518412"><ele>184.33333333333334</ele><time>2026-04-24T13:38:34.964Z</time></trkpt><trkpt lat="45.6243723" lon="9.5516727"><ele>184.16666666666669</ele><time>2026-04-24T13:38:36.964Z</time></trkpt><trkpt lat="45.6243698" lon="9.5515825"><ele>184.0</ele><time>2026-04-24T13:38:37.963Z</time></trkpt><trkpt lat="45.6243704" lon="9.5514667"><ele>184.0</ele><time>2026-04-24T13:38:38.963Z</time></trkpt><trkpt lat="45.6243696" lon="9.5513128"><ele>184.0</ele><time>2026-04-24T13:38:40.963Z</time></trkpt><trkpt lat="45.6243696" lon="9.5511444"><ele>184.0</ele><time>2026-04-24T13:38:42.963Z</time></trkpt><trkpt lat="45.6243744" lon="9.5509784"><ele>184.0</ele><time>2026-04-24T13:38:44.963Z</time></trkpt><trkpt lat="45.6243712" lon="9.5508118"><ele>183.79999999999998</ele><time>2026-04-24T13:38:46.963Z</time></trkpt><trkpt lat="45.624367" lon="9.5506559"><ele>183.6</ele><time>2026-04-24T13:38:48.964Z</time></trkpt><trkpt lat="45.6243634" lon="9.5504857"><ele>183.4</ele><time>2026-04-24T13:38:50.963Z</time></trkpt><trkpt lat="45.6243578" lon="9.5503949"><ele>183.2</ele><time>2026-04-24T13:38:51.963Z</time></trkpt><trkpt lat="45.6243565" lon="9.5502241"><ele>183.0</ele><time>2026-04-24T13:38:53.963Z</time></trkpt><trkpt lat="45.6243543" lon="9.5501098"><ele>183.0</ele><time>2026-04-24T13:38:55.963Z</time></trkpt><trkpt lat="45.6243437" lon="9.5500041"><ele>183.0</ele><time>2026-04-24T13:38:56.964Z</time></trkpt><trkpt lat="45.6243443" lon="9.5499137"><ele>183.0</ele><time>2026-04-24T13:38:57.963Z</time></trkpt><trkpt lat="45.6243309" lon="9.5497498"><ele>183.0</ele><time>2026-04-24T13:38:59.963Z</time></trkpt><trkpt lat="45.6243217" lon="9.5495742"><ele>183.0</ele><time>2026-04-24T13:39:01.964Z</time></trkpt><trkpt lat="45.624334" lon="9.5493967"><ele>182.60000000000002</ele><time>2026-04-24T13:39:03.963Z</time></trkpt><trkpt lat="45.6243536" lon="9.5492345"><ele>182.20000000000002</ele><time>2026-04-24T13:39:05.963Z</time></trkpt><trkpt lat="45.6243938" lon="9.5490641"><ele>181.8</ele><time>2026-04-24T13:39:07.964Z</time></trkpt><trkpt lat="45.6244203" lon="9.5489787"><ele>181.4</ele><time>2026-04-24T13:39:08.964Z</time></trkpt><trkpt lat="45.6244281" lon="9.5488057"><ele>181.0</ele><time>2026-04-24T13:39:10.963Z</time></trkpt><trkpt lat="45.62438" lon="9.548661"><ele>181.0</ele><time>2026-04-24T13:39:12.963Z</time></trkpt><trkpt lat="45.6242667" lon="9.5485959"><ele>181.0</ele><time>2026-04-24T13:39:14.963Z</time></trkpt><trkpt lat="45.6241512" lon="9.5486519"><ele>181.0</ele><time>2026-04-24T13:39:16.964Z</time></trkpt><trkpt lat="45.6240438" lon="9.5487096"><ele>181.0</ele><time>2026-04-24T13:39:18.963Z</time></trkpt><trkpt lat="45.6239817" lon="9.5487379"><ele>181.0</ele><time>2026-04-24T13:39:19.963Z</time></trkpt><trkpt lat="45.6239176" lon="9.5487583"><ele>181.0</ele><time>2026-04-24T13:39:20.963Z</time></trkpt><trkpt lat="45.6238537" lon="9.548764"><ele>181.0</ele><time>2026-04-24T13:39:21.963Z</time></trkpt><trkpt lat="45.6237874" lon="9.5487797"><ele>181.0</ele><time>2026-04-24T13:39:22.963Z</time></trkpt><trkpt lat="45.6237217" lon="9.5487848"><ele>181.0</ele><time>2026-04-24T13:39:23.964Z</time></trkpt><trkpt lat="45.62365" lon="9.5487895"><ele>181.0</ele><time>2026-04-24T13:39:24.964Z</time></trkpt><trkpt lat="45.6235813" lon="9.548791"><ele>181.0</ele><time>2026-04-24T13:39:25.963Z</time></trkpt><trkpt lat="45.6235138" lon="9.5487951"><ele>181.0</ele><time>2026-04-24T13:39:26.963Z</time></trkpt><trkpt lat="45.6234491" lon="9.5487982"><ele>181.14285714285714</ele><time>2026-04-24T13:39:27.963Z</time></trkpt><trkpt lat="45.6233773" lon="9.5488008"><ele>181.28571428571428</ele><time>2026-04-24T13:39:28.963Z</time></trkpt><trkpt lat="45.6233134" lon="9.5488019"><ele>181.42857142857144</ele><time>2026-04-24T13:39:29.964Z</time></trkpt><trkpt lat="45.6232418" lon="9.548806"><ele>181.57142857142856</ele><time>2026-04-24T13:39:30.963Z</time></trkpt><trkpt lat="45.6231713" lon="9.5488097"><ele>181.71428571428572</ele><time>2026-04-24T13:39:31.963Z</time></trkpt><trkpt lat="45.6230962" lon="9.5488127"><ele>181.85714285714286</ele><time>2026-04-24T13:39:32.964Z</time></trkpt><trkpt lat="45.6230295" lon="9.5488131"><ele>182.0</ele><time>2026-04-24T13:39:33.963Z</time></trkpt><trkpt lat="45.6229592" lon="9.5488094"><ele>182.0</ele><time>2026-04-24T13:39:34.963Z</time></trkpt><trkpt lat="45.6228916" lon="9.5488097"><ele>182.0</ele><time>2026-04-24T13:39:35.963Z</time></trkpt><trkpt lat="45.6228283" lon="9.5488148"><ele>182.0</ele><time>2026-04-24T13:39:36.963Z</time></trkpt><trkpt lat="45.6227584" lon="9.5488131"><ele>182.0</ele><time>2026-04-24T13:39:37.963Z</time></trkpt><trkpt lat="45.6226862" lon="9.5488161"><ele>182.0</ele><time>2026-04-24T13:39:38.963Z</time></trkpt><trkpt lat="45.6225975" lon="9.5488231"><ele>182.0</ele><time>2026-04-24T13:39:39.963Z</time></trkpt><trkpt lat="45.6225266" lon="9.5488246"><ele>182.0</ele><time>2026-04-24T13:39:40.964Z</time></trkpt><trkpt lat="45.6224472" lon="9.5488391"><ele>182.14285714285714</ele><time>2026-04-24T13:39:41.964Z</time></trkpt><trkpt lat="45.6223764" lon="9.5488428"><ele>182.28571428571428</ele><time>2026-04-24T13:39:42.963Z</time></trkpt><trkpt lat="45.6223" lon="9.5488533"><ele>182.42857142857144</ele><time>2026-04-24T13:39:43.964Z</time></trkpt><trkpt lat="45.6222273" lon="9.5488474"><ele>182.57142857142856</ele><time>2026-04-24T13:39:44.963Z</time></trkpt><trkpt lat="45.6221571" lon="9.5488542"><ele>182.71428571428572</ele><time>2026-04-24T13:39:45.963Z</time></trkpt><trkpt lat="45.6220827" lon="9.5488538"><ele>182.85714285714286</ele><time>2026-04-24T13:39:46.963Z</time></trkpt><trkpt lat="45.6220191" lon="9.5488598"><ele>183.0</ele><time>2026-04-24T13:39:47.963Z</time></trkpt><trkpt lat="45.6219565" lon="9.5488718"><ele>183.0</ele><time>2026-04-24T13:39:48.963Z</time></trkpt><trkpt lat="45.6218825" lon="9.5488684"><ele>183.0</ele><time>2026-04-24T13:39:49.963Z</time></trkpt><trkpt lat="45.6218117" lon="9.5488723"><ele>183.0</ele><time>2026-04-24T13:39:50.964Z</time></trkpt><trkpt lat="45.6217453" lon="9.5488772"><ele>183.0</ele><time>2026-04-24T13:39:51.963Z</time></trkpt><trkpt lat="45.6216755" lon="9.5488883"><ele>183.0</ele><time>2026-04-24T13:39:52.963Z</time></trkpt><trkpt lat="45.6216057" lon="9.548882"><ele>183.0</ele><time>2026-04-24T13:39:53.963Z</time></trkpt><trkpt lat="45.6215385" lon="9.5488812"><ele>183.0</ele><time>2026-04-24T13:39:54.964Z</time></trkpt><trkpt lat="45.6214687" lon="9.5488817"><ele>183.0</ele><time>2026-04-24T13:39:55.964Z</time></trkpt><trkpt lat="45.6214023" lon="9.5488888"><ele>183.0</ele><time>2026-04-24T13:39:56.963Z</time></trkpt><trkpt lat="45.6213324" lon="9.5488974"><ele>183.0</ele><time>2026-04-24T13:39:57.963Z</time></trkpt><trkpt lat="45.6212688" lon="9.5489076"><ele>183.0</ele><time>2026-04-24T13:39:58.964Z</time></trkpt><trkpt lat="45.6212007" lon="9.5489029"><ele>183.0</ele><time>2026-04-24T13:39:59.963Z</time></trkpt><trkpt lat="45.6211312" lon="9.548917"><ele>183.0</ele><time>2026-04-24T13:40:00.963Z</time></trkpt><trkpt lat="45.6210627" lon="9.5489221"><ele>183.0</ele><time>2026-04-24T13:40:01.964Z</time></trkpt><trkpt lat="45.6209975" lon="9.5489277"><ele>182.85714285714286</ele><time>2026-04-24T13:40:02.963Z</time></trkpt><trkpt lat="45.6209275" lon="9.5489289"><ele>182.71428571428572</ele><time>2026-04-24T13:40:03.963Z</time></trkpt><trkpt lat="45.620855" lon="9.5489329"><ele>182.57142857142856</ele><time>2026-04-24T13:40:04.963Z</time></trkpt><trkpt lat="45.6207861" lon="9.5489334"><ele>182.42857142857144</ele><time>2026-04-24T13:40:05.963Z</time></trkpt><trkpt lat="45.6207186" lon="9.5489413"><ele>182.28571428571428</ele><time>2026-04-24T13:40:06.963Z</time></trkpt><trkpt lat="45.6206514" lon="9.5489402"><ele>182.14285714285714</ele><time>2026-04-24T13:40:07.964Z</time></trkpt><trkpt lat="45.620577" lon="9.5489403"><ele>182.0</ele><time>2026-04-24T13:40:08.963Z</time></trkpt><trkpt lat="45.6205084" lon="9.5489475"><ele>182.0</ele><time>2026-04-24T13:40:09.963Z</time></trkpt><trkpt lat="45.6204453" lon="9.548941"><ele>182.0</ele><time>2026-04-24T13:40:10.963Z</time></trkpt><trkpt lat="45.6203784" lon="9.5489431"><ele>182.0</ele><time>2026-04-24T13:40:11.963Z</time></trkpt><trkpt lat="45.6203064" lon="9.5489552"><ele>182.0</ele><time>2026-04-24T13:40:12.964Z</time></trkpt><trkpt lat="45.6202323" lon="9.5489556"><ele>182.0</ele><time>2026-04-24T13:40:13.964Z</time></trkpt><trkpt lat="45.6201127" lon="9.5489537"><ele>182.0</ele><time>2026-04-24T13:40:15.964Z</time></trkpt><trkpt lat="45.62003" lon="9.5489337"><ele>181.71428571428572</ele><time>2026-04-24T13:40:16.963Z</time></trkpt><trkpt lat="45.6199631" lon="9.548951"><ele>181.42857142857144</ele><time>2026-04-24T13:40:17.963Z</time></trkpt><trkpt lat="45.6198861" lon="9.5489506"><ele>181.14285714285714</ele><time>2026-04-24T13:40:18.964Z</time></trkpt><trkpt lat="45.6198162" lon="9.5489589"><ele>180.85714285714286</ele><time>2026-04-24T13:40:19.963Z</time></trkpt><trkpt lat="45.6197451" lon="9.5489608"><ele>180.57142857142858</ele><time>2026-04-24T13:40:20.963Z</time></trkpt><trkpt lat="45.6196669" lon="9.5489745"><ele>180.28571428571428</ele><time>2026-04-24T13:40:21.963Z</time></trkpt><trkpt lat="45.6195886" lon="9.5489781"><ele>180.0</ele><time>2026-04-24T13:40:22.963Z</time></trkpt><trkpt lat="45.6195134" lon="9.5489797"><ele>179.66666666666666</ele><time>2026-04-24T13:40:23.963Z</time></trkpt><trkpt lat="45.6194423" lon="9.5489948"><ele>179.33333333333334</ele><time>2026-04-24T13:40:24.963Z</time></trkpt><trkpt lat="45.6193697" lon="9.5489888"><ele>179.0</ele><time>2026-04-24T13:40:25.963Z</time></trkpt><trkpt lat="45.6192878" lon="9.5489865"><ele>178.66666666666669</ele><time>2026-04-24T13:40:26.964Z</time></trkpt><trkpt lat="45.6192138" lon="9.5489967"><ele>178.33333333333334</ele><time>2026-04-24T13:40:27.964Z</time></trkpt><trkpt lat="45.6191429" lon="9.548993"><ele>178.0</ele><time>2026-04-24T13:40:28.964Z</time></trkpt><trkpt lat="45.6190651" lon="9.5490001"><ele>177.99999999999997</ele><time>2026-04-24T13:40:29.963Z</time></trkpt><trkpt lat="45.6189984" lon="9.5490005"><ele>178.0</ele><time>2026-04-24T13:40:30.963Z</time></trkpt><trkpt lat="45.6189338" lon="9.5490105"><ele>178.0</ele><time>2026-04-24T13:40:31.963Z</time></trkpt><trkpt lat="45.6188604" lon="9.5490224"><ele>178.0</ele><time>2026-04-24T13:40:32.963Z</time></trkpt><trkpt lat="45.6187791" lon="9.5490376"><ele>178.0</ele><time>2026-04-24T13:40:33.963Z</time></trkpt><trkpt lat="45.6187053" lon="9.5490529"><ele>177.99999999999997</ele><time>2026-04-24T13:40:34.963Z</time></trkpt><trkpt lat="45.6186343" lon="9.5490706"><ele>178.0</ele><time>2026-04-24T13:40:35.963Z</time></trkpt><trkpt lat="45.6185009" lon="9.5490901"><ele>178.2</ele><time>2026-04-24T13:40:38.345Z</time></trkpt><trkpt lat="45.6183333" lon="9.549108"><ele>178.4</ele><time>2026-04-24T13:40:39.964Z</time></trkpt><trkpt lat="45.6182654" lon="9.5491227"><ele>178.6</ele><time>2026-04-24T13:40:40.954Z</time></trkpt><trkpt lat="45.6182007" lon="9.5491258"><ele>178.79999999999998</ele><time>2026-04-24T13:40:41.961Z</time></trkpt><trkpt lat="45.6181291" lon="9.5491389"><ele>179.0</ele><time>2026-04-24T13:40:42.961Z</time></trkpt><trkpt lat="45.6180515" lon="9.5491504"><ele>179.00000000000003</ele><time>2026-04-24T13:40:43.96Z</time></trkpt><trkpt lat="45.6179723" lon="9.5491491"><ele>179.0</ele><time>2026-04-24T13:40:44.961Z</time></trkpt><trkpt lat="45.6179057" lon="9.5491781"><ele>179.0</ele><time>2026-04-24T13:40:45.96Z</time></trkpt><trkpt lat="45.6178303" lon="9.5491927"><ele>179.0</ele><time>2026-04-24T13:40:46.96Z</time></trkpt><trkpt lat="45.6177551" lon="9.5492028"><ele>179.0</ele><time>2026-04-24T13:40:47.961Z</time></trkpt><trkpt lat="45.6176884" lon="9.549209"><ele>179.00000000000003</ele><time>2026-04-24T13:40:48.96Z</time></trkpt><trkpt lat="45.6176183" lon="9.5492231"><ele>179.0</ele><time>2026-04-24T13:40:49.961Z</time></trkpt><trkpt lat="45.6175491" lon="9.5492209"><ele>178.83333333333331</ele><time>2026-04-24T13:40:50.96Z</time></trkpt><trkpt lat="45.6174831" lon="9.5492463"><ele>178.66666666666666</ele><time>2026-04-24T13:40:51.96Z</time></trkpt><trkpt lat="45.6173908" lon="9.5492601"><ele>178.5</ele><time>2026-04-24T13:40:52.961Z</time></trkpt><trkpt lat="45.6173118" lon="9.5492511"><ele>178.33333333333334</ele><time>2026-04-24T13:40:53.96Z</time></trkpt><trkpt lat="45.6172334" lon="9.5492505"><ele>178.16666666666669</ele><time>2026-04-24T13:40:54.961Z</time></trkpt><trkpt lat="45.617154" lon="9.5492521"><ele>178.0</ele><time>2026-04-24T13:40:55.96Z</time></trkpt><trkpt lat="45.6170832" lon="9.5492566"><ele>178.0</ele><time>2026-04-24T13:40:56.96Z</time></trkpt><trkpt lat="45.6170012" lon="9.5492494"><ele>178.0</ele><time>2026-04-24T13:40:57.96Z</time></trkpt><trkpt lat="45.6169268" lon="9.5492524"><ele>178.0</ele><time>2026-04-24T13:40:58.96Z</time></trkpt><trkpt lat="45.61685" lon="9.549249"><ele>178.0</ele><time>2026-04-24T13:40:59.96Z</time></trkpt><trkpt lat="45.6167719" lon="9.5492388"><ele>178.0</ele><time>2026-04-24T13:41:00.96Z</time></trkpt><trkpt lat="45.6167012" lon="9.5492296"><ele>178.0</ele><time>2026-04-24T13:41:01.96Z</time></trkpt><trkpt lat="45.6166324" lon="9.5492242"><ele>177.99999999999997</ele><time>2026-04-24T13:41:02.961Z</time></trkpt><trkpt lat="45.6165547" lon="9.5492159"><ele>178.0</ele><time>2026-04-24T13:41:03.96Z</time></trkpt><trkpt lat="45.6164874" lon="9.5492086"><ele>178.0</ele><time>2026-04-24T13:41:04.96Z</time></trkpt><trkpt lat="45.6164182" lon="9.5491948"><ele>178.0</ele><time>2026-04-24T13:41:05.96Z</time></trkpt><trkpt lat="45.616344" lon="9.5491774"><ele>178.0</ele><time>2026-04-24T13:41:06.96Z</time></trkpt><trkpt lat="45.616274" lon="9.5491487"><ele>177.99999999999997</ele><time>2026-04-24T13:41:07.96Z</time></trkpt><trkpt lat="45.6162065" lon="9.5491343"><ele>178.0</ele><time>2026-04-24T13:41:08.96Z</time></trkpt><trkpt lat="45.6161306" lon="9.5491161"><ele>177.99999999999997</ele><time>2026-04-24T13:41:09.96Z</time></trkpt><trkpt lat="45.6160607" lon="9.549086"><ele>178.0</ele><time>2026-04-24T13:41:10.961Z</time></trkpt><trkpt lat="45.615994" lon="9.5490564"><ele>178.0</ele><time>2026-04-24T13:41:11.96Z</time></trkpt><trkpt lat="45.6159253" lon="9.549015"><ele>178.0</ele><time>2026-04-24T13:41:12.96Z</time></trkpt><trkpt lat="45.6158596" lon="9.5489739"><ele>178.0</ele><time>2026-04-24T13:41:13.96Z</time></trkpt><trkpt lat="45.6157974" lon="9.5489305"><ele>177.99999999999997</ele><time>2026-04-24T13:41:14.96Z</time></trkpt><trkpt lat="45.6157249" lon="9.548889"><ele>178.0</ele><time>2026-04-24T13:41:15.96Z</time></trkpt><trkpt lat="45.6156609" lon="9.5488387"><ele>177.99999999999997</ele><time>2026-04-24T13:41:16.961Z</time></trkpt><trkpt lat="45.6155931" lon="9.5487788"><ele>178.0</ele><time>2026-04-24T13:41:17.96Z</time></trkpt><trkpt lat="45.6155293" lon="9.5487263"><ele>178.0</ele><time>2026-04-24T13:41:18.96Z</time></trkpt><trkpt lat="45.615466" lon="9.5486803"><ele>178.0</ele><time>2026-04-24T13:41:19.96Z</time></trkpt><trkpt lat="45.6154029" lon="9.5486282"><ele>178.0</ele><time>2026-04-24T13:41:20.96Z</time></trkpt><trkpt lat="45.6153423" lon="9.5485875"><ele>177.99999999999997</ele><time>2026-04-24T13:41:21.96Z</time></trkpt><trkpt lat="45.6152808" lon="9.5485349"><ele>178.0</ele><time>2026-04-24T13:41:22.961Z</time></trkpt><trkpt lat="45.6152171" lon="9.5484817"><ele>177.85714285714283</ele><time>2026-04-24T13:41:23.96Z</time></trkpt><trkpt lat="45.6151565" lon="9.5484242"><ele>177.71428571428572</ele><time>2026-04-24T13:41:24.96Z</time></trkpt><trkpt lat="45.6151027" lon="9.5483594"><ele>177.57142857142856</ele><time>2026-04-24T13:41:25.961Z</time></trkpt><trkpt lat="45.6150468" lon="9.5483033"><ele>177.42857142857142</ele><time>2026-04-24T13:41:26.96Z</time></trkpt><trkpt lat="45.614989" lon="9.5482499"><ele>177.28571428571428</ele><time>2026-04-24T13:41:27.961Z</time></trkpt><trkpt lat="45.6149308" lon="9.5481894"><ele>177.14285714285714</ele><time>2026-04-24T13:41:28.961Z</time></trkpt><trkpt lat="45.614877" lon="9.5481207"><ele>177.0</ele><time>2026-04-24T13:41:29.961Z</time></trkpt><trkpt lat="45.6148285" lon="9.5480552"><ele>177.0</ele><time>2026-04-24T13:41:30.96Z</time></trkpt><trkpt lat="45.6147797" lon="9.5479824"><ele>177.0</ele><time>2026-04-24T13:41:31.96Z</time></trkpt><trkpt lat="45.6147276" lon="9.5478959"><ele>177.0</ele><time>2026-04-24T13:41:32.961Z</time></trkpt><trkpt lat="45.6146822" lon="9.5478249"><ele>177.0</ele><time>2026-04-24T13:41:33.961Z</time></trkpt><trkpt lat="45.6146346" lon="9.5477345"><ele>177.0</ele><time>2026-04-24T13:41:34.96Z</time></trkpt><trkpt lat="45.6145878" lon="9.5476498"><ele>177.0</ele><time>2026-04-24T13:41:35.96Z</time></trkpt><trkpt lat="45.614546" lon="9.5475599"><ele>177.0</ele><time>2026-04-24T13:41:36.96Z</time></trkpt><trkpt lat="45.6144996" lon="9.5474694"><ele>177.14285714285714</ele><time>2026-04-24T13:41:37.961Z</time></trkpt><trkpt lat="45.6144571" lon="9.5473788"><ele>177.28571428571428</ele><time>2026-04-24T13:41:38.96Z</time></trkpt><trkpt lat="45.6144177" lon="9.5472925"><ele>177.42857142857142</ele><time>2026-04-24T13:41:39.961Z</time></trkpt><trkpt lat="45.6143758" lon="9.5472013"><ele>177.57142857142856</ele><time>2026-04-24T13:41:40.961Z</time></trkpt><trkpt lat="45.6143378" lon="9.5471076"><ele>177.71428571428572</ele><time>2026-04-24T13:41:41.961Z</time></trkpt><trkpt lat="45.6143038" lon="9.5470211"><ele>177.85714285714283</ele><time>2026-04-24T13:41:42.96Z</time></trkpt><trkpt lat="45.6142692" lon="9.5469343"><ele>178.0</ele><time>2026-04-24T13:41:43.961Z</time></trkpt><trkpt lat="45.6142378" lon="9.5468456"><ele>178.5</ele><time>2026-04-24T13:41:44.961Z</time></trkpt><trkpt lat="45.6142052" lon="9.5467481"><ele>179.0</ele><time>2026-04-24T13:41:45.96Z</time></trkpt><trkpt lat="45.6141749" lon="9.5466611"><ele>179.5</ele><time>2026-04-24T13:41:46.96Z</time></trkpt><trkpt lat="45.6141483" lon="9.5465738"><ele>180.0</ele><time>2026-04-24T13:41:47.961Z</time></trkpt><trkpt lat="45.6141193" lon="9.5464898"><ele>180.5</ele><time>2026-04-24T13:41:48.96Z</time></trkpt><trkpt lat="45.6140922" lon="9.5463999"><ele>181.0</ele><time>2026-04-24T13:41:49.96Z</time></trkpt><trkpt lat="45.6140441" lon="9.5462379"><ele>181.4</ele><time>2026-04-24T13:41:51.96Z</time></trkpt><trkpt lat="45.6140207" lon="9.5461537"><ele>181.8</ele><time>2026-04-24T13:41:52.96Z</time></trkpt><trkpt lat="45.614005" lon="9.5460627"><ele>182.20000000000002</ele><time>2026-04-24T13:41:53.961Z</time></trkpt><trkpt lat="45.6140154" lon="9.5458774"><ele>182.60000000000002</ele><time>2026-04-24T13:41:55.961Z</time></trkpt><trkpt lat="45.6140102" lon="9.5456925"><ele>183.0</ele><time>2026-04-24T13:41:57.961Z</time></trkpt><trkpt lat="45.6139855" lon="9.5456047"><ele>183.0</ele><time>2026-04-24T13:41:58.961Z</time></trkpt><trkpt lat="45.6139479" lon="9.5455304"><ele>183.0</ele><time>2026-04-24T13:41:59.96Z</time></trkpt><trkpt lat="45.6138397" lon="9.545423"><ele>183.0</ele><time>2026-04-24T13:42:01.96Z</time></trkpt><trkpt lat="45.6137845" lon="9.5453654"><ele>183.0</ele><time>2026-04-24T13:42:02.961Z</time></trkpt><trkpt lat="45.6137081" lon="9.5452437"><ele>183.0</ele><time>2026-04-24T13:42:04.96Z</time></trkpt><trkpt lat="45.6136558" lon="9.5450833"><ele>182.83333333333334</ele><time>2026-04-24T13:42:06.96Z</time></trkpt><trkpt lat="45.6136234" lon="9.5450003"><ele>182.66666666666666</ele><time>2026-04-24T13:42:07.961Z</time></trkpt><trkpt lat="45.6135935" lon="9.5449171"><ele>182.5</ele><time>2026-04-24T13:42:08.96Z</time></trkpt><trkpt lat="45.613548" lon="9.5447519"><ele>182.33333333333331</ele><time>2026-04-24T13:42:10.96Z</time></trkpt><trkpt lat="45.6135051" lon="9.5445987"><ele>182.16666666666666</ele><time>2026-04-24T13:42:12.961Z</time></trkpt><trkpt lat="45.6134768" lon="9.5445151"><ele>182.0</ele><time>2026-04-24T13:42:13.96Z</time></trkpt><trkpt lat="45.6134241" lon="9.5443501"><ele>182.0</ele><time>2026-04-24T13:42:15.961Z</time></trkpt><trkpt lat="45.6133754" lon="9.5442012"><ele>182.0</ele><time>2026-04-24T13:42:17.961Z</time></trkpt><trkpt lat="45.6133446" lon="9.5441083"><ele>182.0</ele><time>2026-04-24T13:42:18.96Z</time></trkpt><trkpt lat="45.6132889" lon="9.5439531"><ele>182.0</ele><time>2026-04-24T13:42:20.961Z</time></trkpt><trkpt lat="45.613235" lon="9.5437922"><ele>182.0</ele><time>2026-04-24T13:42:22.96Z</time></trkpt><trkpt lat="45.6131781" lon="9.543624"><ele>181.5</ele><time>2026-04-24T13:42:24.96Z</time></trkpt><trkpt lat="45.6131234" lon="9.5434637"><ele>181.0</ele><time>2026-04-24T13:42:26.96Z</time></trkpt><trkpt lat="45.6130721" lon="9.5432879"><ele>180.5</ele><time>2026-04-24T13:42:28.96Z</time></trkpt><trkpt lat="45.6130252" lon="9.5431275"><ele>180.0</ele><time>2026-04-24T13:42:30.96Z</time></trkpt><trkpt lat="45.6129685" lon="9.5429776"><ele>180.0</ele><time>2026-04-24T13:42:32.961Z</time></trkpt><trkpt lat="45.6129163" lon="9.5428224"><ele>180.0</ele><time>2026-04-24T13:42:34.961Z</time></trkpt><trkpt lat="45.6128881" lon="9.5427344"><ele>180.0</ele><time>2026-04-24T13:42:35.96Z</time></trkpt><trkpt lat="45.6128315" lon="9.5425679"><ele>180.0</ele><time>2026-04-24T13:42:37.96Z</time></trkpt><trkpt lat="45.612767" lon="9.5424116"><ele>180.0</ele><time>2026-04-24T13:42:39.961Z</time></trkpt><trkpt lat="45.6127074" lon="9.542262"><ele>180.4</ele><time>2026-04-24T13:42:41.961Z</time></trkpt><trkpt lat="45.6126471" lon="9.5421062"><ele>180.8</ele><time>2026-04-24T13:42:43.961Z</time></trkpt><trkpt lat="45.6126103" lon="9.5420231"><ele>181.2</ele><time>2026-04-24T13:42:44.96Z</time></trkpt><trkpt lat="45.6125687" lon="9.5419193"><ele>181.6</ele><time>2026-04-24T13:42:45.96Z</time></trkpt><trkpt lat="45.6125055" lon="9.5417894"><ele>182.0</ele><time>2026-04-24T13:42:47.961Z</time></trkpt><trkpt lat="45.6124331" lon="9.5416436"><ele>182.2</ele><time>2026-04-24T13:42:49.961Z</time></trkpt><trkpt lat="45.6123573" lon="9.5414911"><ele>182.39999999999998</ele><time>2026-04-24T13:42:51.961Z</time></trkpt><trkpt lat="45.6123202" lon="9.5414164"><ele>182.60000000000002</ele><time>2026-04-24T13:42:52.961Z</time></trkpt><trkpt lat="45.6122466" lon="9.5412686"><ele>182.8</ele><time>2026-04-24T13:42:54.96Z</time></trkpt><trkpt lat="45.6121657" lon="9.5411323"><ele>183.0</ele><time>2026-04-24T13:42:56.961Z</time></trkpt><trkpt lat="45.6120993" lon="9.5410057"><ele>183.0</ele><time>2026-04-24T13:42:58.96Z</time></trkpt><trkpt lat="45.6120456" lon="9.5409254"><ele>183.0</ele><time>2026-04-24T13:43:00.96Z</time></trkpt><trkpt lat="45.6119985" lon="9.5408539"><ele>183.0</ele><time>2026-04-24T13:43:02.961Z</time></trkpt><trkpt lat="45.6119384" lon="9.540749"><ele>183.0</ele><time>2026-04-24T13:43:04.96Z</time></trkpt><trkpt lat="45.6118726" lon="9.5406446"><ele>183.0</ele><time>2026-04-24T13:43:06.961Z</time></trkpt><trkpt lat="45.6118019" lon="9.540518"><ele>183.0</ele><time>2026-04-24T13:43:08.96Z</time></trkpt><trkpt lat="45.6117224" lon="9.5403877"><ele>183.0</ele><time>2026-04-24T13:43:10.96Z</time></trkpt><trkpt lat="45.6116413" lon="9.540266"><ele>183.0</ele><time>2026-04-24T13:43:12.96Z</time></trkpt><trkpt lat="45.6115623" lon="9.5401358"><ele>183.0</ele><time>2026-04-24T13:43:14.961Z</time></trkpt><trkpt lat="45.6115198" lon="9.540061"><ele>183.0</ele><time>2026-04-24T13:43:15.96Z</time></trkpt><trkpt lat="45.6114455" lon="9.5399208"><ele>183.0</ele><time>2026-04-24T13:43:17.961Z</time></trkpt><trkpt lat="45.6114069" lon="9.5398436"><ele>183.0</ele><time>2026-04-24T13:43:18.96Z</time></trkpt><trkpt lat="45.6113394" lon="9.5397242"><ele>183.0</ele><time>2026-04-24T13:43:20.96Z</time></trkpt><trkpt lat="45.6112911" lon="9.5396288"><ele>183.0</ele><time>2026-04-24T13:43:22.961Z</time></trkpt><trkpt lat="45.6112492" lon="9.539547"><ele>183.0</ele><time>2026-04-24T13:43:27.96Z</time></trkpt><trkpt lat="45.6112139" lon="9.5394431"><ele>183.0</ele><time>2026-04-24T13:43:32.961Z</time></trkpt><trkpt lat="45.6111798" lon="9.5393571"><ele>182.83333333333334</ele><time>2026-04-24T13:43:35.96Z</time></trkpt><trkpt lat="45.6111392" lon="9.5392642"><ele>182.66666666666666</ele><time>2026-04-24T13:43:38.961Z</time></trkpt><trkpt lat="45.6110948" lon="9.539177"><ele>182.5</ele><time>2026-04-24T13:43:41.961Z</time></trkpt><trkpt lat="45.6110499" lon="9.5391109"><ele>182.33333333333331</ele><time>2026-04-24T13:43:43.961Z</time></trkpt><trkpt lat="45.6109952" lon="9.539053"><ele>182.16666666666666</ele><time>2026-04-24T13:43:45.96Z</time></trkpt><trkpt lat="45.6109257" lon="9.5389908"><ele>182.0</ele><time>2026-04-24T13:43:47.96Z</time></trkpt><trkpt lat="45.6108402" lon="9.5389478"><ele>182.0</ele><time>2026-04-24T13:43:49.961Z</time></trkpt><trkpt lat="45.6107475" lon="9.5389059"><ele>182.0</ele><time>2026-04-24T13:43:51.96Z</time></trkpt><trkpt lat="45.6106437" lon="9.5388571"><ele>182.0</ele><time>2026-04-24T13:43:53.961Z</time></trkpt><trkpt lat="45.6105322" lon="9.5388313"><ele>182.0</ele><time>2026-04-24T13:43:55.96Z</time></trkpt><trkpt lat="45.6104138" lon="9.5388147"><ele>182.0</ele><time>2026-04-24T13:43:57.961Z</time></trkpt><trkpt lat="45.6103004" lon="9.5387979"><ele>181.83333333333331</ele><time>2026-04-24T13:43:59.96Z</time></trkpt><trkpt lat="45.6101964" lon="9.5388017"><ele>181.66666666666666</ele><time>2026-04-24T13:44:01.96Z</time></trkpt><trkpt lat="45.6101313" lon="9.5387714"><ele>181.5</ele><time>2026-04-24T13:44:02.961Z</time></trkpt><trkpt lat="45.6100146" lon="9.5387309"><ele>181.33333333333334</ele><time>2026-04-24T13:44:04.961Z</time></trkpt><trkpt lat="45.6099521" lon="9.5387034"><ele>181.16666666666669</ele><time>2026-04-24T13:44:05.96Z</time></trkpt><trkpt lat="45.609887" lon="9.5386782"><ele>181.0</ele><time>2026-04-24T13:44:06.96Z</time></trkpt><trkpt lat="45.6098249" lon="9.538645"><ele>181.75</ele><time>2026-04-24T13:44:07.96Z</time></trkpt><trkpt lat="45.6097111" lon="9.5385707"><ele>182.5</ele><time>2026-04-24T13:44:09.96Z</time></trkpt><trkpt lat="45.6096115" lon="9.5385101"><ele>183.25</ele><time>2026-04-24T13:44:11.96Z</time></trkpt><trkpt lat="45.6095092" lon="9.5384391"><ele>184.0</ele><time>2026-04-24T13:44:13.961Z</time></trkpt><trkpt lat="45.6094102" lon="9.538374"><ele>184.2</ele><time>2026-04-24T13:44:15.96Z</time></trkpt><trkpt lat="45.6093072" lon="9.53832"><ele>184.39999999999998</ele><time>2026-04-24T13:44:17.961Z</time></trkpt><trkpt lat="45.6092536" lon="9.5382683"><ele>184.6</ele><time>2026-04-24T13:44:18.961Z</time></trkpt><trkpt lat="45.6091632" lon="9.5381622"><ele>184.8</ele><time>2026-04-24T13:44:20.96Z</time></trkpt><trkpt lat="45.6090835" lon="9.538067"><ele>185.0</ele><time>2026-04-24T13:44:22.96Z</time></trkpt><trkpt lat="45.6089743" lon="9.538001"><ele>185.0</ele><time>2026-04-24T13:44:24.96Z</time></trkpt><trkpt lat="45.60886" lon="9.5379565"><ele>185.0</ele><time>2026-04-24T13:44:26.961Z</time></trkpt><trkpt lat="45.6087977" lon="9.5379271"><ele>185.0</ele><time>2026-04-24T13:44:27.96Z</time></trkpt><trkpt lat="45.6087331" lon="9.5379137"><ele>185.0</ele><time>2026-04-24T13:44:28.961Z</time></trkpt><trkpt lat="45.6086353" lon="9.5377998"><ele>185.0</ele><time>2026-04-24T13:44:30.961Z</time></trkpt><trkpt lat="45.6085727" lon="9.537656"><ele>185.0</ele><time>2026-04-24T13:44:32.96Z</time></trkpt><trkpt lat="45.6085609" lon="9.5375614"><ele>185.0</ele><time>2026-04-24T13:44:33.96Z</time></trkpt><trkpt lat="45.6085611" lon="9.5374571"><ele>185.0</ele><time>2026-04-24T13:44:34.96Z</time></trkpt><trkpt lat="45.6085744" lon="9.5372775"><ele>185.0</ele><time>2026-04-24T13:44:36.961Z</time></trkpt><trkpt lat="45.6085892" lon="9.5371587"><ele>185.0</ele><time>2026-04-24T13:44:37.961Z</time></trkpt><trkpt lat="45.6086076" lon="9.5370478"><ele>185.0</ele><time>2026-04-24T13:44:38.96Z</time></trkpt><trkpt lat="45.6086303" lon="9.5369454"><ele>184.7142857142857</ele><time>2026-04-24T13:44:39.96Z</time></trkpt><trkpt lat="45.608652" lon="9.5368462"><ele>184.42857142857142</ele><time>2026-04-24T13:44:40.96Z</time></trkpt><trkpt lat="45.6086756" lon="9.5367488"><ele>184.14285714285714</ele><time>2026-04-24T13:44:41.96Z</time></trkpt><trkpt lat="45.6086963" lon="9.5366502"><ele>183.85714285714283</ele><time>2026-04-24T13:44:42.96Z</time></trkpt><trkpt lat="45.6087171" lon="9.5365587"><ele>183.57142857142858</ele><time>2026-04-24T13:44:43.96Z</time></trkpt><trkpt lat="45.6087421" lon="9.5364603"><ele>183.28571428571428</ele><time>2026-04-24T13:44:44.96Z</time></trkpt><trkpt lat="45.6087704" lon="9.5363702"><ele>183.0</ele><time>2026-04-24T13:44:45.96Z</time></trkpt><trkpt lat="45.6087972" lon="9.5362779"><ele>183.60000000000002</ele><time>2026-04-24T13:44:46.96Z</time></trkpt><trkpt lat="45.6088316" lon="9.5361148"><ele>184.20000000000002</ele><time>2026-04-24T13:44:48.96Z</time></trkpt><trkpt lat="45.6088693" lon="9.5359554"><ele>184.8</ele><time>2026-04-24T13:44:50.96Z</time></trkpt><trkpt lat="45.6089075" lon="9.5358182"><ele>185.4</ele><time>2026-04-24T13:44:52.96Z</time></trkpt><trkpt lat="45.6089476" lon="9.5357037"><ele>186.0</ele><time>2026-04-24T13:44:54.96Z</time></trkpt><trkpt lat="45.6089802" lon="9.5355823"><ele>186.0</ele><time>2026-04-24T13:44:56.96Z</time></trkpt><trkpt lat="45.6090091" lon="9.5354437"><ele>186.0</ele><time>2026-04-24T13:44:58.96Z</time></trkpt><trkpt lat="45.6090459" lon="9.5352858"><ele>186.0</ele><time>2026-04-24T13:45:00.96Z</time></trkpt><trkpt lat="45.6090833" lon="9.5351326"><ele>186.0</ele><time>2026-04-24T13:45:02.961Z</time></trkpt><trkpt lat="45.6091223" lon="9.5349816"><ele>186.0</ele><time>2026-04-24T13:45:04.961Z</time></trkpt><trkpt lat="45.6091683" lon="9.5348299"><ele>186.0</ele><time>2026-04-24T13:45:06.96Z</time></trkpt><trkpt lat="45.6092135" lon="9.5346735"><ele>186.0</ele><time>2026-04-24T13:45:08.961Z</time></trkpt><trkpt lat="45.6092401" lon="9.5345076"><ele>186.0</ele><time>2026-04-24T13:45:10.96Z</time></trkpt><trkpt lat="45.6092674" lon="9.534421"><ele>186.0</ele><time>2026-04-24T13:45:11.96Z</time></trkpt><trkpt lat="45.6093138" lon="9.5342519"><ele>186.0</ele><time>2026-04-24T13:45:13.96Z</time></trkpt><trkpt lat="45.6093493" lon="9.5340871"><ele>186.0</ele><time>2026-04-24T13:45:15.96Z</time></trkpt><trkpt lat="45.6093719" lon="9.5339983"><ele>186.0</ele><time>2026-04-24T13:45:16.961Z</time></trkpt><trkpt lat="45.6094056" lon="9.533851"><ele>186.0</ele><time>2026-04-24T13:45:18.96Z</time></trkpt><trkpt lat="45.6094352" lon="9.5337347"><ele>186.0</ele><time>2026-04-24T13:45:20.961Z</time></trkpt><trkpt lat="45.6094775" lon="9.5334547"><ele>186.20000000000002</ele><time>2026-04-24T13:46:38.96Z</time></trkpt><trkpt lat="45.6095108" lon="9.5333188"><ele>186.4</ele><time>2026-04-24T13:46:40.961Z</time></trkpt><trkpt lat="45.609551" lon="9.5331613"><ele>186.6</ele><time>2026-04-24T13:46:42.96Z</time></trkpt><trkpt lat="45.6095897" lon="9.5330027"><ele>186.8</ele><time>2026-04-24T13:46:44.96Z</time></trkpt><trkpt lat="45.6096365" lon="9.5328566"><ele>187.0</ele><time>2026-04-24T13:46:46.96Z</time></trkpt><trkpt lat="45.609677" lon="9.5327111"><ele>187.0</ele><time>2026-04-24T13:46:48.961Z</time></trkpt><trkpt lat="45.6097014" lon="9.5326208"><ele>187.0</ele><time>2026-04-24T13:46:49.96Z</time></trkpt><trkpt lat="45.6097437" lon="9.532466"><ele>187.0</ele><time>2026-04-24T13:46:51.96Z</time></trkpt><trkpt lat="45.6097666" lon="9.532381"><ele>187.0</ele><time>2026-04-24T13:46:52.96Z</time></trkpt><trkpt lat="45.6097989" lon="9.5322238"><ele>187.0</ele><time>2026-04-24T13:46:54.96Z</time></trkpt><trkpt lat="45.6098304" lon="9.5320476"><ele>187.14285714285714</ele><time>2026-04-24T13:46:56.96Z</time></trkpt><trkpt lat="45.609849" lon="9.5319569"><ele>187.2857142857143</ele><time>2026-04-24T13:46:57.96Z</time></trkpt><trkpt lat="45.6098695" lon="9.5318693"><ele>187.42857142857144</ele><time>2026-04-24T13:46:58.96Z</time></trkpt><trkpt lat="45.609886" lon="9.5317796"><ele>187.57142857142856</ele><time>2026-04-24T13:46:59.96Z</time></trkpt><trkpt lat="45.6099009" lon="9.5316911"><ele>187.71428571428572</ele><time>2026-04-24T13:47:00.961Z</time></trkpt><trkpt lat="45.6099165" lon="9.5316015"><ele>187.85714285714286</ele><time>2026-04-24T13:47:01.961Z</time></trkpt><trkpt lat="45.6099308" lon="9.5314491"><ele>188.0</ele><time>2026-04-24T13:47:03.96Z</time></trkpt><trkpt lat="45.6099468" lon="9.5313578"><ele>188.0</ele><time>2026-04-24T13:47:04.961Z</time></trkpt><trkpt lat="45.6099563" lon="9.5312676"><ele>188.0</ele><time>2026-04-24T13:47:05.96Z</time></trkpt><trkpt lat="45.6099713" lon="9.5311726"><ele>188.0</ele><time>2026-04-24T13:47:06.96Z</time></trkpt><trkpt lat="45.6099948" lon="9.5309898"><ele>188.0</ele><time>2026-04-24T13:47:08.961Z</time></trkpt><trkpt lat="45.6100147" lon="9.5308172"><ele>188.0</ele><time>2026-04-24T13:47:10.96Z</time></trkpt><trkpt lat="45.6100301" lon="9.5307272"><ele>188.0</ele><time>2026-04-24T13:47:11.96Z</time></trkpt><trkpt lat="45.610061" lon="9.530557"><ele>187.8</ele><time>2026-04-24T13:47:13.96Z</time></trkpt><trkpt lat="45.610081" lon="9.530408"><ele>187.60000000000002</ele><time>2026-04-24T13:47:15.96Z</time></trkpt><trkpt lat="45.6100997" lon="9.530266"><ele>187.39999999999998</ele><time>2026-04-24T13:47:17.96Z</time></trkpt><trkpt lat="45.6101212" lon="9.5301243"><ele>187.2</ele><time>2026-04-24T13:47:19.96Z</time></trkpt><trkpt lat="45.610143" lon="9.5299684"><ele>187.0</ele><time>2026-04-24T13:47:21.96Z</time></trkpt><trkpt lat="45.6101602" lon="9.5297981"><ele>186.8</ele><time>2026-04-24T13:47:23.96Z</time></trkpt><trkpt lat="45.6101836" lon="9.5296314"><ele>186.6</ele><time>2026-04-24T13:47:25.96Z</time></trkpt><trkpt lat="45.6101985" lon="9.5294649"><ele>186.4</ele><time>2026-04-24T13:47:27.961Z</time></trkpt><trkpt lat="45.6102139" lon="9.5293692"><ele>186.20000000000002</ele><time>2026-04-24T13:47:28.96Z</time></trkpt><trkpt lat="45.6102316" lon="9.5292565"><ele>186.0</ele><time>2026-04-24T13:47:29.96Z</time></trkpt><trkpt lat="45.6102469" lon="9.5290967"><ele>186.0</ele><time>2026-04-24T13:47:31.96Z</time></trkpt><trkpt lat="45.61028" lon="9.5289215"><ele>186.0</ele><time>2026-04-24T13:47:33.96Z</time></trkpt><trkpt lat="45.6102882" lon="9.5288211"><ele>186.0</ele><time>2026-04-24T13:47:34.961Z</time></trkpt><trkpt lat="45.6103146" lon="9.5286522"><ele>186.0</ele><time>2026-04-24T13:47:36.96Z</time></trkpt><trkpt lat="45.6103292" lon="9.5285615"><ele>186.0</ele><time>2026-04-24T13:47:37.96Z</time></trkpt><trkpt lat="45.6103406" lon="9.5284613"><ele>186.0</ele><time>2026-04-24T13:47:38.961Z</time></trkpt><trkpt lat="45.6103542" lon="9.5283672"><ele>186.0</ele><time>2026-04-24T13:47:39.96Z</time></trkpt><trkpt lat="45.6103667" lon="9.5282751"><ele>186.0</ele><time>2026-04-24T13:47:40.96Z</time></trkpt><trkpt lat="45.6103829" lon="9.5281845"><ele>186.0</ele><time>2026-04-24T13:47:41.96Z</time></trkpt><trkpt lat="45.6103974" lon="9.528096"><ele>186.0</ele><time>2026-04-24T13:47:42.961Z</time></trkpt><trkpt lat="45.6104246" lon="9.5279446"><ele>186.0</ele><time>2026-04-24T13:47:44.961Z</time></trkpt><trkpt lat="45.6104426" lon="9.5278142"><ele>186.16666666666666</ele><time>2026-04-24T13:47:46.96Z</time></trkpt><trkpt lat="45.6104601" lon="9.5276745"><ele>186.33333333333334</ele><time>2026-04-24T13:47:48.96Z</time></trkpt><trkpt lat="45.6104776" lon="9.527537"><ele>186.5</ele><time>2026-04-24T13:47:50.96Z</time></trkpt><trkpt lat="45.6104952" lon="9.5273972"><ele>186.66666666666669</ele><time>2026-04-24T13:47:52.961Z</time></trkpt><trkpt lat="45.6105007" lon="9.527286"><ele>186.83333333333334</ele><time>2026-04-24T13:47:54.961Z</time></trkpt><trkpt lat="45.6105218" lon="9.5271995"><ele>187.0</ele><time>2026-04-24T13:47:55.961Z</time></trkpt><trkpt lat="45.6105347" lon="9.5271066"><ele>186.8</ele><time>2026-04-24T13:47:56.96Z</time></trkpt><trkpt lat="45.6105531" lon="9.5269505"><ele>186.6</ele><time>2026-04-24T13:47:58.96Z</time></trkpt><trkpt lat="45.6105792" lon="9.5267798"><ele>186.4</ele><time>2026-04-24T13:48:00.96Z</time></trkpt><trkpt lat="45.6106071" lon="9.526682"><ele>186.20000000000002</ele><time>2026-04-24T13:48:01.961Z</time></trkpt><trkpt lat="45.6106164" lon="9.5265899"><ele>186.0</ele><time>2026-04-24T13:48:02.96Z</time></trkpt><trkpt lat="45.6106443" lon="9.526415"><ele>186.0</ele><time>2026-04-24T13:48:04.961Z</time></trkpt><trkpt lat="45.6106533" lon="9.5263189"><ele>186.0</ele><time>2026-04-24T13:48:05.96Z</time></trkpt><trkpt lat="45.6106636" lon="9.5262218"><ele>186.0</ele><time>2026-04-24T13:48:06.96Z</time></trkpt><trkpt lat="45.6106822" lon="9.5260547"><ele>186.0</ele><time>2026-04-24T13:48:08.961Z</time></trkpt><trkpt lat="45.6107" lon="9.5259444"><ele>186.0</ele><time>2026-04-24T13:48:09.96Z</time></trkpt><trkpt lat="45.6107062" lon="9.525772"><ele>185.42857142857144</ele><time>2026-04-24T13:48:11.96Z</time></trkpt><trkpt lat="45.6106957" lon="9.5256816"><ele>184.85714285714286</ele><time>2026-04-24T13:48:12.96Z</time></trkpt><trkpt lat="45.6106786" lon="9.5255946"><ele>184.28571428571428</ele><time>2026-04-24T13:48:13.96Z</time></trkpt><trkpt lat="45.6106571" lon="9.5255018"><ele>183.71428571428572</ele><time>2026-04-24T13:48:14.961Z</time></trkpt><trkpt lat="45.6106343" lon="9.5254051"><ele>183.14285714285714</ele><time>2026-04-24T13:48:15.96Z</time></trkpt><trkpt lat="45.6106025" lon="9.5253144"><ele>182.57142857142858</ele><time>2026-04-24T13:48:16.961Z</time></trkpt><trkpt lat="45.6105715" lon="9.5252187"><ele>182.0</ele><time>2026-04-24T13:48:17.961Z</time></trkpt><trkpt lat="45.6105389" lon="9.525119"><ele>180.0</ele><time>2026-04-24T13:48:18.96Z</time></trkpt><trkpt lat="45.6105135" lon="9.5250093"><ele>178.0</ele><time>2026-04-24T13:48:19.96Z</time></trkpt><trkpt lat="45.6104859" lon="9.5249092"><ele>176.0</ele><time>2026-04-24T13:48:20.96Z</time></trkpt><trkpt lat="45.6104571" lon="9.5248023"><ele>174.0</ele><time>2026-04-24T13:48:21.96Z</time></trkpt><trkpt lat="45.6104241" lon="9.5246904"><ele>172.0</ele><time>2026-04-24T13:48:22.961Z</time></trkpt><trkpt lat="45.6103992" lon="9.5245898"><ele>170.0</ele><time>2026-04-24T13:48:23.96Z</time></trkpt><trkpt lat="45.6103697" lon="9.5244768"><ele>167.83333333333331</ele><time>2026-04-24T13:48:24.96Z</time></trkpt><trkpt lat="45.6103408" lon="9.5243733"><ele>165.66666666666666</ele><time>2026-04-24T13:48:25.96Z</time></trkpt><trkpt lat="45.6103121" lon="9.5242627"><ele>163.5</ele><time>2026-04-24T13:48:26.96Z</time></trkpt><trkpt lat="45.6102832" lon="9.5241614"><ele>161.33333333333334</ele><time>2026-04-24T13:48:27.96Z</time></trkpt><trkpt lat="45.6102546" lon="9.5240543"><ele>159.16666666666669</ele><time>2026-04-24T13:48:28.961Z</time></trkpt><trkpt lat="45.6102245" lon="9.5239596"><ele>157.0</ele><time>2026-04-24T13:48:29.96Z</time></trkpt><trkpt lat="45.6101938" lon="9.5238641"><ele>156.99999999999997</ele><time>2026-04-24T13:48:30.96Z</time></trkpt><trkpt lat="45.6101613" lon="9.523762"><ele>157.0</ele><time>2026-04-24T13:48:31.961Z</time></trkpt><trkpt lat="45.6101295" lon="9.5236594"><ele>157.0</ele><time>2026-04-24T13:48:32.961Z</time></trkpt><trkpt lat="45.6100991" lon="9.5235726"><ele>157.0</ele><time>2026-04-24T13:48:33.96Z</time></trkpt><trkpt lat="45.6100633" lon="9.5234864"><ele>157.0</ele><time>2026-04-24T13:48:34.961Z</time></trkpt><trkpt lat="45.6100195" lon="9.5234131"><ele>156.99999999999997</ele><time>2026-04-24T13:48:35.96Z</time></trkpt><trkpt lat="45.6099678" lon="9.5233461"><ele>157.0</ele><time>2026-04-24T13:48:36.96Z</time></trkpt><trkpt lat="45.609914" lon="9.5232927"><ele>160.2</ele><time>2026-04-24T13:48:37.961Z</time></trkpt><trkpt lat="45.6098267" lon="9.5232446"><ele>163.39999999999998</ele><time>2026-04-24T13:48:39.96Z</time></trkpt><trkpt lat="45.6097541" lon="9.5231968"><ele>166.60000000000002</ele><time>2026-04-24T13:48:41.96Z</time></trkpt><trkpt lat="45.6096754" lon="9.5231177"><ele>169.8</ele><time>2026-04-24T13:48:43.961Z</time></trkpt><trkpt lat="45.6095899" lon="9.5230596"><ele>173.0</ele><time>2026-04-24T13:48:45.96Z</time></trkpt><trkpt lat="45.6095187" lon="9.5229838"><ele>175.5</ele><time>2026-04-24T13:48:47.96Z</time></trkpt><trkpt lat="45.6094327" lon="9.5229035"><ele>178.0</ele><time>2026-04-24T13:48:49.961Z</time></trkpt><trkpt lat="45.6093457" lon="9.5228511"><ele>180.5</ele><time>2026-04-24T13:48:51.96Z</time></trkpt><trkpt lat="45.6092609" lon="9.5227773"><ele>183.0</ele><time>2026-04-24T13:48:53.96Z</time></trkpt><trkpt lat="45.6091888" lon="9.5227501"><ele>185.5</ele><time>2026-04-24T13:48:56.96Z</time></trkpt><trkpt lat="45.6091669" lon="9.5226632"><ele>188.0</ele><time>2026-04-24T13:48:58.961Z</time></trkpt><trkpt lat="45.6091977" lon="9.5225771"><ele>188.0</ele><time>2026-04-24T13:49:00.961Z</time></trkpt><trkpt lat="45.609228" lon="9.5224448"><ele>188.0</ele><time>2026-04-24T13:49:02.961Z</time></trkpt><trkpt lat="45.6092804" lon="9.5222844"><ele>188.0</ele><time>2026-04-24T13:49:04.961Z</time></trkpt><trkpt lat="45.6093159" lon="9.5221554"><ele>188.0</ele><time>2026-04-24T13:49:06.96Z</time></trkpt><trkpt lat="45.6093444" lon="9.5220067"><ele>188.0</ele><time>2026-04-24T13:49:09.96Z</time></trkpt><trkpt lat="45.6093734" lon="9.5218942"><ele>188.0</ele><time>2026-04-24T13:49:11.96Z</time></trkpt><trkpt lat="45.6094635" lon="9.5217915"><ele>188.0</ele><time>2026-04-24T13:49:13.96Z</time></trkpt><trkpt lat="45.6095582" lon="9.5217658"><ele>188.0</ele><time>2026-04-24T13:49:15.96Z</time></trkpt><trkpt lat="45.6096232" lon="9.5217786"><ele>188.0</ele><time>2026-04-24T13:49:16.96Z</time></trkpt><trkpt lat="45.60971" lon="9.5218071"><ele>188.0</ele><time>2026-04-24T13:49:18.96Z</time></trkpt><trkpt lat="45.6098295" lon="9.5218515"><ele>187.60000000000002</ele><time>2026-04-24T13:49:20.96Z</time></trkpt><trkpt lat="45.6098895" lon="9.5218804"><ele>187.20000000000002</ele><time>2026-04-24T13:49:21.96Z</time></trkpt><trkpt lat="45.6100317" lon="9.5218884"><ele>186.8</ele><time>2026-04-24T13:49:23.96Z</time></trkpt><trkpt lat="45.6101451" lon="9.5218622"><ele>186.4</ele><time>2026-04-24T13:49:25.96Z</time></trkpt><trkpt lat="45.6102156" lon="9.5218487"><ele>186.0</ele><time>2026-04-24T13:49:26.96Z</time></trkpt><trkpt lat="45.6102945" lon="9.5219536"><ele>184.16666666666666</ele><time>2026-04-24T13:49:27.96Z</time></trkpt><trkpt lat="45.6103676" lon="9.5219966"><ele>182.33333333333334</ele><time>2026-04-24T13:49:28.96Z</time></trkpt><trkpt lat="45.6104318" lon="9.5220376"><ele>180.5</ele><time>2026-04-24T13:49:29.96Z</time></trkpt><trkpt lat="45.6105467" lon="9.5220342"><ele>178.66666666666669</ele><time>2026-04-24T13:49:31.961Z</time></trkpt><trkpt lat="45.6106196" lon="9.5219787"><ele>176.83333333333334</ele><time>2026-04-24T13:49:33.96Z</time></trkpt><trkpt lat="45.6106451" lon="9.5218686"><ele>175.0</ele><time>2026-04-24T13:49:35.96Z</time></trkpt><trkpt lat="45.6106912" lon="9.5217167"><ele>175.0</ele><time>2026-04-24T13:49:37.96Z</time></trkpt><trkpt lat="45.610722" lon="9.5215371"><ele>175.0</ele><time>2026-04-24T13:49:39.96Z</time></trkpt><trkpt lat="45.6107666" lon="9.5213952"><ele>175.0</ele><time>2026-04-24T13:49:41.961Z</time></trkpt><trkpt lat="45.6108083" lon="9.5212859"><ele>175.0</ele><time>2026-04-24T13:49:43.96Z</time></trkpt><trkpt lat="45.610909" lon="9.5211997"><ele>175.0</ele><time>2026-04-24T13:49:45.96Z</time></trkpt><trkpt lat="45.6109819" lon="9.521162"><ele>175.33333333333334</ele><time>2026-04-24T13:49:46.96Z</time></trkpt><trkpt lat="45.6110519" lon="9.5211112"><ele>175.66666666666669</ele><time>2026-04-24T13:49:47.961Z</time></trkpt><trkpt lat="45.6111211" lon="9.5210608"><ele>176.0</ele><time>2026-04-24T13:49:48.96Z</time></trkpt><trkpt lat="45.6111686" lon="9.5209839"><ele>176.33333333333334</ele><time>2026-04-24T13:49:49.96Z</time></trkpt><trkpt lat="45.6112263" lon="9.5209111"><ele>176.66666666666666</ele><time>2026-04-24T13:49:50.96Z</time></trkpt><trkpt lat="45.6113031" lon="9.5208606"><ele>177.0</ele><time>2026-04-24T13:49:51.96Z</time></trkpt><trkpt lat="45.6113556" lon="9.5207954"><ele>174.16666666666666</ele><time>2026-04-24T13:49:52.96Z</time></trkpt><trkpt lat="45.6114082" lon="9.5206886"><ele>171.33333333333334</ele><time>2026-04-24T13:49:53.961Z</time></trkpt><trkpt lat="45.6114531" lon="9.5205845"><ele>168.5</ele><time>2026-04-24T13:49:54.96Z</time></trkpt><trkpt lat="45.6115282" lon="9.5204987"><ele>165.66666666666669</ele><time>2026-04-24T13:49:55.96Z</time></trkpt><trkpt lat="45.6115617" lon="9.5203978"><ele>162.83333333333334</ele><time>2026-04-24T13:49:56.96Z</time></trkpt><trkpt lat="45.6115981" lon="9.5203001"><ele>160.0</ele><time>2026-04-24T13:49:57.961Z</time></trkpt><trkpt lat="45.6116611" lon="9.5202133"><ele>160.0</ele><time>2026-04-24T13:49:58.961Z</time></trkpt><trkpt lat="45.611721" lon="9.5201379"><ele>160.0</ele><time>2026-04-24T13:49:59.96Z</time></trkpt><trkpt lat="45.6117623" lon="9.5200538"><ele>160.0</ele><time>2026-04-24T13:50:00.96Z</time></trkpt><trkpt lat="45.6118022" lon="9.5199774"><ele>160.0</ele><time>2026-04-24T13:50:01.961Z</time></trkpt><trkpt lat="45.611836" lon="9.5198987"><ele>160.0</ele><time>2026-04-24T13:50:02.961Z</time></trkpt><trkpt lat="45.6118675" lon="9.5197984"><ele>160.0</ele><time>2026-04-24T13:50:03.96Z</time></trkpt><trkpt lat="45.6118955" lon="9.5197169"><ele>160.0</ele><time>2026-04-24T13:50:04.96Z</time></trkpt><trkpt lat="45.6119378" lon="9.5195515"><ele>161.33333333333334</ele><time>2026-04-24T13:50:06.961Z</time></trkpt><trkpt lat="45.6119448" lon="9.5194516"><ele>162.66666666666669</ele><time>2026-04-24T13:50:07.96Z</time></trkpt><trkpt lat="45.6119803" lon="9.5192794"><ele>164.0</ele><time>2026-04-24T13:50:09.961Z</time></trkpt><trkpt lat="45.6120045" lon="9.5191233"><ele>165.33333333333334</ele><time>2026-04-24T13:50:11.96Z</time></trkpt><trkpt lat="45.6120163" lon="9.5190252"><ele>166.66666666666666</ele><time>2026-04-24T13:50:12.96Z</time></trkpt><trkpt lat="45.6120293" lon="9.5189347"><ele>168.0</ele><time>2026-04-24T13:50:13.96Z</time></trkpt><trkpt lat="45.6120542" lon="9.5187717"><ele>164.20000000000002</ele><time>2026-04-24T13:50:15.96Z</time></trkpt><trkpt lat="45.6121096" lon="9.5186143"><ele>160.4</ele><time>2026-04-24T13:50:17.96Z</time></trkpt><trkpt lat="45.612144" lon="9.5184796"><ele>156.60000000000002</ele><time>2026-04-24T13:50:19.96Z</time></trkpt><trkpt lat="45.6121644" lon="9.5183709"><ele>152.8</ele><time>2026-04-24T13:50:20.961Z</time></trkpt><trkpt lat="45.6122095" lon="9.5181792"><ele>149.0</ele><time>2026-04-24T13:50:22.961Z</time></trkpt><trkpt lat="45.6122459" lon="9.5180889"><ele>149.0</ele><time>2026-04-24T13:50:23.96Z</time></trkpt><trkpt lat="45.6122704" lon="9.5179937"><ele>149.0</ele><time>2026-04-24T13:50:24.96Z</time></trkpt><trkpt lat="45.6122955" lon="9.517904"><ele>149.0</ele><time>2026-04-24T13:50:25.96Z</time></trkpt><trkpt lat="45.6123531" lon="9.5177564"><ele>149.0</ele><time>2026-04-24T13:50:27.961Z</time></trkpt><trkpt lat="45.6123921" lon="9.5176804"><ele>149.0</ele><time>2026-04-24T13:50:28.961Z</time></trkpt><trkpt lat="45.6124656" lon="9.517545"><ele>149.0</ele><time>2026-04-24T13:50:30.96Z</time></trkpt><trkpt lat="45.612537" lon="9.517457"><ele>149.83333333333331</ele><time>2026-04-24T13:50:32.96Z</time></trkpt><trkpt lat="45.6126072" lon="9.517373"><ele>150.66666666666666</ele><time>2026-04-24T13:50:34.96Z</time></trkpt><trkpt lat="45.6126572" lon="9.5173125"><ele>151.5</ele><time>2026-04-24T13:50:35.96Z</time></trkpt><trkpt lat="45.612753" lon="9.5172111"><ele>152.33333333333334</ele><time>2026-04-24T13:50:37.96Z</time></trkpt><trkpt lat="45.6128007" lon="9.5171484"><ele>153.16666666666669</ele><time>2026-04-24T13:50:38.96Z</time></trkpt><trkpt lat="45.6128897" lon="9.5170659"><ele>154.0</ele><time>2026-04-24T13:50:40.961Z</time></trkpt><trkpt lat="45.6130048" lon="9.5169511"><ele>156.5</ele><time>2026-04-24T13:50:42.96Z</time></trkpt><trkpt lat="45.6131101" lon="9.5169074"><ele>159.0</ele><time>2026-04-24T13:50:44.96Z</time></trkpt><trkpt lat="45.6131943" lon="9.5167813"><ele>161.5</ele><time>2026-04-24T13:50:46.96Z</time></trkpt><trkpt lat="45.6132948" lon="9.5166974"><ele>164.0</ele><time>2026-04-24T13:50:48.961Z</time></trkpt><trkpt lat="45.6133984" lon="9.5166369"><ele>164.0</ele><time>2026-04-24T13:50:50.96Z</time></trkpt><trkpt lat="45.6135125" lon="9.5165525"><ele>164.0</ele><time>2026-04-24T13:50:52.96Z</time></trkpt><trkpt lat="45.6135785" lon="9.5165054"><ele>164.0</ele><time>2026-04-24T13:50:53.96Z</time></trkpt><trkpt lat="45.6136504" lon="9.5164497"><ele>164.0</ele><time>2026-04-24T13:50:54.96Z</time></trkpt><trkpt lat="45.6137802" lon="9.5164"><ele>164.0</ele><time>2026-04-24T13:50:56.96Z</time></trkpt><trkpt lat="45.6138586" lon="9.5163362"><ele>165.16666666666666</ele><time>2026-04-24T13:50:57.96Z</time></trkpt><trkpt lat="45.6139194" lon="9.516288"><ele>166.33333333333331</ele><time>2026-04-24T13:50:58.96Z</time></trkpt><trkpt lat="45.6139948" lon="9.5162592"><ele>167.5</ele><time>2026-04-24T13:50:59.96Z</time></trkpt><trkpt lat="45.6140627" lon="9.5162332"><ele>168.66666666666666</ele><time>2026-04-24T13:51:00.961Z</time></trkpt><trkpt lat="45.6141952" lon="9.5161529"><ele>169.83333333333334</ele><time>2026-04-24T13:51:02.96Z</time></trkpt><trkpt lat="45.614258" lon="9.5161316"><ele>171.0</ele><time>2026-04-24T13:51:03.961Z</time></trkpt><trkpt lat="45.6143298" lon="9.5160729"><ele>171.0</ele><time>2026-04-24T13:51:04.96Z</time></trkpt><trkpt lat="45.614411" lon="9.5160809"><ele>171.0</ele><time>2026-04-24T13:51:05.96Z</time></trkpt><trkpt lat="45.6144727" lon="9.516053"><ele>171.0</ele><time>2026-04-24T13:51:06.96Z</time></trkpt><trkpt lat="45.6145365" lon="9.5160364"><ele>171.0</ele><time>2026-04-24T13:51:07.96Z</time></trkpt><trkpt lat="45.6145936" lon="9.5159868"><ele>171.0</ele><time>2026-04-24T13:51:08.961Z</time></trkpt><trkpt lat="45.6147135" lon="9.5159644"><ele>171.0</ele><time>2026-04-24T13:51:10.96Z</time></trkpt><trkpt lat="45.6148329" lon="9.5159326"><ele>168.83333333333334</ele><time>2026-04-24T13:51:12.96Z</time></trkpt><trkpt lat="45.6149395" lon="9.5159366"><ele>166.66666666666666</ele><time>2026-04-24T13:51:14.961Z</time></trkpt><trkpt lat="45.6150081" lon="9.5158724"><ele>164.5</ele><time>2026-04-24T13:51:16.961Z</time></trkpt><trkpt lat="45.6150698" lon="9.5157751"><ele>162.33333333333331</ele><time>2026-04-24T13:51:19.961Z</time></trkpt><trkpt lat="45.6150861" lon="9.5156668"><ele>160.16666666666666</ele><time>2026-04-24T13:51:22.96Z</time></trkpt><trkpt lat="45.6151026" lon="9.5155796"><ele>158.0</ele><time>2026-04-24T13:51:26.96Z</time></trkpt><trkpt lat="45.6151134" lon="9.5154877"><ele>160.14285714285717</ele><time>2026-04-24T13:51:29.961Z</time></trkpt><trkpt lat="45.6151213" lon="9.5153908"><ele>162.28571428571428</ele><time>2026-04-24T13:51:33.961Z</time></trkpt><trkpt lat="45.6151372" lon="9.5152907"><ele>164.42857142857144</ele><time>2026-04-24T13:51:36.961Z</time></trkpt><trkpt lat="45.6151499" lon="9.5151782"><ele>166.57142857142858</ele><time>2026-04-24T13:51:41.96Z</time></trkpt><trkpt lat="45.6151542" lon="9.5150688"><ele>168.71428571428572</ele><time>2026-04-24T13:51:46.96Z</time></trkpt><trkpt lat="45.6151759" lon="9.5149814"><ele>170.85714285714286</ele><time>2026-04-24T13:51:49.96Z</time></trkpt><trkpt lat="45.6151884" lon="9.5148759"><ele>173.0</ele><time>2026-04-24T13:51:53.96Z</time></trkpt><trkpt lat="45.6151831" lon="9.5147778"><ele>173.0</ele><time>2026-04-24T13:51:57.961Z</time></trkpt><trkpt lat="45.6151839" lon="9.5146618"><ele>173.0</ele><time>2026-04-24T13:52:01.96Z</time></trkpt><trkpt lat="45.6151965" lon="9.5145633"><ele>173.0</ele><time>2026-04-24T13:52:06.96Z</time></trkpt><trkpt lat="45.6152296" lon="9.5144673"><ele>173.0</ele><time>2026-04-24T13:52:13.323Z</time></trkpt><trkpt lat="45.615244" lon="9.5143652"><ele>173.0</ele><time>2026-04-24T13:52:17.956Z</time></trkpt><trkpt lat="45.6152375" lon="9.5142477"><ele>173.0</ele><time>2026-04-24T13:52:21.959Z</time></trkpt><trkpt lat="45.6152379" lon="9.5141559"><ele>173.0</ele><time>2026-04-24T13:52:24.959Z</time></trkpt><trkpt lat="45.6152446" lon="9.5140576"><ele>173.16666666666666</ele><time>2026-04-24T13:52:29.96Z</time></trkpt><trkpt lat="45.6152207" lon="9.5139564"><ele>173.33333333333331</ele><time>2026-04-24T13:52:32.959Z</time></trkpt><trkpt lat="45.61523" lon="9.513867"><ele>173.5</ele><time>2026-04-24T13:52:38.959Z</time></trkpt><trkpt lat="45.6152453" lon="9.5137788"><ele>173.66666666666666</ele><time>2026-04-24T13:52:42.959Z</time></trkpt><trkpt lat="45.6152658" lon="9.5136476"><ele>173.83333333333334</ele><time>2026-04-24T13:52:45.959Z</time></trkpt><trkpt lat="45.615308" lon="9.5135515"><ele>174.0</ele><time>2026-04-24T13:52:48.959Z</time></trkpt><trkpt lat="45.6153442" lon="9.5134493"><ele>174.0</ele><time>2026-04-24T13:52:51.959Z</time></trkpt><trkpt lat="45.6153509" lon="9.5133427"><ele>174.0</ele><time>2026-04-24T13:52:54.959Z</time></trkpt><trkpt lat="45.6152799" lon="9.5133269"><ele>174.0</ele><time>2026-04-24T13:52:59.959Z</time></trkpt><trkpt lat="45.6152528" lon="9.5134096"><ele>174.0</ele><time>2026-04-24T13:53:04.959Z</time></trkpt><trkpt lat="45.6152328" lon="9.5135139"><ele>174.0</ele><time>2026-04-24T13:53:08.959Z</time></trkpt><trkpt lat="45.6151988" lon="9.5136059"><ele>174.0</ele><time>2026-04-24T13:53:12.959Z</time></trkpt><trkpt lat="45.6151531" lon="9.5137144"><ele>174.0</ele><time>2026-04-24T13:53:16.959Z</time></trkpt><trkpt lat="45.6151044" lon="9.5138064"><ele>175.66666666666666</ele><time>2026-04-24T13:53:19.96Z</time></trkpt><trkpt lat="45.6151025" lon="9.513947"><ele>177.33333333333334</ele><time>2026-04-24T13:53:22.959Z</time></trkpt><trkpt lat="45.6151058" lon="9.514076"><ele>179.0</ele><time>2026-04-24T13:53:25.96Z</time></trkpt><trkpt lat="45.6150761" lon="9.5141567"><ele>180.66666666666669</ele><time>2026-04-24T13:53:27.959Z</time></trkpt><trkpt lat="45.6150431" lon="9.5142397"><ele>182.33333333333334</ele><time>2026-04-24T13:53:29.959Z</time></trkpt><trkpt lat="45.6150172" lon="9.5143384"><ele>184.0</ele><time>2026-04-24T13:53:32.959Z</time></trkpt><trkpt lat="45.6149783" lon="9.5144517"><ele>184.0</ele><time>2026-04-24T13:53:35.959Z</time></trkpt><trkpt lat="45.6149423" lon="9.5145311"><ele>184.0</ele><time>2026-04-24T13:53:37.96Z</time></trkpt><trkpt lat="45.6148916" lon="9.5146186"><ele>184.0</ele><time>2026-04-24T13:53:39.959Z</time></trkpt><trkpt lat="45.6148645" lon="9.5147292"><ele>184.0</ele><time>2026-04-24T13:53:42.96Z</time></trkpt><trkpt lat="45.6148472" lon="9.5148166"><ele>184.0</ele><time>2026-04-24T13:53:44.959Z</time></trkpt><trkpt lat="45.614802" lon="9.5148846"><ele>184.0</ele><time>2026-04-24T13:53:46.959Z</time></trkpt><trkpt lat="45.6147436" lon="9.5149408"><ele>184.0</ele><time>2026-04-24T13:53:48.959Z</time></trkpt><trkpt lat="45.6146701" lon="9.5150176"><ele>184.5</ele><time>2026-04-24T13:53:51.96Z</time></trkpt><trkpt lat="45.6145898" lon="9.5150578"><ele>185.0</ele><time>2026-04-24T13:53:53.959Z</time></trkpt><trkpt lat="45.6144952" lon="9.5150841"><ele>185.5</ele><time>2026-04-24T13:53:55.959Z</time></trkpt><trkpt lat="45.6144026" lon="9.5150943"><ele>186.0</ele><time>2026-04-24T13:53:57.959Z</time></trkpt><trkpt lat="45.6144171" lon="9.5149929"><ele>186.5</ele><time>2026-04-24T13:54:04.959Z</time></trkpt><trkpt lat="45.6144913" lon="9.5149482"><ele>187.0</ele><time>2026-04-24T13:54:06.96Z</time></trkpt><trkpt lat="45.6145606" lon="9.5148971"><ele>186.5</ele><time>2026-04-24T13:54:08.96Z</time></trkpt><trkpt lat="45.6146239" lon="9.5148479"><ele>186.0</ele><time>2026-04-24T13:54:10.959Z</time></trkpt><trkpt lat="45.6146988" lon="9.5147705"><ele>185.5</ele><time>2026-04-24T13:54:12.959Z</time></trkpt><trkpt lat="45.6147507" lon="9.5146819"><ele>185.0</ele><time>2026-04-24T13:54:14.959Z</time></trkpt><trkpt lat="45.6147988" lon="9.5145824"><ele>184.5</ele><time>2026-04-24T13:54:16.959Z</time></trkpt><trkpt lat="45.6148374" lon="9.5144634"><ele>184.0</ele><time>2026-04-24T13:54:18.959Z</time></trkpt><trkpt lat="45.6148838" lon="9.5143259"><ele>184.0</ele><time>2026-04-24T13:54:20.959Z</time></trkpt><trkpt lat="45.614917" lon="9.5141959"><ele>184.0</ele><time>2026-04-24T13:54:22.959Z</time></trkpt><trkpt lat="45.6149422" lon="9.5140712"><ele>184.0</ele><time>2026-04-24T13:54:24.96Z</time></trkpt><trkpt lat="45.6149507" lon="9.5139623"><ele>184.0</ele><time>2026-04-24T13:54:26.959Z</time></trkpt><trkpt lat="45.6149461" lon="9.5138696"><ele>184.0</ele><time>2026-04-24T13:54:28.959Z</time></trkpt><trkpt lat="45.6149509" lon="9.5137412"><ele>184.0</ele><time>2026-04-24T13:54:30.959Z</time></trkpt><trkpt lat="45.6149624" lon="9.5136045"><ele>184.79999999999998</ele><time>2026-04-24T13:54:32.959Z</time></trkpt><trkpt lat="45.6149796" lon="9.5134735"><ele>185.6</ele><time>2026-04-24T13:54:34.959Z</time></trkpt><trkpt lat="45.6150031" lon="9.5133472"><ele>186.4</ele><time>2026-04-24T13:54:36.959Z</time></trkpt><trkpt lat="45.6150347" lon="9.5131943"><ele>187.2</ele><time>2026-04-24T13:54:38.96Z</time></trkpt><trkpt lat="45.615058" lon="9.5130526"><ele>188.0</ele><time>2026-04-24T13:54:40.959Z</time></trkpt><trkpt lat="45.6150794" lon="9.5129146"><ele>188.0</ele><time>2026-04-24T13:54:42.959Z</time></trkpt><trkpt lat="45.6151045" lon="9.5127769"><ele>188.0</ele><time>2026-04-24T13:54:44.96Z</time></trkpt><trkpt lat="45.6151261" lon="9.512636"><ele>188.0</ele><time>2026-04-24T13:54:46.959Z</time></trkpt><trkpt lat="45.6151485" lon="9.5124948"><ele>188.0</ele><time>2026-04-24T13:54:48.959Z</time></trkpt><trkpt lat="45.6151653" lon="9.5123562"><ele>188.0</ele><time>2026-04-24T13:54:50.959Z</time></trkpt><trkpt lat="45.6151878" lon="9.5121955"><ele>188.4</ele><time>2026-04-24T13:54:52.959Z</time></trkpt><trkpt lat="45.6152263" lon="9.5120269"><ele>188.8</ele><time>2026-04-24T13:54:54.959Z</time></trkpt><trkpt lat="45.6152478" lon="9.51194"><ele>189.2</ele><time>2026-04-24T13:54:55.959Z</time></trkpt><trkpt lat="45.6152958" lon="9.5117808"><ele>189.6</ele><time>2026-04-24T13:54:57.959Z</time></trkpt><trkpt lat="45.6153494" lon="9.511666"><ele>190.0</ele><time>2026-04-24T13:54:58.96Z</time></trkpt><trkpt lat="45.6153992" lon="9.5115413"><ele>190.0</ele><time>2026-04-24T13:55:00.959Z</time></trkpt><trkpt lat="45.6154615" lon="9.5114552"><ele>190.0</ele><time>2026-04-24T13:55:02.959Z</time></trkpt><trkpt lat="45.6155283" lon="9.511373"><ele>190.0</ele><time>2026-04-24T13:55:04.96Z</time></trkpt><trkpt lat="45.6156033" lon="9.5112752"><ele>190.0</ele><time>2026-04-24T13:55:06.96Z</time></trkpt><trkpt lat="45.6156484" lon="9.5111776"><ele>190.0</ele><time>2026-04-24T13:55:08.959Z</time></trkpt><trkpt lat="45.6156793" lon="9.5110576"><ele>190.0</ele><time>2026-04-24T13:55:10.959Z</time></trkpt><trkpt lat="45.6157062" lon="9.5109738"><ele>190.6</ele><time>2026-04-24T13:55:11.96Z</time></trkpt><trkpt lat="45.6157239" lon="9.5108605"><ele>191.2</ele><time>2026-04-24T13:55:13.959Z</time></trkpt><trkpt lat="45.6157313" lon="9.5107253"><ele>191.8</ele><time>2026-04-24T13:55:14.959Z</time></trkpt><trkpt lat="45.6158106" lon="9.5106156"><ele>192.4</ele><time>2026-04-24T13:55:16.959Z</time></trkpt><trkpt lat="45.6158878" lon="9.5104858"><ele>193.0</ele><time>2026-04-24T13:55:17.96Z</time></trkpt><trkpt lat="45.6159619" lon="9.510446"><ele>193.0</ele><time>2026-04-24T13:55:18.959Z</time></trkpt><trkpt lat="45.6160338" lon="9.5104116"><ele>193.0</ele><time>2026-04-24T13:55:19.959Z</time></trkpt><trkpt lat="45.6161525" lon="9.5103831"><ele>193.0</ele><time>2026-04-24T13:55:21.959Z</time></trkpt><trkpt lat="45.61625" lon="9.5103582"><ele>193.0</ele><time>2026-04-24T13:55:23.959Z</time></trkpt><trkpt lat="45.6163579" lon="9.5103405"><ele>193.0</ele><time>2026-04-24T13:55:25.959Z</time></trkpt><trkpt lat="45.6164652" lon="9.5103052"><ele>194.16666666666666</ele><time>2026-04-24T13:55:27.959Z</time></trkpt><trkpt lat="45.6165218" lon="9.5102561"><ele>195.33333333333331</ele><time>2026-04-24T13:55:28.959Z</time></trkpt><trkpt lat="45.6165782" lon="9.5102086"><ele>196.5</ele><time>2026-04-24T13:55:29.96Z</time></trkpt><trkpt lat="45.6166465" lon="9.5101327"><ele>197.66666666666669</ele><time>2026-04-24T13:55:31.959Z</time></trkpt><trkpt lat="45.6167134" lon="9.5100919"><ele>198.83333333333334</ele><time>2026-04-24T13:55:32.959Z</time></trkpt><trkpt lat="45.6168038" lon="9.5100293"><ele>200.0</ele><time>2026-04-24T13:55:34.959Z</time></trkpt><trkpt lat="45.6169189" lon="9.5099542"><ele>200.0</ele><time>2026-04-24T13:55:36.959Z</time></trkpt><trkpt lat="45.6169821" lon="9.5098593"><ele>200.0</ele><time>2026-04-24T13:55:38.96Z</time></trkpt><trkpt lat="45.6170684" lon="9.5097656"><ele>200.0</ele><time>2026-04-24T13:55:40.959Z</time></trkpt><trkpt lat="45.6171643" lon="9.5096741"><ele>200.0</ele><time>2026-04-24T13:55:42.96Z</time></trkpt><trkpt lat="45.6172202" lon="9.5096171"><ele>200.0</ele><time>2026-04-24T13:55:43.959Z</time></trkpt><trkpt lat="45.6173094" lon="9.5095511"><ele>200.6</ele><time>2026-04-24T13:55:45.96Z</time></trkpt><trkpt lat="45.6173808" lon="9.509482"><ele>201.2</ele><time>2026-04-24T13:55:47.959Z</time></trkpt><trkpt lat="45.6174517" lon="9.5094632"><ele>201.8</ele><time>2026-04-24T13:55:48.959Z</time></trkpt><trkpt lat="45.6175191" lon="9.5093799"><ele>202.4</ele><time>2026-04-24T13:55:50.959Z</time></trkpt><trkpt lat="45.6176166" lon="9.509257"><ele>203.0</ele><time>2026-04-24T13:55:52.959Z</time></trkpt><trkpt lat="45.617705" lon="9.5091818"><ele>203.0</ele><time>2026-04-24T13:55:54.959Z</time></trkpt><trkpt lat="45.617759" lon="9.5091251"><ele>203.0</ele><time>2026-04-24T13:55:55.959Z</time></trkpt><trkpt lat="45.6178195" lon="9.5090802"><ele>203.0</ele><time>2026-04-24T13:55:56.959Z</time></trkpt><trkpt lat="45.6179146" lon="9.5090696"><ele>203.0</ele><time>2026-04-24T13:55:58.959Z</time></trkpt><trkpt lat="45.6180735" lon="9.5091302"><ele>203.0</ele><time>2026-04-24T13:56:02.96Z</time></trkpt><trkpt lat="45.6181427" lon="9.5092227"><ele>202.33333333333334</ele><time>2026-04-24T13:56:04.959Z</time></trkpt><trkpt lat="45.6182087" lon="9.5093504"><ele>201.66666666666669</ele><time>2026-04-24T13:56:06.96Z</time></trkpt><trkpt lat="45.6182845" lon="9.5093596"><ele>201.0</ele><time>2026-04-24T13:56:08.959Z</time></trkpt><trkpt lat="45.6183988" lon="9.5093825"><ele>200.33333333333331</ele><time>2026-04-24T13:56:10.959Z</time></trkpt><trkpt lat="45.6184684" lon="9.509417"><ele>199.66666666666666</ele><time>2026-04-24T13:56:11.959Z</time></trkpt><trkpt lat="45.6185349" lon="9.5094267"><ele>199.0</ele><time>2026-04-24T13:56:12.959Z</time></trkpt><trkpt lat="45.6185987" lon="9.5094436"><ele>198.99999999999997</ele><time>2026-04-24T13:56:13.96Z</time></trkpt><trkpt lat="45.6186669" lon="9.5094024"><ele>199.0</ele><time>2026-04-24T13:56:14.959Z</time></trkpt><trkpt lat="45.6187658" lon="9.5093631"><ele>199.0</ele><time>2026-04-24T13:56:16.959Z</time></trkpt><trkpt lat="45.6188605" lon="9.5093282"><ele>199.0</ele><time>2026-04-24T13:56:18.96Z</time></trkpt><trkpt lat="45.6189294" lon="9.5092752"><ele>198.99999999999997</ele><time>2026-04-24T13:56:20.96Z</time></trkpt><trkpt lat="45.6190012" lon="9.5092475"><ele>199.0</ele><time>2026-04-24T13:56:22.959Z</time></trkpt><trkpt lat="45.6191018" lon="9.5092032"><ele>198.99999999999997</ele><time>2026-04-24T13:56:24.959Z</time></trkpt><trkpt lat="45.6191697" lon="9.509204"><ele>199.0</ele><time>2026-04-24T13:56:26.959Z</time></trkpt><trkpt lat="45.6192706" lon="9.5092321"><ele>199.0</ele><time>2026-04-24T13:56:29.96Z</time></trkpt><trkpt lat="45.619353" lon="9.5092365"><ele>199.0</ele><time>2026-04-24T13:56:35.96Z</time></trkpt><trkpt lat="45.6194203" lon="9.5092622"><ele>198.99999999999997</ele><time>2026-04-24T13:56:39.959Z</time></trkpt><trkpt lat="45.6195024" lon="9.5093116"><ele>199.0</ele><time>2026-04-24T13:56:42.96Z</time></trkpt><trkpt lat="45.6195787" lon="9.5093592"><ele>198.83333333333331</ele><time>2026-04-24T13:56:44.959Z</time></trkpt><trkpt lat="45.6196544" lon="9.5094186"><ele>198.66666666666666</ele><time>2026-04-24T13:56:46.959Z</time></trkpt><trkpt lat="45.6197388" lon="9.5094727"><ele>198.5</ele><time>2026-04-24T13:56:48.959Z</time></trkpt><trkpt lat="45.6198143" lon="9.5095299"><ele>198.33333333333331</ele><time>2026-04-24T13:56:50.96Z</time></trkpt><trkpt lat="45.6198899" lon="9.5095877"><ele>198.16666666666666</ele><time>2026-04-24T13:56:52.959Z</time></trkpt><trkpt lat="45.6199525" lon="9.5096426"><ele>198.0</ele><time>2026-04-24T13:56:54.959Z</time></trkpt><trkpt lat="45.6200365" lon="9.5097049"><ele>198.0</ele><time>2026-04-24T13:56:56.96Z</time></trkpt><trkpt lat="45.6201209" lon="9.5097552"><ele>198.0</ele><time>2026-04-24T13:56:58.96Z</time></trkpt><trkpt lat="45.6202041" lon="9.5097935"><ele>198.0</ele><time>2026-04-24T13:57:00.959Z</time></trkpt><trkpt lat="45.6202996" lon="9.5098378"><ele>198.0</ele><time>2026-04-24T13:57:02.959Z</time></trkpt><trkpt lat="45.6203925" lon="9.5098726"><ele>198.0</ele><time>2026-04-24T13:57:04.959Z</time></trkpt><trkpt lat="45.6204863" lon="9.5099138"><ele>198.60000000000002</ele><time>2026-04-24T13:57:06.959Z</time></trkpt><trkpt lat="45.6205759" lon="9.5099365"><ele>199.20000000000002</ele><time>2026-04-24T13:57:08.959Z</time></trkpt><trkpt lat="45.6206622" lon="9.5099472"><ele>199.8</ele><time>2026-04-24T13:57:10.959Z</time></trkpt><trkpt lat="45.6207493" lon="9.5099706"><ele>200.4</ele><time>2026-04-24T13:57:12.959Z</time></trkpt><trkpt lat="45.6208352" lon="9.5099934"><ele>201.0</ele><time>2026-04-24T13:57:14.959Z</time></trkpt><trkpt lat="45.6210429" lon="9.510001"><ele>201.0</ele><time>2026-04-24T13:57:19.959Z</time></trkpt><trkpt lat="45.6211434" lon="9.5100197"><ele>201.0</ele><time>2026-04-24T13:57:21.959Z</time></trkpt><trkpt lat="45.6212341" lon="9.5100347"><ele>201.0</ele><time>2026-04-24T13:57:23.959Z</time></trkpt><trkpt lat="45.6213186" lon="9.5100285"><ele>201.0</ele><time>2026-04-24T13:57:25.959Z</time></trkpt><trkpt lat="45.6214047" lon="9.509999"><ele>201.0</ele><time>2026-04-24T13:57:27.96Z</time></trkpt><trkpt lat="45.62149" lon="9.5099509"><ele>201.0</ele><time>2026-04-24T13:57:29.959Z</time></trkpt><trkpt lat="45.6215924" lon="9.5098624"><ele>201.0</ele><time>2026-04-24T13:57:31.959Z</time></trkpt><trkpt lat="45.6216828" lon="9.5097739"><ele>201.0</ele><time>2026-04-24T13:57:33.96Z</time></trkpt><trkpt lat="45.621782" lon="9.5096774"><ele>201.0</ele><time>2026-04-24T13:57:35.959Z</time></trkpt><trkpt lat="45.621865" lon="9.5095796"><ele>202.20000000000002</ele><time>2026-04-24T13:57:37.959Z</time></trkpt><trkpt lat="45.6219356" lon="9.5094924"><ele>203.4</ele><time>2026-04-24T13:57:39.959Z</time></trkpt><trkpt lat="45.6220069" lon="9.5094171"><ele>204.6</ele><time>2026-04-24T13:57:41.959Z</time></trkpt><trkpt lat="45.62211" lon="9.5093259"><ele>205.8</ele><time>2026-04-24T13:57:43.959Z</time></trkpt><trkpt lat="45.6221711" lon="9.5092904"><ele>207.0</ele><time>2026-04-24T13:57:44.959Z</time></trkpt><trkpt lat="45.6222892" lon="9.5092973"><ele>207.0</ele><time>2026-04-24T13:57:46.959Z</time></trkpt><trkpt lat="45.622401" lon="9.5092875"><ele>207.0</ele><time>2026-04-24T13:57:48.959Z</time></trkpt><trkpt lat="45.6225181" lon="9.5092501"><ele>207.0</ele><time>2026-04-24T13:57:50.96Z</time></trkpt><trkpt lat="45.6226297" lon="9.5091905"><ele>207.0</ele><time>2026-04-24T13:57:52.96Z</time></trkpt><trkpt lat="45.6227416" lon="9.5091128"><ele>207.0</ele><time>2026-04-24T13:57:54.96Z</time></trkpt><trkpt lat="45.6227929" lon="9.5090553"><ele>207.0</ele><time>2026-04-24T13:57:55.959Z</time></trkpt><trkpt lat="45.6228736" lon="9.5089577"><ele>207.0</ele><time>2026-04-24T13:57:57.959Z</time></trkpt><trkpt lat="45.622956" lon="9.5088742"><ele>207.0</ele><time>2026-04-24T13:57:59.96Z</time></trkpt><trkpt lat="45.6230409" lon="9.5087752"><ele>207.0</ele><time>2026-04-24T13:58:01.959Z</time></trkpt><trkpt lat="45.6231437" lon="9.508683"><ele>208.0</ele><time>2026-04-24T13:58:03.959Z</time></trkpt><trkpt lat="45.6232315" lon="9.5085962"><ele>209.0</ele><time>2026-04-24T13:58:05.959Z</time></trkpt><trkpt lat="45.6233145" lon="9.5084954"><ele>210.0</ele><time>2026-04-24T13:58:07.959Z</time></trkpt><trkpt lat="45.6233755" lon="9.5084107"><ele>211.0</ele><time>2026-04-24T13:58:09.959Z</time></trkpt><trkpt lat="45.6234363" lon="9.508314"><ele>212.0</ele><time>2026-04-24T13:58:11.959Z</time></trkpt><trkpt lat="45.6234958" lon="9.5081982"><ele>212.0</ele><time>2026-04-24T13:58:13.959Z</time></trkpt><trkpt lat="45.6235682" lon="9.5080826"><ele>212.0</ele><time>2026-04-24T13:58:15.96Z</time></trkpt><trkpt lat="45.6236242" lon="9.5079611"><ele>212.0</ele><time>2026-04-24T13:58:17.959Z</time></trkpt><trkpt lat="45.6236838" lon="9.5078419"><ele>212.0</ele><time>2026-04-24T13:58:19.959Z</time></trkpt><trkpt lat="45.6237423" lon="9.5077202"><ele>212.0</ele><time>2026-04-24T13:58:21.959Z</time></trkpt><trkpt lat="45.6237981" lon="9.5075787"><ele>212.8</ele><time>2026-04-24T13:58:23.96Z</time></trkpt><trkpt lat="45.6238259" lon="9.5074951"><ele>213.6</ele><time>2026-04-24T13:58:24.959Z</time></trkpt><trkpt lat="45.623884" lon="9.5073405"><ele>214.40000000000003</ele><time>2026-04-24T13:58:26.96Z</time></trkpt><trkpt lat="45.6239225" lon="9.5072112"><ele>215.20000000000002</ele><time>2026-04-24T13:58:28.96Z</time></trkpt><trkpt lat="45.6239841" lon="9.5070852"><ele>216.0</ele><time>2026-04-24T13:58:30.96Z</time></trkpt><trkpt lat="45.6240716" lon="9.5069789"><ele>216.0</ele><time>2026-04-24T13:58:32.959Z</time></trkpt><trkpt lat="45.6241456" lon="9.5068751"><ele>216.00000000000003</ele><time>2026-04-24T13:58:34.959Z</time></trkpt><trkpt lat="45.6242217" lon="9.5067654"><ele>216.00000000000003</ele><time>2026-04-24T13:58:36.959Z</time></trkpt><trkpt lat="45.6242847" lon="9.5066489"><ele>216.0</ele><time>2026-04-24T13:58:38.959Z</time></trkpt><trkpt lat="45.6243205" lon="9.5065672"><ele>216.0</ele><time>2026-04-24T13:58:39.959Z</time></trkpt><trkpt lat="45.6243835" lon="9.5064284"><ele>216.0</ele><time>2026-04-24T13:58:41.959Z</time></trkpt><trkpt lat="45.6244393" lon="9.5062796"><ele>216.0</ele><time>2026-04-24T13:58:43.959Z</time></trkpt><trkpt lat="45.6245015" lon="9.506144"><ele>216.0</ele><time>2026-04-24T13:58:45.959Z</time></trkpt><trkpt lat="45.6245594" lon="9.506005"><ele>216.0</ele><time>2026-04-24T13:58:47.96Z</time></trkpt><trkpt lat="45.6246171" lon="9.5058722"><ele>216.0</ele><time>2026-04-24T13:58:49.959Z</time></trkpt><trkpt lat="45.6246705" lon="9.50576"><ele>216.00000000000003</ele><time>2026-04-24T13:58:51.96Z</time></trkpt><trkpt lat="45.6247231" lon="9.505624"><ele>216.00000000000003</ele><time>2026-04-24T13:58:53.959Z</time></trkpt><trkpt lat="45.6247829" lon="9.5054893"><ele>216.0</ele><time>2026-04-24T13:58:55.959Z</time></trkpt><trkpt lat="45.6248242" lon="9.5054083"><ele>216.0</ele><time>2026-04-24T13:58:56.96Z</time></trkpt><trkpt lat="45.6248684" lon="9.5053323"><ele>216.0</ele><time>2026-04-24T13:58:57.959Z</time></trkpt><trkpt lat="45.6249411" lon="9.5051983"><ele>216.00000000000003</ele><time>2026-04-24T13:58:59.959Z</time></trkpt><trkpt lat="45.6249976" lon="9.505079"><ele>216.00000000000003</ele><time>2026-04-24T13:59:01.96Z</time></trkpt><trkpt lat="45.6250529" lon="9.5049597"><ele>216.0</ele><time>2026-04-24T13:59:03.959Z</time></trkpt><trkpt lat="45.6251027" lon="9.5048233"><ele>216.0</ele><time>2026-04-24T13:59:05.96Z</time></trkpt><trkpt lat="45.6251477" lon="9.5046782"><ele>216.60000000000002</ele><time>2026-04-24T13:59:07.96Z</time></trkpt><trkpt lat="45.6251847" lon="9.5045284"><ele>217.20000000000002</ele><time>2026-04-24T13:59:09.959Z</time></trkpt><trkpt lat="45.6252259" lon="9.5043935"><ele>217.79999999999998</ele><time>2026-04-24T13:59:11.959Z</time></trkpt><trkpt lat="45.6252792" lon="9.5042494"><ele>218.39999999999998</ele><time>2026-04-24T13:59:13.959Z</time></trkpt><trkpt lat="45.6253057" lon="9.5041672"><ele>219.0</ele><time>2026-04-24T13:59:14.96Z</time></trkpt><trkpt lat="45.6253681" lon="9.5040179"><ele>217.5</ele><time>2026-04-24T13:59:16.959Z</time></trkpt><trkpt lat="45.6254352" lon="9.5038934"><ele>216.0</ele><time>2026-04-24T13:59:18.959Z</time></trkpt><trkpt lat="45.6255039" lon="9.5037551"><ele>214.5</ele><time>2026-04-24T13:59:20.96Z</time></trkpt><trkpt lat="45.6255738" lon="9.5036182"><ele>213.0</ele><time>2026-04-24T13:59:22.959Z</time></trkpt><trkpt lat="45.6256378" lon="9.5034754"><ele>213.0</ele><time>2026-04-24T13:59:24.959Z</time></trkpt><trkpt lat="45.6257101" lon="9.5033376"><ele>213.0</ele><time>2026-04-24T13:59:26.96Z</time></trkpt><trkpt lat="45.6257821" lon="9.5032013"><ele>213.0</ele><time>2026-04-24T13:59:28.959Z</time></trkpt><trkpt lat="45.6258709" lon="9.5030777"><ele>213.0</ele><time>2026-04-24T13:59:30.959Z</time></trkpt><trkpt lat="45.6259206" lon="9.5030114"><ele>213.0</ele><time>2026-04-24T13:59:31.959Z</time></trkpt><trkpt lat="45.6259684" lon="9.5029454"><ele>214.2</ele><time>2026-04-24T13:59:32.959Z</time></trkpt><trkpt lat="45.6260136" lon="9.5028721"><ele>215.4</ele><time>2026-04-24T13:59:33.959Z</time></trkpt><trkpt lat="45.6260591" lon="9.5027947"><ele>216.59999999999997</ele><time>2026-04-24T13:59:34.959Z</time></trkpt><trkpt lat="45.6261358" lon="9.5026572"><ele>217.79999999999998</ele><time>2026-04-24T13:59:35.96Z</time></trkpt><trkpt lat="45.6262055" lon="9.5025026"><ele>219.0</ele><time>2026-04-24T13:59:37.959Z</time></trkpt><trkpt lat="45.6262061" lon="9.5023243"><ele>217.2</ele><time>2026-04-24T13:59:39.959Z</time></trkpt><trkpt lat="45.6262582" lon="9.5021623"><ele>215.39999999999998</ele><time>2026-04-24T13:59:41.959Z</time></trkpt><trkpt lat="45.6262825" lon="9.5020782"><ele>213.6</ele><time>2026-04-24T13:59:42.959Z</time></trkpt><trkpt lat="45.6263323" lon="9.5019365"><ele>211.8</ele><time>2026-04-24T13:59:44.959Z</time></trkpt><trkpt lat="45.6263876" lon="9.5018084"><ele>210.0</ele><time>2026-04-24T13:59:46.959Z</time></trkpt><trkpt lat="45.6264488" lon="9.5016568"><ele>210.0</ele><time>2026-04-24T13:59:48.96Z</time></trkpt><trkpt lat="45.6264873" lon="9.501585"><ele>210.0</ele><time>2026-04-24T13:59:49.96Z</time></trkpt><trkpt lat="45.626567" lon="9.5014632"><ele>210.0</ele><time>2026-04-24T13:59:51.959Z</time></trkpt><trkpt lat="45.6266137" lon="9.5013923"><ele>210.0</ele><time>2026-04-24T13:59:52.959Z</time></trkpt><trkpt lat="45.6266354" lon="9.5013058"><ele>210.0</ele><time>2026-04-24T13:59:53.959Z</time></trkpt><trkpt lat="45.6267016" lon="9.5012073"><ele>210.0</ele><time>2026-04-24T13:59:55.959Z</time></trkpt><trkpt lat="45.6267647" lon="9.5010879"><ele>212.0</ele><time>2026-04-24T13:59:57.959Z</time></trkpt><trkpt lat="45.6268148" lon="9.5009458"><ele>214.0</ele><time>2026-04-24T13:59:59.959Z</time></trkpt><trkpt lat="45.6268841" lon="9.5007933"><ele>216.0</ele><time>2026-04-24T14:00:01.959Z</time></trkpt><trkpt lat="45.6269154" lon="9.5006966"><ele>218.0</ele><time>2026-04-24T14:00:02.959Z</time></trkpt><trkpt lat="45.6269528" lon="9.5005944"><ele>220.0</ele><time>2026-04-24T14:00:03.96Z</time></trkpt><trkpt lat="45.6269842" lon="9.5005013"><ele>218.16666666666666</ele><time>2026-04-24T14:00:04.959Z</time></trkpt><trkpt lat="45.6270157" lon="9.5004096"><ele>216.33333333333331</ele><time>2026-04-24T14:00:05.959Z</time></trkpt><trkpt lat="45.6270505" lon="9.5003138"><ele>214.5</ele><time>2026-04-24T14:00:06.959Z</time></trkpt><trkpt lat="45.6270887" lon="9.5002274"><ele>212.66666666666669</ele><time>2026-04-24T14:00:07.959Z</time></trkpt><trkpt lat="45.6271281" lon="9.5001411"><ele>210.83333333333334</ele><time>2026-04-24T14:00:08.96Z</time></trkpt><trkpt lat="45.627196" lon="9.4999834"><ele>209.0</ele><time>2026-04-24T14:00:10.959Z</time></trkpt><trkpt lat="45.627241" lon="9.4999014"><ele>209.0</ele><time>2026-04-24T14:00:11.959Z</time></trkpt><trkpt lat="45.6272775" lon="9.4998173"><ele>209.0</ele><time>2026-04-24T14:00:12.959Z</time></trkpt><trkpt lat="45.6273121" lon="9.4997398"><ele>209.0</ele><time>2026-04-24T14:00:13.959Z</time></trkpt><trkpt lat="45.6273885" lon="9.4995905"><ele>209.0</ele><time>2026-04-24T14:00:15.959Z</time></trkpt><trkpt lat="45.6274232" lon="9.499508"><ele>209.0</ele><time>2026-04-24T14:00:16.959Z</time></trkpt><trkpt lat="45.6274992" lon="9.4993546"><ele>210.83333333333334</ele><time>2026-04-24T14:00:18.96Z</time></trkpt><trkpt lat="45.627561" lon="9.4992015"><ele>212.66666666666669</ele><time>2026-04-24T14:00:20.959Z</time></trkpt><trkpt lat="45.6276022" lon="9.4991261"><ele>214.5</ele><time>2026-04-24T14:00:21.96Z</time></trkpt><trkpt lat="45.6276379" lon="9.4990462"><ele>216.33333333333331</ele><time>2026-04-24T14:00:22.96Z</time></trkpt><trkpt lat="45.6276834" lon="9.498967"><ele>218.16666666666666</ele><time>2026-04-24T14:00:23.959Z</time></trkpt><trkpt lat="45.6277195" lon="9.4988865"><ele>220.0</ele><time>2026-04-24T14:00:24.96Z</time></trkpt><trkpt lat="45.6277584" lon="9.4988062"><ele>220.0</ele><time>2026-04-24T14:00:25.96Z</time></trkpt><trkpt lat="45.627801" lon="9.4987322"><ele>220.0</ele><time>2026-04-24T14:00:26.959Z</time></trkpt><trkpt lat="45.6278663" lon="9.4985836"><ele>220.0</ele><time>2026-04-24T14:00:28.959Z</time></trkpt><trkpt lat="45.6279045" lon="9.4985103"><ele>220.0</ele><time>2026-04-24T14:00:29.96Z</time></trkpt><trkpt lat="45.6279757" lon="9.4983574"><ele>220.0</ele><time>2026-04-24T14:00:31.959Z</time></trkpt><trkpt lat="45.6280211" lon="9.4982771"><ele>220.2</ele><time>2026-04-24T14:00:32.959Z</time></trkpt><trkpt lat="45.6280662" lon="9.4981994"><ele>220.4</ele><time>2026-04-24T14:00:33.96Z</time></trkpt><trkpt lat="45.628118" lon="9.4981266"><ele>220.60000000000002</ele><time>2026-04-24T14:00:34.96Z</time></trkpt><trkpt lat="45.628208" lon="9.4980056"><ele>220.8</ele><time>2026-04-24T14:00:36.959Z</time></trkpt><trkpt lat="45.6282579" lon="9.4979469"><ele>221.0</ele><time>2026-04-24T14:00:37.959Z</time></trkpt><trkpt lat="45.6283557" lon="9.4978302"><ele>221.0</ele><time>2026-04-24T14:00:39.959Z</time></trkpt><trkpt lat="45.6284538" lon="9.4977246"><ele>221.00000000000003</ele><time>2026-04-24T14:00:41.96Z</time></trkpt><trkpt lat="45.6285047" lon="9.4976676"><ele>221.00000000000003</ele><time>2026-04-24T14:00:42.959Z</time></trkpt><trkpt lat="45.6285967" lon="9.497554"><ele>221.0</ele><time>2026-04-24T14:00:44.96Z</time></trkpt><trkpt lat="45.6287045" lon="9.4974322"><ele>221.0</ele><time>2026-04-24T14:00:46.959Z</time></trkpt><trkpt lat="45.6287799" lon="9.497308"><ele>221.0</ele><time>2026-04-24T14:00:48.959Z</time></trkpt><trkpt lat="45.6288219" lon="9.4972391"><ele>221.00000000000003</ele><time>2026-04-24T14:00:49.96Z</time></trkpt><trkpt lat="45.628865" lon="9.4971722"><ele>221.00000000000003</ele><time>2026-04-24T14:00:50.959Z</time></trkpt><trkpt lat="45.6289502" lon="9.4970733"><ele>221.0</ele><time>2026-04-24T14:00:52.96Z</time></trkpt><trkpt lat="45.6290268" lon="9.4969547"><ele>221.0</ele><time>2026-04-24T14:00:54.959Z</time></trkpt><trkpt lat="45.6291002" lon="9.4968358"><ele>221.0</ele><time>2026-04-24T14:00:56.96Z</time></trkpt><trkpt lat="45.6291552" lon="9.4967143"><ele>221.00000000000003</ele><time>2026-04-24T14:00:58.959Z</time></trkpt><trkpt lat="45.6292012" lon="9.4965983"><ele>221.00000000000003</ele><time>2026-04-24T14:01:00.959Z</time></trkpt><trkpt lat="45.6292637" lon="9.4964639"><ele>221.0</ele><time>2026-04-24T14:01:02.96Z</time></trkpt><trkpt lat="45.6293089" lon="9.4963298"><ele>221.0</ele><time>2026-04-24T14:01:04.959Z</time></trkpt><trkpt lat="45.6293577" lon="9.4961895"><ele>221.8</ele><time>2026-04-24T14:01:06.959Z</time></trkpt><trkpt lat="45.629411" lon="9.4960543"><ele>222.60000000000002</ele><time>2026-04-24T14:01:08.96Z</time></trkpt><trkpt lat="45.6294993" lon="9.4959168"><ele>223.4</ele><time>2026-04-24T14:01:10.96Z</time></trkpt><trkpt lat="45.629544" lon="9.4958521"><ele>224.2</ele><time>2026-04-24T14:01:11.959Z</time></trkpt><trkpt lat="45.6296137" lon="9.4957228"><ele>225.0</ele><time>2026-04-24T14:01:13.96Z</time></trkpt><trkpt lat="45.629686" lon="9.4955818"><ele>224.8</ele><time>2026-04-24T14:01:15.96Z</time></trkpt><trkpt lat="45.6297256" lon="9.4955084"><ele>224.6</ele><time>2026-04-24T14:01:16.959Z</time></trkpt><trkpt lat="45.6297833" lon="9.4953808"><ele>224.39999999999998</ele><time>2026-04-24T14:01:18.96Z</time></trkpt><trkpt lat="45.6298584" lon="9.4952442"><ele>224.2</ele><time>2026-04-24T14:01:20.959Z</time></trkpt><trkpt lat="45.6299277" lon="9.4950984"><ele>224.0</ele><time>2026-04-24T14:01:22.959Z</time></trkpt><trkpt lat="45.6299856" lon="9.4949533"><ele>224.0</ele><time>2026-04-24T14:01:24.959Z</time></trkpt><trkpt lat="45.6300216" lon="9.4948752"><ele>223.99999999999997</ele><time>2026-04-24T14:01:25.959Z</time></trkpt><trkpt lat="45.6300718" lon="9.4947227"><ele>223.99999999999997</ele><time>2026-04-24T14:01:27.96Z</time></trkpt><trkpt lat="45.630116" lon="9.4946484"><ele>224.0</ele><time>2026-04-24T14:01:28.959Z</time></trkpt><trkpt lat="45.6301883" lon="9.494518"><ele>224.0</ele><time>2026-04-24T14:01:30.959Z</time></trkpt><trkpt lat="45.6302547" lon="9.4943744"><ele>223.2</ele><time>2026-04-24T14:01:32.959Z</time></trkpt><trkpt lat="45.630325" lon="9.4942395"><ele>222.39999999999998</ele><time>2026-04-24T14:01:34.959Z</time></trkpt><trkpt lat="45.6304075" lon="9.4940994"><ele>221.6</ele><time>2026-04-24T14:01:36.96Z</time></trkpt><trkpt lat="45.630456" lon="9.4940365"><ele>220.8</ele><time>2026-04-24T14:01:37.959Z</time></trkpt><trkpt lat="45.6305431" lon="9.4939137"><ele>220.0</ele><time>2026-04-24T14:01:39.96Z</time></trkpt><trkpt lat="45.6305897" lon="9.4938522"><ele>221.4</ele><time>2026-04-24T14:01:40.959Z</time></trkpt><trkpt lat="45.6306573" lon="9.4937267"><ele>222.8</ele><time>2026-04-24T14:01:42.96Z</time></trkpt><trkpt lat="45.6306875" lon="9.4935823"><ele>224.2</ele><time>2026-04-24T14:01:44.96Z</time></trkpt><trkpt lat="45.6307186" lon="9.4934467"><ele>225.6</ele><time>2026-04-24T14:01:46.959Z</time></trkpt><trkpt lat="45.6307052" lon="9.4933169"><ele>227.0</ele><time>2026-04-24T14:01:48.96Z</time></trkpt><trkpt lat="45.630662" lon="9.4931973"><ele>227.0</ele><time>2026-04-24T14:01:50.959Z</time></trkpt><trkpt lat="45.6305743" lon="9.4931113"><ele>227.0</ele><time>2026-04-24T14:01:52.96Z</time></trkpt><trkpt lat="45.6304732" lon="9.493026"><ele>227.0</ele><time>2026-04-24T14:01:54.96Z</time></trkpt><trkpt lat="45.6303628" lon="9.4929582"><ele>227.0</ele><time>2026-04-24T14:01:56.959Z</time></trkpt><trkpt lat="45.6302491" lon="9.4928933"><ele>226.0</ele><time>2026-04-24T14:01:58.959Z</time></trkpt><trkpt lat="45.6301328" lon="9.4928075"><ele>225.0</ele><time>2026-04-24T14:02:00.959Z</time></trkpt><trkpt lat="45.6300104" lon="9.492738"><ele>224.0</ele><time>2026-04-24T14:02:02.96Z</time></trkpt><trkpt lat="45.6299489" lon="9.4926964"><ele>223.0</ele><time>2026-04-24T14:02:03.959Z</time></trkpt><trkpt lat="45.6298853" lon="9.4926483"><ele>222.0</ele><time>2026-04-24T14:02:04.959Z</time></trkpt><trkpt lat="45.6298235" lon="9.492612"><ele>222.0</ele><time>2026-04-24T14:02:05.959Z</time></trkpt><trkpt lat="45.6297547" lon="9.4925663"><ele>222.0</ele><time>2026-04-24T14:02:06.959Z</time></trkpt><trkpt lat="45.6296941" lon="9.4925241"><ele>222.0</ele><time>2026-04-24T14:02:07.959Z</time></trkpt><trkpt lat="45.6296328" lon="9.4924763"><ele>222.0</ele><time>2026-04-24T14:02:08.96Z</time></trkpt><trkpt lat="45.6295645" lon="9.4924285"><ele>222.0</ele><time>2026-04-24T14:02:09.96Z</time></trkpt><trkpt lat="45.6294985" lon="9.492379"><ele>222.0</ele><time>2026-04-24T14:02:10.959Z</time></trkpt><trkpt lat="45.6294371" lon="9.4923304"><ele>222.0</ele><time>2026-04-24T14:02:11.959Z</time></trkpt><trkpt lat="45.6293744" lon="9.4922898"><ele>221.85714285714286</ele><time>2026-04-24T14:02:12.959Z</time></trkpt><trkpt lat="45.6293093" lon="9.4922375"><ele>221.71428571428572</ele><time>2026-04-24T14:02:13.96Z</time></trkpt><trkpt lat="45.6292468" lon="9.4921955"><ele>221.57142857142858</ele><time>2026-04-24T14:02:14.96Z</time></trkpt><trkpt lat="45.6291819" lon="9.492153"><ele>221.42857142857144</ele><time>2026-04-24T14:02:15.959Z</time></trkpt><trkpt lat="45.6291129" lon="9.4921081"><ele>221.28571428571428</ele><time>2026-04-24T14:02:16.96Z</time></trkpt><trkpt lat="45.6290463" lon="9.4920769"><ele>221.14285714285717</ele><time>2026-04-24T14:02:17.959Z</time></trkpt><trkpt lat="45.6289843" lon="9.4920218"><ele>221.0</ele><time>2026-04-24T14:02:18.959Z</time></trkpt><trkpt lat="45.6289212" lon="9.4919884"><ele>221.00000000000003</ele><time>2026-04-24T14:02:19.959Z</time></trkpt><trkpt lat="45.6288539" lon="9.4919498"><ele>221.0</ele><time>2026-04-24T14:02:20.959Z</time></trkpt><trkpt lat="45.6287863" lon="9.4918957"><ele>221.0</ele><time>2026-04-24T14:02:21.959Z</time></trkpt><trkpt lat="45.6287191" lon="9.491846"><ele>221.0</ele><time>2026-04-24T14:02:22.959Z</time></trkpt><trkpt lat="45.6286521" lon="9.4918011"><ele>221.0</ele><time>2026-04-24T14:02:23.959Z</time></trkpt><trkpt lat="45.6285858" lon="9.4917612"><ele>221.00000000000003</ele><time>2026-04-24T14:02:24.96Z</time></trkpt><trkpt lat="45.6285137" lon="9.4917241"><ele>221.0</ele><time>2026-04-24T14:02:25.959Z</time></trkpt><trkpt lat="45.6284459" lon="9.4916753"><ele>220.85714285714286</ele><time>2026-04-24T14:02:26.96Z</time></trkpt><trkpt lat="45.6283766" lon="9.4916325"><ele>220.71428571428572</ele><time>2026-04-24T14:02:27.959Z</time></trkpt><trkpt lat="45.6283141" lon="9.4915889"><ele>220.57142857142856</ele><time>2026-04-24T14:02:28.96Z</time></trkpt><trkpt lat="45.6282486" lon="9.4915386"><ele>220.42857142857144</ele><time>2026-04-24T14:02:29.96Z</time></trkpt><trkpt lat="45.6281785" lon="9.4914969"><ele>220.28571428571428</ele><time>2026-04-24T14:02:30.96Z</time></trkpt><trkpt lat="45.6281141" lon="9.4914338"><ele>220.14285714285714</ele><time>2026-04-24T14:02:31.959Z</time></trkpt><trkpt lat="45.6280503" lon="9.491393"><ele>220.0</ele><time>2026-04-24T14:02:32.96Z</time></trkpt><trkpt lat="45.6279873" lon="9.4913442"><ele>219.99999999999997</ele><time>2026-04-24T14:02:33.959Z</time></trkpt><trkpt lat="45.6279212" lon="9.4912845"><ele>220.0</ele><time>2026-04-24T14:02:34.959Z</time></trkpt><trkpt lat="45.6278581" lon="9.4912311"><ele>220.0</ele><time>2026-04-24T14:02:35.959Z</time></trkpt><trkpt lat="45.6277901" lon="9.4911841"><ele>220.0</ele><time>2026-04-24T14:02:36.96Z</time></trkpt><trkpt lat="45.6277266" lon="9.491134"><ele>220.0</ele><time>2026-04-24T14:02:37.959Z</time></trkpt><trkpt lat="45.6276589" lon="9.4910899"><ele>219.99999999999997</ele><time>2026-04-24T14:02:38.959Z</time></trkpt><trkpt lat="45.6275936" lon="9.4910455"><ele>220.0</ele><time>2026-04-24T14:02:39.959Z</time></trkpt><trkpt lat="45.6275285" lon="9.4910071"><ele>219.7142857142857</ele><time>2026-04-24T14:02:40.96Z</time></trkpt><trkpt lat="45.6274643" lon="9.4909616"><ele>219.42857142857142</ele><time>2026-04-24T14:02:41.959Z</time></trkpt><trkpt lat="45.6274019" lon="9.4909127"><ele>219.14285714285714</ele><time>2026-04-24T14:02:42.959Z</time></trkpt><trkpt lat="45.6273299" lon="9.4908711"><ele>218.85714285714283</ele><time>2026-04-24T14:02:43.96Z</time></trkpt><trkpt lat="45.6272665" lon="9.49082"><ele>218.57142857142858</ele><time>2026-04-24T14:02:44.959Z</time></trkpt><trkpt lat="45.6271989" lon="9.4907819"><ele>218.28571428571428</ele><time>2026-04-24T14:02:45.959Z</time></trkpt><trkpt lat="45.6271308" lon="9.4907412"><ele>218.0</ele><time>2026-04-24T14:02:46.959Z</time></trkpt><trkpt lat="45.627065" lon="9.4906897"><ele>218.0</ele><time>2026-04-24T14:02:47.959Z</time></trkpt><trkpt lat="45.627002" lon="9.490648"><ele>218.0</ele><time>2026-04-24T14:02:48.96Z</time></trkpt><trkpt lat="45.6269369" lon="9.4906102"><ele>218.0</ele><time>2026-04-24T14:02:49.959Z</time></trkpt><trkpt lat="45.6268734" lon="9.4905624"><ele>218.0</ele><time>2026-04-24T14:02:50.959Z</time></trkpt><trkpt lat="45.6268044" lon="9.4905186"><ele>218.0</ele><time>2026-04-24T14:02:51.959Z</time></trkpt><trkpt lat="45.6267378" lon="9.4904717"><ele>218.0</ele><time>2026-04-24T14:02:52.959Z</time></trkpt><trkpt lat="45.6266714" lon="9.4904209"><ele>218.0</ele><time>2026-04-24T14:02:53.959Z</time></trkpt><trkpt lat="45.626605" lon="9.4903846"><ele>218.0</ele><time>2026-04-24T14:02:54.959Z</time></trkpt><trkpt lat="45.6265367" lon="9.4903347"><ele>218.0</ele><time>2026-04-24T14:02:55.959Z</time></trkpt><trkpt lat="45.626472" lon="9.490298"><ele>218.0</ele><time>2026-04-24T14:02:56.959Z</time></trkpt><trkpt lat="45.6264098" lon="9.4902588"><ele>218.0</ele><time>2026-04-24T14:02:57.959Z</time></trkpt><trkpt lat="45.6263428" lon="9.4902125"><ele>218.0</ele><time>2026-04-24T14:02:58.959Z</time></trkpt><trkpt lat="45.6262769" lon="9.4901656"><ele>218.0</ele><time>2026-04-24T14:02:59.959Z</time></trkpt><trkpt lat="45.6262074" lon="9.4901233"><ele>218.0</ele><time>2026-04-24T14:03:00.96Z</time></trkpt><trkpt lat="45.6261425" lon="9.4900835"><ele>218.33333333333334</ele><time>2026-04-24T14:03:01.959Z</time></trkpt><trkpt lat="45.6260667" lon="9.4900186"><ele>218.66666666666669</ele><time>2026-04-24T14:03:02.959Z</time></trkpt><trkpt lat="45.625941" lon="9.4899521"><ele>219.0</ele><time>2026-04-24T14:03:04.96Z</time></trkpt><trkpt lat="45.625873" lon="9.4899117"><ele>219.33333333333331</ele><time>2026-04-24T14:03:05.96Z</time></trkpt><trkpt lat="45.6258096" lon="9.4898639"><ele>219.66666666666666</ele><time>2026-04-24T14:03:06.959Z</time></trkpt><trkpt lat="45.6257395" lon="9.4898271"><ele>220.0</ele><time>2026-04-24T14:03:07.959Z</time></trkpt><trkpt lat="45.6256751" lon="9.4897915"><ele>219.99999999999997</ele><time>2026-04-24T14:03:08.959Z</time></trkpt><trkpt lat="45.6256085" lon="9.4897259"><ele>220.0</ele><time>2026-04-24T14:03:09.959Z</time></trkpt><trkpt lat="45.6255385" lon="9.4896811"><ele>220.0</ele><time>2026-04-24T14:03:10.959Z</time></trkpt><trkpt lat="45.6254715" lon="9.4896281"><ele>220.0</ele><time>2026-04-24T14:03:11.959Z</time></trkpt><trkpt lat="45.6254017" lon="9.4895748"><ele>219.99999999999997</ele><time>2026-04-24T14:03:12.959Z</time></trkpt><trkpt lat="45.625335" lon="9.4895371"><ele>220.0</ele><time>2026-04-24T14:03:13.96Z</time></trkpt><trkpt lat="45.6252658" lon="9.4894916"><ele>219.16666666666666</ele><time>2026-04-24T14:03:14.959Z</time></trkpt><trkpt lat="45.6252014" lon="9.4894408"><ele>218.33333333333331</ele><time>2026-04-24T14:03:15.959Z</time></trkpt><trkpt lat="45.6251271" lon="9.489391"><ele>217.5</ele><time>2026-04-24T14:03:16.959Z</time></trkpt><trkpt lat="45.6250036" lon="9.4893151"><ele>216.66666666666669</ele><time>2026-04-24T14:03:18.959Z</time></trkpt><trkpt lat="45.6249401" lon="9.4892781"><ele>215.83333333333334</ele><time>2026-04-24T14:03:19.96Z</time></trkpt><trkpt lat="45.6248731" lon="9.4892349"><ele>215.0</ele><time>2026-04-24T14:03:20.959Z</time></trkpt><trkpt lat="45.6248057" lon="9.4891755"><ele>215.0</ele><time>2026-04-24T14:03:21.959Z</time></trkpt><trkpt lat="45.6247398" lon="9.4891345"><ele>215.0</ele><time>2026-04-24T14:03:22.959Z</time></trkpt><trkpt lat="45.6246811" lon="9.4890869"><ele>215.0</ele><time>2026-04-24T14:03:23.959Z</time></trkpt><trkpt lat="45.6245933" lon="9.4889478"><ele>215.0</ele><time>2026-04-24T14:03:25.959Z</time></trkpt><trkpt lat="45.6246145" lon="9.4887861"><ele>215.0</ele><time>2026-04-24T14:03:27.96Z</time></trkpt><trkpt lat="45.6246716" lon="9.4886471"><ele>215.2</ele><time>2026-04-24T14:03:29.959Z</time></trkpt><trkpt lat="45.624734" lon="9.4885075"><ele>215.4</ele><time>2026-04-24T14:03:31.96Z</time></trkpt><trkpt lat="45.6247646" lon="9.4884281"><ele>215.60000000000002</ele><time>2026-04-24T14:03:32.96Z</time></trkpt><trkpt lat="45.6248254" lon="9.4882711"><ele>215.8</ele><time>2026-04-24T14:03:34.959Z</time></trkpt><trkpt lat="45.6248743" lon="9.4881319"><ele>216.0</ele><time>2026-04-24T14:03:36.96Z</time></trkpt><trkpt lat="45.6249335" lon="9.48798"><ele>215.75</ele><time>2026-04-24T14:03:38.959Z</time></trkpt><trkpt lat="45.6249876" lon="9.4878303"><ele>215.5</ele><time>2026-04-24T14:03:40.959Z</time></trkpt><trkpt lat="45.625054" lon="9.4876825"><ele>215.25</ele><time>2026-04-24T14:03:42.959Z</time></trkpt><trkpt lat="45.6251271" lon="9.4875296"><ele>215.0</ele><time>2026-04-24T14:03:44.959Z</time></trkpt><trkpt lat="45.625194" lon="9.4873829"><ele>215.0</ele><time>2026-04-24T14:03:46.959Z</time></trkpt><trkpt lat="45.6252552" lon="9.4872456"><ele>215.0</ele><time>2026-04-24T14:03:48.959Z</time></trkpt><trkpt lat="45.6253277" lon="9.4871095"><ele>215.0</ele><time>2026-04-24T14:03:50.96Z</time></trkpt><trkpt lat="45.6254039" lon="9.4869689"><ele>215.0</ele><time>2026-04-24T14:03:52.959Z</time></trkpt><trkpt lat="45.6254684" lon="9.4868274"><ele>215.2</ele><time>2026-04-24T14:03:54.959Z</time></trkpt><trkpt lat="45.6255372" lon="9.4866825"><ele>215.4</ele><time>2026-04-24T14:03:56.96Z</time></trkpt><trkpt lat="45.6256037" lon="9.4865335"><ele>215.60000000000002</ele><time>2026-04-24T14:03:58.96Z</time></trkpt><trkpt lat="45.6256672" lon="9.4863927"><ele>215.8</ele><time>2026-04-24T14:04:00.96Z</time></trkpt><trkpt lat="45.6256995" lon="9.4863147"><ele>216.0</ele><time>2026-04-24T14:04:01.959Z</time></trkpt><trkpt lat="45.6257296" lon="9.486235"><ele>216.16666666666666</ele><time>2026-04-24T14:04:02.96Z</time></trkpt><trkpt lat="45.6257808" lon="9.486075"><ele>216.33333333333331</ele><time>2026-04-24T14:04:04.96Z</time></trkpt><trkpt lat="45.6258339" lon="9.4859245"><ele>216.5</ele><time>2026-04-24T14:04:06.96Z</time></trkpt><trkpt lat="45.6258611" lon="9.4858404"><ele>216.66666666666666</ele><time>2026-04-24T14:04:07.959Z</time></trkpt><trkpt lat="45.6258897" lon="9.4857588"><ele>216.83333333333331</ele><time>2026-04-24T14:04:08.959Z</time></trkpt><trkpt lat="45.62592" lon="9.4856794"><ele>217.0</ele><time>2026-04-24T14:04:09.959Z</time></trkpt><trkpt lat="45.6259673" lon="9.4855163"><ele>217.0</ele><time>2026-04-24T14:04:11.959Z</time></trkpt><trkpt lat="45.625994" lon="9.4854269"><ele>217.0</ele><time>2026-04-24T14:04:12.96Z</time></trkpt><trkpt lat="45.6260516" lon="9.4852745"><ele>217.0</ele><time>2026-04-24T14:04:14.959Z</time></trkpt><trkpt lat="45.6260778" lon="9.485192"><ele>217.0</ele><time>2026-04-24T14:04:15.959Z</time></trkpt><trkpt lat="45.626129" lon="9.4850276"><ele>217.0</ele><time>2026-04-24T14:04:17.959Z</time></trkpt><trkpt lat="45.6261824" lon="9.4848663"><ele>217.2</ele><time>2026-04-24T14:04:19.959Z</time></trkpt><trkpt lat="45.6262334" lon="9.4847109"><ele>217.39999999999998</ele><time>2026-04-24T14:04:21.96Z</time></trkpt><trkpt lat="45.6262892" lon="9.484548"><ele>217.60000000000002</ele><time>2026-04-24T14:04:23.959Z</time></trkpt><trkpt lat="45.6263183" lon="9.4844628"><ele>217.8</ele><time>2026-04-24T14:04:24.959Z</time></trkpt><trkpt lat="45.6263738" lon="9.4842961"><ele>218.0</ele><time>2026-04-24T14:04:26.959Z</time></trkpt><trkpt lat="45.6264271" lon="9.4841376"><ele>218.16666666666669</ele><time>2026-04-24T14:04:28.959Z</time></trkpt><trkpt lat="45.6264588" lon="9.4840575"><ele>218.33333333333334</ele><time>2026-04-24T14:04:29.959Z</time></trkpt><trkpt lat="45.6264868" lon="9.4839742"><ele>218.5</ele><time>2026-04-24T14:04:30.959Z</time></trkpt><trkpt lat="45.6265158" lon="9.4838862"><ele>218.66666666666669</ele><time>2026-04-24T14:04:31.959Z</time></trkpt><trkpt lat="45.6265799" lon="9.483734"><ele>218.83333333333334</ele><time>2026-04-24T14:04:33.96Z</time></trkpt><trkpt lat="45.626611" lon="9.4836516"><ele>219.0</ele><time>2026-04-24T14:04:34.959Z</time></trkpt><trkpt lat="45.6266663" lon="9.4834876"><ele>219.0</ele><time>2026-04-24T14:04:36.959Z</time></trkpt><trkpt lat="45.6266983" lon="9.4834042"><ele>218.99999999999997</ele><time>2026-04-24T14:04:37.959Z</time></trkpt><trkpt lat="45.6267495" lon="9.483244"><ele>218.99999999999997</ele><time>2026-04-24T14:04:39.96Z</time></trkpt><trkpt lat="45.6268066" lon="9.4830848"><ele>219.0</ele><time>2026-04-24T14:04:41.959Z</time></trkpt><trkpt lat="45.6268497" lon="9.4829336"><ele>219.0</ele><time>2026-04-24T14:04:43.96Z</time></trkpt><trkpt lat="45.6268802" lon="9.4828512"><ele>219.0</ele><time>2026-04-24T14:04:44.959Z</time></trkpt><trkpt lat="45.6269282" lon="9.4826831"><ele>218.99999999999997</ele><time>2026-04-24T14:04:46.96Z</time></trkpt><trkpt lat="45.6269821" lon="9.4825178"><ele>218.99999999999997</ele><time>2026-04-24T14:04:48.96Z</time></trkpt><trkpt lat="45.6270128" lon="9.4824265"><ele>219.0</ele><time>2026-04-24T14:04:49.96Z</time></trkpt><trkpt lat="45.627033" lon="9.4823397"><ele>219.0</ele><time>2026-04-24T14:04:50.959Z</time></trkpt><trkpt lat="45.6270626" lon="9.4822551"><ele>219.0</ele><time>2026-04-24T14:04:51.96Z</time></trkpt><trkpt lat="45.6270882" lon="9.4821696"><ele>218.99999999999997</ele><time>2026-04-24T14:04:52.959Z</time></trkpt><trkpt lat="45.627115" lon="9.4820819"><ele>218.99999999999997</ele><time>2026-04-24T14:04:53.959Z</time></trkpt><trkpt lat="45.6271685" lon="9.4819215"><ele>219.0</ele><time>2026-04-24T14:04:55.959Z</time></trkpt><trkpt lat="45.6272026" lon="9.4818336"><ele>219.0</ele><time>2026-04-24T14:04:56.959Z</time></trkpt><trkpt lat="45.6272577" lon="9.4816728"><ele>219.0</ele><time>2026-04-24T14:04:58.959Z</time></trkpt><trkpt lat="45.627295" lon="9.4815866"><ele>218.99999999999997</ele><time>2026-04-24T14:04:59.959Z</time></trkpt><trkpt lat="45.6273305" lon="9.4815056"><ele>218.99999999999997</ele><time>2026-04-24T14:05:00.959Z</time></trkpt><trkpt lat="45.6273661" lon="9.4814222"><ele>219.0</ele><time>2026-04-24T14:05:01.959Z</time></trkpt><trkpt lat="45.6274272" lon="9.4812562"><ele>219.0</ele><time>2026-04-24T14:05:03.96Z</time></trkpt><trkpt lat="45.6274889" lon="9.4811017"><ele>219.0</ele><time>2026-04-24T14:05:05.959Z</time></trkpt><trkpt lat="45.627553" lon="9.4809399"><ele>218.99999999999997</ele><time>2026-04-24T14:05:07.96Z</time></trkpt><trkpt lat="45.6275828" lon="9.4808548"><ele>218.99999999999997</ele><time>2026-04-24T14:05:08.959Z</time></trkpt><trkpt lat="45.6276195" lon="9.4807605"><ele>219.0</ele><time>2026-04-24T14:05:09.959Z</time></trkpt><trkpt lat="45.62765" lon="9.480679"><ele>219.0</ele><time>2026-04-24T14:05:10.959Z</time></trkpt><trkpt lat="45.6277134" lon="9.4805184"><ele>219.16666666666666</ele><time>2026-04-24T14:05:12.959Z</time></trkpt><trkpt lat="45.6277652" lon="9.4803488"><ele>219.33333333333331</ele><time>2026-04-24T14:05:14.96Z</time></trkpt><trkpt lat="45.6278008" lon="9.4802599"><ele>219.5</ele><time>2026-04-24T14:05:15.959Z</time></trkpt><trkpt lat="45.6278303" lon="9.4801728"><ele>219.66666666666666</ele><time>2026-04-24T14:05:16.959Z</time></trkpt><trkpt lat="45.6278639" lon="9.4800939"><ele>219.83333333333331</ele><time>2026-04-24T14:05:17.96Z</time></trkpt><trkpt lat="45.6278997" lon="9.4800112"><ele>220.0</ele><time>2026-04-24T14:05:18.96Z</time></trkpt><trkpt lat="45.6279249" lon="9.4799274"><ele>219.99999999999997</ele><time>2026-04-24T14:05:19.96Z</time></trkpt><trkpt lat="45.6279758" lon="9.4797653"><ele>220.0</ele><time>2026-04-24T14:05:21.96Z</time></trkpt><trkpt lat="45.6280075" lon="9.4796815"><ele>220.0</ele><time>2026-04-24T14:05:22.959Z</time></trkpt><trkpt lat="45.6280415" lon="9.4795999"><ele>220.0</ele><time>2026-04-24T14:05:23.96Z</time></trkpt><trkpt lat="45.6280679" lon="9.4795138"><ele>219.99999999999997</ele><time>2026-04-24T14:05:24.959Z</time></trkpt><trkpt lat="45.6281224" lon="9.4793554"><ele>220.0</ele><time>2026-04-24T14:05:26.959Z</time></trkpt><trkpt lat="45.6281848" lon="9.4791892"><ele>219.83333333333331</ele><time>2026-04-24T14:05:28.96Z</time></trkpt><trkpt lat="45.6282315" lon="9.4790262"><ele>219.66666666666666</ele><time>2026-04-24T14:05:30.96Z</time></trkpt><trkpt lat="45.628257" lon="9.4789387"><ele>219.5</ele><time>2026-04-24T14:05:31.959Z</time></trkpt><trkpt lat="45.6282886" lon="9.4788525"><ele>219.33333333333331</ele><time>2026-04-24T14:05:32.96Z</time></trkpt><trkpt lat="45.6283234" lon="9.4787773"><ele>219.16666666666666</ele><time>2026-04-24T14:05:33.96Z</time></trkpt><trkpt lat="45.6283564" lon="9.4786981"><ele>219.0</ele><time>2026-04-24T14:05:34.96Z</time></trkpt><trkpt lat="45.6284089" lon="9.478533"><ele>219.0</ele><time>2026-04-24T14:05:36.96Z</time></trkpt><trkpt lat="45.6284707" lon="9.478373"><ele>219.0</ele><time>2026-04-24T14:05:38.959Z</time></trkpt><trkpt lat="45.628533" lon="9.4782189"><ele>219.0</ele><time>2026-04-24T14:05:40.959Z</time></trkpt><trkpt lat="45.6285917" lon="9.4780593"><ele>219.0</ele><time>2026-04-24T14:05:42.959Z</time></trkpt><trkpt lat="45.6286513" lon="9.4778885"><ele>220.5</ele><time>2026-04-24T14:05:44.96Z</time></trkpt><trkpt lat="45.6286798" lon="9.4778042"><ele>222.0</ele><time>2026-04-24T14:05:45.959Z</time></trkpt><trkpt lat="45.6287106" lon="9.4777166"><ele>223.5</ele><time>2026-04-24T14:05:46.959Z</time></trkpt><trkpt lat="45.6287366" lon="9.4776301"><ele>225.0</ele><time>2026-04-24T14:05:47.959Z</time></trkpt><trkpt lat="45.6287904" lon="9.4774622"><ele>226.5</ele><time>2026-04-24T14:05:49.959Z</time></trkpt><trkpt lat="45.6288187" lon="9.4773711"><ele>228.0</ele><time>2026-04-24T14:05:50.959Z</time></trkpt><trkpt lat="45.6288364" lon="9.4772837"><ele>228.0</ele><time>2026-04-24T14:05:51.959Z</time></trkpt><trkpt lat="45.6288921" lon="9.4771216"><ele>228.0</ele><time>2026-04-24T14:05:53.959Z</time></trkpt><trkpt lat="45.6289208" lon="9.4770221"><ele>228.0</ele><time>2026-04-24T14:05:54.959Z</time></trkpt><trkpt lat="45.6289675" lon="9.47686"><ele>228.0</ele><time>2026-04-24T14:05:56.96Z</time></trkpt><trkpt lat="45.6290179" lon="9.4766959"><ele>228.0</ele><time>2026-04-24T14:05:58.959Z</time></trkpt><trkpt lat="45.6290693" lon="9.4765363"><ele>228.0</ele><time>2026-04-24T14:06:00.96Z</time></trkpt><trkpt lat="45.6290938" lon="9.4764516"><ele>228.0</ele><time>2026-04-24T14:06:01.959Z</time></trkpt><trkpt lat="45.6291484" lon="9.4762838"><ele>228.0</ele><time>2026-04-24T14:06:03.959Z</time></trkpt><trkpt lat="45.6291661" lon="9.4761902"><ele>228.0</ele><time>2026-04-24T14:06:04.959Z</time></trkpt><trkpt lat="45.6291889" lon="9.4761021"><ele>228.0</ele><time>2026-04-24T14:06:05.959Z</time></trkpt><trkpt lat="45.629225" lon="9.4759374"><ele>228.0</ele><time>2026-04-24T14:06:07.959Z</time></trkpt><trkpt lat="45.6292489" lon="9.4758527"><ele>227.83333333333334</ele><time>2026-04-24T14:06:08.959Z</time></trkpt><trkpt lat="45.629267" lon="9.4757647"><ele>227.66666666666669</ele><time>2026-04-24T14:06:09.959Z</time></trkpt><trkpt lat="45.6292897" lon="9.4756787"><ele>227.5</ele><time>2026-04-24T14:06:10.96Z</time></trkpt><trkpt lat="45.6293098" lon="9.4755929"><ele>227.33333333333334</ele><time>2026-04-24T14:06:11.96Z</time></trkpt><trkpt lat="45.6293322" lon="9.4755046"><ele>227.16666666666669</ele><time>2026-04-24T14:06:12.959Z</time></trkpt><trkpt lat="45.6293728" lon="9.4753284"><ele>227.0</ele><time>2026-04-24T14:06:14.959Z</time></trkpt><trkpt lat="45.6293892" lon="9.4752407"><ele>226.6</ele><time>2026-04-24T14:06:15.959Z</time></trkpt><trkpt lat="45.6294342" lon="9.4750714"><ele>226.2</ele><time>2026-04-24T14:06:17.959Z</time></trkpt><trkpt lat="45.6294688" lon="9.4749008"><ele>225.8</ele><time>2026-04-24T14:06:19.959Z</time></trkpt><trkpt lat="45.6294918" lon="9.4748112"><ele>225.4</ele><time>2026-04-24T14:06:20.959Z</time></trkpt><trkpt lat="45.6295148" lon="9.4747221"><ele>225.0</ele><time>2026-04-24T14:06:21.959Z</time></trkpt><trkpt lat="45.629552" lon="9.4746409"><ele>225.2</ele><time>2026-04-24T14:06:22.959Z</time></trkpt><trkpt lat="45.6296287" lon="9.4744921"><ele>225.4</ele><time>2026-04-24T14:06:24.959Z</time></trkpt><trkpt lat="45.6296743" lon="9.4744129"><ele>225.60000000000002</ele><time>2026-04-24T14:06:25.96Z</time></trkpt><trkpt lat="45.6297198" lon="9.474348"><ele>225.8</ele><time>2026-04-24T14:06:26.959Z</time></trkpt><trkpt lat="45.6297649" lon="9.4742685"><ele>226.0</ele><time>2026-04-24T14:06:27.959Z</time></trkpt><trkpt lat="45.6298408" lon="9.474147"><ele>226.0</ele><time>2026-04-24T14:06:29.96Z</time></trkpt><trkpt lat="45.6298865" lon="9.4740726"><ele>226.00000000000003</ele><time>2026-04-24T14:06:30.959Z</time></trkpt><trkpt lat="45.6299259" lon="9.4740016"><ele>226.00000000000003</ele><time>2026-04-24T14:06:31.96Z</time></trkpt><trkpt lat="45.6300119" lon="9.4738621"><ele>226.0</ele><time>2026-04-24T14:06:33.96Z</time></trkpt><trkpt lat="45.6300867" lon="9.4737129"><ele>226.0</ele><time>2026-04-24T14:06:35.96Z</time></trkpt><trkpt lat="45.63013" lon="9.4736422"><ele>225.4</ele><time>2026-04-24T14:06:36.959Z</time></trkpt><trkpt lat="45.6301991" lon="9.4734999"><ele>224.8</ele><time>2026-04-24T14:06:38.959Z</time></trkpt><trkpt lat="45.6302426" lon="9.4734256"><ele>224.20000000000002</ele><time>2026-04-24T14:06:39.959Z</time></trkpt><trkpt lat="45.6302872" lon="9.4733557"><ele>223.60000000000002</ele><time>2026-04-24T14:06:40.959Z</time></trkpt><trkpt lat="45.6303389" lon="9.4732751"><ele>223.0</ele><time>2026-04-24T14:06:41.96Z</time></trkpt><trkpt lat="45.6304171" lon="9.4731468"><ele>223.0</ele><time>2026-04-24T14:06:43.959Z</time></trkpt><trkpt lat="45.630491" lon="9.4730514"><ele>223.0</ele><time>2026-04-24T14:06:45.959Z</time></trkpt><trkpt lat="45.6305896" lon="9.4730002"><ele>223.0</ele><time>2026-04-24T14:06:47.959Z</time></trkpt><trkpt lat="45.6306556" lon="9.4729839"><ele>223.0</ele><time>2026-04-24T14:06:48.959Z</time></trkpt><trkpt lat="45.6307715" lon="9.472975"><ele>223.0</ele><time>2026-04-24T14:06:50.959Z</time></trkpt><trkpt lat="45.6308765" lon="9.4729947"><ele>223.2</ele><time>2026-04-24T14:06:52.96Z</time></trkpt><trkpt lat="45.6309544" lon="9.4729054"><ele>223.4</ele><time>2026-04-24T14:06:54.959Z</time></trkpt><trkpt lat="45.6310318" lon="9.4727846"><ele>223.59999999999997</ele><time>2026-04-24T14:06:56.959Z</time></trkpt><trkpt lat="45.631069" lon="9.4727065"><ele>223.79999999999998</ele><time>2026-04-24T14:06:57.959Z</time></trkpt><trkpt lat="45.6311233" lon="9.4726125"><ele>224.0</ele><time>2026-04-24T14:06:59.959Z</time></trkpt><trkpt lat="45.6311974" lon="9.4724803"><ele>224.2</ele><time>2026-04-24T14:07:01.959Z</time></trkpt><trkpt lat="45.6312483" lon="9.4724197"><ele>224.39999999999998</ele><time>2026-04-24T14:07:02.959Z</time></trkpt><trkpt lat="45.6313171" lon="9.4722719"><ele>224.6</ele><time>2026-04-24T14:07:04.96Z</time></trkpt><trkpt lat="45.6313767" lon="9.4721523"><ele>224.8</ele><time>2026-04-24T14:07:06.959Z</time></trkpt><trkpt lat="45.6314272" lon="9.4720136"><ele>225.0</ele><time>2026-04-24T14:07:08.959Z</time></trkpt><trkpt lat="45.6314611" lon="9.471916"><ele>225.2</ele><time>2026-04-24T14:07:10.959Z</time></trkpt><trkpt lat="45.631518" lon="9.4717821"><ele>225.4</ele><time>2026-04-24T14:07:12.96Z</time></trkpt><trkpt lat="45.6315743" lon="9.4716488"><ele>225.60000000000002</ele><time>2026-04-24T14:07:14.959Z</time></trkpt><trkpt lat="45.631622" lon="9.4715231"><ele>225.8</ele><time>2026-04-24T14:07:16.959Z</time></trkpt><trkpt lat="45.6316622" lon="9.4714148"><ele>226.0</ele><time>2026-04-24T14:07:18.959Z</time></trkpt><trkpt lat="45.631715" lon="9.4712904"><ele>226.0</ele><time>2026-04-24T14:07:20.959Z</time></trkpt><trkpt lat="45.6317594" lon="9.4711793"><ele>226.00000000000003</ele><time>2026-04-24T14:07:22.959Z</time></trkpt><trkpt lat="45.6318079" lon="9.4710338"><ele>226.00000000000003</ele><time>2026-04-24T14:07:25.959Z</time></trkpt><trkpt lat="45.6318217" lon="9.4709309"><ele>226.0</ele><time>2026-04-24T14:07:26.959Z</time></trkpt><trkpt lat="45.6317528" lon="9.4708453"><ele>226.0</ele><time>2026-04-24T14:07:29.959Z</time></trkpt><trkpt lat="45.631674" lon="9.4707724"><ele>226.0</ele><time>2026-04-24T14:07:31.959Z</time></trkpt><trkpt lat="45.6315624" lon="9.4706755"><ele>226.00000000000003</ele><time>2026-04-24T14:07:33.96Z</time></trkpt><trkpt lat="45.6314628" lon="9.4706296"><ele>226.00000000000003</ele><time>2026-04-24T14:07:35.959Z</time></trkpt><trkpt lat="45.631393" lon="9.4705255"><ele>226.0</ele><time>2026-04-24T14:07:37.96Z</time></trkpt><trkpt lat="45.6313575" lon="9.4704125"><ele>226.0</ele><time>2026-04-24T14:07:39.959Z</time></trkpt><trkpt lat="45.6313917" lon="9.4702951"><ele>225.83333333333331</ele><time>2026-04-24T14:07:41.959Z</time></trkpt><trkpt lat="45.6314306" lon="9.4701715"><ele>225.66666666666666</ele><time>2026-04-24T14:07:43.959Z</time></trkpt><trkpt lat="45.6314615" lon="9.4700585"><ele>225.5</ele><time>2026-04-24T14:07:45.959Z</time></trkpt><trkpt lat="45.6315132" lon="9.469936"><ele>225.33333333333331</ele><time>2026-04-24T14:07:47.959Z</time></trkpt><trkpt lat="45.6315496" lon="9.4698504"><ele>225.16666666666666</ele><time>2026-04-24T14:07:49.959Z</time></trkpt><trkpt lat="45.6315837" lon="9.4697532"><ele>225.0</ele><time>2026-04-24T14:07:51.96Z</time></trkpt><trkpt lat="45.6316183" lon="9.4696621"><ele>225.0</ele><time>2026-04-24T14:07:53.959Z</time></trkpt><trkpt lat="45.6316481" lon="9.4695394"><ele>225.0</ele><time>2026-04-24T14:07:55.959Z</time></trkpt><trkpt lat="45.6316766" lon="9.4694222"><ele>225.0</ele><time>2026-04-24T14:07:57.959Z</time></trkpt><trkpt lat="45.6317098" lon="9.4693065"><ele>225.0</ele><time>2026-04-24T14:07:59.96Z</time></trkpt><trkpt lat="45.6317341" lon="9.4691697"><ele>225.0</ele><time>2026-04-24T14:08:01.959Z</time></trkpt><trkpt lat="45.6317651" lon="9.4690112"><ele>225.0</ele><time>2026-04-24T14:08:03.959Z</time></trkpt><trkpt lat="45.6318031" lon="9.4688624"><ele>225.0</ele><time>2026-04-24T14:08:05.96Z</time></trkpt><trkpt lat="45.6318454" lon="9.4687111"><ele>225.0</ele><time>2026-04-24T14:08:07.959Z</time></trkpt><trkpt lat="45.6318854" lon="9.468555"><ele>225.0</ele><time>2026-04-24T14:08:09.96Z</time></trkpt><trkpt lat="45.6319234" lon="9.4683982"><ele>225.2</ele><time>2026-04-24T14:08:11.959Z</time></trkpt><trkpt lat="45.6319622" lon="9.4682415"><ele>225.4</ele><time>2026-04-24T14:08:13.959Z</time></trkpt><trkpt lat="45.631996" lon="9.4680966"><ele>225.60000000000002</ele><time>2026-04-24T14:08:15.959Z</time></trkpt><trkpt lat="45.6320298" lon="9.4679442"><ele>225.8</ele><time>2026-04-24T14:08:17.96Z</time></trkpt><trkpt lat="45.6320573" lon="9.4677924"><ele>226.0</ele><time>2026-04-24T14:08:19.96Z</time></trkpt><trkpt lat="45.6320962" lon="9.4676429"><ele>226.0</ele><time>2026-04-24T14:08:21.959Z</time></trkpt><trkpt lat="45.6321427" lon="9.467489"><ele>226.0</ele><time>2026-04-24T14:08:23.959Z</time></trkpt><trkpt lat="45.63218" lon="9.4673448"><ele>226.0</ele><time>2026-04-24T14:08:25.959Z</time></trkpt><trkpt lat="45.6322219" lon="9.4671981"><ele>226.0</ele><time>2026-04-24T14:08:27.959Z</time></trkpt><trkpt lat="45.6322632" lon="9.4670394"><ele>226.5</ele><time>2026-04-24T14:08:29.96Z</time></trkpt><trkpt lat="45.6323036" lon="9.4668849"><ele>227.0</ele><time>2026-04-24T14:08:31.96Z</time></trkpt><trkpt lat="45.6323541" lon="9.4667097"><ele>227.5</ele><time>2026-04-24T14:08:33.96Z</time></trkpt><trkpt lat="45.632395" lon="9.466552"><ele>228.0</ele><time>2026-04-24T14:08:35.96Z</time></trkpt><trkpt lat="45.6324224" lon="9.4664075"><ele>228.4</ele><time>2026-04-24T14:08:37.959Z</time></trkpt><trkpt lat="45.6324541" lon="9.4662497"><ele>228.8</ele><time>2026-04-24T14:08:39.959Z</time></trkpt><trkpt lat="45.6324904" lon="9.466087"><ele>229.2</ele><time>2026-04-24T14:08:41.959Z</time></trkpt><trkpt lat="45.6325033" lon="9.4659963"><ele>229.6</ele><time>2026-04-24T14:08:42.959Z</time></trkpt><trkpt lat="45.6325304" lon="9.465905"><ele>230.0</ele><time>2026-04-24T14:08:43.96Z</time></trkpt><trkpt lat="45.6325737" lon="9.465759"><ele>230.0</ele><time>2026-04-24T14:08:45.959Z</time></trkpt><trkpt lat="45.6326127" lon="9.4655955"><ele>230.0</ele><time>2026-04-24T14:08:47.96Z</time></trkpt><trkpt lat="45.6326394" lon="9.4655051"><ele>230.0</ele><time>2026-04-24T14:08:48.959Z</time></trkpt><trkpt lat="45.6326881" lon="9.4653461"><ele>230.0</ele><time>2026-04-24T14:08:50.959Z</time></trkpt><trkpt lat="45.6327399" lon="9.465199"><ele>230.0</ele><time>2026-04-24T14:08:52.959Z</time></trkpt><trkpt lat="45.6327925" lon="9.4650529"><ele>230.0</ele><time>2026-04-24T14:08:54.96Z</time></trkpt><trkpt lat="45.6328273" lon="9.4648951"><ele>230.0</ele><time>2026-04-24T14:08:56.96Z</time></trkpt><trkpt lat="45.6328648" lon="9.4647486"><ele>230.0</ele><time>2026-04-24T14:08:58.959Z</time></trkpt><trkpt lat="45.6329059" lon="9.4645997"><ele>230.0</ele><time>2026-04-24T14:09:00.959Z</time></trkpt><trkpt lat="45.6329478" lon="9.4644382"><ele>229.8</ele><time>2026-04-24T14:09:02.959Z</time></trkpt><trkpt lat="45.6329772" lon="9.4642893"><ele>229.6</ele><time>2026-04-24T14:09:04.96Z</time></trkpt><trkpt lat="45.6330152" lon="9.4641532"><ele>229.39999999999998</ele><time>2026-04-24T14:09:06.96Z</time></trkpt><trkpt lat="45.6330509" lon="9.4640071"><ele>229.2</ele><time>2026-04-24T14:09:08.96Z</time></trkpt><trkpt lat="45.6330803" lon="9.4638529"><ele>229.0</ele><time>2026-04-24T14:09:10.959Z</time></trkpt><trkpt lat="45.6331282" lon="9.4636898"><ele>228.99999999999997</ele><time>2026-04-24T14:09:12.959Z</time></trkpt><trkpt lat="45.6331526" lon="9.4635954"><ele>229.0</ele><time>2026-04-24T14:09:13.959Z</time></trkpt><trkpt lat="45.6332004" lon="9.4634251"><ele>229.0</ele><time>2026-04-24T14:09:15.959Z</time></trkpt><trkpt lat="45.633239" lon="9.4632607"><ele>229.0</ele><time>2026-04-24T14:09:17.959Z</time></trkpt><trkpt lat="45.6332544" lon="9.46317"><ele>228.99999999999997</ele><time>2026-04-24T14:09:18.959Z</time></trkpt><trkpt lat="45.6332738" lon="9.4630829"><ele>229.0</ele><time>2026-04-24T14:09:19.959Z</time></trkpt><trkpt lat="45.6332915" lon="9.4629951"><ele>228.6</ele><time>2026-04-24T14:09:20.96Z</time></trkpt><trkpt lat="45.6333111" lon="9.462908"><ele>228.2</ele><time>2026-04-24T14:09:21.96Z</time></trkpt><trkpt lat="45.6333553" lon="9.4627452"><ele>227.79999999999998</ele><time>2026-04-24T14:09:23.959Z</time></trkpt><trkpt lat="45.6334061" lon="9.462586"><ele>227.39999999999998</ele><time>2026-04-24T14:09:25.959Z</time></trkpt><trkpt lat="45.6334587" lon="9.4624197"><ele>227.0</ele><time>2026-04-24T14:09:27.959Z</time></trkpt><trkpt lat="45.6334862" lon="9.4623377"><ele>227.00000000000003</ele><time>2026-04-24T14:09:28.96Z</time></trkpt><trkpt lat="45.6335475" lon="9.4621855"><ele>227.0</ele><time>2026-04-24T14:09:30.959Z</time></trkpt><trkpt lat="45.6335895" lon="9.4621123"><ele>227.0</ele><time>2026-04-24T14:09:31.959Z</time></trkpt><trkpt lat="45.6336759" lon="9.4619834"><ele>227.0</ele><time>2026-04-24T14:09:33.959Z</time></trkpt><trkpt lat="45.633722" lon="9.4619116"><ele>227.00000000000003</ele><time>2026-04-24T14:09:34.959Z</time></trkpt><trkpt lat="45.6337542" lon="9.4618327"><ele>227.0</ele><time>2026-04-24T14:09:35.959Z</time></trkpt><trkpt lat="45.6337881" lon="9.461663"><ele>227.0</ele><time>2026-04-24T14:09:37.959Z</time></trkpt><trkpt lat="45.6337899" lon="9.4614878"><ele>227.0</ele><time>2026-04-24T14:09:39.96Z</time></trkpt><trkpt lat="45.6337909" lon="9.4613124"><ele>227.0</ele><time>2026-04-24T14:09:41.959Z</time></trkpt><trkpt lat="45.6337994" lon="9.4612159"><ele>227.0</ele><time>2026-04-24T14:09:42.959Z</time></trkpt><trkpt lat="45.6338397" lon="9.4610487"><ele>227.0</ele><time>2026-04-24T14:09:44.96Z</time></trkpt><trkpt lat="45.6338789" lon="9.4608838"><ele>227.0</ele><time>2026-04-24T14:09:46.96Z</time></trkpt><trkpt lat="45.6339184" lon="9.4607111"><ele>227.0</ele><time>2026-04-24T14:09:48.959Z</time></trkpt><trkpt lat="45.6339421" lon="9.4606213"><ele>227.0</ele><time>2026-04-24T14:09:49.959Z</time></trkpt><trkpt lat="45.6339826" lon="9.4604534"><ele>227.0</ele><time>2026-04-24T14:09:51.96Z</time></trkpt><trkpt lat="45.6340067" lon="9.4603676"><ele>227.0</ele><time>2026-04-24T14:09:52.959Z</time></trkpt><trkpt lat="45.6340537" lon="9.4602072"><ele>227.00000000000003</ele><time>2026-04-24T14:09:54.959Z</time></trkpt><trkpt lat="45.6340748" lon="9.4601165"><ele>227.0</ele><time>2026-04-24T14:09:55.959Z</time></trkpt><trkpt lat="45.6340976" lon="9.4600285"><ele>227.0</ele><time>2026-04-24T14:09:56.96Z</time></trkpt><trkpt lat="45.6341249" lon="9.4599409"><ele>227.0</ele><time>2026-04-24T14:09:57.959Z</time></trkpt><trkpt lat="45.6341661" lon="9.4597813"><ele>227.00000000000003</ele><time>2026-04-24T14:09:59.959Z</time></trkpt><trkpt lat="45.6342055" lon="9.459617"><ele>227.0</ele><time>2026-04-24T14:10:01.959Z</time></trkpt><trkpt lat="45.6342265" lon="9.459527"><ele>226.83333333333334</ele><time>2026-04-24T14:10:02.959Z</time></trkpt><trkpt lat="45.6342442" lon="9.4594361"><ele>226.66666666666669</ele><time>2026-04-24T14:10:03.959Z</time></trkpt><trkpt lat="45.6342716" lon="9.4593491"><ele>226.5</ele><time>2026-04-24T14:10:04.96Z</time></trkpt><trkpt lat="45.6343221" lon="9.4591813"><ele>226.33333333333331</ele><time>2026-04-24T14:10:06.96Z</time></trkpt><trkpt lat="45.6343508" lon="9.4590943"><ele>226.16666666666666</ele><time>2026-04-24T14:10:07.959Z</time></trkpt><trkpt lat="45.6343688" lon="9.4590009"><ele>226.0</ele><time>2026-04-24T14:10:08.959Z</time></trkpt><trkpt lat="45.6343907" lon="9.4589123"><ele>226.0</ele><time>2026-04-24T14:10:09.959Z</time></trkpt><trkpt lat="45.6344114" lon="9.4588246"><ele>226.0</ele><time>2026-04-24T14:10:10.959Z</time></trkpt><trkpt lat="45.6344368" lon="9.4587364"><ele>226.0</ele><time>2026-04-24T14:10:11.959Z</time></trkpt><trkpt lat="45.6344639" lon="9.4586403"><ele>226.0</ele><time>2026-04-24T14:10:12.959Z</time></trkpt><trkpt lat="45.6344872" lon="9.4585462"><ele>226.0</ele><time>2026-04-24T14:10:13.959Z</time></trkpt><trkpt lat="45.6345073" lon="9.4584504"><ele>226.0</ele><time>2026-04-24T14:10:14.96Z</time></trkpt><trkpt lat="45.6345323" lon="9.4583562"><ele>226.0</ele><time>2026-04-24T14:10:15.96Z</time></trkpt><trkpt lat="45.6345512" lon="9.4582587"><ele>226.14285714285717</ele><time>2026-04-24T14:10:16.96Z</time></trkpt><trkpt lat="45.6345774" lon="9.458158"><ele>226.28571428571428</ele><time>2026-04-24T14:10:17.959Z</time></trkpt><trkpt lat="45.634602" lon="9.4580647"><ele>226.42857142857144</ele><time>2026-04-24T14:10:18.96Z</time></trkpt><trkpt lat="45.6346264" lon="9.4579701"><ele>226.57142857142858</ele><time>2026-04-24T14:10:19.959Z</time></trkpt><trkpt lat="45.6346501" lon="9.4578739"><ele>226.71428571428572</ele><time>2026-04-24T14:10:20.959Z</time></trkpt><trkpt lat="45.6346769" lon="9.4577778"><ele>226.85714285714286</ele><time>2026-04-24T14:10:21.959Z</time></trkpt><trkpt lat="45.6347111" lon="9.4576835"><ele>227.0</ele><time>2026-04-24T14:10:22.96Z</time></trkpt><trkpt lat="45.6347403" lon="9.4575991"><ele>227.33333333333334</ele><time>2026-04-24T14:10:23.959Z</time></trkpt><trkpt lat="45.6347786" lon="9.4575107"><ele>227.66666666666669</ele><time>2026-04-24T14:10:24.96Z</time></trkpt><trkpt lat="45.6348178" lon="9.4574346"><ele>228.0</ele><time>2026-04-24T14:10:25.959Z</time></trkpt><trkpt lat="45.6348644" lon="9.4573635"><ele>228.33333333333331</ele><time>2026-04-24T14:10:26.959Z</time></trkpt><trkpt lat="45.6349228" lon="9.4572985"><ele>228.66666666666666</ele><time>2026-04-24T14:10:27.959Z</time></trkpt><trkpt lat="45.6350205" lon="9.4571956"><ele>229.0</ele><time>2026-04-24T14:10:29.959Z</time></trkpt><trkpt lat="45.635081" lon="9.4571189"><ele>229.16666666666666</ele><time>2026-04-24T14:10:30.959Z</time></trkpt><trkpt lat="45.6351438" lon="9.4570588"><ele>229.33333333333331</ele><time>2026-04-24T14:10:31.96Z</time></trkpt><trkpt lat="45.6352039" lon="9.4569986"><ele>229.5</ele><time>2026-04-24T14:10:32.959Z</time></trkpt><trkpt lat="45.6352658" lon="9.4569325"><ele>229.66666666666669</ele><time>2026-04-24T14:10:33.959Z</time></trkpt><trkpt lat="45.6353455" lon="9.4568762"><ele>229.83333333333334</ele><time>2026-04-24T14:10:34.959Z</time></trkpt><trkpt lat="45.6354122" lon="9.4568145"><ele>230.0</ele><time>2026-04-24T14:10:35.96Z</time></trkpt><trkpt lat="45.6354758" lon="9.4567588"><ele>229.33333333333334</ele><time>2026-04-24T14:10:36.96Z</time></trkpt><trkpt lat="45.635539" lon="9.4566956"><ele>228.66666666666669</ele><time>2026-04-24T14:10:37.959Z</time></trkpt><trkpt lat="45.6356167" lon="9.4566478"><ele>228.0</ele><time>2026-04-24T14:10:38.959Z</time></trkpt><trkpt lat="45.6356678" lon="9.4565795"><ele>227.33333333333331</ele><time>2026-04-24T14:10:39.96Z</time></trkpt><trkpt lat="45.6357713" lon="9.4564629"><ele>226.66666666666666</ele><time>2026-04-24T14:10:41.96Z</time></trkpt><trkpt lat="45.6358275" lon="9.456418"><ele>226.0</ele><time>2026-04-24T14:10:42.959Z</time></trkpt><trkpt lat="45.6359346" lon="9.4563107"><ele>225.99999999999997</ele><time>2026-04-24T14:10:44.959Z</time></trkpt><trkpt lat="45.6359949" lon="9.4562616"><ele>226.0</ele><time>2026-04-24T14:10:45.959Z</time></trkpt><trkpt lat="45.6360956" lon="9.4561667"><ele>226.0</ele><time>2026-04-24T14:10:47.959Z</time></trkpt><trkpt lat="45.6361542" lon="9.4561079"><ele>226.0</ele><time>2026-04-24T14:10:48.959Z</time></trkpt><trkpt lat="45.6362087" lon="9.4560508"><ele>225.99999999999997</ele><time>2026-04-24T14:10:49.959Z</time></trkpt><trkpt lat="45.6362604" lon="9.4559966"><ele>226.0</ele><time>2026-04-24T14:10:50.96Z</time></trkpt><trkpt lat="45.6363182" lon="9.4559414"><ele>225.99999999999997</ele><time>2026-04-24T14:10:51.959Z</time></trkpt><trkpt lat="45.6363738" lon="9.4558882"><ele>226.0</ele><time>2026-04-24T14:10:52.959Z</time></trkpt><trkpt lat="45.6364774" lon="9.4557937"><ele>226.0</ele><time>2026-04-24T14:10:54.959Z</time></trkpt><trkpt lat="45.6365372" lon="9.455745"><ele>226.0</ele><time>2026-04-24T14:10:55.959Z</time></trkpt><trkpt lat="45.6365981" lon="9.4556982"><ele>225.99999999999997</ele><time>2026-04-24T14:10:56.959Z</time></trkpt><trkpt lat="45.6366937" lon="9.4556204"><ele>226.0</ele><time>2026-04-24T14:10:58.96Z</time></trkpt><trkpt lat="45.6367834" lon="9.4555263"><ele>225.99999999999997</ele><time>2026-04-24T14:11:00.959Z</time></trkpt><trkpt lat="45.6368725" lon="9.4554421"><ele>226.0</ele><time>2026-04-24T14:11:02.959Z</time></trkpt><trkpt lat="45.6369561" lon="9.455368"><ele>226.0</ele><time>2026-04-24T14:11:04.959Z</time></trkpt><trkpt lat="45.637031" lon="9.4553082"><ele>226.0</ele><time>2026-04-24T14:11:06.959Z</time></trkpt><trkpt lat="45.6370959" lon="9.4552525"><ele>225.99999999999997</ele><time>2026-04-24T14:11:08.959Z</time></trkpt><trkpt lat="45.637148" lon="9.455194"><ele>226.0</ele><time>2026-04-24T14:11:10.959Z</time></trkpt><trkpt lat="45.6371776" lon="9.4551018"><ele>226.0</ele><time>2026-04-24T14:11:12.959Z</time></trkpt><trkpt lat="45.637173" lon="9.4549666"><ele>226.00000000000003</ele><time>2026-04-24T14:11:14.959Z</time></trkpt><trkpt lat="45.6371331" lon="9.4548462"><ele>226.00000000000003</ele><time>2026-04-24T14:11:16.96Z</time></trkpt><trkpt lat="45.6370704" lon="9.4547441"><ele>226.0</ele><time>2026-04-24T14:11:18.959Z</time></trkpt><trkpt lat="45.6369928" lon="9.454641"><ele>226.0</ele><time>2026-04-24T14:11:20.959Z</time></trkpt><trkpt lat="45.6368985" lon="9.4545428"><ele>226.20000000000002</ele><time>2026-04-24T14:11:22.96Z</time></trkpt><trkpt lat="45.6367966" lon="9.4544612"><ele>226.40000000000003</ele><time>2026-04-24T14:11:24.959Z</time></trkpt><trkpt lat="45.6366928" lon="9.4543777"><ele>226.6</ele><time>2026-04-24T14:11:26.96Z</time></trkpt><trkpt lat="45.6366338" lon="9.4543362"><ele>226.8</ele><time>2026-04-24T14:11:27.96Z</time></trkpt><trkpt lat="45.6365225" lon="9.4542427"><ele>227.0</ele><time>2026-04-24T14:11:29.959Z</time></trkpt><trkpt lat="45.6364635" lon="9.454203"><ele>227.00000000000003</ele><time>2026-04-24T14:11:30.959Z</time></trkpt><trkpt lat="45.6363532" lon="9.4541223"><ele>227.0</ele><time>2026-04-24T14:11:32.959Z</time></trkpt><trkpt lat="45.6362877" lon="9.4540768"><ele>227.0</ele><time>2026-04-24T14:11:33.959Z</time></trkpt><trkpt lat="45.636227" lon="9.4540287"><ele>227.0</ele><time>2026-04-24T14:11:34.96Z</time></trkpt><trkpt lat="45.6361627" lon="9.4539753"><ele>227.00000000000003</ele><time>2026-04-24T14:11:35.96Z</time></trkpt><trkpt lat="45.6361032" lon="9.4539269"><ele>227.0</ele><time>2026-04-24T14:11:36.959Z</time></trkpt><trkpt lat="45.6360306" lon="9.4538746"><ele>226.66666666666669</ele><time>2026-04-24T14:11:37.96Z</time></trkpt><trkpt lat="45.6359131" lon="9.4537873"><ele>226.33333333333334</ele><time>2026-04-24T14:11:39.959Z</time></trkpt><trkpt lat="45.6358497" lon="9.4537432"><ele>226.0</ele><time>2026-04-24T14:11:40.96Z</time></trkpt><trkpt lat="45.6357843" lon="9.4536812"><ele>225.66666666666669</ele><time>2026-04-24T14:11:41.959Z</time></trkpt><trkpt lat="45.6357256" lon="9.453636"><ele>225.33333333333334</ele><time>2026-04-24T14:11:42.959Z</time></trkpt><trkpt lat="45.6356597" lon="9.4535874"><ele>225.0</ele><time>2026-04-24T14:11:43.959Z</time></trkpt><trkpt lat="45.6355872" lon="9.4535329"><ele>225.0</ele><time>2026-04-24T14:11:44.959Z</time></trkpt><trkpt lat="45.6355293" lon="9.4534581"><ele>225.0</ele><time>2026-04-24T14:11:45.96Z</time></trkpt><trkpt lat="45.6354701" lon="9.4533755"><ele>225.0</ele><time>2026-04-24T14:11:46.96Z</time></trkpt><trkpt lat="45.6354194" lon="9.4532849"><ele>225.0</ele><time>2026-04-24T14:11:47.959Z</time></trkpt><trkpt lat="45.6353834" lon="9.4531897"><ele>225.0</ele><time>2026-04-24T14:11:48.959Z</time></trkpt><trkpt lat="45.6353421" lon="9.4530766"><ele>225.0</ele><time>2026-04-24T14:11:49.959Z</time></trkpt><trkpt lat="45.6353123" lon="9.4529861"><ele>225.0</ele><time>2026-04-24T14:11:50.959Z</time></trkpt><trkpt lat="45.6352737" lon="9.452892"><ele>225.0</ele><time>2026-04-24T14:11:51.96Z</time></trkpt><trkpt lat="45.6352277" lon="9.4527961"><ele>225.0</ele><time>2026-04-24T14:11:52.959Z</time></trkpt><trkpt lat="45.6351698" lon="9.4527039"><ele>225.0</ele><time>2026-04-24T14:11:53.959Z</time></trkpt><trkpt lat="45.6351136" lon="9.4526112"><ele>225.0</ele><time>2026-04-24T14:11:54.959Z</time></trkpt><trkpt lat="45.6350527" lon="9.4525278"><ele>225.0</ele><time>2026-04-24T14:11:55.959Z</time></trkpt><trkpt lat="45.6349899" lon="9.4524441"><ele>225.0</ele><time>2026-04-24T14:11:56.96Z</time></trkpt><trkpt lat="45.6349255" lon="9.4523543"><ele>225.0</ele><time>2026-04-24T14:11:57.959Z</time></trkpt><trkpt lat="45.6348482" lon="9.4522668"><ele>225.0</ele><time>2026-04-24T14:11:58.959Z</time></trkpt><trkpt lat="45.6347848" lon="9.4521867"><ele>225.0</ele><time>2026-04-24T14:11:59.96Z</time></trkpt><trkpt lat="45.6347214" lon="9.4521017"><ele>225.0</ele><time>2026-04-24T14:12:00.959Z</time></trkpt><trkpt lat="45.6346461" lon="9.4520277"><ele>224.5</ele><time>2026-04-24T14:12:01.959Z</time></trkpt><trkpt lat="45.6345801" lon="9.4519548"><ele>224.0</ele><time>2026-04-24T14:12:02.96Z</time></trkpt><trkpt lat="45.6345172" lon="9.4518755"><ele>223.5</ele><time>2026-04-24T14:12:03.959Z</time></trkpt><trkpt lat="45.6344525" lon="9.4517721"><ele>223.0</ele><time>2026-04-24T14:12:04.959Z</time></trkpt><trkpt lat="45.6343836" lon="9.4516996"><ele>222.5</ele><time>2026-04-24T14:12:05.96Z</time></trkpt><trkpt lat="45.6343191" lon="9.4516219"><ele>222.0</ele><time>2026-04-24T14:12:06.959Z</time></trkpt><trkpt lat="45.6342458" lon="9.4515489"><ele>222.0</ele><time>2026-04-24T14:12:07.96Z</time></trkpt><trkpt lat="45.6341657" lon="9.4515014"><ele>222.0</ele><time>2026-04-24T14:12:08.959Z</time></trkpt><trkpt lat="45.6340957" lon="9.451451"><ele>222.0</ele><time>2026-04-24T14:12:09.959Z</time></trkpt><trkpt lat="45.6340158" lon="9.4513977"><ele>222.0</ele><time>2026-04-24T14:12:10.959Z</time></trkpt><trkpt lat="45.6339401" lon="9.4513601"><ele>222.0</ele><time>2026-04-24T14:12:11.959Z</time></trkpt><trkpt lat="45.6338661" lon="9.451308"><ele>222.0</ele><time>2026-04-24T14:12:12.96Z</time></trkpt><trkpt lat="45.6337956" lon="9.451264"><ele>222.0</ele><time>2026-04-24T14:12:13.96Z</time></trkpt><trkpt lat="45.6337268" lon="9.4512163"><ele>222.0</ele><time>2026-04-24T14:12:14.96Z</time></trkpt><trkpt lat="45.6336598" lon="9.4511535"><ele>222.0</ele><time>2026-04-24T14:12:15.959Z</time></trkpt><trkpt lat="45.6335933" lon="9.4510968"><ele>222.0</ele><time>2026-04-24T14:12:16.96Z</time></trkpt><trkpt lat="45.6335245" lon="9.4510443"><ele>222.0</ele><time>2026-04-24T14:12:17.96Z</time></trkpt><trkpt lat="45.6334608" lon="9.4509741"><ele>222.0</ele><time>2026-04-24T14:12:18.959Z</time></trkpt><trkpt lat="45.6334032" lon="9.4509067"><ele>222.16666666666666</ele><time>2026-04-24T14:12:19.96Z</time></trkpt><trkpt lat="45.6333472" lon="9.4508317"><ele>222.33333333333331</ele><time>2026-04-24T14:12:20.959Z</time></trkpt><trkpt lat="45.6332854" lon="9.4507493"><ele>222.5</ele><time>2026-04-24T14:12:21.959Z</time></trkpt><trkpt lat="45.6332451" lon="9.4506655"><ele>222.66666666666666</ele><time>2026-04-24T14:12:22.96Z</time></trkpt><trkpt lat="45.6332026" lon="9.4505778"><ele>222.83333333333331</ele><time>2026-04-24T14:12:23.959Z</time></trkpt><trkpt lat="45.6331746" lon="9.4504797"><ele>223.0</ele><time>2026-04-24T14:12:24.959Z</time></trkpt><trkpt lat="45.6331518" lon="9.4503751"><ele>223.33333333333331</ele><time>2026-04-24T14:12:25.959Z</time></trkpt><trkpt lat="45.6331405" lon="9.4502641"><ele>223.66666666666666</ele><time>2026-04-24T14:12:26.959Z</time></trkpt><trkpt lat="45.6331189" lon="9.4501666"><ele>224.0</ele><time>2026-04-24T14:12:27.96Z</time></trkpt><trkpt lat="45.6330967" lon="9.4500811"><ele>224.33333333333331</ele><time>2026-04-24T14:12:28.959Z</time></trkpt><trkpt lat="45.633064" lon="9.4499869"><ele>224.66666666666666</ele><time>2026-04-24T14:12:29.959Z</time></trkpt><trkpt lat="45.6329777" lon="9.4498541"><ele>225.0</ele><time>2026-04-24T14:12:31.959Z</time></trkpt><trkpt lat="45.6329239" lon="9.4497764"><ele>225.0</ele><time>2026-04-24T14:12:32.959Z</time></trkpt><trkpt lat="45.6328646" lon="9.4497071"><ele>225.0</ele><time>2026-04-24T14:12:33.959Z</time></trkpt><trkpt lat="45.6328118" lon="9.4496541"><ele>225.0</ele><time>2026-04-24T14:12:34.959Z</time></trkpt><trkpt lat="45.6327727" lon="9.4495689"><ele>225.0</ele><time>2026-04-24T14:12:35.96Z</time></trkpt><trkpt lat="45.6327164" lon="9.4494048"><ele>225.0</ele><time>2026-04-24T14:12:37.959Z</time></trkpt><trkpt lat="45.6327042" lon="9.4493159"><ele>225.0</ele><time>2026-04-24T14:12:38.959Z</time></trkpt><trkpt lat="45.632695" lon="9.4492098"><ele>225.0</ele><time>2026-04-24T14:12:39.959Z</time></trkpt><trkpt lat="45.632701" lon="9.4491032"><ele>225.0</ele><time>2026-04-24T14:12:40.96Z</time></trkpt><trkpt lat="45.6326983" lon="9.4489906"><ele>225.0</ele><time>2026-04-24T14:12:41.959Z</time></trkpt><trkpt lat="45.6327091" lon="9.4489001"><ele>225.0</ele><time>2026-04-24T14:12:42.96Z</time></trkpt><trkpt lat="45.6327306" lon="9.4487144"><ele>225.0</ele><time>2026-04-24T14:12:44.959Z</time></trkpt><trkpt lat="45.6327347" lon="9.448624"><ele>225.0</ele><time>2026-04-24T14:12:45.959Z</time></trkpt><trkpt lat="45.6327401" lon="9.4485328"><ele>225.0</ele><time>2026-04-24T14:12:46.96Z</time></trkpt><trkpt lat="45.6327498" lon="9.4483581"><ele>225.0</ele><time>2026-04-24T14:12:48.959Z</time></trkpt><trkpt lat="45.6327555" lon="9.4481817"><ele>225.0</ele><time>2026-04-24T14:12:50.959Z</time></trkpt><trkpt lat="45.6327593" lon="9.4480126"><ele>225.0</ele><time>2026-04-24T14:12:52.959Z</time></trkpt><trkpt lat="45.6327629" lon="9.4478262"><ele>224.66666666666666</ele><time>2026-04-24T14:12:54.959Z</time></trkpt><trkpt lat="45.6327588" lon="9.4476494"><ele>224.33333333333331</ele><time>2026-04-24T14:12:56.959Z</time></trkpt><trkpt lat="45.6327641" lon="9.4475528"><ele>224.0</ele><time>2026-04-24T14:12:57.96Z</time></trkpt><trkpt lat="45.6327631" lon="9.4474621"><ele>223.66666666666666</ele><time>2026-04-24T14:12:58.96Z</time></trkpt><trkpt lat="45.6327682" lon="9.4473643"><ele>223.33333333333331</ele><time>2026-04-24T14:12:59.96Z</time></trkpt><trkpt lat="45.6327685" lon="9.4472693"><ele>223.0</ele><time>2026-04-24T14:13:00.959Z</time></trkpt><trkpt lat="45.6327765" lon="9.4471644"><ele>222.85714285714286</ele><time>2026-04-24T14:13:01.959Z</time></trkpt><trkpt lat="45.6327818" lon="9.4470689"><ele>222.71428571428572</ele><time>2026-04-24T14:13:02.959Z</time></trkpt><trkpt lat="45.6327817" lon="9.4469679"><ele>222.57142857142856</ele><time>2026-04-24T14:13:03.959Z</time></trkpt><trkpt lat="45.6327818" lon="9.4468752"><ele>222.42857142857144</ele><time>2026-04-24T14:13:04.959Z</time></trkpt><trkpt lat="45.6327824" lon="9.4467746"><ele>222.2857142857143</ele><time>2026-04-24T14:13:05.959Z</time></trkpt><trkpt lat="45.6327868" lon="9.4466801"><ele>222.14285714285714</ele><time>2026-04-24T14:13:06.959Z</time></trkpt><trkpt lat="45.6327916" lon="9.4465773"><ele>222.0</ele><time>2026-04-24T14:13:07.959Z</time></trkpt><trkpt lat="45.6327887" lon="9.4464863"><ele>222.0</ele><time>2026-04-24T14:13:08.959Z</time></trkpt><trkpt lat="45.6327809" lon="9.4463823"><ele>222.0</ele><time>2026-04-24T14:13:09.959Z</time></trkpt><trkpt lat="45.6327837" lon="9.4462781"><ele>222.0</ele><time>2026-04-24T14:13:10.959Z</time></trkpt><trkpt lat="45.6327948" lon="9.4461664"><ele>222.0</ele><time>2026-04-24T14:13:11.96Z</time></trkpt><trkpt lat="45.6328147" lon="9.4460363"><ele>222.0</ele><time>2026-04-24T14:13:12.959Z</time></trkpt><trkpt lat="45.6327862" lon="9.4458724"><ele>222.0</ele><time>2026-04-24T14:13:14.959Z</time></trkpt><trkpt lat="45.6327964" lon="9.4457652"><ele>222.39999999999998</ele><time>2026-04-24T14:13:15.96Z</time></trkpt><trkpt lat="45.6328075" lon="9.4456592"><ele>222.79999999999998</ele><time>2026-04-24T14:13:16.959Z</time></trkpt><trkpt lat="45.6328111" lon="9.4455592"><ele>223.2</ele><time>2026-04-24T14:13:17.959Z</time></trkpt><trkpt lat="45.6328204" lon="9.4453614"><ele>223.6</ele><time>2026-04-24T14:13:19.959Z</time></trkpt><trkpt lat="45.6328273" lon="9.4451695"><ele>224.0</ele><time>2026-04-24T14:13:21.959Z</time></trkpt><trkpt lat="45.6328345" lon="9.4450673"><ele>224.00000000000003</ele><time>2026-04-24T14:13:22.96Z</time></trkpt><trkpt lat="45.6328363" lon="9.4449627"><ele>224.0</ele><time>2026-04-24T14:13:23.959Z</time></trkpt><trkpt lat="45.6328366" lon="9.4448681"><ele>224.0</ele><time>2026-04-24T14:13:24.959Z</time></trkpt><trkpt lat="45.6328392" lon="9.4447724"><ele>224.0</ele><time>2026-04-24T14:13:25.959Z</time></trkpt><trkpt lat="45.632843" lon="9.4446697"><ele>224.00000000000003</ele><time>2026-04-24T14:13:26.959Z</time></trkpt><trkpt lat="45.6328493" lon="9.444471"><ele>224.0</ele><time>2026-04-24T14:13:28.96Z</time></trkpt><trkpt lat="45.6328488" lon="9.4443673"><ele>224.0</ele><time>2026-04-24T14:13:29.96Z</time></trkpt><trkpt lat="45.6328539" lon="9.4442598"><ele>224.0</ele><time>2026-04-24T14:13:30.959Z</time></trkpt><trkpt lat="45.6328487" lon="9.4441655"><ele>224.0</ele><time>2026-04-24T14:13:31.959Z</time></trkpt><trkpt lat="45.632849" lon="9.4440564"><ele>224.0</ele><time>2026-04-24T14:13:32.959Z</time></trkpt><trkpt lat="45.6328426" lon="9.4439512"><ele>224.0</ele><time>2026-04-24T14:13:33.959Z</time></trkpt><trkpt lat="45.6328314" lon="9.4438451"><ele>224.0</ele><time>2026-04-24T14:13:34.959Z</time></trkpt><trkpt lat="45.6328129" lon="9.4437487"><ele>224.0</ele><time>2026-04-24T14:13:35.96Z</time></trkpt><trkpt lat="45.6327924" lon="9.4436484"><ele>224.14285714285714</ele><time>2026-04-24T14:13:36.959Z</time></trkpt><trkpt lat="45.632767" lon="9.4435605"><ele>224.28571428571428</ele><time>2026-04-24T14:13:37.959Z</time></trkpt><trkpt lat="45.6327427" lon="9.4434709"><ele>224.42857142857144</ele><time>2026-04-24T14:13:38.96Z</time></trkpt><trkpt lat="45.632718" lon="9.4433816"><ele>224.57142857142858</ele><time>2026-04-24T14:13:39.959Z</time></trkpt><trkpt lat="45.6326947" lon="9.4432834"><ele>224.71428571428572</ele><time>2026-04-24T14:13:40.959Z</time></trkpt><trkpt lat="45.6326634" lon="9.4431944"><ele>224.8571428571429</ele><time>2026-04-24T14:13:41.959Z</time></trkpt><trkpt lat="45.632636" lon="9.4431054"><ele>225.00000000000003</ele><time>2026-04-24T14:13:42.959Z</time></trkpt><trkpt lat="45.6326312" lon="9.4430064"><ele>225.0</ele><time>2026-04-24T14:13:43.959Z</time></trkpt><trkpt lat="45.6326011" lon="9.4429245"><ele>225.0</ele><time>2026-04-24T14:13:44.959Z</time></trkpt><trkpt lat="45.6325702" lon="9.4428363"><ele>225.0</ele><time>2026-04-24T14:13:45.959Z</time></trkpt><trkpt lat="45.6325529" lon="9.4427456"><ele>225.0</ele><time>2026-04-24T14:13:46.959Z</time></trkpt><trkpt lat="45.6325351" lon="9.4425753"><ele>225.0</ele><time>2026-04-24T14:13:48.959Z</time></trkpt><trkpt lat="45.6325393" lon="9.4424714"><ele>225.0</ele><time>2026-04-24T14:13:49.96Z</time></trkpt><trkpt lat="45.6325631" lon="9.4423707"><ele>225.0</ele><time>2026-04-24T14:13:50.959Z</time></trkpt><trkpt lat="45.6325881" lon="9.4421911"><ele>225.0</ele><time>2026-04-24T14:13:52.959Z</time></trkpt><trkpt lat="45.6325582" lon="9.4420472"><ele>225.0</ele><time>2026-04-24T14:13:54.959Z</time></trkpt><trkpt lat="45.6324585" lon="9.4419906"><ele>225.0</ele><time>2026-04-24T14:13:56.959Z</time></trkpt><trkpt lat="45.632336" lon="9.4419616"><ele>225.0</ele><time>2026-04-24T14:13:58.96Z</time></trkpt><trkpt lat="45.632281" lon="9.4419172"><ele>225.0</ele><time>2026-04-24T14:13:59.96Z</time></trkpt><trkpt lat="45.6322081" lon="9.4417872"><ele>225.0</ele><time>2026-04-24T14:14:01.959Z</time></trkpt><trkpt lat="45.6321806" lon="9.4416259"><ele>225.0</ele><time>2026-04-24T14:14:03.959Z</time></trkpt><trkpt lat="45.6321603" lon="9.4414554"><ele>225.0</ele><time>2026-04-24T14:14:05.96Z</time></trkpt><trkpt lat="45.6321469" lon="9.4413093"><ele>224.8</ele><time>2026-04-24T14:14:07.959Z</time></trkpt><trkpt lat="45.6321511" lon="9.4412193"><ele>224.6</ele><time>2026-04-24T14:14:08.959Z</time></trkpt><trkpt lat="45.6321541" lon="9.4410614"><ele>224.39999999999998</ele><time>2026-04-24T14:14:10.959Z</time></trkpt><trkpt lat="45.6321668" lon="9.4408908"><ele>224.2</ele><time>2026-04-24T14:14:12.96Z</time></trkpt><trkpt lat="45.6321841" lon="9.4407345"><ele>224.0</ele><time>2026-04-24T14:14:14.959Z</time></trkpt><trkpt lat="45.6322016" lon="9.4405595"><ele>224.0</ele><time>2026-04-24T14:14:16.959Z</time></trkpt><trkpt lat="45.632193" lon="9.4403886"><ele>223.99999999999997</ele><time>2026-04-24T14:14:18.959Z</time></trkpt><trkpt lat="45.6321755" lon="9.440221"><ele>223.99999999999997</ele><time>2026-04-24T14:14:20.959Z</time></trkpt><trkpt lat="45.6321463" lon="9.4400423"><ele>224.0</ele><time>2026-04-24T14:14:22.959Z</time></trkpt><trkpt lat="45.6321299" lon="9.439952"><ele>224.0</ele><time>2026-04-24T14:14:23.959Z</time></trkpt><trkpt lat="45.6321104" lon="9.4398518"><ele>224.00000000000003</ele><time>2026-04-24T14:14:24.96Z</time></trkpt><trkpt lat="45.6320891" lon="9.4397664"><ele>224.0</ele><time>2026-04-24T14:14:25.959Z</time></trkpt><trkpt lat="45.6320709" lon="9.4396766"><ele>224.0</ele><time>2026-04-24T14:14:26.959Z</time></trkpt><trkpt lat="45.63205" lon="9.4395848"><ele>224.0</ele><time>2026-04-24T14:14:27.959Z</time></trkpt><trkpt lat="45.6320118" lon="9.4394147"><ele>224.00000000000003</ele><time>2026-04-24T14:14:29.959Z</time></trkpt><trkpt lat="45.63199" lon="9.439324"><ele>224.0</ele><time>2026-04-24T14:14:30.959Z</time></trkpt><trkpt lat="45.6319623" lon="9.4392326"><ele>223.71428571428572</ele><time>2026-04-24T14:14:31.959Z</time></trkpt><trkpt lat="45.6319306" lon="9.4391545"><ele>223.42857142857144</ele><time>2026-04-24T14:14:32.96Z</time></trkpt><trkpt lat="45.631886" lon="9.4390671"><ele>223.14285714285714</ele><time>2026-04-24T14:14:33.96Z</time></trkpt><trkpt lat="45.6318373" lon="9.4389958"><ele>222.85714285714286</ele><time>2026-04-24T14:14:34.96Z</time></trkpt><trkpt lat="45.631781" lon="9.4389466"><ele>222.57142857142858</ele><time>2026-04-24T14:14:35.959Z</time></trkpt><trkpt lat="45.631721" lon="9.4389044"><ele>222.28571428571428</ele><time>2026-04-24T14:14:36.959Z</time></trkpt><trkpt lat="45.6316563" lon="9.438871"><ele>222.0</ele><time>2026-04-24T14:14:37.959Z</time></trkpt><trkpt lat="45.6315818" lon="9.4388667"><ele>222.0</ele><time>2026-04-24T14:14:38.959Z</time></trkpt><trkpt lat="45.631514" lon="9.4388615"><ele>222.0</ele><time>2026-04-24T14:14:39.959Z</time></trkpt><trkpt lat="45.631445" lon="9.4388617"><ele>222.0</ele><time>2026-04-24T14:14:40.959Z</time></trkpt><trkpt lat="45.6313713" lon="9.4388641"><ele>222.0</ele><time>2026-04-24T14:14:41.959Z</time></trkpt><trkpt lat="45.6312969" lon="9.4388633"><ele>222.0</ele><time>2026-04-24T14:14:42.96Z</time></trkpt><trkpt lat="45.6312266" lon="9.4388674"><ele>222.0</ele><time>2026-04-24T14:14:43.959Z</time></trkpt><trkpt lat="45.6311509" lon="9.4388819"><ele>222.0</ele><time>2026-04-24T14:14:44.959Z</time></trkpt><trkpt lat="45.6310757" lon="9.4388822"><ele>222.16666666666666</ele><time>2026-04-24T14:14:45.959Z</time></trkpt><trkpt lat="45.6310016" lon="9.438885"><ele>222.33333333333331</ele><time>2026-04-24T14:14:46.959Z</time></trkpt><trkpt lat="45.6309242" lon="9.4388886"><ele>222.5</ele><time>2026-04-24T14:14:47.959Z</time></trkpt><trkpt lat="45.6308467" lon="9.4388822"><ele>222.66666666666666</ele><time>2026-04-24T14:14:48.959Z</time></trkpt><trkpt lat="45.6307706" lon="9.4388813"><ele>222.83333333333331</ele><time>2026-04-24T14:14:49.959Z</time></trkpt><trkpt lat="45.6306924" lon="9.4388799"><ele>223.0</ele><time>2026-04-24T14:14:50.959Z</time></trkpt><trkpt lat="45.6306205" lon="9.4388773"><ele>222.99999999999997</ele><time>2026-04-24T14:14:51.96Z</time></trkpt><trkpt lat="45.6305487" lon="9.4388806"><ele>223.0</ele><time>2026-04-24T14:14:52.959Z</time></trkpt><trkpt lat="45.6304597" lon="9.4388637"><ele>223.0</ele><time>2026-04-24T14:14:53.96Z</time></trkpt><trkpt lat="45.6303822" lon="9.4388755"><ele>223.0</ele><time>2026-04-24T14:14:54.96Z</time></trkpt><trkpt lat="45.6303087" lon="9.4388714"><ele>222.99999999999997</ele><time>2026-04-24T14:14:55.96Z</time></trkpt><trkpt lat="45.6302343" lon="9.4388784"><ele>223.0</ele><time>2026-04-24T14:14:56.959Z</time></trkpt><trkpt lat="45.6301548" lon="9.4388665"><ele>222.99999999999997</ele><time>2026-04-24T14:14:57.959Z</time></trkpt><trkpt lat="45.6300871" lon="9.4388494"><ele>223.0</ele><time>2026-04-24T14:14:58.959Z</time></trkpt><trkpt lat="45.6299716" lon="9.4387798"><ele>223.0</ele><time>2026-04-24T14:15:00.96Z</time></trkpt><trkpt lat="45.6299088" lon="9.4387442"><ele>223.0</ele><time>2026-04-24T14:15:01.959Z</time></trkpt><trkpt lat="45.6298441" lon="9.4387036"><ele>222.99999999999997</ele><time>2026-04-24T14:15:02.959Z</time></trkpt><trkpt lat="45.6297777" lon="9.438651"><ele>223.0</ele><time>2026-04-24T14:15:03.96Z</time></trkpt><trkpt lat="45.6297097" lon="9.4386007"><ele>222.99999999999997</ele><time>2026-04-24T14:15:04.959Z</time></trkpt><trkpt lat="45.6296613" lon="9.4385357"><ele>223.0</ele><time>2026-04-24T14:15:05.96Z</time></trkpt><trkpt lat="45.6296098" lon="9.4384715"><ele>223.0</ele><time>2026-04-24T14:15:06.959Z</time></trkpt><trkpt lat="45.629551" lon="9.4384008"><ele>223.0</ele><time>2026-04-24T14:15:07.959Z</time></trkpt><trkpt lat="45.6295006" lon="9.4383448"><ele>222.99999999999997</ele><time>2026-04-24T14:15:08.959Z</time></trkpt><trkpt lat="45.6293843" lon="9.438243"><ele>223.0</ele><time>2026-04-24T14:15:10.959Z</time></trkpt><trkpt lat="45.6292627" lon="9.4381652"><ele>222.85714285714286</ele><time>2026-04-24T14:15:12.96Z</time></trkpt><trkpt lat="45.6291976" lon="9.4381322"><ele>222.71428571428572</ele><time>2026-04-24T14:15:13.959Z</time></trkpt><trkpt lat="45.6291235" lon="9.4380981"><ele>222.57142857142856</ele><time>2026-04-24T14:15:14.959Z</time></trkpt><trkpt lat="45.6290536" lon="9.4380774"><ele>222.42857142857144</ele><time>2026-04-24T14:15:15.959Z</time></trkpt><trkpt lat="45.6289778" lon="9.4380614"><ele>222.2857142857143</ele><time>2026-04-24T14:15:16.959Z</time></trkpt><trkpt lat="45.6289014" lon="9.4380465"><ele>222.14285714285714</ele><time>2026-04-24T14:15:17.959Z</time></trkpt><trkpt lat="45.6288255" lon="9.4380381"><ele>222.0</ele><time>2026-04-24T14:15:18.96Z</time></trkpt><trkpt lat="45.628741" lon="9.4380148"><ele>222.0</ele><time>2026-04-24T14:15:19.959Z</time></trkpt><trkpt lat="45.6286686" lon="9.4379967"><ele>222.0</ele><time>2026-04-24T14:15:20.959Z</time></trkpt><trkpt lat="45.628591" lon="9.437986"><ele>222.0</ele><time>2026-04-24T14:15:21.959Z</time></trkpt><trkpt lat="45.6285176" lon="9.4379799"><ele>222.0</ele><time>2026-04-24T14:15:22.96Z</time></trkpt><trkpt lat="45.6284353" lon="9.4379615"><ele>222.0</ele><time>2026-04-24T14:15:23.96Z</time></trkpt><trkpt lat="45.6283602" lon="9.437952"><ele>222.0</ele><time>2026-04-24T14:15:24.959Z</time></trkpt><trkpt lat="45.6282831" lon="9.4379409"><ele>221.85714285714286</ele><time>2026-04-24T14:15:25.959Z</time></trkpt><trkpt lat="45.6282031" lon="9.4379248"><ele>221.71428571428572</ele><time>2026-04-24T14:15:26.959Z</time></trkpt><trkpt lat="45.6281297" lon="9.4379114"><ele>221.57142857142858</ele><time>2026-04-24T14:15:27.96Z</time></trkpt><trkpt lat="45.6280553" lon="9.4378965"><ele>221.42857142857144</ele><time>2026-04-24T14:15:28.959Z</time></trkpt><trkpt lat="45.6279861" lon="9.4378977"><ele>221.28571428571428</ele><time>2026-04-24T14:15:29.959Z</time></trkpt><trkpt lat="45.6279163" lon="9.4378921"><ele>221.14285714285717</ele><time>2026-04-24T14:15:30.959Z</time></trkpt><trkpt lat="45.6278481" lon="9.4378836"><ele>221.0</ele><time>2026-04-24T14:15:31.959Z</time></trkpt><trkpt lat="45.6277779" lon="9.4378654"><ele>220.66666666666669</ele><time>2026-04-24T14:15:32.96Z</time></trkpt><trkpt lat="45.6277154" lon="9.4378369"><ele>220.33333333333334</ele><time>2026-04-24T14:15:33.96Z</time></trkpt><trkpt lat="45.6275769" lon="9.4377793"><ele>220.0</ele><time>2026-04-24T14:15:35.959Z</time></trkpt><trkpt lat="45.6275053" lon="9.4377609"><ele>219.66666666666669</ele><time>2026-04-24T14:15:36.96Z</time></trkpt><trkpt lat="45.6274302" lon="9.4377817"><ele>219.33333333333334</ele><time>2026-04-24T14:15:37.96Z</time></trkpt><trkpt lat="45.6273538" lon="9.4378149"><ele>219.0</ele><time>2026-04-24T14:15:38.959Z</time></trkpt><trkpt lat="45.6272838" lon="9.437834"><ele>219.0</ele><time>2026-04-24T14:15:39.959Z</time></trkpt><trkpt lat="45.6272087" lon="9.4378561"><ele>219.0</ele><time>2026-04-24T14:15:40.959Z</time></trkpt><trkpt lat="45.6271425" lon="9.4378612"><ele>219.0</ele><time>2026-04-24T14:15:41.959Z</time></trkpt><trkpt lat="45.6270745" lon="9.4378697"><ele>219.0</ele><time>2026-04-24T14:15:42.959Z</time></trkpt><trkpt lat="45.6270012" lon="9.4378777"><ele>219.0</ele><time>2026-04-24T14:15:43.959Z</time></trkpt><trkpt lat="45.6269357" lon="9.437894"><ele>219.0</ele><time>2026-04-24T14:15:44.96Z</time></trkpt><trkpt lat="45.6268689" lon="9.4379028"><ele>219.0</ele><time>2026-04-24T14:15:45.959Z</time></trkpt><trkpt lat="45.6267942" lon="9.4379139"><ele>218.85714285714286</ele><time>2026-04-24T14:15:46.96Z</time></trkpt><trkpt lat="45.626724" lon="9.437933"><ele>218.7142857142857</ele><time>2026-04-24T14:15:47.96Z</time></trkpt><trkpt lat="45.6266551" lon="9.4379431"><ele>218.57142857142856</ele><time>2026-04-24T14:15:48.96Z</time></trkpt><trkpt lat="45.6265761" lon="9.4379519"><ele>218.42857142857144</ele><time>2026-04-24T14:15:49.96Z</time></trkpt><trkpt lat="45.6264916" lon="9.4379644"><ele>218.28571428571428</ele><time>2026-04-24T14:15:50.96Z</time></trkpt><trkpt lat="45.6264169" lon="9.4379862"><ele>218.14285714285714</ele><time>2026-04-24T14:15:51.959Z</time></trkpt><trkpt lat="45.6263497" lon="9.4379974"><ele>218.0</ele><time>2026-04-24T14:15:52.959Z</time></trkpt><trkpt lat="45.6262739" lon="9.4380075"><ele>217.85714285714286</ele><time>2026-04-24T14:15:53.96Z</time></trkpt><trkpt lat="45.6261929" lon="9.4380259"><ele>217.71428571428572</ele><time>2026-04-24T14:15:54.959Z</time></trkpt><trkpt lat="45.6261254" lon="9.4380584"><ele>217.57142857142856</ele><time>2026-04-24T14:15:55.96Z</time></trkpt><trkpt lat="45.6260438" lon="9.4380832"><ele>217.42857142857144</ele><time>2026-04-24T14:15:56.96Z</time></trkpt><trkpt lat="45.625976" lon="9.4381099"><ele>217.28571428571428</ele><time>2026-04-24T14:15:57.959Z</time></trkpt><trkpt lat="45.6259128" lon="9.4381544"><ele>217.14285714285714</ele><time>2026-04-24T14:15:58.96Z</time></trkpt><trkpt lat="45.6258579" lon="9.4382071"><ele>217.0</ele><time>2026-04-24T14:15:59.959Z</time></trkpt><trkpt lat="45.625845" lon="9.4383568"><ele>216.83333333333331</ele><time>2026-04-24T14:16:01.959Z</time></trkpt><trkpt lat="45.6258242" lon="9.4384551"><ele>216.66666666666666</ele><time>2026-04-24T14:16:02.959Z</time></trkpt><trkpt lat="45.6258223" lon="9.4385495"><ele>216.5</ele><time>2026-04-24T14:16:03.959Z</time></trkpt><trkpt lat="45.6257944" lon="9.4387186"><ele>216.33333333333331</ele><time>2026-04-24T14:16:05.959Z</time></trkpt><trkpt lat="45.6257637" lon="9.4388025"><ele>216.16666666666666</ele><time>2026-04-24T14:16:06.959Z</time></trkpt><trkpt lat="45.625732" lon="9.4388844"><ele>216.0</ele><time>2026-04-24T14:16:07.959Z</time></trkpt><trkpt lat="45.6256977" lon="9.4389697"><ele>216.0</ele><time>2026-04-24T14:16:08.959Z</time></trkpt><trkpt lat="45.6256524" lon="9.4390451"><ele>216.0</ele><time>2026-04-24T14:16:09.959Z</time></trkpt><trkpt lat="45.6255942" lon="9.4391135"><ele>216.0</ele><time>2026-04-24T14:16:10.96Z</time></trkpt><trkpt lat="45.6255361" lon="9.4391744"><ele>216.0</ele><time>2026-04-24T14:16:11.96Z</time></trkpt><trkpt lat="45.6254597" lon="9.4391941"><ele>216.0</ele><time>2026-04-24T14:16:12.959Z</time></trkpt><trkpt lat="45.6253908" lon="9.4391959"><ele>216.0</ele><time>2026-04-24T14:16:13.959Z</time></trkpt><trkpt lat="45.6253196" lon="9.439187"><ele>216.0</ele><time>2026-04-24T14:16:14.959Z</time></trkpt><trkpt lat="45.6252385" lon="9.4391693"><ele>215.5</ele><time>2026-04-24T14:16:15.959Z</time></trkpt><trkpt lat="45.6251611" lon="9.4391537"><ele>215.0</ele><time>2026-04-24T14:16:16.959Z</time></trkpt><trkpt lat="45.6250975" lon="9.4391311"><ele>214.5</ele><time>2026-04-24T14:16:17.959Z</time></trkpt><trkpt lat="45.6250281" lon="9.4391122"><ele>214.0</ele><time>2026-04-24T14:16:18.959Z</time></trkpt><trkpt lat="45.6249407" lon="9.4390965"><ele>213.5</ele><time>2026-04-24T14:16:19.959Z</time></trkpt><trkpt lat="45.6248566" lon="9.4390768"><ele>213.0</ele><time>2026-04-24T14:16:20.96Z</time></trkpt><trkpt lat="45.6247737" lon="9.4390565"><ele>213.0</ele><time>2026-04-24T14:16:21.959Z</time></trkpt><trkpt lat="45.6246969" lon="9.4390326"><ele>213.0</ele><time>2026-04-24T14:16:22.959Z</time></trkpt><trkpt lat="45.6245958" lon="9.4390125"><ele>213.0</ele><time>2026-04-24T14:16:23.959Z</time></trkpt><trkpt lat="45.6245177" lon="9.4389913"><ele>213.0</ele><time>2026-04-24T14:16:24.96Z</time></trkpt><trkpt lat="45.6244371" lon="9.4389541"><ele>213.0</ele><time>2026-04-24T14:16:25.959Z</time></trkpt><trkpt lat="45.6243663" lon="9.4389313"><ele>213.0</ele><time>2026-04-24T14:16:26.959Z</time></trkpt><trkpt lat="45.6242864" lon="9.4389066"><ele>213.0</ele><time>2026-04-24T14:16:27.96Z</time></trkpt><trkpt lat="45.6242089" lon="9.4388845"><ele>213.0</ele><time>2026-04-24T14:16:28.959Z</time></trkpt><trkpt lat="45.6241318" lon="9.4388659"><ele>213.0</ele><time>2026-04-24T14:16:29.96Z</time></trkpt><trkpt lat="45.624062" lon="9.4388557"><ele>213.0</ele><time>2026-04-24T14:16:30.959Z</time></trkpt><trkpt lat="45.6239852" lon="9.4388375"><ele>213.0</ele><time>2026-04-24T14:16:31.96Z</time></trkpt><trkpt lat="45.6239028" lon="9.4388149"><ele>213.0</ele><time>2026-04-24T14:16:32.96Z</time></trkpt><trkpt lat="45.6238256" lon="9.4387899"><ele>212.85714285714283</ele><time>2026-04-24T14:16:33.959Z</time></trkpt><trkpt lat="45.6237588" lon="9.4387731"><ele>212.71428571428572</ele><time>2026-04-24T14:16:34.96Z</time></trkpt><trkpt lat="45.6236853" lon="9.4387517"><ele>212.57142857142856</ele><time>2026-04-24T14:16:35.959Z</time></trkpt><trkpt lat="45.6236124" lon="9.4387326"><ele>212.42857142857142</ele><time>2026-04-24T14:16:36.96Z</time></trkpt><trkpt lat="45.6235495" lon="9.4387175"><ele>212.28571428571428</ele><time>2026-04-24T14:16:37.96Z</time></trkpt><trkpt lat="45.6234636" lon="9.4387001"><ele>212.14285714285714</ele><time>2026-04-24T14:16:38.959Z</time></trkpt><trkpt lat="45.6233986" lon="9.4386797"><ele>212.0</ele><time>2026-04-24T14:16:39.96Z</time></trkpt><trkpt lat="45.6233285" lon="9.4386536"><ele>212.00000000000003</ele><time>2026-04-24T14:16:40.959Z</time></trkpt><trkpt lat="45.623246" lon="9.4386337"><ele>212.0</ele><time>2026-04-24T14:16:41.959Z</time></trkpt><trkpt lat="45.6231755" lon="9.4386119"><ele>212.0</ele><time>2026-04-24T14:16:42.959Z</time></trkpt><trkpt lat="45.62309" lon="9.438591"><ele>212.0</ele><time>2026-04-24T14:16:43.959Z</time></trkpt><trkpt lat="45.6230064" lon="9.438562"><ele>212.00000000000003</ele><time>2026-04-24T14:16:44.96Z</time></trkpt><trkpt lat="45.6229256" lon="9.4385451"><ele>212.0</ele><time>2026-04-24T14:16:45.959Z</time></trkpt><trkpt lat="45.6228618" lon="9.4385248"><ele>212.00000000000003</ele><time>2026-04-24T14:16:46.96Z</time></trkpt><trkpt lat="45.6227949" lon="9.4385061"><ele>212.0</ele><time>2026-04-24T14:16:47.959Z</time></trkpt><trkpt lat="45.622731" lon="9.4384899"><ele>212.0</ele><time>2026-04-24T14:16:48.959Z</time></trkpt><trkpt lat="45.6226689" lon="9.4384592"><ele>212.0</ele><time>2026-04-24T14:16:49.959Z</time></trkpt><trkpt lat="45.6225815" lon="9.4383931"><ele>212.00000000000003</ele><time>2026-04-24T14:16:51.959Z</time></trkpt><trkpt lat="45.6224967" lon="9.438324"><ele>212.0</ele><time>2026-04-24T14:16:53.96Z</time></trkpt><trkpt lat="45.6223981" lon="9.438287"><ele>212.0</ele><time>2026-04-24T14:16:55.959Z</time></trkpt><trkpt lat="45.622277" lon="9.4382537"><ele>212.0</ele><time>2026-04-24T14:16:57.959Z</time></trkpt><trkpt lat="45.6221586" lon="9.4382171"><ele>212.0</ele><time>2026-04-24T14:16:59.959Z</time></trkpt><trkpt lat="45.6220432" lon="9.4381952"><ele>212.0</ele><time>2026-04-24T14:17:01.96Z</time></trkpt><trkpt lat="45.621933" lon="9.4381625"><ele>212.00000000000003</ele><time>2026-04-24T14:17:03.96Z</time></trkpt><trkpt lat="45.6218275" lon="9.4381313"><ele>212.0</ele><time>2026-04-24T14:17:05.959Z</time></trkpt><trkpt lat="45.6217381" lon="9.4381003"><ele>212.0</ele><time>2026-04-24T14:17:07.959Z</time></trkpt><trkpt lat="45.6216873" lon="9.4380367"><ele>212.0</ele><time>2026-04-24T14:17:09.959Z</time></trkpt><trkpt lat="45.6216979" lon="9.4379366"><ele>212.00000000000003</ele><time>2026-04-24T14:17:11.96Z</time></trkpt><trkpt lat="45.6217249" lon="9.4378224"><ele>212.0</ele><time>2026-04-24T14:17:13.959Z</time></trkpt><trkpt lat="45.6217459" lon="9.4376867"><ele>211.8</ele><time>2026-04-24T14:17:15.959Z</time></trkpt><trkpt lat="45.6217685" lon="9.4375454"><ele>211.6</ele><time>2026-04-24T14:17:17.959Z</time></trkpt><trkpt lat="45.6217905" lon="9.4373871"><ele>211.4</ele><time>2026-04-24T14:17:19.959Z</time></trkpt><trkpt lat="45.6218244" lon="9.4372402"><ele>211.20000000000002</ele><time>2026-04-24T14:17:21.959Z</time></trkpt><trkpt lat="45.6218525" lon="9.4370754"><ele>211.0</ele><time>2026-04-24T14:17:23.959Z</time></trkpt><trkpt lat="45.6218739" lon="9.4369174"><ele>211.0</ele><time>2026-04-24T14:17:25.959Z</time></trkpt><trkpt lat="45.6218992" lon="9.4367608"><ele>211.0</ele><time>2026-04-24T14:17:27.959Z</time></trkpt><trkpt lat="45.6219248" lon="9.4366002"><ele>211.0</ele><time>2026-04-24T14:17:29.96Z</time></trkpt><trkpt lat="45.6219497" lon="9.4364479"><ele>211.0</ele><time>2026-04-24T14:17:31.959Z</time></trkpt><trkpt lat="45.621974" lon="9.4362873"><ele>211.60000000000002</ele><time>2026-04-24T14:17:33.96Z</time></trkpt><trkpt lat="45.6219987" lon="9.4361313"><ele>212.2</ele><time>2026-04-24T14:17:35.958Z</time></trkpt><trkpt lat="45.6220337" lon="9.435978"><ele>212.79999999999998</ele><time>2026-04-24T14:17:37.96Z</time></trkpt><trkpt lat="45.6220524" lon="9.435831"><ele>213.39999999999998</ele><time>2026-04-24T14:17:39.959Z</time></trkpt><trkpt lat="45.6220699" lon="9.4356952"><ele>214.0</ele><time>2026-04-24T14:17:41.959Z</time></trkpt><trkpt lat="45.6220554" lon="9.4355546"><ele>213.39999999999998</ele><time>2026-04-24T14:17:43.96Z</time></trkpt><trkpt lat="45.6219794" lon="9.4354875"><ele>212.79999999999998</ele><time>2026-04-24T14:17:45.959Z</time></trkpt><trkpt lat="45.6218663" lon="9.4354484"><ele>212.2</ele><time>2026-04-24T14:17:47.959Z</time></trkpt><trkpt lat="45.6217567" lon="9.4354173"><ele>211.60000000000002</ele><time>2026-04-24T14:17:49.959Z</time></trkpt><trkpt lat="45.6216947" lon="9.4353851"><ele>211.0</ele><time>2026-04-24T14:17:50.959Z</time></trkpt><trkpt lat="45.6216291" lon="9.4353681"><ele>211.0</ele><time>2026-04-24T14:17:51.959Z</time></trkpt><trkpt lat="45.6215025" lon="9.4353255"><ele>211.0</ele><time>2026-04-24T14:17:53.959Z</time></trkpt><trkpt lat="45.6214392" lon="9.4353091"><ele>211.0</ele><time>2026-04-24T14:17:54.959Z</time></trkpt><trkpt lat="45.6213341" lon="9.4352652"><ele>211.0</ele><time>2026-04-24T14:17:56.959Z</time></trkpt><trkpt lat="45.6212582" lon="9.4352412"><ele>211.0</ele><time>2026-04-24T14:17:57.959Z</time></trkpt><trkpt lat="45.6211425" lon="9.4351932"><ele>211.75</ele><time>2026-04-24T14:17:59.959Z</time></trkpt><trkpt lat="45.6210304" lon="9.4351421"><ele>212.5</ele><time>2026-04-24T14:18:01.96Z</time></trkpt><trkpt lat="45.6209106" lon="9.4351045"><ele>213.25</ele><time>2026-04-24T14:18:03.96Z</time></trkpt><trkpt lat="45.6207923" lon="9.4350699"><ele>214.0</ele><time>2026-04-24T14:18:05.959Z</time></trkpt><trkpt lat="45.6206709" lon="9.4350332"><ele>214.0</ele><time>2026-04-24T14:18:07.96Z</time></trkpt><trkpt lat="45.620549" lon="9.4349815"><ele>213.99999999999997</ele><time>2026-04-24T14:18:09.959Z</time></trkpt><trkpt lat="45.6204872" lon="9.434958"><ele>213.99999999999997</ele><time>2026-04-24T14:18:10.959Z</time></trkpt><trkpt lat="45.6203908" lon="9.4348935"><ele>214.0</ele><time>2026-04-24T14:18:12.96Z</time></trkpt><trkpt lat="45.6203129" lon="9.4347663"><ele>214.0</ele><time>2026-04-24T14:18:14.959Z</time></trkpt><trkpt lat="45.620282" lon="9.4346189"><ele>213.6</ele><time>2026-04-24T14:18:16.959Z</time></trkpt><trkpt lat="45.6203014" lon="9.4344818"><ele>213.2</ele><time>2026-04-24T14:18:18.959Z</time></trkpt><trkpt lat="45.620334" lon="9.4343409"><ele>212.79999999999998</ele><time>2026-04-24T14:18:20.96Z</time></trkpt><trkpt lat="45.6203708" lon="9.4341719"><ele>212.39999999999998</ele><time>2026-04-24T14:18:22.959Z</time></trkpt><trkpt lat="45.6203943" lon="9.4340295"><ele>212.0</ele><time>2026-04-24T14:18:24.959Z</time></trkpt><trkpt lat="45.6204281" lon="9.4338653"><ele>211.5</ele><time>2026-04-24T14:18:26.959Z</time></trkpt><trkpt lat="45.6204566" lon="9.4337006"><ele>211.0</ele><time>2026-04-24T14:18:28.959Z</time></trkpt><trkpt lat="45.6204799" lon="9.4335334"><ele>210.5</ele><time>2026-04-24T14:18:30.959Z</time></trkpt><trkpt lat="45.620509" lon="9.4333627"><ele>210.0</ele><time>2026-04-24T14:18:32.959Z</time></trkpt><trkpt lat="45.6205439" lon="9.4331915"><ele>210.0</ele><time>2026-04-24T14:18:34.96Z</time></trkpt><trkpt lat="45.6205724" lon="9.4330279"><ele>210.0</ele><time>2026-04-24T14:18:36.96Z</time></trkpt><trkpt lat="45.6205992" lon="9.4328728"><ele>210.0</ele><time>2026-04-24T14:18:38.959Z</time></trkpt><trkpt lat="45.6206246" lon="9.4327174"><ele>210.0</ele><time>2026-04-24T14:18:40.959Z</time></trkpt><trkpt lat="45.6206418" lon="9.4326278"><ele>210.0</ele><time>2026-04-24T14:18:41.96Z</time></trkpt><trkpt lat="45.6206656" lon="9.4324776"><ele>210.25</ele><time>2026-04-24T14:18:43.959Z</time></trkpt><trkpt lat="45.6206837" lon="9.4323108"><ele>210.5</ele><time>2026-04-24T14:18:45.959Z</time></trkpt><trkpt lat="45.6207071" lon="9.4321565"><ele>210.75</ele><time>2026-04-24T14:18:47.959Z</time></trkpt><trkpt lat="45.6207302" lon="9.431999"><ele>211.0</ele><time>2026-04-24T14:18:49.96Z</time></trkpt><trkpt lat="45.6207501" lon="9.4318208"><ele>211.0</ele><time>2026-04-24T14:18:51.96Z</time></trkpt><trkpt lat="45.6207697" lon="9.4316732"><ele>211.0</ele><time>2026-04-24T14:18:53.959Z</time></trkpt><trkpt lat="45.6207848" lon="9.4315161"><ele>211.0</ele><time>2026-04-24T14:18:55.959Z</time></trkpt><trkpt lat="45.6208173" lon="9.4313523"><ele>211.0</ele><time>2026-04-24T14:18:57.959Z</time></trkpt><trkpt lat="45.6208356" lon="9.4311965"><ele>211.0</ele><time>2026-04-24T14:18:59.959Z</time></trkpt><trkpt lat="45.6208506" lon="9.4310505"><ele>210.8</ele><time>2026-04-24T14:19:01.959Z</time></trkpt><trkpt lat="45.6208699" lon="9.4309089"><ele>210.60000000000002</ele><time>2026-04-24T14:19:03.96Z</time></trkpt><trkpt lat="45.6208657" lon="9.4307759"><ele>210.4</ele><time>2026-04-24T14:19:05.959Z</time></trkpt><trkpt lat="45.6207943" lon="9.4306816"><ele>210.2</ele><time>2026-04-24T14:19:07.959Z</time></trkpt><trkpt lat="45.6207005" lon="9.4306618"><ele>210.0</ele><time>2026-04-24T14:19:09.959Z</time></trkpt><trkpt lat="45.6205852" lon="9.4306393"><ele>210.0</ele><time>2026-04-24T14:19:11.959Z</time></trkpt><trkpt lat="45.6204627" lon="9.4306298"><ele>210.0</ele><time>2026-04-24T14:19:13.959Z</time></trkpt><trkpt lat="45.6203974" lon="9.43062"><ele>210.0</ele><time>2026-04-24T14:19:14.96Z</time></trkpt><trkpt lat="45.6203335" lon="9.4306124"><ele>210.0</ele><time>2026-04-24T14:19:15.959Z</time></trkpt><trkpt lat="45.6202185" lon="9.4305885"><ele>210.0</ele><time>2026-04-24T14:19:17.959Z</time></trkpt><trkpt lat="45.6201537" lon="9.4305767"><ele>210.0</ele><time>2026-04-24T14:19:18.96Z</time></trkpt><trkpt lat="45.6200259" lon="9.430558"><ele>210.0</ele><time>2026-04-24T14:19:20.959Z</time></trkpt><trkpt lat="45.6198908" lon="9.4305263"><ele>210.0</ele><time>2026-04-24T14:19:22.96Z</time></trkpt><trkpt lat="45.6198229" lon="9.4305193"><ele>210.0</ele><time>2026-04-24T14:19:23.959Z</time></trkpt><trkpt lat="45.619758" lon="9.430503"><ele>210.0</ele><time>2026-04-24T14:19:24.96Z</time></trkpt><trkpt lat="45.6196878" lon="9.4304897"><ele>210.0</ele><time>2026-04-24T14:19:25.959Z</time></trkpt><trkpt lat="45.6195606" lon="9.4304699"><ele>209.6</ele><time>2026-04-24T14:19:27.959Z</time></trkpt><trkpt lat="45.6194346" lon="9.4304459"><ele>209.2</ele><time>2026-04-24T14:19:29.96Z</time></trkpt><trkpt lat="45.6193123" lon="9.4304145"><ele>208.8</ele><time>2026-04-24T14:19:31.959Z</time></trkpt><trkpt lat="45.6192469" lon="9.4303975"><ele>208.4</ele><time>2026-04-24T14:19:32.959Z</time></trkpt><trkpt lat="45.6191219" lon="9.4304"><ele>208.0</ele><time>2026-04-24T14:19:34.959Z</time></trkpt><trkpt lat="45.6190557" lon="9.4304054"><ele>208.0</ele><time>2026-04-24T14:19:35.96Z</time></trkpt><trkpt lat="45.6189819" lon="9.4304191"><ele>208.0</ele><time>2026-04-24T14:19:36.96Z</time></trkpt><trkpt lat="45.6189154" lon="9.4304293"><ele>208.0</ele><time>2026-04-24T14:19:37.96Z</time></trkpt><trkpt lat="45.6188499" lon="9.4304449"><ele>208.0</ele><time>2026-04-24T14:19:38.959Z</time></trkpt><trkpt lat="45.6187837" lon="9.4304728"><ele>208.0</ele><time>2026-04-24T14:19:39.96Z</time></trkpt><trkpt lat="45.6187222" lon="9.4305078"><ele>208.0</ele><time>2026-04-24T14:19:40.959Z</time></trkpt><trkpt lat="45.6186614" lon="9.4305331"><ele>208.0</ele><time>2026-04-24T14:19:41.96Z</time></trkpt><trkpt lat="45.6185918" lon="9.4305562"><ele>207.99999999999997</ele><time>2026-04-24T14:19:42.959Z</time></trkpt><trkpt lat="45.6185291" lon="9.4305887"><ele>208.0</ele><time>2026-04-24T14:19:43.959Z</time></trkpt><trkpt lat="45.6184686" lon="9.4306211"><ele>208.0</ele><time>2026-04-24T14:19:44.959Z</time></trkpt><trkpt lat="45.6184052" lon="9.4306555"><ele>208.0</ele><time>2026-04-24T14:19:45.96Z</time></trkpt><trkpt lat="45.6183451" lon="9.4306935"><ele>207.99999999999997</ele><time>2026-04-24T14:19:46.959Z</time></trkpt><trkpt lat="45.6182276" lon="9.4307714"><ele>208.0</ele><time>2026-04-24T14:19:48.959Z</time></trkpt><trkpt lat="45.6181361" lon="9.4308885"><ele>207.99999999999997</ele><time>2026-04-24T14:19:50.959Z</time></trkpt><trkpt lat="45.6180761" lon="9.4310342"><ele>208.0</ele><time>2026-04-24T14:19:52.959Z</time></trkpt><trkpt lat="45.6180457" lon="9.4311135"><ele>208.0</ele><time>2026-04-24T14:19:53.959Z</time></trkpt><trkpt lat="45.6180087" lon="9.4311946"><ele>208.0</ele><time>2026-04-24T14:19:54.959Z</time></trkpt><trkpt lat="45.6179848" lon="9.4312844"><ele>207.99999999999997</ele><time>2026-04-24T14:19:55.959Z</time></trkpt><trkpt lat="45.6179509" lon="9.4313616"><ele>208.0</ele><time>2026-04-24T14:19:56.959Z</time></trkpt><trkpt lat="45.6179078" lon="9.4315212"><ele>207.85714285714286</ele><time>2026-04-24T14:19:58.96Z</time></trkpt><trkpt lat="45.6178756" lon="9.4316033"><ele>207.71428571428572</ele><time>2026-04-24T14:19:59.96Z</time></trkpt><trkpt lat="45.6178494" lon="9.4316857"><ele>207.57142857142858</ele><time>2026-04-24T14:20:00.96Z</time></trkpt><trkpt lat="45.6178133" lon="9.4317679"><ele>207.42857142857144</ele><time>2026-04-24T14:20:01.959Z</time></trkpt><trkpt lat="45.6177834" lon="9.4318485"><ele>207.28571428571428</ele><time>2026-04-24T14:20:02.96Z</time></trkpt><trkpt lat="45.6177589" lon="9.4319338"><ele>207.14285714285717</ele><time>2026-04-24T14:20:03.959Z</time></trkpt><trkpt lat="45.617711" lon="9.4320957"><ele>207.0</ele><time>2026-04-24T14:20:05.959Z</time></trkpt><trkpt lat="45.6176828" lon="9.4321786"><ele>206.85714285714286</ele><time>2026-04-24T14:20:06.959Z</time></trkpt><trkpt lat="45.6176586" lon="9.4322661"><ele>206.71428571428572</ele><time>2026-04-24T14:20:07.959Z</time></trkpt><trkpt lat="45.6176302" lon="9.4323494"><ele>206.57142857142856</ele><time>2026-04-24T14:20:08.959Z</time></trkpt><trkpt lat="45.6176007" lon="9.4324307"><ele>206.42857142857144</ele><time>2026-04-24T14:20:09.959Z</time></trkpt><trkpt lat="45.6175664" lon="9.4325147"><ele>206.28571428571428</ele><time>2026-04-24T14:20:10.959Z</time></trkpt><trkpt lat="45.6175351" lon="9.4325963"><ele>206.14285714285714</ele><time>2026-04-24T14:20:11.959Z</time></trkpt><trkpt lat="45.6174955" lon="9.4326804"><ele>206.0</ele><time>2026-04-24T14:20:12.959Z</time></trkpt><trkpt lat="45.6174417" lon="9.4327658"><ele>206.00000000000003</ele><time>2026-04-24T14:20:13.96Z</time></trkpt><trkpt lat="45.6173941" lon="9.4328494"><ele>206.0</ele><time>2026-04-24T14:20:14.959Z</time></trkpt><trkpt lat="45.6173403" lon="9.4329195"><ele>206.0</ele><time>2026-04-24T14:20:15.96Z</time></trkpt><trkpt lat="45.6172988" lon="9.432995"><ele>206.0</ele><time>2026-04-24T14:20:16.96Z</time></trkpt><trkpt lat="45.6172519" lon="9.4330596"><ele>206.00000000000003</ele><time>2026-04-24T14:20:17.959Z</time></trkpt><trkpt lat="45.6171744" lon="9.4331943"><ele>206.0</ele><time>2026-04-24T14:20:19.959Z</time></trkpt><trkpt lat="45.6170906" lon="9.4333292"><ele>206.00000000000003</ele><time>2026-04-24T14:20:21.959Z</time></trkpt><trkpt lat="45.6170122" lon="9.4334674"><ele>206.0</ele><time>2026-04-24T14:20:23.96Z</time></trkpt><trkpt lat="45.61697" lon="9.4335356"><ele>206.0</ele><time>2026-04-24T14:20:24.96Z</time></trkpt><trkpt lat="45.6169282" lon="9.4336054"><ele>206.0</ele><time>2026-04-24T14:20:25.959Z</time></trkpt><trkpt lat="45.6168454" lon="9.4337424"><ele>206.00000000000003</ele><time>2026-04-24T14:20:27.959Z</time></trkpt><trkpt lat="45.6168016" lon="9.4338131"><ele>206.0</ele><time>2026-04-24T14:20:28.959Z</time></trkpt><trkpt lat="45.6167146" lon="9.4339035"><ele>206.0</ele><time>2026-04-24T14:20:30.959Z</time></trkpt><trkpt lat="45.6166012" lon="9.4339223"><ele>206.0</ele><time>2026-04-24T14:20:32.959Z</time></trkpt><trkpt lat="45.6165108" lon="9.4338595"><ele>206.0</ele><time>2026-04-24T14:20:34.959Z</time></trkpt><trkpt lat="45.616439" lon="9.4337431"><ele>206.0</ele><time>2026-04-24T14:20:36.96Z</time></trkpt><trkpt lat="45.6163726" lon="9.4335965"><ele>206.0</ele><time>2026-04-24T14:20:38.959Z</time></trkpt><trkpt lat="45.6163135" lon="9.4334429"><ele>205.8</ele><time>2026-04-24T14:20:40.959Z</time></trkpt><trkpt lat="45.6162985" lon="9.4333548"><ele>205.60000000000002</ele><time>2026-04-24T14:20:41.959Z</time></trkpt><trkpt lat="45.6162589" lon="9.4332025"><ele>205.4</ele><time>2026-04-24T14:20:43.959Z</time></trkpt><trkpt lat="45.6162406" lon="9.4330362"><ele>205.2</ele><time>2026-04-24T14:20:45.96Z</time></trkpt><trkpt lat="45.6162203" lon="9.4328815"><ele>205.0</ele><time>2026-04-24T14:20:47.959Z</time></trkpt><trkpt lat="45.616201" lon="9.4327282"><ele>205.0</ele><time>2026-04-24T14:20:49.959Z</time></trkpt><trkpt lat="45.6161843" lon="9.4325732"><ele>205.0</ele><time>2026-04-24T14:20:51.959Z</time></trkpt><trkpt lat="45.616171" lon="9.432419"><ele>205.0</ele><time>2026-04-24T14:20:53.959Z</time></trkpt><trkpt lat="45.6161615" lon="9.4322851"><ele>205.0</ele><time>2026-04-24T14:20:55.959Z</time></trkpt><trkpt lat="45.61615" lon="9.4321385"><ele>205.0</ele><time>2026-04-24T14:20:57.959Z</time></trkpt><trkpt lat="45.6161139" lon="9.4320624"><ele>205.0</ele><time>2026-04-24T14:20:59.959Z</time></trkpt><trkpt lat="45.616022" lon="9.4320737"><ele>205.0</ele><time>2026-04-24T14:21:02.96Z</time></trkpt><trkpt lat="45.6159729" lon="9.432179"><ele>205.0</ele><time>2026-04-24T14:21:05.959Z</time></trkpt><trkpt lat="45.6159446" lon="9.4322899"><ele>205.0</ele><time>2026-04-24T14:21:07.96Z</time></trkpt><trkpt lat="45.6159239" lon="9.4324177"><ele>205.0</ele><time>2026-04-24T14:21:09.959Z</time></trkpt><trkpt lat="45.6158996" lon="9.4325708"><ele>204.8</ele><time>2026-04-24T14:21:11.959Z</time></trkpt><trkpt lat="45.6158905" lon="9.4327018"><ele>204.6</ele><time>2026-04-24T14:21:13.959Z</time></trkpt><trkpt lat="45.6158528" lon="9.4328098"><ele>204.39999999999998</ele><time>2026-04-24T14:21:16.959Z</time></trkpt><trkpt lat="45.6157318" lon="9.4330046"><ele>204.2</ele><time>2026-04-24T14:21:23.949Z</time></trkpt><trkpt lat="45.6157083" lon="9.433115"><ele>204.0</ele><time>2026-04-24T14:21:24.95Z</time></trkpt><trkpt lat="45.6156829" lon="9.4332194"><ele>204.0</ele><time>2026-04-24T14:21:25.949Z</time></trkpt><trkpt lat="45.6156649" lon="9.4333064"><ele>204.0</ele><time>2026-04-24T14:21:26.956Z</time></trkpt><trkpt lat="45.6156425" lon="9.4334412"><ele>204.0</ele><time>2026-04-24T14:21:28.955Z</time></trkpt><trkpt lat="45.6155709" lon="9.4335061"><ele>204.0</ele><time>2026-04-24T14:21:31.955Z</time></trkpt><trkpt lat="45.6154915" lon="9.4334822"><ele>204.0</ele><time>2026-04-24T14:21:33.955Z</time></trkpt><trkpt lat="45.615397" lon="9.4334581"><ele>204.0</ele><time>2026-04-24T14:21:35.955Z</time></trkpt><trkpt lat="45.6152841" lon="9.4334252"><ele>204.25</ele><time>2026-04-24T14:21:37.956Z</time></trkpt><trkpt lat="45.6151678" lon="9.4333882"><ele>204.5</ele><time>2026-04-24T14:21:39.955Z</time></trkpt><trkpt lat="45.6150659" lon="9.4333357"><ele>204.75</ele><time>2026-04-24T14:21:41.955Z</time></trkpt><trkpt lat="45.6149478" lon="9.4332877"><ele>205.0</ele><time>2026-04-24T14:21:43.955Z</time></trkpt><trkpt lat="45.6148468" lon="9.4332427"><ele>205.0</ele><time>2026-04-24T14:21:45.956Z</time></trkpt><trkpt lat="45.6147383" lon="9.4331884"><ele>205.0</ele><time>2026-04-24T14:21:47.955Z</time></trkpt><trkpt lat="45.6146216" lon="9.4331286"><ele>205.0</ele><time>2026-04-24T14:21:49.956Z</time></trkpt><trkpt lat="45.6145028" lon="9.4330714"><ele>205.0</ele><time>2026-04-24T14:21:51.956Z</time></trkpt><trkpt lat="45.6143889" lon="9.4330115"><ele>204.5</ele><time>2026-04-24T14:21:53.955Z</time></trkpt><trkpt lat="45.614303" lon="9.4329532"><ele>204.0</ele><time>2026-04-24T14:21:55.956Z</time></trkpt><trkpt lat="45.6142001" lon="9.4329079"><ele>203.5</ele><time>2026-04-24T14:21:57.955Z</time></trkpt><trkpt lat="45.6140734" lon="9.4328396"><ele>203.0</ele><time>2026-04-24T14:21:59.955Z</time></trkpt><trkpt lat="45.613956" lon="9.4328486"><ele>203.0</ele><time>2026-04-24T14:22:01.955Z</time></trkpt><trkpt lat="45.6138495" lon="9.4328913"><ele>203.0</ele><time>2026-04-24T14:22:03.955Z</time></trkpt><trkpt lat="45.613775" lon="9.4328956"><ele>203.0</ele><time>2026-04-24T14:22:04.955Z</time></trkpt><trkpt lat="45.613703" lon="9.4328938"><ele>203.0</ele><time>2026-04-24T14:22:05.955Z</time></trkpt><trkpt lat="45.6135602" lon="9.4328486"><ele>203.0</ele><time>2026-04-24T14:22:07.955Z</time></trkpt><trkpt lat="45.6134904" lon="9.4328209"><ele>203.0</ele><time>2026-04-24T14:22:08.956Z</time></trkpt><trkpt lat="45.6133917" lon="9.4327593"><ele>203.0</ele><time>2026-04-24T14:22:10.955Z</time></trkpt><trkpt lat="45.6132834" lon="9.4327076"><ele>203.0</ele><time>2026-04-24T14:22:12.956Z</time></trkpt><trkpt lat="45.6132224" lon="9.4326785"><ele>203.0</ele><time>2026-04-24T14:22:13.955Z</time></trkpt><trkpt lat="45.6131193" lon="9.4326283"><ele>203.0</ele><time>2026-04-24T14:22:15.955Z</time></trkpt><trkpt lat="45.6130013" lon="9.4325712"><ele>203.0</ele><time>2026-04-24T14:22:17.955Z</time></trkpt><trkpt lat="45.612941" lon="9.4325355"><ele>203.0</ele><time>2026-04-24T14:22:18.956Z</time></trkpt><trkpt lat="45.6128209" lon="9.4325194"><ele>203.0</ele><time>2026-04-24T14:22:20.955Z</time></trkpt><trkpt lat="45.6127466" lon="9.432468"><ele>203.0</ele><time>2026-04-24T14:22:22.955Z</time></trkpt><trkpt lat="45.6127286" lon="9.4323128"><ele>203.0</ele><time>2026-04-24T14:22:25.955Z</time></trkpt><trkpt lat="45.6127473" lon="9.4321713"><ele>202.8</ele><time>2026-04-24T14:22:27.955Z</time></trkpt><trkpt lat="45.6127731" lon="9.4320285"><ele>202.60000000000002</ele><time>2026-04-24T14:22:29.955Z</time></trkpt><trkpt lat="45.6127922" lon="9.4318835"><ele>202.39999999999998</ele><time>2026-04-24T14:22:31.955Z</time></trkpt><trkpt lat="45.6128184" lon="9.4317346"><ele>202.2</ele><time>2026-04-24T14:22:33.956Z</time></trkpt><trkpt lat="45.6128414" lon="9.4315748"><ele>202.0</ele><time>2026-04-24T14:22:35.956Z</time></trkpt><trkpt lat="45.6128587" lon="9.4314131"><ele>202.2</ele><time>2026-04-24T14:22:37.955Z</time></trkpt><trkpt lat="45.6128805" lon="9.431252"><ele>202.39999999999998</ele><time>2026-04-24T14:22:39.956Z</time></trkpt><trkpt lat="45.6129016" lon="9.4310959"><ele>202.60000000000002</ele><time>2026-04-24T14:22:41.955Z</time></trkpt><trkpt lat="45.6129146" lon="9.4309416"><ele>202.8</ele><time>2026-04-24T14:22:43.955Z</time></trkpt><trkpt lat="45.612931" lon="9.4307818"><ele>203.0</ele><time>2026-04-24T14:22:45.956Z</time></trkpt><trkpt lat="45.6129467" lon="9.4306179"><ele>202.75</ele><time>2026-04-24T14:22:47.955Z</time></trkpt><trkpt lat="45.6129519" lon="9.4304485"><ele>202.5</ele><time>2026-04-24T14:22:49.956Z</time></trkpt><trkpt lat="45.6129564" lon="9.4302927"><ele>202.25</ele><time>2026-04-24T14:22:51.955Z</time></trkpt><trkpt lat="45.6129611" lon="9.430129"><ele>202.0</ele><time>2026-04-24T14:22:53.955Z</time></trkpt><trkpt lat="45.6129636" lon="9.4299634"><ele>202.0</ele><time>2026-04-24T14:22:55.955Z</time></trkpt><trkpt lat="45.6129389" lon="9.4298175"><ele>202.0</ele><time>2026-04-24T14:22:57.955Z</time></trkpt><trkpt lat="45.6128761" lon="9.4296761"><ele>202.0</ele><time>2026-04-24T14:22:59.956Z</time></trkpt><trkpt lat="45.6127927" lon="9.4295558"><ele>202.0</ele><time>2026-04-24T14:23:01.956Z</time></trkpt><trkpt lat="45.6127282" lon="9.4294098"><ele>202.0</ele><time>2026-04-24T14:23:03.955Z</time></trkpt><trkpt lat="45.6127128" lon="9.4293203"><ele>202.0</ele><time>2026-04-24T14:23:04.956Z</time></trkpt><trkpt lat="45.6127212" lon="9.4291532"><ele>202.0</ele><time>2026-04-24T14:23:06.956Z</time></trkpt><trkpt lat="45.6127542" lon="9.4289889"><ele>202.0</ele><time>2026-04-24T14:23:08.955Z</time></trkpt><trkpt lat="45.6127694" lon="9.4288998"><ele>202.0</ele><time>2026-04-24T14:23:09.955Z</time></trkpt><trkpt lat="45.6128022" lon="9.4287324"><ele>201.99999999999997</ele><time>2026-04-24T14:23:11.956Z</time></trkpt><trkpt lat="45.6128138" lon="9.4286406"><ele>202.0</ele><time>2026-04-24T14:23:12.955Z</time></trkpt><trkpt lat="45.6128446" lon="9.4284699"><ele>202.0</ele><time>2026-04-24T14:23:14.956Z</time></trkpt><trkpt lat="45.6128764" lon="9.4283064"><ele>202.0</ele><time>2026-04-24T14:23:16.955Z</time></trkpt><trkpt lat="45.6128929" lon="9.4282113"><ele>201.99999999999997</ele><time>2026-04-24T14:23:17.955Z</time></trkpt><trkpt lat="45.6129074" lon="9.4281212"><ele>202.0</ele><time>2026-04-24T14:23:18.956Z</time></trkpt><trkpt lat="45.612942" lon="9.4279495"><ele>202.0</ele><time>2026-04-24T14:23:20.955Z</time></trkpt><trkpt lat="45.6129663" lon="9.4277779"><ele>202.0</ele><time>2026-04-24T14:23:22.955Z</time></trkpt><trkpt lat="45.6130007" lon="9.427615"><ele>202.0</ele><time>2026-04-24T14:23:24.955Z</time></trkpt><trkpt lat="45.6130273" lon="9.4274544"><ele>202.0</ele><time>2026-04-24T14:23:26.955Z</time></trkpt><trkpt lat="45.6130525" lon="9.4272975"><ele>202.0</ele><time>2026-04-24T14:23:28.955Z</time></trkpt><trkpt lat="45.6130715" lon="9.4271416"><ele>202.0</ele><time>2026-04-24T14:23:30.955Z</time></trkpt><trkpt lat="45.6130782" lon="9.4269863"><ele>202.0</ele><time>2026-04-24T14:23:32.955Z</time></trkpt><trkpt lat="45.6130391" lon="9.4268354"><ele>202.0</ele><time>2026-04-24T14:23:34.955Z</time></trkpt><trkpt lat="45.6129555" lon="9.4267516"><ele>202.0</ele><time>2026-04-24T14:23:36.956Z</time></trkpt><trkpt lat="45.6128506" lon="9.4267331"><ele>202.0</ele><time>2026-04-24T14:23:38.956Z</time></trkpt><trkpt lat="45.6127405" lon="9.4267032"><ele>202.0</ele><time>2026-04-24T14:23:40.955Z</time></trkpt><trkpt lat="45.6126317" lon="9.4266737"><ele>202.0</ele><time>2026-04-24T14:23:42.955Z</time></trkpt><trkpt lat="45.6125261" lon="9.4265868"><ele>202.0</ele><time>2026-04-24T14:23:44.956Z</time></trkpt><trkpt lat="45.6124616" lon="9.426536"><ele>202.0</ele><time>2026-04-24T14:23:45.955Z</time></trkpt><trkpt lat="45.6123496" lon="9.4264611"><ele>201.99999999999997</ele><time>2026-04-24T14:23:47.955Z</time></trkpt><trkpt lat="45.6122358" lon="9.4264025"><ele>202.0</ele><time>2026-04-24T14:23:49.956Z</time></trkpt><trkpt lat="45.6121723" lon="9.4263668"><ele>202.0</ele><time>2026-04-24T14:23:50.955Z</time></trkpt><trkpt lat="45.6121122" lon="9.4263111"><ele>202.0</ele><time>2026-04-24T14:23:51.955Z</time></trkpt><trkpt lat="45.6120569" lon="9.4262585"><ele>201.99999999999997</ele><time>2026-04-24T14:23:52.956Z</time></trkpt><trkpt lat="45.6119891" lon="9.4262085"><ele>202.0</ele><time>2026-04-24T14:23:53.955Z</time></trkpt><trkpt lat="45.6119245" lon="9.4261819"><ele>201.2</ele><time>2026-04-24T14:23:54.956Z</time></trkpt><trkpt lat="45.6118029" lon="9.4261507"><ele>200.39999999999998</ele><time>2026-04-24T14:23:56.955Z</time></trkpt><trkpt lat="45.6116712" lon="9.4261345"><ele>199.60000000000002</ele><time>2026-04-24T14:23:58.955Z</time></trkpt><trkpt lat="45.6116053" lon="9.4261309"><ele>198.8</ele><time>2026-04-24T14:23:59.955Z</time></trkpt><trkpt lat="45.6115404" lon="9.4261299"><ele>198.0</ele><time>2026-04-24T14:24:00.956Z</time></trkpt><trkpt lat="45.6114761" lon="9.426124"><ele>198.0</ele><time>2026-04-24T14:24:01.955Z</time></trkpt><trkpt lat="45.6113595" lon="9.4261124"><ele>198.0</ele><time>2026-04-24T14:24:03.955Z</time></trkpt><trkpt lat="45.6112543" lon="9.426084"><ele>198.0</ele><time>2026-04-24T14:24:05.956Z</time></trkpt><trkpt lat="45.6111367" lon="9.426047"><ele>198.0</ele><time>2026-04-24T14:24:07.955Z</time></trkpt><trkpt lat="45.6110659" lon="9.4260118"><ele>198.0</ele><time>2026-04-24T14:24:08.955Z</time></trkpt><trkpt lat="45.6109794" lon="9.4259639"><ele>198.66666666666666</ele><time>2026-04-24T14:24:10.956Z</time></trkpt><trkpt lat="45.6109061" lon="9.4259162"><ele>199.33333333333331</ele><time>2026-04-24T14:24:12.955Z</time></trkpt><trkpt lat="45.610826" lon="9.4258837"><ele>200.0</ele><time>2026-04-24T14:24:17.955Z</time></trkpt><trkpt lat="45.610782" lon="9.4258113"><ele>200.66666666666666</ele><time>2026-04-24T14:24:19.955Z</time></trkpt><trkpt lat="45.6107472" lon="9.4257139"><ele>201.33333333333331</ele><time>2026-04-24T14:24:21.955Z</time></trkpt><trkpt lat="45.6107134" lon="9.4256136"><ele>202.0</ele><time>2026-04-24T14:24:23.955Z</time></trkpt><trkpt lat="45.6106526" lon="9.4255595"><ele>202.0</ele><time>2026-04-24T14:24:25.956Z</time></trkpt><trkpt lat="45.6105689" lon="9.4255615"><ele>202.0</ele><time>2026-04-24T14:24:28.956Z</time></trkpt><trkpt lat="45.6105018" lon="9.4255463"><ele>202.0</ele><time>2026-04-24T14:24:30.955Z</time></trkpt><trkpt lat="45.6104201" lon="9.4255225"><ele>202.0</ele><time>2026-04-24T14:24:32.955Z</time></trkpt><trkpt lat="45.6103103" lon="9.4254835"><ele>202.0</ele><time>2026-04-24T14:24:34.955Z</time></trkpt><trkpt lat="45.6102022" lon="9.4254445"><ele>201.0</ele><time>2026-04-24T14:24:36.956Z</time></trkpt><trkpt lat="45.6100969" lon="9.4253968"><ele>200.0</ele><time>2026-04-24T14:24:38.955Z</time></trkpt><trkpt lat="45.6099884" lon="9.4253541"><ele>199.0</ele><time>2026-04-24T14:24:40.955Z</time></trkpt><trkpt lat="45.6098922" lon="9.4253078"><ele>198.0</ele><time>2026-04-24T14:24:42.956Z</time></trkpt><trkpt lat="45.6098108" lon="9.425273"><ele>197.0</ele><time>2026-04-24T14:24:44.955Z</time></trkpt><trkpt lat="45.6097294" lon="9.4252701"><ele>197.0</ele><time>2026-04-24T14:24:46.955Z</time></trkpt><trkpt lat="45.6096731" lon="9.4253146"><ele>197.0</ele><time>2026-04-24T14:24:48.955Z</time></trkpt><trkpt lat="45.6096177" lon="9.4253815"><ele>197.0</ele><time>2026-04-24T14:24:51.955Z</time></trkpt><trkpt lat="45.6095781" lon="9.4254737"><ele>197.0</ele><time>2026-04-24T14:24:53.956Z</time></trkpt><trkpt lat="45.6095606" lon="9.4255789"><ele>197.0</ele><time>2026-04-24T14:24:55.955Z</time></trkpt><trkpt lat="45.6095502" lon="9.4256871"><ele>197.0</ele><time>2026-04-24T14:24:57.955Z</time></trkpt><trkpt lat="45.6095493" lon="9.425795"><ele>197.0</ele><time>2026-04-24T14:24:59.955Z</time></trkpt><trkpt lat="45.6095921" lon="9.4258895"><ele>197.83333333333334</ele><time>2026-04-24T14:25:02.955Z</time></trkpt><trkpt lat="45.6096607" lon="9.4259187"><ele>198.66666666666669</ele><time>2026-04-24T14:25:05.956Z</time></trkpt><trkpt lat="45.6096533" lon="9.4260332"><ele>199.5</ele><time>2026-04-24T14:25:45.956Z</time></trkpt><trkpt lat="45.6096477" lon="9.426156"><ele>200.33333333333331</ele><time>2026-04-24T14:25:48.955Z</time></trkpt><trkpt lat="45.6096493" lon="9.4262519"><ele>201.16666666666666</ele><time>2026-04-24T14:25:50.956Z</time></trkpt><trkpt lat="45.6096461" lon="9.4263577"><ele>202.0</ele><time>2026-04-24T14:25:52.956Z</time></trkpt><trkpt lat="45.6096433" lon="9.4264607"><ele>201.99999999999997</ele><time>2026-04-24T14:25:54.955Z</time></trkpt><trkpt lat="45.6096413" lon="9.4265714"><ele>202.0</ele><time>2026-04-24T14:25:56.955Z</time></trkpt><trkpt lat="45.6096511" lon="9.4266753"><ele>202.0</ele><time>2026-04-24T14:25:58.956Z</time></trkpt><trkpt lat="45.6096551" lon="9.4267882"><ele>202.0</ele><time>2026-04-24T14:26:00.955Z</time></trkpt><trkpt lat="45.6096416" lon="9.4269026"><ele>201.99999999999997</ele><time>2026-04-24T14:26:02.956Z</time></trkpt><trkpt lat="45.6096388" lon="9.4270207"><ele>202.0</ele><time>2026-04-24T14:26:04.955Z</time></trkpt><trkpt lat="45.6096734" lon="9.4271059"><ele>202.0</ele><time>2026-04-24T14:26:06.955Z</time></trkpt><trkpt lat="45.6099853" lon="9.4272145"><ele>200.0</ele><time>2026-04-24T14:31:36.342Z</time></trkpt></trkseg></trk></gpx>